<?xml version="1.0" encoding="UTF-8"?>
<gpx xmlns="http://www.topografix.com/GPX/1/1"
     creator="GpsDump 4.92"
     version="1.1"
     xmlns:xsi="http://www.w3.org/2001/XMLSchema-instance"
     xsi:schemaLocation="http://www.topografix.com/GPX/1/1 http://www.topografix.com/GPX/1/1/gpx.xsd">
  <metadata>
    <link href="http://www.gethome.no/stein.sorensen/">
      <text>GPS dump for www.flightlog.org</text>
    </link>
    <time>2018-09-20T08:25:26Z</time>
    <bounds minlat="40.236200" minlon="-4.920083" maxlat="40.313933" maxlon="-4.748733"/>
  </metadata>
  <trk>
    <name>Track 001</name>
    <trkseg>
      <trkpt lat="40.256667" lon="-4.905550">
        <ele>1261.0</ele>
        <time>2018-09-16T11:31:37Z</time>
      </trkpt>
      <trkpt lat="40.256667" lon="-4.905550">
        <ele>1261.0</ele>
        <time>2018-09-16T11:31:38Z</time>
      </trkpt>
      <trkpt lat="40.256667" lon="-4.905550">
        <ele>1261.0</ele>
        <time>2018-09-16T11:31:39Z</time>
      </trkpt>
      <trkpt lat="40.256667" lon="-4.905550">
        <ele>1261.0</ele>
        <time>2018-09-16T11:31:40Z</time>
      </trkpt>
      <trkpt lat="40.256683" lon="-4.905550">
        <ele>1261.0</ele>
        <time>2018-09-16T11:31:41Z</time>
      </trkpt>
      <trkpt lat="40.256667" lon="-4.905550">
        <ele>1261.0</ele>
        <time>2018-09-16T11:31:42Z</time>
      </trkpt>
      <trkpt lat="40.256667" lon="-4.905533">
        <ele>1261.0</ele>
        <time>2018-09-16T11:31:43Z</time>
      </trkpt>
      <trkpt lat="40.256667" lon="-4.905533">
        <ele>1260.0</ele>
        <time>2018-09-16T11:31:44Z</time>
      </trkpt>
      <trkpt lat="40.256667" lon="-4.905533">
        <ele>1260.0</ele>
        <time>2018-09-16T11:31:45Z</time>
      </trkpt>
      <trkpt lat="40.256667" lon="-4.905517">
        <ele>1260.0</ele>
        <time>2018-09-16T11:31:46Z</time>
      </trkpt>
      <trkpt lat="40.256667" lon="-4.905517">
        <ele>1260.0</ele>
        <time>2018-09-16T11:31:47Z</time>
      </trkpt>
      <trkpt lat="40.256667" lon="-4.905517">
        <ele>1260.0</ele>
        <time>2018-09-16T11:31:48Z</time>
      </trkpt>
      <trkpt lat="40.256667" lon="-4.905517">
        <ele>1260.0</ele>
        <time>2018-09-16T11:31:49Z</time>
      </trkpt>
      <trkpt lat="40.256667" lon="-4.905517">
        <ele>1260.0</ele>
        <time>2018-09-16T11:31:50Z</time>
      </trkpt>
      <trkpt lat="40.256667" lon="-4.905517">
        <ele>1260.0</ele>
        <time>2018-09-16T11:31:51Z</time>
      </trkpt>
      <trkpt lat="40.256667" lon="-4.905533">
        <ele>1260.0</ele>
        <time>2018-09-16T11:31:52Z</time>
      </trkpt>
      <trkpt lat="40.256650" lon="-4.905533">
        <ele>1260.0</ele>
        <time>2018-09-16T11:31:53Z</time>
      </trkpt>
      <trkpt lat="40.256650" lon="-4.905533">
        <ele>1260.0</ele>
        <time>2018-09-16T11:31:54Z</time>
      </trkpt>
      <trkpt lat="40.256650" lon="-4.905533">
        <ele>1260.0</ele>
        <time>2018-09-16T11:31:55Z</time>
      </trkpt>
      <trkpt lat="40.256667" lon="-4.905517">
        <ele>1260.0</ele>
        <time>2018-09-16T11:31:56Z</time>
      </trkpt>
      <trkpt lat="40.256667" lon="-4.905533">
        <ele>1261.0</ele>
        <time>2018-09-16T11:31:57Z</time>
      </trkpt>
      <trkpt lat="40.256667" lon="-4.905533">
        <ele>1261.0</ele>
        <time>2018-09-16T11:31:58Z</time>
      </trkpt>
      <trkpt lat="40.256667" lon="-4.905533">
        <ele>1261.0</ele>
        <time>2018-09-16T11:31:59Z</time>
      </trkpt>
      <trkpt lat="40.256667" lon="-4.905533">
        <ele>1262.0</ele>
        <time>2018-09-16T11:32:00Z</time>
      </trkpt>
      <trkpt lat="40.256667" lon="-4.905550">
        <ele>1262.0</ele>
        <time>2018-09-16T11:32:01Z</time>
      </trkpt>
      <trkpt lat="40.256667" lon="-4.905550">
        <ele>1261.0</ele>
        <time>2018-09-16T11:32:02Z</time>
      </trkpt>
      <trkpt lat="40.256667" lon="-4.905550">
        <ele>1261.0</ele>
        <time>2018-09-16T11:32:03Z</time>
      </trkpt>
      <trkpt lat="40.256667" lon="-4.905550">
        <ele>1261.0</ele>
        <time>2018-09-16T11:32:04Z</time>
      </trkpt>
      <trkpt lat="40.256667" lon="-4.905550">
        <ele>1261.0</ele>
        <time>2018-09-16T11:32:05Z</time>
      </trkpt>
      <trkpt lat="40.256667" lon="-4.905567">
        <ele>1260.0</ele>
        <time>2018-09-16T11:32:06Z</time>
      </trkpt>
      <trkpt lat="40.256667" lon="-4.905567">
        <ele>1260.0</ele>
        <time>2018-09-16T11:32:07Z</time>
      </trkpt>
      <trkpt lat="40.256667" lon="-4.905567">
        <ele>1260.0</ele>
        <time>2018-09-16T11:32:08Z</time>
      </trkpt>
      <trkpt lat="40.256667" lon="-4.905567">
        <ele>1259.0</ele>
        <time>2018-09-16T11:32:09Z</time>
      </trkpt>
      <trkpt lat="40.256667" lon="-4.905567">
        <ele>1259.0</ele>
        <time>2018-09-16T11:32:10Z</time>
      </trkpt>
      <trkpt lat="40.256667" lon="-4.905567">
        <ele>1260.0</ele>
        <time>2018-09-16T11:32:11Z</time>
      </trkpt>
      <trkpt lat="40.256667" lon="-4.905567">
        <ele>1261.0</ele>
        <time>2018-09-16T11:32:12Z</time>
      </trkpt>
      <trkpt lat="40.256667" lon="-4.905567">
        <ele>1261.0</ele>
        <time>2018-09-16T11:32:13Z</time>
      </trkpt>
      <trkpt lat="40.256667" lon="-4.905567">
        <ele>1261.0</ele>
        <time>2018-09-16T11:32:14Z</time>
      </trkpt>
      <trkpt lat="40.256667" lon="-4.905567">
        <ele>1261.0</ele>
        <time>2018-09-16T11:32:15Z</time>
      </trkpt>
      <trkpt lat="40.256667" lon="-4.905567">
        <ele>1261.0</ele>
        <time>2018-09-16T11:32:16Z</time>
      </trkpt>
      <trkpt lat="40.256667" lon="-4.905567">
        <ele>1261.0</ele>
        <time>2018-09-16T11:32:17Z</time>
      </trkpt>
      <trkpt lat="40.256667" lon="-4.905550">
        <ele>1263.0</ele>
        <time>2018-09-16T11:32:19Z</time>
      </trkpt>
      <trkpt lat="40.256667" lon="-4.905533">
        <ele>1265.0</ele>
        <time>2018-09-16T11:32:21Z</time>
      </trkpt>
      <trkpt lat="40.256667" lon="-4.905517">
        <ele>1267.0</ele>
        <time>2018-09-16T11:32:22Z</time>
      </trkpt>
      <trkpt lat="40.256667" lon="-4.905517">
        <ele>1268.0</ele>
        <time>2018-09-16T11:32:23Z</time>
      </trkpt>
      <trkpt lat="40.256667" lon="-4.905500">
        <ele>1269.0</ele>
        <time>2018-09-16T11:32:24Z</time>
      </trkpt>
      <trkpt lat="40.256667" lon="-4.905500">
        <ele>1270.0</ele>
        <time>2018-09-16T11:32:25Z</time>
      </trkpt>
      <trkpt lat="40.256667" lon="-4.905517">
        <ele>1271.0</ele>
        <time>2018-09-16T11:32:26Z</time>
      </trkpt>
      <trkpt lat="40.256667" lon="-4.905517">
        <ele>1266.0</ele>
        <time>2018-09-16T11:32:27Z</time>
      </trkpt>
      <trkpt lat="40.256667" lon="-4.905517">
        <ele>1266.0</ele>
        <time>2018-09-16T11:32:28Z</time>
      </trkpt>
      <trkpt lat="40.256667" lon="-4.905517">
        <ele>1266.0</ele>
        <time>2018-09-16T11:32:29Z</time>
      </trkpt>
      <trkpt lat="40.256650" lon="-4.905533">
        <ele>1264.0</ele>
        <time>2018-09-16T11:32:31Z</time>
      </trkpt>
      <trkpt lat="40.256650" lon="-4.905567">
        <ele>1263.0</ele>
        <time>2018-09-16T11:32:32Z</time>
      </trkpt>
      <trkpt lat="40.256650" lon="-4.905600">
        <ele>1261.0</ele>
        <time>2018-09-16T11:32:33Z</time>
      </trkpt>
      <trkpt lat="40.256650" lon="-4.905600">
        <ele>1260.0</ele>
        <time>2018-09-16T11:32:34Z</time>
      </trkpt>
      <trkpt lat="40.256650" lon="-4.905600">
        <ele>1260.0</ele>
        <time>2018-09-16T11:32:35Z</time>
      </trkpt>
      <trkpt lat="40.256650" lon="-4.905600">
        <ele>1260.0</ele>
        <time>2018-09-16T11:32:36Z</time>
      </trkpt>
      <trkpt lat="40.256650" lon="-4.905600">
        <ele>1260.0</ele>
        <time>2018-09-16T11:32:37Z</time>
      </trkpt>
      <trkpt lat="40.256650" lon="-4.905600">
        <ele>1260.0</ele>
        <time>2018-09-16T11:32:38Z</time>
      </trkpt>
      <trkpt lat="40.256650" lon="-4.905600">
        <ele>1261.0</ele>
        <time>2018-09-16T11:32:39Z</time>
      </trkpt>
      <trkpt lat="40.256650" lon="-4.905600">
        <ele>1260.0</ele>
        <time>2018-09-16T11:32:40Z</time>
      </trkpt>
      <trkpt lat="40.256650" lon="-4.905600">
        <ele>1260.0</ele>
        <time>2018-09-16T11:32:41Z</time>
      </trkpt>
      <trkpt lat="40.256667" lon="-4.905600">
        <ele>1259.0</ele>
        <time>2018-09-16T11:32:42Z</time>
      </trkpt>
      <trkpt lat="40.256667" lon="-4.905600">
        <ele>1259.0</ele>
        <time>2018-09-16T11:32:43Z</time>
      </trkpt>
      <trkpt lat="40.256667" lon="-4.905600">
        <ele>1259.0</ele>
        <time>2018-09-16T11:32:44Z</time>
      </trkpt>
      <trkpt lat="40.256667" lon="-4.905600">
        <ele>1258.0</ele>
        <time>2018-09-16T11:32:45Z</time>
      </trkpt>
      <trkpt lat="40.256667" lon="-4.905600">
        <ele>1258.0</ele>
        <time>2018-09-16T11:32:46Z</time>
      </trkpt>
      <trkpt lat="40.256667" lon="-4.905600">
        <ele>1258.0</ele>
        <time>2018-09-16T11:32:47Z</time>
      </trkpt>
      <trkpt lat="40.256667" lon="-4.905600">
        <ele>1258.0</ele>
        <time>2018-09-16T11:32:48Z</time>
      </trkpt>
      <trkpt lat="40.256667" lon="-4.905600">
        <ele>1258.0</ele>
        <time>2018-09-16T11:32:49Z</time>
      </trkpt>
      <trkpt lat="40.256667" lon="-4.905600">
        <ele>1257.0</ele>
        <time>2018-09-16T11:32:50Z</time>
      </trkpt>
      <trkpt lat="40.256667" lon="-4.905600">
        <ele>1257.0</ele>
        <time>2018-09-16T11:32:51Z</time>
      </trkpt>
      <trkpt lat="40.256667" lon="-4.905600">
        <ele>1257.0</ele>
        <time>2018-09-16T11:32:52Z</time>
      </trkpt>
      <trkpt lat="40.256667" lon="-4.905600">
        <ele>1257.0</ele>
        <time>2018-09-16T11:32:53Z</time>
      </trkpt>
      <trkpt lat="40.256667" lon="-4.905600">
        <ele>1257.0</ele>
        <time>2018-09-16T11:32:54Z</time>
      </trkpt>
      <trkpt lat="40.256667" lon="-4.905600">
        <ele>1257.0</ele>
        <time>2018-09-16T11:32:55Z</time>
      </trkpt>
      <trkpt lat="40.256650" lon="-4.905600">
        <ele>1257.0</ele>
        <time>2018-09-16T11:32:56Z</time>
      </trkpt>
      <trkpt lat="40.256650" lon="-4.905600">
        <ele>1257.0</ele>
        <time>2018-09-16T11:32:57Z</time>
      </trkpt>
      <trkpt lat="40.256650" lon="-4.905600">
        <ele>1257.0</ele>
        <time>2018-09-16T11:32:58Z</time>
      </trkpt>
      <trkpt lat="40.256650" lon="-4.905600">
        <ele>1257.0</ele>
        <time>2018-09-16T11:32:59Z</time>
      </trkpt>
      <trkpt lat="40.256650" lon="-4.905600">
        <ele>1257.0</ele>
        <time>2018-09-16T11:33:00Z</time>
      </trkpt>
      <trkpt lat="40.256650" lon="-4.905600">
        <ele>1257.0</ele>
        <time>2018-09-16T11:33:01Z</time>
      </trkpt>
      <trkpt lat="40.256650" lon="-4.905600">
        <ele>1257.0</ele>
        <time>2018-09-16T11:33:02Z</time>
      </trkpt>
      <trkpt lat="40.256650" lon="-4.905600">
        <ele>1257.0</ele>
        <time>2018-09-16T11:33:03Z</time>
      </trkpt>
      <trkpt lat="40.256650" lon="-4.905600">
        <ele>1257.0</ele>
        <time>2018-09-16T11:33:04Z</time>
      </trkpt>
      <trkpt lat="40.256650" lon="-4.905600">
        <ele>1257.0</ele>
        <time>2018-09-16T11:33:05Z</time>
      </trkpt>
      <trkpt lat="40.256650" lon="-4.905600">
        <ele>1258.0</ele>
        <time>2018-09-16T11:33:06Z</time>
      </trkpt>
      <trkpt lat="40.256650" lon="-4.905600">
        <ele>1258.0</ele>
        <time>2018-09-16T11:33:07Z</time>
      </trkpt>
      <trkpt lat="40.256650" lon="-4.905600">
        <ele>1258.0</ele>
        <time>2018-09-16T11:33:08Z</time>
      </trkpt>
      <trkpt lat="40.256650" lon="-4.905600">
        <ele>1258.0</ele>
        <time>2018-09-16T11:33:09Z</time>
      </trkpt>
      <trkpt lat="40.256650" lon="-4.905600">
        <ele>1258.0</ele>
        <time>2018-09-16T11:33:10Z</time>
      </trkpt>
      <trkpt lat="40.256650" lon="-4.905600">
        <ele>1259.0</ele>
        <time>2018-09-16T11:33:11Z</time>
      </trkpt>
      <trkpt lat="40.256650" lon="-4.905600">
        <ele>1259.0</ele>
        <time>2018-09-16T11:33:12Z</time>
      </trkpt>
      <trkpt lat="40.256650" lon="-4.905600">
        <ele>1259.0</ele>
        <time>2018-09-16T11:33:13Z</time>
      </trkpt>
      <trkpt lat="40.256650" lon="-4.905600">
        <ele>1260.0</ele>
        <time>2018-09-16T11:33:14Z</time>
      </trkpt>
      <trkpt lat="40.256650" lon="-4.905600">
        <ele>1260.0</ele>
        <time>2018-09-16T11:33:15Z</time>
      </trkpt>
      <trkpt lat="40.256650" lon="-4.905600">
        <ele>1260.0</ele>
        <time>2018-09-16T11:33:16Z</time>
      </trkpt>
      <trkpt lat="40.256650" lon="-4.905600">
        <ele>1260.0</ele>
        <time>2018-09-16T11:33:17Z</time>
      </trkpt>
      <trkpt lat="40.256650" lon="-4.905600">
        <ele>1260.0</ele>
        <time>2018-09-16T11:33:18Z</time>
      </trkpt>
      <trkpt lat="40.256650" lon="-4.905600">
        <ele>1260.0</ele>
        <time>2018-09-16T11:33:19Z</time>
      </trkpt>
      <trkpt lat="40.256650" lon="-4.905600">
        <ele>1260.0</ele>
        <time>2018-09-16T11:33:20Z</time>
      </trkpt>
      <trkpt lat="40.256650" lon="-4.905600">
        <ele>1260.0</ele>
        <time>2018-09-16T11:33:21Z</time>
      </trkpt>
      <trkpt lat="40.256650" lon="-4.905600">
        <ele>1260.0</ele>
        <time>2018-09-16T11:33:22Z</time>
      </trkpt>
      <trkpt lat="40.256650" lon="-4.905600">
        <ele>1260.0</ele>
        <time>2018-09-16T11:33:23Z</time>
      </trkpt>
      <trkpt lat="40.256650" lon="-4.905600">
        <ele>1260.0</ele>
        <time>2018-09-16T11:33:24Z</time>
      </trkpt>
      <trkpt lat="40.256650" lon="-4.905600">
        <ele>1260.0</ele>
        <time>2018-09-16T11:33:25Z</time>
      </trkpt>
      <trkpt lat="40.256650" lon="-4.905600">
        <ele>1260.0</ele>
        <time>2018-09-16T11:33:26Z</time>
      </trkpt>
      <trkpt lat="40.256650" lon="-4.905600">
        <ele>1260.0</ele>
        <time>2018-09-16T11:33:27Z</time>
      </trkpt>
      <trkpt lat="40.256650" lon="-4.905600">
        <ele>1259.0</ele>
        <time>2018-09-16T11:33:28Z</time>
      </trkpt>
      <trkpt lat="40.256650" lon="-4.905600">
        <ele>1259.0</ele>
        <time>2018-09-16T11:33:29Z</time>
      </trkpt>
      <trkpt lat="40.256650" lon="-4.905600">
        <ele>1259.0</ele>
        <time>2018-09-16T11:33:30Z</time>
      </trkpt>
      <trkpt lat="40.256650" lon="-4.905600">
        <ele>1259.0</ele>
        <time>2018-09-16T11:33:31Z</time>
      </trkpt>
      <trkpt lat="40.256650" lon="-4.905600">
        <ele>1259.0</ele>
        <time>2018-09-16T11:33:32Z</time>
      </trkpt>
      <trkpt lat="40.256650" lon="-4.905600">
        <ele>1259.0</ele>
        <time>2018-09-16T11:33:33Z</time>
      </trkpt>
      <trkpt lat="40.256650" lon="-4.905600">
        <ele>1259.0</ele>
        <time>2018-09-16T11:33:34Z</time>
      </trkpt>
      <trkpt lat="40.256650" lon="-4.905600">
        <ele>1259.0</ele>
        <time>2018-09-16T11:33:35Z</time>
      </trkpt>
      <trkpt lat="40.256667" lon="-4.905600">
        <ele>1259.0</ele>
        <time>2018-09-16T11:33:36Z</time>
      </trkpt>
      <trkpt lat="40.256667" lon="-4.905600">
        <ele>1259.0</ele>
        <time>2018-09-16T11:33:37Z</time>
      </trkpt>
      <trkpt lat="40.256667" lon="-4.905600">
        <ele>1259.0</ele>
        <time>2018-09-16T11:33:38Z</time>
      </trkpt>
      <trkpt lat="40.256667" lon="-4.905600">
        <ele>1259.0</ele>
        <time>2018-09-16T11:33:39Z</time>
      </trkpt>
      <trkpt lat="40.256667" lon="-4.905600">
        <ele>1259.0</ele>
        <time>2018-09-16T11:33:40Z</time>
      </trkpt>
      <trkpt lat="40.256667" lon="-4.905600">
        <ele>1259.0</ele>
        <time>2018-09-16T11:33:41Z</time>
      </trkpt>
      <trkpt lat="40.256667" lon="-4.905600">
        <ele>1259.0</ele>
        <time>2018-09-16T11:33:42Z</time>
      </trkpt>
      <trkpt lat="40.256667" lon="-4.905600">
        <ele>1259.0</ele>
        <time>2018-09-16T11:33:43Z</time>
      </trkpt>
      <trkpt lat="40.256667" lon="-4.905600">
        <ele>1259.0</ele>
        <time>2018-09-16T11:33:44Z</time>
      </trkpt>
      <trkpt lat="40.256667" lon="-4.905600">
        <ele>1259.0</ele>
        <time>2018-09-16T11:33:45Z</time>
      </trkpt>
      <trkpt lat="40.256667" lon="-4.905600">
        <ele>1259.0</ele>
        <time>2018-09-16T11:33:46Z</time>
      </trkpt>
      <trkpt lat="40.256650" lon="-4.905617">
        <ele>1259.0</ele>
        <time>2018-09-16T11:33:47Z</time>
      </trkpt>
      <trkpt lat="40.256650" lon="-4.905617">
        <ele>1259.0</ele>
        <time>2018-09-16T11:33:48Z</time>
      </trkpt>
      <trkpt lat="40.256650" lon="-4.905617">
        <ele>1259.0</ele>
        <time>2018-09-16T11:33:49Z</time>
      </trkpt>
      <trkpt lat="40.256650" lon="-4.905617">
        <ele>1259.0</ele>
        <time>2018-09-16T11:33:50Z</time>
      </trkpt>
      <trkpt lat="40.256650" lon="-4.905617">
        <ele>1259.0</ele>
        <time>2018-09-16T11:33:51Z</time>
      </trkpt>
      <trkpt lat="40.256650" lon="-4.905617">
        <ele>1259.0</ele>
        <time>2018-09-16T11:33:52Z</time>
      </trkpt>
      <trkpt lat="40.256650" lon="-4.905617">
        <ele>1260.0</ele>
        <time>2018-09-16T11:33:53Z</time>
      </trkpt>
      <trkpt lat="40.256650" lon="-4.905617">
        <ele>1260.0</ele>
        <time>2018-09-16T11:33:54Z</time>
      </trkpt>
      <trkpt lat="40.256650" lon="-4.905617">
        <ele>1260.0</ele>
        <time>2018-09-16T11:33:55Z</time>
      </trkpt>
      <trkpt lat="40.256650" lon="-4.905617">
        <ele>1260.0</ele>
        <time>2018-09-16T11:33:56Z</time>
      </trkpt>
      <trkpt lat="40.256650" lon="-4.905617">
        <ele>1260.0</ele>
        <time>2018-09-16T11:33:57Z</time>
      </trkpt>
      <trkpt lat="40.256650" lon="-4.905617">
        <ele>1260.0</ele>
        <time>2018-09-16T11:33:58Z</time>
      </trkpt>
      <trkpt lat="40.256650" lon="-4.905617">
        <ele>1260.0</ele>
        <time>2018-09-16T11:33:59Z</time>
      </trkpt>
      <trkpt lat="40.256650" lon="-4.905617">
        <ele>1260.0</ele>
        <time>2018-09-16T11:34:00Z</time>
      </trkpt>
      <trkpt lat="40.256650" lon="-4.905617">
        <ele>1261.0</ele>
        <time>2018-09-16T11:34:01Z</time>
      </trkpt>
      <trkpt lat="40.256650" lon="-4.905617">
        <ele>1261.0</ele>
        <time>2018-09-16T11:34:02Z</time>
      </trkpt>
      <trkpt lat="40.256650" lon="-4.905617">
        <ele>1261.0</ele>
        <time>2018-09-16T11:34:03Z</time>
      </trkpt>
      <trkpt lat="40.256650" lon="-4.905617">
        <ele>1261.0</ele>
        <time>2018-09-16T11:34:04Z</time>
      </trkpt>
      <trkpt lat="40.256650" lon="-4.905617">
        <ele>1261.0</ele>
        <time>2018-09-16T11:34:05Z</time>
      </trkpt>
      <trkpt lat="40.256650" lon="-4.905600">
        <ele>1261.0</ele>
        <time>2018-09-16T11:34:06Z</time>
      </trkpt>
      <trkpt lat="40.256650" lon="-4.905600">
        <ele>1261.0</ele>
        <time>2018-09-16T11:34:07Z</time>
      </trkpt>
      <trkpt lat="40.256650" lon="-4.905600">
        <ele>1261.0</ele>
        <time>2018-09-16T11:34:08Z</time>
      </trkpt>
      <trkpt lat="40.256650" lon="-4.905600">
        <ele>1261.0</ele>
        <time>2018-09-16T11:34:09Z</time>
      </trkpt>
      <trkpt lat="40.256650" lon="-4.905617">
        <ele>1261.0</ele>
        <time>2018-09-16T11:34:10Z</time>
      </trkpt>
      <trkpt lat="40.256650" lon="-4.905600">
        <ele>1261.0</ele>
        <time>2018-09-16T11:34:11Z</time>
      </trkpt>
      <trkpt lat="40.256650" lon="-4.905600">
        <ele>1260.0</ele>
        <time>2018-09-16T11:34:12Z</time>
      </trkpt>
      <trkpt lat="40.256650" lon="-4.905600">
        <ele>1260.0</ele>
        <time>2018-09-16T11:34:13Z</time>
      </trkpt>
      <trkpt lat="40.256650" lon="-4.905600">
        <ele>1260.0</ele>
        <time>2018-09-16T11:34:14Z</time>
      </trkpt>
      <trkpt lat="40.256650" lon="-4.905600">
        <ele>1259.0</ele>
        <time>2018-09-16T11:34:15Z</time>
      </trkpt>
      <trkpt lat="40.256650" lon="-4.905600">
        <ele>1259.0</ele>
        <time>2018-09-16T11:34:16Z</time>
      </trkpt>
      <trkpt lat="40.256650" lon="-4.905600">
        <ele>1259.0</ele>
        <time>2018-09-16T11:34:17Z</time>
      </trkpt>
      <trkpt lat="40.256650" lon="-4.905617">
        <ele>1259.0</ele>
        <time>2018-09-16T11:34:18Z</time>
      </trkpt>
      <trkpt lat="40.256650" lon="-4.905600">
        <ele>1259.0</ele>
        <time>2018-09-16T11:34:19Z</time>
      </trkpt>
      <trkpt lat="40.256650" lon="-4.905600">
        <ele>1258.0</ele>
        <time>2018-09-16T11:34:20Z</time>
      </trkpt>
      <trkpt lat="40.256650" lon="-4.905600">
        <ele>1258.0</ele>
        <time>2018-09-16T11:34:21Z</time>
      </trkpt>
      <trkpt lat="40.256650" lon="-4.905600">
        <ele>1258.0</ele>
        <time>2018-09-16T11:34:22Z</time>
      </trkpt>
      <trkpt lat="40.256650" lon="-4.905600">
        <ele>1258.0</ele>
        <time>2018-09-16T11:34:23Z</time>
      </trkpt>
      <trkpt lat="40.256650" lon="-4.905600">
        <ele>1258.0</ele>
        <time>2018-09-16T11:34:24Z</time>
      </trkpt>
      <trkpt lat="40.256650" lon="-4.905600">
        <ele>1258.0</ele>
        <time>2018-09-16T11:34:25Z</time>
      </trkpt>
      <trkpt lat="40.256650" lon="-4.905600">
        <ele>1258.0</ele>
        <time>2018-09-16T11:34:26Z</time>
      </trkpt>
      <trkpt lat="40.256650" lon="-4.905600">
        <ele>1258.0</ele>
        <time>2018-09-16T11:34:27Z</time>
      </trkpt>
      <trkpt lat="40.256650" lon="-4.905600">
        <ele>1257.0</ele>
        <time>2018-09-16T11:34:28Z</time>
      </trkpt>
      <trkpt lat="40.256650" lon="-4.905600">
        <ele>1257.0</ele>
        <time>2018-09-16T11:34:29Z</time>
      </trkpt>
      <trkpt lat="40.256650" lon="-4.905600">
        <ele>1257.0</ele>
        <time>2018-09-16T11:34:31Z</time>
      </trkpt>
      <trkpt lat="40.256650" lon="-4.905600">
        <ele>1257.0</ele>
        <time>2018-09-16T11:34:32Z</time>
      </trkpt>
      <trkpt lat="40.256667" lon="-4.905600">
        <ele>1257.0</ele>
        <time>2018-09-16T11:34:33Z</time>
      </trkpt>
      <trkpt lat="40.256667" lon="-4.905600">
        <ele>1257.0</ele>
        <time>2018-09-16T11:34:34Z</time>
      </trkpt>
      <trkpt lat="40.256667" lon="-4.905600">
        <ele>1257.0</ele>
        <time>2018-09-16T11:34:35Z</time>
      </trkpt>
      <trkpt lat="40.256667" lon="-4.905600">
        <ele>1257.0</ele>
        <time>2018-09-16T11:34:36Z</time>
      </trkpt>
      <trkpt lat="40.256667" lon="-4.905600">
        <ele>1257.0</ele>
        <time>2018-09-16T11:34:37Z</time>
      </trkpt>
      <trkpt lat="40.256667" lon="-4.905600">
        <ele>1257.0</ele>
        <time>2018-09-16T11:34:38Z</time>
      </trkpt>
      <trkpt lat="40.256667" lon="-4.905600">
        <ele>1257.0</ele>
        <time>2018-09-16T11:34:39Z</time>
      </trkpt>
      <trkpt lat="40.256667" lon="-4.905600">
        <ele>1257.0</ele>
        <time>2018-09-16T11:34:40Z</time>
      </trkpt>
      <trkpt lat="40.256667" lon="-4.905583">
        <ele>1257.0</ele>
        <time>2018-09-16T11:34:41Z</time>
      </trkpt>
      <trkpt lat="40.256650" lon="-4.905583">
        <ele>1257.0</ele>
        <time>2018-09-16T11:34:42Z</time>
      </trkpt>
      <trkpt lat="40.256650" lon="-4.905583">
        <ele>1257.0</ele>
        <time>2018-09-16T11:34:43Z</time>
      </trkpt>
      <trkpt lat="40.256650" lon="-4.905583">
        <ele>1257.0</ele>
        <time>2018-09-16T11:34:44Z</time>
      </trkpt>
      <trkpt lat="40.256667" lon="-4.905583">
        <ele>1256.0</ele>
        <time>2018-09-16T11:34:45Z</time>
      </trkpt>
      <trkpt lat="40.256667" lon="-4.905583">
        <ele>1256.0</ele>
        <time>2018-09-16T11:34:46Z</time>
      </trkpt>
      <trkpt lat="40.256667" lon="-4.905583">
        <ele>1256.0</ele>
        <time>2018-09-16T11:34:47Z</time>
      </trkpt>
      <trkpt lat="40.256667" lon="-4.905583">
        <ele>1256.0</ele>
        <time>2018-09-16T11:34:48Z</time>
      </trkpt>
      <trkpt lat="40.256667" lon="-4.905567">
        <ele>1256.0</ele>
        <time>2018-09-16T11:34:49Z</time>
      </trkpt>
      <trkpt lat="40.256667" lon="-4.905550">
        <ele>1256.0</ele>
        <time>2018-09-16T11:34:50Z</time>
      </trkpt>
      <trkpt lat="40.256650" lon="-4.905550">
        <ele>1256.0</ele>
        <time>2018-09-16T11:34:51Z</time>
      </trkpt>
      <trkpt lat="40.256650" lon="-4.905567">
        <ele>1256.0</ele>
        <time>2018-09-16T11:34:52Z</time>
      </trkpt>
      <trkpt lat="40.256650" lon="-4.905567">
        <ele>1256.0</ele>
        <time>2018-09-16T11:34:53Z</time>
      </trkpt>
      <trkpt lat="40.256650" lon="-4.905567">
        <ele>1256.0</ele>
        <time>2018-09-16T11:34:54Z</time>
      </trkpt>
      <trkpt lat="40.256650" lon="-4.905567">
        <ele>1257.0</ele>
        <time>2018-09-16T11:34:55Z</time>
      </trkpt>
      <trkpt lat="40.256667" lon="-4.905567">
        <ele>1257.0</ele>
        <time>2018-09-16T11:34:56Z</time>
      </trkpt>
      <trkpt lat="40.256667" lon="-4.905567">
        <ele>1258.0</ele>
        <time>2018-09-16T11:34:57Z</time>
      </trkpt>
      <trkpt lat="40.256667" lon="-4.905567">
        <ele>1258.0</ele>
        <time>2018-09-16T11:34:58Z</time>
      </trkpt>
      <trkpt lat="40.256667" lon="-4.905550">
        <ele>1258.0</ele>
        <time>2018-09-16T11:34:59Z</time>
      </trkpt>
      <trkpt lat="40.256667" lon="-4.905550">
        <ele>1259.0</ele>
        <time>2018-09-16T11:35:00Z</time>
      </trkpt>
      <trkpt lat="40.256667" lon="-4.905550">
        <ele>1261.0</ele>
        <time>2018-09-16T11:35:01Z</time>
      </trkpt>
      <trkpt lat="40.256667" lon="-4.905550">
        <ele>1262.0</ele>
        <time>2018-09-16T11:35:02Z</time>
      </trkpt>
      <trkpt lat="40.256667" lon="-4.905550">
        <ele>1263.0</ele>
        <time>2018-09-16T11:35:03Z</time>
      </trkpt>
      <trkpt lat="40.256667" lon="-4.905550">
        <ele>1262.0</ele>
        <time>2018-09-16T11:35:04Z</time>
      </trkpt>
      <trkpt lat="40.256667" lon="-4.905550">
        <ele>1261.0</ele>
        <time>2018-09-16T11:35:05Z</time>
      </trkpt>
      <trkpt lat="40.256667" lon="-4.905550">
        <ele>1261.0</ele>
        <time>2018-09-16T11:35:06Z</time>
      </trkpt>
      <trkpt lat="40.256667" lon="-4.905550">
        <ele>1260.0</ele>
        <time>2018-09-16T11:35:07Z</time>
      </trkpt>
      <trkpt lat="40.256667" lon="-4.905550">
        <ele>1260.0</ele>
        <time>2018-09-16T11:35:08Z</time>
      </trkpt>
      <trkpt lat="40.256667" lon="-4.905567">
        <ele>1259.0</ele>
        <time>2018-09-16T11:35:09Z</time>
      </trkpt>
      <trkpt lat="40.256650" lon="-4.905583">
        <ele>1255.0</ele>
        <time>2018-09-16T11:35:18Z</time>
      </trkpt>
      <trkpt lat="40.256650" lon="-4.905583">
        <ele>1254.0</ele>
        <time>2018-09-16T11:35:19Z</time>
      </trkpt>
      <trkpt lat="40.256650" lon="-4.905583">
        <ele>1254.0</ele>
        <time>2018-09-16T11:35:20Z</time>
      </trkpt>
      <trkpt lat="40.256650" lon="-4.905583">
        <ele>1254.0</ele>
        <time>2018-09-16T11:35:21Z</time>
      </trkpt>
      <trkpt lat="40.256650" lon="-4.905583">
        <ele>1254.0</ele>
        <time>2018-09-16T11:35:22Z</time>
      </trkpt>
      <trkpt lat="40.256650" lon="-4.905583">
        <ele>1253.0</ele>
        <time>2018-09-16T11:35:23Z</time>
      </trkpt>
      <trkpt lat="40.256650" lon="-4.905583">
        <ele>1253.0</ele>
        <time>2018-09-16T11:35:24Z</time>
      </trkpt>
      <trkpt lat="40.256650" lon="-4.905583">
        <ele>1253.0</ele>
        <time>2018-09-16T11:35:25Z</time>
      </trkpt>
      <trkpt lat="40.256650" lon="-4.905600">
        <ele>1253.0</ele>
        <time>2018-09-16T11:35:26Z</time>
      </trkpt>
      <trkpt lat="40.256650" lon="-4.905600">
        <ele>1253.0</ele>
        <time>2018-09-16T11:35:27Z</time>
      </trkpt>
      <trkpt lat="40.256650" lon="-4.905600">
        <ele>1252.0</ele>
        <time>2018-09-16T11:35:28Z</time>
      </trkpt>
      <trkpt lat="40.256650" lon="-4.905600">
        <ele>1252.0</ele>
        <time>2018-09-16T11:35:29Z</time>
      </trkpt>
      <trkpt lat="40.256650" lon="-4.905600">
        <ele>1252.0</ele>
        <time>2018-09-16T11:35:30Z</time>
      </trkpt>
      <trkpt lat="40.256650" lon="-4.905600">
        <ele>1252.0</ele>
        <time>2018-09-16T11:35:31Z</time>
      </trkpt>
      <trkpt lat="40.256650" lon="-4.905600">
        <ele>1252.0</ele>
        <time>2018-09-16T11:35:32Z</time>
      </trkpt>
      <trkpt lat="40.256650" lon="-4.905600">
        <ele>1252.0</ele>
        <time>2018-09-16T11:35:33Z</time>
      </trkpt>
      <trkpt lat="40.256650" lon="-4.905600">
        <ele>1252.0</ele>
        <time>2018-09-16T11:35:34Z</time>
      </trkpt>
      <trkpt lat="40.256650" lon="-4.905600">
        <ele>1253.0</ele>
        <time>2018-09-16T11:35:35Z</time>
      </trkpt>
      <trkpt lat="40.256650" lon="-4.905600">
        <ele>1253.0</ele>
        <time>2018-09-16T11:35:36Z</time>
      </trkpt>
      <trkpt lat="40.256650" lon="-4.905600">
        <ele>1253.0</ele>
        <time>2018-09-16T11:35:37Z</time>
      </trkpt>
      <trkpt lat="40.256650" lon="-4.905600">
        <ele>1254.0</ele>
        <time>2018-09-16T11:35:38Z</time>
      </trkpt>
      <trkpt lat="40.256650" lon="-4.905600">
        <ele>1254.0</ele>
        <time>2018-09-16T11:35:39Z</time>
      </trkpt>
      <trkpt lat="40.256650" lon="-4.905583">
        <ele>1255.0</ele>
        <time>2018-09-16T11:35:40Z</time>
      </trkpt>
      <trkpt lat="40.256650" lon="-4.905583">
        <ele>1256.0</ele>
        <time>2018-09-16T11:35:41Z</time>
      </trkpt>
      <trkpt lat="40.256650" lon="-4.905583">
        <ele>1257.0</ele>
        <time>2018-09-16T11:35:42Z</time>
      </trkpt>
      <trkpt lat="40.256650" lon="-4.905583">
        <ele>1257.0</ele>
        <time>2018-09-16T11:35:43Z</time>
      </trkpt>
      <trkpt lat="40.256650" lon="-4.905583">
        <ele>1257.0</ele>
        <time>2018-09-16T11:35:44Z</time>
      </trkpt>
      <trkpt lat="40.256650" lon="-4.905583">
        <ele>1258.0</ele>
        <time>2018-09-16T11:35:45Z</time>
      </trkpt>
      <trkpt lat="40.256650" lon="-4.905567">
        <ele>1258.0</ele>
        <time>2018-09-16T11:35:46Z</time>
      </trkpt>
      <trkpt lat="40.256650" lon="-4.905567">
        <ele>1259.0</ele>
        <time>2018-09-16T11:35:47Z</time>
      </trkpt>
      <trkpt lat="40.256650" lon="-4.905567">
        <ele>1259.0</ele>
        <time>2018-09-16T11:35:48Z</time>
      </trkpt>
      <trkpt lat="40.256650" lon="-4.905567">
        <ele>1260.0</ele>
        <time>2018-09-16T11:35:49Z</time>
      </trkpt>
      <trkpt lat="40.256667" lon="-4.905550">
        <ele>1260.0</ele>
        <time>2018-09-16T11:35:50Z</time>
      </trkpt>
      <trkpt lat="40.256667" lon="-4.905550">
        <ele>1261.0</ele>
        <time>2018-09-16T11:35:51Z</time>
      </trkpt>
      <trkpt lat="40.256667" lon="-4.905550">
        <ele>1261.0</ele>
        <time>2018-09-16T11:35:52Z</time>
      </trkpt>
      <trkpt lat="40.256667" lon="-4.905550">
        <ele>1262.0</ele>
        <time>2018-09-16T11:35:53Z</time>
      </trkpt>
      <trkpt lat="40.256667" lon="-4.905550">
        <ele>1262.0</ele>
        <time>2018-09-16T11:35:54Z</time>
      </trkpt>
      <trkpt lat="40.256667" lon="-4.905550">
        <ele>1263.0</ele>
        <time>2018-09-16T11:35:55Z</time>
      </trkpt>
      <trkpt lat="40.256667" lon="-4.905550">
        <ele>1262.0</ele>
        <time>2018-09-16T11:36:04Z</time>
      </trkpt>
      <trkpt lat="40.256667" lon="-4.905550">
        <ele>1261.0</ele>
        <time>2018-09-16T11:36:05Z</time>
      </trkpt>
      <trkpt lat="40.256667" lon="-4.905550">
        <ele>1261.0</ele>
        <time>2018-09-16T11:36:06Z</time>
      </trkpt>
      <trkpt lat="40.256667" lon="-4.905550">
        <ele>1261.0</ele>
        <time>2018-09-16T11:36:07Z</time>
      </trkpt>
      <trkpt lat="40.256667" lon="-4.905550">
        <ele>1261.0</ele>
        <time>2018-09-16T11:36:09Z</time>
      </trkpt>
      <trkpt lat="40.256667" lon="-4.905550">
        <ele>1261.0</ele>
        <time>2018-09-16T11:36:10Z</time>
      </trkpt>
      <trkpt lat="40.256667" lon="-4.905550">
        <ele>1261.0</ele>
        <time>2018-09-16T11:36:11Z</time>
      </trkpt>
      <trkpt lat="40.256667" lon="-4.905550">
        <ele>1261.0</ele>
        <time>2018-09-16T11:36:12Z</time>
      </trkpt>
      <trkpt lat="40.256667" lon="-4.905567">
        <ele>1261.0</ele>
        <time>2018-09-16T11:36:13Z</time>
      </trkpt>
      <trkpt lat="40.256667" lon="-4.905567">
        <ele>1261.0</ele>
        <time>2018-09-16T11:36:14Z</time>
      </trkpt>
      <trkpt lat="40.256667" lon="-4.905583">
        <ele>1260.0</ele>
        <time>2018-09-16T11:36:15Z</time>
      </trkpt>
      <trkpt lat="40.256667" lon="-4.905583">
        <ele>1259.0</ele>
        <time>2018-09-16T11:36:16Z</time>
      </trkpt>
      <trkpt lat="40.256667" lon="-4.905583">
        <ele>1259.0</ele>
        <time>2018-09-16T11:36:17Z</time>
      </trkpt>
      <trkpt lat="40.256650" lon="-4.905583">
        <ele>1259.0</ele>
        <time>2018-09-16T11:36:18Z</time>
      </trkpt>
      <trkpt lat="40.256667" lon="-4.905583">
        <ele>1259.0</ele>
        <time>2018-09-16T11:36:19Z</time>
      </trkpt>
      <trkpt lat="40.256667" lon="-4.905583">
        <ele>1259.0</ele>
        <time>2018-09-16T11:36:20Z</time>
      </trkpt>
      <trkpt lat="40.256667" lon="-4.905567">
        <ele>1260.0</ele>
        <time>2018-09-16T11:36:21Z</time>
      </trkpt>
      <trkpt lat="40.256667" lon="-4.905567">
        <ele>1260.0</ele>
        <time>2018-09-16T11:36:22Z</time>
      </trkpt>
      <trkpt lat="40.256667" lon="-4.905567">
        <ele>1261.0</ele>
        <time>2018-09-16T11:36:24Z</time>
      </trkpt>
      <trkpt lat="40.256667" lon="-4.905567">
        <ele>1261.0</ele>
        <time>2018-09-16T11:36:25Z</time>
      </trkpt>
      <trkpt lat="40.256667" lon="-4.905567">
        <ele>1261.0</ele>
        <time>2018-09-16T11:36:26Z</time>
      </trkpt>
      <trkpt lat="40.256667" lon="-4.905550">
        <ele>1262.0</ele>
        <time>2018-09-16T11:36:27Z</time>
      </trkpt>
      <trkpt lat="40.256667" lon="-4.905550">
        <ele>1262.0</ele>
        <time>2018-09-16T11:36:28Z</time>
      </trkpt>
      <trkpt lat="40.256667" lon="-4.905550">
        <ele>1262.0</ele>
        <time>2018-09-16T11:36:29Z</time>
      </trkpt>
      <trkpt lat="40.256667" lon="-4.905550">
        <ele>1263.0</ele>
        <time>2018-09-16T11:36:30Z</time>
      </trkpt>
      <trkpt lat="40.256667" lon="-4.905550">
        <ele>1263.0</ele>
        <time>2018-09-16T11:36:31Z</time>
      </trkpt>
      <trkpt lat="40.256667" lon="-4.905550">
        <ele>1263.0</ele>
        <time>2018-09-16T11:36:32Z</time>
      </trkpt>
      <trkpt lat="40.256667" lon="-4.905550">
        <ele>1263.0</ele>
        <time>2018-09-16T11:36:33Z</time>
      </trkpt>
      <trkpt lat="40.256667" lon="-4.905550">
        <ele>1263.0</ele>
        <time>2018-09-16T11:36:34Z</time>
      </trkpt>
      <trkpt lat="40.256683" lon="-4.905550">
        <ele>1263.0</ele>
        <time>2018-09-16T11:36:35Z</time>
      </trkpt>
      <trkpt lat="40.256683" lon="-4.905550">
        <ele>1263.0</ele>
        <time>2018-09-16T11:36:36Z</time>
      </trkpt>
      <trkpt lat="40.256683" lon="-4.905550">
        <ele>1262.0</ele>
        <time>2018-09-16T11:36:37Z</time>
      </trkpt>
      <trkpt lat="40.256683" lon="-4.905550">
        <ele>1262.0</ele>
        <time>2018-09-16T11:36:38Z</time>
      </trkpt>
      <trkpt lat="40.256683" lon="-4.905550">
        <ele>1262.0</ele>
        <time>2018-09-16T11:36:39Z</time>
      </trkpt>
      <trkpt lat="40.256683" lon="-4.905550">
        <ele>1262.0</ele>
        <time>2018-09-16T11:36:40Z</time>
      </trkpt>
      <trkpt lat="40.256683" lon="-4.905550">
        <ele>1262.0</ele>
        <time>2018-09-16T11:36:41Z</time>
      </trkpt>
      <trkpt lat="40.256683" lon="-4.905550">
        <ele>1262.0</ele>
        <time>2018-09-16T11:36:42Z</time>
      </trkpt>
      <trkpt lat="40.256683" lon="-4.905550">
        <ele>1262.0</ele>
        <time>2018-09-16T11:36:43Z</time>
      </trkpt>
      <trkpt lat="40.256683" lon="-4.905550">
        <ele>1262.0</ele>
        <time>2018-09-16T11:36:44Z</time>
      </trkpt>
      <trkpt lat="40.256683" lon="-4.905550">
        <ele>1262.0</ele>
        <time>2018-09-16T11:36:45Z</time>
      </trkpt>
      <trkpt lat="40.256700" lon="-4.905550">
        <ele>1262.0</ele>
        <time>2018-09-16T11:36:46Z</time>
      </trkpt>
      <trkpt lat="40.256700" lon="-4.905550">
        <ele>1262.0</ele>
        <time>2018-09-16T11:36:47Z</time>
      </trkpt>
      <trkpt lat="40.256683" lon="-4.905550">
        <ele>1262.0</ele>
        <time>2018-09-16T11:36:48Z</time>
      </trkpt>
      <trkpt lat="40.256683" lon="-4.905550">
        <ele>1262.0</ele>
        <time>2018-09-16T11:36:49Z</time>
      </trkpt>
      <trkpt lat="40.256683" lon="-4.905550">
        <ele>1262.0</ele>
        <time>2018-09-16T11:36:50Z</time>
      </trkpt>
      <trkpt lat="40.256683" lon="-4.905550">
        <ele>1261.0</ele>
        <time>2018-09-16T11:36:51Z</time>
      </trkpt>
      <trkpt lat="40.256683" lon="-4.905550">
        <ele>1261.0</ele>
        <time>2018-09-16T11:36:52Z</time>
      </trkpt>
      <trkpt lat="40.256683" lon="-4.905550">
        <ele>1262.0</ele>
        <time>2018-09-16T11:36:53Z</time>
      </trkpt>
      <trkpt lat="40.256700" lon="-4.905550">
        <ele>1262.0</ele>
        <time>2018-09-16T11:36:54Z</time>
      </trkpt>
      <trkpt lat="40.256683" lon="-4.905550">
        <ele>1262.0</ele>
        <time>2018-09-16T11:36:55Z</time>
      </trkpt>
      <trkpt lat="40.256683" lon="-4.905550">
        <ele>1262.0</ele>
        <time>2018-09-16T11:36:56Z</time>
      </trkpt>
      <trkpt lat="40.256683" lon="-4.905550">
        <ele>1262.0</ele>
        <time>2018-09-16T11:36:57Z</time>
      </trkpt>
      <trkpt lat="40.256700" lon="-4.905550">
        <ele>1262.0</ele>
        <time>2018-09-16T11:36:58Z</time>
      </trkpt>
      <trkpt lat="40.256700" lon="-4.905550">
        <ele>1262.0</ele>
        <time>2018-09-16T11:36:59Z</time>
      </trkpt>
      <trkpt lat="40.256700" lon="-4.905550">
        <ele>1262.0</ele>
        <time>2018-09-16T11:37:00Z</time>
      </trkpt>
      <trkpt lat="40.256700" lon="-4.905550">
        <ele>1262.0</ele>
        <time>2018-09-16T11:37:01Z</time>
      </trkpt>
      <trkpt lat="40.256700" lon="-4.905550">
        <ele>1262.0</ele>
        <time>2018-09-16T11:37:02Z</time>
      </trkpt>
      <trkpt lat="40.256700" lon="-4.905550">
        <ele>1261.0</ele>
        <time>2018-09-16T11:37:03Z</time>
      </trkpt>
      <trkpt lat="40.256700" lon="-4.905550">
        <ele>1260.0</ele>
        <time>2018-09-16T11:37:04Z</time>
      </trkpt>
      <trkpt lat="40.256700" lon="-4.905550">
        <ele>1259.0</ele>
        <time>2018-09-16T11:37:05Z</time>
      </trkpt>
      <trkpt lat="40.256700" lon="-4.905550">
        <ele>1259.0</ele>
        <time>2018-09-16T11:37:06Z</time>
      </trkpt>
      <trkpt lat="40.256700" lon="-4.905550">
        <ele>1259.0</ele>
        <time>2018-09-16T11:37:07Z</time>
      </trkpt>
      <trkpt lat="40.256700" lon="-4.905550">
        <ele>1259.0</ele>
        <time>2018-09-16T11:37:08Z</time>
      </trkpt>
      <trkpt lat="40.256700" lon="-4.905550">
        <ele>1259.0</ele>
        <time>2018-09-16T11:37:09Z</time>
      </trkpt>
      <trkpt lat="40.256700" lon="-4.905533">
        <ele>1259.0</ele>
        <time>2018-09-16T11:37:10Z</time>
      </trkpt>
      <trkpt lat="40.256700" lon="-4.905533">
        <ele>1259.0</ele>
        <time>2018-09-16T11:37:11Z</time>
      </trkpt>
      <trkpt lat="40.256700" lon="-4.905533">
        <ele>1259.0</ele>
        <time>2018-09-16T11:37:12Z</time>
      </trkpt>
      <trkpt lat="40.256700" lon="-4.905533">
        <ele>1259.0</ele>
        <time>2018-09-16T11:37:13Z</time>
      </trkpt>
      <trkpt lat="40.256700" lon="-4.905533">
        <ele>1259.0</ele>
        <time>2018-09-16T11:37:14Z</time>
      </trkpt>
      <trkpt lat="40.256700" lon="-4.905550">
        <ele>1259.0</ele>
        <time>2018-09-16T11:37:15Z</time>
      </trkpt>
      <trkpt lat="40.256700" lon="-4.905550">
        <ele>1259.0</ele>
        <time>2018-09-16T11:37:16Z</time>
      </trkpt>
      <trkpt lat="40.256700" lon="-4.905550">
        <ele>1257.0</ele>
        <time>2018-09-16T11:37:17Z</time>
      </trkpt>
      <trkpt lat="40.256700" lon="-4.905550">
        <ele>1257.0</ele>
        <time>2018-09-16T11:37:18Z</time>
      </trkpt>
      <trkpt lat="40.256700" lon="-4.905550">
        <ele>1257.0</ele>
        <time>2018-09-16T11:37:19Z</time>
      </trkpt>
      <trkpt lat="40.256700" lon="-4.905550">
        <ele>1257.0</ele>
        <time>2018-09-16T11:37:20Z</time>
      </trkpt>
      <trkpt lat="40.256700" lon="-4.905550">
        <ele>1257.0</ele>
        <time>2018-09-16T11:37:21Z</time>
      </trkpt>
      <trkpt lat="40.256700" lon="-4.905550">
        <ele>1259.0</ele>
        <time>2018-09-16T11:37:22Z</time>
      </trkpt>
      <trkpt lat="40.256700" lon="-4.905550">
        <ele>1261.0</ele>
        <time>2018-09-16T11:37:23Z</time>
      </trkpt>
      <trkpt lat="40.256700" lon="-4.905550">
        <ele>1261.0</ele>
        <time>2018-09-16T11:37:24Z</time>
      </trkpt>
      <trkpt lat="40.256700" lon="-4.905550">
        <ele>1261.0</ele>
        <time>2018-09-16T11:37:25Z</time>
      </trkpt>
      <trkpt lat="40.256700" lon="-4.905550">
        <ele>1261.0</ele>
        <time>2018-09-16T11:37:26Z</time>
      </trkpt>
      <trkpt lat="40.256700" lon="-4.905550">
        <ele>1261.0</ele>
        <time>2018-09-16T11:37:27Z</time>
      </trkpt>
      <trkpt lat="40.256700" lon="-4.905567">
        <ele>1260.0</ele>
        <time>2018-09-16T11:37:28Z</time>
      </trkpt>
      <trkpt lat="40.256683" lon="-4.905567">
        <ele>1257.0</ele>
        <time>2018-09-16T11:37:32Z</time>
      </trkpt>
      <trkpt lat="40.256683" lon="-4.905567">
        <ele>1257.0</ele>
        <time>2018-09-16T11:37:33Z</time>
      </trkpt>
      <trkpt lat="40.256683" lon="-4.905567">
        <ele>1257.0</ele>
        <time>2018-09-16T11:37:34Z</time>
      </trkpt>
      <trkpt lat="40.256683" lon="-4.905567">
        <ele>1257.0</ele>
        <time>2018-09-16T11:37:35Z</time>
      </trkpt>
      <trkpt lat="40.256683" lon="-4.905550">
        <ele>1257.0</ele>
        <time>2018-09-16T11:37:36Z</time>
      </trkpt>
      <trkpt lat="40.256683" lon="-4.905550">
        <ele>1257.0</ele>
        <time>2018-09-16T11:37:37Z</time>
      </trkpt>
      <trkpt lat="40.256683" lon="-4.905550">
        <ele>1258.0</ele>
        <time>2018-09-16T11:37:38Z</time>
      </trkpt>
      <trkpt lat="40.256683" lon="-4.905550">
        <ele>1258.0</ele>
        <time>2018-09-16T11:37:39Z</time>
      </trkpt>
      <trkpt lat="40.256683" lon="-4.905550">
        <ele>1258.0</ele>
        <time>2018-09-16T11:37:40Z</time>
      </trkpt>
      <trkpt lat="40.256683" lon="-4.905550">
        <ele>1258.0</ele>
        <time>2018-09-16T11:37:41Z</time>
      </trkpt>
      <trkpt lat="40.256700" lon="-4.905550">
        <ele>1259.0</ele>
        <time>2018-09-16T11:37:42Z</time>
      </trkpt>
      <trkpt lat="40.256700" lon="-4.905550">
        <ele>1260.0</ele>
        <time>2018-09-16T11:37:43Z</time>
      </trkpt>
      <trkpt lat="40.256700" lon="-4.905550">
        <ele>1259.0</ele>
        <time>2018-09-16T11:37:44Z</time>
      </trkpt>
      <trkpt lat="40.256700" lon="-4.905550">
        <ele>1260.0</ele>
        <time>2018-09-16T11:37:45Z</time>
      </trkpt>
      <trkpt lat="40.256700" lon="-4.905550">
        <ele>1259.0</ele>
        <time>2018-09-16T11:37:46Z</time>
      </trkpt>
      <trkpt lat="40.256700" lon="-4.905550">
        <ele>1259.0</ele>
        <time>2018-09-16T11:37:47Z</time>
      </trkpt>
      <trkpt lat="40.256700" lon="-4.905550">
        <ele>1259.0</ele>
        <time>2018-09-16T11:37:48Z</time>
      </trkpt>
      <trkpt lat="40.256700" lon="-4.905550">
        <ele>1259.0</ele>
        <time>2018-09-16T11:37:49Z</time>
      </trkpt>
      <trkpt lat="40.256700" lon="-4.905550">
        <ele>1260.0</ele>
        <time>2018-09-16T11:37:50Z</time>
      </trkpt>
      <trkpt lat="40.256700" lon="-4.905550">
        <ele>1260.0</ele>
        <time>2018-09-16T11:37:51Z</time>
      </trkpt>
      <trkpt lat="40.256700" lon="-4.905550">
        <ele>1260.0</ele>
        <time>2018-09-16T11:37:52Z</time>
      </trkpt>
      <trkpt lat="40.256700" lon="-4.905550">
        <ele>1260.0</ele>
        <time>2018-09-16T11:37:53Z</time>
      </trkpt>
      <trkpt lat="40.256700" lon="-4.905550">
        <ele>1260.0</ele>
        <time>2018-09-16T11:37:54Z</time>
      </trkpt>
      <trkpt lat="40.256700" lon="-4.905550">
        <ele>1260.0</ele>
        <time>2018-09-16T11:37:55Z</time>
      </trkpt>
      <trkpt lat="40.256700" lon="-4.905550">
        <ele>1261.0</ele>
        <time>2018-09-16T11:37:56Z</time>
      </trkpt>
      <trkpt lat="40.256700" lon="-4.905533">
        <ele>1261.0</ele>
        <time>2018-09-16T11:37:57Z</time>
      </trkpt>
      <trkpt lat="40.256700" lon="-4.905533">
        <ele>1261.0</ele>
        <time>2018-09-16T11:37:58Z</time>
      </trkpt>
      <trkpt lat="40.256700" lon="-4.905533">
        <ele>1261.0</ele>
        <time>2018-09-16T11:37:59Z</time>
      </trkpt>
      <trkpt lat="40.256683" lon="-4.905533">
        <ele>1260.0</ele>
        <time>2018-09-16T11:38:01Z</time>
      </trkpt>
      <trkpt lat="40.256667" lon="-4.905533">
        <ele>1260.0</ele>
        <time>2018-09-16T11:38:02Z</time>
      </trkpt>
      <trkpt lat="40.256667" lon="-4.905533">
        <ele>1260.0</ele>
        <time>2018-09-16T11:38:03Z</time>
      </trkpt>
      <trkpt lat="40.256667" lon="-4.905533">
        <ele>1260.0</ele>
        <time>2018-09-16T11:38:04Z</time>
      </trkpt>
      <trkpt lat="40.256667" lon="-4.905517">
        <ele>1261.0</ele>
        <time>2018-09-16T11:38:05Z</time>
      </trkpt>
      <trkpt lat="40.256667" lon="-4.905517">
        <ele>1261.0</ele>
        <time>2018-09-16T11:38:06Z</time>
      </trkpt>
      <trkpt lat="40.256667" lon="-4.905533">
        <ele>1261.0</ele>
        <time>2018-09-16T11:38:07Z</time>
      </trkpt>
      <trkpt lat="40.256667" lon="-4.905517">
        <ele>1261.0</ele>
        <time>2018-09-16T11:38:08Z</time>
      </trkpt>
      <trkpt lat="40.256667" lon="-4.905517">
        <ele>1261.0</ele>
        <time>2018-09-16T11:38:09Z</time>
      </trkpt>
      <trkpt lat="40.256667" lon="-4.905517">
        <ele>1261.0</ele>
        <time>2018-09-16T11:38:10Z</time>
      </trkpt>
      <trkpt lat="40.256667" lon="-4.905533">
        <ele>1260.0</ele>
        <time>2018-09-16T11:38:11Z</time>
      </trkpt>
      <trkpt lat="40.256667" lon="-4.905533">
        <ele>1259.0</ele>
        <time>2018-09-16T11:38:12Z</time>
      </trkpt>
      <trkpt lat="40.256667" lon="-4.905533">
        <ele>1257.0</ele>
        <time>2018-09-16T11:38:13Z</time>
      </trkpt>
      <trkpt lat="40.256667" lon="-4.905533">
        <ele>1256.0</ele>
        <time>2018-09-16T11:38:14Z</time>
      </trkpt>
      <trkpt lat="40.256667" lon="-4.905550">
        <ele>1256.0</ele>
        <time>2018-09-16T11:38:15Z</time>
      </trkpt>
      <trkpt lat="40.256667" lon="-4.905550">
        <ele>1256.0</ele>
        <time>2018-09-16T11:38:16Z</time>
      </trkpt>
      <trkpt lat="40.256667" lon="-4.905550">
        <ele>1255.0</ele>
        <time>2018-09-16T11:38:17Z</time>
      </trkpt>
      <trkpt lat="40.256667" lon="-4.905550">
        <ele>1253.0</ele>
        <time>2018-09-16T11:38:18Z</time>
      </trkpt>
      <trkpt lat="40.256667" lon="-4.905550">
        <ele>1252.0</ele>
        <time>2018-09-16T11:38:19Z</time>
      </trkpt>
      <trkpt lat="40.256667" lon="-4.905550">
        <ele>1252.0</ele>
        <time>2018-09-16T11:38:20Z</time>
      </trkpt>
      <trkpt lat="40.256667" lon="-4.905550">
        <ele>1252.0</ele>
        <time>2018-09-16T11:38:21Z</time>
      </trkpt>
      <trkpt lat="40.256667" lon="-4.905550">
        <ele>1252.0</ele>
        <time>2018-09-16T11:38:22Z</time>
      </trkpt>
      <trkpt lat="40.256667" lon="-4.905550">
        <ele>1253.0</ele>
        <time>2018-09-16T11:38:23Z</time>
      </trkpt>
      <trkpt lat="40.256667" lon="-4.905550">
        <ele>1253.0</ele>
        <time>2018-09-16T11:38:24Z</time>
      </trkpt>
      <trkpt lat="40.256667" lon="-4.905550">
        <ele>1254.0</ele>
        <time>2018-09-16T11:38:25Z</time>
      </trkpt>
      <trkpt lat="40.256667" lon="-4.905567">
        <ele>1254.0</ele>
        <time>2018-09-16T11:38:26Z</time>
      </trkpt>
      <trkpt lat="40.256667" lon="-4.905567">
        <ele>1253.0</ele>
        <time>2018-09-16T11:38:27Z</time>
      </trkpt>
      <trkpt lat="40.256667" lon="-4.905550">
        <ele>1253.0</ele>
        <time>2018-09-16T11:38:28Z</time>
      </trkpt>
      <trkpt lat="40.256667" lon="-4.905567">
        <ele>1253.0</ele>
        <time>2018-09-16T11:38:29Z</time>
      </trkpt>
      <trkpt lat="40.256667" lon="-4.905567">
        <ele>1253.0</ele>
        <time>2018-09-16T11:38:30Z</time>
      </trkpt>
      <trkpt lat="40.256683" lon="-4.905567">
        <ele>1253.0</ele>
        <time>2018-09-16T11:38:31Z</time>
      </trkpt>
      <trkpt lat="40.256683" lon="-4.905567">
        <ele>1254.0</ele>
        <time>2018-09-16T11:38:32Z</time>
      </trkpt>
      <trkpt lat="40.256683" lon="-4.905567">
        <ele>1255.0</ele>
        <time>2018-09-16T11:38:33Z</time>
      </trkpt>
      <trkpt lat="40.256683" lon="-4.905567">
        <ele>1256.0</ele>
        <time>2018-09-16T11:38:34Z</time>
      </trkpt>
      <trkpt lat="40.256683" lon="-4.905567">
        <ele>1257.0</ele>
        <time>2018-09-16T11:38:35Z</time>
      </trkpt>
      <trkpt lat="40.256683" lon="-4.905567">
        <ele>1258.0</ele>
        <time>2018-09-16T11:38:36Z</time>
      </trkpt>
      <trkpt lat="40.256683" lon="-4.905567">
        <ele>1259.0</ele>
        <time>2018-09-16T11:38:37Z</time>
      </trkpt>
      <trkpt lat="40.256683" lon="-4.905550">
        <ele>1260.0</ele>
        <time>2018-09-16T11:38:38Z</time>
      </trkpt>
      <trkpt lat="40.256683" lon="-4.905550">
        <ele>1260.0</ele>
        <time>2018-09-16T11:38:39Z</time>
      </trkpt>
      <trkpt lat="40.256683" lon="-4.905550">
        <ele>1261.0</ele>
        <time>2018-09-16T11:38:40Z</time>
      </trkpt>
      <trkpt lat="40.256683" lon="-4.905550">
        <ele>1261.0</ele>
        <time>2018-09-16T11:38:41Z</time>
      </trkpt>
      <trkpt lat="40.256683" lon="-4.905550">
        <ele>1262.0</ele>
        <time>2018-09-16T11:38:42Z</time>
      </trkpt>
      <trkpt lat="40.256683" lon="-4.905550">
        <ele>1263.0</ele>
        <time>2018-09-16T11:38:43Z</time>
      </trkpt>
      <trkpt lat="40.256683" lon="-4.905550">
        <ele>1263.0</ele>
        <time>2018-09-16T11:38:44Z</time>
      </trkpt>
      <trkpt lat="40.256683" lon="-4.905550">
        <ele>1262.0</ele>
        <time>2018-09-16T11:38:45Z</time>
      </trkpt>
      <trkpt lat="40.256667" lon="-4.905550">
        <ele>1259.0</ele>
        <time>2018-09-16T11:38:46Z</time>
      </trkpt>
      <trkpt lat="40.256667" lon="-4.905550">
        <ele>1259.0</ele>
        <time>2018-09-16T11:38:47Z</time>
      </trkpt>
      <trkpt lat="40.256667" lon="-4.905550">
        <ele>1259.0</ele>
        <time>2018-09-16T11:38:48Z</time>
      </trkpt>
      <trkpt lat="40.256667" lon="-4.905550">
        <ele>1260.0</ele>
        <time>2018-09-16T11:38:49Z</time>
      </trkpt>
      <trkpt lat="40.256667" lon="-4.905550">
        <ele>1260.0</ele>
        <time>2018-09-16T11:38:50Z</time>
      </trkpt>
      <trkpt lat="40.256683" lon="-4.905533">
        <ele>1261.0</ele>
        <time>2018-09-16T11:38:51Z</time>
      </trkpt>
      <trkpt lat="40.256683" lon="-4.905533">
        <ele>1261.0</ele>
        <time>2018-09-16T11:38:52Z</time>
      </trkpt>
      <trkpt lat="40.256683" lon="-4.905533">
        <ele>1262.0</ele>
        <time>2018-09-16T11:38:53Z</time>
      </trkpt>
      <trkpt lat="40.256683" lon="-4.905533">
        <ele>1262.0</ele>
        <time>2018-09-16T11:38:54Z</time>
      </trkpt>
      <trkpt lat="40.256683" lon="-4.905533">
        <ele>1262.0</ele>
        <time>2018-09-16T11:38:55Z</time>
      </trkpt>
      <trkpt lat="40.256683" lon="-4.905533">
        <ele>1262.0</ele>
        <time>2018-09-16T11:38:56Z</time>
      </trkpt>
      <trkpt lat="40.256683" lon="-4.905533">
        <ele>1261.0</ele>
        <time>2018-09-16T11:38:57Z</time>
      </trkpt>
      <trkpt lat="40.256683" lon="-4.905550">
        <ele>1261.0</ele>
        <time>2018-09-16T11:38:58Z</time>
      </trkpt>
      <trkpt lat="40.256683" lon="-4.905550">
        <ele>1260.0</ele>
        <time>2018-09-16T11:38:59Z</time>
      </trkpt>
      <trkpt lat="40.256683" lon="-4.905550">
        <ele>1260.0</ele>
        <time>2018-09-16T11:39:00Z</time>
      </trkpt>
      <trkpt lat="40.256683" lon="-4.905550">
        <ele>1259.0</ele>
        <time>2018-09-16T11:39:01Z</time>
      </trkpt>
      <trkpt lat="40.256683" lon="-4.905567">
        <ele>1259.0</ele>
        <time>2018-09-16T11:39:02Z</time>
      </trkpt>
      <trkpt lat="40.256683" lon="-4.905567">
        <ele>1258.0</ele>
        <time>2018-09-16T11:39:03Z</time>
      </trkpt>
      <trkpt lat="40.256683" lon="-4.905567">
        <ele>1258.0</ele>
        <time>2018-09-16T11:39:04Z</time>
      </trkpt>
      <trkpt lat="40.256683" lon="-4.905567">
        <ele>1258.0</ele>
        <time>2018-09-16T11:39:05Z</time>
      </trkpt>
      <trkpt lat="40.256683" lon="-4.905567">
        <ele>1258.0</ele>
        <time>2018-09-16T11:39:06Z</time>
      </trkpt>
      <trkpt lat="40.256683" lon="-4.905567">
        <ele>1257.0</ele>
        <time>2018-09-16T11:39:07Z</time>
      </trkpt>
      <trkpt lat="40.256683" lon="-4.905583">
        <ele>1256.0</ele>
        <time>2018-09-16T11:39:08Z</time>
      </trkpt>
      <trkpt lat="40.256683" lon="-4.905583">
        <ele>1256.0</ele>
        <time>2018-09-16T11:39:09Z</time>
      </trkpt>
      <trkpt lat="40.256667" lon="-4.905583">
        <ele>1255.0</ele>
        <time>2018-09-16T11:39:10Z</time>
      </trkpt>
      <trkpt lat="40.256667" lon="-4.905583">
        <ele>1254.0</ele>
        <time>2018-09-16T11:39:11Z</time>
      </trkpt>
      <trkpt lat="40.256667" lon="-4.905583">
        <ele>1254.0</ele>
        <time>2018-09-16T11:39:12Z</time>
      </trkpt>
      <trkpt lat="40.256667" lon="-4.905583">
        <ele>1254.0</ele>
        <time>2018-09-16T11:39:13Z</time>
      </trkpt>
      <trkpt lat="40.256667" lon="-4.905583">
        <ele>1254.0</ele>
        <time>2018-09-16T11:39:14Z</time>
      </trkpt>
      <trkpt lat="40.256667" lon="-4.905583">
        <ele>1255.0</ele>
        <time>2018-09-16T11:39:15Z</time>
      </trkpt>
      <trkpt lat="40.256667" lon="-4.905583">
        <ele>1254.0</ele>
        <time>2018-09-16T11:39:16Z</time>
      </trkpt>
      <trkpt lat="40.256667" lon="-4.905583">
        <ele>1254.0</ele>
        <time>2018-09-16T11:39:17Z</time>
      </trkpt>
      <trkpt lat="40.256667" lon="-4.905583">
        <ele>1254.0</ele>
        <time>2018-09-16T11:39:18Z</time>
      </trkpt>
      <trkpt lat="40.256667" lon="-4.905583">
        <ele>1255.0</ele>
        <time>2018-09-16T11:39:19Z</time>
      </trkpt>
      <trkpt lat="40.256667" lon="-4.905583">
        <ele>1255.0</ele>
        <time>2018-09-16T11:39:20Z</time>
      </trkpt>
      <trkpt lat="40.256667" lon="-4.905567">
        <ele>1256.0</ele>
        <time>2018-09-16T11:39:21Z</time>
      </trkpt>
      <trkpt lat="40.256667" lon="-4.905567">
        <ele>1256.0</ele>
        <time>2018-09-16T11:39:22Z</time>
      </trkpt>
      <trkpt lat="40.256667" lon="-4.905567">
        <ele>1256.0</ele>
        <time>2018-09-16T11:39:23Z</time>
      </trkpt>
      <trkpt lat="40.256667" lon="-4.905567">
        <ele>1256.0</ele>
        <time>2018-09-16T11:39:24Z</time>
      </trkpt>
      <trkpt lat="40.256667" lon="-4.905567">
        <ele>1256.0</ele>
        <time>2018-09-16T11:39:25Z</time>
      </trkpt>
      <trkpt lat="40.256667" lon="-4.905567">
        <ele>1255.0</ele>
        <time>2018-09-16T11:39:26Z</time>
      </trkpt>
      <trkpt lat="40.256667" lon="-4.905567">
        <ele>1255.0</ele>
        <time>2018-09-16T11:39:27Z</time>
      </trkpt>
      <trkpt lat="40.256667" lon="-4.905583">
        <ele>1255.0</ele>
        <time>2018-09-16T11:39:28Z</time>
      </trkpt>
      <trkpt lat="40.256667" lon="-4.905583">
        <ele>1254.0</ele>
        <time>2018-09-16T11:39:29Z</time>
      </trkpt>
      <trkpt lat="40.256667" lon="-4.905583">
        <ele>1254.0</ele>
        <time>2018-09-16T11:39:30Z</time>
      </trkpt>
      <trkpt lat="40.256667" lon="-4.905583">
        <ele>1253.0</ele>
        <time>2018-09-16T11:39:31Z</time>
      </trkpt>
      <trkpt lat="40.256667" lon="-4.905583">
        <ele>1253.0</ele>
        <time>2018-09-16T11:39:32Z</time>
      </trkpt>
      <trkpt lat="40.256667" lon="-4.905583">
        <ele>1253.0</ele>
        <time>2018-09-16T11:39:33Z</time>
      </trkpt>
      <trkpt lat="40.256667" lon="-4.905583">
        <ele>1254.0</ele>
        <time>2018-09-16T11:39:34Z</time>
      </trkpt>
      <trkpt lat="40.256667" lon="-4.905583">
        <ele>1254.0</ele>
        <time>2018-09-16T11:39:35Z</time>
      </trkpt>
      <trkpt lat="40.256667" lon="-4.905583">
        <ele>1255.0</ele>
        <time>2018-09-16T11:39:36Z</time>
      </trkpt>
      <trkpt lat="40.256683" lon="-4.905583">
        <ele>1256.0</ele>
        <time>2018-09-16T11:39:37Z</time>
      </trkpt>
      <trkpt lat="40.256683" lon="-4.905567">
        <ele>1256.0</ele>
        <time>2018-09-16T11:39:38Z</time>
      </trkpt>
      <trkpt lat="40.256667" lon="-4.905567">
        <ele>1257.0</ele>
        <time>2018-09-16T11:39:39Z</time>
      </trkpt>
      <trkpt lat="40.256667" lon="-4.905567">
        <ele>1258.0</ele>
        <time>2018-09-16T11:39:40Z</time>
      </trkpt>
      <trkpt lat="40.256683" lon="-4.905567">
        <ele>1259.0</ele>
        <time>2018-09-16T11:39:41Z</time>
      </trkpt>
      <trkpt lat="40.256683" lon="-4.905567">
        <ele>1260.0</ele>
        <time>2018-09-16T11:39:42Z</time>
      </trkpt>
      <trkpt lat="40.256667" lon="-4.905550">
        <ele>1260.0</ele>
        <time>2018-09-16T11:39:43Z</time>
      </trkpt>
      <trkpt lat="40.256667" lon="-4.905550">
        <ele>1260.0</ele>
        <time>2018-09-16T11:39:44Z</time>
      </trkpt>
      <trkpt lat="40.256667" lon="-4.905550">
        <ele>1260.0</ele>
        <time>2018-09-16T11:39:45Z</time>
      </trkpt>
      <trkpt lat="40.256667" lon="-4.905550">
        <ele>1260.0</ele>
        <time>2018-09-16T11:39:46Z</time>
      </trkpt>
      <trkpt lat="40.256667" lon="-4.905550">
        <ele>1259.0</ele>
        <time>2018-09-16T11:39:47Z</time>
      </trkpt>
      <trkpt lat="40.256667" lon="-4.905550">
        <ele>1260.0</ele>
        <time>2018-09-16T11:39:48Z</time>
      </trkpt>
      <trkpt lat="40.256667" lon="-4.905550">
        <ele>1260.0</ele>
        <time>2018-09-16T11:39:49Z</time>
      </trkpt>
      <trkpt lat="40.256650" lon="-4.905567">
        <ele>1259.0</ele>
        <time>2018-09-16T11:39:50Z</time>
      </trkpt>
      <trkpt lat="40.256650" lon="-4.905567">
        <ele>1258.0</ele>
        <time>2018-09-16T11:39:51Z</time>
      </trkpt>
      <trkpt lat="40.256650" lon="-4.905567">
        <ele>1258.0</ele>
        <time>2018-09-16T11:39:52Z</time>
      </trkpt>
      <trkpt lat="40.256650" lon="-4.905567">
        <ele>1257.0</ele>
        <time>2018-09-16T11:39:53Z</time>
      </trkpt>
      <trkpt lat="40.256650" lon="-4.905567">
        <ele>1257.0</ele>
        <time>2018-09-16T11:39:54Z</time>
      </trkpt>
      <trkpt lat="40.256650" lon="-4.905567">
        <ele>1257.0</ele>
        <time>2018-09-16T11:39:55Z</time>
      </trkpt>
      <trkpt lat="40.256650" lon="-4.905567">
        <ele>1257.0</ele>
        <time>2018-09-16T11:39:56Z</time>
      </trkpt>
      <trkpt lat="40.256650" lon="-4.905567">
        <ele>1257.0</ele>
        <time>2018-09-16T11:39:57Z</time>
      </trkpt>
      <trkpt lat="40.256650" lon="-4.905567">
        <ele>1257.0</ele>
        <time>2018-09-16T11:39:58Z</time>
      </trkpt>
      <trkpt lat="40.256650" lon="-4.905567">
        <ele>1257.0</ele>
        <time>2018-09-16T11:39:59Z</time>
      </trkpt>
      <trkpt lat="40.256650" lon="-4.905567">
        <ele>1256.0</ele>
        <time>2018-09-16T11:40:00Z</time>
      </trkpt>
      <trkpt lat="40.256650" lon="-4.905567">
        <ele>1256.0</ele>
        <time>2018-09-16T11:40:01Z</time>
      </trkpt>
      <trkpt lat="40.256650" lon="-4.905567">
        <ele>1256.0</ele>
        <time>2018-09-16T11:40:02Z</time>
      </trkpt>
      <trkpt lat="40.256650" lon="-4.905567">
        <ele>1256.0</ele>
        <time>2018-09-16T11:40:03Z</time>
      </trkpt>
      <trkpt lat="40.256650" lon="-4.905567">
        <ele>1256.0</ele>
        <time>2018-09-16T11:40:04Z</time>
      </trkpt>
      <trkpt lat="40.256650" lon="-4.905567">
        <ele>1256.0</ele>
        <time>2018-09-16T11:40:05Z</time>
      </trkpt>
      <trkpt lat="40.256650" lon="-4.905567">
        <ele>1256.0</ele>
        <time>2018-09-16T11:40:06Z</time>
      </trkpt>
      <trkpt lat="40.256650" lon="-4.905567">
        <ele>1256.0</ele>
        <time>2018-09-16T11:40:07Z</time>
      </trkpt>
      <trkpt lat="40.256667" lon="-4.905567">
        <ele>1257.0</ele>
        <time>2018-09-16T11:40:08Z</time>
      </trkpt>
      <trkpt lat="40.256667" lon="-4.905567">
        <ele>1258.0</ele>
        <time>2018-09-16T11:40:09Z</time>
      </trkpt>
      <trkpt lat="40.256667" lon="-4.905583">
        <ele>1258.0</ele>
        <time>2018-09-16T11:40:10Z</time>
      </trkpt>
      <trkpt lat="40.256667" lon="-4.905567">
        <ele>1258.0</ele>
        <time>2018-09-16T11:40:11Z</time>
      </trkpt>
      <trkpt lat="40.256667" lon="-4.905567">
        <ele>1258.0</ele>
        <time>2018-09-16T11:40:12Z</time>
      </trkpt>
      <trkpt lat="40.256667" lon="-4.905567">
        <ele>1259.0</ele>
        <time>2018-09-16T11:40:13Z</time>
      </trkpt>
      <trkpt lat="40.256683" lon="-4.905550">
        <ele>1260.0</ele>
        <time>2018-09-16T11:40:14Z</time>
      </trkpt>
      <trkpt lat="40.256683" lon="-4.905550">
        <ele>1261.0</ele>
        <time>2018-09-16T11:40:15Z</time>
      </trkpt>
      <trkpt lat="40.256683" lon="-4.905550">
        <ele>1262.0</ele>
        <time>2018-09-16T11:40:16Z</time>
      </trkpt>
      <trkpt lat="40.256683" lon="-4.905550">
        <ele>1262.0</ele>
        <time>2018-09-16T11:40:17Z</time>
      </trkpt>
      <trkpt lat="40.256683" lon="-4.905550">
        <ele>1263.0</ele>
        <time>2018-09-16T11:40:18Z</time>
      </trkpt>
      <trkpt lat="40.256683" lon="-4.905567">
        <ele>1263.0</ele>
        <time>2018-09-16T11:40:19Z</time>
      </trkpt>
      <trkpt lat="40.256683" lon="-4.905567">
        <ele>1263.0</ele>
        <time>2018-09-16T11:40:20Z</time>
      </trkpt>
      <trkpt lat="40.256700" lon="-4.905567">
        <ele>1263.0</ele>
        <time>2018-09-16T11:40:21Z</time>
      </trkpt>
      <trkpt lat="40.256700" lon="-4.905567">
        <ele>1263.0</ele>
        <time>2018-09-16T11:40:22Z</time>
      </trkpt>
      <trkpt lat="40.256700" lon="-4.905567">
        <ele>1264.0</ele>
        <time>2018-09-16T11:40:23Z</time>
      </trkpt>
      <trkpt lat="40.256700" lon="-4.905567">
        <ele>1264.0</ele>
        <time>2018-09-16T11:40:24Z</time>
      </trkpt>
      <trkpt lat="40.256700" lon="-4.905567">
        <ele>1264.0</ele>
        <time>2018-09-16T11:40:25Z</time>
      </trkpt>
      <trkpt lat="40.256700" lon="-4.905567">
        <ele>1263.0</ele>
        <time>2018-09-16T11:40:26Z</time>
      </trkpt>
      <trkpt lat="40.256683" lon="-4.905567">
        <ele>1263.0</ele>
        <time>2018-09-16T11:40:27Z</time>
      </trkpt>
      <trkpt lat="40.256700" lon="-4.905567">
        <ele>1263.0</ele>
        <time>2018-09-16T11:40:28Z</time>
      </trkpt>
      <trkpt lat="40.256700" lon="-4.905550">
        <ele>1263.0</ele>
        <time>2018-09-16T11:40:29Z</time>
      </trkpt>
      <trkpt lat="40.256700" lon="-4.905550">
        <ele>1263.0</ele>
        <time>2018-09-16T11:40:30Z</time>
      </trkpt>
      <trkpt lat="40.256700" lon="-4.905550">
        <ele>1262.0</ele>
        <time>2018-09-16T11:40:31Z</time>
      </trkpt>
      <trkpt lat="40.256700" lon="-4.905550">
        <ele>1262.0</ele>
        <time>2018-09-16T11:40:32Z</time>
      </trkpt>
      <trkpt lat="40.256700" lon="-4.905550">
        <ele>1262.0</ele>
        <time>2018-09-16T11:40:33Z</time>
      </trkpt>
      <trkpt lat="40.256700" lon="-4.905533">
        <ele>1262.0</ele>
        <time>2018-09-16T11:40:34Z</time>
      </trkpt>
      <trkpt lat="40.256700" lon="-4.905533">
        <ele>1261.0</ele>
        <time>2018-09-16T11:40:35Z</time>
      </trkpt>
      <trkpt lat="40.256700" lon="-4.905533">
        <ele>1260.0</ele>
        <time>2018-09-16T11:40:36Z</time>
      </trkpt>
      <trkpt lat="40.256683" lon="-4.905533">
        <ele>1260.0</ele>
        <time>2018-09-16T11:40:37Z</time>
      </trkpt>
      <trkpt lat="40.256683" lon="-4.905533">
        <ele>1259.0</ele>
        <time>2018-09-16T11:40:38Z</time>
      </trkpt>
      <trkpt lat="40.256683" lon="-4.905533">
        <ele>1259.0</ele>
        <time>2018-09-16T11:40:39Z</time>
      </trkpt>
      <trkpt lat="40.256683" lon="-4.905533">
        <ele>1258.0</ele>
        <time>2018-09-16T11:40:40Z</time>
      </trkpt>
      <trkpt lat="40.256683" lon="-4.905533">
        <ele>1258.0</ele>
        <time>2018-09-16T11:40:41Z</time>
      </trkpt>
      <trkpt lat="40.256683" lon="-4.905533">
        <ele>1258.0</ele>
        <time>2018-09-16T11:40:42Z</time>
      </trkpt>
      <trkpt lat="40.256683" lon="-4.905533">
        <ele>1257.0</ele>
        <time>2018-09-16T11:40:43Z</time>
      </trkpt>
      <trkpt lat="40.256683" lon="-4.905533">
        <ele>1258.0</ele>
        <time>2018-09-16T11:40:44Z</time>
      </trkpt>
      <trkpt lat="40.256683" lon="-4.905533">
        <ele>1258.0</ele>
        <time>2018-09-16T11:40:45Z</time>
      </trkpt>
      <trkpt lat="40.256683" lon="-4.905533">
        <ele>1258.0</ele>
        <time>2018-09-16T11:40:46Z</time>
      </trkpt>
      <trkpt lat="40.256683" lon="-4.905533">
        <ele>1259.0</ele>
        <time>2018-09-16T11:40:47Z</time>
      </trkpt>
      <trkpt lat="40.256683" lon="-4.905517">
        <ele>1259.0</ele>
        <time>2018-09-16T11:40:48Z</time>
      </trkpt>
      <trkpt lat="40.256683" lon="-4.905533">
        <ele>1259.0</ele>
        <time>2018-09-16T11:40:49Z</time>
      </trkpt>
      <trkpt lat="40.256683" lon="-4.905533">
        <ele>1260.0</ele>
        <time>2018-09-16T11:40:50Z</time>
      </trkpt>
      <trkpt lat="40.256683" lon="-4.905533">
        <ele>1261.0</ele>
        <time>2018-09-16T11:40:51Z</time>
      </trkpt>
      <trkpt lat="40.256683" lon="-4.905550">
        <ele>1261.0</ele>
        <time>2018-09-16T11:40:52Z</time>
      </trkpt>
      <trkpt lat="40.256683" lon="-4.905550">
        <ele>1261.0</ele>
        <time>2018-09-16T11:40:53Z</time>
      </trkpt>
      <trkpt lat="40.256683" lon="-4.905550">
        <ele>1261.0</ele>
        <time>2018-09-16T11:40:54Z</time>
      </trkpt>
      <trkpt lat="40.256683" lon="-4.905550">
        <ele>1260.0</ele>
        <time>2018-09-16T11:40:55Z</time>
      </trkpt>
      <trkpt lat="40.256683" lon="-4.905567">
        <ele>1260.0</ele>
        <time>2018-09-16T11:40:56Z</time>
      </trkpt>
      <trkpt lat="40.256683" lon="-4.905567">
        <ele>1259.0</ele>
        <time>2018-09-16T11:40:57Z</time>
      </trkpt>
      <trkpt lat="40.256683" lon="-4.905567">
        <ele>1258.0</ele>
        <time>2018-09-16T11:40:58Z</time>
      </trkpt>
      <trkpt lat="40.256700" lon="-4.905567">
        <ele>1258.0</ele>
        <time>2018-09-16T11:40:59Z</time>
      </trkpt>
      <trkpt lat="40.256700" lon="-4.905583">
        <ele>1257.0</ele>
        <time>2018-09-16T11:41:00Z</time>
      </trkpt>
      <trkpt lat="40.256700" lon="-4.905583">
        <ele>1257.0</ele>
        <time>2018-09-16T11:41:01Z</time>
      </trkpt>
      <trkpt lat="40.256700" lon="-4.905583">
        <ele>1256.0</ele>
        <time>2018-09-16T11:41:02Z</time>
      </trkpt>
      <trkpt lat="40.256700" lon="-4.905583">
        <ele>1256.0</ele>
        <time>2018-09-16T11:41:03Z</time>
      </trkpt>
      <trkpt lat="40.256700" lon="-4.905583">
        <ele>1255.0</ele>
        <time>2018-09-16T11:41:04Z</time>
      </trkpt>
      <trkpt lat="40.256700" lon="-4.905583">
        <ele>1255.0</ele>
        <time>2018-09-16T11:41:05Z</time>
      </trkpt>
      <trkpt lat="40.256700" lon="-4.905600">
        <ele>1255.0</ele>
        <time>2018-09-16T11:41:06Z</time>
      </trkpt>
      <trkpt lat="40.256717" lon="-4.905600">
        <ele>1255.0</ele>
        <time>2018-09-16T11:41:07Z</time>
      </trkpt>
      <trkpt lat="40.256717" lon="-4.905600">
        <ele>1255.0</ele>
        <time>2018-09-16T11:41:08Z</time>
      </trkpt>
      <trkpt lat="40.256717" lon="-4.905600">
        <ele>1255.0</ele>
        <time>2018-09-16T11:41:09Z</time>
      </trkpt>
      <trkpt lat="40.256717" lon="-4.905583">
        <ele>1256.0</ele>
        <time>2018-09-16T11:41:10Z</time>
      </trkpt>
      <trkpt lat="40.256717" lon="-4.905583">
        <ele>1257.0</ele>
        <time>2018-09-16T11:41:11Z</time>
      </trkpt>
      <trkpt lat="40.256717" lon="-4.905567">
        <ele>1260.0</ele>
        <time>2018-09-16T11:41:12Z</time>
      </trkpt>
      <trkpt lat="40.256717" lon="-4.905567">
        <ele>1261.0</ele>
        <time>2018-09-16T11:41:13Z</time>
      </trkpt>
      <trkpt lat="40.256700" lon="-4.905567">
        <ele>1261.0</ele>
        <time>2018-09-16T11:41:15Z</time>
      </trkpt>
      <trkpt lat="40.256700" lon="-4.905567">
        <ele>1261.0</ele>
        <time>2018-09-16T11:41:16Z</time>
      </trkpt>
      <trkpt lat="40.256700" lon="-4.905567">
        <ele>1260.0</ele>
        <time>2018-09-16T11:41:17Z</time>
      </trkpt>
      <trkpt lat="40.256700" lon="-4.905567">
        <ele>1260.0</ele>
        <time>2018-09-16T11:41:18Z</time>
      </trkpt>
      <trkpt lat="40.256700" lon="-4.905567">
        <ele>1260.0</ele>
        <time>2018-09-16T11:41:19Z</time>
      </trkpt>
      <trkpt lat="40.256700" lon="-4.905567">
        <ele>1261.0</ele>
        <time>2018-09-16T11:41:20Z</time>
      </trkpt>
      <trkpt lat="40.256683" lon="-4.905567">
        <ele>1261.0</ele>
        <time>2018-09-16T11:41:21Z</time>
      </trkpt>
      <trkpt lat="40.256683" lon="-4.905567">
        <ele>1261.0</ele>
        <time>2018-09-16T11:41:22Z</time>
      </trkpt>
      <trkpt lat="40.256667" lon="-4.905567">
        <ele>1262.0</ele>
        <time>2018-09-16T11:41:23Z</time>
      </trkpt>
      <trkpt lat="40.256667" lon="-4.905567">
        <ele>1262.0</ele>
        <time>2018-09-16T11:41:24Z</time>
      </trkpt>
      <trkpt lat="40.256667" lon="-4.905567">
        <ele>1263.0</ele>
        <time>2018-09-16T11:41:26Z</time>
      </trkpt>
      <trkpt lat="40.256667" lon="-4.905550">
        <ele>1263.0</ele>
        <time>2018-09-16T11:41:27Z</time>
      </trkpt>
      <trkpt lat="40.256667" lon="-4.905567">
        <ele>1262.0</ele>
        <time>2018-09-16T11:41:28Z</time>
      </trkpt>
      <trkpt lat="40.256667" lon="-4.905550">
        <ele>1262.0</ele>
        <time>2018-09-16T11:41:29Z</time>
      </trkpt>
      <trkpt lat="40.256667" lon="-4.905550">
        <ele>1262.0</ele>
        <time>2018-09-16T11:41:30Z</time>
      </trkpt>
      <trkpt lat="40.256650" lon="-4.905550">
        <ele>1262.0</ele>
        <time>2018-09-16T11:41:31Z</time>
      </trkpt>
      <trkpt lat="40.256650" lon="-4.905550">
        <ele>1260.0</ele>
        <time>2018-09-16T11:41:32Z</time>
      </trkpt>
      <trkpt lat="40.256650" lon="-4.905567">
        <ele>1260.0</ele>
        <time>2018-09-16T11:41:33Z</time>
      </trkpt>
      <trkpt lat="40.256650" lon="-4.905567">
        <ele>1259.0</ele>
        <time>2018-09-16T11:41:34Z</time>
      </trkpt>
      <trkpt lat="40.256650" lon="-4.905567">
        <ele>1259.0</ele>
        <time>2018-09-16T11:41:35Z</time>
      </trkpt>
      <trkpt lat="40.256650" lon="-4.905583">
        <ele>1259.0</ele>
        <time>2018-09-16T11:41:36Z</time>
      </trkpt>
      <trkpt lat="40.256650" lon="-4.905583">
        <ele>1260.0</ele>
        <time>2018-09-16T11:41:37Z</time>
      </trkpt>
      <trkpt lat="40.256650" lon="-4.905583">
        <ele>1260.0</ele>
        <time>2018-09-16T11:41:38Z</time>
      </trkpt>
      <trkpt lat="40.256667" lon="-4.905583">
        <ele>1260.0</ele>
        <time>2018-09-16T11:41:39Z</time>
      </trkpt>
      <trkpt lat="40.256667" lon="-4.905583">
        <ele>1261.0</ele>
        <time>2018-09-16T11:41:40Z</time>
      </trkpt>
      <trkpt lat="40.256667" lon="-4.905583">
        <ele>1260.0</ele>
        <time>2018-09-16T11:41:41Z</time>
      </trkpt>
      <trkpt lat="40.256667" lon="-4.905583">
        <ele>1260.0</ele>
        <time>2018-09-16T11:41:42Z</time>
      </trkpt>
      <trkpt lat="40.256667" lon="-4.905583">
        <ele>1260.0</ele>
        <time>2018-09-16T11:41:43Z</time>
      </trkpt>
      <trkpt lat="40.256667" lon="-4.905583">
        <ele>1260.0</ele>
        <time>2018-09-16T11:41:45Z</time>
      </trkpt>
      <trkpt lat="40.256667" lon="-4.905583">
        <ele>1260.0</ele>
        <time>2018-09-16T11:41:46Z</time>
      </trkpt>
      <trkpt lat="40.256667" lon="-4.905600">
        <ele>1260.0</ele>
        <time>2018-09-16T11:41:47Z</time>
      </trkpt>
      <trkpt lat="40.256650" lon="-4.905600">
        <ele>1259.0</ele>
        <time>2018-09-16T11:41:48Z</time>
      </trkpt>
      <trkpt lat="40.256650" lon="-4.905600">
        <ele>1259.0</ele>
        <time>2018-09-16T11:41:49Z</time>
      </trkpt>
      <trkpt lat="40.256650" lon="-4.905617">
        <ele>1259.0</ele>
        <time>2018-09-16T11:41:50Z</time>
      </trkpt>
      <trkpt lat="40.256633" lon="-4.905633">
        <ele>1259.0</ele>
        <time>2018-09-16T11:41:51Z</time>
      </trkpt>
      <trkpt lat="40.256617" lon="-4.905650">
        <ele>1259.0</ele>
        <time>2018-09-16T11:41:52Z</time>
      </trkpt>
      <trkpt lat="40.256567" lon="-4.905683">
        <ele>1259.0</ele>
        <time>2018-09-16T11:41:53Z</time>
      </trkpt>
      <trkpt lat="40.256517" lon="-4.905750">
        <ele>1259.0</ele>
        <time>2018-09-16T11:41:54Z</time>
      </trkpt>
      <trkpt lat="40.256467" lon="-4.905817">
        <ele>1258.0</ele>
        <time>2018-09-16T11:41:55Z</time>
      </trkpt>
      <trkpt lat="40.256383" lon="-4.905883">
        <ele>1257.0</ele>
        <time>2018-09-16T11:41:56Z</time>
      </trkpt>
      <trkpt lat="40.256317" lon="-4.905950">
        <ele>1256.0</ele>
        <time>2018-09-16T11:41:57Z</time>
      </trkpt>
      <trkpt lat="40.256233" lon="-4.906017">
        <ele>1255.0</ele>
        <time>2018-09-16T11:41:58Z</time>
      </trkpt>
      <trkpt lat="40.256167" lon="-4.906083">
        <ele>1254.0</ele>
        <time>2018-09-16T11:41:59Z</time>
      </trkpt>
      <trkpt lat="40.256100" lon="-4.906133">
        <ele>1255.0</ele>
        <time>2018-09-16T11:42:00Z</time>
      </trkpt>
      <trkpt lat="40.256050" lon="-4.906167">
        <ele>1254.0</ele>
        <time>2018-09-16T11:42:01Z</time>
      </trkpt>
      <trkpt lat="40.256017" lon="-4.906200">
        <ele>1254.0</ele>
        <time>2018-09-16T11:42:02Z</time>
      </trkpt>
      <trkpt lat="40.255950" lon="-4.906217">
        <ele>1254.0</ele>
        <time>2018-09-16T11:42:03Z</time>
      </trkpt>
      <trkpt lat="40.255900" lon="-4.906267">
        <ele>1254.0</ele>
        <time>2018-09-16T11:42:04Z</time>
      </trkpt>
      <trkpt lat="40.255833" lon="-4.906333">
        <ele>1254.0</ele>
        <time>2018-09-16T11:42:05Z</time>
      </trkpt>
      <trkpt lat="40.255767" lon="-4.906367">
        <ele>1254.0</ele>
        <time>2018-09-16T11:42:06Z</time>
      </trkpt>
      <trkpt lat="40.255700" lon="-4.906367">
        <ele>1253.0</ele>
        <time>2018-09-16T11:42:07Z</time>
      </trkpt>
      <trkpt lat="40.255633" lon="-4.906367">
        <ele>1253.0</ele>
        <time>2018-09-16T11:42:08Z</time>
      </trkpt>
      <trkpt lat="40.255567" lon="-4.906383">
        <ele>1252.0</ele>
        <time>2018-09-16T11:42:09Z</time>
      </trkpt>
      <trkpt lat="40.255517" lon="-4.906383">
        <ele>1251.0</ele>
        <time>2018-09-16T11:42:10Z</time>
      </trkpt>
      <trkpt lat="40.255450" lon="-4.906400">
        <ele>1250.0</ele>
        <time>2018-09-16T11:42:11Z</time>
      </trkpt>
      <trkpt lat="40.255383" lon="-4.906400">
        <ele>1249.0</ele>
        <time>2018-09-16T11:42:12Z</time>
      </trkpt>
      <trkpt lat="40.255317" lon="-4.906400">
        <ele>1247.0</ele>
        <time>2018-09-16T11:42:13Z</time>
      </trkpt>
      <trkpt lat="40.255233" lon="-4.906417">
        <ele>1244.0</ele>
        <time>2018-09-16T11:42:14Z</time>
      </trkpt>
      <trkpt lat="40.255167" lon="-4.906433">
        <ele>1242.0</ele>
        <time>2018-09-16T11:42:15Z</time>
      </trkpt>
      <trkpt lat="40.255100" lon="-4.906433">
        <ele>1245.0</ele>
        <time>2018-09-16T11:42:16Z</time>
      </trkpt>
      <trkpt lat="40.255033" lon="-4.906433">
        <ele>1246.0</ele>
        <time>2018-09-16T11:42:17Z</time>
      </trkpt>
      <trkpt lat="40.254950" lon="-4.906450">
        <ele>1246.0</ele>
        <time>2018-09-16T11:42:18Z</time>
      </trkpt>
      <trkpt lat="40.254850" lon="-4.906483">
        <ele>1245.0</ele>
        <time>2018-09-16T11:42:19Z</time>
      </trkpt>
      <trkpt lat="40.254767" lon="-4.906483">
        <ele>1243.0</ele>
        <time>2018-09-16T11:42:20Z</time>
      </trkpt>
      <trkpt lat="40.254683" lon="-4.906483">
        <ele>1242.0</ele>
        <time>2018-09-16T11:42:21Z</time>
      </trkpt>
      <trkpt lat="40.254600" lon="-4.906500">
        <ele>1240.0</ele>
        <time>2018-09-16T11:42:22Z</time>
      </trkpt>
      <trkpt lat="40.254533" lon="-4.906517">
        <ele>1238.0</ele>
        <time>2018-09-16T11:42:23Z</time>
      </trkpt>
      <trkpt lat="40.254450" lon="-4.906567">
        <ele>1238.0</ele>
        <time>2018-09-16T11:42:24Z</time>
      </trkpt>
      <trkpt lat="40.254400" lon="-4.906600">
        <ele>1236.0</ele>
        <time>2018-09-16T11:42:25Z</time>
      </trkpt>
      <trkpt lat="40.254333" lon="-4.906633">
        <ele>1234.0</ele>
        <time>2018-09-16T11:42:26Z</time>
      </trkpt>
      <trkpt lat="40.254267" lon="-4.906633">
        <ele>1232.0</ele>
        <time>2018-09-16T11:42:27Z</time>
      </trkpt>
      <trkpt lat="40.254183" lon="-4.906633">
        <ele>1230.0</ele>
        <time>2018-09-16T11:42:28Z</time>
      </trkpt>
      <trkpt lat="40.254100" lon="-4.906650">
        <ele>1228.0</ele>
        <time>2018-09-16T11:42:29Z</time>
      </trkpt>
      <trkpt lat="40.254033" lon="-4.906683">
        <ele>1225.0</ele>
        <time>2018-09-16T11:42:30Z</time>
      </trkpt>
      <trkpt lat="40.253967" lon="-4.906733">
        <ele>1224.0</ele>
        <time>2018-09-16T11:42:31Z</time>
      </trkpt>
      <trkpt lat="40.253917" lon="-4.906783">
        <ele>1226.0</ele>
        <time>2018-09-16T11:42:32Z</time>
      </trkpt>
      <trkpt lat="40.253867" lon="-4.906817">
        <ele>1227.0</ele>
        <time>2018-09-16T11:42:33Z</time>
      </trkpt>
      <trkpt lat="40.253800" lon="-4.906850">
        <ele>1228.0</ele>
        <time>2018-09-16T11:42:34Z</time>
      </trkpt>
      <trkpt lat="40.253750" lon="-4.906900">
        <ele>1228.0</ele>
        <time>2018-09-16T11:42:35Z</time>
      </trkpt>
      <trkpt lat="40.253700" lon="-4.906933">
        <ele>1228.0</ele>
        <time>2018-09-16T11:42:36Z</time>
      </trkpt>
      <trkpt lat="40.253650" lon="-4.906983">
        <ele>1228.0</ele>
        <time>2018-09-16T11:42:37Z</time>
      </trkpt>
      <trkpt lat="40.253617" lon="-4.907017">
        <ele>1226.0</ele>
        <time>2018-09-16T11:42:38Z</time>
      </trkpt>
      <trkpt lat="40.253550" lon="-4.907050">
        <ele>1224.0</ele>
        <time>2018-09-16T11:42:39Z</time>
      </trkpt>
      <trkpt lat="40.253467" lon="-4.907050">
        <ele>1221.0</ele>
        <time>2018-09-16T11:42:40Z</time>
      </trkpt>
      <trkpt lat="40.253383" lon="-4.907033">
        <ele>1218.0</ele>
        <time>2018-09-16T11:42:41Z</time>
      </trkpt>
      <trkpt lat="40.253317" lon="-4.907017">
        <ele>1215.0</ele>
        <time>2018-09-16T11:42:42Z</time>
      </trkpt>
      <trkpt lat="40.253250" lon="-4.907000">
        <ele>1215.0</ele>
        <time>2018-09-16T11:42:43Z</time>
      </trkpt>
      <trkpt lat="40.253217" lon="-4.906983">
        <ele>1216.0</ele>
        <time>2018-09-16T11:42:44Z</time>
      </trkpt>
      <trkpt lat="40.253183" lon="-4.906967">
        <ele>1216.0</ele>
        <time>2018-09-16T11:42:45Z</time>
      </trkpt>
      <trkpt lat="40.253150" lon="-4.906933">
        <ele>1214.0</ele>
        <time>2018-09-16T11:42:46Z</time>
      </trkpt>
      <trkpt lat="40.253083" lon="-4.906917">
        <ele>1213.0</ele>
        <time>2018-09-16T11:42:47Z</time>
      </trkpt>
      <trkpt lat="40.253017" lon="-4.906900">
        <ele>1211.0</ele>
        <time>2018-09-16T11:42:48Z</time>
      </trkpt>
      <trkpt lat="40.252950" lon="-4.906900">
        <ele>1210.0</ele>
        <time>2018-09-16T11:42:49Z</time>
      </trkpt>
      <trkpt lat="40.252917" lon="-4.906867">
        <ele>1211.0</ele>
        <time>2018-09-16T11:42:50Z</time>
      </trkpt>
      <trkpt lat="40.252883" lon="-4.906833">
        <ele>1212.0</ele>
        <time>2018-09-16T11:42:51Z</time>
      </trkpt>
      <trkpt lat="40.252850" lon="-4.906783">
        <ele>1210.0</ele>
        <time>2018-09-16T11:42:52Z</time>
      </trkpt>
      <trkpt lat="40.252817" lon="-4.906733">
        <ele>1208.0</ele>
        <time>2018-09-16T11:42:53Z</time>
      </trkpt>
      <trkpt lat="40.252750" lon="-4.906717">
        <ele>1206.0</ele>
        <time>2018-09-16T11:42:54Z</time>
      </trkpt>
      <trkpt lat="40.252667" lon="-4.906700">
        <ele>1204.0</ele>
        <time>2018-09-16T11:42:55Z</time>
      </trkpt>
      <trkpt lat="40.252600" lon="-4.906717">
        <ele>1203.0</ele>
        <time>2018-09-16T11:42:56Z</time>
      </trkpt>
      <trkpt lat="40.252550" lon="-4.906733">
        <ele>1204.0</ele>
        <time>2018-09-16T11:42:57Z</time>
      </trkpt>
      <trkpt lat="40.252500" lon="-4.906733">
        <ele>1203.0</ele>
        <time>2018-09-16T11:42:58Z</time>
      </trkpt>
      <trkpt lat="40.252433" lon="-4.906750">
        <ele>1201.0</ele>
        <time>2018-09-16T11:42:59Z</time>
      </trkpt>
      <trkpt lat="40.252350" lon="-4.906750">
        <ele>1202.0</ele>
        <time>2018-09-16T11:43:00Z</time>
      </trkpt>
      <trkpt lat="40.252283" lon="-4.906733">
        <ele>1201.0</ele>
        <time>2018-09-16T11:43:01Z</time>
      </trkpt>
      <trkpt lat="40.252217" lon="-4.906717">
        <ele>1199.0</ele>
        <time>2018-09-16T11:43:02Z</time>
      </trkpt>
      <trkpt lat="40.252167" lon="-4.906700">
        <ele>1198.0</ele>
        <time>2018-09-16T11:43:03Z</time>
      </trkpt>
      <trkpt lat="40.252100" lon="-4.906683">
        <ele>1196.0</ele>
        <time>2018-09-16T11:43:04Z</time>
      </trkpt>
      <trkpt lat="40.252033" lon="-4.906667">
        <ele>1194.0</ele>
        <time>2018-09-16T11:43:05Z</time>
      </trkpt>
      <trkpt lat="40.251933" lon="-4.906633">
        <ele>1191.0</ele>
        <time>2018-09-16T11:43:06Z</time>
      </trkpt>
      <trkpt lat="40.251867" lon="-4.906583">
        <ele>1188.0</ele>
        <time>2018-09-16T11:43:07Z</time>
      </trkpt>
      <trkpt lat="40.251800" lon="-4.906567">
        <ele>1185.0</ele>
        <time>2018-09-16T11:43:08Z</time>
      </trkpt>
      <trkpt lat="40.251733" lon="-4.906550">
        <ele>1184.0</ele>
        <time>2018-09-16T11:43:09Z</time>
      </trkpt>
      <trkpt lat="40.251683" lon="-4.906533">
        <ele>1184.0</ele>
        <time>2018-09-16T11:43:10Z</time>
      </trkpt>
      <trkpt lat="40.251617" lon="-4.906517">
        <ele>1184.0</ele>
        <time>2018-09-16T11:43:11Z</time>
      </trkpt>
      <trkpt lat="40.251550" lon="-4.906500">
        <ele>1182.0</ele>
        <time>2018-09-16T11:43:12Z</time>
      </trkpt>
      <trkpt lat="40.251483" lon="-4.906467">
        <ele>1182.0</ele>
        <time>2018-09-16T11:43:13Z</time>
      </trkpt>
      <trkpt lat="40.251417" lon="-4.906417">
        <ele>1180.0</ele>
        <time>2018-09-16T11:43:14Z</time>
      </trkpt>
      <trkpt lat="40.251350" lon="-4.906383">
        <ele>1179.0</ele>
        <time>2018-09-16T11:43:15Z</time>
      </trkpt>
      <trkpt lat="40.251283" lon="-4.906350">
        <ele>1178.0</ele>
        <time>2018-09-16T11:43:16Z</time>
      </trkpt>
      <trkpt lat="40.251217" lon="-4.906317">
        <ele>1176.0</ele>
        <time>2018-09-16T11:43:17Z</time>
      </trkpt>
      <trkpt lat="40.251133" lon="-4.906267">
        <ele>1174.0</ele>
        <time>2018-09-16T11:43:18Z</time>
      </trkpt>
      <trkpt lat="40.251067" lon="-4.906233">
        <ele>1171.0</ele>
        <time>2018-09-16T11:43:19Z</time>
      </trkpt>
      <trkpt lat="40.250983" lon="-4.906200">
        <ele>1169.0</ele>
        <time>2018-09-16T11:43:20Z</time>
      </trkpt>
      <trkpt lat="40.250917" lon="-4.906200">
        <ele>1166.0</ele>
        <time>2018-09-16T11:43:21Z</time>
      </trkpt>
      <trkpt lat="40.250833" lon="-4.906200">
        <ele>1164.0</ele>
        <time>2018-09-16T11:43:22Z</time>
      </trkpt>
      <trkpt lat="40.250767" lon="-4.906183">
        <ele>1161.0</ele>
        <time>2018-09-16T11:43:23Z</time>
      </trkpt>
      <trkpt lat="40.250700" lon="-4.906150">
        <ele>1159.0</ele>
        <time>2018-09-16T11:43:24Z</time>
      </trkpt>
      <trkpt lat="40.250617" lon="-4.906117">
        <ele>1157.0</ele>
        <time>2018-09-16T11:43:25Z</time>
      </trkpt>
      <trkpt lat="40.250533" lon="-4.906083">
        <ele>1155.0</ele>
        <time>2018-09-16T11:43:26Z</time>
      </trkpt>
      <trkpt lat="40.250450" lon="-4.906067">
        <ele>1153.0</ele>
        <time>2018-09-16T11:43:27Z</time>
      </trkpt>
      <trkpt lat="40.250367" lon="-4.906033">
        <ele>1153.0</ele>
        <time>2018-09-16T11:43:28Z</time>
      </trkpt>
      <trkpt lat="40.250283" lon="-4.906000">
        <ele>1156.0</ele>
        <time>2018-09-16T11:43:29Z</time>
      </trkpt>
      <trkpt lat="40.250217" lon="-4.905967">
        <ele>1160.0</ele>
        <time>2018-09-16T11:43:30Z</time>
      </trkpt>
      <trkpt lat="40.250167" lon="-4.905933">
        <ele>1162.0</ele>
        <time>2018-09-16T11:43:31Z</time>
      </trkpt>
      <trkpt lat="40.250117" lon="-4.905900">
        <ele>1163.0</ele>
        <time>2018-09-16T11:43:32Z</time>
      </trkpt>
      <trkpt lat="40.250050" lon="-4.905883">
        <ele>1164.0</ele>
        <time>2018-09-16T11:43:33Z</time>
      </trkpt>
      <trkpt lat="40.249967" lon="-4.905867">
        <ele>1164.0</ele>
        <time>2018-09-16T11:43:34Z</time>
      </trkpt>
      <trkpt lat="40.249900" lon="-4.905883">
        <ele>1164.0</ele>
        <time>2018-09-16T11:43:35Z</time>
      </trkpt>
      <trkpt lat="40.249817" lon="-4.905917">
        <ele>1164.0</ele>
        <time>2018-09-16T11:43:36Z</time>
      </trkpt>
      <trkpt lat="40.249767" lon="-4.906000">
        <ele>1164.0</ele>
        <time>2018-09-16T11:43:37Z</time>
      </trkpt>
      <trkpt lat="40.249717" lon="-4.906083">
        <ele>1163.0</ele>
        <time>2018-09-16T11:43:38Z</time>
      </trkpt>
      <trkpt lat="40.249650" lon="-4.906150">
        <ele>1159.0</ele>
        <time>2018-09-16T11:43:39Z</time>
      </trkpt>
      <trkpt lat="40.249583" lon="-4.906167">
        <ele>1156.0</ele>
        <time>2018-09-16T11:43:40Z</time>
      </trkpt>
      <trkpt lat="40.249517" lon="-4.906183">
        <ele>1152.0</ele>
        <time>2018-09-16T11:43:41Z</time>
      </trkpt>
      <trkpt lat="40.249433" lon="-4.906183">
        <ele>1149.0</ele>
        <time>2018-09-16T11:43:42Z</time>
      </trkpt>
      <trkpt lat="40.249367" lon="-4.906183">
        <ele>1146.0</ele>
        <time>2018-09-16T11:43:43Z</time>
      </trkpt>
      <trkpt lat="40.249300" lon="-4.906167">
        <ele>1144.0</ele>
        <time>2018-09-16T11:43:44Z</time>
      </trkpt>
      <trkpt lat="40.249233" lon="-4.906150">
        <ele>1141.0</ele>
        <time>2018-09-16T11:43:45Z</time>
      </trkpt>
      <trkpt lat="40.249167" lon="-4.906133">
        <ele>1138.0</ele>
        <time>2018-09-16T11:43:46Z</time>
      </trkpt>
      <trkpt lat="40.249083" lon="-4.906117">
        <ele>1135.0</ele>
        <time>2018-09-16T11:43:47Z</time>
      </trkpt>
      <trkpt lat="40.249017" lon="-4.906100">
        <ele>1132.0</ele>
        <time>2018-09-16T11:43:48Z</time>
      </trkpt>
      <trkpt lat="40.248950" lon="-4.906067">
        <ele>1130.0</ele>
        <time>2018-09-16T11:43:49Z</time>
      </trkpt>
      <trkpt lat="40.248883" lon="-4.906033">
        <ele>1129.0</ele>
        <time>2018-09-16T11:43:50Z</time>
      </trkpt>
      <trkpt lat="40.248817" lon="-4.906000">
        <ele>1126.0</ele>
        <time>2018-09-16T11:43:51Z</time>
      </trkpt>
      <trkpt lat="40.248733" lon="-4.905950">
        <ele>1123.0</ele>
        <time>2018-09-16T11:43:52Z</time>
      </trkpt>
      <trkpt lat="40.248633" lon="-4.905900">
        <ele>1126.0</ele>
        <time>2018-09-16T11:43:53Z</time>
      </trkpt>
      <trkpt lat="40.248550" lon="-4.905850">
        <ele>1125.0</ele>
        <time>2018-09-16T11:43:54Z</time>
      </trkpt>
      <trkpt lat="40.248500" lon="-4.905833">
        <ele>1125.0</ele>
        <time>2018-09-16T11:43:55Z</time>
      </trkpt>
      <trkpt lat="40.248467" lon="-4.905800">
        <ele>1127.0</ele>
        <time>2018-09-16T11:43:56Z</time>
      </trkpt>
      <trkpt lat="40.248433" lon="-4.905767">
        <ele>1128.0</ele>
        <time>2018-09-16T11:43:57Z</time>
      </trkpt>
      <trkpt lat="40.248400" lon="-4.905717">
        <ele>1129.0</ele>
        <time>2018-09-16T11:43:58Z</time>
      </trkpt>
      <trkpt lat="40.248333" lon="-4.905683">
        <ele>1127.0</ele>
        <time>2018-09-16T11:43:59Z</time>
      </trkpt>
      <trkpt lat="40.248267" lon="-4.905633">
        <ele>1127.0</ele>
        <time>2018-09-16T11:44:00Z</time>
      </trkpt>
      <trkpt lat="40.248217" lon="-4.905583">
        <ele>1126.0</ele>
        <time>2018-09-16T11:44:01Z</time>
      </trkpt>
      <trkpt lat="40.248167" lon="-4.905550">
        <ele>1126.0</ele>
        <time>2018-09-16T11:44:02Z</time>
      </trkpt>
      <trkpt lat="40.248117" lon="-4.905517">
        <ele>1126.0</ele>
        <time>2018-09-16T11:44:03Z</time>
      </trkpt>
      <trkpt lat="40.248067" lon="-4.905467">
        <ele>1127.0</ele>
        <time>2018-09-16T11:44:04Z</time>
      </trkpt>
      <trkpt lat="40.248017" lon="-4.905400">
        <ele>1126.0</ele>
        <time>2018-09-16T11:44:05Z</time>
      </trkpt>
      <trkpt lat="40.247950" lon="-4.905317">
        <ele>1126.0</ele>
        <time>2018-09-16T11:44:06Z</time>
      </trkpt>
      <trkpt lat="40.247900" lon="-4.905250">
        <ele>1128.0</ele>
        <time>2018-09-16T11:44:07Z</time>
      </trkpt>
      <trkpt lat="40.247867" lon="-4.905200">
        <ele>1129.0</ele>
        <time>2018-09-16T11:44:08Z</time>
      </trkpt>
      <trkpt lat="40.247800" lon="-4.905150">
        <ele>1129.0</ele>
        <time>2018-09-16T11:44:09Z</time>
      </trkpt>
      <trkpt lat="40.247750" lon="-4.905117">
        <ele>1129.0</ele>
        <time>2018-09-16T11:44:10Z</time>
      </trkpt>
      <trkpt lat="40.247683" lon="-4.905067">
        <ele>1127.0</ele>
        <time>2018-09-16T11:44:11Z</time>
      </trkpt>
      <trkpt lat="40.247617" lon="-4.905033">
        <ele>1126.0</ele>
        <time>2018-09-16T11:44:12Z</time>
      </trkpt>
      <trkpt lat="40.247550" lon="-4.904983">
        <ele>1126.0</ele>
        <time>2018-09-16T11:44:13Z</time>
      </trkpt>
      <trkpt lat="40.247500" lon="-4.904950">
        <ele>1125.0</ele>
        <time>2018-09-16T11:44:14Z</time>
      </trkpt>
      <trkpt lat="40.247450" lon="-4.904883">
        <ele>1125.0</ele>
        <time>2018-09-16T11:44:15Z</time>
      </trkpt>
      <trkpt lat="40.247400" lon="-4.904833">
        <ele>1124.0</ele>
        <time>2018-09-16T11:44:16Z</time>
      </trkpt>
      <trkpt lat="40.247350" lon="-4.904767">
        <ele>1123.0</ele>
        <time>2018-09-16T11:44:17Z</time>
      </trkpt>
      <trkpt lat="40.247283" lon="-4.904733">
        <ele>1122.0</ele>
        <time>2018-09-16T11:44:18Z</time>
      </trkpt>
      <trkpt lat="40.247233" lon="-4.904700">
        <ele>1120.0</ele>
        <time>2018-09-16T11:44:19Z</time>
      </trkpt>
      <trkpt lat="40.247183" lon="-4.904667">
        <ele>1119.0</ele>
        <time>2018-09-16T11:44:20Z</time>
      </trkpt>
      <trkpt lat="40.247133" lon="-4.904633">
        <ele>1117.0</ele>
        <time>2018-09-16T11:44:21Z</time>
      </trkpt>
      <trkpt lat="40.247067" lon="-4.904583">
        <ele>1115.0</ele>
        <time>2018-09-16T11:44:22Z</time>
      </trkpt>
      <trkpt lat="40.247000" lon="-4.904533">
        <ele>1113.0</ele>
        <time>2018-09-16T11:44:23Z</time>
      </trkpt>
      <trkpt lat="40.246933" lon="-4.904483">
        <ele>1112.0</ele>
        <time>2018-09-16T11:44:24Z</time>
      </trkpt>
      <trkpt lat="40.246883" lon="-4.904450">
        <ele>1111.0</ele>
        <time>2018-09-16T11:44:25Z</time>
      </trkpt>
      <trkpt lat="40.246833" lon="-4.904417">
        <ele>1110.0</ele>
        <time>2018-09-16T11:44:26Z</time>
      </trkpt>
      <trkpt lat="40.246783" lon="-4.904367">
        <ele>1109.0</ele>
        <time>2018-09-16T11:44:27Z</time>
      </trkpt>
      <trkpt lat="40.246733" lon="-4.904317">
        <ele>1108.0</ele>
        <time>2018-09-16T11:44:28Z</time>
      </trkpt>
      <trkpt lat="40.246667" lon="-4.904267">
        <ele>1107.0</ele>
        <time>2018-09-16T11:44:29Z</time>
      </trkpt>
      <trkpt lat="40.246600" lon="-4.904233">
        <ele>1107.0</ele>
        <time>2018-09-16T11:44:30Z</time>
      </trkpt>
      <trkpt lat="40.246550" lon="-4.904200">
        <ele>1107.0</ele>
        <time>2018-09-16T11:44:31Z</time>
      </trkpt>
      <trkpt lat="40.246500" lon="-4.904183">
        <ele>1106.0</ele>
        <time>2018-09-16T11:44:32Z</time>
      </trkpt>
      <trkpt lat="40.246433" lon="-4.904167">
        <ele>1104.0</ele>
        <time>2018-09-16T11:44:33Z</time>
      </trkpt>
      <trkpt lat="40.246367" lon="-4.904150">
        <ele>1102.0</ele>
        <time>2018-09-16T11:44:34Z</time>
      </trkpt>
      <trkpt lat="40.246300" lon="-4.904133">
        <ele>1100.0</ele>
        <time>2018-09-16T11:44:35Z</time>
      </trkpt>
      <trkpt lat="40.246233" lon="-4.904117">
        <ele>1098.0</ele>
        <time>2018-09-16T11:44:36Z</time>
      </trkpt>
      <trkpt lat="40.246167" lon="-4.904100">
        <ele>1097.0</ele>
        <time>2018-09-16T11:44:37Z</time>
      </trkpt>
      <trkpt lat="40.246100" lon="-4.904083">
        <ele>1095.0</ele>
        <time>2018-09-16T11:44:38Z</time>
      </trkpt>
      <trkpt lat="40.246033" lon="-4.904067">
        <ele>1093.0</ele>
        <time>2018-09-16T11:44:39Z</time>
      </trkpt>
      <trkpt lat="40.245950" lon="-4.904033">
        <ele>1090.0</ele>
        <time>2018-09-16T11:44:40Z</time>
      </trkpt>
      <trkpt lat="40.245867" lon="-4.904000">
        <ele>1087.0</ele>
        <time>2018-09-16T11:44:41Z</time>
      </trkpt>
      <trkpt lat="40.245783" lon="-4.903967">
        <ele>1086.0</ele>
        <time>2018-09-16T11:44:42Z</time>
      </trkpt>
      <trkpt lat="40.245717" lon="-4.903950">
        <ele>1085.0</ele>
        <time>2018-09-16T11:44:43Z</time>
      </trkpt>
      <trkpt lat="40.245667" lon="-4.903917">
        <ele>1083.0</ele>
        <time>2018-09-16T11:44:44Z</time>
      </trkpt>
      <trkpt lat="40.245600" lon="-4.903900">
        <ele>1082.0</ele>
        <time>2018-09-16T11:44:45Z</time>
      </trkpt>
      <trkpt lat="40.245533" lon="-4.903867">
        <ele>1079.0</ele>
        <time>2018-09-16T11:44:46Z</time>
      </trkpt>
      <trkpt lat="40.245467" lon="-4.903833">
        <ele>1077.0</ele>
        <time>2018-09-16T11:44:47Z</time>
      </trkpt>
      <trkpt lat="40.245400" lon="-4.903783">
        <ele>1075.0</ele>
        <time>2018-09-16T11:44:48Z</time>
      </trkpt>
      <trkpt lat="40.245333" lon="-4.903733">
        <ele>1073.0</ele>
        <time>2018-09-16T11:44:49Z</time>
      </trkpt>
      <trkpt lat="40.245267" lon="-4.903683">
        <ele>1074.0</ele>
        <time>2018-09-16T11:44:50Z</time>
      </trkpt>
      <trkpt lat="40.245217" lon="-4.903650">
        <ele>1074.0</ele>
        <time>2018-09-16T11:44:51Z</time>
      </trkpt>
      <trkpt lat="40.245167" lon="-4.903600">
        <ele>1074.0</ele>
        <time>2018-09-16T11:44:52Z</time>
      </trkpt>
      <trkpt lat="40.245067" lon="-4.903550">
        <ele>1074.0</ele>
        <time>2018-09-16T11:44:53Z</time>
      </trkpt>
      <trkpt lat="40.244967" lon="-4.903533">
        <ele>1074.0</ele>
        <time>2018-09-16T11:44:54Z</time>
      </trkpt>
      <trkpt lat="40.244867" lon="-4.903533">
        <ele>1073.0</ele>
        <time>2018-09-16T11:44:55Z</time>
      </trkpt>
      <trkpt lat="40.244783" lon="-4.903533">
        <ele>1072.0</ele>
        <time>2018-09-16T11:44:56Z</time>
      </trkpt>
      <trkpt lat="40.244717" lon="-4.903533">
        <ele>1071.0</ele>
        <time>2018-09-16T11:44:57Z</time>
      </trkpt>
      <trkpt lat="40.244633" lon="-4.903550">
        <ele>1071.0</ele>
        <time>2018-09-16T11:44:58Z</time>
      </trkpt>
      <trkpt lat="40.244550" lon="-4.903550">
        <ele>1070.0</ele>
        <time>2018-09-16T11:44:59Z</time>
      </trkpt>
      <trkpt lat="40.244467" lon="-4.903550">
        <ele>1069.0</ele>
        <time>2018-09-16T11:45:00Z</time>
      </trkpt>
      <trkpt lat="40.244383" lon="-4.903550">
        <ele>1068.0</ele>
        <time>2018-09-16T11:45:01Z</time>
      </trkpt>
      <trkpt lat="40.244300" lon="-4.903550">
        <ele>1068.0</ele>
        <time>2018-09-16T11:45:02Z</time>
      </trkpt>
      <trkpt lat="40.244217" lon="-4.903550">
        <ele>1066.0</ele>
        <time>2018-09-16T11:45:03Z</time>
      </trkpt>
      <trkpt lat="40.244150" lon="-4.903550">
        <ele>1065.0</ele>
        <time>2018-09-16T11:45:04Z</time>
      </trkpt>
      <trkpt lat="40.244083" lon="-4.903550">
        <ele>1064.0</ele>
        <time>2018-09-16T11:45:05Z</time>
      </trkpt>
      <trkpt lat="40.244017" lon="-4.903550">
        <ele>1064.0</ele>
        <time>2018-09-16T11:45:06Z</time>
      </trkpt>
      <trkpt lat="40.243950" lon="-4.903550">
        <ele>1064.0</ele>
        <time>2018-09-16T11:45:07Z</time>
      </trkpt>
      <trkpt lat="40.243867" lon="-4.903567">
        <ele>1064.0</ele>
        <time>2018-09-16T11:45:08Z</time>
      </trkpt>
      <trkpt lat="40.243800" lon="-4.903567">
        <ele>1065.0</ele>
        <time>2018-09-16T11:45:09Z</time>
      </trkpt>
      <trkpt lat="40.243733" lon="-4.903583">
        <ele>1067.0</ele>
        <time>2018-09-16T11:45:10Z</time>
      </trkpt>
      <trkpt lat="40.243683" lon="-4.903567">
        <ele>1068.0</ele>
        <time>2018-09-16T11:45:11Z</time>
      </trkpt>
      <trkpt lat="40.243600" lon="-4.903567">
        <ele>1070.0</ele>
        <time>2018-09-16T11:45:12Z</time>
      </trkpt>
      <trkpt lat="40.243533" lon="-4.903550">
        <ele>1071.0</ele>
        <time>2018-09-16T11:45:13Z</time>
      </trkpt>
      <trkpt lat="40.243467" lon="-4.903550">
        <ele>1074.0</ele>
        <time>2018-09-16T11:45:14Z</time>
      </trkpt>
      <trkpt lat="40.243417" lon="-4.903550">
        <ele>1076.0</ele>
        <time>2018-09-16T11:45:15Z</time>
      </trkpt>
      <trkpt lat="40.243367" lon="-4.903583">
        <ele>1072.0</ele>
        <time>2018-09-16T11:45:16Z</time>
      </trkpt>
      <trkpt lat="40.243317" lon="-4.903650">
        <ele>1072.0</ele>
        <time>2018-09-16T11:45:17Z</time>
      </trkpt>
      <trkpt lat="40.243283" lon="-4.903750">
        <ele>1072.0</ele>
        <time>2018-09-16T11:45:18Z</time>
      </trkpt>
      <trkpt lat="40.243283" lon="-4.903850">
        <ele>1073.0</ele>
        <time>2018-09-16T11:45:19Z</time>
      </trkpt>
      <trkpt lat="40.243317" lon="-4.903967">
        <ele>1072.0</ele>
        <time>2018-09-16T11:45:20Z</time>
      </trkpt>
      <trkpt lat="40.243400" lon="-4.904050">
        <ele>1072.0</ele>
        <time>2018-09-16T11:45:21Z</time>
      </trkpt>
      <trkpt lat="40.243517" lon="-4.904100">
        <ele>1073.0</ele>
        <time>2018-09-16T11:45:22Z</time>
      </trkpt>
      <trkpt lat="40.243717" lon="-4.904017">
        <ele>1072.0</ele>
        <time>2018-09-16T11:45:24Z</time>
      </trkpt>
      <trkpt lat="40.243750" lon="-4.903917">
        <ele>1072.0</ele>
        <time>2018-09-16T11:45:25Z</time>
      </trkpt>
      <trkpt lat="40.243783" lon="-4.903817">
        <ele>1072.0</ele>
        <time>2018-09-16T11:45:26Z</time>
      </trkpt>
      <trkpt lat="40.243800" lon="-4.903733">
        <ele>1072.0</ele>
        <time>2018-09-16T11:45:27Z</time>
      </trkpt>
      <trkpt lat="40.243800" lon="-4.903667">
        <ele>1073.0</ele>
        <time>2018-09-16T11:45:28Z</time>
      </trkpt>
      <trkpt lat="40.243817" lon="-4.903600">
        <ele>1073.0</ele>
        <time>2018-09-16T11:45:29Z</time>
      </trkpt>
      <trkpt lat="40.243817" lon="-4.903533">
        <ele>1073.0</ele>
        <time>2018-09-16T11:45:30Z</time>
      </trkpt>
      <trkpt lat="40.243800" lon="-4.903467">
        <ele>1074.0</ele>
        <time>2018-09-16T11:45:31Z</time>
      </trkpt>
      <trkpt lat="40.243767" lon="-4.903400">
        <ele>1074.0</ele>
        <time>2018-09-16T11:45:32Z</time>
      </trkpt>
      <trkpt lat="40.243733" lon="-4.903350">
        <ele>1074.0</ele>
        <time>2018-09-16T11:45:33Z</time>
      </trkpt>
      <trkpt lat="40.243667" lon="-4.903333">
        <ele>1074.0</ele>
        <time>2018-09-16T11:45:34Z</time>
      </trkpt>
      <trkpt lat="40.243617" lon="-4.903300">
        <ele>1074.0</ele>
        <time>2018-09-16T11:45:35Z</time>
      </trkpt>
      <trkpt lat="40.243567" lon="-4.903300">
        <ele>1074.0</ele>
        <time>2018-09-16T11:45:36Z</time>
      </trkpt>
      <trkpt lat="40.243533" lon="-4.903283">
        <ele>1075.0</ele>
        <time>2018-09-16T11:45:37Z</time>
      </trkpt>
      <trkpt lat="40.243467" lon="-4.903283">
        <ele>1075.0</ele>
        <time>2018-09-16T11:45:38Z</time>
      </trkpt>
      <trkpt lat="40.243400" lon="-4.903267">
        <ele>1075.0</ele>
        <time>2018-09-16T11:45:39Z</time>
      </trkpt>
      <trkpt lat="40.243333" lon="-4.903267">
        <ele>1075.0</ele>
        <time>2018-09-16T11:45:40Z</time>
      </trkpt>
      <trkpt lat="40.243267" lon="-4.903300">
        <ele>1075.0</ele>
        <time>2018-09-16T11:45:41Z</time>
      </trkpt>
      <trkpt lat="40.243200" lon="-4.903333">
        <ele>1074.0</ele>
        <time>2018-09-16T11:45:42Z</time>
      </trkpt>
      <trkpt lat="40.243150" lon="-4.903400">
        <ele>1074.0</ele>
        <time>2018-09-16T11:45:43Z</time>
      </trkpt>
      <trkpt lat="40.243117" lon="-4.903483">
        <ele>1074.0</ele>
        <time>2018-09-16T11:45:44Z</time>
      </trkpt>
      <trkpt lat="40.243083" lon="-4.903583">
        <ele>1074.0</ele>
        <time>2018-09-16T11:45:45Z</time>
      </trkpt>
      <trkpt lat="40.243067" lon="-4.903700">
        <ele>1073.0</ele>
        <time>2018-09-16T11:45:46Z</time>
      </trkpt>
      <trkpt lat="40.243033" lon="-4.903817">
        <ele>1072.0</ele>
        <time>2018-09-16T11:45:47Z</time>
      </trkpt>
      <trkpt lat="40.243000" lon="-4.903933">
        <ele>1070.0</ele>
        <time>2018-09-16T11:45:48Z</time>
      </trkpt>
      <trkpt lat="40.242950" lon="-4.904017">
        <ele>1070.0</ele>
        <time>2018-09-16T11:45:49Z</time>
      </trkpt>
      <trkpt lat="40.242917" lon="-4.904117">
        <ele>1069.0</ele>
        <time>2018-09-16T11:45:50Z</time>
      </trkpt>
      <trkpt lat="40.242867" lon="-4.904200">
        <ele>1069.0</ele>
        <time>2018-09-16T11:45:51Z</time>
      </trkpt>
      <trkpt lat="40.242800" lon="-4.904283">
        <ele>1070.0</ele>
        <time>2018-09-16T11:45:52Z</time>
      </trkpt>
      <trkpt lat="40.242733" lon="-4.904367">
        <ele>1071.0</ele>
        <time>2018-09-16T11:45:53Z</time>
      </trkpt>
      <trkpt lat="40.242683" lon="-4.904417">
        <ele>1073.0</ele>
        <time>2018-09-16T11:45:54Z</time>
      </trkpt>
      <trkpt lat="40.242617" lon="-4.904467">
        <ele>1076.0</ele>
        <time>2018-09-16T11:45:55Z</time>
      </trkpt>
      <trkpt lat="40.242567" lon="-4.904533">
        <ele>1078.0</ele>
        <time>2018-09-16T11:45:56Z</time>
      </trkpt>
      <trkpt lat="40.242500" lon="-4.904583">
        <ele>1079.0</ele>
        <time>2018-09-16T11:45:57Z</time>
      </trkpt>
      <trkpt lat="40.242417" lon="-4.904600">
        <ele>1079.0</ele>
        <time>2018-09-16T11:45:58Z</time>
      </trkpt>
      <trkpt lat="40.242367" lon="-4.904567">
        <ele>1079.0</ele>
        <time>2018-09-16T11:45:59Z</time>
      </trkpt>
      <trkpt lat="40.242317" lon="-4.904483">
        <ele>1079.0</ele>
        <time>2018-09-16T11:46:00Z</time>
      </trkpt>
      <trkpt lat="40.242317" lon="-4.904383">
        <ele>1080.0</ele>
        <time>2018-09-16T11:46:01Z</time>
      </trkpt>
      <trkpt lat="40.242350" lon="-4.904300">
        <ele>1081.0</ele>
        <time>2018-09-16T11:46:02Z</time>
      </trkpt>
      <trkpt lat="40.242433" lon="-4.904250">
        <ele>1083.0</ele>
        <time>2018-09-16T11:46:03Z</time>
      </trkpt>
      <trkpt lat="40.242517" lon="-4.904250">
        <ele>1083.0</ele>
        <time>2018-09-16T11:46:04Z</time>
      </trkpt>
      <trkpt lat="40.242617" lon="-4.904300">
        <ele>1085.0</ele>
        <time>2018-09-16T11:46:05Z</time>
      </trkpt>
      <trkpt lat="40.242683" lon="-4.904383">
        <ele>1086.0</ele>
        <time>2018-09-16T11:46:06Z</time>
      </trkpt>
      <trkpt lat="40.242750" lon="-4.904467">
        <ele>1088.0</ele>
        <time>2018-09-16T11:46:07Z</time>
      </trkpt>
      <trkpt lat="40.242800" lon="-4.904583">
        <ele>1089.0</ele>
        <time>2018-09-16T11:46:08Z</time>
      </trkpt>
      <trkpt lat="40.242817" lon="-4.904717">
        <ele>1091.0</ele>
        <time>2018-09-16T11:46:09Z</time>
      </trkpt>
      <trkpt lat="40.242783" lon="-4.904833">
        <ele>1091.0</ele>
        <time>2018-09-16T11:46:10Z</time>
      </trkpt>
      <trkpt lat="40.242750" lon="-4.904917">
        <ele>1092.0</ele>
        <time>2018-09-16T11:46:11Z</time>
      </trkpt>
      <trkpt lat="40.242683" lon="-4.904933">
        <ele>1093.0</ele>
        <time>2018-09-16T11:46:12Z</time>
      </trkpt>
      <trkpt lat="40.242617" lon="-4.904883">
        <ele>1093.0</ele>
        <time>2018-09-16T11:46:13Z</time>
      </trkpt>
      <trkpt lat="40.242583" lon="-4.904800">
        <ele>1093.0</ele>
        <time>2018-09-16T11:46:14Z</time>
      </trkpt>
      <trkpt lat="40.242583" lon="-4.904700">
        <ele>1094.0</ele>
        <time>2018-09-16T11:46:15Z</time>
      </trkpt>
      <trkpt lat="40.242617" lon="-4.904617">
        <ele>1095.0</ele>
        <time>2018-09-16T11:46:16Z</time>
      </trkpt>
      <trkpt lat="40.242683" lon="-4.904550">
        <ele>1096.0</ele>
        <time>2018-09-16T11:46:17Z</time>
      </trkpt>
      <trkpt lat="40.242750" lon="-4.904533">
        <ele>1099.0</ele>
        <time>2018-09-16T11:46:18Z</time>
      </trkpt>
      <trkpt lat="40.242833" lon="-4.904517">
        <ele>1100.0</ele>
        <time>2018-09-16T11:46:19Z</time>
      </trkpt>
      <trkpt lat="40.242900" lon="-4.904517">
        <ele>1102.0</ele>
        <time>2018-09-16T11:46:20Z</time>
      </trkpt>
      <trkpt lat="40.242983" lon="-4.904483">
        <ele>1103.0</ele>
        <time>2018-09-16T11:46:21Z</time>
      </trkpt>
      <trkpt lat="40.243033" lon="-4.904433">
        <ele>1105.0</ele>
        <time>2018-09-16T11:46:22Z</time>
      </trkpt>
      <trkpt lat="40.243067" lon="-4.904333">
        <ele>1106.0</ele>
        <time>2018-09-16T11:46:23Z</time>
      </trkpt>
      <trkpt lat="40.243050" lon="-4.904267">
        <ele>1107.0</ele>
        <time>2018-09-16T11:46:24Z</time>
      </trkpt>
      <trkpt lat="40.242967" lon="-4.904217">
        <ele>1104.0</ele>
        <time>2018-09-16T11:46:25Z</time>
      </trkpt>
      <trkpt lat="40.242883" lon="-4.904250">
        <ele>1104.0</ele>
        <time>2018-09-16T11:46:26Z</time>
      </trkpt>
      <trkpt lat="40.242833" lon="-4.904333">
        <ele>1104.0</ele>
        <time>2018-09-16T11:46:27Z</time>
      </trkpt>
      <trkpt lat="40.242800" lon="-4.904467">
        <ele>1104.0</ele>
        <time>2018-09-16T11:46:28Z</time>
      </trkpt>
      <trkpt lat="40.242833" lon="-4.904583">
        <ele>1104.0</ele>
        <time>2018-09-16T11:46:29Z</time>
      </trkpt>
      <trkpt lat="40.242867" lon="-4.904700">
        <ele>1104.0</ele>
        <time>2018-09-16T11:46:30Z</time>
      </trkpt>
      <trkpt lat="40.242917" lon="-4.904800">
        <ele>1105.0</ele>
        <time>2018-09-16T11:46:31Z</time>
      </trkpt>
      <trkpt lat="40.243000" lon="-4.904867">
        <ele>1105.0</ele>
        <time>2018-09-16T11:46:32Z</time>
      </trkpt>
      <trkpt lat="40.243083" lon="-4.904900">
        <ele>1105.0</ele>
        <time>2018-09-16T11:46:33Z</time>
      </trkpt>
      <trkpt lat="40.243167" lon="-4.904867">
        <ele>1106.0</ele>
        <time>2018-09-16T11:46:34Z</time>
      </trkpt>
      <trkpt lat="40.243217" lon="-4.904800">
        <ele>1106.0</ele>
        <time>2018-09-16T11:46:35Z</time>
      </trkpt>
      <trkpt lat="40.243250" lon="-4.904683">
        <ele>1106.0</ele>
        <time>2018-09-16T11:46:36Z</time>
      </trkpt>
      <trkpt lat="40.243233" lon="-4.904600">
        <ele>1107.0</ele>
        <time>2018-09-16T11:46:37Z</time>
      </trkpt>
      <trkpt lat="40.243217" lon="-4.904517">
        <ele>1108.0</ele>
        <time>2018-09-16T11:46:38Z</time>
      </trkpt>
      <trkpt lat="40.243200" lon="-4.904467">
        <ele>1109.0</ele>
        <time>2018-09-16T11:46:39Z</time>
      </trkpt>
      <trkpt lat="40.243183" lon="-4.904400">
        <ele>1111.0</ele>
        <time>2018-09-16T11:46:40Z</time>
      </trkpt>
      <trkpt lat="40.243167" lon="-4.904333">
        <ele>1112.0</ele>
        <time>2018-09-16T11:46:41Z</time>
      </trkpt>
      <trkpt lat="40.243117" lon="-4.904267">
        <ele>1113.0</ele>
        <time>2018-09-16T11:46:42Z</time>
      </trkpt>
      <trkpt lat="40.243067" lon="-4.904217">
        <ele>1113.0</ele>
        <time>2018-09-16T11:46:43Z</time>
      </trkpt>
      <trkpt lat="40.243000" lon="-4.904217">
        <ele>1114.0</ele>
        <time>2018-09-16T11:46:44Z</time>
      </trkpt>
      <trkpt lat="40.242933" lon="-4.904250">
        <ele>1115.0</ele>
        <time>2018-09-16T11:46:45Z</time>
      </trkpt>
      <trkpt lat="40.242883" lon="-4.904333">
        <ele>1116.0</ele>
        <time>2018-09-16T11:46:46Z</time>
      </trkpt>
      <trkpt lat="40.242833" lon="-4.904433">
        <ele>1116.0</ele>
        <time>2018-09-16T11:46:47Z</time>
      </trkpt>
      <trkpt lat="40.242833" lon="-4.904533">
        <ele>1118.0</ele>
        <time>2018-09-16T11:46:48Z</time>
      </trkpt>
      <trkpt lat="40.242867" lon="-4.904633">
        <ele>1119.0</ele>
        <time>2018-09-16T11:46:49Z</time>
      </trkpt>
      <trkpt lat="40.242917" lon="-4.904717">
        <ele>1121.0</ele>
        <time>2018-09-16T11:46:50Z</time>
      </trkpt>
      <trkpt lat="40.242983" lon="-4.904800">
        <ele>1120.0</ele>
        <time>2018-09-16T11:46:51Z</time>
      </trkpt>
      <trkpt lat="40.243083" lon="-4.904867">
        <ele>1120.0</ele>
        <time>2018-09-16T11:46:52Z</time>
      </trkpt>
      <trkpt lat="40.243167" lon="-4.904900">
        <ele>1121.0</ele>
        <time>2018-09-16T11:46:53Z</time>
      </trkpt>
      <trkpt lat="40.243267" lon="-4.904883">
        <ele>1122.0</ele>
        <time>2018-09-16T11:46:54Z</time>
      </trkpt>
      <trkpt lat="40.243367" lon="-4.904817">
        <ele>1122.0</ele>
        <time>2018-09-16T11:46:55Z</time>
      </trkpt>
      <trkpt lat="40.243433" lon="-4.904717">
        <ele>1122.0</ele>
        <time>2018-09-16T11:46:56Z</time>
      </trkpt>
      <trkpt lat="40.243467" lon="-4.904617">
        <ele>1122.0</ele>
        <time>2018-09-16T11:46:57Z</time>
      </trkpt>
      <trkpt lat="40.243483" lon="-4.904533">
        <ele>1124.0</ele>
        <time>2018-09-16T11:46:58Z</time>
      </trkpt>
      <trkpt lat="40.243517" lon="-4.904467">
        <ele>1127.0</ele>
        <time>2018-09-16T11:46:59Z</time>
      </trkpt>
      <trkpt lat="40.243550" lon="-4.904383">
        <ele>1129.0</ele>
        <time>2018-09-16T11:47:00Z</time>
      </trkpt>
      <trkpt lat="40.243567" lon="-4.904283">
        <ele>1132.0</ele>
        <time>2018-09-16T11:47:01Z</time>
      </trkpt>
      <trkpt lat="40.243567" lon="-4.904200">
        <ele>1134.0</ele>
        <time>2018-09-16T11:47:02Z</time>
      </trkpt>
      <trkpt lat="40.243567" lon="-4.904117">
        <ele>1138.0</ele>
        <time>2018-09-16T11:47:03Z</time>
      </trkpt>
      <trkpt lat="40.243533" lon="-4.904033">
        <ele>1140.0</ele>
        <time>2018-09-16T11:47:04Z</time>
      </trkpt>
      <trkpt lat="40.243517" lon="-4.903967">
        <ele>1144.0</ele>
        <time>2018-09-16T11:47:05Z</time>
      </trkpt>
      <trkpt lat="40.243467" lon="-4.903917">
        <ele>1148.0</ele>
        <time>2018-09-16T11:47:06Z</time>
      </trkpt>
      <trkpt lat="40.243417" lon="-4.903883">
        <ele>1151.0</ele>
        <time>2018-09-16T11:47:07Z</time>
      </trkpt>
      <trkpt lat="40.243367" lon="-4.903883">
        <ele>1153.0</ele>
        <time>2018-09-16T11:47:08Z</time>
      </trkpt>
      <trkpt lat="40.243300" lon="-4.903900">
        <ele>1154.0</ele>
        <time>2018-09-16T11:47:09Z</time>
      </trkpt>
      <trkpt lat="40.243267" lon="-4.903967">
        <ele>1155.0</ele>
        <time>2018-09-16T11:47:10Z</time>
      </trkpt>
      <trkpt lat="40.243233" lon="-4.904067">
        <ele>1156.0</ele>
        <time>2018-09-16T11:47:11Z</time>
      </trkpt>
      <trkpt lat="40.243267" lon="-4.904183">
        <ele>1157.0</ele>
        <time>2018-09-16T11:47:12Z</time>
      </trkpt>
      <trkpt lat="40.243317" lon="-4.904283">
        <ele>1158.0</ele>
        <time>2018-09-16T11:47:13Z</time>
      </trkpt>
      <trkpt lat="40.243417" lon="-4.904350">
        <ele>1158.0</ele>
        <time>2018-09-16T11:47:14Z</time>
      </trkpt>
      <trkpt lat="40.243533" lon="-4.904350">
        <ele>1157.0</ele>
        <time>2018-09-16T11:47:15Z</time>
      </trkpt>
      <trkpt lat="40.243633" lon="-4.904333">
        <ele>1157.0</ele>
        <time>2018-09-16T11:47:16Z</time>
      </trkpt>
      <trkpt lat="40.243717" lon="-4.904283">
        <ele>1157.0</ele>
        <time>2018-09-16T11:47:17Z</time>
      </trkpt>
      <trkpt lat="40.243800" lon="-4.904233">
        <ele>1159.0</ele>
        <time>2018-09-16T11:47:18Z</time>
      </trkpt>
      <trkpt lat="40.243850" lon="-4.904183">
        <ele>1161.0</ele>
        <time>2018-09-16T11:47:19Z</time>
      </trkpt>
      <trkpt lat="40.243917" lon="-4.904117">
        <ele>1164.0</ele>
        <time>2018-09-16T11:47:20Z</time>
      </trkpt>
      <trkpt lat="40.243967" lon="-4.904050">
        <ele>1165.0</ele>
        <time>2018-09-16T11:47:21Z</time>
      </trkpt>
      <trkpt lat="40.244000" lon="-4.903967">
        <ele>1167.0</ele>
        <time>2018-09-16T11:47:22Z</time>
      </trkpt>
      <trkpt lat="40.244033" lon="-4.903900">
        <ele>1169.0</ele>
        <time>2018-09-16T11:47:23Z</time>
      </trkpt>
      <trkpt lat="40.244067" lon="-4.903817">
        <ele>1171.0</ele>
        <time>2018-09-16T11:47:24Z</time>
      </trkpt>
      <trkpt lat="40.244117" lon="-4.903733">
        <ele>1175.0</ele>
        <time>2018-09-16T11:47:25Z</time>
      </trkpt>
      <trkpt lat="40.244150" lon="-4.903667">
        <ele>1179.0</ele>
        <time>2018-09-16T11:47:26Z</time>
      </trkpt>
      <trkpt lat="40.244183" lon="-4.903600">
        <ele>1181.0</ele>
        <time>2018-09-16T11:47:27Z</time>
      </trkpt>
      <trkpt lat="40.244200" lon="-4.903533">
        <ele>1183.0</ele>
        <time>2018-09-16T11:47:28Z</time>
      </trkpt>
      <trkpt lat="40.244217" lon="-4.903450">
        <ele>1184.0</ele>
        <time>2018-09-16T11:47:29Z</time>
      </trkpt>
      <trkpt lat="40.244200" lon="-4.903367">
        <ele>1184.0</ele>
        <time>2018-09-16T11:47:30Z</time>
      </trkpt>
      <trkpt lat="40.244150" lon="-4.903317">
        <ele>1184.0</ele>
        <time>2018-09-16T11:47:31Z</time>
      </trkpt>
      <trkpt lat="40.244067" lon="-4.903317">
        <ele>1184.0</ele>
        <time>2018-09-16T11:47:32Z</time>
      </trkpt>
      <trkpt lat="40.244017" lon="-4.903383">
        <ele>1184.0</ele>
        <time>2018-09-16T11:47:33Z</time>
      </trkpt>
      <trkpt lat="40.243983" lon="-4.903483">
        <ele>1184.0</ele>
        <time>2018-09-16T11:47:34Z</time>
      </trkpt>
      <trkpt lat="40.243983" lon="-4.903617">
        <ele>1185.0</ele>
        <time>2018-09-16T11:47:35Z</time>
      </trkpt>
      <trkpt lat="40.244050" lon="-4.903733">
        <ele>1185.0</ele>
        <time>2018-09-16T11:47:36Z</time>
      </trkpt>
      <trkpt lat="40.244117" lon="-4.903833">
        <ele>1185.0</ele>
        <time>2018-09-16T11:47:37Z</time>
      </trkpt>
      <trkpt lat="40.244200" lon="-4.903883">
        <ele>1186.0</ele>
        <time>2018-09-16T11:47:38Z</time>
      </trkpt>
      <trkpt lat="40.244300" lon="-4.903883">
        <ele>1187.0</ele>
        <time>2018-09-16T11:47:39Z</time>
      </trkpt>
      <trkpt lat="40.244367" lon="-4.903833">
        <ele>1189.0</ele>
        <time>2018-09-16T11:47:40Z</time>
      </trkpt>
      <trkpt lat="40.244433" lon="-4.903750">
        <ele>1187.0</ele>
        <time>2018-09-16T11:47:41Z</time>
      </trkpt>
      <trkpt lat="40.244433" lon="-4.903667">
        <ele>1188.0</ele>
        <time>2018-09-16T11:47:42Z</time>
      </trkpt>
      <trkpt lat="40.244400" lon="-4.903600">
        <ele>1188.0</ele>
        <time>2018-09-16T11:47:43Z</time>
      </trkpt>
      <trkpt lat="40.244333" lon="-4.903567">
        <ele>1188.0</ele>
        <time>2018-09-16T11:47:44Z</time>
      </trkpt>
      <trkpt lat="40.244250" lon="-4.903633">
        <ele>1189.0</ele>
        <time>2018-09-16T11:47:45Z</time>
      </trkpt>
      <trkpt lat="40.244167" lon="-4.903717">
        <ele>1189.0</ele>
        <time>2018-09-16T11:47:46Z</time>
      </trkpt>
      <trkpt lat="40.244117" lon="-4.903833">
        <ele>1190.0</ele>
        <time>2018-09-16T11:47:47Z</time>
      </trkpt>
      <trkpt lat="40.244117" lon="-4.903950">
        <ele>1190.0</ele>
        <time>2018-09-16T11:47:48Z</time>
      </trkpt>
      <trkpt lat="40.244150" lon="-4.904050">
        <ele>1191.0</ele>
        <time>2018-09-16T11:47:49Z</time>
      </trkpt>
      <trkpt lat="40.244183" lon="-4.904150">
        <ele>1192.0</ele>
        <time>2018-09-16T11:47:50Z</time>
      </trkpt>
      <trkpt lat="40.244250" lon="-4.904250">
        <ele>1193.0</ele>
        <time>2018-09-16T11:47:51Z</time>
      </trkpt>
      <trkpt lat="40.244317" lon="-4.904317">
        <ele>1194.0</ele>
        <time>2018-09-16T11:47:52Z</time>
      </trkpt>
      <trkpt lat="40.244400" lon="-4.904317">
        <ele>1195.0</ele>
        <time>2018-09-16T11:47:53Z</time>
      </trkpt>
      <trkpt lat="40.244500" lon="-4.904250">
        <ele>1195.0</ele>
        <time>2018-09-16T11:47:54Z</time>
      </trkpt>
      <trkpt lat="40.244567" lon="-4.904133">
        <ele>1196.0</ele>
        <time>2018-09-16T11:47:55Z</time>
      </trkpt>
      <trkpt lat="40.244567" lon="-4.904017">
        <ele>1196.0</ele>
        <time>2018-09-16T11:47:56Z</time>
      </trkpt>
      <trkpt lat="40.244533" lon="-4.903950">
        <ele>1196.0</ele>
        <time>2018-09-16T11:47:57Z</time>
      </trkpt>
      <trkpt lat="40.244483" lon="-4.903900">
        <ele>1196.0</ele>
        <time>2018-09-16T11:47:58Z</time>
      </trkpt>
      <trkpt lat="40.244450" lon="-4.903850">
        <ele>1196.0</ele>
        <time>2018-09-16T11:47:59Z</time>
      </trkpt>
      <trkpt lat="40.244417" lon="-4.903800">
        <ele>1197.0</ele>
        <time>2018-09-16T11:48:00Z</time>
      </trkpt>
      <trkpt lat="40.244367" lon="-4.903750">
        <ele>1199.0</ele>
        <time>2018-09-16T11:48:01Z</time>
      </trkpt>
      <trkpt lat="40.244300" lon="-4.903717">
        <ele>1200.0</ele>
        <time>2018-09-16T11:48:02Z</time>
      </trkpt>
      <trkpt lat="40.244217" lon="-4.903750">
        <ele>1200.0</ele>
        <time>2018-09-16T11:48:03Z</time>
      </trkpt>
      <trkpt lat="40.244150" lon="-4.903817">
        <ele>1200.0</ele>
        <time>2018-09-16T11:48:04Z</time>
      </trkpt>
      <trkpt lat="40.244100" lon="-4.903900">
        <ele>1201.0</ele>
        <time>2018-09-16T11:48:05Z</time>
      </trkpt>
      <trkpt lat="40.244083" lon="-4.904000">
        <ele>1201.0</ele>
        <time>2018-09-16T11:48:06Z</time>
      </trkpt>
      <trkpt lat="40.244083" lon="-4.904117">
        <ele>1202.0</ele>
        <time>2018-09-16T11:48:07Z</time>
      </trkpt>
      <trkpt lat="40.244133" lon="-4.904250">
        <ele>1202.0</ele>
        <time>2018-09-16T11:48:08Z</time>
      </trkpt>
      <trkpt lat="40.244217" lon="-4.904333">
        <ele>1203.0</ele>
        <time>2018-09-16T11:48:09Z</time>
      </trkpt>
      <trkpt lat="40.244300" lon="-4.904383">
        <ele>1203.0</ele>
        <time>2018-09-16T11:48:10Z</time>
      </trkpt>
      <trkpt lat="40.244383" lon="-4.904400">
        <ele>1204.0</ele>
        <time>2018-09-16T11:48:11Z</time>
      </trkpt>
      <trkpt lat="40.244467" lon="-4.904333">
        <ele>1205.0</ele>
        <time>2018-09-16T11:48:12Z</time>
      </trkpt>
      <trkpt lat="40.244517" lon="-4.904233">
        <ele>1205.0</ele>
        <time>2018-09-16T11:48:13Z</time>
      </trkpt>
      <trkpt lat="40.244533" lon="-4.904133">
        <ele>1207.0</ele>
        <time>2018-09-16T11:48:14Z</time>
      </trkpt>
      <trkpt lat="40.244533" lon="-4.904033">
        <ele>1210.0</ele>
        <time>2018-09-16T11:48:15Z</time>
      </trkpt>
      <trkpt lat="40.244533" lon="-4.903967">
        <ele>1215.0</ele>
        <time>2018-09-16T11:48:16Z</time>
      </trkpt>
      <trkpt lat="40.244533" lon="-4.903933">
        <ele>1219.0</ele>
        <time>2018-09-16T11:48:17Z</time>
      </trkpt>
      <trkpt lat="40.244533" lon="-4.903883">
        <ele>1216.0</ele>
        <time>2018-09-16T11:48:18Z</time>
      </trkpt>
      <trkpt lat="40.244533" lon="-4.903800">
        <ele>1217.0</ele>
        <time>2018-09-16T11:48:19Z</time>
      </trkpt>
      <trkpt lat="40.244567" lon="-4.903683">
        <ele>1217.0</ele>
        <time>2018-09-16T11:48:20Z</time>
      </trkpt>
      <trkpt lat="40.244650" lon="-4.903600">
        <ele>1217.0</ele>
        <time>2018-09-16T11:48:21Z</time>
      </trkpt>
      <trkpt lat="40.244750" lon="-4.903567">
        <ele>1217.0</ele>
        <time>2018-09-16T11:48:22Z</time>
      </trkpt>
      <trkpt lat="40.244850" lon="-4.903583">
        <ele>1218.0</ele>
        <time>2018-09-16T11:48:23Z</time>
      </trkpt>
      <trkpt lat="40.244950" lon="-4.903633">
        <ele>1218.0</ele>
        <time>2018-09-16T11:48:24Z</time>
      </trkpt>
      <trkpt lat="40.245033" lon="-4.903733">
        <ele>1218.0</ele>
        <time>2018-09-16T11:48:25Z</time>
      </trkpt>
      <trkpt lat="40.245067" lon="-4.903850">
        <ele>1219.0</ele>
        <time>2018-09-16T11:48:26Z</time>
      </trkpt>
      <trkpt lat="40.245083" lon="-4.903967">
        <ele>1220.0</ele>
        <time>2018-09-16T11:48:27Z</time>
      </trkpt>
      <trkpt lat="40.245067" lon="-4.904083">
        <ele>1221.0</ele>
        <time>2018-09-16T11:48:28Z</time>
      </trkpt>
      <trkpt lat="40.245000" lon="-4.904317">
        <ele>1221.0</ele>
        <time>2018-09-16T11:48:30Z</time>
      </trkpt>
      <trkpt lat="40.244967" lon="-4.904433">
        <ele>1222.0</ele>
        <time>2018-09-16T11:48:31Z</time>
      </trkpt>
      <trkpt lat="40.244933" lon="-4.904483">
        <ele>1222.0</ele>
        <time>2018-09-16T11:48:32Z</time>
      </trkpt>
      <trkpt lat="40.244867" lon="-4.904533">
        <ele>1223.0</ele>
        <time>2018-09-16T11:48:33Z</time>
      </trkpt>
      <trkpt lat="40.244817" lon="-4.904567">
        <ele>1223.0</ele>
        <time>2018-09-16T11:48:34Z</time>
      </trkpt>
      <trkpt lat="40.244733" lon="-4.904583">
        <ele>1224.0</ele>
        <time>2018-09-16T11:48:35Z</time>
      </trkpt>
      <trkpt lat="40.244667" lon="-4.904617">
        <ele>1225.0</ele>
        <time>2018-09-16T11:48:36Z</time>
      </trkpt>
      <trkpt lat="40.244600" lon="-4.904667">
        <ele>1226.0</ele>
        <time>2018-09-16T11:48:37Z</time>
      </trkpt>
      <trkpt lat="40.244533" lon="-4.904700">
        <ele>1228.0</ele>
        <time>2018-09-16T11:48:38Z</time>
      </trkpt>
      <trkpt lat="40.244467" lon="-4.904700">
        <ele>1231.0</ele>
        <time>2018-09-16T11:48:39Z</time>
      </trkpt>
      <trkpt lat="40.244417" lon="-4.904700">
        <ele>1233.0</ele>
        <time>2018-09-16T11:48:40Z</time>
      </trkpt>
      <trkpt lat="40.244367" lon="-4.904700">
        <ele>1233.0</ele>
        <time>2018-09-16T11:48:41Z</time>
      </trkpt>
      <trkpt lat="40.244317" lon="-4.904717">
        <ele>1234.0</ele>
        <time>2018-09-16T11:48:42Z</time>
      </trkpt>
      <trkpt lat="40.244250" lon="-4.904700">
        <ele>1234.0</ele>
        <time>2018-09-16T11:48:43Z</time>
      </trkpt>
      <trkpt lat="40.244200" lon="-4.904667">
        <ele>1234.0</ele>
        <time>2018-09-16T11:48:44Z</time>
      </trkpt>
      <trkpt lat="40.244167" lon="-4.904583">
        <ele>1234.0</ele>
        <time>2018-09-16T11:48:45Z</time>
      </trkpt>
      <trkpt lat="40.244133" lon="-4.904483">
        <ele>1234.0</ele>
        <time>2018-09-16T11:48:46Z</time>
      </trkpt>
      <trkpt lat="40.244133" lon="-4.904383">
        <ele>1233.0</ele>
        <time>2018-09-16T11:48:47Z</time>
      </trkpt>
      <trkpt lat="40.244167" lon="-4.904283">
        <ele>1233.0</ele>
        <time>2018-09-16T11:48:48Z</time>
      </trkpt>
      <trkpt lat="40.244233" lon="-4.904217">
        <ele>1233.0</ele>
        <time>2018-09-16T11:48:49Z</time>
      </trkpt>
      <trkpt lat="40.244300" lon="-4.904167">
        <ele>1234.0</ele>
        <time>2018-09-16T11:48:50Z</time>
      </trkpt>
      <trkpt lat="40.244383" lon="-4.904133">
        <ele>1235.0</ele>
        <time>2018-09-16T11:48:51Z</time>
      </trkpt>
      <trkpt lat="40.244467" lon="-4.904083">
        <ele>1236.0</ele>
        <time>2018-09-16T11:48:52Z</time>
      </trkpt>
      <trkpt lat="40.244550" lon="-4.904050">
        <ele>1237.0</ele>
        <time>2018-09-16T11:48:53Z</time>
      </trkpt>
      <trkpt lat="40.244617" lon="-4.903983">
        <ele>1238.0</ele>
        <time>2018-09-16T11:48:54Z</time>
      </trkpt>
      <trkpt lat="40.244683" lon="-4.903917">
        <ele>1239.0</ele>
        <time>2018-09-16T11:48:55Z</time>
      </trkpt>
      <trkpt lat="40.244750" lon="-4.903850">
        <ele>1240.0</ele>
        <time>2018-09-16T11:48:56Z</time>
      </trkpt>
      <trkpt lat="40.244833" lon="-4.903783">
        <ele>1240.0</ele>
        <time>2018-09-16T11:48:57Z</time>
      </trkpt>
      <trkpt lat="40.244917" lon="-4.903733">
        <ele>1240.0</ele>
        <time>2018-09-16T11:48:58Z</time>
      </trkpt>
      <trkpt lat="40.244983" lon="-4.903667">
        <ele>1240.0</ele>
        <time>2018-09-16T11:48:59Z</time>
      </trkpt>
      <trkpt lat="40.245067" lon="-4.903600">
        <ele>1240.0</ele>
        <time>2018-09-16T11:49:00Z</time>
      </trkpt>
      <trkpt lat="40.245150" lon="-4.903567">
        <ele>1241.0</ele>
        <time>2018-09-16T11:49:01Z</time>
      </trkpt>
      <trkpt lat="40.245250" lon="-4.903517">
        <ele>1241.0</ele>
        <time>2018-09-16T11:49:02Z</time>
      </trkpt>
      <trkpt lat="40.245333" lon="-4.903483">
        <ele>1241.0</ele>
        <time>2018-09-16T11:49:03Z</time>
      </trkpt>
      <trkpt lat="40.245417" lon="-4.903450">
        <ele>1242.0</ele>
        <time>2018-09-16T11:49:04Z</time>
      </trkpt>
      <trkpt lat="40.245483" lon="-4.903417">
        <ele>1243.0</ele>
        <time>2018-09-16T11:49:05Z</time>
      </trkpt>
      <trkpt lat="40.245550" lon="-4.903383">
        <ele>1244.0</ele>
        <time>2018-09-16T11:49:06Z</time>
      </trkpt>
      <trkpt lat="40.245617" lon="-4.903333">
        <ele>1245.0</ele>
        <time>2018-09-16T11:49:07Z</time>
      </trkpt>
      <trkpt lat="40.245683" lon="-4.903283">
        <ele>1245.0</ele>
        <time>2018-09-16T11:49:08Z</time>
      </trkpt>
      <trkpt lat="40.245767" lon="-4.903233">
        <ele>1244.0</ele>
        <time>2018-09-16T11:49:09Z</time>
      </trkpt>
      <trkpt lat="40.245833" lon="-4.903183">
        <ele>1244.0</ele>
        <time>2018-09-16T11:49:10Z</time>
      </trkpt>
      <trkpt lat="40.245917" lon="-4.903150">
        <ele>1244.0</ele>
        <time>2018-09-16T11:49:11Z</time>
      </trkpt>
      <trkpt lat="40.246183" lon="-4.903000">
        <ele>1244.0</ele>
        <time>2018-09-16T11:49:14Z</time>
      </trkpt>
      <trkpt lat="40.246267" lon="-4.902950">
        <ele>1244.0</ele>
        <time>2018-09-16T11:49:15Z</time>
      </trkpt>
      <trkpt lat="40.246433" lon="-4.902867">
        <ele>1246.0</ele>
        <time>2018-09-16T11:49:17Z</time>
      </trkpt>
      <trkpt lat="40.246600" lon="-4.902767">
        <ele>1248.0</ele>
        <time>2018-09-16T11:49:19Z</time>
      </trkpt>
      <trkpt lat="40.246667" lon="-4.902700">
        <ele>1247.0</ele>
        <time>2018-09-16T11:49:20Z</time>
      </trkpt>
      <trkpt lat="40.246750" lon="-4.902633">
        <ele>1247.0</ele>
        <time>2018-09-16T11:49:21Z</time>
      </trkpt>
      <trkpt lat="40.246817" lon="-4.902567">
        <ele>1247.0</ele>
        <time>2018-09-16T11:49:22Z</time>
      </trkpt>
      <trkpt lat="40.246900" lon="-4.902517">
        <ele>1248.0</ele>
        <time>2018-09-16T11:49:23Z</time>
      </trkpt>
      <trkpt lat="40.246983" lon="-4.902467">
        <ele>1249.0</ele>
        <time>2018-09-16T11:49:24Z</time>
      </trkpt>
      <trkpt lat="40.247083" lon="-4.902400">
        <ele>1250.0</ele>
        <time>2018-09-16T11:49:25Z</time>
      </trkpt>
      <trkpt lat="40.247150" lon="-4.902367">
        <ele>1255.0</ele>
        <time>2018-09-16T11:49:26Z</time>
      </trkpt>
      <trkpt lat="40.247233" lon="-4.902333">
        <ele>1257.0</ele>
        <time>2018-09-16T11:49:27Z</time>
      </trkpt>
      <trkpt lat="40.247317" lon="-4.902283">
        <ele>1259.0</ele>
        <time>2018-09-16T11:49:28Z</time>
      </trkpt>
      <trkpt lat="40.247400" lon="-4.902217">
        <ele>1260.0</ele>
        <time>2018-09-16T11:49:29Z</time>
      </trkpt>
      <trkpt lat="40.247483" lon="-4.902150">
        <ele>1261.0</ele>
        <time>2018-09-16T11:49:30Z</time>
      </trkpt>
      <trkpt lat="40.247583" lon="-4.902083">
        <ele>1260.0</ele>
        <time>2018-09-16T11:49:31Z</time>
      </trkpt>
      <trkpt lat="40.247667" lon="-4.902017">
        <ele>1260.0</ele>
        <time>2018-09-16T11:49:32Z</time>
      </trkpt>
      <trkpt lat="40.247767" lon="-4.901967">
        <ele>1261.0</ele>
        <time>2018-09-16T11:49:33Z</time>
      </trkpt>
      <trkpt lat="40.247833" lon="-4.901883">
        <ele>1260.0</ele>
        <time>2018-09-16T11:49:34Z</time>
      </trkpt>
      <trkpt lat="40.247883" lon="-4.901783">
        <ele>1260.0</ele>
        <time>2018-09-16T11:49:35Z</time>
      </trkpt>
      <trkpt lat="40.247850" lon="-4.901567">
        <ele>1258.0</ele>
        <time>2018-09-16T11:49:38Z</time>
      </trkpt>
      <trkpt lat="40.247783" lon="-4.901583">
        <ele>1257.0</ele>
        <time>2018-09-16T11:49:39Z</time>
      </trkpt>
      <trkpt lat="40.247733" lon="-4.901633">
        <ele>1255.0</ele>
        <time>2018-09-16T11:49:40Z</time>
      </trkpt>
      <trkpt lat="40.247683" lon="-4.901717">
        <ele>1254.0</ele>
        <time>2018-09-16T11:49:41Z</time>
      </trkpt>
      <trkpt lat="40.247650" lon="-4.901817">
        <ele>1252.0</ele>
        <time>2018-09-16T11:49:42Z</time>
      </trkpt>
      <trkpt lat="40.247633" lon="-4.901900">
        <ele>1250.0</ele>
        <time>2018-09-16T11:49:43Z</time>
      </trkpt>
      <trkpt lat="40.247600" lon="-4.901967">
        <ele>1250.0</ele>
        <time>2018-09-16T11:49:44Z</time>
      </trkpt>
      <trkpt lat="40.247567" lon="-4.902033">
        <ele>1250.0</ele>
        <time>2018-09-16T11:49:45Z</time>
      </trkpt>
      <trkpt lat="40.247567" lon="-4.902083">
        <ele>1250.0</ele>
        <time>2018-09-16T11:49:46Z</time>
      </trkpt>
      <trkpt lat="40.247567" lon="-4.902150">
        <ele>1251.0</ele>
        <time>2018-09-16T11:49:47Z</time>
      </trkpt>
      <trkpt lat="40.247550" lon="-4.902233">
        <ele>1252.0</ele>
        <time>2018-09-16T11:49:48Z</time>
      </trkpt>
      <trkpt lat="40.247533" lon="-4.902300">
        <ele>1253.0</ele>
        <time>2018-09-16T11:49:49Z</time>
      </trkpt>
      <trkpt lat="40.247500" lon="-4.902333">
        <ele>1254.0</ele>
        <time>2018-09-16T11:49:50Z</time>
      </trkpt>
      <trkpt lat="40.247433" lon="-4.902333">
        <ele>1255.0</ele>
        <time>2018-09-16T11:49:51Z</time>
      </trkpt>
      <trkpt lat="40.247383" lon="-4.902267">
        <ele>1256.0</ele>
        <time>2018-09-16T11:49:52Z</time>
      </trkpt>
      <trkpt lat="40.247350" lon="-4.902167">
        <ele>1257.0</ele>
        <time>2018-09-16T11:49:53Z</time>
      </trkpt>
      <trkpt lat="40.247350" lon="-4.902050">
        <ele>1260.0</ele>
        <time>2018-09-16T11:49:54Z</time>
      </trkpt>
      <trkpt lat="40.247400" lon="-4.901933">
        <ele>1263.0</ele>
        <time>2018-09-16T11:49:55Z</time>
      </trkpt>
      <trkpt lat="40.247467" lon="-4.901867">
        <ele>1265.0</ele>
        <time>2018-09-16T11:49:56Z</time>
      </trkpt>
      <trkpt lat="40.247567" lon="-4.901800">
        <ele>1266.0</ele>
        <time>2018-09-16T11:49:57Z</time>
      </trkpt>
      <trkpt lat="40.247683" lon="-4.901783">
        <ele>1267.0</ele>
        <time>2018-09-16T11:49:58Z</time>
      </trkpt>
      <trkpt lat="40.247783" lon="-4.901817">
        <ele>1267.0</ele>
        <time>2018-09-16T11:49:59Z</time>
      </trkpt>
      <trkpt lat="40.247883" lon="-4.901883">
        <ele>1268.0</ele>
        <time>2018-09-16T11:50:00Z</time>
      </trkpt>
      <trkpt lat="40.247950" lon="-4.901967">
        <ele>1270.0</ele>
        <time>2018-09-16T11:50:01Z</time>
      </trkpt>
      <trkpt lat="40.247983" lon="-4.902083">
        <ele>1272.0</ele>
        <time>2018-09-16T11:50:02Z</time>
      </trkpt>
      <trkpt lat="40.247983" lon="-4.902167">
        <ele>1275.0</ele>
        <time>2018-09-16T11:50:03Z</time>
      </trkpt>
      <trkpt lat="40.247967" lon="-4.902250">
        <ele>1279.0</ele>
        <time>2018-09-16T11:50:04Z</time>
      </trkpt>
      <trkpt lat="40.247950" lon="-4.902300">
        <ele>1281.0</ele>
        <time>2018-09-16T11:50:05Z</time>
      </trkpt>
      <trkpt lat="40.247900" lon="-4.902333">
        <ele>1284.0</ele>
        <time>2018-09-16T11:50:06Z</time>
      </trkpt>
      <trkpt lat="40.247850" lon="-4.902333">
        <ele>1286.0</ele>
        <time>2018-09-16T11:50:07Z</time>
      </trkpt>
      <trkpt lat="40.247800" lon="-4.902300">
        <ele>1288.0</ele>
        <time>2018-09-16T11:50:08Z</time>
      </trkpt>
      <trkpt lat="40.247750" lon="-4.902217">
        <ele>1291.0</ele>
        <time>2018-09-16T11:50:09Z</time>
      </trkpt>
      <trkpt lat="40.247767" lon="-4.902117">
        <ele>1294.0</ele>
        <time>2018-09-16T11:50:10Z</time>
      </trkpt>
      <trkpt lat="40.247817" lon="-4.902000">
        <ele>1296.0</ele>
        <time>2018-09-16T11:50:11Z</time>
      </trkpt>
      <trkpt lat="40.247917" lon="-4.901933">
        <ele>1297.0</ele>
        <time>2018-09-16T11:50:12Z</time>
      </trkpt>
      <trkpt lat="40.248050" lon="-4.901883">
        <ele>1298.0</ele>
        <time>2018-09-16T11:50:13Z</time>
      </trkpt>
      <trkpt lat="40.248150" lon="-4.901883">
        <ele>1300.0</ele>
        <time>2018-09-16T11:50:14Z</time>
      </trkpt>
      <trkpt lat="40.248267" lon="-4.901917">
        <ele>1304.0</ele>
        <time>2018-09-16T11:50:15Z</time>
      </trkpt>
      <trkpt lat="40.248350" lon="-4.901983">
        <ele>1307.0</ele>
        <time>2018-09-16T11:50:16Z</time>
      </trkpt>
      <trkpt lat="40.248400" lon="-4.902067">
        <ele>1309.0</ele>
        <time>2018-09-16T11:50:17Z</time>
      </trkpt>
      <trkpt lat="40.248433" lon="-4.902150">
        <ele>1312.0</ele>
        <time>2018-09-16T11:50:18Z</time>
      </trkpt>
      <trkpt lat="40.248433" lon="-4.902233">
        <ele>1314.0</ele>
        <time>2018-09-16T11:50:19Z</time>
      </trkpt>
      <trkpt lat="40.248417" lon="-4.902300">
        <ele>1316.0</ele>
        <time>2018-09-16T11:50:20Z</time>
      </trkpt>
      <trkpt lat="40.248367" lon="-4.902350">
        <ele>1317.0</ele>
        <time>2018-09-16T11:50:21Z</time>
      </trkpt>
      <trkpt lat="40.248300" lon="-4.902350">
        <ele>1319.0</ele>
        <time>2018-09-16T11:50:22Z</time>
      </trkpt>
      <trkpt lat="40.248233" lon="-4.902300">
        <ele>1322.0</ele>
        <time>2018-09-16T11:50:23Z</time>
      </trkpt>
      <trkpt lat="40.248200" lon="-4.902183">
        <ele>1324.0</ele>
        <time>2018-09-16T11:50:24Z</time>
      </trkpt>
      <trkpt lat="40.248200" lon="-4.902067">
        <ele>1326.0</ele>
        <time>2018-09-16T11:50:25Z</time>
      </trkpt>
      <trkpt lat="40.248233" lon="-4.901933">
        <ele>1330.0</ele>
        <time>2018-09-16T11:50:26Z</time>
      </trkpt>
      <trkpt lat="40.248300" lon="-4.901850">
        <ele>1334.0</ele>
        <time>2018-09-16T11:50:27Z</time>
      </trkpt>
      <trkpt lat="40.248383" lon="-4.901783">
        <ele>1336.0</ele>
        <time>2018-09-16T11:50:28Z</time>
      </trkpt>
      <trkpt lat="40.248500" lon="-4.901750">
        <ele>1337.0</ele>
        <time>2018-09-16T11:50:29Z</time>
      </trkpt>
      <trkpt lat="40.248617" lon="-4.901750">
        <ele>1338.0</ele>
        <time>2018-09-16T11:50:30Z</time>
      </trkpt>
      <trkpt lat="40.248733" lon="-4.901767">
        <ele>1340.0</ele>
        <time>2018-09-16T11:50:31Z</time>
      </trkpt>
      <trkpt lat="40.248817" lon="-4.901817">
        <ele>1343.0</ele>
        <time>2018-09-16T11:50:32Z</time>
      </trkpt>
      <trkpt lat="40.248867" lon="-4.901883">
        <ele>1345.0</ele>
        <time>2018-09-16T11:50:33Z</time>
      </trkpt>
      <trkpt lat="40.248883" lon="-4.901967">
        <ele>1348.0</ele>
        <time>2018-09-16T11:50:34Z</time>
      </trkpt>
      <trkpt lat="40.248867" lon="-4.902033">
        <ele>1349.0</ele>
        <time>2018-09-16T11:50:35Z</time>
      </trkpt>
      <trkpt lat="40.248833" lon="-4.902100">
        <ele>1350.0</ele>
        <time>2018-09-16T11:50:36Z</time>
      </trkpt>
      <trkpt lat="40.248783" lon="-4.902133">
        <ele>1352.0</ele>
        <time>2018-09-16T11:50:37Z</time>
      </trkpt>
      <trkpt lat="40.248717" lon="-4.902133">
        <ele>1354.0</ele>
        <time>2018-09-16T11:50:38Z</time>
      </trkpt>
      <trkpt lat="40.248650" lon="-4.902083">
        <ele>1355.0</ele>
        <time>2018-09-16T11:50:39Z</time>
      </trkpt>
      <trkpt lat="40.248600" lon="-4.901967">
        <ele>1356.0</ele>
        <time>2018-09-16T11:50:40Z</time>
      </trkpt>
      <trkpt lat="40.248600" lon="-4.901833">
        <ele>1359.0</ele>
        <time>2018-09-16T11:50:41Z</time>
      </trkpt>
      <trkpt lat="40.248667" lon="-4.901717">
        <ele>1361.0</ele>
        <time>2018-09-16T11:50:42Z</time>
      </trkpt>
      <trkpt lat="40.248767" lon="-4.901667">
        <ele>1363.0</ele>
        <time>2018-09-16T11:50:43Z</time>
      </trkpt>
      <trkpt lat="40.248900" lon="-4.901650">
        <ele>1364.0</ele>
        <time>2018-09-16T11:50:44Z</time>
      </trkpt>
      <trkpt lat="40.249000" lon="-4.901683">
        <ele>1364.0</ele>
        <time>2018-09-16T11:50:45Z</time>
      </trkpt>
      <trkpt lat="40.249100" lon="-4.901733">
        <ele>1367.0</ele>
        <time>2018-09-16T11:50:46Z</time>
      </trkpt>
      <trkpt lat="40.249150" lon="-4.901800">
        <ele>1370.0</ele>
        <time>2018-09-16T11:50:47Z</time>
      </trkpt>
      <trkpt lat="40.249167" lon="-4.901867">
        <ele>1372.0</ele>
        <time>2018-09-16T11:50:48Z</time>
      </trkpt>
      <trkpt lat="40.249183" lon="-4.901967">
        <ele>1374.0</ele>
        <time>2018-09-16T11:50:49Z</time>
      </trkpt>
      <trkpt lat="40.249150" lon="-4.902050">
        <ele>1376.0</ele>
        <time>2018-09-16T11:50:50Z</time>
      </trkpt>
      <trkpt lat="40.249100" lon="-4.902100">
        <ele>1378.0</ele>
        <time>2018-09-16T11:50:51Z</time>
      </trkpt>
      <trkpt lat="40.249033" lon="-4.902100">
        <ele>1379.0</ele>
        <time>2018-09-16T11:50:52Z</time>
      </trkpt>
      <trkpt lat="40.248967" lon="-4.902050">
        <ele>1380.0</ele>
        <time>2018-09-16T11:50:53Z</time>
      </trkpt>
      <trkpt lat="40.248917" lon="-4.901950">
        <ele>1382.0</ele>
        <time>2018-09-16T11:50:54Z</time>
      </trkpt>
      <trkpt lat="40.248883" lon="-4.901833">
        <ele>1386.0</ele>
        <time>2018-09-16T11:50:55Z</time>
      </trkpt>
      <trkpt lat="40.248900" lon="-4.901733">
        <ele>1389.0</ele>
        <time>2018-09-16T11:50:56Z</time>
      </trkpt>
      <trkpt lat="40.248933" lon="-4.901633">
        <ele>1392.0</ele>
        <time>2018-09-16T11:50:57Z</time>
      </trkpt>
      <trkpt lat="40.248983" lon="-4.901550">
        <ele>1394.0</ele>
        <time>2018-09-16T11:50:58Z</time>
      </trkpt>
      <trkpt lat="40.249067" lon="-4.901483">
        <ele>1395.0</ele>
        <time>2018-09-16T11:50:59Z</time>
      </trkpt>
      <trkpt lat="40.249167" lon="-4.901433">
        <ele>1395.0</ele>
        <time>2018-09-16T11:51:00Z</time>
      </trkpt>
      <trkpt lat="40.249267" lon="-4.901433">
        <ele>1396.0</ele>
        <time>2018-09-16T11:51:01Z</time>
      </trkpt>
      <trkpt lat="40.249367" lon="-4.901483">
        <ele>1398.0</ele>
        <time>2018-09-16T11:51:02Z</time>
      </trkpt>
      <trkpt lat="40.249433" lon="-4.901550">
        <ele>1400.0</ele>
        <time>2018-09-16T11:51:03Z</time>
      </trkpt>
      <trkpt lat="40.249450" lon="-4.901633">
        <ele>1402.0</ele>
        <time>2018-09-16T11:51:04Z</time>
      </trkpt>
      <trkpt lat="40.249450" lon="-4.901700">
        <ele>1404.0</ele>
        <time>2018-09-16T11:51:05Z</time>
      </trkpt>
      <trkpt lat="40.249417" lon="-4.901750">
        <ele>1405.0</ele>
        <time>2018-09-16T11:51:06Z</time>
      </trkpt>
      <trkpt lat="40.249350" lon="-4.901767">
        <ele>1407.0</ele>
        <time>2018-09-16T11:51:07Z</time>
      </trkpt>
      <trkpt lat="40.249283" lon="-4.901733">
        <ele>1409.0</ele>
        <time>2018-09-16T11:51:08Z</time>
      </trkpt>
      <trkpt lat="40.249233" lon="-4.901667">
        <ele>1413.0</ele>
        <time>2018-09-16T11:51:09Z</time>
      </trkpt>
      <trkpt lat="40.249217" lon="-4.901550">
        <ele>1415.0</ele>
        <time>2018-09-16T11:51:10Z</time>
      </trkpt>
      <trkpt lat="40.249233" lon="-4.901433">
        <ele>1418.0</ele>
        <time>2018-09-16T11:51:11Z</time>
      </trkpt>
      <trkpt lat="40.249300" lon="-4.901333">
        <ele>1420.0</ele>
        <time>2018-09-16T11:51:12Z</time>
      </trkpt>
      <trkpt lat="40.249400" lon="-4.901283">
        <ele>1422.0</ele>
        <time>2018-09-16T11:51:13Z</time>
      </trkpt>
      <trkpt lat="40.249500" lon="-4.901283">
        <ele>1422.0</ele>
        <time>2018-09-16T11:51:14Z</time>
      </trkpt>
      <trkpt lat="40.249600" lon="-4.901333">
        <ele>1423.0</ele>
        <time>2018-09-16T11:51:15Z</time>
      </trkpt>
      <trkpt lat="40.249667" lon="-4.901417">
        <ele>1424.0</ele>
        <time>2018-09-16T11:51:16Z</time>
      </trkpt>
      <trkpt lat="40.249700" lon="-4.901517">
        <ele>1425.0</ele>
        <time>2018-09-16T11:51:17Z</time>
      </trkpt>
      <trkpt lat="40.249683" lon="-4.901617">
        <ele>1427.0</ele>
        <time>2018-09-16T11:51:18Z</time>
      </trkpt>
      <trkpt lat="40.249633" lon="-4.901700">
        <ele>1429.0</ele>
        <time>2018-09-16T11:51:19Z</time>
      </trkpt>
      <trkpt lat="40.249583" lon="-4.901733">
        <ele>1433.0</ele>
        <time>2018-09-16T11:51:20Z</time>
      </trkpt>
      <trkpt lat="40.249533" lon="-4.901733">
        <ele>1438.0</ele>
        <time>2018-09-16T11:51:21Z</time>
      </trkpt>
      <trkpt lat="40.249483" lon="-4.901683">
        <ele>1441.0</ele>
        <time>2018-09-16T11:51:22Z</time>
      </trkpt>
      <trkpt lat="40.249450" lon="-4.901600">
        <ele>1445.0</ele>
        <time>2018-09-16T11:51:23Z</time>
      </trkpt>
      <trkpt lat="40.249400" lon="-4.901500">
        <ele>1447.0</ele>
        <time>2018-09-16T11:51:24Z</time>
      </trkpt>
      <trkpt lat="40.249333" lon="-4.901450">
        <ele>1449.0</ele>
        <time>2018-09-16T11:51:25Z</time>
      </trkpt>
      <trkpt lat="40.249183" lon="-4.901617">
        <ele>1448.0</ele>
        <time>2018-09-16T11:51:28Z</time>
      </trkpt>
      <trkpt lat="40.249183" lon="-4.901717">
        <ele>1448.0</ele>
        <time>2018-09-16T11:51:29Z</time>
      </trkpt>
      <trkpt lat="40.249233" lon="-4.901817">
        <ele>1449.0</ele>
        <time>2018-09-16T11:51:30Z</time>
      </trkpt>
      <trkpt lat="40.249300" lon="-4.901900">
        <ele>1449.0</ele>
        <time>2018-09-16T11:51:31Z</time>
      </trkpt>
      <trkpt lat="40.249383" lon="-4.901967">
        <ele>1448.0</ele>
        <time>2018-09-16T11:51:32Z</time>
      </trkpt>
      <trkpt lat="40.249500" lon="-4.902017">
        <ele>1449.0</ele>
        <time>2018-09-16T11:51:33Z</time>
      </trkpt>
      <trkpt lat="40.249583" lon="-4.902033">
        <ele>1451.0</ele>
        <time>2018-09-16T11:51:34Z</time>
      </trkpt>
      <trkpt lat="40.249667" lon="-4.902017">
        <ele>1454.0</ele>
        <time>2018-09-16T11:51:35Z</time>
      </trkpt>
      <trkpt lat="40.249733" lon="-4.901983">
        <ele>1456.0</ele>
        <time>2018-09-16T11:51:36Z</time>
      </trkpt>
      <trkpt lat="40.249800" lon="-4.901967">
        <ele>1459.0</ele>
        <time>2018-09-16T11:51:37Z</time>
      </trkpt>
      <trkpt lat="40.249950" lon="-4.901783">
        <ele>1456.0</ele>
        <time>2018-09-16T11:51:39Z</time>
      </trkpt>
      <trkpt lat="40.249967" lon="-4.901650">
        <ele>1457.0</ele>
        <time>2018-09-16T11:51:40Z</time>
      </trkpt>
      <trkpt lat="40.249817" lon="-4.901483">
        <ele>1459.0</ele>
        <time>2018-09-16T11:51:43Z</time>
      </trkpt>
      <trkpt lat="40.249767" lon="-4.901583">
        <ele>1460.0</ele>
        <time>2018-09-16T11:51:44Z</time>
      </trkpt>
      <trkpt lat="40.249783" lon="-4.901700">
        <ele>1461.0</ele>
        <time>2018-09-16T11:51:45Z</time>
      </trkpt>
      <trkpt lat="40.249833" lon="-4.901800">
        <ele>1461.0</ele>
        <time>2018-09-16T11:51:46Z</time>
      </trkpt>
      <trkpt lat="40.249950" lon="-4.901850">
        <ele>1463.0</ele>
        <time>2018-09-16T11:51:47Z</time>
      </trkpt>
      <trkpt lat="40.250067" lon="-4.901833">
        <ele>1465.0</ele>
        <time>2018-09-16T11:51:48Z</time>
      </trkpt>
      <trkpt lat="40.250167" lon="-4.901783">
        <ele>1466.0</ele>
        <time>2018-09-16T11:51:49Z</time>
      </trkpt>
      <trkpt lat="40.250233" lon="-4.901700">
        <ele>1468.0</ele>
        <time>2018-09-16T11:51:50Z</time>
      </trkpt>
      <trkpt lat="40.250317" lon="-4.901400">
        <ele>1470.0</ele>
        <time>2018-09-16T11:51:53Z</time>
      </trkpt>
      <trkpt lat="40.250267" lon="-4.901300">
        <ele>1471.0</ele>
        <time>2018-09-16T11:51:54Z</time>
      </trkpt>
      <trkpt lat="40.250200" lon="-4.901233">
        <ele>1472.0</ele>
        <time>2018-09-16T11:51:55Z</time>
      </trkpt>
      <trkpt lat="40.250050" lon="-4.901267">
        <ele>1473.0</ele>
        <time>2018-09-16T11:51:57Z</time>
      </trkpt>
      <trkpt lat="40.250000" lon="-4.901350">
        <ele>1474.0</ele>
        <time>2018-09-16T11:51:58Z</time>
      </trkpt>
      <trkpt lat="40.250067" lon="-4.901583">
        <ele>1474.0</ele>
        <time>2018-09-16T11:52:00Z</time>
      </trkpt>
      <trkpt lat="40.250133" lon="-4.901667">
        <ele>1474.0</ele>
        <time>2018-09-16T11:52:01Z</time>
      </trkpt>
      <trkpt lat="40.250250" lon="-4.901733">
        <ele>1476.0</ele>
        <time>2018-09-16T11:52:02Z</time>
      </trkpt>
      <trkpt lat="40.250333" lon="-4.901733">
        <ele>1477.0</ele>
        <time>2018-09-16T11:52:03Z</time>
      </trkpt>
      <trkpt lat="40.250400" lon="-4.901700">
        <ele>1478.0</ele>
        <time>2018-09-16T11:52:04Z</time>
      </trkpt>
      <trkpt lat="40.250467" lon="-4.901600">
        <ele>1480.0</ele>
        <time>2018-09-16T11:52:05Z</time>
      </trkpt>
      <trkpt lat="40.250517" lon="-4.901517">
        <ele>1481.0</ele>
        <time>2018-09-16T11:52:06Z</time>
      </trkpt>
      <trkpt lat="40.250533" lon="-4.901417">
        <ele>1482.0</ele>
        <time>2018-09-16T11:52:07Z</time>
      </trkpt>
      <trkpt lat="40.250517" lon="-4.901317">
        <ele>1483.0</ele>
        <time>2018-09-16T11:52:08Z</time>
      </trkpt>
      <trkpt lat="40.250467" lon="-4.901233">
        <ele>1483.0</ele>
        <time>2018-09-16T11:52:09Z</time>
      </trkpt>
      <trkpt lat="40.250383" lon="-4.901183">
        <ele>1483.0</ele>
        <time>2018-09-16T11:52:10Z</time>
      </trkpt>
      <trkpt lat="40.250317" lon="-4.901217">
        <ele>1484.0</ele>
        <time>2018-09-16T11:52:11Z</time>
      </trkpt>
      <trkpt lat="40.250267" lon="-4.901267">
        <ele>1484.0</ele>
        <time>2018-09-16T11:52:12Z</time>
      </trkpt>
      <trkpt lat="40.250267" lon="-4.901383">
        <ele>1485.0</ele>
        <time>2018-09-16T11:52:13Z</time>
      </trkpt>
      <trkpt lat="40.250317" lon="-4.901500">
        <ele>1485.0</ele>
        <time>2018-09-16T11:52:14Z</time>
      </trkpt>
      <trkpt lat="40.250383" lon="-4.901583">
        <ele>1486.0</ele>
        <time>2018-09-16T11:52:15Z</time>
      </trkpt>
      <trkpt lat="40.250483" lon="-4.901633">
        <ele>1487.0</ele>
        <time>2018-09-16T11:52:16Z</time>
      </trkpt>
      <trkpt lat="40.250550" lon="-4.901617">
        <ele>1488.0</ele>
        <time>2018-09-16T11:52:17Z</time>
      </trkpt>
      <trkpt lat="40.250617" lon="-4.901200">
        <ele>1494.0</ele>
        <time>2018-09-16T11:52:21Z</time>
      </trkpt>
      <trkpt lat="40.250550" lon="-4.901117">
        <ele>1495.0</ele>
        <time>2018-09-16T11:52:22Z</time>
      </trkpt>
      <trkpt lat="40.250483" lon="-4.901067">
        <ele>1496.0</ele>
        <time>2018-09-16T11:52:23Z</time>
      </trkpt>
      <trkpt lat="40.250400" lon="-4.901100">
        <ele>1497.0</ele>
        <time>2018-09-16T11:52:24Z</time>
      </trkpt>
      <trkpt lat="40.250350" lon="-4.901150">
        <ele>1497.0</ele>
        <time>2018-09-16T11:52:25Z</time>
      </trkpt>
      <trkpt lat="40.250350" lon="-4.901267">
        <ele>1498.0</ele>
        <time>2018-09-16T11:52:26Z</time>
      </trkpt>
      <trkpt lat="40.250400" lon="-4.901367">
        <ele>1499.0</ele>
        <time>2018-09-16T11:52:27Z</time>
      </trkpt>
      <trkpt lat="40.250483" lon="-4.901417">
        <ele>1500.0</ele>
        <time>2018-09-16T11:52:28Z</time>
      </trkpt>
      <trkpt lat="40.250600" lon="-4.901433">
        <ele>1501.0</ele>
        <time>2018-09-16T11:52:29Z</time>
      </trkpt>
      <trkpt lat="40.250700" lon="-4.901350">
        <ele>1502.0</ele>
        <time>2018-09-16T11:52:30Z</time>
      </trkpt>
      <trkpt lat="40.250733" lon="-4.901233">
        <ele>1503.0</ele>
        <time>2018-09-16T11:52:31Z</time>
      </trkpt>
      <trkpt lat="40.250733" lon="-4.901100">
        <ele>1505.0</ele>
        <time>2018-09-16T11:52:32Z</time>
      </trkpt>
      <trkpt lat="40.250683" lon="-4.901000">
        <ele>1506.0</ele>
        <time>2018-09-16T11:52:33Z</time>
      </trkpt>
      <trkpt lat="40.250600" lon="-4.900933">
        <ele>1507.0</ele>
        <time>2018-09-16T11:52:34Z</time>
      </trkpt>
      <trkpt lat="40.250500" lon="-4.900950">
        <ele>1508.0</ele>
        <time>2018-09-16T11:52:35Z</time>
      </trkpt>
      <trkpt lat="40.250450" lon="-4.901000">
        <ele>1509.0</ele>
        <time>2018-09-16T11:52:36Z</time>
      </trkpt>
      <trkpt lat="40.250417" lon="-4.901067">
        <ele>1510.0</ele>
        <time>2018-09-16T11:52:37Z</time>
      </trkpt>
      <trkpt lat="40.250433" lon="-4.901167">
        <ele>1511.0</ele>
        <time>2018-09-16T11:52:38Z</time>
      </trkpt>
      <trkpt lat="40.250483" lon="-4.901233">
        <ele>1512.0</ele>
        <time>2018-09-16T11:52:39Z</time>
      </trkpt>
      <trkpt lat="40.250567" lon="-4.901300">
        <ele>1513.0</ele>
        <time>2018-09-16T11:52:40Z</time>
      </trkpt>
      <trkpt lat="40.250650" lon="-4.901350">
        <ele>1514.0</ele>
        <time>2018-09-16T11:52:41Z</time>
      </trkpt>
      <trkpt lat="40.250717" lon="-4.901383">
        <ele>1515.0</ele>
        <time>2018-09-16T11:52:42Z</time>
      </trkpt>
      <trkpt lat="40.250783" lon="-4.901400">
        <ele>1517.0</ele>
        <time>2018-09-16T11:52:43Z</time>
      </trkpt>
      <trkpt lat="40.250867" lon="-4.901333">
        <ele>1519.0</ele>
        <time>2018-09-16T11:52:44Z</time>
      </trkpt>
      <trkpt lat="40.250967" lon="-4.901217">
        <ele>1520.0</ele>
        <time>2018-09-16T11:52:45Z</time>
      </trkpt>
      <trkpt lat="40.250983" lon="-4.901083">
        <ele>1521.0</ele>
        <time>2018-09-16T11:52:46Z</time>
      </trkpt>
      <trkpt lat="40.251017" lon="-4.900983">
        <ele>1523.0</ele>
        <time>2018-09-16T11:52:47Z</time>
      </trkpt>
      <trkpt lat="40.251033" lon="-4.900900">
        <ele>1525.0</ele>
        <time>2018-09-16T11:52:48Z</time>
      </trkpt>
      <trkpt lat="40.251000" lon="-4.900817">
        <ele>1527.0</ele>
        <time>2018-09-16T11:52:49Z</time>
      </trkpt>
      <trkpt lat="40.250967" lon="-4.900700">
        <ele>1530.0</ele>
        <time>2018-09-16T11:52:50Z</time>
      </trkpt>
      <trkpt lat="40.250917" lon="-4.900650">
        <ele>1534.0</ele>
        <time>2018-09-16T11:52:51Z</time>
      </trkpt>
      <trkpt lat="40.250850" lon="-4.900633">
        <ele>1534.0</ele>
        <time>2018-09-16T11:52:52Z</time>
      </trkpt>
      <trkpt lat="40.250800" lon="-4.900633">
        <ele>1536.0</ele>
        <time>2018-09-16T11:52:53Z</time>
      </trkpt>
      <trkpt lat="40.250767" lon="-4.900683">
        <ele>1539.0</ele>
        <time>2018-09-16T11:52:54Z</time>
      </trkpt>
      <trkpt lat="40.250717" lon="-4.900683">
        <ele>1540.0</ele>
        <time>2018-09-16T11:52:55Z</time>
      </trkpt>
      <trkpt lat="40.250683" lon="-4.900667">
        <ele>1542.0</ele>
        <time>2018-09-16T11:52:56Z</time>
      </trkpt>
      <trkpt lat="40.250633" lon="-4.900617">
        <ele>1544.0</ele>
        <time>2018-09-16T11:52:57Z</time>
      </trkpt>
      <trkpt lat="40.250567" lon="-4.900600">
        <ele>1547.0</ele>
        <time>2018-09-16T11:52:58Z</time>
      </trkpt>
      <trkpt lat="40.250500" lon="-4.900600">
        <ele>1549.0</ele>
        <time>2018-09-16T11:52:59Z</time>
      </trkpt>
      <trkpt lat="40.250433" lon="-4.900667">
        <ele>1551.0</ele>
        <time>2018-09-16T11:53:00Z</time>
      </trkpt>
      <trkpt lat="40.250383" lon="-4.900717">
        <ele>1551.0</ele>
        <time>2018-09-16T11:53:01Z</time>
      </trkpt>
      <trkpt lat="40.250317" lon="-4.900783">
        <ele>1553.0</ele>
        <time>2018-09-16T11:53:02Z</time>
      </trkpt>
      <trkpt lat="40.250267" lon="-4.900817">
        <ele>1556.0</ele>
        <time>2018-09-16T11:53:03Z</time>
      </trkpt>
      <trkpt lat="40.250217" lon="-4.900867">
        <ele>1558.0</ele>
        <time>2018-09-16T11:53:04Z</time>
      </trkpt>
      <trkpt lat="40.250183" lon="-4.900917">
        <ele>1561.0</ele>
        <time>2018-09-16T11:53:05Z</time>
      </trkpt>
      <trkpt lat="40.250133" lon="-4.900950">
        <ele>1565.0</ele>
        <time>2018-09-16T11:53:06Z</time>
      </trkpt>
      <trkpt lat="40.250083" lon="-4.901000">
        <ele>1570.0</ele>
        <time>2018-09-16T11:53:07Z</time>
      </trkpt>
      <trkpt lat="40.250050" lon="-4.901033">
        <ele>1573.0</ele>
        <time>2018-09-16T11:53:08Z</time>
      </trkpt>
      <trkpt lat="40.250000" lon="-4.901067">
        <ele>1576.0</ele>
        <time>2018-09-16T11:53:09Z</time>
      </trkpt>
      <trkpt lat="40.249933" lon="-4.901100">
        <ele>1578.0</ele>
        <time>2018-09-16T11:53:10Z</time>
      </trkpt>
      <trkpt lat="40.249883" lon="-4.901133">
        <ele>1580.0</ele>
        <time>2018-09-16T11:53:11Z</time>
      </trkpt>
      <trkpt lat="40.249850" lon="-4.901183">
        <ele>1583.0</ele>
        <time>2018-09-16T11:53:12Z</time>
      </trkpt>
      <trkpt lat="40.249817" lon="-4.901233">
        <ele>1586.0</ele>
        <time>2018-09-16T11:53:13Z</time>
      </trkpt>
      <trkpt lat="40.249783" lon="-4.901267">
        <ele>1588.0</ele>
        <time>2018-09-16T11:53:14Z</time>
      </trkpt>
      <trkpt lat="40.249733" lon="-4.901317">
        <ele>1590.0</ele>
        <time>2018-09-16T11:53:15Z</time>
      </trkpt>
      <trkpt lat="40.249700" lon="-4.901383">
        <ele>1591.0</ele>
        <time>2018-09-16T11:53:16Z</time>
      </trkpt>
      <trkpt lat="40.249683" lon="-4.901450">
        <ele>1592.0</ele>
        <time>2018-09-16T11:53:17Z</time>
      </trkpt>
      <trkpt lat="40.249700" lon="-4.901550">
        <ele>1593.0</ele>
        <time>2018-09-16T11:53:18Z</time>
      </trkpt>
      <trkpt lat="40.249733" lon="-4.901667">
        <ele>1594.0</ele>
        <time>2018-09-16T11:53:19Z</time>
      </trkpt>
      <trkpt lat="40.249800" lon="-4.901767">
        <ele>1594.0</ele>
        <time>2018-09-16T11:53:20Z</time>
      </trkpt>
      <trkpt lat="40.249900" lon="-4.901833">
        <ele>1594.0</ele>
        <time>2018-09-16T11:53:21Z</time>
      </trkpt>
      <trkpt lat="40.250033" lon="-4.901833">
        <ele>1595.0</ele>
        <time>2018-09-16T11:53:22Z</time>
      </trkpt>
      <trkpt lat="40.250133" lon="-4.901783">
        <ele>1596.0</ele>
        <time>2018-09-16T11:53:23Z</time>
      </trkpt>
      <trkpt lat="40.250217" lon="-4.901683">
        <ele>1597.0</ele>
        <time>2018-09-16T11:53:24Z</time>
      </trkpt>
      <trkpt lat="40.250250" lon="-4.901600">
        <ele>1598.0</ele>
        <time>2018-09-16T11:53:25Z</time>
      </trkpt>
      <trkpt lat="40.250250" lon="-4.901483">
        <ele>1596.0</ele>
        <time>2018-09-16T11:53:26Z</time>
      </trkpt>
      <trkpt lat="40.250233" lon="-4.901400">
        <ele>1596.0</ele>
        <time>2018-09-16T11:53:27Z</time>
      </trkpt>
      <trkpt lat="40.250183" lon="-4.901333">
        <ele>1596.0</ele>
        <time>2018-09-16T11:53:28Z</time>
      </trkpt>
      <trkpt lat="40.250150" lon="-4.901317">
        <ele>1597.0</ele>
        <time>2018-09-16T11:53:29Z</time>
      </trkpt>
      <trkpt lat="40.250100" lon="-4.901317">
        <ele>1597.0</ele>
        <time>2018-09-16T11:53:30Z</time>
      </trkpt>
      <trkpt lat="40.250067" lon="-4.901483">
        <ele>1599.0</ele>
        <time>2018-09-16T11:53:32Z</time>
      </trkpt>
      <trkpt lat="40.250117" lon="-4.901617">
        <ele>1599.0</ele>
        <time>2018-09-16T11:53:33Z</time>
      </trkpt>
      <trkpt lat="40.250167" lon="-4.901733">
        <ele>1599.0</ele>
        <time>2018-09-16T11:53:34Z</time>
      </trkpt>
      <trkpt lat="40.250250" lon="-4.901817">
        <ele>1600.0</ele>
        <time>2018-09-16T11:53:35Z</time>
      </trkpt>
      <trkpt lat="40.250350" lon="-4.901867">
        <ele>1601.0</ele>
        <time>2018-09-16T11:53:36Z</time>
      </trkpt>
      <trkpt lat="40.250433" lon="-4.901900">
        <ele>1602.0</ele>
        <time>2018-09-16T11:53:37Z</time>
      </trkpt>
      <trkpt lat="40.250533" lon="-4.901900">
        <ele>1605.0</ele>
        <time>2018-09-16T11:53:38Z</time>
      </trkpt>
      <trkpt lat="40.250617" lon="-4.901900">
        <ele>1607.0</ele>
        <time>2018-09-16T11:53:39Z</time>
      </trkpt>
      <trkpt lat="40.250717" lon="-4.901883">
        <ele>1610.0</ele>
        <time>2018-09-16T11:53:40Z</time>
      </trkpt>
      <trkpt lat="40.250817" lon="-4.901833">
        <ele>1612.0</ele>
        <time>2018-09-16T11:53:41Z</time>
      </trkpt>
      <trkpt lat="40.250900" lon="-4.901750">
        <ele>1614.0</ele>
        <time>2018-09-16T11:53:42Z</time>
      </trkpt>
      <trkpt lat="40.250933" lon="-4.901617">
        <ele>1616.0</ele>
        <time>2018-09-16T11:53:43Z</time>
      </trkpt>
      <trkpt lat="40.250917" lon="-4.901517">
        <ele>1618.0</ele>
        <time>2018-09-16T11:53:44Z</time>
      </trkpt>
      <trkpt lat="40.250867" lon="-4.901450">
        <ele>1615.0</ele>
        <time>2018-09-16T11:53:45Z</time>
      </trkpt>
      <trkpt lat="40.250800" lon="-4.901433">
        <ele>1615.0</ele>
        <time>2018-09-16T11:53:46Z</time>
      </trkpt>
      <trkpt lat="40.250733" lon="-4.901467">
        <ele>1615.0</ele>
        <time>2018-09-16T11:53:47Z</time>
      </trkpt>
      <trkpt lat="40.250683" lon="-4.901567">
        <ele>1616.0</ele>
        <time>2018-09-16T11:53:48Z</time>
      </trkpt>
      <trkpt lat="40.250683" lon="-4.901700">
        <ele>1617.0</ele>
        <time>2018-09-16T11:53:49Z</time>
      </trkpt>
      <trkpt lat="40.250700" lon="-4.901817">
        <ele>1618.0</ele>
        <time>2018-09-16T11:53:50Z</time>
      </trkpt>
      <trkpt lat="40.250767" lon="-4.901867">
        <ele>1619.0</ele>
        <time>2018-09-16T11:53:51Z</time>
      </trkpt>
      <trkpt lat="40.250883" lon="-4.901917">
        <ele>1620.0</ele>
        <time>2018-09-16T11:53:52Z</time>
      </trkpt>
      <trkpt lat="40.250967" lon="-4.901950">
        <ele>1621.0</ele>
        <time>2018-09-16T11:53:53Z</time>
      </trkpt>
      <trkpt lat="40.251050" lon="-4.901967">
        <ele>1623.0</ele>
        <time>2018-09-16T11:53:54Z</time>
      </trkpt>
      <trkpt lat="40.251133" lon="-4.901917">
        <ele>1625.0</ele>
        <time>2018-09-16T11:53:55Z</time>
      </trkpt>
      <trkpt lat="40.251217" lon="-4.901833">
        <ele>1626.0</ele>
        <time>2018-09-16T11:53:56Z</time>
      </trkpt>
      <trkpt lat="40.251250" lon="-4.901750">
        <ele>1626.0</ele>
        <time>2018-09-16T11:53:57Z</time>
      </trkpt>
      <trkpt lat="40.251267" lon="-4.901650">
        <ele>1627.0</ele>
        <time>2018-09-16T11:53:58Z</time>
      </trkpt>
      <trkpt lat="40.251250" lon="-4.901583">
        <ele>1628.0</ele>
        <time>2018-09-16T11:53:59Z</time>
      </trkpt>
      <trkpt lat="40.251183" lon="-4.901567">
        <ele>1628.0</ele>
        <time>2018-09-16T11:54:00Z</time>
      </trkpt>
      <trkpt lat="40.251133" lon="-4.901567">
        <ele>1629.0</ele>
        <time>2018-09-16T11:54:01Z</time>
      </trkpt>
      <trkpt lat="40.251083" lon="-4.901617">
        <ele>1630.0</ele>
        <time>2018-09-16T11:54:02Z</time>
      </trkpt>
      <trkpt lat="40.251050" lon="-4.901667">
        <ele>1631.0</ele>
        <time>2018-09-16T11:54:03Z</time>
      </trkpt>
      <trkpt lat="40.251017" lon="-4.901717">
        <ele>1633.0</ele>
        <time>2018-09-16T11:54:04Z</time>
      </trkpt>
      <trkpt lat="40.250983" lon="-4.901767">
        <ele>1635.0</ele>
        <time>2018-09-16T11:54:05Z</time>
      </trkpt>
      <trkpt lat="40.250967" lon="-4.901817">
        <ele>1636.0</ele>
        <time>2018-09-16T11:54:06Z</time>
      </trkpt>
      <trkpt lat="40.250933" lon="-4.901933">
        <ele>1636.0</ele>
        <time>2018-09-16T11:54:07Z</time>
      </trkpt>
      <trkpt lat="40.250983" lon="-4.902067">
        <ele>1636.0</ele>
        <time>2018-09-16T11:54:08Z</time>
      </trkpt>
      <trkpt lat="40.251067" lon="-4.902200">
        <ele>1636.0</ele>
        <time>2018-09-16T11:54:09Z</time>
      </trkpt>
      <trkpt lat="40.251183" lon="-4.902267">
        <ele>1637.0</ele>
        <time>2018-09-16T11:54:10Z</time>
      </trkpt>
      <trkpt lat="40.251283" lon="-4.902267">
        <ele>1638.0</ele>
        <time>2018-09-16T11:54:11Z</time>
      </trkpt>
      <trkpt lat="40.251367" lon="-4.902200">
        <ele>1639.0</ele>
        <time>2018-09-16T11:54:12Z</time>
      </trkpt>
      <trkpt lat="40.251400" lon="-4.902083">
        <ele>1639.0</ele>
        <time>2018-09-16T11:54:13Z</time>
      </trkpt>
      <trkpt lat="40.251433" lon="-4.902000">
        <ele>1640.0</ele>
        <time>2018-09-16T11:54:14Z</time>
      </trkpt>
      <trkpt lat="40.251417" lon="-4.901917">
        <ele>1641.0</ele>
        <time>2018-09-16T11:54:15Z</time>
      </trkpt>
      <trkpt lat="40.251383" lon="-4.901850">
        <ele>1642.0</ele>
        <time>2018-09-16T11:54:16Z</time>
      </trkpt>
      <trkpt lat="40.251333" lon="-4.901783">
        <ele>1644.0</ele>
        <time>2018-09-16T11:54:17Z</time>
      </trkpt>
      <trkpt lat="40.251283" lon="-4.901733">
        <ele>1645.0</ele>
        <time>2018-09-16T11:54:18Z</time>
      </trkpt>
      <trkpt lat="40.251233" lon="-4.901733">
        <ele>1647.0</ele>
        <time>2018-09-16T11:54:19Z</time>
      </trkpt>
      <trkpt lat="40.251183" lon="-4.901783">
        <ele>1648.0</ele>
        <time>2018-09-16T11:54:20Z</time>
      </trkpt>
      <trkpt lat="40.251150" lon="-4.901833">
        <ele>1648.0</ele>
        <time>2018-09-16T11:54:21Z</time>
      </trkpt>
      <trkpt lat="40.251133" lon="-4.901933">
        <ele>1649.0</ele>
        <time>2018-09-16T11:54:22Z</time>
      </trkpt>
      <trkpt lat="40.251183" lon="-4.902067">
        <ele>1650.0</ele>
        <time>2018-09-16T11:54:23Z</time>
      </trkpt>
      <trkpt lat="40.251250" lon="-4.902167">
        <ele>1650.0</ele>
        <time>2018-09-16T11:54:24Z</time>
      </trkpt>
      <trkpt lat="40.251317" lon="-4.902283">
        <ele>1651.0</ele>
        <time>2018-09-16T11:54:25Z</time>
      </trkpt>
      <trkpt lat="40.251350" lon="-4.902383">
        <ele>1654.0</ele>
        <time>2018-09-16T11:54:26Z</time>
      </trkpt>
      <trkpt lat="40.251383" lon="-4.902467">
        <ele>1658.0</ele>
        <time>2018-09-16T11:54:27Z</time>
      </trkpt>
      <trkpt lat="40.251367" lon="-4.902583">
        <ele>1662.0</ele>
        <time>2018-09-16T11:54:28Z</time>
      </trkpt>
      <trkpt lat="40.251333" lon="-4.902683">
        <ele>1665.0</ele>
        <time>2018-09-16T11:54:29Z</time>
      </trkpt>
      <trkpt lat="40.251300" lon="-4.902750">
        <ele>1667.0</ele>
        <time>2018-09-16T11:54:30Z</time>
      </trkpt>
      <trkpt lat="40.251267" lon="-4.902817">
        <ele>1669.0</ele>
        <time>2018-09-16T11:54:31Z</time>
      </trkpt>
      <trkpt lat="40.251200" lon="-4.902850">
        <ele>1672.0</ele>
        <time>2018-09-16T11:54:32Z</time>
      </trkpt>
      <trkpt lat="40.251150" lon="-4.902833">
        <ele>1676.0</ele>
        <time>2018-09-16T11:54:33Z</time>
      </trkpt>
      <trkpt lat="40.251100" lon="-4.902800">
        <ele>1679.0</ele>
        <time>2018-09-16T11:54:34Z</time>
      </trkpt>
      <trkpt lat="40.251083" lon="-4.902750">
        <ele>1682.0</ele>
        <time>2018-09-16T11:54:35Z</time>
      </trkpt>
      <trkpt lat="40.251083" lon="-4.902667">
        <ele>1684.0</ele>
        <time>2018-09-16T11:54:36Z</time>
      </trkpt>
      <trkpt lat="40.251117" lon="-4.902583">
        <ele>1687.0</ele>
        <time>2018-09-16T11:54:37Z</time>
      </trkpt>
      <trkpt lat="40.251183" lon="-4.902500">
        <ele>1690.0</ele>
        <time>2018-09-16T11:54:38Z</time>
      </trkpt>
      <trkpt lat="40.251283" lon="-4.902450">
        <ele>1692.0</ele>
        <time>2018-09-16T11:54:39Z</time>
      </trkpt>
      <trkpt lat="40.251400" lon="-4.902450">
        <ele>1694.0</ele>
        <time>2018-09-16T11:54:40Z</time>
      </trkpt>
      <trkpt lat="40.251517" lon="-4.902467">
        <ele>1696.0</ele>
        <time>2018-09-16T11:54:41Z</time>
      </trkpt>
      <trkpt lat="40.251633" lon="-4.902517">
        <ele>1697.0</ele>
        <time>2018-09-16T11:54:42Z</time>
      </trkpt>
      <trkpt lat="40.251733" lon="-4.902600">
        <ele>1699.0</ele>
        <time>2018-09-16T11:54:43Z</time>
      </trkpt>
      <trkpt lat="40.251817" lon="-4.902717">
        <ele>1701.0</ele>
        <time>2018-09-16T11:54:44Z</time>
      </trkpt>
      <trkpt lat="40.251867" lon="-4.902850">
        <ele>1703.0</ele>
        <time>2018-09-16T11:54:45Z</time>
      </trkpt>
      <trkpt lat="40.251917" lon="-4.903000">
        <ele>1704.0</ele>
        <time>2018-09-16T11:54:46Z</time>
      </trkpt>
      <trkpt lat="40.251933" lon="-4.903133">
        <ele>1706.0</ele>
        <time>2018-09-16T11:54:47Z</time>
      </trkpt>
      <trkpt lat="40.251933" lon="-4.903250">
        <ele>1707.0</ele>
        <time>2018-09-16T11:54:48Z</time>
      </trkpt>
      <trkpt lat="40.251933" lon="-4.903350">
        <ele>1708.0</ele>
        <time>2018-09-16T11:54:49Z</time>
      </trkpt>
      <trkpt lat="40.251900" lon="-4.903433">
        <ele>1709.0</ele>
        <time>2018-09-16T11:54:50Z</time>
      </trkpt>
      <trkpt lat="40.251867" lon="-4.903550">
        <ele>1709.0</ele>
        <time>2018-09-16T11:54:51Z</time>
      </trkpt>
      <trkpt lat="40.251833" lon="-4.903667">
        <ele>1708.0</ele>
        <time>2018-09-16T11:54:52Z</time>
      </trkpt>
      <trkpt lat="40.251800" lon="-4.903800">
        <ele>1707.0</ele>
        <time>2018-09-16T11:54:53Z</time>
      </trkpt>
      <trkpt lat="40.251733" lon="-4.903917">
        <ele>1706.0</ele>
        <time>2018-09-16T11:54:54Z</time>
      </trkpt>
      <trkpt lat="40.251683" lon="-4.904000">
        <ele>1706.0</ele>
        <time>2018-09-16T11:54:55Z</time>
      </trkpt>
      <trkpt lat="40.251617" lon="-4.904067">
        <ele>1706.0</ele>
        <time>2018-09-16T11:54:56Z</time>
      </trkpt>
      <trkpt lat="40.251567" lon="-4.904133">
        <ele>1706.0</ele>
        <time>2018-09-16T11:54:57Z</time>
      </trkpt>
      <trkpt lat="40.251517" lon="-4.904217">
        <ele>1705.0</ele>
        <time>2018-09-16T11:54:58Z</time>
      </trkpt>
      <trkpt lat="40.251450" lon="-4.904317">
        <ele>1705.0</ele>
        <time>2018-09-16T11:54:59Z</time>
      </trkpt>
      <trkpt lat="40.251383" lon="-4.904417">
        <ele>1704.0</ele>
        <time>2018-09-16T11:55:00Z</time>
      </trkpt>
      <trkpt lat="40.251317" lon="-4.904500">
        <ele>1703.0</ele>
        <time>2018-09-16T11:55:01Z</time>
      </trkpt>
      <trkpt lat="40.251267" lon="-4.904600">
        <ele>1703.0</ele>
        <time>2018-09-16T11:55:02Z</time>
      </trkpt>
      <trkpt lat="40.251217" lon="-4.904683">
        <ele>1704.0</ele>
        <time>2018-09-16T11:55:03Z</time>
      </trkpt>
      <trkpt lat="40.251167" lon="-4.904767">
        <ele>1704.0</ele>
        <time>2018-09-16T11:55:04Z</time>
      </trkpt>
      <trkpt lat="40.251117" lon="-4.904850">
        <ele>1702.0</ele>
        <time>2018-09-16T11:55:05Z</time>
      </trkpt>
      <trkpt lat="40.251050" lon="-4.904950">
        <ele>1701.0</ele>
        <time>2018-09-16T11:55:06Z</time>
      </trkpt>
      <trkpt lat="40.250983" lon="-4.905017">
        <ele>1700.0</ele>
        <time>2018-09-16T11:55:07Z</time>
      </trkpt>
      <trkpt lat="40.250917" lon="-4.905100">
        <ele>1700.0</ele>
        <time>2018-09-16T11:55:08Z</time>
      </trkpt>
      <trkpt lat="40.250867" lon="-4.905167">
        <ele>1699.0</ele>
        <time>2018-09-16T11:55:09Z</time>
      </trkpt>
      <trkpt lat="40.250800" lon="-4.905267">
        <ele>1698.0</ele>
        <time>2018-09-16T11:55:10Z</time>
      </trkpt>
      <trkpt lat="40.250750" lon="-4.905367">
        <ele>1696.0</ele>
        <time>2018-09-16T11:55:11Z</time>
      </trkpt>
      <trkpt lat="40.250683" lon="-4.905450">
        <ele>1695.0</ele>
        <time>2018-09-16T11:55:12Z</time>
      </trkpt>
      <trkpt lat="40.250617" lon="-4.905533">
        <ele>1693.0</ele>
        <time>2018-09-16T11:55:13Z</time>
      </trkpt>
      <trkpt lat="40.250550" lon="-4.905617">
        <ele>1692.0</ele>
        <time>2018-09-16T11:55:14Z</time>
      </trkpt>
      <trkpt lat="40.250483" lon="-4.905700">
        <ele>1692.0</ele>
        <time>2018-09-16T11:55:15Z</time>
      </trkpt>
      <trkpt lat="40.250417" lon="-4.905800">
        <ele>1692.0</ele>
        <time>2018-09-16T11:55:16Z</time>
      </trkpt>
      <trkpt lat="40.250367" lon="-4.905917">
        <ele>1692.0</ele>
        <time>2018-09-16T11:55:17Z</time>
      </trkpt>
      <trkpt lat="40.250300" lon="-4.906000">
        <ele>1691.0</ele>
        <time>2018-09-16T11:55:18Z</time>
      </trkpt>
      <trkpt lat="40.250250" lon="-4.906100">
        <ele>1691.0</ele>
        <time>2018-09-16T11:55:19Z</time>
      </trkpt>
      <trkpt lat="40.250183" lon="-4.906167">
        <ele>1690.0</ele>
        <time>2018-09-16T11:55:20Z</time>
      </trkpt>
      <trkpt lat="40.250117" lon="-4.906250">
        <ele>1690.0</ele>
        <time>2018-09-16T11:55:21Z</time>
      </trkpt>
      <trkpt lat="40.250050" lon="-4.906333">
        <ele>1689.0</ele>
        <time>2018-09-16T11:55:22Z</time>
      </trkpt>
      <trkpt lat="40.249983" lon="-4.906433">
        <ele>1689.0</ele>
        <time>2018-09-16T11:55:23Z</time>
      </trkpt>
      <trkpt lat="40.249917" lon="-4.906533">
        <ele>1688.0</ele>
        <time>2018-09-16T11:55:24Z</time>
      </trkpt>
      <trkpt lat="40.249833" lon="-4.906633">
        <ele>1688.0</ele>
        <time>2018-09-16T11:55:25Z</time>
      </trkpt>
      <trkpt lat="40.249767" lon="-4.906700">
        <ele>1687.0</ele>
        <time>2018-09-16T11:55:26Z</time>
      </trkpt>
      <trkpt lat="40.249700" lon="-4.906783">
        <ele>1685.0</ele>
        <time>2018-09-16T11:55:27Z</time>
      </trkpt>
      <trkpt lat="40.249633" lon="-4.906867">
        <ele>1682.0</ele>
        <time>2018-09-16T11:55:28Z</time>
      </trkpt>
      <trkpt lat="40.249567" lon="-4.906967">
        <ele>1679.0</ele>
        <time>2018-09-16T11:55:29Z</time>
      </trkpt>
      <trkpt lat="40.249500" lon="-4.907083">
        <ele>1676.0</ele>
        <time>2018-09-16T11:55:30Z</time>
      </trkpt>
      <trkpt lat="40.249417" lon="-4.907183">
        <ele>1673.0</ele>
        <time>2018-09-16T11:55:31Z</time>
      </trkpt>
      <trkpt lat="40.249333" lon="-4.907267">
        <ele>1671.0</ele>
        <time>2018-09-16T11:55:32Z</time>
      </trkpt>
      <trkpt lat="40.249250" lon="-4.907333">
        <ele>1667.0</ele>
        <time>2018-09-16T11:55:33Z</time>
      </trkpt>
      <trkpt lat="40.249167" lon="-4.907417">
        <ele>1663.0</ele>
        <time>2018-09-16T11:55:34Z</time>
      </trkpt>
      <trkpt lat="40.249083" lon="-4.907483">
        <ele>1660.0</ele>
        <time>2018-09-16T11:55:35Z</time>
      </trkpt>
      <trkpt lat="40.248983" lon="-4.907550">
        <ele>1656.0</ele>
        <time>2018-09-16T11:55:36Z</time>
      </trkpt>
      <trkpt lat="40.248900" lon="-4.907650">
        <ele>1653.0</ele>
        <time>2018-09-16T11:55:37Z</time>
      </trkpt>
      <trkpt lat="40.248817" lon="-4.907733">
        <ele>1649.0</ele>
        <time>2018-09-16T11:55:38Z</time>
      </trkpt>
      <trkpt lat="40.248750" lon="-4.907833">
        <ele>1646.0</ele>
        <time>2018-09-16T11:55:39Z</time>
      </trkpt>
      <trkpt lat="40.248683" lon="-4.907933">
        <ele>1643.0</ele>
        <time>2018-09-16T11:55:40Z</time>
      </trkpt>
      <trkpt lat="40.248617" lon="-4.908033">
        <ele>1641.0</ele>
        <time>2018-09-16T11:55:41Z</time>
      </trkpt>
      <trkpt lat="40.248550" lon="-4.908133">
        <ele>1638.0</ele>
        <time>2018-09-16T11:55:42Z</time>
      </trkpt>
      <trkpt lat="40.248483" lon="-4.908250">
        <ele>1635.0</ele>
        <time>2018-09-16T11:55:43Z</time>
      </trkpt>
      <trkpt lat="40.248417" lon="-4.908350">
        <ele>1633.0</ele>
        <time>2018-09-16T11:55:44Z</time>
      </trkpt>
      <trkpt lat="40.248333" lon="-4.908450">
        <ele>1630.0</ele>
        <time>2018-09-16T11:55:45Z</time>
      </trkpt>
      <trkpt lat="40.248267" lon="-4.908550">
        <ele>1628.0</ele>
        <time>2018-09-16T11:55:46Z</time>
      </trkpt>
      <trkpt lat="40.248200" lon="-4.908650">
        <ele>1626.0</ele>
        <time>2018-09-16T11:55:47Z</time>
      </trkpt>
      <trkpt lat="40.248133" lon="-4.908750">
        <ele>1624.0</ele>
        <time>2018-09-16T11:55:48Z</time>
      </trkpt>
      <trkpt lat="40.248083" lon="-4.908867">
        <ele>1622.0</ele>
        <time>2018-09-16T11:55:49Z</time>
      </trkpt>
      <trkpt lat="40.248017" lon="-4.908983">
        <ele>1619.0</ele>
        <time>2018-09-16T11:55:50Z</time>
      </trkpt>
      <trkpt lat="40.247950" lon="-4.909083">
        <ele>1617.0</ele>
        <time>2018-09-16T11:55:51Z</time>
      </trkpt>
      <trkpt lat="40.247867" lon="-4.909200">
        <ele>1615.0</ele>
        <time>2018-09-16T11:55:52Z</time>
      </trkpt>
      <trkpt lat="40.247800" lon="-4.909300">
        <ele>1613.0</ele>
        <time>2018-09-16T11:55:53Z</time>
      </trkpt>
      <trkpt lat="40.247717" lon="-4.909400">
        <ele>1611.0</ele>
        <time>2018-09-16T11:55:54Z</time>
      </trkpt>
      <trkpt lat="40.247650" lon="-4.909500">
        <ele>1608.0</ele>
        <time>2018-09-16T11:55:55Z</time>
      </trkpt>
      <trkpt lat="40.247583" lon="-4.909600">
        <ele>1607.0</ele>
        <time>2018-09-16T11:55:56Z</time>
      </trkpt>
      <trkpt lat="40.247517" lon="-4.909700">
        <ele>1605.0</ele>
        <time>2018-09-16T11:55:57Z</time>
      </trkpt>
      <trkpt lat="40.247433" lon="-4.909817">
        <ele>1605.0</ele>
        <time>2018-09-16T11:55:58Z</time>
      </trkpt>
      <trkpt lat="40.247367" lon="-4.909917">
        <ele>1604.0</ele>
        <time>2018-09-16T11:55:59Z</time>
      </trkpt>
      <trkpt lat="40.247317" lon="-4.910033">
        <ele>1603.0</ele>
        <time>2018-09-16T11:56:00Z</time>
      </trkpt>
      <trkpt lat="40.247250" lon="-4.910150">
        <ele>1601.0</ele>
        <time>2018-09-16T11:56:01Z</time>
      </trkpt>
      <trkpt lat="40.247200" lon="-4.910267">
        <ele>1599.0</ele>
        <time>2018-09-16T11:56:02Z</time>
      </trkpt>
      <trkpt lat="40.247150" lon="-4.910383">
        <ele>1597.0</ele>
        <time>2018-09-16T11:56:03Z</time>
      </trkpt>
      <trkpt lat="40.247100" lon="-4.910500">
        <ele>1595.0</ele>
        <time>2018-09-16T11:56:04Z</time>
      </trkpt>
      <trkpt lat="40.247033" lon="-4.910600">
        <ele>1593.0</ele>
        <time>2018-09-16T11:56:05Z</time>
      </trkpt>
      <trkpt lat="40.246800" lon="-4.910950">
        <ele>1590.0</ele>
        <time>2018-09-16T11:56:07Z</time>
      </trkpt>
      <trkpt lat="40.246017" lon="-4.911900">
        <ele>0.0</ele>
        <time>2018-09-16T11:56:18Z</time>
      </trkpt>
      <trkpt lat="40.246017" lon="-4.911983">
        <ele>1591.0</ele>
        <time>2018-09-16T11:56:19Z</time>
      </trkpt>
      <trkpt lat="40.245967" lon="-4.912067">
        <ele>1584.0</ele>
        <time>2018-09-16T11:56:20Z</time>
      </trkpt>
      <trkpt lat="40.245900" lon="-4.912150">
        <ele>1578.0</ele>
        <time>2018-09-16T11:56:21Z</time>
      </trkpt>
      <trkpt lat="40.245833" lon="-4.912250">
        <ele>1575.0</ele>
        <time>2018-09-16T11:56:22Z</time>
      </trkpt>
      <trkpt lat="40.245767" lon="-4.912333">
        <ele>1573.0</ele>
        <time>2018-09-16T11:56:23Z</time>
      </trkpt>
      <trkpt lat="40.245700" lon="-4.912417">
        <ele>1572.0</ele>
        <time>2018-09-16T11:56:24Z</time>
      </trkpt>
      <trkpt lat="40.245650" lon="-4.912517">
        <ele>1571.0</ele>
        <time>2018-09-16T11:56:25Z</time>
      </trkpt>
      <trkpt lat="40.245600" lon="-4.912617">
        <ele>1571.0</ele>
        <time>2018-09-16T11:56:26Z</time>
      </trkpt>
      <trkpt lat="40.245550" lon="-4.912717">
        <ele>1571.0</ele>
        <time>2018-09-16T11:56:27Z</time>
      </trkpt>
      <trkpt lat="40.245483" lon="-4.912800">
        <ele>1574.0</ele>
        <time>2018-09-16T11:56:28Z</time>
      </trkpt>
      <trkpt lat="40.245433" lon="-4.912900">
        <ele>1574.0</ele>
        <time>2018-09-16T11:56:29Z</time>
      </trkpt>
      <trkpt lat="40.245367" lon="-4.913017">
        <ele>1574.0</ele>
        <time>2018-09-16T11:56:30Z</time>
      </trkpt>
      <trkpt lat="40.245300" lon="-4.913117">
        <ele>1573.0</ele>
        <time>2018-09-16T11:56:31Z</time>
      </trkpt>
      <trkpt lat="40.245250" lon="-4.913217">
        <ele>1573.0</ele>
        <time>2018-09-16T11:56:32Z</time>
      </trkpt>
      <trkpt lat="40.245200" lon="-4.913333">
        <ele>1573.0</ele>
        <time>2018-09-16T11:56:33Z</time>
      </trkpt>
      <trkpt lat="40.245117" lon="-4.913433">
        <ele>1573.0</ele>
        <time>2018-09-16T11:56:34Z</time>
      </trkpt>
      <trkpt lat="40.245067" lon="-4.913533">
        <ele>1573.0</ele>
        <time>2018-09-16T11:56:35Z</time>
      </trkpt>
      <trkpt lat="40.245000" lon="-4.913633">
        <ele>1572.0</ele>
        <time>2018-09-16T11:56:36Z</time>
      </trkpt>
      <trkpt lat="40.244950" lon="-4.913717">
        <ele>1572.0</ele>
        <time>2018-09-16T11:56:37Z</time>
      </trkpt>
      <trkpt lat="40.244883" lon="-4.913833">
        <ele>1571.0</ele>
        <time>2018-09-16T11:56:38Z</time>
      </trkpt>
      <trkpt lat="40.244833" lon="-4.913933">
        <ele>1571.0</ele>
        <time>2018-09-16T11:56:39Z</time>
      </trkpt>
      <trkpt lat="40.244767" lon="-4.914050">
        <ele>1570.0</ele>
        <time>2018-09-16T11:56:40Z</time>
      </trkpt>
      <trkpt lat="40.244717" lon="-4.914150">
        <ele>1570.0</ele>
        <time>2018-09-16T11:56:41Z</time>
      </trkpt>
      <trkpt lat="40.244650" lon="-4.914250">
        <ele>1570.0</ele>
        <time>2018-09-16T11:56:42Z</time>
      </trkpt>
      <trkpt lat="40.244583" lon="-4.914350">
        <ele>1569.0</ele>
        <time>2018-09-16T11:56:43Z</time>
      </trkpt>
      <trkpt lat="40.244533" lon="-4.914433">
        <ele>1571.0</ele>
        <time>2018-09-16T11:56:44Z</time>
      </trkpt>
      <trkpt lat="40.244467" lon="-4.914533">
        <ele>1571.0</ele>
        <time>2018-09-16T11:56:45Z</time>
      </trkpt>
      <trkpt lat="40.244417" lon="-4.914633">
        <ele>1571.0</ele>
        <time>2018-09-16T11:56:46Z</time>
      </trkpt>
      <trkpt lat="40.244350" lon="-4.914750">
        <ele>1571.0</ele>
        <time>2018-09-16T11:56:47Z</time>
      </trkpt>
      <trkpt lat="40.244283" lon="-4.914867">
        <ele>1570.0</ele>
        <time>2018-09-16T11:56:48Z</time>
      </trkpt>
      <trkpt lat="40.244217" lon="-4.914983">
        <ele>1570.0</ele>
        <time>2018-09-16T11:56:49Z</time>
      </trkpt>
      <trkpt lat="40.244150" lon="-4.915083">
        <ele>1569.0</ele>
        <time>2018-09-16T11:56:50Z</time>
      </trkpt>
      <trkpt lat="40.244100" lon="-4.915183">
        <ele>1569.0</ele>
        <time>2018-09-16T11:56:51Z</time>
      </trkpt>
      <trkpt lat="40.244033" lon="-4.915300">
        <ele>1569.0</ele>
        <time>2018-09-16T11:56:52Z</time>
      </trkpt>
      <trkpt lat="40.243983" lon="-4.915417">
        <ele>1568.0</ele>
        <time>2018-09-16T11:56:53Z</time>
      </trkpt>
      <trkpt lat="40.243933" lon="-4.915517">
        <ele>1567.0</ele>
        <time>2018-09-16T11:56:54Z</time>
      </trkpt>
      <trkpt lat="40.243867" lon="-4.915617">
        <ele>1567.0</ele>
        <time>2018-09-16T11:56:55Z</time>
      </trkpt>
      <trkpt lat="40.243817" lon="-4.915733">
        <ele>1566.0</ele>
        <time>2018-09-16T11:56:56Z</time>
      </trkpt>
      <trkpt lat="40.243750" lon="-4.915833">
        <ele>1566.0</ele>
        <time>2018-09-16T11:56:57Z</time>
      </trkpt>
      <trkpt lat="40.243683" lon="-4.915933">
        <ele>1565.0</ele>
        <time>2018-09-16T11:56:58Z</time>
      </trkpt>
      <trkpt lat="40.243617" lon="-4.916050">
        <ele>1565.0</ele>
        <time>2018-09-16T11:56:59Z</time>
      </trkpt>
      <trkpt lat="40.243550" lon="-4.916150">
        <ele>1566.0</ele>
        <time>2018-09-16T11:57:00Z</time>
      </trkpt>
      <trkpt lat="40.243483" lon="-4.916267">
        <ele>1565.0</ele>
        <time>2018-09-16T11:57:01Z</time>
      </trkpt>
      <trkpt lat="40.243417" lon="-4.916350">
        <ele>1565.0</ele>
        <time>2018-09-16T11:57:02Z</time>
      </trkpt>
      <trkpt lat="40.243333" lon="-4.916450">
        <ele>1565.0</ele>
        <time>2018-09-16T11:57:03Z</time>
      </trkpt>
      <trkpt lat="40.243267" lon="-4.916550">
        <ele>1567.0</ele>
        <time>2018-09-16T11:57:04Z</time>
      </trkpt>
      <trkpt lat="40.243200" lon="-4.916650">
        <ele>1567.0</ele>
        <time>2018-09-16T11:57:05Z</time>
      </trkpt>
      <trkpt lat="40.243133" lon="-4.916750">
        <ele>1566.0</ele>
        <time>2018-09-16T11:57:06Z</time>
      </trkpt>
      <trkpt lat="40.243067" lon="-4.916833">
        <ele>1566.0</ele>
        <time>2018-09-16T11:57:07Z</time>
      </trkpt>
      <trkpt lat="40.243000" lon="-4.916933">
        <ele>1566.0</ele>
        <time>2018-09-16T11:57:08Z</time>
      </trkpt>
      <trkpt lat="40.242917" lon="-4.917017">
        <ele>1565.0</ele>
        <time>2018-09-16T11:57:09Z</time>
      </trkpt>
      <trkpt lat="40.242833" lon="-4.917117">
        <ele>1565.0</ele>
        <time>2018-09-16T11:57:10Z</time>
      </trkpt>
      <trkpt lat="40.242767" lon="-4.917217">
        <ele>1564.0</ele>
        <time>2018-09-16T11:57:11Z</time>
      </trkpt>
      <trkpt lat="40.242683" lon="-4.917317">
        <ele>1564.0</ele>
        <time>2018-09-16T11:57:12Z</time>
      </trkpt>
      <trkpt lat="40.242617" lon="-4.917400">
        <ele>1564.0</ele>
        <time>2018-09-16T11:57:13Z</time>
      </trkpt>
      <trkpt lat="40.242550" lon="-4.917483">
        <ele>1563.0</ele>
        <time>2018-09-16T11:57:14Z</time>
      </trkpt>
      <trkpt lat="40.242467" lon="-4.917567">
        <ele>1563.0</ele>
        <time>2018-09-16T11:57:15Z</time>
      </trkpt>
      <trkpt lat="40.242400" lon="-4.917650">
        <ele>1562.0</ele>
        <time>2018-09-16T11:57:16Z</time>
      </trkpt>
      <trkpt lat="40.242317" lon="-4.917750">
        <ele>1562.0</ele>
        <time>2018-09-16T11:57:17Z</time>
      </trkpt>
      <trkpt lat="40.242233" lon="-4.917833">
        <ele>1561.0</ele>
        <time>2018-09-16T11:57:18Z</time>
      </trkpt>
      <trkpt lat="40.242167" lon="-4.917917">
        <ele>1560.0</ele>
        <time>2018-09-16T11:57:19Z</time>
      </trkpt>
      <trkpt lat="40.242083" lon="-4.918000">
        <ele>1559.0</ele>
        <time>2018-09-16T11:57:20Z</time>
      </trkpt>
      <trkpt lat="40.242017" lon="-4.918083">
        <ele>1558.0</ele>
        <time>2018-09-16T11:57:21Z</time>
      </trkpt>
      <trkpt lat="40.241933" lon="-4.918167">
        <ele>1557.0</ele>
        <time>2018-09-16T11:57:22Z</time>
      </trkpt>
      <trkpt lat="40.241867" lon="-4.918250">
        <ele>1556.0</ele>
        <time>2018-09-16T11:57:23Z</time>
      </trkpt>
      <trkpt lat="40.241783" lon="-4.918333">
        <ele>1554.0</ele>
        <time>2018-09-16T11:57:24Z</time>
      </trkpt>
      <trkpt lat="40.241717" lon="-4.918433">
        <ele>1553.0</ele>
        <time>2018-09-16T11:57:25Z</time>
      </trkpt>
      <trkpt lat="40.241633" lon="-4.918500">
        <ele>1551.0</ele>
        <time>2018-09-16T11:57:26Z</time>
      </trkpt>
      <trkpt lat="40.241567" lon="-4.918583">
        <ele>1549.0</ele>
        <time>2018-09-16T11:57:27Z</time>
      </trkpt>
      <trkpt lat="40.241483" lon="-4.918667">
        <ele>1547.0</ele>
        <time>2018-09-16T11:57:28Z</time>
      </trkpt>
      <trkpt lat="40.241417" lon="-4.918750">
        <ele>1546.0</ele>
        <time>2018-09-16T11:57:29Z</time>
      </trkpt>
      <trkpt lat="40.241350" lon="-4.918833">
        <ele>1543.0</ele>
        <time>2018-09-16T11:57:30Z</time>
      </trkpt>
      <trkpt lat="40.241283" lon="-4.918917">
        <ele>1541.0</ele>
        <time>2018-09-16T11:57:31Z</time>
      </trkpt>
      <trkpt lat="40.241217" lon="-4.918983">
        <ele>1540.0</ele>
        <time>2018-09-16T11:57:32Z</time>
      </trkpt>
      <trkpt lat="40.241167" lon="-4.919050">
        <ele>1538.0</ele>
        <time>2018-09-16T11:57:33Z</time>
      </trkpt>
      <trkpt lat="40.241100" lon="-4.919117">
        <ele>1535.0</ele>
        <time>2018-09-16T11:57:34Z</time>
      </trkpt>
      <trkpt lat="40.241050" lon="-4.919183">
        <ele>1533.0</ele>
        <time>2018-09-16T11:57:35Z</time>
      </trkpt>
      <trkpt lat="40.240967" lon="-4.919250">
        <ele>1532.0</ele>
        <time>2018-09-16T11:57:36Z</time>
      </trkpt>
      <trkpt lat="40.240900" lon="-4.919317">
        <ele>1538.0</ele>
        <time>2018-09-16T11:57:37Z</time>
      </trkpt>
      <trkpt lat="40.240833" lon="-4.919400">
        <ele>1536.0</ele>
        <time>2018-09-16T11:57:38Z</time>
      </trkpt>
      <trkpt lat="40.240767" lon="-4.919467">
        <ele>1535.0</ele>
        <time>2018-09-16T11:57:39Z</time>
      </trkpt>
      <trkpt lat="40.240700" lon="-4.919533">
        <ele>1533.0</ele>
        <time>2018-09-16T11:57:40Z</time>
      </trkpt>
      <trkpt lat="40.240633" lon="-4.919617">
        <ele>1533.0</ele>
        <time>2018-09-16T11:57:41Z</time>
      </trkpt>
      <trkpt lat="40.240583" lon="-4.919717">
        <ele>1531.0</ele>
        <time>2018-09-16T11:57:42Z</time>
      </trkpt>
      <trkpt lat="40.240567" lon="-4.919800">
        <ele>1529.0</ele>
        <time>2018-09-16T11:57:43Z</time>
      </trkpt>
      <trkpt lat="40.240567" lon="-4.919900">
        <ele>1529.0</ele>
        <time>2018-09-16T11:57:44Z</time>
      </trkpt>
      <trkpt lat="40.240600" lon="-4.920000">
        <ele>1528.0</ele>
        <time>2018-09-16T11:57:45Z</time>
      </trkpt>
      <trkpt lat="40.240667" lon="-4.920067">
        <ele>1527.0</ele>
        <time>2018-09-16T11:57:46Z</time>
      </trkpt>
      <trkpt lat="40.240733" lon="-4.920083">
        <ele>1525.0</ele>
        <time>2018-09-16T11:57:47Z</time>
      </trkpt>
      <trkpt lat="40.240833" lon="-4.920083">
        <ele>1522.0</ele>
        <time>2018-09-16T11:57:48Z</time>
      </trkpt>
      <trkpt lat="40.240917" lon="-4.920067">
        <ele>1520.0</ele>
        <time>2018-09-16T11:57:49Z</time>
      </trkpt>
      <trkpt lat="40.240983" lon="-4.920033">
        <ele>1516.0</ele>
        <time>2018-09-16T11:57:50Z</time>
      </trkpt>
      <trkpt lat="40.241050" lon="-4.919967">
        <ele>1514.0</ele>
        <time>2018-09-16T11:57:51Z</time>
      </trkpt>
      <trkpt lat="40.241100" lon="-4.919883">
        <ele>1511.0</ele>
        <time>2018-09-16T11:57:52Z</time>
      </trkpt>
      <trkpt lat="40.241150" lon="-4.919783">
        <ele>1508.0</ele>
        <time>2018-09-16T11:57:53Z</time>
      </trkpt>
      <trkpt lat="40.241183" lon="-4.919683">
        <ele>1505.0</ele>
        <time>2018-09-16T11:57:54Z</time>
      </trkpt>
      <trkpt lat="40.241233" lon="-4.919567">
        <ele>1502.0</ele>
        <time>2018-09-16T11:57:55Z</time>
      </trkpt>
      <trkpt lat="40.241267" lon="-4.919467">
        <ele>1498.0</ele>
        <time>2018-09-16T11:57:56Z</time>
      </trkpt>
      <trkpt lat="40.241300" lon="-4.919350">
        <ele>1495.0</ele>
        <time>2018-09-16T11:57:57Z</time>
      </trkpt>
      <trkpt lat="40.241350" lon="-4.919233">
        <ele>1498.0</ele>
        <time>2018-09-16T11:57:58Z</time>
      </trkpt>
      <trkpt lat="40.241400" lon="-4.919117">
        <ele>1498.0</ele>
        <time>2018-09-16T11:57:59Z</time>
      </trkpt>
      <trkpt lat="40.241433" lon="-4.919000">
        <ele>1497.0</ele>
        <time>2018-09-16T11:58:00Z</time>
      </trkpt>
      <trkpt lat="40.241483" lon="-4.918867">
        <ele>1496.0</ele>
        <time>2018-09-16T11:58:01Z</time>
      </trkpt>
      <trkpt lat="40.241517" lon="-4.918750">
        <ele>1494.0</ele>
        <time>2018-09-16T11:58:02Z</time>
      </trkpt>
      <trkpt lat="40.241567" lon="-4.918633">
        <ele>1493.0</ele>
        <time>2018-09-16T11:58:03Z</time>
      </trkpt>
      <trkpt lat="40.241617" lon="-4.918533">
        <ele>1491.0</ele>
        <time>2018-09-16T11:58:04Z</time>
      </trkpt>
      <trkpt lat="40.241667" lon="-4.918417">
        <ele>1490.0</ele>
        <time>2018-09-16T11:58:05Z</time>
      </trkpt>
      <trkpt lat="40.241717" lon="-4.918300">
        <ele>1488.0</ele>
        <time>2018-09-16T11:58:06Z</time>
      </trkpt>
      <trkpt lat="40.241783" lon="-4.918183">
        <ele>1485.0</ele>
        <time>2018-09-16T11:58:07Z</time>
      </trkpt>
      <trkpt lat="40.241850" lon="-4.918067">
        <ele>1482.0</ele>
        <time>2018-09-16T11:58:08Z</time>
      </trkpt>
      <trkpt lat="40.241917" lon="-4.917950">
        <ele>1478.0</ele>
        <time>2018-09-16T11:58:09Z</time>
      </trkpt>
      <trkpt lat="40.241967" lon="-4.917833">
        <ele>1476.0</ele>
        <time>2018-09-16T11:58:10Z</time>
      </trkpt>
      <trkpt lat="40.242017" lon="-4.917717">
        <ele>1474.0</ele>
        <time>2018-09-16T11:58:11Z</time>
      </trkpt>
      <trkpt lat="40.242067" lon="-4.917600">
        <ele>1471.0</ele>
        <time>2018-09-16T11:58:12Z</time>
      </trkpt>
      <trkpt lat="40.242100" lon="-4.917483">
        <ele>1469.0</ele>
        <time>2018-09-16T11:58:13Z</time>
      </trkpt>
      <trkpt lat="40.242133" lon="-4.917367">
        <ele>1467.0</ele>
        <time>2018-09-16T11:58:14Z</time>
      </trkpt>
      <trkpt lat="40.242183" lon="-4.917250">
        <ele>1464.0</ele>
        <time>2018-09-16T11:58:15Z</time>
      </trkpt>
      <trkpt lat="40.242233" lon="-4.917100">
        <ele>1461.0</ele>
        <time>2018-09-16T11:58:16Z</time>
      </trkpt>
      <trkpt lat="40.242267" lon="-4.916967">
        <ele>1458.0</ele>
        <time>2018-09-16T11:58:17Z</time>
      </trkpt>
      <trkpt lat="40.242300" lon="-4.916817">
        <ele>1455.0</ele>
        <time>2018-09-16T11:58:18Z</time>
      </trkpt>
      <trkpt lat="40.242333" lon="-4.916700">
        <ele>1452.0</ele>
        <time>2018-09-16T11:58:19Z</time>
      </trkpt>
      <trkpt lat="40.242367" lon="-4.916583">
        <ele>1450.0</ele>
        <time>2018-09-16T11:58:20Z</time>
      </trkpt>
      <trkpt lat="40.242400" lon="-4.916433">
        <ele>1447.0</ele>
        <time>2018-09-16T11:58:21Z</time>
      </trkpt>
      <trkpt lat="40.242433" lon="-4.916317">
        <ele>1454.0</ele>
        <time>2018-09-16T11:58:22Z</time>
      </trkpt>
      <trkpt lat="40.242467" lon="-4.916200">
        <ele>1453.0</ele>
        <time>2018-09-16T11:58:23Z</time>
      </trkpt>
      <trkpt lat="40.242517" lon="-4.916083">
        <ele>1451.0</ele>
        <time>2018-09-16T11:58:24Z</time>
      </trkpt>
      <trkpt lat="40.242550" lon="-4.915967">
        <ele>1450.0</ele>
        <time>2018-09-16T11:58:25Z</time>
      </trkpt>
      <trkpt lat="40.242583" lon="-4.915833">
        <ele>1448.0</ele>
        <time>2018-09-16T11:58:26Z</time>
      </trkpt>
      <trkpt lat="40.242617" lon="-4.915733">
        <ele>1447.0</ele>
        <time>2018-09-16T11:58:27Z</time>
      </trkpt>
      <trkpt lat="40.242650" lon="-4.915617">
        <ele>1445.0</ele>
        <time>2018-09-16T11:58:28Z</time>
      </trkpt>
      <trkpt lat="40.242683" lon="-4.915500">
        <ele>1443.0</ele>
        <time>2018-09-16T11:58:29Z</time>
      </trkpt>
      <trkpt lat="40.242717" lon="-4.915367">
        <ele>1441.0</ele>
        <time>2018-09-16T11:58:30Z</time>
      </trkpt>
      <trkpt lat="40.242750" lon="-4.915250">
        <ele>1440.0</ele>
        <time>2018-09-16T11:58:31Z</time>
      </trkpt>
      <trkpt lat="40.242767" lon="-4.915133">
        <ele>1438.0</ele>
        <time>2018-09-16T11:58:32Z</time>
      </trkpt>
      <trkpt lat="40.242800" lon="-4.915000">
        <ele>1436.0</ele>
        <time>2018-09-16T11:58:33Z</time>
      </trkpt>
      <trkpt lat="40.242833" lon="-4.914883">
        <ele>1442.0</ele>
        <time>2018-09-16T11:58:34Z</time>
      </trkpt>
      <trkpt lat="40.242850" lon="-4.914767">
        <ele>1442.0</ele>
        <time>2018-09-16T11:58:35Z</time>
      </trkpt>
      <trkpt lat="40.242883" lon="-4.914650">
        <ele>1441.0</ele>
        <time>2018-09-16T11:58:36Z</time>
      </trkpt>
      <trkpt lat="40.242917" lon="-4.914533">
        <ele>1440.0</ele>
        <time>2018-09-16T11:58:37Z</time>
      </trkpt>
      <trkpt lat="40.242950" lon="-4.914417">
        <ele>1440.0</ele>
        <time>2018-09-16T11:58:38Z</time>
      </trkpt>
      <trkpt lat="40.242967" lon="-4.914317">
        <ele>1439.0</ele>
        <time>2018-09-16T11:58:39Z</time>
      </trkpt>
      <trkpt lat="40.243000" lon="-4.914200">
        <ele>1438.0</ele>
        <time>2018-09-16T11:58:40Z</time>
      </trkpt>
      <trkpt lat="40.243017" lon="-4.914083">
        <ele>1438.0</ele>
        <time>2018-09-16T11:58:41Z</time>
      </trkpt>
      <trkpt lat="40.243050" lon="-4.913983">
        <ele>1437.0</ele>
        <time>2018-09-16T11:58:42Z</time>
      </trkpt>
      <trkpt lat="40.243083" lon="-4.913867">
        <ele>1436.0</ele>
        <time>2018-09-16T11:58:43Z</time>
      </trkpt>
      <trkpt lat="40.243117" lon="-4.913767">
        <ele>1436.0</ele>
        <time>2018-09-16T11:58:44Z</time>
      </trkpt>
      <trkpt lat="40.243133" lon="-4.913667">
        <ele>1435.0</ele>
        <time>2018-09-16T11:58:45Z</time>
      </trkpt>
      <trkpt lat="40.243167" lon="-4.913567">
        <ele>1434.0</ele>
        <time>2018-09-16T11:58:46Z</time>
      </trkpt>
      <trkpt lat="40.243200" lon="-4.913450">
        <ele>1434.0</ele>
        <time>2018-09-16T11:58:47Z</time>
      </trkpt>
      <trkpt lat="40.243233" lon="-4.913350">
        <ele>1433.0</ele>
        <time>2018-09-16T11:58:48Z</time>
      </trkpt>
      <trkpt lat="40.243267" lon="-4.913250">
        <ele>1433.0</ele>
        <time>2018-09-16T11:58:49Z</time>
      </trkpt>
      <trkpt lat="40.243300" lon="-4.913167">
        <ele>1433.0</ele>
        <time>2018-09-16T11:58:50Z</time>
      </trkpt>
      <trkpt lat="40.243333" lon="-4.913083">
        <ele>1432.0</ele>
        <time>2018-09-16T11:58:51Z</time>
      </trkpt>
      <trkpt lat="40.243367" lon="-4.912983">
        <ele>1432.0</ele>
        <time>2018-09-16T11:58:52Z</time>
      </trkpt>
      <trkpt lat="40.243400" lon="-4.912867">
        <ele>1432.0</ele>
        <time>2018-09-16T11:58:53Z</time>
      </trkpt>
      <trkpt lat="40.243417" lon="-4.912750">
        <ele>1431.0</ele>
        <time>2018-09-16T11:58:54Z</time>
      </trkpt>
      <trkpt lat="40.243450" lon="-4.912633">
        <ele>1431.0</ele>
        <time>2018-09-16T11:58:55Z</time>
      </trkpt>
      <trkpt lat="40.243483" lon="-4.912517">
        <ele>1430.0</ele>
        <time>2018-09-16T11:58:56Z</time>
      </trkpt>
      <trkpt lat="40.243517" lon="-4.912417">
        <ele>1430.0</ele>
        <time>2018-09-16T11:58:57Z</time>
      </trkpt>
      <trkpt lat="40.243550" lon="-4.912317">
        <ele>1430.0</ele>
        <time>2018-09-16T11:58:58Z</time>
      </trkpt>
      <trkpt lat="40.243600" lon="-4.912217">
        <ele>1429.0</ele>
        <time>2018-09-16T11:58:59Z</time>
      </trkpt>
      <trkpt lat="40.243633" lon="-4.912100">
        <ele>1428.0</ele>
        <time>2018-09-16T11:59:00Z</time>
      </trkpt>
      <trkpt lat="40.243683" lon="-4.911983">
        <ele>1428.0</ele>
        <time>2018-09-16T11:59:01Z</time>
      </trkpt>
      <trkpt lat="40.243717" lon="-4.911883">
        <ele>1427.0</ele>
        <time>2018-09-16T11:59:02Z</time>
      </trkpt>
      <trkpt lat="40.243767" lon="-4.911783">
        <ele>1427.0</ele>
        <time>2018-09-16T11:59:03Z</time>
      </trkpt>
      <trkpt lat="40.243817" lon="-4.911700">
        <ele>1427.0</ele>
        <time>2018-09-16T11:59:04Z</time>
      </trkpt>
      <trkpt lat="40.243850" lon="-4.911600">
        <ele>1426.0</ele>
        <time>2018-09-16T11:59:05Z</time>
      </trkpt>
      <trkpt lat="40.243900" lon="-4.911500">
        <ele>1425.0</ele>
        <time>2018-09-16T11:59:06Z</time>
      </trkpt>
      <trkpt lat="40.243933" lon="-4.911383">
        <ele>1425.0</ele>
        <time>2018-09-16T11:59:07Z</time>
      </trkpt>
      <trkpt lat="40.243983" lon="-4.911283">
        <ele>1424.0</ele>
        <time>2018-09-16T11:59:08Z</time>
      </trkpt>
      <trkpt lat="40.244033" lon="-4.911183">
        <ele>1423.0</ele>
        <time>2018-09-16T11:59:09Z</time>
      </trkpt>
      <trkpt lat="40.244083" lon="-4.911083">
        <ele>1423.0</ele>
        <time>2018-09-16T11:59:10Z</time>
      </trkpt>
      <trkpt lat="40.244117" lon="-4.910983">
        <ele>1422.0</ele>
        <time>2018-09-16T11:59:11Z</time>
      </trkpt>
      <trkpt lat="40.244167" lon="-4.910883">
        <ele>1421.0</ele>
        <time>2018-09-16T11:59:12Z</time>
      </trkpt>
      <trkpt lat="40.244200" lon="-4.910783">
        <ele>1419.0</ele>
        <time>2018-09-16T11:59:13Z</time>
      </trkpt>
      <trkpt lat="40.244250" lon="-4.910683">
        <ele>1418.0</ele>
        <time>2018-09-16T11:59:14Z</time>
      </trkpt>
      <trkpt lat="40.244283" lon="-4.910567">
        <ele>1416.0</ele>
        <time>2018-09-16T11:59:15Z</time>
      </trkpt>
      <trkpt lat="40.244317" lon="-4.910450">
        <ele>1415.0</ele>
        <time>2018-09-16T11:59:16Z</time>
      </trkpt>
      <trkpt lat="40.244350" lon="-4.910350">
        <ele>1413.0</ele>
        <time>2018-09-16T11:59:17Z</time>
      </trkpt>
      <trkpt lat="40.244367" lon="-4.910250">
        <ele>1411.0</ele>
        <time>2018-09-16T11:59:18Z</time>
      </trkpt>
      <trkpt lat="40.244400" lon="-4.910150">
        <ele>1410.0</ele>
        <time>2018-09-16T11:59:19Z</time>
      </trkpt>
      <trkpt lat="40.244433" lon="-4.910050">
        <ele>1408.0</ele>
        <time>2018-09-16T11:59:20Z</time>
      </trkpt>
      <trkpt lat="40.244467" lon="-4.909933">
        <ele>1405.0</ele>
        <time>2018-09-16T11:59:21Z</time>
      </trkpt>
      <trkpt lat="40.244500" lon="-4.909833">
        <ele>1408.0</ele>
        <time>2018-09-16T11:59:22Z</time>
      </trkpt>
      <trkpt lat="40.244533" lon="-4.909717">
        <ele>1408.0</ele>
        <time>2018-09-16T11:59:23Z</time>
      </trkpt>
      <trkpt lat="40.244583" lon="-4.909600">
        <ele>1407.0</ele>
        <time>2018-09-16T11:59:24Z</time>
      </trkpt>
      <trkpt lat="40.244617" lon="-4.909500">
        <ele>1404.0</ele>
        <time>2018-09-16T11:59:25Z</time>
      </trkpt>
      <trkpt lat="40.244667" lon="-4.909400">
        <ele>1402.0</ele>
        <time>2018-09-16T11:59:26Z</time>
      </trkpt>
      <trkpt lat="40.244717" lon="-4.909300">
        <ele>1401.0</ele>
        <time>2018-09-16T11:59:27Z</time>
      </trkpt>
      <trkpt lat="40.244750" lon="-4.909200">
        <ele>1402.0</ele>
        <time>2018-09-16T11:59:28Z</time>
      </trkpt>
      <trkpt lat="40.244800" lon="-4.909083">
        <ele>1402.0</ele>
        <time>2018-09-16T11:59:29Z</time>
      </trkpt>
      <trkpt lat="40.244833" lon="-4.908983">
        <ele>1401.0</ele>
        <time>2018-09-16T11:59:30Z</time>
      </trkpt>
      <trkpt lat="40.244883" lon="-4.908867">
        <ele>1400.0</ele>
        <time>2018-09-16T11:59:31Z</time>
      </trkpt>
      <trkpt lat="40.244917" lon="-4.908750">
        <ele>1400.0</ele>
        <time>2018-09-16T11:59:32Z</time>
      </trkpt>
      <trkpt lat="40.244967" lon="-4.908633">
        <ele>1399.0</ele>
        <time>2018-09-16T11:59:33Z</time>
      </trkpt>
      <trkpt lat="40.245000" lon="-4.908517">
        <ele>1398.0</ele>
        <time>2018-09-16T11:59:34Z</time>
      </trkpt>
      <trkpt lat="40.245050" lon="-4.908400">
        <ele>1398.0</ele>
        <time>2018-09-16T11:59:35Z</time>
      </trkpt>
      <trkpt lat="40.245083" lon="-4.908300">
        <ele>1397.0</ele>
        <time>2018-09-16T11:59:36Z</time>
      </trkpt>
      <trkpt lat="40.245117" lon="-4.908150">
        <ele>1397.0</ele>
        <time>2018-09-16T11:59:37Z</time>
      </trkpt>
      <trkpt lat="40.245150" lon="-4.908050">
        <ele>1397.0</ele>
        <time>2018-09-16T11:59:38Z</time>
      </trkpt>
      <trkpt lat="40.245183" lon="-4.907950">
        <ele>1396.0</ele>
        <time>2018-09-16T11:59:39Z</time>
      </trkpt>
      <trkpt lat="40.245217" lon="-4.907850">
        <ele>1395.0</ele>
        <time>2018-09-16T11:59:40Z</time>
      </trkpt>
      <trkpt lat="40.245250" lon="-4.907750">
        <ele>1394.0</ele>
        <time>2018-09-16T11:59:41Z</time>
      </trkpt>
      <trkpt lat="40.245300" lon="-4.907617">
        <ele>1393.0</ele>
        <time>2018-09-16T11:59:42Z</time>
      </trkpt>
      <trkpt lat="40.245350" lon="-4.907483">
        <ele>1393.0</ele>
        <time>2018-09-16T11:59:43Z</time>
      </trkpt>
      <trkpt lat="40.245367" lon="-4.907367">
        <ele>1392.0</ele>
        <time>2018-09-16T11:59:44Z</time>
      </trkpt>
      <trkpt lat="40.245400" lon="-4.907267">
        <ele>1391.0</ele>
        <time>2018-09-16T11:59:45Z</time>
      </trkpt>
      <trkpt lat="40.245433" lon="-4.907167">
        <ele>1390.0</ele>
        <time>2018-09-16T11:59:46Z</time>
      </trkpt>
      <trkpt lat="40.245467" lon="-4.907067">
        <ele>1388.0</ele>
        <time>2018-09-16T11:59:47Z</time>
      </trkpt>
      <trkpt lat="40.245517" lon="-4.906967">
        <ele>1386.0</ele>
        <time>2018-09-16T11:59:48Z</time>
      </trkpt>
      <trkpt lat="40.245567" lon="-4.906850">
        <ele>1383.0</ele>
        <time>2018-09-16T11:59:49Z</time>
      </trkpt>
      <trkpt lat="40.245633" lon="-4.906750">
        <ele>1381.0</ele>
        <time>2018-09-16T11:59:50Z</time>
      </trkpt>
      <trkpt lat="40.245683" lon="-4.906650">
        <ele>1379.0</ele>
        <time>2018-09-16T11:59:51Z</time>
      </trkpt>
      <trkpt lat="40.245733" lon="-4.906567">
        <ele>1376.0</ele>
        <time>2018-09-16T11:59:52Z</time>
      </trkpt>
      <trkpt lat="40.245783" lon="-4.906500">
        <ele>1373.0</ele>
        <time>2018-09-16T11:59:53Z</time>
      </trkpt>
      <trkpt lat="40.245850" lon="-4.906400">
        <ele>1370.0</ele>
        <time>2018-09-16T11:59:54Z</time>
      </trkpt>
      <trkpt lat="40.245917" lon="-4.906300">
        <ele>1368.0</ele>
        <time>2018-09-16T11:59:55Z</time>
      </trkpt>
      <trkpt lat="40.245983" lon="-4.906217">
        <ele>1366.0</ele>
        <time>2018-09-16T11:59:56Z</time>
      </trkpt>
      <trkpt lat="40.246033" lon="-4.906133">
        <ele>1364.0</ele>
        <time>2018-09-16T11:59:57Z</time>
      </trkpt>
      <trkpt lat="40.246100" lon="-4.906050">
        <ele>1363.0</ele>
        <time>2018-09-16T11:59:58Z</time>
      </trkpt>
      <trkpt lat="40.246150" lon="-4.905983">
        <ele>1362.0</ele>
        <time>2018-09-16T11:59:59Z</time>
      </trkpt>
      <trkpt lat="40.246217" lon="-4.905883">
        <ele>1360.0</ele>
        <time>2018-09-16T12:00:00Z</time>
      </trkpt>
      <trkpt lat="40.246267" lon="-4.905800">
        <ele>1359.0</ele>
        <time>2018-09-16T12:00:01Z</time>
      </trkpt>
      <trkpt lat="40.246333" lon="-4.905700">
        <ele>1357.0</ele>
        <time>2018-09-16T12:00:02Z</time>
      </trkpt>
      <trkpt lat="40.246383" lon="-4.905617">
        <ele>1355.0</ele>
        <time>2018-09-16T12:00:03Z</time>
      </trkpt>
      <trkpt lat="40.246450" lon="-4.905517">
        <ele>1353.0</ele>
        <time>2018-09-16T12:00:04Z</time>
      </trkpt>
      <trkpt lat="40.246517" lon="-4.905417">
        <ele>1352.0</ele>
        <time>2018-09-16T12:00:05Z</time>
      </trkpt>
      <trkpt lat="40.246567" lon="-4.905333">
        <ele>1350.0</ele>
        <time>2018-09-16T12:00:06Z</time>
      </trkpt>
      <trkpt lat="40.246617" lon="-4.905200">
        <ele>1348.0</ele>
        <time>2018-09-16T12:00:07Z</time>
      </trkpt>
      <trkpt lat="40.246667" lon="-4.905100">
        <ele>1350.0</ele>
        <time>2018-09-16T12:00:08Z</time>
      </trkpt>
      <trkpt lat="40.246717" lon="-4.905000">
        <ele>1348.0</ele>
        <time>2018-09-16T12:00:09Z</time>
      </trkpt>
      <trkpt lat="40.246767" lon="-4.904900">
        <ele>1347.0</ele>
        <time>2018-09-16T12:00:10Z</time>
      </trkpt>
      <trkpt lat="40.246817" lon="-4.904800">
        <ele>1346.0</ele>
        <time>2018-09-16T12:00:11Z</time>
      </trkpt>
      <trkpt lat="40.246867" lon="-4.904700">
        <ele>1346.0</ele>
        <time>2018-09-16T12:00:12Z</time>
      </trkpt>
      <trkpt lat="40.246933" lon="-4.904583">
        <ele>1346.0</ele>
        <time>2018-09-16T12:00:13Z</time>
      </trkpt>
      <trkpt lat="40.246983" lon="-4.904467">
        <ele>1344.0</ele>
        <time>2018-09-16T12:00:14Z</time>
      </trkpt>
      <trkpt lat="40.247033" lon="-4.904367">
        <ele>1343.0</ele>
        <time>2018-09-16T12:00:15Z</time>
      </trkpt>
      <trkpt lat="40.247083" lon="-4.904283">
        <ele>1340.0</ele>
        <time>2018-09-16T12:00:16Z</time>
      </trkpt>
      <trkpt lat="40.247150" lon="-4.904200">
        <ele>1338.0</ele>
        <time>2018-09-16T12:00:17Z</time>
      </trkpt>
      <trkpt lat="40.247217" lon="-4.904100">
        <ele>1339.0</ele>
        <time>2018-09-16T12:00:18Z</time>
      </trkpt>
      <trkpt lat="40.247267" lon="-4.904017">
        <ele>1338.0</ele>
        <time>2018-09-16T12:00:19Z</time>
      </trkpt>
      <trkpt lat="40.247317" lon="-4.903900">
        <ele>1337.0</ele>
        <time>2018-09-16T12:00:20Z</time>
      </trkpt>
      <trkpt lat="40.247350" lon="-4.903800">
        <ele>1336.0</ele>
        <time>2018-09-16T12:00:21Z</time>
      </trkpt>
      <trkpt lat="40.247383" lon="-4.903683">
        <ele>1335.0</ele>
        <time>2018-09-16T12:00:22Z</time>
      </trkpt>
      <trkpt lat="40.247417" lon="-4.903567">
        <ele>1333.0</ele>
        <time>2018-09-16T12:00:23Z</time>
      </trkpt>
      <trkpt lat="40.247450" lon="-4.903433">
        <ele>1332.0</ele>
        <time>2018-09-16T12:00:24Z</time>
      </trkpt>
      <trkpt lat="40.247467" lon="-4.903317">
        <ele>1331.0</ele>
        <time>2018-09-16T12:00:25Z</time>
      </trkpt>
      <trkpt lat="40.247500" lon="-4.903200">
        <ele>1329.0</ele>
        <time>2018-09-16T12:00:26Z</time>
      </trkpt>
      <trkpt lat="40.247533" lon="-4.903083">
        <ele>1327.0</ele>
        <time>2018-09-16T12:00:27Z</time>
      </trkpt>
      <trkpt lat="40.247567" lon="-4.902950">
        <ele>1324.0</ele>
        <time>2018-09-16T12:00:28Z</time>
      </trkpt>
      <trkpt lat="40.247600" lon="-4.902817">
        <ele>1320.0</ele>
        <time>2018-09-16T12:00:29Z</time>
      </trkpt>
      <trkpt lat="40.247650" lon="-4.902683">
        <ele>1317.0</ele>
        <time>2018-09-16T12:00:30Z</time>
      </trkpt>
      <trkpt lat="40.247700" lon="-4.902567">
        <ele>1314.0</ele>
        <time>2018-09-16T12:00:31Z</time>
      </trkpt>
      <trkpt lat="40.247750" lon="-4.902467">
        <ele>1311.0</ele>
        <time>2018-09-16T12:00:32Z</time>
      </trkpt>
      <trkpt lat="40.247800" lon="-4.902383">
        <ele>1308.0</ele>
        <time>2018-09-16T12:00:33Z</time>
      </trkpt>
      <trkpt lat="40.247867" lon="-4.902250">
        <ele>1304.0</ele>
        <time>2018-09-16T12:00:34Z</time>
      </trkpt>
      <trkpt lat="40.247917" lon="-4.902133">
        <ele>1307.0</ele>
        <time>2018-09-16T12:00:35Z</time>
      </trkpt>
      <trkpt lat="40.248000" lon="-4.902050">
        <ele>1304.0</ele>
        <time>2018-09-16T12:00:36Z</time>
      </trkpt>
      <trkpt lat="40.248067" lon="-4.901967">
        <ele>1302.0</ele>
        <time>2018-09-16T12:00:37Z</time>
      </trkpt>
      <trkpt lat="40.248150" lon="-4.901900">
        <ele>1300.0</ele>
        <time>2018-09-16T12:00:38Z</time>
      </trkpt>
      <trkpt lat="40.248217" lon="-4.901833">
        <ele>1298.0</ele>
        <time>2018-09-16T12:00:39Z</time>
      </trkpt>
      <trkpt lat="40.248300" lon="-4.901783">
        <ele>1297.0</ele>
        <time>2018-09-16T12:00:40Z</time>
      </trkpt>
      <trkpt lat="40.248367" lon="-4.901733">
        <ele>1295.0</ele>
        <time>2018-09-16T12:00:41Z</time>
      </trkpt>
      <trkpt lat="40.248467" lon="-4.901700">
        <ele>1294.0</ele>
        <time>2018-09-16T12:00:42Z</time>
      </trkpt>
      <trkpt lat="40.248567" lon="-4.901667">
        <ele>1292.0</ele>
        <time>2018-09-16T12:00:43Z</time>
      </trkpt>
      <trkpt lat="40.248683" lon="-4.901683">
        <ele>1290.0</ele>
        <time>2018-09-16T12:00:44Z</time>
      </trkpt>
      <trkpt lat="40.248800" lon="-4.901700">
        <ele>1290.0</ele>
        <time>2018-09-16T12:00:45Z</time>
      </trkpt>
      <trkpt lat="40.248883" lon="-4.901750">
        <ele>1291.0</ele>
        <time>2018-09-16T12:00:46Z</time>
      </trkpt>
      <trkpt lat="40.248950" lon="-4.901833">
        <ele>1291.0</ele>
        <time>2018-09-16T12:00:47Z</time>
      </trkpt>
      <trkpt lat="40.249000" lon="-4.901933">
        <ele>1290.0</ele>
        <time>2018-09-16T12:00:48Z</time>
      </trkpt>
      <trkpt lat="40.249050" lon="-4.902050">
        <ele>1290.0</ele>
        <time>2018-09-16T12:00:49Z</time>
      </trkpt>
      <trkpt lat="40.249050" lon="-4.902150">
        <ele>1290.0</ele>
        <time>2018-09-16T12:00:50Z</time>
      </trkpt>
      <trkpt lat="40.249033" lon="-4.902217">
        <ele>1290.0</ele>
        <time>2018-09-16T12:00:51Z</time>
      </trkpt>
      <trkpt lat="40.248983" lon="-4.902283">
        <ele>1288.0</ele>
        <time>2018-09-16T12:00:52Z</time>
      </trkpt>
      <trkpt lat="40.248933" lon="-4.902300">
        <ele>1286.0</ele>
        <time>2018-09-16T12:00:53Z</time>
      </trkpt>
      <trkpt lat="40.248867" lon="-4.902250">
        <ele>1284.0</ele>
        <time>2018-09-16T12:00:54Z</time>
      </trkpt>
      <trkpt lat="40.248817" lon="-4.902167">
        <ele>1282.0</ele>
        <time>2018-09-16T12:00:55Z</time>
      </trkpt>
      <trkpt lat="40.248800" lon="-4.902050">
        <ele>1279.0</ele>
        <time>2018-09-16T12:00:56Z</time>
      </trkpt>
      <trkpt lat="40.248783" lon="-4.901933">
        <ele>1277.0</ele>
        <time>2018-09-16T12:00:57Z</time>
      </trkpt>
      <trkpt lat="40.248767" lon="-4.901833">
        <ele>1275.0</ele>
        <time>2018-09-16T12:00:58Z</time>
      </trkpt>
      <trkpt lat="40.248733" lon="-4.901733">
        <ele>1274.0</ele>
        <time>2018-09-16T12:00:59Z</time>
      </trkpt>
      <trkpt lat="40.248683" lon="-4.901650">
        <ele>1273.0</ele>
        <time>2018-09-16T12:01:00Z</time>
      </trkpt>
      <trkpt lat="40.248633" lon="-4.901567">
        <ele>1274.0</ele>
        <time>2018-09-16T12:01:01Z</time>
      </trkpt>
      <trkpt lat="40.248600" lon="-4.901500">
        <ele>1275.0</ele>
        <time>2018-09-16T12:01:02Z</time>
      </trkpt>
      <trkpt lat="40.248567" lon="-4.901433">
        <ele>1277.0</ele>
        <time>2018-09-16T12:01:03Z</time>
      </trkpt>
      <trkpt lat="40.248533" lon="-4.901350">
        <ele>1278.0</ele>
        <time>2018-09-16T12:01:04Z</time>
      </trkpt>
      <trkpt lat="40.248500" lon="-4.901250">
        <ele>1278.0</ele>
        <time>2018-09-16T12:01:05Z</time>
      </trkpt>
      <trkpt lat="40.248450" lon="-4.901183">
        <ele>1278.0</ele>
        <time>2018-09-16T12:01:06Z</time>
      </trkpt>
      <trkpt lat="40.248417" lon="-4.901133">
        <ele>1279.0</ele>
        <time>2018-09-16T12:01:07Z</time>
      </trkpt>
      <trkpt lat="40.248383" lon="-4.901133">
        <ele>1279.0</ele>
        <time>2018-09-16T12:01:08Z</time>
      </trkpt>
      <trkpt lat="40.248367" lon="-4.901183">
        <ele>1279.0</ele>
        <time>2018-09-16T12:01:09Z</time>
      </trkpt>
      <trkpt lat="40.248350" lon="-4.901250">
        <ele>1279.0</ele>
        <time>2018-09-16T12:01:10Z</time>
      </trkpt>
      <trkpt lat="40.248367" lon="-4.901333">
        <ele>1279.0</ele>
        <time>2018-09-16T12:01:11Z</time>
      </trkpt>
      <trkpt lat="40.248400" lon="-4.901433">
        <ele>1279.0</ele>
        <time>2018-09-16T12:01:12Z</time>
      </trkpt>
      <trkpt lat="40.248500" lon="-4.901467">
        <ele>1280.0</ele>
        <time>2018-09-16T12:01:13Z</time>
      </trkpt>
      <trkpt lat="40.248600" lon="-4.901450">
        <ele>1280.0</ele>
        <time>2018-09-16T12:01:14Z</time>
      </trkpt>
      <trkpt lat="40.248700" lon="-4.901367">
        <ele>1280.0</ele>
        <time>2018-09-16T12:01:15Z</time>
      </trkpt>
      <trkpt lat="40.248783" lon="-4.901233">
        <ele>1280.0</ele>
        <time>2018-09-16T12:01:16Z</time>
      </trkpt>
      <trkpt lat="40.248833" lon="-4.901083">
        <ele>1279.0</ele>
        <time>2018-09-16T12:01:17Z</time>
      </trkpt>
      <trkpt lat="40.248883" lon="-4.900983">
        <ele>1280.0</ele>
        <time>2018-09-16T12:01:18Z</time>
      </trkpt>
      <trkpt lat="40.248933" lon="-4.900883">
        <ele>1281.0</ele>
        <time>2018-09-16T12:01:19Z</time>
      </trkpt>
      <trkpt lat="40.248983" lon="-4.900800">
        <ele>1282.0</ele>
        <time>2018-09-16T12:01:20Z</time>
      </trkpt>
      <trkpt lat="40.249017" lon="-4.900700">
        <ele>1281.0</ele>
        <time>2018-09-16T12:01:21Z</time>
      </trkpt>
      <trkpt lat="40.249050" lon="-4.900550">
        <ele>1281.0</ele>
        <time>2018-09-16T12:01:22Z</time>
      </trkpt>
      <trkpt lat="40.249067" lon="-4.900433">
        <ele>1282.0</ele>
        <time>2018-09-16T12:01:23Z</time>
      </trkpt>
      <trkpt lat="40.249067" lon="-4.900350">
        <ele>1282.0</ele>
        <time>2018-09-16T12:01:24Z</time>
      </trkpt>
      <trkpt lat="40.249067" lon="-4.900267">
        <ele>1282.0</ele>
        <time>2018-09-16T12:01:25Z</time>
      </trkpt>
      <trkpt lat="40.249083" lon="-4.900200">
        <ele>1283.0</ele>
        <time>2018-09-16T12:01:26Z</time>
      </trkpt>
      <trkpt lat="40.249050" lon="-4.900150">
        <ele>1283.0</ele>
        <time>2018-09-16T12:01:27Z</time>
      </trkpt>
      <trkpt lat="40.249017" lon="-4.900083">
        <ele>1283.0</ele>
        <time>2018-09-16T12:01:28Z</time>
      </trkpt>
      <trkpt lat="40.248950" lon="-4.900050">
        <ele>1283.0</ele>
        <time>2018-09-16T12:01:29Z</time>
      </trkpt>
      <trkpt lat="40.248883" lon="-4.900067">
        <ele>1283.0</ele>
        <time>2018-09-16T12:01:30Z</time>
      </trkpt>
      <trkpt lat="40.248833" lon="-4.900100">
        <ele>1283.0</ele>
        <time>2018-09-16T12:01:31Z</time>
      </trkpt>
      <trkpt lat="40.248783" lon="-4.900167">
        <ele>1283.0</ele>
        <time>2018-09-16T12:01:32Z</time>
      </trkpt>
      <trkpt lat="40.248750" lon="-4.900200">
        <ele>1284.0</ele>
        <time>2018-09-16T12:01:33Z</time>
      </trkpt>
      <trkpt lat="40.248717" lon="-4.900217">
        <ele>1284.0</ele>
        <time>2018-09-16T12:01:34Z</time>
      </trkpt>
      <trkpt lat="40.248667" lon="-4.900250">
        <ele>1284.0</ele>
        <time>2018-09-16T12:01:35Z</time>
      </trkpt>
      <trkpt lat="40.248617" lon="-4.900300">
        <ele>1284.0</ele>
        <time>2018-09-16T12:01:36Z</time>
      </trkpt>
      <trkpt lat="40.248550" lon="-4.900350">
        <ele>1285.0</ele>
        <time>2018-09-16T12:01:37Z</time>
      </trkpt>
      <trkpt lat="40.248483" lon="-4.900367">
        <ele>1290.0</ele>
        <time>2018-09-16T12:01:38Z</time>
      </trkpt>
      <trkpt lat="40.248433" lon="-4.900367">
        <ele>1295.0</ele>
        <time>2018-09-16T12:01:39Z</time>
      </trkpt>
      <trkpt lat="40.248383" lon="-4.900333">
        <ele>1299.0</ele>
        <time>2018-09-16T12:01:40Z</time>
      </trkpt>
      <trkpt lat="40.248333" lon="-4.900333">
        <ele>1301.0</ele>
        <time>2018-09-16T12:01:41Z</time>
      </trkpt>
      <trkpt lat="40.248283" lon="-4.900367">
        <ele>1304.0</ele>
        <time>2018-09-16T12:01:42Z</time>
      </trkpt>
      <trkpt lat="40.248250" lon="-4.900433">
        <ele>1298.0</ele>
        <time>2018-09-16T12:01:43Z</time>
      </trkpt>
      <trkpt lat="40.248233" lon="-4.900517">
        <ele>1299.0</ele>
        <time>2018-09-16T12:01:44Z</time>
      </trkpt>
      <trkpt lat="40.248267" lon="-4.900600">
        <ele>1299.0</ele>
        <time>2018-09-16T12:01:45Z</time>
      </trkpt>
      <trkpt lat="40.248333" lon="-4.900683">
        <ele>1300.0</ele>
        <time>2018-09-16T12:01:46Z</time>
      </trkpt>
      <trkpt lat="40.248433" lon="-4.900717">
        <ele>1300.0</ele>
        <time>2018-09-16T12:01:47Z</time>
      </trkpt>
      <trkpt lat="40.248550" lon="-4.900683">
        <ele>1300.0</ele>
        <time>2018-09-16T12:01:48Z</time>
      </trkpt>
      <trkpt lat="40.248650" lon="-4.900600">
        <ele>1299.0</ele>
        <time>2018-09-16T12:01:49Z</time>
      </trkpt>
      <trkpt lat="40.248683" lon="-4.900450">
        <ele>1297.0</ele>
        <time>2018-09-16T12:01:50Z</time>
      </trkpt>
      <trkpt lat="40.248683" lon="-4.900300">
        <ele>1296.0</ele>
        <time>2018-09-16T12:01:51Z</time>
      </trkpt>
      <trkpt lat="40.248650" lon="-4.900183">
        <ele>1295.0</ele>
        <time>2018-09-16T12:01:52Z</time>
      </trkpt>
      <trkpt lat="40.248617" lon="-4.900100">
        <ele>1296.0</ele>
        <time>2018-09-16T12:01:53Z</time>
      </trkpt>
      <trkpt lat="40.248567" lon="-4.900050">
        <ele>1299.0</ele>
        <time>2018-09-16T12:01:54Z</time>
      </trkpt>
      <trkpt lat="40.248517" lon="-4.900017">
        <ele>1301.0</ele>
        <time>2018-09-16T12:01:55Z</time>
      </trkpt>
      <trkpt lat="40.248467" lon="-4.900017">
        <ele>1302.0</ele>
        <time>2018-09-16T12:01:56Z</time>
      </trkpt>
      <trkpt lat="40.248417" lon="-4.900017">
        <ele>1303.0</ele>
        <time>2018-09-16T12:01:57Z</time>
      </trkpt>
      <trkpt lat="40.248367" lon="-4.900033">
        <ele>1301.0</ele>
        <time>2018-09-16T12:01:58Z</time>
      </trkpt>
      <trkpt lat="40.248317" lon="-4.900067">
        <ele>1301.0</ele>
        <time>2018-09-16T12:01:59Z</time>
      </trkpt>
      <trkpt lat="40.248250" lon="-4.900133">
        <ele>1301.0</ele>
        <time>2018-09-16T12:02:00Z</time>
      </trkpt>
      <trkpt lat="40.248183" lon="-4.900217">
        <ele>1301.0</ele>
        <time>2018-09-16T12:02:01Z</time>
      </trkpt>
      <trkpt lat="40.248133" lon="-4.900283">
        <ele>1301.0</ele>
        <time>2018-09-16T12:02:02Z</time>
      </trkpt>
      <trkpt lat="40.248083" lon="-4.900317">
        <ele>1302.0</ele>
        <time>2018-09-16T12:02:03Z</time>
      </trkpt>
      <trkpt lat="40.248017" lon="-4.900333">
        <ele>1303.0</ele>
        <time>2018-09-16T12:02:04Z</time>
      </trkpt>
      <trkpt lat="40.247967" lon="-4.900333">
        <ele>1304.0</ele>
        <time>2018-09-16T12:02:05Z</time>
      </trkpt>
      <trkpt lat="40.247900" lon="-4.900350">
        <ele>1305.0</ele>
        <time>2018-09-16T12:02:06Z</time>
      </trkpt>
      <trkpt lat="40.247850" lon="-4.900417">
        <ele>1305.0</ele>
        <time>2018-09-16T12:02:07Z</time>
      </trkpt>
      <trkpt lat="40.247833" lon="-4.900517">
        <ele>1305.0</ele>
        <time>2018-09-16T12:02:08Z</time>
      </trkpt>
      <trkpt lat="40.247833" lon="-4.900617">
        <ele>1305.0</ele>
        <time>2018-09-16T12:02:09Z</time>
      </trkpt>
      <trkpt lat="40.247850" lon="-4.900700">
        <ele>1305.0</ele>
        <time>2018-09-16T12:02:10Z</time>
      </trkpt>
      <trkpt lat="40.247883" lon="-4.900783">
        <ele>1305.0</ele>
        <time>2018-09-16T12:02:11Z</time>
      </trkpt>
      <trkpt lat="40.247950" lon="-4.900833">
        <ele>1305.0</ele>
        <time>2018-09-16T12:02:12Z</time>
      </trkpt>
      <trkpt lat="40.248033" lon="-4.900867">
        <ele>1305.0</ele>
        <time>2018-09-16T12:02:13Z</time>
      </trkpt>
      <trkpt lat="40.248133" lon="-4.900883">
        <ele>1305.0</ele>
        <time>2018-09-16T12:02:14Z</time>
      </trkpt>
      <trkpt lat="40.248233" lon="-4.900850">
        <ele>1305.0</ele>
        <time>2018-09-16T12:02:15Z</time>
      </trkpt>
      <trkpt lat="40.248317" lon="-4.900783">
        <ele>1306.0</ele>
        <time>2018-09-16T12:02:16Z</time>
      </trkpt>
      <trkpt lat="40.248383" lon="-4.900683">
        <ele>1307.0</ele>
        <time>2018-09-16T12:02:17Z</time>
      </trkpt>
      <trkpt lat="40.248433" lon="-4.900567">
        <ele>1307.0</ele>
        <time>2018-09-16T12:02:18Z</time>
      </trkpt>
      <trkpt lat="40.248467" lon="-4.900450">
        <ele>1308.0</ele>
        <time>2018-09-16T12:02:19Z</time>
      </trkpt>
      <trkpt lat="40.248483" lon="-4.900317">
        <ele>1309.0</ele>
        <time>2018-09-16T12:02:20Z</time>
      </trkpt>
      <trkpt lat="40.248467" lon="-4.900183">
        <ele>1312.0</ele>
        <time>2018-09-16T12:02:21Z</time>
      </trkpt>
      <trkpt lat="40.248450" lon="-4.900083">
        <ele>1313.0</ele>
        <time>2018-09-16T12:02:22Z</time>
      </trkpt>
      <trkpt lat="40.248417" lon="-4.900000">
        <ele>1315.0</ele>
        <time>2018-09-16T12:02:23Z</time>
      </trkpt>
      <trkpt lat="40.248383" lon="-4.899950">
        <ele>1317.0</ele>
        <time>2018-09-16T12:02:24Z</time>
      </trkpt>
      <trkpt lat="40.248333" lon="-4.899933">
        <ele>1313.0</ele>
        <time>2018-09-16T12:02:25Z</time>
      </trkpt>
      <trkpt lat="40.248283" lon="-4.899950">
        <ele>1313.0</ele>
        <time>2018-09-16T12:02:26Z</time>
      </trkpt>
      <trkpt lat="40.248233" lon="-4.900000">
        <ele>1312.0</ele>
        <time>2018-09-16T12:02:27Z</time>
      </trkpt>
      <trkpt lat="40.248233" lon="-4.900083">
        <ele>1311.0</ele>
        <time>2018-09-16T12:02:28Z</time>
      </trkpt>
      <trkpt lat="40.248250" lon="-4.900183">
        <ele>1311.0</ele>
        <time>2018-09-16T12:02:29Z</time>
      </trkpt>
      <trkpt lat="40.248300" lon="-4.900267">
        <ele>1310.0</ele>
        <time>2018-09-16T12:02:30Z</time>
      </trkpt>
      <trkpt lat="40.248367" lon="-4.900333">
        <ele>1310.0</ele>
        <time>2018-09-16T12:02:31Z</time>
      </trkpt>
      <trkpt lat="40.248450" lon="-4.900383">
        <ele>1309.0</ele>
        <time>2018-09-16T12:02:32Z</time>
      </trkpt>
      <trkpt lat="40.248567" lon="-4.900400">
        <ele>1309.0</ele>
        <time>2018-09-16T12:02:33Z</time>
      </trkpt>
      <trkpt lat="40.248650" lon="-4.900383">
        <ele>1309.0</ele>
        <time>2018-09-16T12:02:34Z</time>
      </trkpt>
      <trkpt lat="40.248750" lon="-4.900333">
        <ele>1310.0</ele>
        <time>2018-09-16T12:02:35Z</time>
      </trkpt>
      <trkpt lat="40.248833" lon="-4.900283">
        <ele>1311.0</ele>
        <time>2018-09-16T12:02:36Z</time>
      </trkpt>
      <trkpt lat="40.248917" lon="-4.900233">
        <ele>1313.0</ele>
        <time>2018-09-16T12:02:37Z</time>
      </trkpt>
      <trkpt lat="40.249000" lon="-4.900167">
        <ele>1314.0</ele>
        <time>2018-09-16T12:02:38Z</time>
      </trkpt>
      <trkpt lat="40.249083" lon="-4.900067">
        <ele>1316.0</ele>
        <time>2018-09-16T12:02:39Z</time>
      </trkpt>
      <trkpt lat="40.249117" lon="-4.899967">
        <ele>1317.0</ele>
        <time>2018-09-16T12:02:40Z</time>
      </trkpt>
      <trkpt lat="40.249117" lon="-4.899867">
        <ele>1318.0</ele>
        <time>2018-09-16T12:02:41Z</time>
      </trkpt>
      <trkpt lat="40.249067" lon="-4.899817">
        <ele>1316.0</ele>
        <time>2018-09-16T12:02:42Z</time>
      </trkpt>
      <trkpt lat="40.249000" lon="-4.899833">
        <ele>1315.0</ele>
        <time>2018-09-16T12:02:43Z</time>
      </trkpt>
      <trkpt lat="40.248933" lon="-4.899917">
        <ele>1314.0</ele>
        <time>2018-09-16T12:02:44Z</time>
      </trkpt>
      <trkpt lat="40.248883" lon="-4.900000">
        <ele>1315.0</ele>
        <time>2018-09-16T12:02:45Z</time>
      </trkpt>
      <trkpt lat="40.248850" lon="-4.900067">
        <ele>1314.0</ele>
        <time>2018-09-16T12:02:46Z</time>
      </trkpt>
      <trkpt lat="40.248817" lon="-4.900117">
        <ele>1315.0</ele>
        <time>2018-09-16T12:02:47Z</time>
      </trkpt>
      <trkpt lat="40.248750" lon="-4.900133">
        <ele>1315.0</ele>
        <time>2018-09-16T12:02:48Z</time>
      </trkpt>
      <trkpt lat="40.248683" lon="-4.900167">
        <ele>1315.0</ele>
        <time>2018-09-16T12:02:49Z</time>
      </trkpt>
      <trkpt lat="40.248633" lon="-4.900200">
        <ele>1315.0</ele>
        <time>2018-09-16T12:02:50Z</time>
      </trkpt>
      <trkpt lat="40.248583" lon="-4.900217">
        <ele>1316.0</ele>
        <time>2018-09-16T12:02:51Z</time>
      </trkpt>
      <trkpt lat="40.248550" lon="-4.900250">
        <ele>1317.0</ele>
        <time>2018-09-16T12:02:52Z</time>
      </trkpt>
      <trkpt lat="40.248517" lon="-4.900283">
        <ele>1318.0</ele>
        <time>2018-09-16T12:02:53Z</time>
      </trkpt>
      <trkpt lat="40.248483" lon="-4.900333">
        <ele>1319.0</ele>
        <time>2018-09-16T12:02:54Z</time>
      </trkpt>
      <trkpt lat="40.248450" lon="-4.900417">
        <ele>1319.0</ele>
        <time>2018-09-16T12:02:55Z</time>
      </trkpt>
      <trkpt lat="40.248433" lon="-4.900533">
        <ele>1320.0</ele>
        <time>2018-09-16T12:02:56Z</time>
      </trkpt>
      <trkpt lat="40.248467" lon="-4.900633">
        <ele>1321.0</ele>
        <time>2018-09-16T12:02:57Z</time>
      </trkpt>
      <trkpt lat="40.248550" lon="-4.900683">
        <ele>1321.0</ele>
        <time>2018-09-16T12:02:58Z</time>
      </trkpt>
      <trkpt lat="40.248650" lon="-4.900683">
        <ele>1321.0</ele>
        <time>2018-09-16T12:02:59Z</time>
      </trkpt>
      <trkpt lat="40.248750" lon="-4.900650">
        <ele>1321.0</ele>
        <time>2018-09-16T12:03:00Z</time>
      </trkpt>
      <trkpt lat="40.248833" lon="-4.900600">
        <ele>1321.0</ele>
        <time>2018-09-16T12:03:01Z</time>
      </trkpt>
      <trkpt lat="40.248917" lon="-4.900517">
        <ele>1320.0</ele>
        <time>2018-09-16T12:03:02Z</time>
      </trkpt>
      <trkpt lat="40.248967" lon="-4.900417">
        <ele>1320.0</ele>
        <time>2018-09-16T12:03:03Z</time>
      </trkpt>
      <trkpt lat="40.248983" lon="-4.900333">
        <ele>1321.0</ele>
        <time>2018-09-16T12:03:04Z</time>
      </trkpt>
      <trkpt lat="40.248967" lon="-4.900267">
        <ele>1319.0</ele>
        <time>2018-09-16T12:03:05Z</time>
      </trkpt>
      <trkpt lat="40.248917" lon="-4.900217">
        <ele>1318.0</ele>
        <time>2018-09-16T12:03:06Z</time>
      </trkpt>
      <trkpt lat="40.248867" lon="-4.900200">
        <ele>1319.0</ele>
        <time>2018-09-16T12:03:07Z</time>
      </trkpt>
      <trkpt lat="40.248817" lon="-4.900183">
        <ele>1319.0</ele>
        <time>2018-09-16T12:03:08Z</time>
      </trkpt>
      <trkpt lat="40.248750" lon="-4.900183">
        <ele>1320.0</ele>
        <time>2018-09-16T12:03:09Z</time>
      </trkpt>
      <trkpt lat="40.248700" lon="-4.900233">
        <ele>1320.0</ele>
        <time>2018-09-16T12:03:10Z</time>
      </trkpt>
      <trkpt lat="40.248667" lon="-4.900300">
        <ele>1320.0</ele>
        <time>2018-09-16T12:03:11Z</time>
      </trkpt>
      <trkpt lat="40.248650" lon="-4.900383">
        <ele>1321.0</ele>
        <time>2018-09-16T12:03:12Z</time>
      </trkpt>
      <trkpt lat="40.248633" lon="-4.900467">
        <ele>1321.0</ele>
        <time>2018-09-16T12:03:13Z</time>
      </trkpt>
      <trkpt lat="40.248633" lon="-4.900550">
        <ele>1321.0</ele>
        <time>2018-09-16T12:03:14Z</time>
      </trkpt>
      <trkpt lat="40.248650" lon="-4.900633">
        <ele>1321.0</ele>
        <time>2018-09-16T12:03:15Z</time>
      </trkpt>
      <trkpt lat="40.248683" lon="-4.900733">
        <ele>1320.0</ele>
        <time>2018-09-16T12:03:16Z</time>
      </trkpt>
      <trkpt lat="40.248750" lon="-4.900833">
        <ele>1320.0</ele>
        <time>2018-09-16T12:03:17Z</time>
      </trkpt>
      <trkpt lat="40.248833" lon="-4.900917">
        <ele>1319.0</ele>
        <time>2018-09-16T12:03:18Z</time>
      </trkpt>
      <trkpt lat="40.248933" lon="-4.900983">
        <ele>1319.0</ele>
        <time>2018-09-16T12:03:19Z</time>
      </trkpt>
      <trkpt lat="40.249033" lon="-4.901017">
        <ele>1320.0</ele>
        <time>2018-09-16T12:03:20Z</time>
      </trkpt>
      <trkpt lat="40.249150" lon="-4.901067">
        <ele>1321.0</ele>
        <time>2018-09-16T12:03:21Z</time>
      </trkpt>
      <trkpt lat="40.249250" lon="-4.901100">
        <ele>1321.0</ele>
        <time>2018-09-16T12:03:22Z</time>
      </trkpt>
      <trkpt lat="40.249350" lon="-4.901117">
        <ele>1322.0</ele>
        <time>2018-09-16T12:03:23Z</time>
      </trkpt>
      <trkpt lat="40.249450" lon="-4.901100">
        <ele>1323.0</ele>
        <time>2018-09-16T12:03:24Z</time>
      </trkpt>
      <trkpt lat="40.249550" lon="-4.901050">
        <ele>1325.0</ele>
        <time>2018-09-16T12:03:25Z</time>
      </trkpt>
      <trkpt lat="40.249633" lon="-4.900967">
        <ele>1325.0</ele>
        <time>2018-09-16T12:03:26Z</time>
      </trkpt>
      <trkpt lat="40.249700" lon="-4.900850">
        <ele>1326.0</ele>
        <time>2018-09-16T12:03:27Z</time>
      </trkpt>
      <trkpt lat="40.249733" lon="-4.900733">
        <ele>1328.0</ele>
        <time>2018-09-16T12:03:28Z</time>
      </trkpt>
      <trkpt lat="40.249733" lon="-4.900650">
        <ele>1329.0</ele>
        <time>2018-09-16T12:03:29Z</time>
      </trkpt>
      <trkpt lat="40.249700" lon="-4.900550">
        <ele>1327.0</ele>
        <time>2018-09-16T12:03:30Z</time>
      </trkpt>
      <trkpt lat="40.249667" lon="-4.900467">
        <ele>1329.0</ele>
        <time>2018-09-16T12:03:31Z</time>
      </trkpt>
      <trkpt lat="40.249617" lon="-4.900433">
        <ele>1331.0</ele>
        <time>2018-09-16T12:03:32Z</time>
      </trkpt>
      <trkpt lat="40.249567" lon="-4.900400">
        <ele>1333.0</ele>
        <time>2018-09-16T12:03:33Z</time>
      </trkpt>
      <trkpt lat="40.249533" lon="-4.900400">
        <ele>1335.0</ele>
        <time>2018-09-16T12:03:34Z</time>
      </trkpt>
      <trkpt lat="40.249483" lon="-4.900400">
        <ele>1336.0</ele>
        <time>2018-09-16T12:03:35Z</time>
      </trkpt>
      <trkpt lat="40.249433" lon="-4.900433">
        <ele>1336.0</ele>
        <time>2018-09-16T12:03:36Z</time>
      </trkpt>
      <trkpt lat="40.249383" lon="-4.900500">
        <ele>1336.0</ele>
        <time>2018-09-16T12:03:37Z</time>
      </trkpt>
      <trkpt lat="40.249333" lon="-4.900550">
        <ele>1337.0</ele>
        <time>2018-09-16T12:03:38Z</time>
      </trkpt>
      <trkpt lat="40.249300" lon="-4.900617">
        <ele>1339.0</ele>
        <time>2018-09-16T12:03:39Z</time>
      </trkpt>
      <trkpt lat="40.249250" lon="-4.900650">
        <ele>1343.0</ele>
        <time>2018-09-16T12:03:40Z</time>
      </trkpt>
      <trkpt lat="40.249217" lon="-4.900700">
        <ele>1344.0</ele>
        <time>2018-09-16T12:03:41Z</time>
      </trkpt>
      <trkpt lat="40.249200" lon="-4.900767">
        <ele>1346.0</ele>
        <time>2018-09-16T12:03:42Z</time>
      </trkpt>
      <trkpt lat="40.249200" lon="-4.900850">
        <ele>1348.0</ele>
        <time>2018-09-16T12:03:43Z</time>
      </trkpt>
      <trkpt lat="40.249217" lon="-4.900950">
        <ele>1349.0</ele>
        <time>2018-09-16T12:03:44Z</time>
      </trkpt>
      <trkpt lat="40.249283" lon="-4.901050">
        <ele>1350.0</ele>
        <time>2018-09-16T12:03:45Z</time>
      </trkpt>
      <trkpt lat="40.249367" lon="-4.901117">
        <ele>1352.0</ele>
        <time>2018-09-16T12:03:46Z</time>
      </trkpt>
      <trkpt lat="40.249483" lon="-4.901117">
        <ele>1353.0</ele>
        <time>2018-09-16T12:03:47Z</time>
      </trkpt>
      <trkpt lat="40.249583" lon="-4.901083">
        <ele>1354.0</ele>
        <time>2018-09-16T12:03:48Z</time>
      </trkpt>
      <trkpt lat="40.249683" lon="-4.901000">
        <ele>1355.0</ele>
        <time>2018-09-16T12:03:49Z</time>
      </trkpt>
      <trkpt lat="40.249750" lon="-4.900900">
        <ele>1357.0</ele>
        <time>2018-09-16T12:03:50Z</time>
      </trkpt>
      <trkpt lat="40.249783" lon="-4.900817">
        <ele>1359.0</ele>
        <time>2018-09-16T12:03:51Z</time>
      </trkpt>
      <trkpt lat="40.249800" lon="-4.900733">
        <ele>1356.0</ele>
        <time>2018-09-16T12:03:52Z</time>
      </trkpt>
      <trkpt lat="40.249817" lon="-4.900650">
        <ele>1357.0</ele>
        <time>2018-09-16T12:03:53Z</time>
      </trkpt>
      <trkpt lat="40.249800" lon="-4.900567">
        <ele>1358.0</ele>
        <time>2018-09-16T12:03:54Z</time>
      </trkpt>
      <trkpt lat="40.249767" lon="-4.900467">
        <ele>1358.0</ele>
        <time>2018-09-16T12:03:55Z</time>
      </trkpt>
      <trkpt lat="40.249717" lon="-4.900417">
        <ele>1359.0</ele>
        <time>2018-09-16T12:03:56Z</time>
      </trkpt>
      <trkpt lat="40.249650" lon="-4.900433">
        <ele>1359.0</ele>
        <time>2018-09-16T12:03:57Z</time>
      </trkpt>
      <trkpt lat="40.249633" lon="-4.900500">
        <ele>1359.0</ele>
        <time>2018-09-16T12:03:58Z</time>
      </trkpt>
      <trkpt lat="40.249600" lon="-4.900567">
        <ele>1359.0</ele>
        <time>2018-09-16T12:03:59Z</time>
      </trkpt>
      <trkpt lat="40.249600" lon="-4.900650">
        <ele>1359.0</ele>
        <time>2018-09-16T12:04:00Z</time>
      </trkpt>
      <trkpt lat="40.249633" lon="-4.900733">
        <ele>1360.0</ele>
        <time>2018-09-16T12:04:01Z</time>
      </trkpt>
      <trkpt lat="40.249683" lon="-4.900800">
        <ele>1361.0</ele>
        <time>2018-09-16T12:04:02Z</time>
      </trkpt>
      <trkpt lat="40.249767" lon="-4.900867">
        <ele>1362.0</ele>
        <time>2018-09-16T12:04:03Z</time>
      </trkpt>
      <trkpt lat="40.249867" lon="-4.900883">
        <ele>1363.0</ele>
        <time>2018-09-16T12:04:04Z</time>
      </trkpt>
      <trkpt lat="40.249983" lon="-4.900850">
        <ele>1364.0</ele>
        <time>2018-09-16T12:04:05Z</time>
      </trkpt>
      <trkpt lat="40.250067" lon="-4.900783">
        <ele>1365.0</ele>
        <time>2018-09-16T12:04:06Z</time>
      </trkpt>
      <trkpt lat="40.250117" lon="-4.900667">
        <ele>1366.0</ele>
        <time>2018-09-16T12:04:07Z</time>
      </trkpt>
      <trkpt lat="40.250150" lon="-4.900550">
        <ele>1367.0</ele>
        <time>2018-09-16T12:04:08Z</time>
      </trkpt>
      <trkpt lat="40.250150" lon="-4.900417">
        <ele>1370.0</ele>
        <time>2018-09-16T12:04:09Z</time>
      </trkpt>
      <trkpt lat="40.250150" lon="-4.900317">
        <ele>1374.0</ele>
        <time>2018-09-16T12:04:10Z</time>
      </trkpt>
      <trkpt lat="40.250117" lon="-4.900250">
        <ele>1377.0</ele>
        <time>2018-09-16T12:04:11Z</time>
      </trkpt>
      <trkpt lat="40.250067" lon="-4.900217">
        <ele>1379.0</ele>
        <time>2018-09-16T12:04:12Z</time>
      </trkpt>
      <trkpt lat="40.250017" lon="-4.900200">
        <ele>1380.0</ele>
        <time>2018-09-16T12:04:13Z</time>
      </trkpt>
      <trkpt lat="40.249967" lon="-4.900200">
        <ele>1382.0</ele>
        <time>2018-09-16T12:04:14Z</time>
      </trkpt>
      <trkpt lat="40.249917" lon="-4.900183">
        <ele>1384.0</ele>
        <time>2018-09-16T12:04:15Z</time>
      </trkpt>
      <trkpt lat="40.249850" lon="-4.900183">
        <ele>1387.0</ele>
        <time>2018-09-16T12:04:16Z</time>
      </trkpt>
      <trkpt lat="40.249800" lon="-4.900217">
        <ele>1389.0</ele>
        <time>2018-09-16T12:04:17Z</time>
      </trkpt>
      <trkpt lat="40.249767" lon="-4.900267">
        <ele>1390.0</ele>
        <time>2018-09-16T12:04:18Z</time>
      </trkpt>
      <trkpt lat="40.249733" lon="-4.900350">
        <ele>1391.0</ele>
        <time>2018-09-16T12:04:19Z</time>
      </trkpt>
      <trkpt lat="40.249750" lon="-4.900450">
        <ele>1392.0</ele>
        <time>2018-09-16T12:04:20Z</time>
      </trkpt>
      <trkpt lat="40.249800" lon="-4.900550">
        <ele>1392.0</ele>
        <time>2018-09-16T12:04:21Z</time>
      </trkpt>
      <trkpt lat="40.249867" lon="-4.900617">
        <ele>1392.0</ele>
        <time>2018-09-16T12:04:22Z</time>
      </trkpt>
      <trkpt lat="40.249933" lon="-4.900683">
        <ele>1394.0</ele>
        <time>2018-09-16T12:04:23Z</time>
      </trkpt>
      <trkpt lat="40.250000" lon="-4.900750">
        <ele>1395.0</ele>
        <time>2018-09-16T12:04:24Z</time>
      </trkpt>
      <trkpt lat="40.250067" lon="-4.900817">
        <ele>1397.0</ele>
        <time>2018-09-16T12:04:25Z</time>
      </trkpt>
      <trkpt lat="40.250150" lon="-4.900850">
        <ele>1398.0</ele>
        <time>2018-09-16T12:04:26Z</time>
      </trkpt>
      <trkpt lat="40.250250" lon="-4.900883">
        <ele>1399.0</ele>
        <time>2018-09-16T12:04:27Z</time>
      </trkpt>
      <trkpt lat="40.250367" lon="-4.900867">
        <ele>1399.0</ele>
        <time>2018-09-16T12:04:28Z</time>
      </trkpt>
      <trkpt lat="40.250467" lon="-4.900833">
        <ele>1400.0</ele>
        <time>2018-09-16T12:04:29Z</time>
      </trkpt>
      <trkpt lat="40.250550" lon="-4.900750">
        <ele>1400.0</ele>
        <time>2018-09-16T12:04:30Z</time>
      </trkpt>
      <trkpt lat="40.250617" lon="-4.900633">
        <ele>1400.0</ele>
        <time>2018-09-16T12:04:31Z</time>
      </trkpt>
      <trkpt lat="40.250650" lon="-4.900517">
        <ele>1400.0</ele>
        <time>2018-09-16T12:04:32Z</time>
      </trkpt>
      <trkpt lat="40.250667" lon="-4.900383">
        <ele>1401.0</ele>
        <time>2018-09-16T12:04:33Z</time>
      </trkpt>
      <trkpt lat="40.250683" lon="-4.900250">
        <ele>1403.0</ele>
        <time>2018-09-16T12:04:34Z</time>
      </trkpt>
      <trkpt lat="40.250683" lon="-4.900167">
        <ele>1404.0</ele>
        <time>2018-09-16T12:04:35Z</time>
      </trkpt>
      <trkpt lat="40.250700" lon="-4.900050">
        <ele>1402.0</ele>
        <time>2018-09-16T12:04:36Z</time>
      </trkpt>
      <trkpt lat="40.250700" lon="-4.899933">
        <ele>1402.0</ele>
        <time>2018-09-16T12:04:37Z</time>
      </trkpt>
      <trkpt lat="40.250683" lon="-4.899850">
        <ele>1402.0</ele>
        <time>2018-09-16T12:04:38Z</time>
      </trkpt>
      <trkpt lat="40.250650" lon="-4.899767">
        <ele>1403.0</ele>
        <time>2018-09-16T12:04:39Z</time>
      </trkpt>
      <trkpt lat="40.250583" lon="-4.899683">
        <ele>1403.0</ele>
        <time>2018-09-16T12:04:40Z</time>
      </trkpt>
      <trkpt lat="40.250517" lon="-4.899617">
        <ele>1405.0</ele>
        <time>2018-09-16T12:04:41Z</time>
      </trkpt>
      <trkpt lat="40.250450" lon="-4.899600">
        <ele>1406.0</ele>
        <time>2018-09-16T12:04:42Z</time>
      </trkpt>
      <trkpt lat="40.250400" lon="-4.899633">
        <ele>1406.0</ele>
        <time>2018-09-16T12:04:43Z</time>
      </trkpt>
      <trkpt lat="40.250367" lon="-4.899667">
        <ele>1406.0</ele>
        <time>2018-09-16T12:04:44Z</time>
      </trkpt>
      <trkpt lat="40.250350" lon="-4.899733">
        <ele>1406.0</ele>
        <time>2018-09-16T12:04:45Z</time>
      </trkpt>
      <trkpt lat="40.250317" lon="-4.899783">
        <ele>1407.0</ele>
        <time>2018-09-16T12:04:46Z</time>
      </trkpt>
      <trkpt lat="40.250283" lon="-4.899850">
        <ele>1408.0</ele>
        <time>2018-09-16T12:04:47Z</time>
      </trkpt>
      <trkpt lat="40.250267" lon="-4.899933">
        <ele>1408.0</ele>
        <time>2018-09-16T12:04:48Z</time>
      </trkpt>
      <trkpt lat="40.250300" lon="-4.900017">
        <ele>1407.0</ele>
        <time>2018-09-16T12:04:49Z</time>
      </trkpt>
      <trkpt lat="40.250367" lon="-4.900117">
        <ele>1406.0</ele>
        <time>2018-09-16T12:04:50Z</time>
      </trkpt>
      <trkpt lat="40.250450" lon="-4.900200">
        <ele>1406.0</ele>
        <time>2018-09-16T12:04:51Z</time>
      </trkpt>
      <trkpt lat="40.250550" lon="-4.900250">
        <ele>1407.0</ele>
        <time>2018-09-16T12:04:52Z</time>
      </trkpt>
      <trkpt lat="40.250617" lon="-4.900300">
        <ele>1410.0</ele>
        <time>2018-09-16T12:04:53Z</time>
      </trkpt>
      <trkpt lat="40.250683" lon="-4.900383">
        <ele>1411.0</ele>
        <time>2018-09-16T12:04:54Z</time>
      </trkpt>
      <trkpt lat="40.250750" lon="-4.900450">
        <ele>1411.0</ele>
        <time>2018-09-16T12:04:55Z</time>
      </trkpt>
      <trkpt lat="40.250833" lon="-4.900533">
        <ele>1412.0</ele>
        <time>2018-09-16T12:04:56Z</time>
      </trkpt>
      <trkpt lat="40.250900" lon="-4.900583">
        <ele>1413.0</ele>
        <time>2018-09-16T12:04:57Z</time>
      </trkpt>
      <trkpt lat="40.250983" lon="-4.900633">
        <ele>1414.0</ele>
        <time>2018-09-16T12:04:58Z</time>
      </trkpt>
      <trkpt lat="40.251100" lon="-4.900650">
        <ele>1414.0</ele>
        <time>2018-09-16T12:04:59Z</time>
      </trkpt>
      <trkpt lat="40.251200" lon="-4.900583">
        <ele>1414.0</ele>
        <time>2018-09-16T12:05:00Z</time>
      </trkpt>
      <trkpt lat="40.251283" lon="-4.900483">
        <ele>1414.0</ele>
        <time>2018-09-16T12:05:01Z</time>
      </trkpt>
      <trkpt lat="40.251317" lon="-4.900350">
        <ele>1413.0</ele>
        <time>2018-09-16T12:05:02Z</time>
      </trkpt>
      <trkpt lat="40.251333" lon="-4.900217">
        <ele>1414.0</ele>
        <time>2018-09-16T12:05:03Z</time>
      </trkpt>
      <trkpt lat="40.251350" lon="-4.900100">
        <ele>1414.0</ele>
        <time>2018-09-16T12:05:04Z</time>
      </trkpt>
      <trkpt lat="40.251383" lon="-4.899983">
        <ele>1415.0</ele>
        <time>2018-09-16T12:05:05Z</time>
      </trkpt>
      <trkpt lat="40.251400" lon="-4.899883">
        <ele>1416.0</ele>
        <time>2018-09-16T12:05:06Z</time>
      </trkpt>
      <trkpt lat="40.251417" lon="-4.899767">
        <ele>1418.0</ele>
        <time>2018-09-16T12:05:07Z</time>
      </trkpt>
      <trkpt lat="40.251417" lon="-4.899667">
        <ele>1420.0</ele>
        <time>2018-09-16T12:05:08Z</time>
      </trkpt>
      <trkpt lat="40.251417" lon="-4.899567">
        <ele>1421.0</ele>
        <time>2018-09-16T12:05:09Z</time>
      </trkpt>
      <trkpt lat="40.251400" lon="-4.899467">
        <ele>1423.0</ele>
        <time>2018-09-16T12:05:10Z</time>
      </trkpt>
      <trkpt lat="40.251383" lon="-4.899383">
        <ele>1424.0</ele>
        <time>2018-09-16T12:05:11Z</time>
      </trkpt>
      <trkpt lat="40.251333" lon="-4.899317">
        <ele>1422.0</ele>
        <time>2018-09-16T12:05:12Z</time>
      </trkpt>
      <trkpt lat="40.251300" lon="-4.899233">
        <ele>1422.0</ele>
        <time>2018-09-16T12:05:13Z</time>
      </trkpt>
      <trkpt lat="40.251250" lon="-4.899117">
        <ele>1422.0</ele>
        <time>2018-09-16T12:05:14Z</time>
      </trkpt>
      <trkpt lat="40.251217" lon="-4.899000">
        <ele>1423.0</ele>
        <time>2018-09-16T12:05:15Z</time>
      </trkpt>
      <trkpt lat="40.251167" lon="-4.898900">
        <ele>1424.0</ele>
        <time>2018-09-16T12:05:16Z</time>
      </trkpt>
      <trkpt lat="40.251000" lon="-4.898817">
        <ele>1424.0</ele>
        <time>2018-09-16T12:05:19Z</time>
      </trkpt>
      <trkpt lat="40.250967" lon="-4.898867">
        <ele>1423.0</ele>
        <time>2018-09-16T12:05:20Z</time>
      </trkpt>
      <trkpt lat="40.250917" lon="-4.898917">
        <ele>1422.0</ele>
        <time>2018-09-16T12:05:21Z</time>
      </trkpt>
      <trkpt lat="40.250867" lon="-4.898933">
        <ele>1421.0</ele>
        <time>2018-09-16T12:05:22Z</time>
      </trkpt>
      <trkpt lat="40.250800" lon="-4.898950">
        <ele>1420.0</ele>
        <time>2018-09-16T12:05:23Z</time>
      </trkpt>
      <trkpt lat="40.250717" lon="-4.898983">
        <ele>1417.0</ele>
        <time>2018-09-16T12:05:24Z</time>
      </trkpt>
      <trkpt lat="40.250650" lon="-4.899017">
        <ele>1417.0</ele>
        <time>2018-09-16T12:05:25Z</time>
      </trkpt>
      <trkpt lat="40.250600" lon="-4.899067">
        <ele>1418.0</ele>
        <time>2018-09-16T12:05:26Z</time>
      </trkpt>
      <trkpt lat="40.250550" lon="-4.899117">
        <ele>1418.0</ele>
        <time>2018-09-16T12:05:27Z</time>
      </trkpt>
      <trkpt lat="40.250517" lon="-4.899167">
        <ele>1417.0</ele>
        <time>2018-09-16T12:05:28Z</time>
      </trkpt>
      <trkpt lat="40.250483" lon="-4.899217">
        <ele>1415.0</ele>
        <time>2018-09-16T12:05:29Z</time>
      </trkpt>
      <trkpt lat="40.250433" lon="-4.899283">
        <ele>1414.0</ele>
        <time>2018-09-16T12:05:30Z</time>
      </trkpt>
      <trkpt lat="40.250367" lon="-4.899333">
        <ele>1412.0</ele>
        <time>2018-09-16T12:05:31Z</time>
      </trkpt>
      <trkpt lat="40.250333" lon="-4.899417">
        <ele>1411.0</ele>
        <time>2018-09-16T12:05:32Z</time>
      </trkpt>
      <trkpt lat="40.250283" lon="-4.899500">
        <ele>1411.0</ele>
        <time>2018-09-16T12:05:33Z</time>
      </trkpt>
      <trkpt lat="40.250267" lon="-4.899583">
        <ele>1410.0</ele>
        <time>2018-09-16T12:05:34Z</time>
      </trkpt>
      <trkpt lat="40.250233" lon="-4.899650">
        <ele>1410.0</ele>
        <time>2018-09-16T12:05:35Z</time>
      </trkpt>
      <trkpt lat="40.250200" lon="-4.899733">
        <ele>1409.0</ele>
        <time>2018-09-16T12:05:36Z</time>
      </trkpt>
      <trkpt lat="40.250150" lon="-4.899800">
        <ele>1408.0</ele>
        <time>2018-09-16T12:05:37Z</time>
      </trkpt>
      <trkpt lat="40.250083" lon="-4.899867">
        <ele>1407.0</ele>
        <time>2018-09-16T12:05:38Z</time>
      </trkpt>
      <trkpt lat="40.250033" lon="-4.899933">
        <ele>1406.0</ele>
        <time>2018-09-16T12:05:39Z</time>
      </trkpt>
      <trkpt lat="40.249983" lon="-4.899983">
        <ele>1406.0</ele>
        <time>2018-09-16T12:05:40Z</time>
      </trkpt>
      <trkpt lat="40.249950" lon="-4.900050">
        <ele>1407.0</ele>
        <time>2018-09-16T12:05:41Z</time>
      </trkpt>
      <trkpt lat="40.249900" lon="-4.900117">
        <ele>1406.0</ele>
        <time>2018-09-16T12:05:42Z</time>
      </trkpt>
      <trkpt lat="40.249867" lon="-4.900200">
        <ele>1406.0</ele>
        <time>2018-09-16T12:05:43Z</time>
      </trkpt>
      <trkpt lat="40.249833" lon="-4.900267">
        <ele>1405.0</ele>
        <time>2018-09-16T12:05:44Z</time>
      </trkpt>
      <trkpt lat="40.249783" lon="-4.900333">
        <ele>1405.0</ele>
        <time>2018-09-16T12:05:45Z</time>
      </trkpt>
      <trkpt lat="40.249733" lon="-4.900400">
        <ele>1404.0</ele>
        <time>2018-09-16T12:05:46Z</time>
      </trkpt>
      <trkpt lat="40.249667" lon="-4.900483">
        <ele>1403.0</ele>
        <time>2018-09-16T12:05:47Z</time>
      </trkpt>
      <trkpt lat="40.249617" lon="-4.900550">
        <ele>1402.0</ele>
        <time>2018-09-16T12:05:48Z</time>
      </trkpt>
      <trkpt lat="40.249550" lon="-4.900617">
        <ele>1402.0</ele>
        <time>2018-09-16T12:05:49Z</time>
      </trkpt>
      <trkpt lat="40.249517" lon="-4.900700">
        <ele>1402.0</ele>
        <time>2018-09-16T12:05:50Z</time>
      </trkpt>
      <trkpt lat="40.249467" lon="-4.900783">
        <ele>1402.0</ele>
        <time>2018-09-16T12:05:51Z</time>
      </trkpt>
      <trkpt lat="40.249417" lon="-4.900867">
        <ele>1402.0</ele>
        <time>2018-09-16T12:05:52Z</time>
      </trkpt>
      <trkpt lat="40.249350" lon="-4.900933">
        <ele>1401.0</ele>
        <time>2018-09-16T12:05:53Z</time>
      </trkpt>
      <trkpt lat="40.249283" lon="-4.901017">
        <ele>1400.0</ele>
        <time>2018-09-16T12:05:54Z</time>
      </trkpt>
      <trkpt lat="40.249200" lon="-4.901117">
        <ele>1399.0</ele>
        <time>2018-09-16T12:05:55Z</time>
      </trkpt>
      <trkpt lat="40.249150" lon="-4.901217">
        <ele>1399.0</ele>
        <time>2018-09-16T12:05:56Z</time>
      </trkpt>
      <trkpt lat="40.249100" lon="-4.901300">
        <ele>1401.0</ele>
        <time>2018-09-16T12:05:57Z</time>
      </trkpt>
      <trkpt lat="40.249050" lon="-4.901367">
        <ele>1403.0</ele>
        <time>2018-09-16T12:05:58Z</time>
      </trkpt>
      <trkpt lat="40.249000" lon="-4.901433">
        <ele>1405.0</ele>
        <time>2018-09-16T12:05:59Z</time>
      </trkpt>
      <trkpt lat="40.248967" lon="-4.901483">
        <ele>1405.0</ele>
        <time>2018-09-16T12:06:00Z</time>
      </trkpt>
      <trkpt lat="40.248900" lon="-4.901550">
        <ele>1405.0</ele>
        <time>2018-09-16T12:06:01Z</time>
      </trkpt>
      <trkpt lat="40.248850" lon="-4.901650">
        <ele>1404.0</ele>
        <time>2018-09-16T12:06:02Z</time>
      </trkpt>
      <trkpt lat="40.248783" lon="-4.901750">
        <ele>1403.0</ele>
        <time>2018-09-16T12:06:03Z</time>
      </trkpt>
      <trkpt lat="40.248733" lon="-4.901833">
        <ele>1406.0</ele>
        <time>2018-09-16T12:06:04Z</time>
      </trkpt>
      <trkpt lat="40.248683" lon="-4.901917">
        <ele>1408.0</ele>
        <time>2018-09-16T12:06:05Z</time>
      </trkpt>
      <trkpt lat="40.248650" lon="-4.901967">
        <ele>1411.0</ele>
        <time>2018-09-16T12:06:06Z</time>
      </trkpt>
      <trkpt lat="40.248617" lon="-4.902017">
        <ele>1414.0</ele>
        <time>2018-09-16T12:06:07Z</time>
      </trkpt>
      <trkpt lat="40.248600" lon="-4.902083">
        <ele>1412.0</ele>
        <time>2018-09-16T12:06:08Z</time>
      </trkpt>
      <trkpt lat="40.248567" lon="-4.902150">
        <ele>1412.0</ele>
        <time>2018-09-16T12:06:09Z</time>
      </trkpt>
      <trkpt lat="40.248567" lon="-4.902233">
        <ele>1412.0</ele>
        <time>2018-09-16T12:06:10Z</time>
      </trkpt>
      <trkpt lat="40.248567" lon="-4.902333">
        <ele>1412.0</ele>
        <time>2018-09-16T12:06:11Z</time>
      </trkpt>
      <trkpt lat="40.248583" lon="-4.902450">
        <ele>1412.0</ele>
        <time>2018-09-16T12:06:12Z</time>
      </trkpt>
      <trkpt lat="40.248650" lon="-4.902567">
        <ele>1412.0</ele>
        <time>2018-09-16T12:06:13Z</time>
      </trkpt>
      <trkpt lat="40.248733" lon="-4.902617">
        <ele>1412.0</ele>
        <time>2018-09-16T12:06:14Z</time>
      </trkpt>
      <trkpt lat="40.248850" lon="-4.902633">
        <ele>1412.0</ele>
        <time>2018-09-16T12:06:15Z</time>
      </trkpt>
      <trkpt lat="40.248967" lon="-4.902583">
        <ele>1412.0</ele>
        <time>2018-09-16T12:06:16Z</time>
      </trkpt>
      <trkpt lat="40.249050" lon="-4.902517">
        <ele>1413.0</ele>
        <time>2018-09-16T12:06:17Z</time>
      </trkpt>
      <trkpt lat="40.249083" lon="-4.902417">
        <ele>1414.0</ele>
        <time>2018-09-16T12:06:18Z</time>
      </trkpt>
      <trkpt lat="40.249083" lon="-4.902317">
        <ele>1416.0</ele>
        <time>2018-09-16T12:06:19Z</time>
      </trkpt>
      <trkpt lat="40.249050" lon="-4.902233">
        <ele>1417.0</ele>
        <time>2018-09-16T12:06:20Z</time>
      </trkpt>
      <trkpt lat="40.249000" lon="-4.902183">
        <ele>1418.0</ele>
        <time>2018-09-16T12:06:21Z</time>
      </trkpt>
      <trkpt lat="40.248933" lon="-4.902150">
        <ele>1416.0</ele>
        <time>2018-09-16T12:06:22Z</time>
      </trkpt>
      <trkpt lat="40.248867" lon="-4.902167">
        <ele>1416.0</ele>
        <time>2018-09-16T12:06:23Z</time>
      </trkpt>
      <trkpt lat="40.248817" lon="-4.902217">
        <ele>1416.0</ele>
        <time>2018-09-16T12:06:24Z</time>
      </trkpt>
      <trkpt lat="40.248783" lon="-4.902300">
        <ele>1417.0</ele>
        <time>2018-09-16T12:06:25Z</time>
      </trkpt>
      <trkpt lat="40.248783" lon="-4.902400">
        <ele>1418.0</ele>
        <time>2018-09-16T12:06:26Z</time>
      </trkpt>
      <trkpt lat="40.248817" lon="-4.902517">
        <ele>1418.0</ele>
        <time>2018-09-16T12:06:27Z</time>
      </trkpt>
      <trkpt lat="40.248883" lon="-4.902617">
        <ele>1419.0</ele>
        <time>2018-09-16T12:06:28Z</time>
      </trkpt>
      <trkpt lat="40.248983" lon="-4.902683">
        <ele>1420.0</ele>
        <time>2018-09-16T12:06:29Z</time>
      </trkpt>
      <trkpt lat="40.249083" lon="-4.902683">
        <ele>1421.0</ele>
        <time>2018-09-16T12:06:30Z</time>
      </trkpt>
      <trkpt lat="40.249167" lon="-4.902633">
        <ele>1421.0</ele>
        <time>2018-09-16T12:06:31Z</time>
      </trkpt>
      <trkpt lat="40.249200" lon="-4.902567">
        <ele>1421.0</ele>
        <time>2018-09-16T12:06:32Z</time>
      </trkpt>
      <trkpt lat="40.249183" lon="-4.902500">
        <ele>1421.0</ele>
        <time>2018-09-16T12:06:33Z</time>
      </trkpt>
      <trkpt lat="40.249167" lon="-4.902450">
        <ele>1422.0</ele>
        <time>2018-09-16T12:06:34Z</time>
      </trkpt>
      <trkpt lat="40.249150" lon="-4.902383">
        <ele>1424.0</ele>
        <time>2018-09-16T12:06:35Z</time>
      </trkpt>
      <trkpt lat="40.249150" lon="-4.902300">
        <ele>1425.0</ele>
        <time>2018-09-16T12:06:36Z</time>
      </trkpt>
      <trkpt lat="40.249117" lon="-4.902200">
        <ele>1425.0</ele>
        <time>2018-09-16T12:06:37Z</time>
      </trkpt>
      <trkpt lat="40.249083" lon="-4.902133">
        <ele>1426.0</ele>
        <time>2018-09-16T12:06:38Z</time>
      </trkpt>
      <trkpt lat="40.248933" lon="-4.902033">
        <ele>1426.0</ele>
        <time>2018-09-16T12:06:40Z</time>
      </trkpt>
      <trkpt lat="40.248883" lon="-4.902083">
        <ele>1426.0</ele>
        <time>2018-09-16T12:06:41Z</time>
      </trkpt>
      <trkpt lat="40.248867" lon="-4.902200">
        <ele>1426.0</ele>
        <time>2018-09-16T12:06:42Z</time>
      </trkpt>
      <trkpt lat="40.248933" lon="-4.902333">
        <ele>1427.0</ele>
        <time>2018-09-16T12:06:43Z</time>
      </trkpt>
      <trkpt lat="40.249000" lon="-4.902383">
        <ele>1427.0</ele>
        <time>2018-09-16T12:06:44Z</time>
      </trkpt>
      <trkpt lat="40.249067" lon="-4.902450">
        <ele>1429.0</ele>
        <time>2018-09-16T12:06:45Z</time>
      </trkpt>
      <trkpt lat="40.249133" lon="-4.902500">
        <ele>1430.0</ele>
        <time>2018-09-16T12:06:46Z</time>
      </trkpt>
      <trkpt lat="40.249200" lon="-4.902567">
        <ele>1431.0</ele>
        <time>2018-09-16T12:06:47Z</time>
      </trkpt>
      <trkpt lat="40.249267" lon="-4.902633">
        <ele>1431.0</ele>
        <time>2018-09-16T12:06:48Z</time>
      </trkpt>
      <trkpt lat="40.249350" lon="-4.902700">
        <ele>1432.0</ele>
        <time>2018-09-16T12:06:49Z</time>
      </trkpt>
      <trkpt lat="40.249467" lon="-4.902717">
        <ele>1433.0</ele>
        <time>2018-09-16T12:06:50Z</time>
      </trkpt>
      <trkpt lat="40.249567" lon="-4.902650">
        <ele>1433.0</ele>
        <time>2018-09-16T12:06:51Z</time>
      </trkpt>
      <trkpt lat="40.249617" lon="-4.902533">
        <ele>1433.0</ele>
        <time>2018-09-16T12:06:52Z</time>
      </trkpt>
      <trkpt lat="40.249617" lon="-4.902417">
        <ele>1433.0</ele>
        <time>2018-09-16T12:06:53Z</time>
      </trkpt>
      <trkpt lat="40.249600" lon="-4.902300">
        <ele>1434.0</ele>
        <time>2018-09-16T12:06:54Z</time>
      </trkpt>
      <trkpt lat="40.249567" lon="-4.902250">
        <ele>1436.0</ele>
        <time>2018-09-16T12:06:55Z</time>
      </trkpt>
      <trkpt lat="40.249500" lon="-4.902233">
        <ele>1438.0</ele>
        <time>2018-09-16T12:06:56Z</time>
      </trkpt>
      <trkpt lat="40.249450" lon="-4.902233">
        <ele>1440.0</ele>
        <time>2018-09-16T12:06:57Z</time>
      </trkpt>
      <trkpt lat="40.249383" lon="-4.902217">
        <ele>1442.0</ele>
        <time>2018-09-16T12:06:58Z</time>
      </trkpt>
      <trkpt lat="40.249333" lon="-4.902217">
        <ele>1441.0</ele>
        <time>2018-09-16T12:06:59Z</time>
      </trkpt>
      <trkpt lat="40.249267" lon="-4.902233">
        <ele>1441.0</ele>
        <time>2018-09-16T12:07:00Z</time>
      </trkpt>
      <trkpt lat="40.249200" lon="-4.902267">
        <ele>1442.0</ele>
        <time>2018-09-16T12:07:01Z</time>
      </trkpt>
      <trkpt lat="40.249133" lon="-4.902317">
        <ele>1442.0</ele>
        <time>2018-09-16T12:07:02Z</time>
      </trkpt>
      <trkpt lat="40.249067" lon="-4.902383">
        <ele>1443.0</ele>
        <time>2018-09-16T12:07:03Z</time>
      </trkpt>
      <trkpt lat="40.249000" lon="-4.902450">
        <ele>1443.0</ele>
        <time>2018-09-16T12:07:04Z</time>
      </trkpt>
      <trkpt lat="40.248933" lon="-4.902517">
        <ele>1445.0</ele>
        <time>2018-09-16T12:07:05Z</time>
      </trkpt>
      <trkpt lat="40.248883" lon="-4.902550">
        <ele>1446.0</ele>
        <time>2018-09-16T12:07:06Z</time>
      </trkpt>
      <trkpt lat="40.248833" lon="-4.902583">
        <ele>1448.0</ele>
        <time>2018-09-16T12:07:07Z</time>
      </trkpt>
      <trkpt lat="40.248783" lon="-4.902617">
        <ele>1450.0</ele>
        <time>2018-09-16T12:07:08Z</time>
      </trkpt>
      <trkpt lat="40.248733" lon="-4.902667">
        <ele>1452.0</ele>
        <time>2018-09-16T12:07:09Z</time>
      </trkpt>
      <trkpt lat="40.248683" lon="-4.902717">
        <ele>1453.0</ele>
        <time>2018-09-16T12:07:10Z</time>
      </trkpt>
      <trkpt lat="40.248650" lon="-4.902817">
        <ele>1454.0</ele>
        <time>2018-09-16T12:07:11Z</time>
      </trkpt>
      <trkpt lat="40.248633" lon="-4.902933">
        <ele>1452.0</ele>
        <time>2018-09-16T12:07:12Z</time>
      </trkpt>
      <trkpt lat="40.248667" lon="-4.903033">
        <ele>1452.0</ele>
        <time>2018-09-16T12:07:13Z</time>
      </trkpt>
      <trkpt lat="40.248750" lon="-4.903133">
        <ele>1453.0</ele>
        <time>2018-09-16T12:07:14Z</time>
      </trkpt>
      <trkpt lat="40.248867" lon="-4.903183">
        <ele>1454.0</ele>
        <time>2018-09-16T12:07:15Z</time>
      </trkpt>
      <trkpt lat="40.249067" lon="-4.903167">
        <ele>1456.0</ele>
        <time>2018-09-16T12:07:17Z</time>
      </trkpt>
      <trkpt lat="40.249150" lon="-4.903133">
        <ele>1458.0</ele>
        <time>2018-09-16T12:07:18Z</time>
      </trkpt>
      <trkpt lat="40.249233" lon="-4.903067">
        <ele>1459.0</ele>
        <time>2018-09-16T12:07:19Z</time>
      </trkpt>
      <trkpt lat="40.249317" lon="-4.902983">
        <ele>1460.0</ele>
        <time>2018-09-16T12:07:20Z</time>
      </trkpt>
      <trkpt lat="40.249383" lon="-4.902900">
        <ele>1462.0</ele>
        <time>2018-09-16T12:07:21Z</time>
      </trkpt>
      <trkpt lat="40.249450" lon="-4.902817">
        <ele>1463.0</ele>
        <time>2018-09-16T12:07:22Z</time>
      </trkpt>
      <trkpt lat="40.249483" lon="-4.902717">
        <ele>1464.0</ele>
        <time>2018-09-16T12:07:23Z</time>
      </trkpt>
      <trkpt lat="40.249533" lon="-4.902650">
        <ele>1465.0</ele>
        <time>2018-09-16T12:07:24Z</time>
      </trkpt>
      <trkpt lat="40.249533" lon="-4.902550">
        <ele>1461.0</ele>
        <time>2018-09-16T12:07:25Z</time>
      </trkpt>
      <trkpt lat="40.249500" lon="-4.902433">
        <ele>1461.0</ele>
        <time>2018-09-16T12:07:26Z</time>
      </trkpt>
      <trkpt lat="40.249467" lon="-4.902333">
        <ele>1461.0</ele>
        <time>2018-09-16T12:07:27Z</time>
      </trkpt>
      <trkpt lat="40.249433" lon="-4.902250">
        <ele>1462.0</ele>
        <time>2018-09-16T12:07:28Z</time>
      </trkpt>
      <trkpt lat="40.249383" lon="-4.902183">
        <ele>1462.0</ele>
        <time>2018-09-16T12:07:29Z</time>
      </trkpt>
      <trkpt lat="40.249333" lon="-4.902133">
        <ele>1463.0</ele>
        <time>2018-09-16T12:07:30Z</time>
      </trkpt>
      <trkpt lat="40.249267" lon="-4.902083">
        <ele>1463.0</ele>
        <time>2018-09-16T12:07:31Z</time>
      </trkpt>
      <trkpt lat="40.249200" lon="-4.902033">
        <ele>1464.0</ele>
        <time>2018-09-16T12:07:32Z</time>
      </trkpt>
      <trkpt lat="40.249117" lon="-4.902033">
        <ele>1465.0</ele>
        <time>2018-09-16T12:07:33Z</time>
      </trkpt>
      <trkpt lat="40.249067" lon="-4.902067">
        <ele>1465.0</ele>
        <time>2018-09-16T12:07:34Z</time>
      </trkpt>
      <trkpt lat="40.249033" lon="-4.902167">
        <ele>1465.0</ele>
        <time>2018-09-16T12:07:35Z</time>
      </trkpt>
      <trkpt lat="40.249050" lon="-4.902283">
        <ele>1465.0</ele>
        <time>2018-09-16T12:07:36Z</time>
      </trkpt>
      <trkpt lat="40.249100" lon="-4.902383">
        <ele>1465.0</ele>
        <time>2018-09-16T12:07:37Z</time>
      </trkpt>
      <trkpt lat="40.249183" lon="-4.902450">
        <ele>1465.0</ele>
        <time>2018-09-16T12:07:38Z</time>
      </trkpt>
      <trkpt lat="40.249283" lon="-4.902467">
        <ele>1465.0</ele>
        <time>2018-09-16T12:07:39Z</time>
      </trkpt>
      <trkpt lat="40.249367" lon="-4.902483">
        <ele>1465.0</ele>
        <time>2018-09-16T12:07:40Z</time>
      </trkpt>
      <trkpt lat="40.249450" lon="-4.902483">
        <ele>1465.0</ele>
        <time>2018-09-16T12:07:41Z</time>
      </trkpt>
      <trkpt lat="40.249533" lon="-4.902500">
        <ele>1466.0</ele>
        <time>2018-09-16T12:07:42Z</time>
      </trkpt>
      <trkpt lat="40.249633" lon="-4.902500">
        <ele>1465.0</ele>
        <time>2018-09-16T12:07:43Z</time>
      </trkpt>
      <trkpt lat="40.249717" lon="-4.902467">
        <ele>1465.0</ele>
        <time>2018-09-16T12:07:44Z</time>
      </trkpt>
      <trkpt lat="40.249800" lon="-4.902400">
        <ele>1465.0</ele>
        <time>2018-09-16T12:07:45Z</time>
      </trkpt>
      <trkpt lat="40.249850" lon="-4.902317">
        <ele>1465.0</ele>
        <time>2018-09-16T12:07:46Z</time>
      </trkpt>
      <trkpt lat="40.249867" lon="-4.902217">
        <ele>1465.0</ele>
        <time>2018-09-16T12:07:47Z</time>
      </trkpt>
      <trkpt lat="40.249850" lon="-4.902117">
        <ele>1465.0</ele>
        <time>2018-09-16T12:07:48Z</time>
      </trkpt>
      <trkpt lat="40.249833" lon="-4.902033">
        <ele>1466.0</ele>
        <time>2018-09-16T12:07:49Z</time>
      </trkpt>
      <trkpt lat="40.249800" lon="-4.901967">
        <ele>1466.0</ele>
        <time>2018-09-16T12:07:50Z</time>
      </trkpt>
      <trkpt lat="40.249750" lon="-4.901917">
        <ele>1466.0</ele>
        <time>2018-09-16T12:07:51Z</time>
      </trkpt>
      <trkpt lat="40.249700" lon="-4.901883">
        <ele>1466.0</ele>
        <time>2018-09-16T12:07:52Z</time>
      </trkpt>
      <trkpt lat="40.249650" lon="-4.901867">
        <ele>1466.0</ele>
        <time>2018-09-16T12:07:53Z</time>
      </trkpt>
      <trkpt lat="40.249600" lon="-4.901850">
        <ele>1466.0</ele>
        <time>2018-09-16T12:07:54Z</time>
      </trkpt>
      <trkpt lat="40.249550" lon="-4.901833">
        <ele>1466.0</ele>
        <time>2018-09-16T12:07:55Z</time>
      </trkpt>
      <trkpt lat="40.249483" lon="-4.901833">
        <ele>1466.0</ele>
        <time>2018-09-16T12:07:56Z</time>
      </trkpt>
      <trkpt lat="40.249417" lon="-4.901850">
        <ele>1466.0</ele>
        <time>2018-09-16T12:07:57Z</time>
      </trkpt>
      <trkpt lat="40.249350" lon="-4.901867">
        <ele>1465.0</ele>
        <time>2018-09-16T12:07:58Z</time>
      </trkpt>
      <trkpt lat="40.249283" lon="-4.901900">
        <ele>1464.0</ele>
        <time>2018-09-16T12:07:59Z</time>
      </trkpt>
      <trkpt lat="40.249200" lon="-4.901933">
        <ele>1462.0</ele>
        <time>2018-09-16T12:08:00Z</time>
      </trkpt>
      <trkpt lat="40.249150" lon="-4.901950">
        <ele>1461.0</ele>
        <time>2018-09-16T12:08:01Z</time>
      </trkpt>
      <trkpt lat="40.249083" lon="-4.901967">
        <ele>1460.0</ele>
        <time>2018-09-16T12:08:02Z</time>
      </trkpt>
      <trkpt lat="40.249000" lon="-4.901967">
        <ele>1458.0</ele>
        <time>2018-09-16T12:08:03Z</time>
      </trkpt>
      <trkpt lat="40.248933" lon="-4.901983">
        <ele>1457.0</ele>
        <time>2018-09-16T12:08:04Z</time>
      </trkpt>
      <trkpt lat="40.248867" lon="-4.902033">
        <ele>1455.0</ele>
        <time>2018-09-16T12:08:05Z</time>
      </trkpt>
      <trkpt lat="40.248817" lon="-4.902117">
        <ele>1454.0</ele>
        <time>2018-09-16T12:08:06Z</time>
      </trkpt>
      <trkpt lat="40.248767" lon="-4.902200">
        <ele>1452.0</ele>
        <time>2018-09-16T12:08:07Z</time>
      </trkpt>
      <trkpt lat="40.248767" lon="-4.902300">
        <ele>1450.0</ele>
        <time>2018-09-16T12:08:08Z</time>
      </trkpt>
      <trkpt lat="40.248800" lon="-4.902400">
        <ele>1449.0</ele>
        <time>2018-09-16T12:08:09Z</time>
      </trkpt>
      <trkpt lat="40.248883" lon="-4.902483">
        <ele>1446.0</ele>
        <time>2018-09-16T12:08:10Z</time>
      </trkpt>
      <trkpt lat="40.248983" lon="-4.902533">
        <ele>1444.0</ele>
        <time>2018-09-16T12:08:11Z</time>
      </trkpt>
      <trkpt lat="40.249083" lon="-4.902550">
        <ele>1442.0</ele>
        <time>2018-09-16T12:08:12Z</time>
      </trkpt>
      <trkpt lat="40.249200" lon="-4.902550">
        <ele>1440.0</ele>
        <time>2018-09-16T12:08:13Z</time>
      </trkpt>
      <trkpt lat="40.249300" lon="-4.902550">
        <ele>1439.0</ele>
        <time>2018-09-16T12:08:14Z</time>
      </trkpt>
      <trkpt lat="40.249400" lon="-4.902550">
        <ele>1439.0</ele>
        <time>2018-09-16T12:08:15Z</time>
      </trkpt>
      <trkpt lat="40.249500" lon="-4.902550">
        <ele>1437.0</ele>
        <time>2018-09-16T12:08:16Z</time>
      </trkpt>
      <trkpt lat="40.249600" lon="-4.902533">
        <ele>1436.0</ele>
        <time>2018-09-16T12:08:17Z</time>
      </trkpt>
      <trkpt lat="40.249700" lon="-4.902500">
        <ele>1435.0</ele>
        <time>2018-09-16T12:08:18Z</time>
      </trkpt>
      <trkpt lat="40.249800" lon="-4.902433">
        <ele>1434.0</ele>
        <time>2018-09-16T12:08:19Z</time>
      </trkpt>
      <trkpt lat="40.249867" lon="-4.902367">
        <ele>1433.0</ele>
        <time>2018-09-16T12:08:20Z</time>
      </trkpt>
      <trkpt lat="40.249917" lon="-4.902283">
        <ele>1433.0</ele>
        <time>2018-09-16T12:08:21Z</time>
      </trkpt>
      <trkpt lat="40.249983" lon="-4.902200">
        <ele>1432.0</ele>
        <time>2018-09-16T12:08:22Z</time>
      </trkpt>
      <trkpt lat="40.250050" lon="-4.902100">
        <ele>1432.0</ele>
        <time>2018-09-16T12:08:23Z</time>
      </trkpt>
      <trkpt lat="40.250100" lon="-4.902000">
        <ele>1431.0</ele>
        <time>2018-09-16T12:08:24Z</time>
      </trkpt>
      <trkpt lat="40.250150" lon="-4.901900">
        <ele>1430.0</ele>
        <time>2018-09-16T12:08:25Z</time>
      </trkpt>
      <trkpt lat="40.250183" lon="-4.901833">
        <ele>1430.0</ele>
        <time>2018-09-16T12:08:26Z</time>
      </trkpt>
      <trkpt lat="40.250217" lon="-4.901750">
        <ele>1429.0</ele>
        <time>2018-09-16T12:08:27Z</time>
      </trkpt>
      <trkpt lat="40.250250" lon="-4.901650">
        <ele>1427.0</ele>
        <time>2018-09-16T12:08:28Z</time>
      </trkpt>
      <trkpt lat="40.250300" lon="-4.901550">
        <ele>1424.0</ele>
        <time>2018-09-16T12:08:29Z</time>
      </trkpt>
      <trkpt lat="40.250350" lon="-4.901417">
        <ele>1421.0</ele>
        <time>2018-09-16T12:08:30Z</time>
      </trkpt>
      <trkpt lat="40.250400" lon="-4.901283">
        <ele>1419.0</ele>
        <time>2018-09-16T12:08:31Z</time>
      </trkpt>
      <trkpt lat="40.250450" lon="-4.901167">
        <ele>1417.0</ele>
        <time>2018-09-16T12:08:32Z</time>
      </trkpt>
      <trkpt lat="40.250533" lon="-4.901083">
        <ele>1418.0</ele>
        <time>2018-09-16T12:08:33Z</time>
      </trkpt>
      <trkpt lat="40.250600" lon="-4.901033">
        <ele>1419.0</ele>
        <time>2018-09-16T12:08:34Z</time>
      </trkpt>
      <trkpt lat="40.250667" lon="-4.900983">
        <ele>1419.0</ele>
        <time>2018-09-16T12:08:35Z</time>
      </trkpt>
      <trkpt lat="40.250750" lon="-4.900900">
        <ele>1420.0</ele>
        <time>2018-09-16T12:08:36Z</time>
      </trkpt>
      <trkpt lat="40.250817" lon="-4.900800">
        <ele>1420.0</ele>
        <time>2018-09-16T12:08:37Z</time>
      </trkpt>
      <trkpt lat="40.250867" lon="-4.900683">
        <ele>1420.0</ele>
        <time>2018-09-16T12:08:38Z</time>
      </trkpt>
      <trkpt lat="40.250933" lon="-4.900550">
        <ele>1420.0</ele>
        <time>2018-09-16T12:08:39Z</time>
      </trkpt>
      <trkpt lat="40.250983" lon="-4.900450">
        <ele>1425.0</ele>
        <time>2018-09-16T12:08:40Z</time>
      </trkpt>
      <trkpt lat="40.251050" lon="-4.900350">
        <ele>1427.0</ele>
        <time>2018-09-16T12:08:41Z</time>
      </trkpt>
      <trkpt lat="40.251100" lon="-4.900267">
        <ele>1429.0</ele>
        <time>2018-09-16T12:08:42Z</time>
      </trkpt>
      <trkpt lat="40.251117" lon="-4.900133">
        <ele>1431.0</ele>
        <time>2018-09-16T12:08:43Z</time>
      </trkpt>
      <trkpt lat="40.251117" lon="-4.900017">
        <ele>1433.0</ele>
        <time>2018-09-16T12:08:44Z</time>
      </trkpt>
      <trkpt lat="40.251017" lon="-4.899817">
        <ele>1434.0</ele>
        <time>2018-09-16T12:08:46Z</time>
      </trkpt>
      <trkpt lat="40.250933" lon="-4.899783">
        <ele>1436.0</ele>
        <time>2018-09-16T12:08:47Z</time>
      </trkpt>
      <trkpt lat="40.250867" lon="-4.899800">
        <ele>1436.0</ele>
        <time>2018-09-16T12:08:48Z</time>
      </trkpt>
      <trkpt lat="40.250800" lon="-4.899883">
        <ele>1438.0</ele>
        <time>2018-09-16T12:08:49Z</time>
      </trkpt>
      <trkpt lat="40.250783" lon="-4.899983">
        <ele>1439.0</ele>
        <time>2018-09-16T12:08:50Z</time>
      </trkpt>
      <trkpt lat="40.250783" lon="-4.900117">
        <ele>1436.0</ele>
        <time>2018-09-16T12:08:51Z</time>
      </trkpt>
      <trkpt lat="40.250833" lon="-4.900217">
        <ele>1437.0</ele>
        <time>2018-09-16T12:08:52Z</time>
      </trkpt>
      <trkpt lat="40.250917" lon="-4.900283">
        <ele>1437.0</ele>
        <time>2018-09-16T12:08:53Z</time>
      </trkpt>
      <trkpt lat="40.251000" lon="-4.900317">
        <ele>1438.0</ele>
        <time>2018-09-16T12:08:54Z</time>
      </trkpt>
      <trkpt lat="40.251100" lon="-4.900250">
        <ele>1439.0</ele>
        <time>2018-09-16T12:08:55Z</time>
      </trkpt>
      <trkpt lat="40.251150" lon="-4.900133">
        <ele>1440.0</ele>
        <time>2018-09-16T12:08:56Z</time>
      </trkpt>
      <trkpt lat="40.251183" lon="-4.900000">
        <ele>1441.0</ele>
        <time>2018-09-16T12:08:57Z</time>
      </trkpt>
      <trkpt lat="40.251183" lon="-4.899850">
        <ele>1442.0</ele>
        <time>2018-09-16T12:08:58Z</time>
      </trkpt>
      <trkpt lat="40.251150" lon="-4.899733">
        <ele>1444.0</ele>
        <time>2018-09-16T12:08:59Z</time>
      </trkpt>
      <trkpt lat="40.251100" lon="-4.899633">
        <ele>1446.0</ele>
        <time>2018-09-16T12:09:00Z</time>
      </trkpt>
      <trkpt lat="40.251050" lon="-4.899567">
        <ele>1448.0</ele>
        <time>2018-09-16T12:09:01Z</time>
      </trkpt>
      <trkpt lat="40.250983" lon="-4.899517">
        <ele>1450.0</ele>
        <time>2018-09-16T12:09:02Z</time>
      </trkpt>
      <trkpt lat="40.250933" lon="-4.899467">
        <ele>1452.0</ele>
        <time>2018-09-16T12:09:03Z</time>
      </trkpt>
      <trkpt lat="40.250883" lon="-4.899450">
        <ele>1453.0</ele>
        <time>2018-09-16T12:09:04Z</time>
      </trkpt>
      <trkpt lat="40.250817" lon="-4.899433">
        <ele>1455.0</ele>
        <time>2018-09-16T12:09:05Z</time>
      </trkpt>
      <trkpt lat="40.250767" lon="-4.899433">
        <ele>1458.0</ele>
        <time>2018-09-16T12:09:06Z</time>
      </trkpt>
      <trkpt lat="40.250733" lon="-4.899450">
        <ele>1461.0</ele>
        <time>2018-09-16T12:09:07Z</time>
      </trkpt>
      <trkpt lat="40.250667" lon="-4.899483">
        <ele>1466.0</ele>
        <time>2018-09-16T12:09:09Z</time>
      </trkpt>
      <trkpt lat="40.250633" lon="-4.899517">
        <ele>1467.0</ele>
        <time>2018-09-16T12:09:10Z</time>
      </trkpt>
      <trkpt lat="40.250583" lon="-4.899567">
        <ele>1468.0</ele>
        <time>2018-09-16T12:09:11Z</time>
      </trkpt>
      <trkpt lat="40.250550" lon="-4.899633">
        <ele>1469.0</ele>
        <time>2018-09-16T12:09:12Z</time>
      </trkpt>
      <trkpt lat="40.250517" lon="-4.899733">
        <ele>1463.0</ele>
        <time>2018-09-16T12:09:13Z</time>
      </trkpt>
      <trkpt lat="40.250500" lon="-4.899833">
        <ele>1464.0</ele>
        <time>2018-09-16T12:09:14Z</time>
      </trkpt>
      <trkpt lat="40.250500" lon="-4.899917">
        <ele>1464.0</ele>
        <time>2018-09-16T12:09:15Z</time>
      </trkpt>
      <trkpt lat="40.250533" lon="-4.900017">
        <ele>1465.0</ele>
        <time>2018-09-16T12:09:16Z</time>
      </trkpt>
      <trkpt lat="40.250550" lon="-4.900100">
        <ele>1466.0</ele>
        <time>2018-09-16T12:09:17Z</time>
      </trkpt>
      <trkpt lat="40.250583" lon="-4.900200">
        <ele>1467.0</ele>
        <time>2018-09-16T12:09:18Z</time>
      </trkpt>
      <trkpt lat="40.250633" lon="-4.900300">
        <ele>1468.0</ele>
        <time>2018-09-16T12:09:19Z</time>
      </trkpt>
      <trkpt lat="40.250683" lon="-4.900367">
        <ele>1470.0</ele>
        <time>2018-09-16T12:09:20Z</time>
      </trkpt>
      <trkpt lat="40.250767" lon="-4.900417">
        <ele>1471.0</ele>
        <time>2018-09-16T12:09:21Z</time>
      </trkpt>
      <trkpt lat="40.250850" lon="-4.900433">
        <ele>1472.0</ele>
        <time>2018-09-16T12:09:22Z</time>
      </trkpt>
      <trkpt lat="40.250950" lon="-4.900400">
        <ele>1473.0</ele>
        <time>2018-09-16T12:09:23Z</time>
      </trkpt>
      <trkpt lat="40.251033" lon="-4.900333">
        <ele>1473.0</ele>
        <time>2018-09-16T12:09:24Z</time>
      </trkpt>
      <trkpt lat="40.251083" lon="-4.900267">
        <ele>1473.0</ele>
        <time>2018-09-16T12:09:25Z</time>
      </trkpt>
      <trkpt lat="40.251117" lon="-4.900183">
        <ele>1474.0</ele>
        <time>2018-09-16T12:09:26Z</time>
      </trkpt>
      <trkpt lat="40.251150" lon="-4.900083">
        <ele>1475.0</ele>
        <time>2018-09-16T12:09:27Z</time>
      </trkpt>
      <trkpt lat="40.251167" lon="-4.899950">
        <ele>1475.0</ele>
        <time>2018-09-16T12:09:28Z</time>
      </trkpt>
      <trkpt lat="40.251183" lon="-4.899833">
        <ele>1475.0</ele>
        <time>2018-09-16T12:09:29Z</time>
      </trkpt>
      <trkpt lat="40.251200" lon="-4.899750">
        <ele>1477.0</ele>
        <time>2018-09-16T12:09:30Z</time>
      </trkpt>
      <trkpt lat="40.251200" lon="-4.899667">
        <ele>1478.0</ele>
        <time>2018-09-16T12:09:31Z</time>
      </trkpt>
      <trkpt lat="40.251233" lon="-4.899583">
        <ele>1480.0</ele>
        <time>2018-09-16T12:09:32Z</time>
      </trkpt>
      <trkpt lat="40.251267" lon="-4.899467">
        <ele>1481.0</ele>
        <time>2018-09-16T12:09:33Z</time>
      </trkpt>
      <trkpt lat="40.251267" lon="-4.899350">
        <ele>1481.0</ele>
        <time>2018-09-16T12:09:34Z</time>
      </trkpt>
      <trkpt lat="40.251233" lon="-4.899250">
        <ele>1481.0</ele>
        <time>2018-09-16T12:09:35Z</time>
      </trkpt>
      <trkpt lat="40.251167" lon="-4.899167">
        <ele>1482.0</ele>
        <time>2018-09-16T12:09:36Z</time>
      </trkpt>
      <trkpt lat="40.251117" lon="-4.899200">
        <ele>1483.0</ele>
        <time>2018-09-16T12:09:37Z</time>
      </trkpt>
      <trkpt lat="40.251083" lon="-4.899283">
        <ele>1483.0</ele>
        <time>2018-09-16T12:09:38Z</time>
      </trkpt>
      <trkpt lat="40.251100" lon="-4.899367">
        <ele>1484.0</ele>
        <time>2018-09-16T12:09:39Z</time>
      </trkpt>
      <trkpt lat="40.251150" lon="-4.899467">
        <ele>1484.0</ele>
        <time>2018-09-16T12:09:40Z</time>
      </trkpt>
      <trkpt lat="40.251217" lon="-4.899550">
        <ele>1485.0</ele>
        <time>2018-09-16T12:09:41Z</time>
      </trkpt>
      <trkpt lat="40.251317" lon="-4.899617">
        <ele>1485.0</ele>
        <time>2018-09-16T12:09:42Z</time>
      </trkpt>
      <trkpt lat="40.251433" lon="-4.899650">
        <ele>1487.0</ele>
        <time>2018-09-16T12:09:43Z</time>
      </trkpt>
      <trkpt lat="40.251533" lon="-4.899667">
        <ele>1487.0</ele>
        <time>2018-09-16T12:09:44Z</time>
      </trkpt>
      <trkpt lat="40.251617" lon="-4.899667">
        <ele>1488.0</ele>
        <time>2018-09-16T12:09:45Z</time>
      </trkpt>
      <trkpt lat="40.251717" lon="-4.899633">
        <ele>1489.0</ele>
        <time>2018-09-16T12:09:46Z</time>
      </trkpt>
      <trkpt lat="40.251783" lon="-4.899583">
        <ele>1490.0</ele>
        <time>2018-09-16T12:09:47Z</time>
      </trkpt>
      <trkpt lat="40.251833" lon="-4.899483">
        <ele>1493.0</ele>
        <time>2018-09-16T12:09:48Z</time>
      </trkpt>
      <trkpt lat="40.251883" lon="-4.899350">
        <ele>1497.0</ele>
        <time>2018-09-16T12:09:49Z</time>
      </trkpt>
      <trkpt lat="40.251883" lon="-4.899217">
        <ele>1499.0</ele>
        <time>2018-09-16T12:09:50Z</time>
      </trkpt>
      <trkpt lat="40.251850" lon="-4.899067">
        <ele>1502.0</ele>
        <time>2018-09-16T12:09:51Z</time>
      </trkpt>
      <trkpt lat="40.251800" lon="-4.898950">
        <ele>1505.0</ele>
        <time>2018-09-16T12:09:52Z</time>
      </trkpt>
      <trkpt lat="40.251717" lon="-4.898883">
        <ele>1510.0</ele>
        <time>2018-09-16T12:09:53Z</time>
      </trkpt>
      <trkpt lat="40.251650" lon="-4.898867">
        <ele>1514.0</ele>
        <time>2018-09-16T12:09:54Z</time>
      </trkpt>
      <trkpt lat="40.251583" lon="-4.898883">
        <ele>1519.0</ele>
        <time>2018-09-16T12:09:55Z</time>
      </trkpt>
      <trkpt lat="40.251550" lon="-4.898917">
        <ele>1523.0</ele>
        <time>2018-09-16T12:09:56Z</time>
      </trkpt>
      <trkpt lat="40.251500" lon="-4.898967">
        <ele>1527.0</ele>
        <time>2018-09-16T12:09:57Z</time>
      </trkpt>
      <trkpt lat="40.251467" lon="-4.899050">
        <ele>1522.0</ele>
        <time>2018-09-16T12:09:58Z</time>
      </trkpt>
      <trkpt lat="40.251450" lon="-4.899150">
        <ele>1523.0</ele>
        <time>2018-09-16T12:09:59Z</time>
      </trkpt>
      <trkpt lat="40.251483" lon="-4.899233">
        <ele>1525.0</ele>
        <time>2018-09-16T12:10:00Z</time>
      </trkpt>
      <trkpt lat="40.251583" lon="-4.899300">
        <ele>1527.0</ele>
        <time>2018-09-16T12:10:01Z</time>
      </trkpt>
      <trkpt lat="40.251683" lon="-4.899300">
        <ele>1528.0</ele>
        <time>2018-09-16T12:10:02Z</time>
      </trkpt>
      <trkpt lat="40.251800" lon="-4.899233">
        <ele>1531.0</ele>
        <time>2018-09-16T12:10:03Z</time>
      </trkpt>
      <trkpt lat="40.251883" lon="-4.899150">
        <ele>1534.0</ele>
        <time>2018-09-16T12:10:04Z</time>
      </trkpt>
      <trkpt lat="40.251967" lon="-4.899083">
        <ele>1536.0</ele>
        <time>2018-09-16T12:10:05Z</time>
      </trkpt>
      <trkpt lat="40.252033" lon="-4.899050">
        <ele>1538.0</ele>
        <time>2018-09-16T12:10:06Z</time>
      </trkpt>
      <trkpt lat="40.252100" lon="-4.898983">
        <ele>1539.0</ele>
        <time>2018-09-16T12:10:07Z</time>
      </trkpt>
      <trkpt lat="40.252167" lon="-4.898883">
        <ele>1540.0</ele>
        <time>2018-09-16T12:10:08Z</time>
      </trkpt>
      <trkpt lat="40.252233" lon="-4.898750">
        <ele>1542.0</ele>
        <time>2018-09-16T12:10:09Z</time>
      </trkpt>
      <trkpt lat="40.252267" lon="-4.898600">
        <ele>1544.0</ele>
        <time>2018-09-16T12:10:10Z</time>
      </trkpt>
      <trkpt lat="40.252267" lon="-4.898467">
        <ele>1546.0</ele>
        <time>2018-09-16T12:10:11Z</time>
      </trkpt>
      <trkpt lat="40.252233" lon="-4.898350">
        <ele>1549.0</ele>
        <time>2018-09-16T12:10:12Z</time>
      </trkpt>
      <trkpt lat="40.252183" lon="-4.898217">
        <ele>1551.0</ele>
        <time>2018-09-16T12:10:13Z</time>
      </trkpt>
      <trkpt lat="40.252133" lon="-4.898117">
        <ele>1555.0</ele>
        <time>2018-09-16T12:10:14Z</time>
      </trkpt>
      <trkpt lat="40.252083" lon="-4.898050">
        <ele>1557.0</ele>
        <time>2018-09-16T12:10:15Z</time>
      </trkpt>
      <trkpt lat="40.252017" lon="-4.897983">
        <ele>1553.0</ele>
        <time>2018-09-16T12:10:16Z</time>
      </trkpt>
      <trkpt lat="40.251950" lon="-4.897917">
        <ele>1554.0</ele>
        <time>2018-09-16T12:10:17Z</time>
      </trkpt>
      <trkpt lat="40.251867" lon="-4.897900">
        <ele>1555.0</ele>
        <time>2018-09-16T12:10:18Z</time>
      </trkpt>
      <trkpt lat="40.251800" lon="-4.897917">
        <ele>1558.0</ele>
        <time>2018-09-16T12:10:19Z</time>
      </trkpt>
      <trkpt lat="40.251783" lon="-4.898000">
        <ele>1560.0</ele>
        <time>2018-09-16T12:10:20Z</time>
      </trkpt>
      <trkpt lat="40.251800" lon="-4.898083">
        <ele>1561.0</ele>
        <time>2018-09-16T12:10:21Z</time>
      </trkpt>
      <trkpt lat="40.251883" lon="-4.898167">
        <ele>1561.0</ele>
        <time>2018-09-16T12:10:22Z</time>
      </trkpt>
      <trkpt lat="40.251983" lon="-4.898217">
        <ele>1561.0</ele>
        <time>2018-09-16T12:10:23Z</time>
      </trkpt>
      <trkpt lat="40.252083" lon="-4.898217">
        <ele>1562.0</ele>
        <time>2018-09-16T12:10:24Z</time>
      </trkpt>
      <trkpt lat="40.252183" lon="-4.898183">
        <ele>1564.0</ele>
        <time>2018-09-16T12:10:25Z</time>
      </trkpt>
      <trkpt lat="40.252250" lon="-4.898100">
        <ele>1566.0</ele>
        <time>2018-09-16T12:10:26Z</time>
      </trkpt>
      <trkpt lat="40.252300" lon="-4.898017">
        <ele>1568.0</ele>
        <time>2018-09-16T12:10:27Z</time>
      </trkpt>
      <trkpt lat="40.252350" lon="-4.897900">
        <ele>1570.0</ele>
        <time>2018-09-16T12:10:28Z</time>
      </trkpt>
      <trkpt lat="40.252367" lon="-4.897767">
        <ele>1571.0</ele>
        <time>2018-09-16T12:10:29Z</time>
      </trkpt>
      <trkpt lat="40.252367" lon="-4.897633">
        <ele>1572.0</ele>
        <time>2018-09-16T12:10:30Z</time>
      </trkpt>
      <trkpt lat="40.252317" lon="-4.897500">
        <ele>1575.0</ele>
        <time>2018-09-16T12:10:31Z</time>
      </trkpt>
      <trkpt lat="40.252267" lon="-4.897433">
        <ele>1577.0</ele>
        <time>2018-09-16T12:10:32Z</time>
      </trkpt>
      <trkpt lat="40.252217" lon="-4.897400">
        <ele>1579.0</ele>
        <time>2018-09-16T12:10:33Z</time>
      </trkpt>
      <trkpt lat="40.252150" lon="-4.897417">
        <ele>1581.0</ele>
        <time>2018-09-16T12:10:34Z</time>
      </trkpt>
      <trkpt lat="40.252100" lon="-4.897467">
        <ele>1582.0</ele>
        <time>2018-09-16T12:10:35Z</time>
      </trkpt>
      <trkpt lat="40.252033" lon="-4.897550">
        <ele>1583.0</ele>
        <time>2018-09-16T12:10:36Z</time>
      </trkpt>
      <trkpt lat="40.252000" lon="-4.897650">
        <ele>1581.0</ele>
        <time>2018-09-16T12:10:37Z</time>
      </trkpt>
      <trkpt lat="40.252017" lon="-4.897750">
        <ele>1581.0</ele>
        <time>2018-09-16T12:10:38Z</time>
      </trkpt>
      <trkpt lat="40.252050" lon="-4.897867">
        <ele>1581.0</ele>
        <time>2018-09-16T12:10:39Z</time>
      </trkpt>
      <trkpt lat="40.252100" lon="-4.897967">
        <ele>1581.0</ele>
        <time>2018-09-16T12:10:40Z</time>
      </trkpt>
      <trkpt lat="40.252183" lon="-4.898067">
        <ele>1582.0</ele>
        <time>2018-09-16T12:10:41Z</time>
      </trkpt>
      <trkpt lat="40.252233" lon="-4.898167">
        <ele>1583.0</ele>
        <time>2018-09-16T12:10:42Z</time>
      </trkpt>
      <trkpt lat="40.252283" lon="-4.898250">
        <ele>1584.0</ele>
        <time>2018-09-16T12:10:43Z</time>
      </trkpt>
      <trkpt lat="40.252317" lon="-4.898350">
        <ele>1586.0</ele>
        <time>2018-09-16T12:10:44Z</time>
      </trkpt>
      <trkpt lat="40.252333" lon="-4.898467">
        <ele>1586.0</ele>
        <time>2018-09-16T12:10:45Z</time>
      </trkpt>
      <trkpt lat="40.252333" lon="-4.898567">
        <ele>1587.0</ele>
        <time>2018-09-16T12:10:46Z</time>
      </trkpt>
      <trkpt lat="40.252333" lon="-4.898667">
        <ele>1589.0</ele>
        <time>2018-09-16T12:10:47Z</time>
      </trkpt>
      <trkpt lat="40.252333" lon="-4.898767">
        <ele>1590.0</ele>
        <time>2018-09-16T12:10:48Z</time>
      </trkpt>
      <trkpt lat="40.252333" lon="-4.898850">
        <ele>1591.0</ele>
        <time>2018-09-16T12:10:49Z</time>
      </trkpt>
      <trkpt lat="40.252300" lon="-4.898950">
        <ele>1590.0</ele>
        <time>2018-09-16T12:10:50Z</time>
      </trkpt>
      <trkpt lat="40.252283" lon="-4.899050">
        <ele>1590.0</ele>
        <time>2018-09-16T12:10:51Z</time>
      </trkpt>
      <trkpt lat="40.252250" lon="-4.899150">
        <ele>1590.0</ele>
        <time>2018-09-16T12:10:52Z</time>
      </trkpt>
      <trkpt lat="40.252217" lon="-4.899233">
        <ele>1590.0</ele>
        <time>2018-09-16T12:10:53Z</time>
      </trkpt>
      <trkpt lat="40.252183" lon="-4.899317">
        <ele>1591.0</ele>
        <time>2018-09-16T12:10:54Z</time>
      </trkpt>
      <trkpt lat="40.252150" lon="-4.899383">
        <ele>1592.0</ele>
        <time>2018-09-16T12:10:55Z</time>
      </trkpt>
      <trkpt lat="40.252117" lon="-4.899450">
        <ele>1591.0</ele>
        <time>2018-09-16T12:10:56Z</time>
      </trkpt>
      <trkpt lat="40.252083" lon="-4.899550">
        <ele>1590.0</ele>
        <time>2018-09-16T12:10:57Z</time>
      </trkpt>
      <trkpt lat="40.252050" lon="-4.899667">
        <ele>1590.0</ele>
        <time>2018-09-16T12:10:58Z</time>
      </trkpt>
      <trkpt lat="40.252017" lon="-4.899767">
        <ele>1590.0</ele>
        <time>2018-09-16T12:10:59Z</time>
      </trkpt>
      <trkpt lat="40.252000" lon="-4.899867">
        <ele>1590.0</ele>
        <time>2018-09-16T12:11:00Z</time>
      </trkpt>
      <trkpt lat="40.251967" lon="-4.899950">
        <ele>1590.0</ele>
        <time>2018-09-16T12:11:01Z</time>
      </trkpt>
      <trkpt lat="40.251933" lon="-4.900017">
        <ele>1590.0</ele>
        <time>2018-09-16T12:11:02Z</time>
      </trkpt>
      <trkpt lat="40.251900" lon="-4.900100">
        <ele>1590.0</ele>
        <time>2018-09-16T12:11:03Z</time>
      </trkpt>
      <trkpt lat="40.251867" lon="-4.900183">
        <ele>1590.0</ele>
        <time>2018-09-16T12:11:04Z</time>
      </trkpt>
      <trkpt lat="40.251867" lon="-4.900283">
        <ele>1590.0</ele>
        <time>2018-09-16T12:11:05Z</time>
      </trkpt>
      <trkpt lat="40.251850" lon="-4.900383">
        <ele>1589.0</ele>
        <time>2018-09-16T12:11:06Z</time>
      </trkpt>
      <trkpt lat="40.251867" lon="-4.900483">
        <ele>1589.0</ele>
        <time>2018-09-16T12:11:07Z</time>
      </trkpt>
      <trkpt lat="40.251917" lon="-4.900583">
        <ele>1589.0</ele>
        <time>2018-09-16T12:11:08Z</time>
      </trkpt>
      <trkpt lat="40.252067" lon="-4.900733">
        <ele>1590.0</ele>
        <time>2018-09-16T12:11:10Z</time>
      </trkpt>
      <trkpt lat="40.252167" lon="-4.900750">
        <ele>1590.0</ele>
        <time>2018-09-16T12:11:11Z</time>
      </trkpt>
      <trkpt lat="40.252283" lon="-4.900733">
        <ele>1589.0</ele>
        <time>2018-09-16T12:11:12Z</time>
      </trkpt>
      <trkpt lat="40.252400" lon="-4.900683">
        <ele>1589.0</ele>
        <time>2018-09-16T12:11:13Z</time>
      </trkpt>
      <trkpt lat="40.252500" lon="-4.900617">
        <ele>1589.0</ele>
        <time>2018-09-16T12:11:14Z</time>
      </trkpt>
      <trkpt lat="40.252583" lon="-4.900533">
        <ele>1588.0</ele>
        <time>2018-09-16T12:11:15Z</time>
      </trkpt>
      <trkpt lat="40.252650" lon="-4.900467">
        <ele>1588.0</ele>
        <time>2018-09-16T12:11:16Z</time>
      </trkpt>
      <trkpt lat="40.252717" lon="-4.900367">
        <ele>1588.0</ele>
        <time>2018-09-16T12:11:17Z</time>
      </trkpt>
      <trkpt lat="40.252750" lon="-4.900250">
        <ele>1588.0</ele>
        <time>2018-09-16T12:11:18Z</time>
      </trkpt>
      <trkpt lat="40.252783" lon="-4.900133">
        <ele>1587.0</ele>
        <time>2018-09-16T12:11:19Z</time>
      </trkpt>
      <trkpt lat="40.252800" lon="-4.900017">
        <ele>1586.0</ele>
        <time>2018-09-16T12:11:20Z</time>
      </trkpt>
      <trkpt lat="40.252800" lon="-4.899900">
        <ele>1586.0</ele>
        <time>2018-09-16T12:11:21Z</time>
      </trkpt>
      <trkpt lat="40.252800" lon="-4.899817">
        <ele>1586.0</ele>
        <time>2018-09-16T12:11:22Z</time>
      </trkpt>
      <trkpt lat="40.252767" lon="-4.899717">
        <ele>1586.0</ele>
        <time>2018-09-16T12:11:23Z</time>
      </trkpt>
      <trkpt lat="40.252750" lon="-4.899633">
        <ele>1587.0</ele>
        <time>2018-09-16T12:11:24Z</time>
      </trkpt>
      <trkpt lat="40.252717" lon="-4.899550">
        <ele>1587.0</ele>
        <time>2018-09-16T12:11:25Z</time>
      </trkpt>
      <trkpt lat="40.252667" lon="-4.899467">
        <ele>1588.0</ele>
        <time>2018-09-16T12:11:26Z</time>
      </trkpt>
      <trkpt lat="40.252617" lon="-4.899400">
        <ele>1588.0</ele>
        <time>2018-09-16T12:11:27Z</time>
      </trkpt>
      <trkpt lat="40.252567" lon="-4.899350">
        <ele>1587.0</ele>
        <time>2018-09-16T12:11:28Z</time>
      </trkpt>
      <trkpt lat="40.252500" lon="-4.899317">
        <ele>1587.0</ele>
        <time>2018-09-16T12:11:29Z</time>
      </trkpt>
      <trkpt lat="40.252433" lon="-4.899300">
        <ele>1587.0</ele>
        <time>2018-09-16T12:11:30Z</time>
      </trkpt>
      <trkpt lat="40.252383" lon="-4.899300">
        <ele>1586.0</ele>
        <time>2018-09-16T12:11:31Z</time>
      </trkpt>
      <trkpt lat="40.252317" lon="-4.899333">
        <ele>1586.0</ele>
        <time>2018-09-16T12:11:32Z</time>
      </trkpt>
      <trkpt lat="40.252217" lon="-4.899500">
        <ele>1585.0</ele>
        <time>2018-09-16T12:11:34Z</time>
      </trkpt>
      <trkpt lat="40.252150" lon="-4.899567">
        <ele>1584.0</ele>
        <time>2018-09-16T12:11:35Z</time>
      </trkpt>
      <trkpt lat="40.252100" lon="-4.899617">
        <ele>1583.0</ele>
        <time>2018-09-16T12:11:36Z</time>
      </trkpt>
      <trkpt lat="40.252050" lon="-4.899667">
        <ele>1583.0</ele>
        <time>2018-09-16T12:11:37Z</time>
      </trkpt>
      <trkpt lat="40.252000" lon="-4.899700">
        <ele>1583.0</ele>
        <time>2018-09-16T12:11:38Z</time>
      </trkpt>
      <trkpt lat="40.251950" lon="-4.899750">
        <ele>1583.0</ele>
        <time>2018-09-16T12:11:39Z</time>
      </trkpt>
      <trkpt lat="40.251900" lon="-4.899817">
        <ele>1582.0</ele>
        <time>2018-09-16T12:11:40Z</time>
      </trkpt>
      <trkpt lat="40.251867" lon="-4.899900">
        <ele>1582.0</ele>
        <time>2018-09-16T12:11:41Z</time>
      </trkpt>
      <trkpt lat="40.251867" lon="-4.900000">
        <ele>1581.0</ele>
        <time>2018-09-16T12:11:42Z</time>
      </trkpt>
      <trkpt lat="40.251867" lon="-4.900117">
        <ele>1579.0</ele>
        <time>2018-09-16T12:11:43Z</time>
      </trkpt>
      <trkpt lat="40.251883" lon="-4.900217">
        <ele>1578.0</ele>
        <time>2018-09-16T12:11:44Z</time>
      </trkpt>
      <trkpt lat="40.251900" lon="-4.900333">
        <ele>1577.0</ele>
        <time>2018-09-16T12:11:45Z</time>
      </trkpt>
      <trkpt lat="40.251933" lon="-4.900433">
        <ele>1577.0</ele>
        <time>2018-09-16T12:11:46Z</time>
      </trkpt>
      <trkpt lat="40.251950" lon="-4.900550">
        <ele>1576.0</ele>
        <time>2018-09-16T12:11:47Z</time>
      </trkpt>
      <trkpt lat="40.251983" lon="-4.900667">
        <ele>1575.0</ele>
        <time>2018-09-16T12:11:48Z</time>
      </trkpt>
      <trkpt lat="40.252017" lon="-4.900783">
        <ele>1574.0</ele>
        <time>2018-09-16T12:11:49Z</time>
      </trkpt>
      <trkpt lat="40.252067" lon="-4.900900">
        <ele>1574.0</ele>
        <time>2018-09-16T12:11:50Z</time>
      </trkpt>
      <trkpt lat="40.252100" lon="-4.900983">
        <ele>1574.0</ele>
        <time>2018-09-16T12:11:51Z</time>
      </trkpt>
      <trkpt lat="40.252150" lon="-4.901083">
        <ele>1573.0</ele>
        <time>2018-09-16T12:11:52Z</time>
      </trkpt>
      <trkpt lat="40.252183" lon="-4.901183">
        <ele>1573.0</ele>
        <time>2018-09-16T12:11:53Z</time>
      </trkpt>
      <trkpt lat="40.252233" lon="-4.901300">
        <ele>1574.0</ele>
        <time>2018-09-16T12:11:54Z</time>
      </trkpt>
      <trkpt lat="40.252283" lon="-4.901400">
        <ele>1574.0</ele>
        <time>2018-09-16T12:11:55Z</time>
      </trkpt>
      <trkpt lat="40.252350" lon="-4.901500">
        <ele>1573.0</ele>
        <time>2018-09-16T12:11:56Z</time>
      </trkpt>
      <trkpt lat="40.252400" lon="-4.901583">
        <ele>1572.0</ele>
        <time>2018-09-16T12:11:57Z</time>
      </trkpt>
      <trkpt lat="40.252467" lon="-4.901683">
        <ele>1571.0</ele>
        <time>2018-09-16T12:11:58Z</time>
      </trkpt>
      <trkpt lat="40.252517" lon="-4.901783">
        <ele>1572.0</ele>
        <time>2018-09-16T12:11:59Z</time>
      </trkpt>
      <trkpt lat="40.252583" lon="-4.901883">
        <ele>1571.0</ele>
        <time>2018-09-16T12:12:00Z</time>
      </trkpt>
      <trkpt lat="40.252650" lon="-4.901983">
        <ele>1571.0</ele>
        <time>2018-09-16T12:12:01Z</time>
      </trkpt>
      <trkpt lat="40.252700" lon="-4.902050">
        <ele>1572.0</ele>
        <time>2018-09-16T12:12:02Z</time>
      </trkpt>
      <trkpt lat="40.252733" lon="-4.902100">
        <ele>1574.0</ele>
        <time>2018-09-16T12:12:03Z</time>
      </trkpt>
      <trkpt lat="40.252783" lon="-4.902183">
        <ele>1574.0</ele>
        <time>2018-09-16T12:12:04Z</time>
      </trkpt>
      <trkpt lat="40.252833" lon="-4.902267">
        <ele>1574.0</ele>
        <time>2018-09-16T12:12:05Z</time>
      </trkpt>
      <trkpt lat="40.252900" lon="-4.902350">
        <ele>1574.0</ele>
        <time>2018-09-16T12:12:06Z</time>
      </trkpt>
      <trkpt lat="40.252967" lon="-4.902433">
        <ele>1573.0</ele>
        <time>2018-09-16T12:12:07Z</time>
      </trkpt>
      <trkpt lat="40.253050" lon="-4.902500">
        <ele>1573.0</ele>
        <time>2018-09-16T12:12:08Z</time>
      </trkpt>
      <trkpt lat="40.253117" lon="-4.902567">
        <ele>1574.0</ele>
        <time>2018-09-16T12:12:09Z</time>
      </trkpt>
      <trkpt lat="40.253183" lon="-4.902633">
        <ele>1574.0</ele>
        <time>2018-09-16T12:12:10Z</time>
      </trkpt>
      <trkpt lat="40.253233" lon="-4.902717">
        <ele>1573.0</ele>
        <time>2018-09-16T12:12:11Z</time>
      </trkpt>
      <trkpt lat="40.253317" lon="-4.902783">
        <ele>1572.0</ele>
        <time>2018-09-16T12:12:12Z</time>
      </trkpt>
      <trkpt lat="40.253383" lon="-4.902850">
        <ele>1572.0</ele>
        <time>2018-09-16T12:12:13Z</time>
      </trkpt>
      <trkpt lat="40.253450" lon="-4.902917">
        <ele>1571.0</ele>
        <time>2018-09-16T12:12:14Z</time>
      </trkpt>
      <trkpt lat="40.253533" lon="-4.903000">
        <ele>1570.0</ele>
        <time>2018-09-16T12:12:15Z</time>
      </trkpt>
      <trkpt lat="40.253600" lon="-4.903067">
        <ele>1568.0</ele>
        <time>2018-09-16T12:12:16Z</time>
      </trkpt>
      <trkpt lat="40.253683" lon="-4.903133">
        <ele>1566.0</ele>
        <time>2018-09-16T12:12:17Z</time>
      </trkpt>
      <trkpt lat="40.253750" lon="-4.903200">
        <ele>1564.0</ele>
        <time>2018-09-16T12:12:18Z</time>
      </trkpt>
      <trkpt lat="40.253833" lon="-4.903250">
        <ele>1562.0</ele>
        <time>2018-09-16T12:12:19Z</time>
      </trkpt>
      <trkpt lat="40.253900" lon="-4.903317">
        <ele>1560.0</ele>
        <time>2018-09-16T12:12:20Z</time>
      </trkpt>
      <trkpt lat="40.253983" lon="-4.903400">
        <ele>1557.0</ele>
        <time>2018-09-16T12:12:21Z</time>
      </trkpt>
      <trkpt lat="40.254050" lon="-4.903483">
        <ele>1554.0</ele>
        <time>2018-09-16T12:12:22Z</time>
      </trkpt>
      <trkpt lat="40.254133" lon="-4.903567">
        <ele>1552.0</ele>
        <time>2018-09-16T12:12:23Z</time>
      </trkpt>
      <trkpt lat="40.254200" lon="-4.903633">
        <ele>1551.0</ele>
        <time>2018-09-16T12:12:24Z</time>
      </trkpt>
      <trkpt lat="40.254283" lon="-4.903717">
        <ele>1549.0</ele>
        <time>2018-09-16T12:12:25Z</time>
      </trkpt>
      <trkpt lat="40.254350" lon="-4.903783">
        <ele>1548.0</ele>
        <time>2018-09-16T12:12:26Z</time>
      </trkpt>
      <trkpt lat="40.254417" lon="-4.903883">
        <ele>1546.0</ele>
        <time>2018-09-16T12:12:27Z</time>
      </trkpt>
      <trkpt lat="40.254483" lon="-4.903950">
        <ele>1545.0</ele>
        <time>2018-09-16T12:12:28Z</time>
      </trkpt>
      <trkpt lat="40.254550" lon="-4.904000">
        <ele>1546.0</ele>
        <time>2018-09-16T12:12:29Z</time>
      </trkpt>
      <trkpt lat="40.254617" lon="-4.904050">
        <ele>1546.0</ele>
        <time>2018-09-16T12:12:30Z</time>
      </trkpt>
      <trkpt lat="40.254667" lon="-4.904100">
        <ele>1547.0</ele>
        <time>2018-09-16T12:12:31Z</time>
      </trkpt>
      <trkpt lat="40.254717" lon="-4.904150">
        <ele>1546.0</ele>
        <time>2018-09-16T12:12:32Z</time>
      </trkpt>
      <trkpt lat="40.254783" lon="-4.904217">
        <ele>1544.0</ele>
        <time>2018-09-16T12:12:33Z</time>
      </trkpt>
      <trkpt lat="40.254850" lon="-4.904283">
        <ele>1543.0</ele>
        <time>2018-09-16T12:12:34Z</time>
      </trkpt>
      <trkpt lat="40.254917" lon="-4.904367">
        <ele>1541.0</ele>
        <time>2018-09-16T12:12:35Z</time>
      </trkpt>
      <trkpt lat="40.254967" lon="-4.904433">
        <ele>1541.0</ele>
        <time>2018-09-16T12:12:36Z</time>
      </trkpt>
      <trkpt lat="40.255033" lon="-4.904517">
        <ele>1540.0</ele>
        <time>2018-09-16T12:12:37Z</time>
      </trkpt>
      <trkpt lat="40.255100" lon="-4.904567">
        <ele>1540.0</ele>
        <time>2018-09-16T12:12:38Z</time>
      </trkpt>
      <trkpt lat="40.255150" lon="-4.904633">
        <ele>1539.0</ele>
        <time>2018-09-16T12:12:39Z</time>
      </trkpt>
      <trkpt lat="40.255217" lon="-4.904683">
        <ele>1539.0</ele>
        <time>2018-09-16T12:12:40Z</time>
      </trkpt>
      <trkpt lat="40.255267" lon="-4.904733">
        <ele>1537.0</ele>
        <time>2018-09-16T12:12:41Z</time>
      </trkpt>
      <trkpt lat="40.255333" lon="-4.904800">
        <ele>1536.0</ele>
        <time>2018-09-16T12:12:42Z</time>
      </trkpt>
      <trkpt lat="40.255417" lon="-4.904867">
        <ele>1534.0</ele>
        <time>2018-09-16T12:12:43Z</time>
      </trkpt>
      <trkpt lat="40.255483" lon="-4.904933">
        <ele>1531.0</ele>
        <time>2018-09-16T12:12:44Z</time>
      </trkpt>
      <trkpt lat="40.255550" lon="-4.905000">
        <ele>1529.0</ele>
        <time>2018-09-16T12:12:45Z</time>
      </trkpt>
      <trkpt lat="40.255617" lon="-4.905067">
        <ele>1527.0</ele>
        <time>2018-09-16T12:12:46Z</time>
      </trkpt>
      <trkpt lat="40.255683" lon="-4.905133">
        <ele>1526.0</ele>
        <time>2018-09-16T12:12:47Z</time>
      </trkpt>
      <trkpt lat="40.255750" lon="-4.905200">
        <ele>1524.0</ele>
        <time>2018-09-16T12:12:48Z</time>
      </trkpt>
      <trkpt lat="40.255817" lon="-4.905267">
        <ele>1522.0</ele>
        <time>2018-09-16T12:12:49Z</time>
      </trkpt>
      <trkpt lat="40.255867" lon="-4.905333">
        <ele>1520.0</ele>
        <time>2018-09-16T12:12:50Z</time>
      </trkpt>
      <trkpt lat="40.255933" lon="-4.905417">
        <ele>1517.0</ele>
        <time>2018-09-16T12:12:51Z</time>
      </trkpt>
      <trkpt lat="40.256000" lon="-4.905500">
        <ele>1515.0</ele>
        <time>2018-09-16T12:12:52Z</time>
      </trkpt>
      <trkpt lat="40.256050" lon="-4.905583">
        <ele>1514.0</ele>
        <time>2018-09-16T12:12:53Z</time>
      </trkpt>
      <trkpt lat="40.256117" lon="-4.905650">
        <ele>1512.0</ele>
        <time>2018-09-16T12:12:54Z</time>
      </trkpt>
      <trkpt lat="40.256183" lon="-4.905717">
        <ele>1511.0</ele>
        <time>2018-09-16T12:12:55Z</time>
      </trkpt>
      <trkpt lat="40.256233" lon="-4.905767">
        <ele>1508.0</ele>
        <time>2018-09-16T12:12:56Z</time>
      </trkpt>
      <trkpt lat="40.256300" lon="-4.905833">
        <ele>1513.0</ele>
        <time>2018-09-16T12:12:57Z</time>
      </trkpt>
      <trkpt lat="40.256417" lon="-4.905967">
        <ele>1513.0</ele>
        <time>2018-09-16T12:12:59Z</time>
      </trkpt>
      <trkpt lat="40.256500" lon="-4.906033">
        <ele>1513.0</ele>
        <time>2018-09-16T12:13:00Z</time>
      </trkpt>
      <trkpt lat="40.256567" lon="-4.906083">
        <ele>1512.0</ele>
        <time>2018-09-16T12:13:01Z</time>
      </trkpt>
      <trkpt lat="40.256633" lon="-4.906167">
        <ele>1511.0</ele>
        <time>2018-09-16T12:13:02Z</time>
      </trkpt>
      <trkpt lat="40.256717" lon="-4.906233">
        <ele>1509.0</ele>
        <time>2018-09-16T12:13:03Z</time>
      </trkpt>
      <trkpt lat="40.256800" lon="-4.906317">
        <ele>1507.0</ele>
        <time>2018-09-16T12:13:04Z</time>
      </trkpt>
      <trkpt lat="40.256883" lon="-4.906383">
        <ele>1503.0</ele>
        <time>2018-09-16T12:13:05Z</time>
      </trkpt>
      <trkpt lat="40.256967" lon="-4.906450">
        <ele>1500.0</ele>
        <time>2018-09-16T12:13:06Z</time>
      </trkpt>
      <trkpt lat="40.257050" lon="-4.906517">
        <ele>1497.0</ele>
        <time>2018-09-16T12:13:07Z</time>
      </trkpt>
      <trkpt lat="40.257133" lon="-4.906600">
        <ele>1495.0</ele>
        <time>2018-09-16T12:13:08Z</time>
      </trkpt>
      <trkpt lat="40.257200" lon="-4.906667">
        <ele>1493.0</ele>
        <time>2018-09-16T12:13:09Z</time>
      </trkpt>
      <trkpt lat="40.257267" lon="-4.906733">
        <ele>1492.0</ele>
        <time>2018-09-16T12:13:10Z</time>
      </trkpt>
      <trkpt lat="40.257317" lon="-4.906800">
        <ele>1491.0</ele>
        <time>2018-09-16T12:13:11Z</time>
      </trkpt>
      <trkpt lat="40.257383" lon="-4.906867">
        <ele>1490.0</ele>
        <time>2018-09-16T12:13:12Z</time>
      </trkpt>
      <trkpt lat="40.257467" lon="-4.906950">
        <ele>1489.0</ele>
        <time>2018-09-16T12:13:13Z</time>
      </trkpt>
      <trkpt lat="40.257550" lon="-4.907050">
        <ele>1488.0</ele>
        <time>2018-09-16T12:13:14Z</time>
      </trkpt>
      <trkpt lat="40.257617" lon="-4.907133">
        <ele>1487.0</ele>
        <time>2018-09-16T12:13:15Z</time>
      </trkpt>
      <trkpt lat="40.257683" lon="-4.907217">
        <ele>1487.0</ele>
        <time>2018-09-16T12:13:16Z</time>
      </trkpt>
      <trkpt lat="40.257733" lon="-4.907300">
        <ele>1487.0</ele>
        <time>2018-09-16T12:13:17Z</time>
      </trkpt>
      <trkpt lat="40.257783" lon="-4.907367">
        <ele>1484.0</ele>
        <time>2018-09-16T12:13:18Z</time>
      </trkpt>
      <trkpt lat="40.257850" lon="-4.907450">
        <ele>1481.0</ele>
        <time>2018-09-16T12:13:19Z</time>
      </trkpt>
      <trkpt lat="40.257917" lon="-4.907567">
        <ele>1480.0</ele>
        <time>2018-09-16T12:13:20Z</time>
      </trkpt>
      <trkpt lat="40.257983" lon="-4.907667">
        <ele>1478.0</ele>
        <time>2018-09-16T12:13:21Z</time>
      </trkpt>
      <trkpt lat="40.258050" lon="-4.907767">
        <ele>1476.0</ele>
        <time>2018-09-16T12:13:22Z</time>
      </trkpt>
      <trkpt lat="40.258100" lon="-4.907833">
        <ele>1475.0</ele>
        <time>2018-09-16T12:13:23Z</time>
      </trkpt>
      <trkpt lat="40.258167" lon="-4.907917">
        <ele>1472.0</ele>
        <time>2018-09-16T12:13:24Z</time>
      </trkpt>
      <trkpt lat="40.258233" lon="-4.908000">
        <ele>1469.0</ele>
        <time>2018-09-16T12:13:25Z</time>
      </trkpt>
      <trkpt lat="40.258300" lon="-4.908100">
        <ele>1466.0</ele>
        <time>2018-09-16T12:13:26Z</time>
      </trkpt>
      <trkpt lat="40.258367" lon="-4.908183">
        <ele>1464.0</ele>
        <time>2018-09-16T12:13:27Z</time>
      </trkpt>
      <trkpt lat="40.258433" lon="-4.908267">
        <ele>1462.0</ele>
        <time>2018-09-16T12:13:28Z</time>
      </trkpt>
      <trkpt lat="40.258483" lon="-4.908333">
        <ele>1462.0</ele>
        <time>2018-09-16T12:13:29Z</time>
      </trkpt>
      <trkpt lat="40.258533" lon="-4.908400">
        <ele>1461.0</ele>
        <time>2018-09-16T12:13:30Z</time>
      </trkpt>
      <trkpt lat="40.258583" lon="-4.908483">
        <ele>1460.0</ele>
        <time>2018-09-16T12:13:31Z</time>
      </trkpt>
      <trkpt lat="40.258633" lon="-4.908567">
        <ele>1458.0</ele>
        <time>2018-09-16T12:13:32Z</time>
      </trkpt>
      <trkpt lat="40.258683" lon="-4.908683">
        <ele>1456.0</ele>
        <time>2018-09-16T12:13:33Z</time>
      </trkpt>
      <trkpt lat="40.258733" lon="-4.908800">
        <ele>1455.0</ele>
        <time>2018-09-16T12:13:34Z</time>
      </trkpt>
      <trkpt lat="40.258783" lon="-4.908900">
        <ele>1454.0</ele>
        <time>2018-09-16T12:13:35Z</time>
      </trkpt>
      <trkpt lat="40.258833" lon="-4.909000">
        <ele>1455.0</ele>
        <time>2018-09-16T12:13:36Z</time>
      </trkpt>
      <trkpt lat="40.258883" lon="-4.909100">
        <ele>1458.0</ele>
        <time>2018-09-16T12:13:37Z</time>
      </trkpt>
      <trkpt lat="40.258950" lon="-4.909183">
        <ele>1460.0</ele>
        <time>2018-09-16T12:13:38Z</time>
      </trkpt>
      <trkpt lat="40.258983" lon="-4.909267">
        <ele>1461.0</ele>
        <time>2018-09-16T12:13:39Z</time>
      </trkpt>
      <trkpt lat="40.259000" lon="-4.909350">
        <ele>1461.0</ele>
        <time>2018-09-16T12:13:40Z</time>
      </trkpt>
      <trkpt lat="40.258983" lon="-4.909433">
        <ele>1460.0</ele>
        <time>2018-09-16T12:13:41Z</time>
      </trkpt>
      <trkpt lat="40.258950" lon="-4.909483">
        <ele>1459.0</ele>
        <time>2018-09-16T12:13:42Z</time>
      </trkpt>
      <trkpt lat="40.258900" lon="-4.909483">
        <ele>1460.0</ele>
        <time>2018-09-16T12:13:43Z</time>
      </trkpt>
      <trkpt lat="40.258850" lon="-4.909433">
        <ele>1461.0</ele>
        <time>2018-09-16T12:13:44Z</time>
      </trkpt>
      <trkpt lat="40.258833" lon="-4.909333">
        <ele>1461.0</ele>
        <time>2018-09-16T12:13:45Z</time>
      </trkpt>
      <trkpt lat="40.258833" lon="-4.909200">
        <ele>1461.0</ele>
        <time>2018-09-16T12:13:46Z</time>
      </trkpt>
      <trkpt lat="40.258867" lon="-4.909083">
        <ele>1461.0</ele>
        <time>2018-09-16T12:13:47Z</time>
      </trkpt>
      <trkpt lat="40.258917" lon="-4.908967">
        <ele>1462.0</ele>
        <time>2018-09-16T12:13:48Z</time>
      </trkpt>
      <trkpt lat="40.258967" lon="-4.908850">
        <ele>1462.0</ele>
        <time>2018-09-16T12:13:49Z</time>
      </trkpt>
      <trkpt lat="40.259000" lon="-4.908733">
        <ele>1463.0</ele>
        <time>2018-09-16T12:13:50Z</time>
      </trkpt>
      <trkpt lat="40.258950" lon="-4.908650">
        <ele>1464.0</ele>
        <time>2018-09-16T12:13:51Z</time>
      </trkpt>
      <trkpt lat="40.258900" lon="-4.908567">
        <ele>1463.0</ele>
        <time>2018-09-16T12:13:52Z</time>
      </trkpt>
      <trkpt lat="40.258850" lon="-4.908517">
        <ele>1463.0</ele>
        <time>2018-09-16T12:13:53Z</time>
      </trkpt>
      <trkpt lat="40.258783" lon="-4.908500">
        <ele>1462.0</ele>
        <time>2018-09-16T12:13:54Z</time>
      </trkpt>
      <trkpt lat="40.258717" lon="-4.908500">
        <ele>1462.0</ele>
        <time>2018-09-16T12:13:55Z</time>
      </trkpt>
      <trkpt lat="40.258667" lon="-4.908533">
        <ele>1462.0</ele>
        <time>2018-09-16T12:13:56Z</time>
      </trkpt>
      <trkpt lat="40.258650" lon="-4.908567">
        <ele>1462.0</ele>
        <time>2018-09-16T12:13:57Z</time>
      </trkpt>
      <trkpt lat="40.258633" lon="-4.908600">
        <ele>1462.0</ele>
        <time>2018-09-16T12:13:58Z</time>
      </trkpt>
      <trkpt lat="40.258617" lon="-4.908683">
        <ele>1462.0</ele>
        <time>2018-09-16T12:13:59Z</time>
      </trkpt>
      <trkpt lat="40.258633" lon="-4.908817">
        <ele>1462.0</ele>
        <time>2018-09-16T12:14:00Z</time>
      </trkpt>
      <trkpt lat="40.258667" lon="-4.908950">
        <ele>1461.0</ele>
        <time>2018-09-16T12:14:01Z</time>
      </trkpt>
      <trkpt lat="40.258717" lon="-4.909083">
        <ele>1461.0</ele>
        <time>2018-09-16T12:14:02Z</time>
      </trkpt>
      <trkpt lat="40.258783" lon="-4.909183">
        <ele>1461.0</ele>
        <time>2018-09-16T12:14:03Z</time>
      </trkpt>
      <trkpt lat="40.258850" lon="-4.909267">
        <ele>1460.0</ele>
        <time>2018-09-16T12:14:04Z</time>
      </trkpt>
      <trkpt lat="40.258900" lon="-4.909333">
        <ele>1460.0</ele>
        <time>2018-09-16T12:14:05Z</time>
      </trkpt>
      <trkpt lat="40.258933" lon="-4.909417">
        <ele>1460.0</ele>
        <time>2018-09-16T12:14:06Z</time>
      </trkpt>
      <trkpt lat="40.258950" lon="-4.909517">
        <ele>1459.0</ele>
        <time>2018-09-16T12:14:07Z</time>
      </trkpt>
      <trkpt lat="40.258950" lon="-4.909600">
        <ele>1457.0</ele>
        <time>2018-09-16T12:14:08Z</time>
      </trkpt>
      <trkpt lat="40.258933" lon="-4.909683">
        <ele>1456.0</ele>
        <time>2018-09-16T12:14:09Z</time>
      </trkpt>
      <trkpt lat="40.258883" lon="-4.909767">
        <ele>1454.0</ele>
        <time>2018-09-16T12:14:10Z</time>
      </trkpt>
      <trkpt lat="40.258817" lon="-4.909800">
        <ele>1452.0</ele>
        <time>2018-09-16T12:14:11Z</time>
      </trkpt>
      <trkpt lat="40.258750" lon="-4.909800">
        <ele>1451.0</ele>
        <time>2018-09-16T12:14:12Z</time>
      </trkpt>
      <trkpt lat="40.258683" lon="-4.909733">
        <ele>1449.0</ele>
        <time>2018-09-16T12:14:13Z</time>
      </trkpt>
      <trkpt lat="40.258650" lon="-4.909650">
        <ele>1447.0</ele>
        <time>2018-09-16T12:14:14Z</time>
      </trkpt>
      <trkpt lat="40.258633" lon="-4.909517">
        <ele>1446.0</ele>
        <time>2018-09-16T12:14:15Z</time>
      </trkpt>
      <trkpt lat="40.258667" lon="-4.909400">
        <ele>1446.0</ele>
        <time>2018-09-16T12:14:16Z</time>
      </trkpt>
      <trkpt lat="40.258717" lon="-4.909283">
        <ele>1446.0</ele>
        <time>2018-09-16T12:14:17Z</time>
      </trkpt>
      <trkpt lat="40.258750" lon="-4.909167">
        <ele>1446.0</ele>
        <time>2018-09-16T12:14:18Z</time>
      </trkpt>
      <trkpt lat="40.258767" lon="-4.909067">
        <ele>1445.0</ele>
        <time>2018-09-16T12:14:19Z</time>
      </trkpt>
      <trkpt lat="40.258750" lon="-4.908950">
        <ele>1446.0</ele>
        <time>2018-09-16T12:14:20Z</time>
      </trkpt>
      <trkpt lat="40.258717" lon="-4.908850">
        <ele>1445.0</ele>
        <time>2018-09-16T12:14:21Z</time>
      </trkpt>
      <trkpt lat="40.258683" lon="-4.908800">
        <ele>1446.0</ele>
        <time>2018-09-16T12:14:22Z</time>
      </trkpt>
      <trkpt lat="40.258683" lon="-4.908850">
        <ele>1446.0</ele>
        <time>2018-09-16T12:14:23Z</time>
      </trkpt>
      <trkpt lat="40.258700" lon="-4.908967">
        <ele>1446.0</ele>
        <time>2018-09-16T12:14:24Z</time>
      </trkpt>
      <trkpt lat="40.258750" lon="-4.909100">
        <ele>1446.0</ele>
        <time>2018-09-16T12:14:25Z</time>
      </trkpt>
      <trkpt lat="40.258800" lon="-4.909217">
        <ele>1446.0</ele>
        <time>2018-09-16T12:14:26Z</time>
      </trkpt>
      <trkpt lat="40.258833" lon="-4.909333">
        <ele>1447.0</ele>
        <time>2018-09-16T12:14:27Z</time>
      </trkpt>
      <trkpt lat="40.258883" lon="-4.909433">
        <ele>1447.0</ele>
        <time>2018-09-16T12:14:28Z</time>
      </trkpt>
      <trkpt lat="40.258917" lon="-4.909517">
        <ele>1448.0</ele>
        <time>2018-09-16T12:14:29Z</time>
      </trkpt>
      <trkpt lat="40.258967" lon="-4.909633">
        <ele>1448.0</ele>
        <time>2018-09-16T12:14:30Z</time>
      </trkpt>
      <trkpt lat="40.259000" lon="-4.909767">
        <ele>1448.0</ele>
        <time>2018-09-16T12:14:31Z</time>
      </trkpt>
      <trkpt lat="40.259067" lon="-4.909883">
        <ele>1448.0</ele>
        <time>2018-09-16T12:14:32Z</time>
      </trkpt>
      <trkpt lat="40.259117" lon="-4.909983">
        <ele>1448.0</ele>
        <time>2018-09-16T12:14:33Z</time>
      </trkpt>
      <trkpt lat="40.259167" lon="-4.910067">
        <ele>1447.0</ele>
        <time>2018-09-16T12:14:34Z</time>
      </trkpt>
      <trkpt lat="40.259217" lon="-4.910150">
        <ele>1446.0</ele>
        <time>2018-09-16T12:14:35Z</time>
      </trkpt>
      <trkpt lat="40.259267" lon="-4.910250">
        <ele>1445.0</ele>
        <time>2018-09-16T12:14:36Z</time>
      </trkpt>
      <trkpt lat="40.259317" lon="-4.910350">
        <ele>1444.0</ele>
        <time>2018-09-16T12:14:37Z</time>
      </trkpt>
      <trkpt lat="40.259350" lon="-4.910467">
        <ele>1443.0</ele>
        <time>2018-09-16T12:14:38Z</time>
      </trkpt>
      <trkpt lat="40.259383" lon="-4.910567">
        <ele>1442.0</ele>
        <time>2018-09-16T12:14:39Z</time>
      </trkpt>
      <trkpt lat="40.259400" lon="-4.910683">
        <ele>1442.0</ele>
        <time>2018-09-16T12:14:40Z</time>
      </trkpt>
      <trkpt lat="40.259433" lon="-4.910783">
        <ele>1442.0</ele>
        <time>2018-09-16T12:14:41Z</time>
      </trkpt>
      <trkpt lat="40.259467" lon="-4.910867">
        <ele>1442.0</ele>
        <time>2018-09-16T12:14:42Z</time>
      </trkpt>
      <trkpt lat="40.259483" lon="-4.910983">
        <ele>1442.0</ele>
        <time>2018-09-16T12:14:43Z</time>
      </trkpt>
      <trkpt lat="40.259500" lon="-4.911100">
        <ele>1439.0</ele>
        <time>2018-09-16T12:14:44Z</time>
      </trkpt>
      <trkpt lat="40.259517" lon="-4.911233">
        <ele>1437.0</ele>
        <time>2018-09-16T12:14:45Z</time>
      </trkpt>
      <trkpt lat="40.259517" lon="-4.911350">
        <ele>1435.0</ele>
        <time>2018-09-16T12:14:46Z</time>
      </trkpt>
      <trkpt lat="40.259517" lon="-4.911450">
        <ele>1435.0</ele>
        <time>2018-09-16T12:14:47Z</time>
      </trkpt>
      <trkpt lat="40.259517" lon="-4.911550">
        <ele>1434.0</ele>
        <time>2018-09-16T12:14:48Z</time>
      </trkpt>
      <trkpt lat="40.259533" lon="-4.911650">
        <ele>1432.0</ele>
        <time>2018-09-16T12:14:49Z</time>
      </trkpt>
      <trkpt lat="40.259533" lon="-4.911767">
        <ele>1429.0</ele>
        <time>2018-09-16T12:14:50Z</time>
      </trkpt>
      <trkpt lat="40.259517" lon="-4.911900">
        <ele>1427.0</ele>
        <time>2018-09-16T12:14:51Z</time>
      </trkpt>
      <trkpt lat="40.259533" lon="-4.912017">
        <ele>1425.0</ele>
        <time>2018-09-16T12:14:52Z</time>
      </trkpt>
      <trkpt lat="40.259550" lon="-4.912117">
        <ele>1423.0</ele>
        <time>2018-09-16T12:14:53Z</time>
      </trkpt>
      <trkpt lat="40.259550" lon="-4.912217">
        <ele>1421.0</ele>
        <time>2018-09-16T12:14:54Z</time>
      </trkpt>
      <trkpt lat="40.259550" lon="-4.912317">
        <ele>1419.0</ele>
        <time>2018-09-16T12:14:55Z</time>
      </trkpt>
      <trkpt lat="40.259517" lon="-4.912417">
        <ele>1415.0</ele>
        <time>2018-09-16T12:14:56Z</time>
      </trkpt>
      <trkpt lat="40.259467" lon="-4.912483">
        <ele>1412.0</ele>
        <time>2018-09-16T12:14:57Z</time>
      </trkpt>
      <trkpt lat="40.259383" lon="-4.912500">
        <ele>1409.0</ele>
        <time>2018-09-16T12:14:58Z</time>
      </trkpt>
      <trkpt lat="40.259317" lon="-4.912483">
        <ele>1406.0</ele>
        <time>2018-09-16T12:14:59Z</time>
      </trkpt>
      <trkpt lat="40.259250" lon="-4.912433">
        <ele>1403.0</ele>
        <time>2018-09-16T12:15:00Z</time>
      </trkpt>
      <trkpt lat="40.259200" lon="-4.912367">
        <ele>1400.0</ele>
        <time>2018-09-16T12:15:01Z</time>
      </trkpt>
      <trkpt lat="40.259167" lon="-4.912300">
        <ele>1399.0</ele>
        <time>2018-09-16T12:15:02Z</time>
      </trkpt>
      <trkpt lat="40.259133" lon="-4.912250">
        <ele>1398.0</ele>
        <time>2018-09-16T12:15:03Z</time>
      </trkpt>
      <trkpt lat="40.259100" lon="-4.912183">
        <ele>1396.0</ele>
        <time>2018-09-16T12:15:04Z</time>
      </trkpt>
      <trkpt lat="40.259067" lon="-4.912083">
        <ele>1394.0</ele>
        <time>2018-09-16T12:15:05Z</time>
      </trkpt>
      <trkpt lat="40.259033" lon="-4.911983">
        <ele>1391.0</ele>
        <time>2018-09-16T12:15:06Z</time>
      </trkpt>
      <trkpt lat="40.259000" lon="-4.911867">
        <ele>1388.0</ele>
        <time>2018-09-16T12:15:07Z</time>
      </trkpt>
      <trkpt lat="40.258967" lon="-4.911767">
        <ele>1393.0</ele>
        <time>2018-09-16T12:15:08Z</time>
      </trkpt>
      <trkpt lat="40.258933" lon="-4.911683">
        <ele>1392.0</ele>
        <time>2018-09-16T12:15:09Z</time>
      </trkpt>
      <trkpt lat="40.258900" lon="-4.911600">
        <ele>1392.0</ele>
        <time>2018-09-16T12:15:10Z</time>
      </trkpt>
      <trkpt lat="40.258883" lon="-4.911517">
        <ele>1392.0</ele>
        <time>2018-09-16T12:15:11Z</time>
      </trkpt>
      <trkpt lat="40.258850" lon="-4.911417">
        <ele>1392.0</ele>
        <time>2018-09-16T12:15:12Z</time>
      </trkpt>
      <trkpt lat="40.258800" lon="-4.911300">
        <ele>1391.0</ele>
        <time>2018-09-16T12:15:13Z</time>
      </trkpt>
      <trkpt lat="40.258767" lon="-4.911200">
        <ele>1391.0</ele>
        <time>2018-09-16T12:15:14Z</time>
      </trkpt>
      <trkpt lat="40.258717" lon="-4.911100">
        <ele>1390.0</ele>
        <time>2018-09-16T12:15:15Z</time>
      </trkpt>
      <trkpt lat="40.258683" lon="-4.911017">
        <ele>1389.0</ele>
        <time>2018-09-16T12:15:16Z</time>
      </trkpt>
      <trkpt lat="40.258667" lon="-4.910933">
        <ele>1388.0</ele>
        <time>2018-09-16T12:15:17Z</time>
      </trkpt>
      <trkpt lat="40.258633" lon="-4.910833">
        <ele>1386.0</ele>
        <time>2018-09-16T12:15:18Z</time>
      </trkpt>
      <trkpt lat="40.258600" lon="-4.910750">
        <ele>1384.0</ele>
        <time>2018-09-16T12:15:19Z</time>
      </trkpt>
      <trkpt lat="40.258567" lon="-4.910650">
        <ele>1382.0</ele>
        <time>2018-09-16T12:15:20Z</time>
      </trkpt>
      <trkpt lat="40.258533" lon="-4.910567">
        <ele>1380.0</ele>
        <time>2018-09-16T12:15:21Z</time>
      </trkpt>
      <trkpt lat="40.258500" lon="-4.910467">
        <ele>1378.0</ele>
        <time>2018-09-16T12:15:22Z</time>
      </trkpt>
      <trkpt lat="40.258450" lon="-4.910383">
        <ele>1376.0</ele>
        <time>2018-09-16T12:15:23Z</time>
      </trkpt>
      <trkpt lat="40.258417" lon="-4.910283">
        <ele>1375.0</ele>
        <time>2018-09-16T12:15:24Z</time>
      </trkpt>
      <trkpt lat="40.258383" lon="-4.910183">
        <ele>1374.0</ele>
        <time>2018-09-16T12:15:25Z</time>
      </trkpt>
      <trkpt lat="40.258350" lon="-4.910100">
        <ele>1374.0</ele>
        <time>2018-09-16T12:15:26Z</time>
      </trkpt>
      <trkpt lat="40.258300" lon="-4.910000">
        <ele>1375.0</ele>
        <time>2018-09-16T12:15:27Z</time>
      </trkpt>
      <trkpt lat="40.258267" lon="-4.909917">
        <ele>1375.0</ele>
        <time>2018-09-16T12:15:28Z</time>
      </trkpt>
      <trkpt lat="40.258233" lon="-4.909833">
        <ele>1375.0</ele>
        <time>2018-09-16T12:15:29Z</time>
      </trkpt>
      <trkpt lat="40.258217" lon="-4.909733">
        <ele>1375.0</ele>
        <time>2018-09-16T12:15:30Z</time>
      </trkpt>
      <trkpt lat="40.258183" lon="-4.909650">
        <ele>1375.0</ele>
        <time>2018-09-16T12:15:31Z</time>
      </trkpt>
      <trkpt lat="40.258133" lon="-4.909583">
        <ele>1375.0</ele>
        <time>2018-09-16T12:15:32Z</time>
      </trkpt>
      <trkpt lat="40.258067" lon="-4.909533">
        <ele>1376.0</ele>
        <time>2018-09-16T12:15:33Z</time>
      </trkpt>
      <trkpt lat="40.258017" lon="-4.909550">
        <ele>1376.0</ele>
        <time>2018-09-16T12:15:34Z</time>
      </trkpt>
      <trkpt lat="40.257983" lon="-4.909617">
        <ele>1376.0</ele>
        <time>2018-09-16T12:15:35Z</time>
      </trkpt>
      <trkpt lat="40.257983" lon="-4.909717">
        <ele>1376.0</ele>
        <time>2018-09-16T12:15:36Z</time>
      </trkpt>
      <trkpt lat="40.258017" lon="-4.909817">
        <ele>1375.0</ele>
        <time>2018-09-16T12:15:37Z</time>
      </trkpt>
      <trkpt lat="40.258117" lon="-4.909867">
        <ele>1375.0</ele>
        <time>2018-09-16T12:15:38Z</time>
      </trkpt>
      <trkpt lat="40.258233" lon="-4.909867">
        <ele>1374.0</ele>
        <time>2018-09-16T12:15:39Z</time>
      </trkpt>
      <trkpt lat="40.258350" lon="-4.909800">
        <ele>1373.0</ele>
        <time>2018-09-16T12:15:40Z</time>
      </trkpt>
      <trkpt lat="40.258417" lon="-4.909683">
        <ele>1373.0</ele>
        <time>2018-09-16T12:15:41Z</time>
      </trkpt>
      <trkpt lat="40.258467" lon="-4.909567">
        <ele>1373.0</ele>
        <time>2018-09-16T12:15:42Z</time>
      </trkpt>
      <trkpt lat="40.258500" lon="-4.909450">
        <ele>1374.0</ele>
        <time>2018-09-16T12:15:43Z</time>
      </trkpt>
      <trkpt lat="40.258533" lon="-4.909350">
        <ele>1375.0</ele>
        <time>2018-09-16T12:15:44Z</time>
      </trkpt>
      <trkpt lat="40.258550" lon="-4.909250">
        <ele>1374.0</ele>
        <time>2018-09-16T12:15:45Z</time>
      </trkpt>
      <trkpt lat="40.258517" lon="-4.909150">
        <ele>1374.0</ele>
        <time>2018-09-16T12:15:46Z</time>
      </trkpt>
      <trkpt lat="40.258483" lon="-4.909050">
        <ele>1374.0</ele>
        <time>2018-09-16T12:15:47Z</time>
      </trkpt>
      <trkpt lat="40.258433" lon="-4.908983">
        <ele>1375.0</ele>
        <time>2018-09-16T12:15:48Z</time>
      </trkpt>
      <trkpt lat="40.258400" lon="-4.908967">
        <ele>1375.0</ele>
        <time>2018-09-16T12:15:49Z</time>
      </trkpt>
      <trkpt lat="40.258350" lon="-4.909033">
        <ele>1374.0</ele>
        <time>2018-09-16T12:15:50Z</time>
      </trkpt>
      <trkpt lat="40.258317" lon="-4.909117">
        <ele>1374.0</ele>
        <time>2018-09-16T12:15:51Z</time>
      </trkpt>
      <trkpt lat="40.258317" lon="-4.909200">
        <ele>1375.0</ele>
        <time>2018-09-16T12:15:52Z</time>
      </trkpt>
      <trkpt lat="40.258317" lon="-4.909283">
        <ele>1375.0</ele>
        <time>2018-09-16T12:15:53Z</time>
      </trkpt>
      <trkpt lat="40.258350" lon="-4.909383">
        <ele>1375.0</ele>
        <time>2018-09-16T12:15:54Z</time>
      </trkpt>
      <trkpt lat="40.258417" lon="-4.909450">
        <ele>1375.0</ele>
        <time>2018-09-16T12:15:55Z</time>
      </trkpt>
      <trkpt lat="40.258517" lon="-4.909483">
        <ele>1374.0</ele>
        <time>2018-09-16T12:15:56Z</time>
      </trkpt>
      <trkpt lat="40.258633" lon="-4.909450">
        <ele>1373.0</ele>
        <time>2018-09-16T12:15:57Z</time>
      </trkpt>
      <trkpt lat="40.258733" lon="-4.909367">
        <ele>1372.0</ele>
        <time>2018-09-16T12:15:58Z</time>
      </trkpt>
      <trkpt lat="40.258783" lon="-4.909233">
        <ele>1372.0</ele>
        <time>2018-09-16T12:15:59Z</time>
      </trkpt>
      <trkpt lat="40.258800" lon="-4.909100">
        <ele>1372.0</ele>
        <time>2018-09-16T12:16:00Z</time>
      </trkpt>
      <trkpt lat="40.258783" lon="-4.909000">
        <ele>1373.0</ele>
        <time>2018-09-16T12:16:01Z</time>
      </trkpt>
      <trkpt lat="40.258750" lon="-4.908933">
        <ele>1373.0</ele>
        <time>2018-09-16T12:16:02Z</time>
      </trkpt>
      <trkpt lat="40.258717" lon="-4.908883">
        <ele>1373.0</ele>
        <time>2018-09-16T12:16:03Z</time>
      </trkpt>
      <trkpt lat="40.258667" lon="-4.908833">
        <ele>1373.0</ele>
        <time>2018-09-16T12:16:04Z</time>
      </trkpt>
      <trkpt lat="40.258617" lon="-4.908767">
        <ele>1373.0</ele>
        <time>2018-09-16T12:16:05Z</time>
      </trkpt>
      <trkpt lat="40.258583" lon="-4.908700">
        <ele>1374.0</ele>
        <time>2018-09-16T12:16:06Z</time>
      </trkpt>
      <trkpt lat="40.258533" lon="-4.908633">
        <ele>1376.0</ele>
        <time>2018-09-16T12:16:07Z</time>
      </trkpt>
      <trkpt lat="40.258500" lon="-4.908567">
        <ele>1376.0</ele>
        <time>2018-09-16T12:16:08Z</time>
      </trkpt>
      <trkpt lat="40.258450" lon="-4.908500">
        <ele>1377.0</ele>
        <time>2018-09-16T12:16:09Z</time>
      </trkpt>
      <trkpt lat="40.258400" lon="-4.908450">
        <ele>1378.0</ele>
        <time>2018-09-16T12:16:10Z</time>
      </trkpt>
      <trkpt lat="40.258350" lon="-4.908450">
        <ele>1379.0</ele>
        <time>2018-09-16T12:16:11Z</time>
      </trkpt>
      <trkpt lat="40.258317" lon="-4.908517">
        <ele>1381.0</ele>
        <time>2018-09-16T12:16:12Z</time>
      </trkpt>
      <trkpt lat="40.258317" lon="-4.908617">
        <ele>1382.0</ele>
        <time>2018-09-16T12:16:13Z</time>
      </trkpt>
      <trkpt lat="40.258383" lon="-4.908717">
        <ele>1383.0</ele>
        <time>2018-09-16T12:16:14Z</time>
      </trkpt>
      <trkpt lat="40.258483" lon="-4.908767">
        <ele>1384.0</ele>
        <time>2018-09-16T12:16:15Z</time>
      </trkpt>
      <trkpt lat="40.258600" lon="-4.908767">
        <ele>1384.0</ele>
        <time>2018-09-16T12:16:16Z</time>
      </trkpt>
      <trkpt lat="40.258717" lon="-4.908717">
        <ele>1383.0</ele>
        <time>2018-09-16T12:16:17Z</time>
      </trkpt>
      <trkpt lat="40.258800" lon="-4.908600">
        <ele>1383.0</ele>
        <time>2018-09-16T12:16:18Z</time>
      </trkpt>
      <trkpt lat="40.258850" lon="-4.908483">
        <ele>1383.0</ele>
        <time>2018-09-16T12:16:19Z</time>
      </trkpt>
      <trkpt lat="40.258867" lon="-4.908350">
        <ele>1382.0</ele>
        <time>2018-09-16T12:16:20Z</time>
      </trkpt>
      <trkpt lat="40.258867" lon="-4.908250">
        <ele>1382.0</ele>
        <time>2018-09-16T12:16:21Z</time>
      </trkpt>
      <trkpt lat="40.258833" lon="-4.908183">
        <ele>1382.0</ele>
        <time>2018-09-16T12:16:22Z</time>
      </trkpt>
      <trkpt lat="40.258800" lon="-4.908117">
        <ele>1383.0</ele>
        <time>2018-09-16T12:16:23Z</time>
      </trkpt>
      <trkpt lat="40.258750" lon="-4.908067">
        <ele>1383.0</ele>
        <time>2018-09-16T12:16:24Z</time>
      </trkpt>
      <trkpt lat="40.258700" lon="-4.908050">
        <ele>1384.0</ele>
        <time>2018-09-16T12:16:25Z</time>
      </trkpt>
      <trkpt lat="40.258633" lon="-4.908050">
        <ele>1384.0</ele>
        <time>2018-09-16T12:16:26Z</time>
      </trkpt>
      <trkpt lat="40.258567" lon="-4.908100">
        <ele>1383.0</ele>
        <time>2018-09-16T12:16:27Z</time>
      </trkpt>
      <trkpt lat="40.258517" lon="-4.908167">
        <ele>1383.0</ele>
        <time>2018-09-16T12:16:28Z</time>
      </trkpt>
      <trkpt lat="40.258450" lon="-4.908200">
        <ele>1383.0</ele>
        <time>2018-09-16T12:16:29Z</time>
      </trkpt>
      <trkpt lat="40.258400" lon="-4.908217">
        <ele>1383.0</ele>
        <time>2018-09-16T12:16:30Z</time>
      </trkpt>
      <trkpt lat="40.258333" lon="-4.908217">
        <ele>1382.0</ele>
        <time>2018-09-16T12:16:31Z</time>
      </trkpt>
      <trkpt lat="40.258267" lon="-4.908233">
        <ele>1382.0</ele>
        <time>2018-09-16T12:16:32Z</time>
      </trkpt>
      <trkpt lat="40.258200" lon="-4.908233">
        <ele>1381.0</ele>
        <time>2018-09-16T12:16:33Z</time>
      </trkpt>
      <trkpt lat="40.258133" lon="-4.908233">
        <ele>1381.0</ele>
        <time>2018-09-16T12:16:34Z</time>
      </trkpt>
      <trkpt lat="40.258067" lon="-4.908200">
        <ele>1380.0</ele>
        <time>2018-09-16T12:16:35Z</time>
      </trkpt>
      <trkpt lat="40.258000" lon="-4.908150">
        <ele>1379.0</ele>
        <time>2018-09-16T12:16:36Z</time>
      </trkpt>
      <trkpt lat="40.257933" lon="-4.908100">
        <ele>1378.0</ele>
        <time>2018-09-16T12:16:37Z</time>
      </trkpt>
      <trkpt lat="40.257867" lon="-4.908033">
        <ele>1378.0</ele>
        <time>2018-09-16T12:16:38Z</time>
      </trkpt>
      <trkpt lat="40.257800" lon="-4.907983">
        <ele>1377.0</ele>
        <time>2018-09-16T12:16:39Z</time>
      </trkpt>
      <trkpt lat="40.257750" lon="-4.907917">
        <ele>1377.0</ele>
        <time>2018-09-16T12:16:40Z</time>
      </trkpt>
      <trkpt lat="40.257683" lon="-4.907850">
        <ele>1376.0</ele>
        <time>2018-09-16T12:16:41Z</time>
      </trkpt>
      <trkpt lat="40.257633" lon="-4.907800">
        <ele>1375.0</ele>
        <time>2018-09-16T12:16:42Z</time>
      </trkpt>
      <trkpt lat="40.257567" lon="-4.907733">
        <ele>1374.0</ele>
        <time>2018-09-16T12:16:43Z</time>
      </trkpt>
      <trkpt lat="40.257517" lon="-4.907700">
        <ele>1374.0</ele>
        <time>2018-09-16T12:16:44Z</time>
      </trkpt>
      <trkpt lat="40.257450" lon="-4.907650">
        <ele>1373.0</ele>
        <time>2018-09-16T12:16:45Z</time>
      </trkpt>
      <trkpt lat="40.257383" lon="-4.907600">
        <ele>1373.0</ele>
        <time>2018-09-16T12:16:46Z</time>
      </trkpt>
      <trkpt lat="40.257317" lon="-4.907550">
        <ele>1372.0</ele>
        <time>2018-09-16T12:16:47Z</time>
      </trkpt>
      <trkpt lat="40.257250" lon="-4.907500">
        <ele>1371.0</ele>
        <time>2018-09-16T12:16:48Z</time>
      </trkpt>
      <trkpt lat="40.257183" lon="-4.907450">
        <ele>1370.0</ele>
        <time>2018-09-16T12:16:49Z</time>
      </trkpt>
      <trkpt lat="40.257100" lon="-4.907417">
        <ele>1368.0</ele>
        <time>2018-09-16T12:16:50Z</time>
      </trkpt>
      <trkpt lat="40.257033" lon="-4.907367">
        <ele>1365.0</ele>
        <time>2018-09-16T12:16:51Z</time>
      </trkpt>
      <trkpt lat="40.256950" lon="-4.907317">
        <ele>1364.0</ele>
        <time>2018-09-16T12:16:52Z</time>
      </trkpt>
      <trkpt lat="40.256883" lon="-4.907283">
        <ele>1362.0</ele>
        <time>2018-09-16T12:16:53Z</time>
      </trkpt>
      <trkpt lat="40.256800" lon="-4.907250">
        <ele>1361.0</ele>
        <time>2018-09-16T12:16:54Z</time>
      </trkpt>
      <trkpt lat="40.256733" lon="-4.907217">
        <ele>1360.0</ele>
        <time>2018-09-16T12:16:55Z</time>
      </trkpt>
      <trkpt lat="40.256667" lon="-4.907167">
        <ele>1359.0</ele>
        <time>2018-09-16T12:16:56Z</time>
      </trkpt>
      <trkpt lat="40.256600" lon="-4.907133">
        <ele>1358.0</ele>
        <time>2018-09-16T12:16:57Z</time>
      </trkpt>
      <trkpt lat="40.256533" lon="-4.907100">
        <ele>1357.0</ele>
        <time>2018-09-16T12:16:58Z</time>
      </trkpt>
      <trkpt lat="40.256467" lon="-4.907067">
        <ele>1355.0</ele>
        <time>2018-09-16T12:16:59Z</time>
      </trkpt>
      <trkpt lat="40.256400" lon="-4.907017">
        <ele>1354.0</ele>
        <time>2018-09-16T12:17:00Z</time>
      </trkpt>
      <trkpt lat="40.256350" lon="-4.906967">
        <ele>1352.0</ele>
        <time>2018-09-16T12:17:01Z</time>
      </trkpt>
      <trkpt lat="40.256283" lon="-4.906917">
        <ele>1351.0</ele>
        <time>2018-09-16T12:17:02Z</time>
      </trkpt>
      <trkpt lat="40.256233" lon="-4.906883">
        <ele>1350.0</ele>
        <time>2018-09-16T12:17:03Z</time>
      </trkpt>
      <trkpt lat="40.256183" lon="-4.906833">
        <ele>1348.0</ele>
        <time>2018-09-16T12:17:04Z</time>
      </trkpt>
      <trkpt lat="40.256117" lon="-4.906800">
        <ele>1347.0</ele>
        <time>2018-09-16T12:17:05Z</time>
      </trkpt>
      <trkpt lat="40.256050" lon="-4.906750">
        <ele>1345.0</ele>
        <time>2018-09-16T12:17:06Z</time>
      </trkpt>
      <trkpt lat="40.256000" lon="-4.906700">
        <ele>1343.0</ele>
        <time>2018-09-16T12:17:07Z</time>
      </trkpt>
      <trkpt lat="40.255933" lon="-4.906650">
        <ele>1341.0</ele>
        <time>2018-09-16T12:17:08Z</time>
      </trkpt>
      <trkpt lat="40.255867" lon="-4.906583">
        <ele>1340.0</ele>
        <time>2018-09-16T12:17:09Z</time>
      </trkpt>
      <trkpt lat="40.255817" lon="-4.906550">
        <ele>1339.0</ele>
        <time>2018-09-16T12:17:10Z</time>
      </trkpt>
      <trkpt lat="40.255783" lon="-4.906500">
        <ele>1341.0</ele>
        <time>2018-09-16T12:17:11Z</time>
      </trkpt>
      <trkpt lat="40.255733" lon="-4.906467">
        <ele>1341.0</ele>
        <time>2018-09-16T12:17:12Z</time>
      </trkpt>
      <trkpt lat="40.255700" lon="-4.906417">
        <ele>1340.0</ele>
        <time>2018-09-16T12:17:13Z</time>
      </trkpt>
      <trkpt lat="40.255650" lon="-4.906383">
        <ele>1339.0</ele>
        <time>2018-09-16T12:17:14Z</time>
      </trkpt>
      <trkpt lat="40.255567" lon="-4.906333">
        <ele>1337.0</ele>
        <time>2018-09-16T12:17:15Z</time>
      </trkpt>
      <trkpt lat="40.255500" lon="-4.906300">
        <ele>1335.0</ele>
        <time>2018-09-16T12:17:16Z</time>
      </trkpt>
      <trkpt lat="40.255433" lon="-4.906267">
        <ele>1334.0</ele>
        <time>2018-09-16T12:17:17Z</time>
      </trkpt>
      <trkpt lat="40.255383" lon="-4.906217">
        <ele>1333.0</ele>
        <time>2018-09-16T12:17:18Z</time>
      </trkpt>
      <trkpt lat="40.255317" lon="-4.906183">
        <ele>1331.0</ele>
        <time>2018-09-16T12:17:19Z</time>
      </trkpt>
      <trkpt lat="40.255250" lon="-4.906133">
        <ele>1330.0</ele>
        <time>2018-09-16T12:17:20Z</time>
      </trkpt>
      <trkpt lat="40.255167" lon="-4.906100">
        <ele>1329.0</ele>
        <time>2018-09-16T12:17:21Z</time>
      </trkpt>
      <trkpt lat="40.255083" lon="-4.906067">
        <ele>1330.0</ele>
        <time>2018-09-16T12:17:22Z</time>
      </trkpt>
      <trkpt lat="40.255017" lon="-4.906050">
        <ele>1330.0</ele>
        <time>2018-09-16T12:17:23Z</time>
      </trkpt>
      <trkpt lat="40.254950" lon="-4.906000">
        <ele>1330.0</ele>
        <time>2018-09-16T12:17:24Z</time>
      </trkpt>
      <trkpt lat="40.254900" lon="-4.905967">
        <ele>1330.0</ele>
        <time>2018-09-16T12:17:25Z</time>
      </trkpt>
      <trkpt lat="40.254850" lon="-4.905933">
        <ele>1329.0</ele>
        <time>2018-09-16T12:17:26Z</time>
      </trkpt>
      <trkpt lat="40.254783" lon="-4.905900">
        <ele>1329.0</ele>
        <time>2018-09-16T12:17:27Z</time>
      </trkpt>
      <trkpt lat="40.254700" lon="-4.905867">
        <ele>1328.0</ele>
        <time>2018-09-16T12:17:28Z</time>
      </trkpt>
      <trkpt lat="40.254633" lon="-4.905817">
        <ele>1328.0</ele>
        <time>2018-09-16T12:17:29Z</time>
      </trkpt>
      <trkpt lat="40.254567" lon="-4.905767">
        <ele>1328.0</ele>
        <time>2018-09-16T12:17:30Z</time>
      </trkpt>
      <trkpt lat="40.254533" lon="-4.905700">
        <ele>1328.0</ele>
        <time>2018-09-16T12:17:31Z</time>
      </trkpt>
      <trkpt lat="40.254483" lon="-4.905650">
        <ele>1328.0</ele>
        <time>2018-09-16T12:17:32Z</time>
      </trkpt>
      <trkpt lat="40.254417" lon="-4.905583">
        <ele>1327.0</ele>
        <time>2018-09-16T12:17:33Z</time>
      </trkpt>
      <trkpt lat="40.254333" lon="-4.905533">
        <ele>1326.0</ele>
        <time>2018-09-16T12:17:34Z</time>
      </trkpt>
      <trkpt lat="40.254250" lon="-4.905483">
        <ele>1325.0</ele>
        <time>2018-09-16T12:17:35Z</time>
      </trkpt>
      <trkpt lat="40.254183" lon="-4.905433">
        <ele>1324.0</ele>
        <time>2018-09-16T12:17:36Z</time>
      </trkpt>
      <trkpt lat="40.254133" lon="-4.905400">
        <ele>1324.0</ele>
        <time>2018-09-16T12:17:37Z</time>
      </trkpt>
      <trkpt lat="40.254083" lon="-4.905367">
        <ele>1324.0</ele>
        <time>2018-09-16T12:17:38Z</time>
      </trkpt>
      <trkpt lat="40.254033" lon="-4.905317">
        <ele>1324.0</ele>
        <time>2018-09-16T12:17:39Z</time>
      </trkpt>
      <trkpt lat="40.253967" lon="-4.905267">
        <ele>1324.0</ele>
        <time>2018-09-16T12:17:40Z</time>
      </trkpt>
      <trkpt lat="40.253883" lon="-4.905217">
        <ele>1323.0</ele>
        <time>2018-09-16T12:17:41Z</time>
      </trkpt>
      <trkpt lat="40.253817" lon="-4.905167">
        <ele>1323.0</ele>
        <time>2018-09-16T12:17:42Z</time>
      </trkpt>
      <trkpt lat="40.253767" lon="-4.905117">
        <ele>1323.0</ele>
        <time>2018-09-16T12:17:43Z</time>
      </trkpt>
      <trkpt lat="40.253700" lon="-4.905083">
        <ele>1322.0</ele>
        <time>2018-09-16T12:17:44Z</time>
      </trkpt>
      <trkpt lat="40.253650" lon="-4.905033">
        <ele>1321.0</ele>
        <time>2018-09-16T12:17:45Z</time>
      </trkpt>
      <trkpt lat="40.253583" lon="-4.904983">
        <ele>1319.0</ele>
        <time>2018-09-16T12:17:46Z</time>
      </trkpt>
      <trkpt lat="40.253500" lon="-4.904950">
        <ele>1317.0</ele>
        <time>2018-09-16T12:17:47Z</time>
      </trkpt>
      <trkpt lat="40.253417" lon="-4.904917">
        <ele>1314.0</ele>
        <time>2018-09-16T12:17:48Z</time>
      </trkpt>
      <trkpt lat="40.253350" lon="-4.904867">
        <ele>1312.0</ele>
        <time>2018-09-16T12:17:49Z</time>
      </trkpt>
      <trkpt lat="40.253300" lon="-4.904800">
        <ele>1310.0</ele>
        <time>2018-09-16T12:17:50Z</time>
      </trkpt>
      <trkpt lat="40.253250" lon="-4.904750">
        <ele>1308.0</ele>
        <time>2018-09-16T12:17:51Z</time>
      </trkpt>
      <trkpt lat="40.253183" lon="-4.904683">
        <ele>1305.0</ele>
        <time>2018-09-16T12:17:52Z</time>
      </trkpt>
      <trkpt lat="40.253100" lon="-4.904633">
        <ele>1303.0</ele>
        <time>2018-09-16T12:17:53Z</time>
      </trkpt>
      <trkpt lat="40.253017" lon="-4.904567">
        <ele>1300.0</ele>
        <time>2018-09-16T12:17:54Z</time>
      </trkpt>
      <trkpt lat="40.252950" lon="-4.904533">
        <ele>1298.0</ele>
        <time>2018-09-16T12:17:55Z</time>
      </trkpt>
      <trkpt lat="40.252883" lon="-4.904483">
        <ele>1297.0</ele>
        <time>2018-09-16T12:17:56Z</time>
      </trkpt>
      <trkpt lat="40.252833" lon="-4.904450">
        <ele>1296.0</ele>
        <time>2018-09-16T12:17:57Z</time>
      </trkpt>
      <trkpt lat="40.252767" lon="-4.904417">
        <ele>1294.0</ele>
        <time>2018-09-16T12:17:58Z</time>
      </trkpt>
      <trkpt lat="40.252683" lon="-4.904383">
        <ele>1293.0</ele>
        <time>2018-09-16T12:17:59Z</time>
      </trkpt>
      <trkpt lat="40.252583" lon="-4.904350">
        <ele>1291.0</ele>
        <time>2018-09-16T12:18:00Z</time>
      </trkpt>
      <trkpt lat="40.252500" lon="-4.904317">
        <ele>1290.0</ele>
        <time>2018-09-16T12:18:01Z</time>
      </trkpt>
      <trkpt lat="40.252433" lon="-4.904283">
        <ele>1290.0</ele>
        <time>2018-09-16T12:18:02Z</time>
      </trkpt>
      <trkpt lat="40.252383" lon="-4.904250">
        <ele>1291.0</ele>
        <time>2018-09-16T12:18:03Z</time>
      </trkpt>
      <trkpt lat="40.252333" lon="-4.904233">
        <ele>1292.0</ele>
        <time>2018-09-16T12:18:04Z</time>
      </trkpt>
      <trkpt lat="40.252267" lon="-4.904200">
        <ele>1291.0</ele>
        <time>2018-09-16T12:18:05Z</time>
      </trkpt>
      <trkpt lat="40.252217" lon="-4.904200">
        <ele>1291.0</ele>
        <time>2018-09-16T12:18:06Z</time>
      </trkpt>
      <trkpt lat="40.252167" lon="-4.904200">
        <ele>1294.0</ele>
        <time>2018-09-16T12:18:07Z</time>
      </trkpt>
      <trkpt lat="40.252117" lon="-4.904200">
        <ele>1296.0</ele>
        <time>2018-09-16T12:18:08Z</time>
      </trkpt>
      <trkpt lat="40.252083" lon="-4.904200">
        <ele>1297.0</ele>
        <time>2018-09-16T12:18:09Z</time>
      </trkpt>
      <trkpt lat="40.252033" lon="-4.904200">
        <ele>1297.0</ele>
        <time>2018-09-16T12:18:10Z</time>
      </trkpt>
      <trkpt lat="40.251983" lon="-4.904183">
        <ele>1297.0</ele>
        <time>2018-09-16T12:18:11Z</time>
      </trkpt>
      <trkpt lat="40.251917" lon="-4.904183">
        <ele>1296.0</ele>
        <time>2018-09-16T12:18:12Z</time>
      </trkpt>
      <trkpt lat="40.251833" lon="-4.904183">
        <ele>1295.0</ele>
        <time>2018-09-16T12:18:13Z</time>
      </trkpt>
      <trkpt lat="40.251767" lon="-4.904150">
        <ele>1295.0</ele>
        <time>2018-09-16T12:18:14Z</time>
      </trkpt>
      <trkpt lat="40.251717" lon="-4.904133">
        <ele>1295.0</ele>
        <time>2018-09-16T12:18:15Z</time>
      </trkpt>
      <trkpt lat="40.251650" lon="-4.904083">
        <ele>1295.0</ele>
        <time>2018-09-16T12:18:16Z</time>
      </trkpt>
      <trkpt lat="40.251600" lon="-4.904050">
        <ele>1295.0</ele>
        <time>2018-09-16T12:18:17Z</time>
      </trkpt>
      <trkpt lat="40.251550" lon="-4.904017">
        <ele>1294.0</ele>
        <time>2018-09-16T12:18:18Z</time>
      </trkpt>
      <trkpt lat="40.251500" lon="-4.903983">
        <ele>1294.0</ele>
        <time>2018-09-16T12:18:19Z</time>
      </trkpt>
      <trkpt lat="40.251450" lon="-4.903967">
        <ele>1293.0</ele>
        <time>2018-09-16T12:18:20Z</time>
      </trkpt>
      <trkpt lat="40.251383" lon="-4.903933">
        <ele>1290.0</ele>
        <time>2018-09-16T12:18:21Z</time>
      </trkpt>
      <trkpt lat="40.251317" lon="-4.903900">
        <ele>1288.0</ele>
        <time>2018-09-16T12:18:22Z</time>
      </trkpt>
      <trkpt lat="40.251250" lon="-4.903867">
        <ele>1287.0</ele>
        <time>2018-09-16T12:18:23Z</time>
      </trkpt>
      <trkpt lat="40.251183" lon="-4.903817">
        <ele>1287.0</ele>
        <time>2018-09-16T12:18:24Z</time>
      </trkpt>
      <trkpt lat="40.251133" lon="-4.903783">
        <ele>1287.0</ele>
        <time>2018-09-16T12:18:25Z</time>
      </trkpt>
      <trkpt lat="40.251083" lon="-4.903750">
        <ele>1286.0</ele>
        <time>2018-09-16T12:18:26Z</time>
      </trkpt>
      <trkpt lat="40.251033" lon="-4.903717">
        <ele>1286.0</ele>
        <time>2018-09-16T12:18:27Z</time>
      </trkpt>
      <trkpt lat="40.250967" lon="-4.903683">
        <ele>1285.0</ele>
        <time>2018-09-16T12:18:28Z</time>
      </trkpt>
      <trkpt lat="40.250900" lon="-4.903650">
        <ele>1284.0</ele>
        <time>2018-09-16T12:18:29Z</time>
      </trkpt>
      <trkpt lat="40.250850" lon="-4.903600">
        <ele>1283.0</ele>
        <time>2018-09-16T12:18:30Z</time>
      </trkpt>
      <trkpt lat="40.250783" lon="-4.903567">
        <ele>1283.0</ele>
        <time>2018-09-16T12:18:31Z</time>
      </trkpt>
      <trkpt lat="40.250717" lon="-4.903550">
        <ele>1282.0</ele>
        <time>2018-09-16T12:18:32Z</time>
      </trkpt>
      <trkpt lat="40.250667" lon="-4.903500">
        <ele>1282.0</ele>
        <time>2018-09-16T12:18:33Z</time>
      </trkpt>
      <trkpt lat="40.250600" lon="-4.903467">
        <ele>1281.0</ele>
        <time>2018-09-16T12:18:34Z</time>
      </trkpt>
      <trkpt lat="40.250533" lon="-4.903417">
        <ele>1280.0</ele>
        <time>2018-09-16T12:18:35Z</time>
      </trkpt>
      <trkpt lat="40.250483" lon="-4.903383">
        <ele>1279.0</ele>
        <time>2018-09-16T12:18:36Z</time>
      </trkpt>
      <trkpt lat="40.250417" lon="-4.903350">
        <ele>1279.0</ele>
        <time>2018-09-16T12:18:37Z</time>
      </trkpt>
      <trkpt lat="40.250350" lon="-4.903333">
        <ele>1278.0</ele>
        <time>2018-09-16T12:18:38Z</time>
      </trkpt>
      <trkpt lat="40.250300" lon="-4.903300">
        <ele>1276.0</ele>
        <time>2018-09-16T12:18:39Z</time>
      </trkpt>
      <trkpt lat="40.250217" lon="-4.903267">
        <ele>1273.0</ele>
        <time>2018-09-16T12:18:40Z</time>
      </trkpt>
      <trkpt lat="40.250150" lon="-4.903233">
        <ele>1272.0</ele>
        <time>2018-09-16T12:18:41Z</time>
      </trkpt>
      <trkpt lat="40.250083" lon="-4.903200">
        <ele>1270.0</ele>
        <time>2018-09-16T12:18:42Z</time>
      </trkpt>
      <trkpt lat="40.250017" lon="-4.903150">
        <ele>1269.0</ele>
        <time>2018-09-16T12:18:43Z</time>
      </trkpt>
      <trkpt lat="40.249967" lon="-4.903100">
        <ele>1269.0</ele>
        <time>2018-09-16T12:18:44Z</time>
      </trkpt>
      <trkpt lat="40.249900" lon="-4.903067">
        <ele>1268.0</ele>
        <time>2018-09-16T12:18:45Z</time>
      </trkpt>
      <trkpt lat="40.249850" lon="-4.903000">
        <ele>1267.0</ele>
        <time>2018-09-16T12:18:46Z</time>
      </trkpt>
      <trkpt lat="40.249783" lon="-4.902950">
        <ele>1265.0</ele>
        <time>2018-09-16T12:18:47Z</time>
      </trkpt>
      <trkpt lat="40.249717" lon="-4.902900">
        <ele>1264.0</ele>
        <time>2018-09-16T12:18:48Z</time>
      </trkpt>
      <trkpt lat="40.249667" lon="-4.902850">
        <ele>1263.0</ele>
        <time>2018-09-16T12:18:49Z</time>
      </trkpt>
      <trkpt lat="40.249617" lon="-4.902817">
        <ele>1263.0</ele>
        <time>2018-09-16T12:18:50Z</time>
      </trkpt>
      <trkpt lat="40.249567" lon="-4.902767">
        <ele>1263.0</ele>
        <time>2018-09-16T12:18:51Z</time>
      </trkpt>
      <trkpt lat="40.249500" lon="-4.902717">
        <ele>1262.0</ele>
        <time>2018-09-16T12:18:52Z</time>
      </trkpt>
      <trkpt lat="40.249450" lon="-4.902650">
        <ele>1260.0</ele>
        <time>2018-09-16T12:18:53Z</time>
      </trkpt>
      <trkpt lat="40.249383" lon="-4.902600">
        <ele>1259.0</ele>
        <time>2018-09-16T12:18:54Z</time>
      </trkpt>
      <trkpt lat="40.249333" lon="-4.902533">
        <ele>1258.0</ele>
        <time>2018-09-16T12:18:55Z</time>
      </trkpt>
      <trkpt lat="40.249267" lon="-4.902467">
        <ele>1256.0</ele>
        <time>2018-09-16T12:18:56Z</time>
      </trkpt>
      <trkpt lat="40.249217" lon="-4.902400">
        <ele>1254.0</ele>
        <time>2018-09-16T12:18:57Z</time>
      </trkpt>
      <trkpt lat="40.249150" lon="-4.902333">
        <ele>1253.0</ele>
        <time>2018-09-16T12:18:58Z</time>
      </trkpt>
      <trkpt lat="40.249083" lon="-4.902267">
        <ele>1251.0</ele>
        <time>2018-09-16T12:18:59Z</time>
      </trkpt>
      <trkpt lat="40.249017" lon="-4.902200">
        <ele>1250.0</ele>
        <time>2018-09-16T12:19:00Z</time>
      </trkpt>
      <trkpt lat="40.248967" lon="-4.902133">
        <ele>1249.0</ele>
        <time>2018-09-16T12:19:01Z</time>
      </trkpt>
      <trkpt lat="40.248900" lon="-4.902050">
        <ele>1247.0</ele>
        <time>2018-09-16T12:19:02Z</time>
      </trkpt>
      <trkpt lat="40.248833" lon="-4.901967">
        <ele>1246.0</ele>
        <time>2018-09-16T12:19:03Z</time>
      </trkpt>
      <trkpt lat="40.248783" lon="-4.901883">
        <ele>1244.0</ele>
        <time>2018-09-16T12:19:04Z</time>
      </trkpt>
      <trkpt lat="40.248717" lon="-4.901783">
        <ele>1242.0</ele>
        <time>2018-09-16T12:19:05Z</time>
      </trkpt>
      <trkpt lat="40.248667" lon="-4.901667">
        <ele>1240.0</ele>
        <time>2018-09-16T12:19:06Z</time>
      </trkpt>
      <trkpt lat="40.248617" lon="-4.901550">
        <ele>1240.0</ele>
        <time>2018-09-16T12:19:07Z</time>
      </trkpt>
      <trkpt lat="40.248567" lon="-4.901433">
        <ele>1240.0</ele>
        <time>2018-09-16T12:19:08Z</time>
      </trkpt>
      <trkpt lat="40.248533" lon="-4.901333">
        <ele>1240.0</ele>
        <time>2018-09-16T12:19:09Z</time>
      </trkpt>
      <trkpt lat="40.248500" lon="-4.901217">
        <ele>1240.0</ele>
        <time>2018-09-16T12:19:10Z</time>
      </trkpt>
      <trkpt lat="40.248450" lon="-4.901100">
        <ele>1238.0</ele>
        <time>2018-09-16T12:19:11Z</time>
      </trkpt>
      <trkpt lat="40.248417" lon="-4.900983">
        <ele>1237.0</ele>
        <time>2018-09-16T12:19:12Z</time>
      </trkpt>
      <trkpt lat="40.248383" lon="-4.900850">
        <ele>1236.0</ele>
        <time>2018-09-16T12:19:13Z</time>
      </trkpt>
      <trkpt lat="40.248367" lon="-4.900717">
        <ele>1236.0</ele>
        <time>2018-09-16T12:19:14Z</time>
      </trkpt>
      <trkpt lat="40.248350" lon="-4.900583">
        <ele>1236.0</ele>
        <time>2018-09-16T12:19:15Z</time>
      </trkpt>
      <trkpt lat="40.248333" lon="-4.900467">
        <ele>1237.0</ele>
        <time>2018-09-16T12:19:16Z</time>
      </trkpt>
      <trkpt lat="40.248317" lon="-4.900350">
        <ele>1237.0</ele>
        <time>2018-09-16T12:19:17Z</time>
      </trkpt>
      <trkpt lat="40.248283" lon="-4.900233">
        <ele>1237.0</ele>
        <time>2018-09-16T12:19:18Z</time>
      </trkpt>
      <trkpt lat="40.248250" lon="-4.900100">
        <ele>1237.0</ele>
        <time>2018-09-16T12:19:19Z</time>
      </trkpt>
      <trkpt lat="40.248217" lon="-4.899983">
        <ele>1237.0</ele>
        <time>2018-09-16T12:19:20Z</time>
      </trkpt>
      <trkpt lat="40.248200" lon="-4.899867">
        <ele>1238.0</ele>
        <time>2018-09-16T12:19:21Z</time>
      </trkpt>
      <trkpt lat="40.248183" lon="-4.899767">
        <ele>1239.0</ele>
        <time>2018-09-16T12:19:22Z</time>
      </trkpt>
      <trkpt lat="40.248167" lon="-4.899683">
        <ele>1240.0</ele>
        <time>2018-09-16T12:19:23Z</time>
      </trkpt>
      <trkpt lat="40.248133" lon="-4.899567">
        <ele>1239.0</ele>
        <time>2018-09-16T12:19:24Z</time>
      </trkpt>
      <trkpt lat="40.248100" lon="-4.899467">
        <ele>1239.0</ele>
        <time>2018-09-16T12:19:25Z</time>
      </trkpt>
      <trkpt lat="40.248033" lon="-4.899383">
        <ele>1239.0</ele>
        <time>2018-09-16T12:19:26Z</time>
      </trkpt>
      <trkpt lat="40.247983" lon="-4.899333">
        <ele>1239.0</ele>
        <time>2018-09-16T12:19:27Z</time>
      </trkpt>
      <trkpt lat="40.247917" lon="-4.899350">
        <ele>1239.0</ele>
        <time>2018-09-16T12:19:28Z</time>
      </trkpt>
      <trkpt lat="40.247867" lon="-4.899367">
        <ele>1239.0</ele>
        <time>2018-09-16T12:19:29Z</time>
      </trkpt>
      <trkpt lat="40.247833" lon="-4.899433">
        <ele>1239.0</ele>
        <time>2018-09-16T12:19:30Z</time>
      </trkpt>
      <trkpt lat="40.247800" lon="-4.899500">
        <ele>1239.0</ele>
        <time>2018-09-16T12:19:31Z</time>
      </trkpt>
      <trkpt lat="40.247783" lon="-4.899583">
        <ele>1240.0</ele>
        <time>2018-09-16T12:19:32Z</time>
      </trkpt>
      <trkpt lat="40.247783" lon="-4.899667">
        <ele>1240.0</ele>
        <time>2018-09-16T12:19:33Z</time>
      </trkpt>
      <trkpt lat="40.247817" lon="-4.899767">
        <ele>1240.0</ele>
        <time>2018-09-16T12:19:34Z</time>
      </trkpt>
      <trkpt lat="40.247900" lon="-4.899850">
        <ele>1240.0</ele>
        <time>2018-09-16T12:19:35Z</time>
      </trkpt>
      <trkpt lat="40.248000" lon="-4.899917">
        <ele>1240.0</ele>
        <time>2018-09-16T12:19:36Z</time>
      </trkpt>
      <trkpt lat="40.248100" lon="-4.899950">
        <ele>1240.0</ele>
        <time>2018-09-16T12:19:37Z</time>
      </trkpt>
      <trkpt lat="40.248200" lon="-4.899950">
        <ele>1241.0</ele>
        <time>2018-09-16T12:19:38Z</time>
      </trkpt>
      <trkpt lat="40.248283" lon="-4.899933">
        <ele>1242.0</ele>
        <time>2018-09-16T12:19:39Z</time>
      </trkpt>
      <trkpt lat="40.248367" lon="-4.899933">
        <ele>1242.0</ele>
        <time>2018-09-16T12:19:40Z</time>
      </trkpt>
      <trkpt lat="40.248450" lon="-4.899950">
        <ele>1243.0</ele>
        <time>2018-09-16T12:19:41Z</time>
      </trkpt>
      <trkpt lat="40.248533" lon="-4.899967">
        <ele>1244.0</ele>
        <time>2018-09-16T12:19:42Z</time>
      </trkpt>
      <trkpt lat="40.248617" lon="-4.899967">
        <ele>1245.0</ele>
        <time>2018-09-16T12:19:43Z</time>
      </trkpt>
      <trkpt lat="40.248683" lon="-4.899950">
        <ele>1245.0</ele>
        <time>2018-09-16T12:19:44Z</time>
      </trkpt>
      <trkpt lat="40.248750" lon="-4.899933">
        <ele>1245.0</ele>
        <time>2018-09-16T12:19:45Z</time>
      </trkpt>
      <trkpt lat="40.248850" lon="-4.899867">
        <ele>1245.0</ele>
        <time>2018-09-16T12:19:46Z</time>
      </trkpt>
      <trkpt lat="40.248917" lon="-4.899783">
        <ele>1246.0</ele>
        <time>2018-09-16T12:19:47Z</time>
      </trkpt>
      <trkpt lat="40.248983" lon="-4.899683">
        <ele>1246.0</ele>
        <time>2018-09-16T12:19:48Z</time>
      </trkpt>
      <trkpt lat="40.249050" lon="-4.899583">
        <ele>1246.0</ele>
        <time>2018-09-16T12:19:49Z</time>
      </trkpt>
      <trkpt lat="40.249117" lon="-4.899467">
        <ele>1246.0</ele>
        <time>2018-09-16T12:19:50Z</time>
      </trkpt>
      <trkpt lat="40.249167" lon="-4.899367">
        <ele>1246.0</ele>
        <time>2018-09-16T12:19:51Z</time>
      </trkpt>
      <trkpt lat="40.249200" lon="-4.899250">
        <ele>1246.0</ele>
        <time>2018-09-16T12:19:52Z</time>
      </trkpt>
      <trkpt lat="40.249200" lon="-4.899117">
        <ele>1246.0</ele>
        <time>2018-09-16T12:19:53Z</time>
      </trkpt>
      <trkpt lat="40.249183" lon="-4.899000">
        <ele>1246.0</ele>
        <time>2018-09-16T12:19:54Z</time>
      </trkpt>
      <trkpt lat="40.249133" lon="-4.898917">
        <ele>1246.0</ele>
        <time>2018-09-16T12:19:55Z</time>
      </trkpt>
      <trkpt lat="40.249100" lon="-4.898833">
        <ele>1246.0</ele>
        <time>2018-09-16T12:19:56Z</time>
      </trkpt>
      <trkpt lat="40.249050" lon="-4.898750">
        <ele>1247.0</ele>
        <time>2018-09-16T12:19:57Z</time>
      </trkpt>
      <trkpt lat="40.248983" lon="-4.898683">
        <ele>1247.0</ele>
        <time>2018-09-16T12:19:58Z</time>
      </trkpt>
      <trkpt lat="40.248933" lon="-4.898633">
        <ele>1247.0</ele>
        <time>2018-09-16T12:19:59Z</time>
      </trkpt>
      <trkpt lat="40.248883" lon="-4.898600">
        <ele>1247.0</ele>
        <time>2018-09-16T12:20:00Z</time>
      </trkpt>
      <trkpt lat="40.248833" lon="-4.898567">
        <ele>1248.0</ele>
        <time>2018-09-16T12:20:01Z</time>
      </trkpt>
      <trkpt lat="40.248767" lon="-4.898550">
        <ele>1248.0</ele>
        <time>2018-09-16T12:20:02Z</time>
      </trkpt>
      <trkpt lat="40.248700" lon="-4.898567">
        <ele>1248.0</ele>
        <time>2018-09-16T12:20:03Z</time>
      </trkpt>
      <trkpt lat="40.248650" lon="-4.898633">
        <ele>1249.0</ele>
        <time>2018-09-16T12:20:04Z</time>
      </trkpt>
      <trkpt lat="40.248633" lon="-4.898717">
        <ele>1249.0</ele>
        <time>2018-09-16T12:20:05Z</time>
      </trkpt>
      <trkpt lat="40.248617" lon="-4.898800">
        <ele>1249.0</ele>
        <time>2018-09-16T12:20:06Z</time>
      </trkpt>
      <trkpt lat="40.248600" lon="-4.898900">
        <ele>1250.0</ele>
        <time>2018-09-16T12:20:07Z</time>
      </trkpt>
      <trkpt lat="40.248600" lon="-4.898950">
        <ele>1250.0</ele>
        <time>2018-09-16T12:20:08Z</time>
      </trkpt>
      <trkpt lat="40.248600" lon="-4.899017">
        <ele>1252.0</ele>
        <time>2018-09-16T12:20:09Z</time>
      </trkpt>
      <trkpt lat="40.248583" lon="-4.899067">
        <ele>1253.0</ele>
        <time>2018-09-16T12:20:10Z</time>
      </trkpt>
      <trkpt lat="40.248567" lon="-4.899117">
        <ele>1254.0</ele>
        <time>2018-09-16T12:20:11Z</time>
      </trkpt>
      <trkpt lat="40.248533" lon="-4.899150">
        <ele>1254.0</ele>
        <time>2018-09-16T12:20:12Z</time>
      </trkpt>
      <trkpt lat="40.248533" lon="-4.899217">
        <ele>1254.0</ele>
        <time>2018-09-16T12:20:13Z</time>
      </trkpt>
      <trkpt lat="40.248550" lon="-4.899300">
        <ele>1254.0</ele>
        <time>2018-09-16T12:20:14Z</time>
      </trkpt>
      <trkpt lat="40.248600" lon="-4.899400">
        <ele>1254.0</ele>
        <time>2018-09-16T12:20:15Z</time>
      </trkpt>
      <trkpt lat="40.248717" lon="-4.899467">
        <ele>1254.0</ele>
        <time>2018-09-16T12:20:16Z</time>
      </trkpt>
      <trkpt lat="40.248817" lon="-4.899467">
        <ele>1254.0</ele>
        <time>2018-09-16T12:20:17Z</time>
      </trkpt>
      <trkpt lat="40.248933" lon="-4.899417">
        <ele>1255.0</ele>
        <time>2018-09-16T12:20:18Z</time>
      </trkpt>
      <trkpt lat="40.249033" lon="-4.899333">
        <ele>1255.0</ele>
        <time>2018-09-16T12:20:19Z</time>
      </trkpt>
      <trkpt lat="40.249117" lon="-4.899233">
        <ele>1255.0</ele>
        <time>2018-09-16T12:20:20Z</time>
      </trkpt>
      <trkpt lat="40.249167" lon="-4.899117">
        <ele>1255.0</ele>
        <time>2018-09-16T12:20:21Z</time>
      </trkpt>
      <trkpt lat="40.249217" lon="-4.899000">
        <ele>1256.0</ele>
        <time>2018-09-16T12:20:22Z</time>
      </trkpt>
      <trkpt lat="40.249233" lon="-4.898900">
        <ele>1256.0</ele>
        <time>2018-09-16T12:20:23Z</time>
      </trkpt>
      <trkpt lat="40.249233" lon="-4.898800">
        <ele>1257.0</ele>
        <time>2018-09-16T12:20:24Z</time>
      </trkpt>
      <trkpt lat="40.249200" lon="-4.898717">
        <ele>1256.0</ele>
        <time>2018-09-16T12:20:25Z</time>
      </trkpt>
      <trkpt lat="40.249133" lon="-4.898667">
        <ele>1256.0</ele>
        <time>2018-09-16T12:20:26Z</time>
      </trkpt>
      <trkpt lat="40.249067" lon="-4.898633">
        <ele>1256.0</ele>
        <time>2018-09-16T12:20:27Z</time>
      </trkpt>
      <trkpt lat="40.249000" lon="-4.898650">
        <ele>1256.0</ele>
        <time>2018-09-16T12:20:28Z</time>
      </trkpt>
      <trkpt lat="40.248967" lon="-4.898700">
        <ele>1256.0</ele>
        <time>2018-09-16T12:20:29Z</time>
      </trkpt>
      <trkpt lat="40.248950" lon="-4.898783">
        <ele>1257.0</ele>
        <time>2018-09-16T12:20:30Z</time>
      </trkpt>
      <trkpt lat="40.248983" lon="-4.898867">
        <ele>1257.0</ele>
        <time>2018-09-16T12:20:31Z</time>
      </trkpt>
      <trkpt lat="40.249000" lon="-4.898950">
        <ele>1258.0</ele>
        <time>2018-09-16T12:20:32Z</time>
      </trkpt>
      <trkpt lat="40.249017" lon="-4.899033">
        <ele>1260.0</ele>
        <time>2018-09-16T12:20:33Z</time>
      </trkpt>
      <trkpt lat="40.249017" lon="-4.899083">
        <ele>1262.0</ele>
        <time>2018-09-16T12:20:34Z</time>
      </trkpt>
      <trkpt lat="40.249000" lon="-4.899133">
        <ele>1261.0</ele>
        <time>2018-09-16T12:20:35Z</time>
      </trkpt>
      <trkpt lat="40.249017" lon="-4.899183">
        <ele>1261.0</ele>
        <time>2018-09-16T12:20:36Z</time>
      </trkpt>
      <trkpt lat="40.249050" lon="-4.899250">
        <ele>1261.0</ele>
        <time>2018-09-16T12:20:37Z</time>
      </trkpt>
      <trkpt lat="40.249250" lon="-4.899283">
        <ele>1262.0</ele>
        <time>2018-09-16T12:20:40Z</time>
      </trkpt>
      <trkpt lat="40.249317" lon="-4.899217">
        <ele>1262.0</ele>
        <time>2018-09-16T12:20:41Z</time>
      </trkpt>
      <trkpt lat="40.249400" lon="-4.899133">
        <ele>1263.0</ele>
        <time>2018-09-16T12:20:42Z</time>
      </trkpt>
      <trkpt lat="40.249517" lon="-4.899050">
        <ele>1263.0</ele>
        <time>2018-09-16T12:20:43Z</time>
      </trkpt>
      <trkpt lat="40.249633" lon="-4.898983">
        <ele>1264.0</ele>
        <time>2018-09-16T12:20:44Z</time>
      </trkpt>
      <trkpt lat="40.249733" lon="-4.898900">
        <ele>1264.0</ele>
        <time>2018-09-16T12:20:45Z</time>
      </trkpt>
      <trkpt lat="40.249800" lon="-4.898783">
        <ele>1265.0</ele>
        <time>2018-09-16T12:20:46Z</time>
      </trkpt>
      <trkpt lat="40.249850" lon="-4.898650">
        <ele>1265.0</ele>
        <time>2018-09-16T12:20:47Z</time>
      </trkpt>
      <trkpt lat="40.249867" lon="-4.898500">
        <ele>1266.0</ele>
        <time>2018-09-16T12:20:48Z</time>
      </trkpt>
      <trkpt lat="40.249867" lon="-4.898350">
        <ele>1267.0</ele>
        <time>2018-09-16T12:20:49Z</time>
      </trkpt>
      <trkpt lat="40.249867" lon="-4.898250">
        <ele>1269.0</ele>
        <time>2018-09-16T12:20:50Z</time>
      </trkpt>
      <trkpt lat="40.249867" lon="-4.898167">
        <ele>1273.0</ele>
        <time>2018-09-16T12:20:51Z</time>
      </trkpt>
      <trkpt lat="40.249850" lon="-4.898100">
        <ele>1276.0</ele>
        <time>2018-09-16T12:20:52Z</time>
      </trkpt>
      <trkpt lat="40.249817" lon="-4.898000">
        <ele>1272.0</ele>
        <time>2018-09-16T12:20:53Z</time>
      </trkpt>
      <trkpt lat="40.249750" lon="-4.897917">
        <ele>1272.0</ele>
        <time>2018-09-16T12:20:54Z</time>
      </trkpt>
      <trkpt lat="40.249667" lon="-4.897867">
        <ele>1272.0</ele>
        <time>2018-09-16T12:20:55Z</time>
      </trkpt>
      <trkpt lat="40.249583" lon="-4.897817">
        <ele>1273.0</ele>
        <time>2018-09-16T12:20:56Z</time>
      </trkpt>
      <trkpt lat="40.249517" lon="-4.897800">
        <ele>1275.0</ele>
        <time>2018-09-16T12:20:57Z</time>
      </trkpt>
      <trkpt lat="40.249467" lon="-4.897800">
        <ele>1276.0</ele>
        <time>2018-09-16T12:20:58Z</time>
      </trkpt>
      <trkpt lat="40.249433" lon="-4.897800">
        <ele>1277.0</ele>
        <time>2018-09-16T12:20:59Z</time>
      </trkpt>
      <trkpt lat="40.249383" lon="-4.897783">
        <ele>1278.0</ele>
        <time>2018-09-16T12:21:00Z</time>
      </trkpt>
      <trkpt lat="40.249333" lon="-4.897767">
        <ele>1278.0</ele>
        <time>2018-09-16T12:21:01Z</time>
      </trkpt>
      <trkpt lat="40.249267" lon="-4.897767">
        <ele>1276.0</ele>
        <time>2018-09-16T12:21:02Z</time>
      </trkpt>
      <trkpt lat="40.249200" lon="-4.897783">
        <ele>1275.0</ele>
        <time>2018-09-16T12:21:03Z</time>
      </trkpt>
      <trkpt lat="40.249150" lon="-4.897833">
        <ele>1274.0</ele>
        <time>2018-09-16T12:21:04Z</time>
      </trkpt>
      <trkpt lat="40.249117" lon="-4.897917">
        <ele>1272.0</ele>
        <time>2018-09-16T12:21:05Z</time>
      </trkpt>
      <trkpt lat="40.249100" lon="-4.898033">
        <ele>1270.0</ele>
        <time>2018-09-16T12:21:06Z</time>
      </trkpt>
      <trkpt lat="40.249083" lon="-4.898150">
        <ele>1269.0</ele>
        <time>2018-09-16T12:21:07Z</time>
      </trkpt>
      <trkpt lat="40.249083" lon="-4.898267">
        <ele>1269.0</ele>
        <time>2018-09-16T12:21:08Z</time>
      </trkpt>
      <trkpt lat="40.249100" lon="-4.898383">
        <ele>1270.0</ele>
        <time>2018-09-16T12:21:09Z</time>
      </trkpt>
      <trkpt lat="40.249117" lon="-4.898483">
        <ele>1270.0</ele>
        <time>2018-09-16T12:21:10Z</time>
      </trkpt>
      <trkpt lat="40.249133" lon="-4.898583">
        <ele>1270.0</ele>
        <time>2018-09-16T12:21:11Z</time>
      </trkpt>
      <trkpt lat="40.249167" lon="-4.898700">
        <ele>1269.0</ele>
        <time>2018-09-16T12:21:12Z</time>
      </trkpt>
      <trkpt lat="40.249200" lon="-4.898817">
        <ele>1268.0</ele>
        <time>2018-09-16T12:21:13Z</time>
      </trkpt>
      <trkpt lat="40.249233" lon="-4.898917">
        <ele>1268.0</ele>
        <time>2018-09-16T12:21:14Z</time>
      </trkpt>
      <trkpt lat="40.249250" lon="-4.899017">
        <ele>1267.0</ele>
        <time>2018-09-16T12:21:15Z</time>
      </trkpt>
      <trkpt lat="40.249283" lon="-4.899117">
        <ele>1267.0</ele>
        <time>2018-09-16T12:21:16Z</time>
      </trkpt>
      <trkpt lat="40.249283" lon="-4.899183">
        <ele>1267.0</ele>
        <time>2018-09-16T12:21:17Z</time>
      </trkpt>
      <trkpt lat="40.249283" lon="-4.899267">
        <ele>1267.0</ele>
        <time>2018-09-16T12:21:18Z</time>
      </trkpt>
      <trkpt lat="40.249283" lon="-4.899333">
        <ele>1268.0</ele>
        <time>2018-09-16T12:21:19Z</time>
      </trkpt>
      <trkpt lat="40.249283" lon="-4.899400">
        <ele>1268.0</ele>
        <time>2018-09-16T12:21:20Z</time>
      </trkpt>
      <trkpt lat="40.249283" lon="-4.899483">
        <ele>1268.0</ele>
        <time>2018-09-16T12:21:21Z</time>
      </trkpt>
      <trkpt lat="40.249283" lon="-4.899567">
        <ele>1268.0</ele>
        <time>2018-09-16T12:21:22Z</time>
      </trkpt>
      <trkpt lat="40.249267" lon="-4.899633">
        <ele>1268.0</ele>
        <time>2018-09-16T12:21:23Z</time>
      </trkpt>
      <trkpt lat="40.249267" lon="-4.899700">
        <ele>1268.0</ele>
        <time>2018-09-16T12:21:24Z</time>
      </trkpt>
      <trkpt lat="40.249250" lon="-4.899767">
        <ele>1268.0</ele>
        <time>2018-09-16T12:21:25Z</time>
      </trkpt>
      <trkpt lat="40.249233" lon="-4.899833">
        <ele>1267.0</ele>
        <time>2018-09-16T12:21:26Z</time>
      </trkpt>
      <trkpt lat="40.249217" lon="-4.899917">
        <ele>1267.0</ele>
        <time>2018-09-16T12:21:27Z</time>
      </trkpt>
      <trkpt lat="40.249200" lon="-4.900000">
        <ele>1266.0</ele>
        <time>2018-09-16T12:21:28Z</time>
      </trkpt>
      <trkpt lat="40.249200" lon="-4.900083">
        <ele>1266.0</ele>
        <time>2018-09-16T12:21:29Z</time>
      </trkpt>
      <trkpt lat="40.249183" lon="-4.900150">
        <ele>1266.0</ele>
        <time>2018-09-16T12:21:30Z</time>
      </trkpt>
      <trkpt lat="40.249183" lon="-4.900233">
        <ele>1267.0</ele>
        <time>2018-09-16T12:21:31Z</time>
      </trkpt>
      <trkpt lat="40.249183" lon="-4.900317">
        <ele>1267.0</ele>
        <time>2018-09-16T12:21:32Z</time>
      </trkpt>
      <trkpt lat="40.249167" lon="-4.900383">
        <ele>1268.0</ele>
        <time>2018-09-16T12:21:33Z</time>
      </trkpt>
      <trkpt lat="40.249150" lon="-4.900450">
        <ele>1268.0</ele>
        <time>2018-09-16T12:21:34Z</time>
      </trkpt>
      <trkpt lat="40.249133" lon="-4.900517">
        <ele>1268.0</ele>
        <time>2018-09-16T12:21:35Z</time>
      </trkpt>
      <trkpt lat="40.249117" lon="-4.900583">
        <ele>1267.0</ele>
        <time>2018-09-16T12:21:36Z</time>
      </trkpt>
      <trkpt lat="40.249100" lon="-4.900650">
        <ele>1265.0</ele>
        <time>2018-09-16T12:21:37Z</time>
      </trkpt>
      <trkpt lat="40.249083" lon="-4.900717">
        <ele>1264.0</ele>
        <time>2018-09-16T12:21:38Z</time>
      </trkpt>
      <trkpt lat="40.249067" lon="-4.900783">
        <ele>1263.0</ele>
        <time>2018-09-16T12:21:39Z</time>
      </trkpt>
      <trkpt lat="40.249067" lon="-4.900867">
        <ele>1261.0</ele>
        <time>2018-09-16T12:21:40Z</time>
      </trkpt>
      <trkpt lat="40.249067" lon="-4.900950">
        <ele>1260.0</ele>
        <time>2018-09-16T12:21:41Z</time>
      </trkpt>
      <trkpt lat="40.249050" lon="-4.901017">
        <ele>1259.0</ele>
        <time>2018-09-16T12:21:42Z</time>
      </trkpt>
      <trkpt lat="40.249000" lon="-4.901083">
        <ele>1258.0</ele>
        <time>2018-09-16T12:21:43Z</time>
      </trkpt>
      <trkpt lat="40.248950" lon="-4.901133">
        <ele>1256.0</ele>
        <time>2018-09-16T12:21:44Z</time>
      </trkpt>
      <trkpt lat="40.248900" lon="-4.901150">
        <ele>1257.0</ele>
        <time>2018-09-16T12:21:45Z</time>
      </trkpt>
      <trkpt lat="40.248833" lon="-4.901133">
        <ele>1258.0</ele>
        <time>2018-09-16T12:21:46Z</time>
      </trkpt>
      <trkpt lat="40.248783" lon="-4.901050">
        <ele>1259.0</ele>
        <time>2018-09-16T12:21:47Z</time>
      </trkpt>
      <trkpt lat="40.248750" lon="-4.900950">
        <ele>1260.0</ele>
        <time>2018-09-16T12:21:48Z</time>
      </trkpt>
      <trkpt lat="40.248733" lon="-4.900900">
        <ele>1261.0</ele>
        <time>2018-09-16T12:21:49Z</time>
      </trkpt>
      <trkpt lat="40.248717" lon="-4.900850">
        <ele>1262.0</ele>
        <time>2018-09-16T12:21:50Z</time>
      </trkpt>
      <trkpt lat="40.248617" lon="-4.900833">
        <ele>1260.0</ele>
        <time>2018-09-16T12:21:52Z</time>
      </trkpt>
      <trkpt lat="40.248567" lon="-4.900833">
        <ele>1260.0</ele>
        <time>2018-09-16T12:21:53Z</time>
      </trkpt>
      <trkpt lat="40.248517" lon="-4.900883">
        <ele>1260.0</ele>
        <time>2018-09-16T12:21:54Z</time>
      </trkpt>
      <trkpt lat="40.248483" lon="-4.900967">
        <ele>1260.0</ele>
        <time>2018-09-16T12:21:55Z</time>
      </trkpt>
      <trkpt lat="40.248483" lon="-4.901183">
        <ele>1259.0</ele>
        <time>2018-09-16T12:21:57Z</time>
      </trkpt>
      <trkpt lat="40.248517" lon="-4.901300">
        <ele>1258.0</ele>
        <time>2018-09-16T12:21:58Z</time>
      </trkpt>
      <trkpt lat="40.248550" lon="-4.901400">
        <ele>1258.0</ele>
        <time>2018-09-16T12:21:59Z</time>
      </trkpt>
      <trkpt lat="40.248600" lon="-4.901467">
        <ele>1259.0</ele>
        <time>2018-09-16T12:22:00Z</time>
      </trkpt>
      <trkpt lat="40.248633" lon="-4.901567">
        <ele>1260.0</ele>
        <time>2018-09-16T12:22:01Z</time>
      </trkpt>
      <trkpt lat="40.248667" lon="-4.901667">
        <ele>1261.0</ele>
        <time>2018-09-16T12:22:02Z</time>
      </trkpt>
      <trkpt lat="40.248683" lon="-4.901783">
        <ele>1261.0</ele>
        <time>2018-09-16T12:22:03Z</time>
      </trkpt>
      <trkpt lat="40.248667" lon="-4.901867">
        <ele>1263.0</ele>
        <time>2018-09-16T12:22:04Z</time>
      </trkpt>
      <trkpt lat="40.248617" lon="-4.901917">
        <ele>1265.0</ele>
        <time>2018-09-16T12:22:05Z</time>
      </trkpt>
      <trkpt lat="40.248567" lon="-4.901933">
        <ele>1265.0</ele>
        <time>2018-09-16T12:22:06Z</time>
      </trkpt>
      <trkpt lat="40.248517" lon="-4.901900">
        <ele>1265.0</ele>
        <time>2018-09-16T12:22:07Z</time>
      </trkpt>
      <trkpt lat="40.248467" lon="-4.901833">
        <ele>1265.0</ele>
        <time>2018-09-16T12:22:08Z</time>
      </trkpt>
      <trkpt lat="40.248450" lon="-4.901750">
        <ele>1265.0</ele>
        <time>2018-09-16T12:22:09Z</time>
      </trkpt>
      <trkpt lat="40.248450" lon="-4.901633">
        <ele>1264.0</ele>
        <time>2018-09-16T12:22:10Z</time>
      </trkpt>
      <trkpt lat="40.248467" lon="-4.901500">
        <ele>1264.0</ele>
        <time>2018-09-16T12:22:11Z</time>
      </trkpt>
      <trkpt lat="40.248500" lon="-4.901367">
        <ele>1263.0</ele>
        <time>2018-09-16T12:22:12Z</time>
      </trkpt>
      <trkpt lat="40.248517" lon="-4.901233">
        <ele>1263.0</ele>
        <time>2018-09-16T12:22:13Z</time>
      </trkpt>
      <trkpt lat="40.248467" lon="-4.901167">
        <ele>1262.0</ele>
        <time>2018-09-16T12:22:14Z</time>
      </trkpt>
      <trkpt lat="40.248400" lon="-4.901117">
        <ele>1263.0</ele>
        <time>2018-09-16T12:22:15Z</time>
      </trkpt>
      <trkpt lat="40.248350" lon="-4.901133">
        <ele>1262.0</ele>
        <time>2018-09-16T12:22:16Z</time>
      </trkpt>
      <trkpt lat="40.248300" lon="-4.901183">
        <ele>1262.0</ele>
        <time>2018-09-16T12:22:17Z</time>
      </trkpt>
      <trkpt lat="40.248300" lon="-4.901267">
        <ele>1262.0</ele>
        <time>2018-09-16T12:22:18Z</time>
      </trkpt>
      <trkpt lat="40.248333" lon="-4.901333">
        <ele>1260.0</ele>
        <time>2018-09-16T12:22:19Z</time>
      </trkpt>
      <trkpt lat="40.248383" lon="-4.901417">
        <ele>1260.0</ele>
        <time>2018-09-16T12:22:20Z</time>
      </trkpt>
      <trkpt lat="40.248450" lon="-4.901500">
        <ele>1258.0</ele>
        <time>2018-09-16T12:22:21Z</time>
      </trkpt>
      <trkpt lat="40.248500" lon="-4.901583">
        <ele>1258.0</ele>
        <time>2018-09-16T12:22:22Z</time>
      </trkpt>
      <trkpt lat="40.248550" lon="-4.901667">
        <ele>1257.0</ele>
        <time>2018-09-16T12:22:23Z</time>
      </trkpt>
      <trkpt lat="40.248583" lon="-4.901767">
        <ele>1256.0</ele>
        <time>2018-09-16T12:22:24Z</time>
      </trkpt>
      <trkpt lat="40.248583" lon="-4.901867">
        <ele>1255.0</ele>
        <time>2018-09-16T12:22:25Z</time>
      </trkpt>
      <trkpt lat="40.248567" lon="-4.901967">
        <ele>1254.0</ele>
        <time>2018-09-16T12:22:26Z</time>
      </trkpt>
      <trkpt lat="40.248517" lon="-4.902050">
        <ele>1253.0</ele>
        <time>2018-09-16T12:22:27Z</time>
      </trkpt>
      <trkpt lat="40.248467" lon="-4.902117">
        <ele>1252.0</ele>
        <time>2018-09-16T12:22:28Z</time>
      </trkpt>
      <trkpt lat="40.248417" lon="-4.902167">
        <ele>1251.0</ele>
        <time>2018-09-16T12:22:29Z</time>
      </trkpt>
      <trkpt lat="40.248350" lon="-4.902150">
        <ele>1250.0</ele>
        <time>2018-09-16T12:22:30Z</time>
      </trkpt>
      <trkpt lat="40.248300" lon="-4.902117">
        <ele>1247.0</ele>
        <time>2018-09-16T12:22:31Z</time>
      </trkpt>
      <trkpt lat="40.248250" lon="-4.902100">
        <ele>1244.0</ele>
        <time>2018-09-16T12:22:32Z</time>
      </trkpt>
      <trkpt lat="40.248200" lon="-4.902083">
        <ele>1242.0</ele>
        <time>2018-09-16T12:22:33Z</time>
      </trkpt>
      <trkpt lat="40.248150" lon="-4.902067">
        <ele>1240.0</ele>
        <time>2018-09-16T12:22:34Z</time>
      </trkpt>
      <trkpt lat="40.248083" lon="-4.902017">
        <ele>1238.0</ele>
        <time>2018-09-16T12:22:35Z</time>
      </trkpt>
      <trkpt lat="40.248017" lon="-4.902017">
        <ele>1232.0</ele>
        <time>2018-09-16T12:22:36Z</time>
      </trkpt>
      <trkpt lat="40.247950" lon="-4.902017">
        <ele>1229.0</ele>
        <time>2018-09-16T12:22:37Z</time>
      </trkpt>
      <trkpt lat="40.247883" lon="-4.902000">
        <ele>1226.0</ele>
        <time>2018-09-16T12:22:38Z</time>
      </trkpt>
      <trkpt lat="40.247817" lon="-4.901950">
        <ele>1223.0</ele>
        <time>2018-09-16T12:22:39Z</time>
      </trkpt>
      <trkpt lat="40.247750" lon="-4.901900">
        <ele>1219.0</ele>
        <time>2018-09-16T12:22:40Z</time>
      </trkpt>
      <trkpt lat="40.247683" lon="-4.901833">
        <ele>1216.0</ele>
        <time>2018-09-16T12:22:41Z</time>
      </trkpt>
      <trkpt lat="40.247633" lon="-4.901750">
        <ele>1213.0</ele>
        <time>2018-09-16T12:22:42Z</time>
      </trkpt>
      <trkpt lat="40.247583" lon="-4.901667">
        <ele>1211.0</ele>
        <time>2018-09-16T12:22:43Z</time>
      </trkpt>
      <trkpt lat="40.247533" lon="-4.901583">
        <ele>1208.0</ele>
        <time>2018-09-16T12:22:44Z</time>
      </trkpt>
      <trkpt lat="40.247500" lon="-4.901483">
        <ele>1205.0</ele>
        <time>2018-09-16T12:22:45Z</time>
      </trkpt>
      <trkpt lat="40.247450" lon="-4.901383">
        <ele>1201.0</ele>
        <time>2018-09-16T12:22:46Z</time>
      </trkpt>
      <trkpt lat="40.247400" lon="-4.901300">
        <ele>1199.0</ele>
        <time>2018-09-16T12:22:47Z</time>
      </trkpt>
      <trkpt lat="40.247333" lon="-4.901217">
        <ele>1197.0</ele>
        <time>2018-09-16T12:22:48Z</time>
      </trkpt>
      <trkpt lat="40.247300" lon="-4.901133">
        <ele>1194.0</ele>
        <time>2018-09-16T12:22:49Z</time>
      </trkpt>
      <trkpt lat="40.247250" lon="-4.901033">
        <ele>1191.0</ele>
        <time>2018-09-16T12:22:50Z</time>
      </trkpt>
      <trkpt lat="40.247200" lon="-4.900917">
        <ele>1188.0</ele>
        <time>2018-09-16T12:22:51Z</time>
      </trkpt>
      <trkpt lat="40.247150" lon="-4.900800">
        <ele>1185.0</ele>
        <time>2018-09-16T12:22:52Z</time>
      </trkpt>
      <trkpt lat="40.247083" lon="-4.900683">
        <ele>1181.0</ele>
        <time>2018-09-16T12:22:53Z</time>
      </trkpt>
      <trkpt lat="40.247033" lon="-4.900567">
        <ele>1180.0</ele>
        <time>2018-09-16T12:22:54Z</time>
      </trkpt>
      <trkpt lat="40.246983" lon="-4.900467">
        <ele>1181.0</ele>
        <time>2018-09-16T12:22:55Z</time>
      </trkpt>
      <trkpt lat="40.246950" lon="-4.900383">
        <ele>1181.0</ele>
        <time>2018-09-16T12:22:56Z</time>
      </trkpt>
      <trkpt lat="40.246917" lon="-4.900283">
        <ele>1180.0</ele>
        <time>2018-09-16T12:22:57Z</time>
      </trkpt>
      <trkpt lat="40.246850" lon="-4.900167">
        <ele>1179.0</ele>
        <time>2018-09-16T12:22:58Z</time>
      </trkpt>
      <trkpt lat="40.246783" lon="-4.900050">
        <ele>1178.0</ele>
        <time>2018-09-16T12:22:59Z</time>
      </trkpt>
      <trkpt lat="40.246733" lon="-4.899933">
        <ele>1177.0</ele>
        <time>2018-09-16T12:23:00Z</time>
      </trkpt>
      <trkpt lat="40.246683" lon="-4.899817">
        <ele>1177.0</ele>
        <time>2018-09-16T12:23:01Z</time>
      </trkpt>
      <trkpt lat="40.246667" lon="-4.899700">
        <ele>1179.0</ele>
        <time>2018-09-16T12:23:02Z</time>
      </trkpt>
      <trkpt lat="40.246667" lon="-4.899567">
        <ele>1179.0</ele>
        <time>2018-09-16T12:23:03Z</time>
      </trkpt>
      <trkpt lat="40.246650" lon="-4.899450">
        <ele>1180.0</ele>
        <time>2018-09-16T12:23:04Z</time>
      </trkpt>
      <trkpt lat="40.246633" lon="-4.899317">
        <ele>1181.0</ele>
        <time>2018-09-16T12:23:05Z</time>
      </trkpt>
      <trkpt lat="40.246633" lon="-4.899200">
        <ele>1183.0</ele>
        <time>2018-09-16T12:23:06Z</time>
      </trkpt>
      <trkpt lat="40.246633" lon="-4.899117">
        <ele>1185.0</ele>
        <time>2018-09-16T12:23:07Z</time>
      </trkpt>
      <trkpt lat="40.246617" lon="-4.899017">
        <ele>1182.0</ele>
        <time>2018-09-16T12:23:08Z</time>
      </trkpt>
      <trkpt lat="40.246583" lon="-4.898917">
        <ele>1182.0</ele>
        <time>2018-09-16T12:23:09Z</time>
      </trkpt>
      <trkpt lat="40.246533" lon="-4.898867">
        <ele>1182.0</ele>
        <time>2018-09-16T12:23:10Z</time>
      </trkpt>
      <trkpt lat="40.246467" lon="-4.898867">
        <ele>1182.0</ele>
        <time>2018-09-16T12:23:11Z</time>
      </trkpt>
      <trkpt lat="40.246417" lon="-4.898933">
        <ele>1183.0</ele>
        <time>2018-09-16T12:23:12Z</time>
      </trkpt>
      <trkpt lat="40.246400" lon="-4.899033">
        <ele>1183.0</ele>
        <time>2018-09-16T12:23:13Z</time>
      </trkpt>
      <trkpt lat="40.246450" lon="-4.899150">
        <ele>1184.0</ele>
        <time>2018-09-16T12:23:14Z</time>
      </trkpt>
      <trkpt lat="40.246650" lon="-4.899167">
        <ele>1185.0</ele>
        <time>2018-09-16T12:23:16Z</time>
      </trkpt>
      <trkpt lat="40.246750" lon="-4.899117">
        <ele>1185.0</ele>
        <time>2018-09-16T12:23:17Z</time>
      </trkpt>
      <trkpt lat="40.246833" lon="-4.899033">
        <ele>1185.0</ele>
        <time>2018-09-16T12:23:18Z</time>
      </trkpt>
      <trkpt lat="40.246883" lon="-4.898917">
        <ele>1186.0</ele>
        <time>2018-09-16T12:23:19Z</time>
      </trkpt>
      <trkpt lat="40.246933" lon="-4.898800">
        <ele>1186.0</ele>
        <time>2018-09-16T12:23:20Z</time>
      </trkpt>
      <trkpt lat="40.246933" lon="-4.898700">
        <ele>1187.0</ele>
        <time>2018-09-16T12:23:21Z</time>
      </trkpt>
      <trkpt lat="40.246917" lon="-4.898600">
        <ele>1188.0</ele>
        <time>2018-09-16T12:23:22Z</time>
      </trkpt>
      <trkpt lat="40.246883" lon="-4.898517">
        <ele>1189.0</ele>
        <time>2018-09-16T12:23:23Z</time>
      </trkpt>
      <trkpt lat="40.246850" lon="-4.898433">
        <ele>1190.0</ele>
        <time>2018-09-16T12:23:24Z</time>
      </trkpt>
      <trkpt lat="40.246800" lon="-4.898367">
        <ele>1189.0</ele>
        <time>2018-09-16T12:23:25Z</time>
      </trkpt>
      <trkpt lat="40.246783" lon="-4.898300">
        <ele>1189.0</ele>
        <time>2018-09-16T12:23:26Z</time>
      </trkpt>
      <trkpt lat="40.246750" lon="-4.898233">
        <ele>1190.0</ele>
        <time>2018-09-16T12:23:27Z</time>
      </trkpt>
      <trkpt lat="40.246717" lon="-4.898167">
        <ele>1191.0</ele>
        <time>2018-09-16T12:23:28Z</time>
      </trkpt>
      <trkpt lat="40.246667" lon="-4.898117">
        <ele>1192.0</ele>
        <time>2018-09-16T12:23:29Z</time>
      </trkpt>
      <trkpt lat="40.246600" lon="-4.898100">
        <ele>1193.0</ele>
        <time>2018-09-16T12:23:30Z</time>
      </trkpt>
      <trkpt lat="40.246550" lon="-4.898133">
        <ele>1194.0</ele>
        <time>2018-09-16T12:23:31Z</time>
      </trkpt>
      <trkpt lat="40.246500" lon="-4.898167">
        <ele>1195.0</ele>
        <time>2018-09-16T12:23:32Z</time>
      </trkpt>
      <trkpt lat="40.246483" lon="-4.898233">
        <ele>1197.0</ele>
        <time>2018-09-16T12:23:33Z</time>
      </trkpt>
      <trkpt lat="40.246450" lon="-4.898317">
        <ele>1199.0</ele>
        <time>2018-09-16T12:23:34Z</time>
      </trkpt>
      <trkpt lat="40.246467" lon="-4.898417">
        <ele>1199.0</ele>
        <time>2018-09-16T12:23:35Z</time>
      </trkpt>
      <trkpt lat="40.246533" lon="-4.898467">
        <ele>1200.0</ele>
        <time>2018-09-16T12:23:36Z</time>
      </trkpt>
      <trkpt lat="40.246633" lon="-4.898500">
        <ele>1202.0</ele>
        <time>2018-09-16T12:23:37Z</time>
      </trkpt>
      <trkpt lat="40.246733" lon="-4.898500">
        <ele>1205.0</ele>
        <time>2018-09-16T12:23:38Z</time>
      </trkpt>
      <trkpt lat="40.246850" lon="-4.898450">
        <ele>1206.0</ele>
        <time>2018-09-16T12:23:39Z</time>
      </trkpt>
      <trkpt lat="40.246933" lon="-4.898350">
        <ele>1207.0</ele>
        <time>2018-09-16T12:23:40Z</time>
      </trkpt>
      <trkpt lat="40.246983" lon="-4.898217">
        <ele>1208.0</ele>
        <time>2018-09-16T12:23:41Z</time>
      </trkpt>
      <trkpt lat="40.246967" lon="-4.898100">
        <ele>1209.0</ele>
        <time>2018-09-16T12:23:42Z</time>
      </trkpt>
      <trkpt lat="40.246933" lon="-4.898000">
        <ele>1210.0</ele>
        <time>2018-09-16T12:23:43Z</time>
      </trkpt>
      <trkpt lat="40.246867" lon="-4.897933">
        <ele>1212.0</ele>
        <time>2018-09-16T12:23:44Z</time>
      </trkpt>
      <trkpt lat="40.246800" lon="-4.897917">
        <ele>1211.0</ele>
        <time>2018-09-16T12:23:45Z</time>
      </trkpt>
      <trkpt lat="40.246733" lon="-4.897933">
        <ele>1213.0</ele>
        <time>2018-09-16T12:23:46Z</time>
      </trkpt>
      <trkpt lat="40.246650" lon="-4.897983">
        <ele>1214.0</ele>
        <time>2018-09-16T12:23:47Z</time>
      </trkpt>
      <trkpt lat="40.246617" lon="-4.898067">
        <ele>1217.0</ele>
        <time>2018-09-16T12:23:48Z</time>
      </trkpt>
      <trkpt lat="40.246650" lon="-4.898150">
        <ele>1219.0</ele>
        <time>2018-09-16T12:23:49Z</time>
      </trkpt>
      <trkpt lat="40.246717" lon="-4.898250">
        <ele>1221.0</ele>
        <time>2018-09-16T12:23:50Z</time>
      </trkpt>
      <trkpt lat="40.246817" lon="-4.898300">
        <ele>1223.0</ele>
        <time>2018-09-16T12:23:51Z</time>
      </trkpt>
      <trkpt lat="40.246933" lon="-4.898283">
        <ele>1224.0</ele>
        <time>2018-09-16T12:23:52Z</time>
      </trkpt>
      <trkpt lat="40.247067" lon="-4.898233">
        <ele>1227.0</ele>
        <time>2018-09-16T12:23:53Z</time>
      </trkpt>
      <trkpt lat="40.247167" lon="-4.898133">
        <ele>1230.0</ele>
        <time>2018-09-16T12:23:54Z</time>
      </trkpt>
      <trkpt lat="40.247250" lon="-4.898000">
        <ele>1233.0</ele>
        <time>2018-09-16T12:23:55Z</time>
      </trkpt>
      <trkpt lat="40.247300" lon="-4.897883">
        <ele>1235.0</ele>
        <time>2018-09-16T12:23:56Z</time>
      </trkpt>
      <trkpt lat="40.247300" lon="-4.897750">
        <ele>1236.0</ele>
        <time>2018-09-16T12:23:57Z</time>
      </trkpt>
      <trkpt lat="40.247267" lon="-4.897633">
        <ele>1238.0</ele>
        <time>2018-09-16T12:23:58Z</time>
      </trkpt>
      <trkpt lat="40.247200" lon="-4.897550">
        <ele>1240.0</ele>
        <time>2018-09-16T12:23:59Z</time>
      </trkpt>
      <trkpt lat="40.247117" lon="-4.897517">
        <ele>1243.0</ele>
        <time>2018-09-16T12:24:00Z</time>
      </trkpt>
      <trkpt lat="40.247050" lon="-4.897533">
        <ele>1246.0</ele>
        <time>2018-09-16T12:24:01Z</time>
      </trkpt>
      <trkpt lat="40.247000" lon="-4.897583">
        <ele>1252.0</ele>
        <time>2018-09-16T12:24:02Z</time>
      </trkpt>
      <trkpt lat="40.246967" lon="-4.897667">
        <ele>1260.0</ele>
        <time>2018-09-16T12:24:03Z</time>
      </trkpt>
      <trkpt lat="40.246950" lon="-4.897750">
        <ele>1267.0</ele>
        <time>2018-09-16T12:24:04Z</time>
      </trkpt>
      <trkpt lat="40.246967" lon="-4.897867">
        <ele>1271.0</ele>
        <time>2018-09-16T12:24:05Z</time>
      </trkpt>
      <trkpt lat="40.246967" lon="-4.897950">
        <ele>1277.0</ele>
        <time>2018-09-16T12:24:06Z</time>
      </trkpt>
      <trkpt lat="40.247050" lon="-4.898050">
        <ele>1270.0</ele>
        <time>2018-09-16T12:24:07Z</time>
      </trkpt>
      <trkpt lat="40.247150" lon="-4.898083">
        <ele>1274.0</ele>
        <time>2018-09-16T12:24:08Z</time>
      </trkpt>
      <trkpt lat="40.247267" lon="-4.898083">
        <ele>1276.0</ele>
        <time>2018-09-16T12:24:09Z</time>
      </trkpt>
      <trkpt lat="40.247383" lon="-4.898050">
        <ele>1279.0</ele>
        <time>2018-09-16T12:24:10Z</time>
      </trkpt>
      <trkpt lat="40.247467" lon="-4.897983">
        <ele>1282.0</ele>
        <time>2018-09-16T12:24:11Z</time>
      </trkpt>
      <trkpt lat="40.247567" lon="-4.897883">
        <ele>1285.0</ele>
        <time>2018-09-16T12:24:12Z</time>
      </trkpt>
      <trkpt lat="40.247633" lon="-4.897733">
        <ele>1287.0</ele>
        <time>2018-09-16T12:24:13Z</time>
      </trkpt>
      <trkpt lat="40.247650" lon="-4.897583">
        <ele>1290.0</ele>
        <time>2018-09-16T12:24:14Z</time>
      </trkpt>
      <trkpt lat="40.247633" lon="-4.897433">
        <ele>1292.0</ele>
        <time>2018-09-16T12:24:15Z</time>
      </trkpt>
      <trkpt lat="40.247600" lon="-4.897317">
        <ele>1294.0</ele>
        <time>2018-09-16T12:24:16Z</time>
      </trkpt>
      <trkpt lat="40.247550" lon="-4.897233">
        <ele>1296.0</ele>
        <time>2018-09-16T12:24:17Z</time>
      </trkpt>
      <trkpt lat="40.247500" lon="-4.897150">
        <ele>1300.0</ele>
        <time>2018-09-16T12:24:18Z</time>
      </trkpt>
      <trkpt lat="40.247433" lon="-4.897083">
        <ele>1302.0</ele>
        <time>2018-09-16T12:24:19Z</time>
      </trkpt>
      <trkpt lat="40.247367" lon="-4.897000">
        <ele>1296.0</ele>
        <time>2018-09-16T12:24:20Z</time>
      </trkpt>
      <trkpt lat="40.247317" lon="-4.896950">
        <ele>1298.0</ele>
        <time>2018-09-16T12:24:21Z</time>
      </trkpt>
      <trkpt lat="40.247267" lon="-4.896917">
        <ele>1300.0</ele>
        <time>2018-09-16T12:24:22Z</time>
      </trkpt>
      <trkpt lat="40.247217" lon="-4.896900">
        <ele>1302.0</ele>
        <time>2018-09-16T12:24:23Z</time>
      </trkpt>
      <trkpt lat="40.247150" lon="-4.896900">
        <ele>1301.0</ele>
        <time>2018-09-16T12:24:24Z</time>
      </trkpt>
      <trkpt lat="40.247067" lon="-4.896900">
        <ele>1302.0</ele>
        <time>2018-09-16T12:24:25Z</time>
      </trkpt>
      <trkpt lat="40.246983" lon="-4.896933">
        <ele>1302.0</ele>
        <time>2018-09-16T12:24:26Z</time>
      </trkpt>
      <trkpt lat="40.246933" lon="-4.897017">
        <ele>1303.0</ele>
        <time>2018-09-16T12:24:27Z</time>
      </trkpt>
      <trkpt lat="40.246900" lon="-4.897150">
        <ele>1304.0</ele>
        <time>2018-09-16T12:24:28Z</time>
      </trkpt>
      <trkpt lat="40.246917" lon="-4.897283">
        <ele>1304.0</ele>
        <time>2018-09-16T12:24:29Z</time>
      </trkpt>
      <trkpt lat="40.246967" lon="-4.897383">
        <ele>1305.0</ele>
        <time>2018-09-16T12:24:30Z</time>
      </trkpt>
      <trkpt lat="40.247000" lon="-4.897483">
        <ele>1307.0</ele>
        <time>2018-09-16T12:24:31Z</time>
      </trkpt>
      <trkpt lat="40.247017" lon="-4.897550">
        <ele>1311.0</ele>
        <time>2018-09-16T12:24:32Z</time>
      </trkpt>
      <trkpt lat="40.247017" lon="-4.897650">
        <ele>1313.0</ele>
        <time>2018-09-16T12:24:33Z</time>
      </trkpt>
      <trkpt lat="40.247033" lon="-4.897783">
        <ele>1315.0</ele>
        <time>2018-09-16T12:24:34Z</time>
      </trkpt>
      <trkpt lat="40.247083" lon="-4.897917">
        <ele>1316.0</ele>
        <time>2018-09-16T12:24:35Z</time>
      </trkpt>
      <trkpt lat="40.247167" lon="-4.898000">
        <ele>1317.0</ele>
        <time>2018-09-16T12:24:36Z</time>
      </trkpt>
      <trkpt lat="40.247283" lon="-4.898017">
        <ele>1319.0</ele>
        <time>2018-09-16T12:24:37Z</time>
      </trkpt>
      <trkpt lat="40.247367" lon="-4.897983">
        <ele>1320.0</ele>
        <time>2018-09-16T12:24:38Z</time>
      </trkpt>
      <trkpt lat="40.247467" lon="-4.897933">
        <ele>1321.0</ele>
        <time>2018-09-16T12:24:39Z</time>
      </trkpt>
      <trkpt lat="40.247567" lon="-4.897883">
        <ele>1321.0</ele>
        <time>2018-09-16T12:24:40Z</time>
      </trkpt>
      <trkpt lat="40.247633" lon="-4.897817">
        <ele>1323.0</ele>
        <time>2018-09-16T12:24:41Z</time>
      </trkpt>
      <trkpt lat="40.247700" lon="-4.897700">
        <ele>1323.0</ele>
        <time>2018-09-16T12:24:42Z</time>
      </trkpt>
      <trkpt lat="40.247717" lon="-4.897583">
        <ele>1323.0</ele>
        <time>2018-09-16T12:24:43Z</time>
      </trkpt>
      <trkpt lat="40.247700" lon="-4.897467">
        <ele>1324.0</ele>
        <time>2018-09-16T12:24:44Z</time>
      </trkpt>
      <trkpt lat="40.247650" lon="-4.897383">
        <ele>1325.0</ele>
        <time>2018-09-16T12:24:45Z</time>
      </trkpt>
      <trkpt lat="40.247567" lon="-4.897350">
        <ele>1322.0</ele>
        <time>2018-09-16T12:24:46Z</time>
      </trkpt>
      <trkpt lat="40.247500" lon="-4.897383">
        <ele>1322.0</ele>
        <time>2018-09-16T12:24:47Z</time>
      </trkpt>
      <trkpt lat="40.247450" lon="-4.897433">
        <ele>1322.0</ele>
        <time>2018-09-16T12:24:48Z</time>
      </trkpt>
      <trkpt lat="40.247417" lon="-4.897500">
        <ele>1322.0</ele>
        <time>2018-09-16T12:24:49Z</time>
      </trkpt>
      <trkpt lat="40.247400" lon="-4.897550">
        <ele>1324.0</ele>
        <time>2018-09-16T12:24:50Z</time>
      </trkpt>
      <trkpt lat="40.247367" lon="-4.897600">
        <ele>1325.0</ele>
        <time>2018-09-16T12:24:51Z</time>
      </trkpt>
      <trkpt lat="40.247333" lon="-4.897633">
        <ele>1325.0</ele>
        <time>2018-09-16T12:24:52Z</time>
      </trkpt>
      <trkpt lat="40.247300" lon="-4.897700">
        <ele>1325.0</ele>
        <time>2018-09-16T12:24:53Z</time>
      </trkpt>
      <trkpt lat="40.247317" lon="-4.897900">
        <ele>1326.0</ele>
        <time>2018-09-16T12:24:55Z</time>
      </trkpt>
      <trkpt lat="40.247383" lon="-4.897983">
        <ele>1326.0</ele>
        <time>2018-09-16T12:24:56Z</time>
      </trkpt>
      <trkpt lat="40.247450" lon="-4.898067">
        <ele>1326.0</ele>
        <time>2018-09-16T12:24:57Z</time>
      </trkpt>
      <trkpt lat="40.247567" lon="-4.898083">
        <ele>1326.0</ele>
        <time>2018-09-16T12:24:58Z</time>
      </trkpt>
      <trkpt lat="40.247667" lon="-4.898067">
        <ele>1325.0</ele>
        <time>2018-09-16T12:24:59Z</time>
      </trkpt>
      <trkpt lat="40.247783" lon="-4.898033">
        <ele>1325.0</ele>
        <time>2018-09-16T12:25:00Z</time>
      </trkpt>
      <trkpt lat="40.247867" lon="-4.897967">
        <ele>1325.0</ele>
        <time>2018-09-16T12:25:01Z</time>
      </trkpt>
      <trkpt lat="40.247933" lon="-4.897900">
        <ele>1326.0</ele>
        <time>2018-09-16T12:25:02Z</time>
      </trkpt>
      <trkpt lat="40.247983" lon="-4.897800">
        <ele>1326.0</ele>
        <time>2018-09-16T12:25:03Z</time>
      </trkpt>
      <trkpt lat="40.248000" lon="-4.897700">
        <ele>1326.0</ele>
        <time>2018-09-16T12:25:04Z</time>
      </trkpt>
      <trkpt lat="40.247983" lon="-4.897600">
        <ele>1327.0</ele>
        <time>2018-09-16T12:25:05Z</time>
      </trkpt>
      <trkpt lat="40.247967" lon="-4.897500">
        <ele>1327.0</ele>
        <time>2018-09-16T12:25:06Z</time>
      </trkpt>
      <trkpt lat="40.247917" lon="-4.897433">
        <ele>1327.0</ele>
        <time>2018-09-16T12:25:07Z</time>
      </trkpt>
      <trkpt lat="40.247850" lon="-4.897383">
        <ele>1327.0</ele>
        <time>2018-09-16T12:25:08Z</time>
      </trkpt>
      <trkpt lat="40.247800" lon="-4.897350">
        <ele>1327.0</ele>
        <time>2018-09-16T12:25:09Z</time>
      </trkpt>
      <trkpt lat="40.247750" lon="-4.897300">
        <ele>1327.0</ele>
        <time>2018-09-16T12:25:10Z</time>
      </trkpt>
      <trkpt lat="40.247700" lon="-4.897267">
        <ele>1327.0</ele>
        <time>2018-09-16T12:25:11Z</time>
      </trkpt>
      <trkpt lat="40.247633" lon="-4.897233">
        <ele>1327.0</ele>
        <time>2018-09-16T12:25:12Z</time>
      </trkpt>
      <trkpt lat="40.247550" lon="-4.897217">
        <ele>1327.0</ele>
        <time>2018-09-16T12:25:13Z</time>
      </trkpt>
      <trkpt lat="40.247467" lon="-4.897217">
        <ele>1328.0</ele>
        <time>2018-09-16T12:25:14Z</time>
      </trkpt>
      <trkpt lat="40.247400" lon="-4.897200">
        <ele>1328.0</ele>
        <time>2018-09-16T12:25:15Z</time>
      </trkpt>
      <trkpt lat="40.247333" lon="-4.897200">
        <ele>1328.0</ele>
        <time>2018-09-16T12:25:16Z</time>
      </trkpt>
      <trkpt lat="40.247250" lon="-4.897200">
        <ele>1329.0</ele>
        <time>2018-09-16T12:25:17Z</time>
      </trkpt>
      <trkpt lat="40.247183" lon="-4.897233">
        <ele>1329.0</ele>
        <time>2018-09-16T12:25:18Z</time>
      </trkpt>
      <trkpt lat="40.247117" lon="-4.897250">
        <ele>1329.0</ele>
        <time>2018-09-16T12:25:19Z</time>
      </trkpt>
      <trkpt lat="40.247067" lon="-4.897300">
        <ele>1330.0</ele>
        <time>2018-09-16T12:25:20Z</time>
      </trkpt>
      <trkpt lat="40.247017" lon="-4.897333">
        <ele>1331.0</ele>
        <time>2018-09-16T12:25:21Z</time>
      </trkpt>
      <trkpt lat="40.246967" lon="-4.897367">
        <ele>1332.0</ele>
        <time>2018-09-16T12:25:22Z</time>
      </trkpt>
      <trkpt lat="40.246900" lon="-4.897400">
        <ele>1333.0</ele>
        <time>2018-09-16T12:25:23Z</time>
      </trkpt>
      <trkpt lat="40.246833" lon="-4.897467">
        <ele>1333.0</ele>
        <time>2018-09-16T12:25:24Z</time>
      </trkpt>
      <trkpt lat="40.246817" lon="-4.897567">
        <ele>1333.0</ele>
        <time>2018-09-16T12:25:25Z</time>
      </trkpt>
      <trkpt lat="40.246833" lon="-4.897683">
        <ele>1333.0</ele>
        <time>2018-09-16T12:25:26Z</time>
      </trkpt>
      <trkpt lat="40.246883" lon="-4.897783">
        <ele>1333.0</ele>
        <time>2018-09-16T12:25:27Z</time>
      </trkpt>
      <trkpt lat="40.246933" lon="-4.897833">
        <ele>1333.0</ele>
        <time>2018-09-16T12:25:28Z</time>
      </trkpt>
      <trkpt lat="40.247000" lon="-4.897867">
        <ele>1333.0</ele>
        <time>2018-09-16T12:25:29Z</time>
      </trkpt>
      <trkpt lat="40.247083" lon="-4.897900">
        <ele>1333.0</ele>
        <time>2018-09-16T12:25:30Z</time>
      </trkpt>
      <trkpt lat="40.247283" lon="-4.897850">
        <ele>1333.0</ele>
        <time>2018-09-16T12:25:32Z</time>
      </trkpt>
      <trkpt lat="40.247367" lon="-4.897767">
        <ele>1332.0</ele>
        <time>2018-09-16T12:25:33Z</time>
      </trkpt>
      <trkpt lat="40.247450" lon="-4.897650">
        <ele>1332.0</ele>
        <time>2018-09-16T12:25:34Z</time>
      </trkpt>
      <trkpt lat="40.247483" lon="-4.897517">
        <ele>1332.0</ele>
        <time>2018-09-16T12:25:35Z</time>
      </trkpt>
      <trkpt lat="40.247483" lon="-4.897383">
        <ele>1330.0</ele>
        <time>2018-09-16T12:25:36Z</time>
      </trkpt>
      <trkpt lat="40.247450" lon="-4.897250">
        <ele>1329.0</ele>
        <time>2018-09-16T12:25:37Z</time>
      </trkpt>
      <trkpt lat="40.247400" lon="-4.897133">
        <ele>1328.0</ele>
        <time>2018-09-16T12:25:38Z</time>
      </trkpt>
      <trkpt lat="40.247333" lon="-4.897067">
        <ele>1327.0</ele>
        <time>2018-09-16T12:25:39Z</time>
      </trkpt>
      <trkpt lat="40.247283" lon="-4.897017">
        <ele>1329.0</ele>
        <time>2018-09-16T12:25:40Z</time>
      </trkpt>
      <trkpt lat="40.247217" lon="-4.896983">
        <ele>1328.0</ele>
        <time>2018-09-16T12:25:41Z</time>
      </trkpt>
      <trkpt lat="40.247167" lon="-4.896950">
        <ele>1328.0</ele>
        <time>2018-09-16T12:25:42Z</time>
      </trkpt>
      <trkpt lat="40.247100" lon="-4.896917">
        <ele>1327.0</ele>
        <time>2018-09-16T12:25:43Z</time>
      </trkpt>
      <trkpt lat="40.247033" lon="-4.896883">
        <ele>1326.0</ele>
        <time>2018-09-16T12:25:44Z</time>
      </trkpt>
      <trkpt lat="40.246950" lon="-4.896883">
        <ele>1325.0</ele>
        <time>2018-09-16T12:25:45Z</time>
      </trkpt>
      <trkpt lat="40.246900" lon="-4.896867">
        <ele>1325.0</ele>
        <time>2018-09-16T12:25:46Z</time>
      </trkpt>
      <trkpt lat="40.246833" lon="-4.896850">
        <ele>1324.0</ele>
        <time>2018-09-16T12:25:47Z</time>
      </trkpt>
      <trkpt lat="40.246800" lon="-4.896833">
        <ele>1323.0</ele>
        <time>2018-09-16T12:25:48Z</time>
      </trkpt>
      <trkpt lat="40.246733" lon="-4.896817">
        <ele>1322.0</ele>
        <time>2018-09-16T12:25:49Z</time>
      </trkpt>
      <trkpt lat="40.246667" lon="-4.896817">
        <ele>1320.0</ele>
        <time>2018-09-16T12:25:50Z</time>
      </trkpt>
      <trkpt lat="40.246583" lon="-4.896800">
        <ele>1316.0</ele>
        <time>2018-09-16T12:25:51Z</time>
      </trkpt>
      <trkpt lat="40.246500" lon="-4.896767">
        <ele>1313.0</ele>
        <time>2018-09-16T12:25:52Z</time>
      </trkpt>
      <trkpt lat="40.246417" lon="-4.896750">
        <ele>1311.0</ele>
        <time>2018-09-16T12:25:53Z</time>
      </trkpt>
      <trkpt lat="40.246350" lon="-4.896717">
        <ele>1310.0</ele>
        <time>2018-09-16T12:25:54Z</time>
      </trkpt>
      <trkpt lat="40.246283" lon="-4.896700">
        <ele>1309.0</ele>
        <time>2018-09-16T12:25:55Z</time>
      </trkpt>
      <trkpt lat="40.246217" lon="-4.896700">
        <ele>1307.0</ele>
        <time>2018-09-16T12:25:56Z</time>
      </trkpt>
      <trkpt lat="40.246150" lon="-4.896683">
        <ele>1305.0</ele>
        <time>2018-09-16T12:25:57Z</time>
      </trkpt>
      <trkpt lat="40.246067" lon="-4.896683">
        <ele>1302.0</ele>
        <time>2018-09-16T12:25:58Z</time>
      </trkpt>
      <trkpt lat="40.246000" lon="-4.896667">
        <ele>1300.0</ele>
        <time>2018-09-16T12:25:59Z</time>
      </trkpt>
      <trkpt lat="40.245917" lon="-4.896650">
        <ele>1300.0</ele>
        <time>2018-09-16T12:26:00Z</time>
      </trkpt>
      <trkpt lat="40.245850" lon="-4.896617">
        <ele>1299.0</ele>
        <time>2018-09-16T12:26:01Z</time>
      </trkpt>
      <trkpt lat="40.245800" lon="-4.896600">
        <ele>1298.0</ele>
        <time>2018-09-16T12:26:02Z</time>
      </trkpt>
      <trkpt lat="40.245750" lon="-4.896567">
        <ele>1297.0</ele>
        <time>2018-09-16T12:26:03Z</time>
      </trkpt>
      <trkpt lat="40.245683" lon="-4.896533">
        <ele>1297.0</ele>
        <time>2018-09-16T12:26:04Z</time>
      </trkpt>
      <trkpt lat="40.245633" lon="-4.896500">
        <ele>1296.0</ele>
        <time>2018-09-16T12:26:05Z</time>
      </trkpt>
      <trkpt lat="40.245567" lon="-4.896433">
        <ele>1295.0</ele>
        <time>2018-09-16T12:26:06Z</time>
      </trkpt>
      <trkpt lat="40.245500" lon="-4.896333">
        <ele>1293.0</ele>
        <time>2018-09-16T12:26:07Z</time>
      </trkpt>
      <trkpt lat="40.245483" lon="-4.896200">
        <ele>1292.0</ele>
        <time>2018-09-16T12:26:08Z</time>
      </trkpt>
      <trkpt lat="40.245483" lon="-4.896067">
        <ele>1290.0</ele>
        <time>2018-09-16T12:26:09Z</time>
      </trkpt>
      <trkpt lat="40.245500" lon="-4.895933">
        <ele>1289.0</ele>
        <time>2018-09-16T12:26:10Z</time>
      </trkpt>
      <trkpt lat="40.245517" lon="-4.895817">
        <ele>1288.0</ele>
        <time>2018-09-16T12:26:11Z</time>
      </trkpt>
      <trkpt lat="40.245550" lon="-4.895683">
        <ele>1287.0</ele>
        <time>2018-09-16T12:26:12Z</time>
      </trkpt>
      <trkpt lat="40.245633" lon="-4.895400">
        <ele>1283.0</ele>
        <time>2018-09-16T12:26:14Z</time>
      </trkpt>
      <trkpt lat="40.245700" lon="-4.895267">
        <ele>1280.0</ele>
        <time>2018-09-16T12:26:15Z</time>
      </trkpt>
      <trkpt lat="40.245767" lon="-4.895133">
        <ele>1279.0</ele>
        <time>2018-09-16T12:26:16Z</time>
      </trkpt>
      <trkpt lat="40.245833" lon="-4.895033">
        <ele>1277.0</ele>
        <time>2018-09-16T12:26:17Z</time>
      </trkpt>
      <trkpt lat="40.245900" lon="-4.894917">
        <ele>1276.0</ele>
        <time>2018-09-16T12:26:18Z</time>
      </trkpt>
      <trkpt lat="40.245950" lon="-4.894800">
        <ele>1274.0</ele>
        <time>2018-09-16T12:26:19Z</time>
      </trkpt>
      <trkpt lat="40.246017" lon="-4.894683">
        <ele>1273.0</ele>
        <time>2018-09-16T12:26:20Z</time>
      </trkpt>
      <trkpt lat="40.246083" lon="-4.894567">
        <ele>1271.0</ele>
        <time>2018-09-16T12:26:21Z</time>
      </trkpt>
      <trkpt lat="40.246167" lon="-4.894450">
        <ele>1270.0</ele>
        <time>2018-09-16T12:26:22Z</time>
      </trkpt>
      <trkpt lat="40.246233" lon="-4.894367">
        <ele>1268.0</ele>
        <time>2018-09-16T12:26:23Z</time>
      </trkpt>
      <trkpt lat="40.246317" lon="-4.894267">
        <ele>1266.0</ele>
        <time>2018-09-16T12:26:24Z</time>
      </trkpt>
      <trkpt lat="40.246383" lon="-4.894183">
        <ele>1264.0</ele>
        <time>2018-09-16T12:26:25Z</time>
      </trkpt>
      <trkpt lat="40.246450" lon="-4.894117">
        <ele>1263.0</ele>
        <time>2018-09-16T12:26:26Z</time>
      </trkpt>
      <trkpt lat="40.246517" lon="-4.894033">
        <ele>1261.0</ele>
        <time>2018-09-16T12:26:27Z</time>
      </trkpt>
      <trkpt lat="40.246583" lon="-4.893967">
        <ele>1258.0</ele>
        <time>2018-09-16T12:26:28Z</time>
      </trkpt>
      <trkpt lat="40.246667" lon="-4.893883">
        <ele>1256.0</ele>
        <time>2018-09-16T12:26:29Z</time>
      </trkpt>
      <trkpt lat="40.246750" lon="-4.893783">
        <ele>1253.0</ele>
        <time>2018-09-16T12:26:30Z</time>
      </trkpt>
      <trkpt lat="40.246833" lon="-4.893700">
        <ele>1251.0</ele>
        <time>2018-09-16T12:26:31Z</time>
      </trkpt>
      <trkpt lat="40.246900" lon="-4.893617">
        <ele>1249.0</ele>
        <time>2018-09-16T12:26:32Z</time>
      </trkpt>
      <trkpt lat="40.246983" lon="-4.893533">
        <ele>1245.0</ele>
        <time>2018-09-16T12:26:33Z</time>
      </trkpt>
      <trkpt lat="40.247050" lon="-4.893450">
        <ele>1242.0</ele>
        <time>2018-09-16T12:26:34Z</time>
      </trkpt>
      <trkpt lat="40.247150" lon="-4.893333">
        <ele>1237.0</ele>
        <time>2018-09-16T12:26:35Z</time>
      </trkpt>
      <trkpt lat="40.247267" lon="-4.893233">
        <ele>1234.0</ele>
        <time>2018-09-16T12:26:36Z</time>
      </trkpt>
      <trkpt lat="40.247367" lon="-4.893133">
        <ele>1231.0</ele>
        <time>2018-09-16T12:26:37Z</time>
      </trkpt>
      <trkpt lat="40.247467" lon="-4.893050">
        <ele>1231.0</ele>
        <time>2018-09-16T12:26:38Z</time>
      </trkpt>
      <trkpt lat="40.247567" lon="-4.892967">
        <ele>1230.0</ele>
        <time>2018-09-16T12:26:39Z</time>
      </trkpt>
      <trkpt lat="40.247650" lon="-4.892883">
        <ele>1228.0</ele>
        <time>2018-09-16T12:26:40Z</time>
      </trkpt>
      <trkpt lat="40.247717" lon="-4.892783">
        <ele>1227.0</ele>
        <time>2018-09-16T12:26:41Z</time>
      </trkpt>
      <trkpt lat="40.247800" lon="-4.892667">
        <ele>1225.0</ele>
        <time>2018-09-16T12:26:42Z</time>
      </trkpt>
      <trkpt lat="40.247900" lon="-4.892533">
        <ele>1223.0</ele>
        <time>2018-09-16T12:26:43Z</time>
      </trkpt>
      <trkpt lat="40.248000" lon="-4.892417">
        <ele>1222.0</ele>
        <time>2018-09-16T12:26:44Z</time>
      </trkpt>
      <trkpt lat="40.248083" lon="-4.892317">
        <ele>1223.0</ele>
        <time>2018-09-16T12:26:45Z</time>
      </trkpt>
      <trkpt lat="40.248150" lon="-4.892250">
        <ele>1224.0</ele>
        <time>2018-09-16T12:26:46Z</time>
      </trkpt>
      <trkpt lat="40.248233" lon="-4.892167">
        <ele>1224.0</ele>
        <time>2018-09-16T12:26:47Z</time>
      </trkpt>
      <trkpt lat="40.248317" lon="-4.892083">
        <ele>1225.0</ele>
        <time>2018-09-16T12:26:48Z</time>
      </trkpt>
      <trkpt lat="40.248400" lon="-4.892000">
        <ele>1224.0</ele>
        <time>2018-09-16T12:26:49Z</time>
      </trkpt>
      <trkpt lat="40.248450" lon="-4.891900">
        <ele>1224.0</ele>
        <time>2018-09-16T12:26:50Z</time>
      </trkpt>
      <trkpt lat="40.248483" lon="-4.891800">
        <ele>1223.0</ele>
        <time>2018-09-16T12:26:51Z</time>
      </trkpt>
      <trkpt lat="40.248483" lon="-4.891683">
        <ele>1222.0</ele>
        <time>2018-09-16T12:26:52Z</time>
      </trkpt>
      <trkpt lat="40.248450" lon="-4.891583">
        <ele>1223.0</ele>
        <time>2018-09-16T12:26:53Z</time>
      </trkpt>
      <trkpt lat="40.248400" lon="-4.891583">
        <ele>1223.0</ele>
        <time>2018-09-16T12:26:54Z</time>
      </trkpt>
      <trkpt lat="40.248333" lon="-4.891617">
        <ele>1223.0</ele>
        <time>2018-09-16T12:26:55Z</time>
      </trkpt>
      <trkpt lat="40.248317" lon="-4.891717">
        <ele>1223.0</ele>
        <time>2018-09-16T12:26:56Z</time>
      </trkpt>
      <trkpt lat="40.248333" lon="-4.891833">
        <ele>1222.0</ele>
        <time>2018-09-16T12:26:57Z</time>
      </trkpt>
      <trkpt lat="40.248367" lon="-4.891967">
        <ele>1221.0</ele>
        <time>2018-09-16T12:26:58Z</time>
      </trkpt>
      <trkpt lat="40.248400" lon="-4.892100">
        <ele>1220.0</ele>
        <time>2018-09-16T12:26:59Z</time>
      </trkpt>
      <trkpt lat="40.248450" lon="-4.892200">
        <ele>1219.0</ele>
        <time>2018-09-16T12:27:00Z</time>
      </trkpt>
      <trkpt lat="40.248483" lon="-4.892283">
        <ele>1218.0</ele>
        <time>2018-09-16T12:27:01Z</time>
      </trkpt>
      <trkpt lat="40.248550" lon="-4.892383">
        <ele>1218.0</ele>
        <time>2018-09-16T12:27:02Z</time>
      </trkpt>
      <trkpt lat="40.248633" lon="-4.892517">
        <ele>1218.0</ele>
        <time>2018-09-16T12:27:03Z</time>
      </trkpt>
      <trkpt lat="40.248700" lon="-4.892600">
        <ele>1217.0</ele>
        <time>2018-09-16T12:27:04Z</time>
      </trkpt>
      <trkpt lat="40.248767" lon="-4.892683">
        <ele>1216.0</ele>
        <time>2018-09-16T12:27:05Z</time>
      </trkpt>
      <trkpt lat="40.248833" lon="-4.892750">
        <ele>1214.0</ele>
        <time>2018-09-16T12:27:06Z</time>
      </trkpt>
      <trkpt lat="40.248933" lon="-4.892817">
        <ele>1212.0</ele>
        <time>2018-09-16T12:27:07Z</time>
      </trkpt>
      <trkpt lat="40.249017" lon="-4.892917">
        <ele>1211.0</ele>
        <time>2018-09-16T12:27:08Z</time>
      </trkpt>
      <trkpt lat="40.249117" lon="-4.893000">
        <ele>1209.0</ele>
        <time>2018-09-16T12:27:09Z</time>
      </trkpt>
      <trkpt lat="40.249200" lon="-4.893083">
        <ele>1207.0</ele>
        <time>2018-09-16T12:27:10Z</time>
      </trkpt>
      <trkpt lat="40.249283" lon="-4.893150">
        <ele>1206.0</ele>
        <time>2018-09-16T12:27:11Z</time>
      </trkpt>
      <trkpt lat="40.249383" lon="-4.893200">
        <ele>1205.0</ele>
        <time>2018-09-16T12:27:12Z</time>
      </trkpt>
      <trkpt lat="40.249483" lon="-4.893267">
        <ele>1203.0</ele>
        <time>2018-09-16T12:27:13Z</time>
      </trkpt>
      <trkpt lat="40.249583" lon="-4.893317">
        <ele>1202.0</ele>
        <time>2018-09-16T12:27:14Z</time>
      </trkpt>
      <trkpt lat="40.249700" lon="-4.893400">
        <ele>1200.0</ele>
        <time>2018-09-16T12:27:15Z</time>
      </trkpt>
      <trkpt lat="40.249783" lon="-4.893483">
        <ele>1199.0</ele>
        <time>2018-09-16T12:27:16Z</time>
      </trkpt>
      <trkpt lat="40.249883" lon="-4.893550">
        <ele>1198.0</ele>
        <time>2018-09-16T12:27:17Z</time>
      </trkpt>
      <trkpt lat="40.249983" lon="-4.893617">
        <ele>1197.0</ele>
        <time>2018-09-16T12:27:18Z</time>
      </trkpt>
      <trkpt lat="40.250083" lon="-4.893667">
        <ele>1197.0</ele>
        <time>2018-09-16T12:27:19Z</time>
      </trkpt>
      <trkpt lat="40.250200" lon="-4.893700">
        <ele>1196.0</ele>
        <time>2018-09-16T12:27:20Z</time>
      </trkpt>
      <trkpt lat="40.250333" lon="-4.893733">
        <ele>1195.0</ele>
        <time>2018-09-16T12:27:21Z</time>
      </trkpt>
      <trkpt lat="40.250450" lon="-4.893733">
        <ele>1196.0</ele>
        <time>2018-09-16T12:27:22Z</time>
      </trkpt>
      <trkpt lat="40.250567" lon="-4.893717">
        <ele>1199.0</ele>
        <time>2018-09-16T12:27:23Z</time>
      </trkpt>
      <trkpt lat="40.250667" lon="-4.893700">
        <ele>1202.0</ele>
        <time>2018-09-16T12:27:24Z</time>
      </trkpt>
      <trkpt lat="40.250767" lon="-4.893683">
        <ele>1203.0</ele>
        <time>2018-09-16T12:27:25Z</time>
      </trkpt>
      <trkpt lat="40.250867" lon="-4.893667">
        <ele>1204.0</ele>
        <time>2018-09-16T12:27:26Z</time>
      </trkpt>
      <trkpt lat="40.250967" lon="-4.893650">
        <ele>1205.0</ele>
        <time>2018-09-16T12:27:27Z</time>
      </trkpt>
      <trkpt lat="40.251083" lon="-4.893600">
        <ele>1207.0</ele>
        <time>2018-09-16T12:27:28Z</time>
      </trkpt>
      <trkpt lat="40.251200" lon="-4.893500">
        <ele>1208.0</ele>
        <time>2018-09-16T12:27:29Z</time>
      </trkpt>
      <trkpt lat="40.251267" lon="-4.893400">
        <ele>1209.0</ele>
        <time>2018-09-16T12:27:30Z</time>
      </trkpt>
      <trkpt lat="40.251317" lon="-4.893300">
        <ele>1210.0</ele>
        <time>2018-09-16T12:27:31Z</time>
      </trkpt>
      <trkpt lat="40.251333" lon="-4.893200">
        <ele>1210.0</ele>
        <time>2018-09-16T12:27:32Z</time>
      </trkpt>
      <trkpt lat="40.251317" lon="-4.893117">
        <ele>1207.0</ele>
        <time>2018-09-16T12:27:33Z</time>
      </trkpt>
      <trkpt lat="40.251300" lon="-4.893067">
        <ele>1207.0</ele>
        <time>2018-09-16T12:27:34Z</time>
      </trkpt>
      <trkpt lat="40.251250" lon="-4.893033">
        <ele>1207.0</ele>
        <time>2018-09-16T12:27:35Z</time>
      </trkpt>
      <trkpt lat="40.251217" lon="-4.893033">
        <ele>1206.0</ele>
        <time>2018-09-16T12:27:36Z</time>
      </trkpt>
      <trkpt lat="40.251183" lon="-4.893083">
        <ele>1206.0</ele>
        <time>2018-09-16T12:27:37Z</time>
      </trkpt>
      <trkpt lat="40.251183" lon="-4.893150">
        <ele>1206.0</ele>
        <time>2018-09-16T12:27:38Z</time>
      </trkpt>
      <trkpt lat="40.251200" lon="-4.893250">
        <ele>1205.0</ele>
        <time>2018-09-16T12:27:39Z</time>
      </trkpt>
      <trkpt lat="40.251267" lon="-4.893333">
        <ele>1205.0</ele>
        <time>2018-09-16T12:27:40Z</time>
      </trkpt>
      <trkpt lat="40.251367" lon="-4.893400">
        <ele>1205.0</ele>
        <time>2018-09-16T12:27:41Z</time>
      </trkpt>
      <trkpt lat="40.251483" lon="-4.893433">
        <ele>1205.0</ele>
        <time>2018-09-16T12:27:42Z</time>
      </trkpt>
      <trkpt lat="40.251600" lon="-4.893417">
        <ele>1205.0</ele>
        <time>2018-09-16T12:27:43Z</time>
      </trkpt>
      <trkpt lat="40.251717" lon="-4.893350">
        <ele>1205.0</ele>
        <time>2018-09-16T12:27:44Z</time>
      </trkpt>
      <trkpt lat="40.251800" lon="-4.893250">
        <ele>1204.0</ele>
        <time>2018-09-16T12:27:45Z</time>
      </trkpt>
      <trkpt lat="40.251883" lon="-4.893150">
        <ele>1204.0</ele>
        <time>2018-09-16T12:27:46Z</time>
      </trkpt>
      <trkpt lat="40.251933" lon="-4.893033">
        <ele>1204.0</ele>
        <time>2018-09-16T12:27:47Z</time>
      </trkpt>
      <trkpt lat="40.251950" lon="-4.892933">
        <ele>1205.0</ele>
        <time>2018-09-16T12:27:48Z</time>
      </trkpt>
      <trkpt lat="40.251967" lon="-4.892833">
        <ele>1205.0</ele>
        <time>2018-09-16T12:27:49Z</time>
      </trkpt>
      <trkpt lat="40.251950" lon="-4.892750">
        <ele>1204.0</ele>
        <time>2018-09-16T12:27:50Z</time>
      </trkpt>
      <trkpt lat="40.251900" lon="-4.892700">
        <ele>1203.0</ele>
        <time>2018-09-16T12:27:51Z</time>
      </trkpt>
      <trkpt lat="40.251850" lon="-4.892700">
        <ele>1204.0</ele>
        <time>2018-09-16T12:27:52Z</time>
      </trkpt>
      <trkpt lat="40.251817" lon="-4.892767">
        <ele>1204.0</ele>
        <time>2018-09-16T12:27:53Z</time>
      </trkpt>
      <trkpt lat="40.251800" lon="-4.892867">
        <ele>1204.0</ele>
        <time>2018-09-16T12:27:54Z</time>
      </trkpt>
      <trkpt lat="40.251783" lon="-4.892933">
        <ele>1204.0</ele>
        <time>2018-09-16T12:27:55Z</time>
      </trkpt>
      <trkpt lat="40.251783" lon="-4.893000">
        <ele>1204.0</ele>
        <time>2018-09-16T12:27:56Z</time>
      </trkpt>
      <trkpt lat="40.251767" lon="-4.893067">
        <ele>1204.0</ele>
        <time>2018-09-16T12:27:57Z</time>
      </trkpt>
      <trkpt lat="40.251750" lon="-4.893133">
        <ele>1204.0</ele>
        <time>2018-09-16T12:27:58Z</time>
      </trkpt>
      <trkpt lat="40.251717" lon="-4.893200">
        <ele>1204.0</ele>
        <time>2018-09-16T12:27:59Z</time>
      </trkpt>
      <trkpt lat="40.251683" lon="-4.893250">
        <ele>1205.0</ele>
        <time>2018-09-16T12:28:00Z</time>
      </trkpt>
      <trkpt lat="40.251650" lon="-4.893283">
        <ele>1208.0</ele>
        <time>2018-09-16T12:28:01Z</time>
      </trkpt>
      <trkpt lat="40.251633" lon="-4.893333">
        <ele>1208.0</ele>
        <time>2018-09-16T12:28:02Z</time>
      </trkpt>
      <trkpt lat="40.251617" lon="-4.893367">
        <ele>1209.0</ele>
        <time>2018-09-16T12:28:03Z</time>
      </trkpt>
      <trkpt lat="40.251617" lon="-4.893433">
        <ele>1210.0</ele>
        <time>2018-09-16T12:28:04Z</time>
      </trkpt>
      <trkpt lat="40.251583" lon="-4.893500">
        <ele>1211.0</ele>
        <time>2018-09-16T12:28:05Z</time>
      </trkpt>
      <trkpt lat="40.251550" lon="-4.893567">
        <ele>1211.0</ele>
        <time>2018-09-16T12:28:06Z</time>
      </trkpt>
      <trkpt lat="40.251533" lon="-4.893650">
        <ele>1210.0</ele>
        <time>2018-09-16T12:28:07Z</time>
      </trkpt>
      <trkpt lat="40.251517" lon="-4.893750">
        <ele>1210.0</ele>
        <time>2018-09-16T12:28:08Z</time>
      </trkpt>
      <trkpt lat="40.251500" lon="-4.893833">
        <ele>1210.0</ele>
        <time>2018-09-16T12:28:09Z</time>
      </trkpt>
      <trkpt lat="40.251467" lon="-4.893917">
        <ele>1211.0</ele>
        <time>2018-09-16T12:28:10Z</time>
      </trkpt>
      <trkpt lat="40.251450" lon="-4.894000">
        <ele>1212.0</ele>
        <time>2018-09-16T12:28:11Z</time>
      </trkpt>
      <trkpt lat="40.251417" lon="-4.894067">
        <ele>1213.0</ele>
        <time>2018-09-16T12:28:12Z</time>
      </trkpt>
      <trkpt lat="40.251400" lon="-4.894133">
        <ele>1214.0</ele>
        <time>2018-09-16T12:28:13Z</time>
      </trkpt>
      <trkpt lat="40.251400" lon="-4.894200">
        <ele>1215.0</ele>
        <time>2018-09-16T12:28:14Z</time>
      </trkpt>
      <trkpt lat="40.251400" lon="-4.894283">
        <ele>1216.0</ele>
        <time>2018-09-16T12:28:15Z</time>
      </trkpt>
      <trkpt lat="40.251383" lon="-4.894350">
        <ele>1216.0</ele>
        <time>2018-09-16T12:28:16Z</time>
      </trkpt>
      <trkpt lat="40.251350" lon="-4.894417">
        <ele>1214.0</ele>
        <time>2018-09-16T12:28:17Z</time>
      </trkpt>
      <trkpt lat="40.251317" lon="-4.894467">
        <ele>1213.0</ele>
        <time>2018-09-16T12:28:18Z</time>
      </trkpt>
      <trkpt lat="40.251250" lon="-4.894450">
        <ele>1212.0</ele>
        <time>2018-09-16T12:28:19Z</time>
      </trkpt>
      <trkpt lat="40.251217" lon="-4.894383">
        <ele>1211.0</ele>
        <time>2018-09-16T12:28:20Z</time>
      </trkpt>
      <trkpt lat="40.251200" lon="-4.894267">
        <ele>1210.0</ele>
        <time>2018-09-16T12:28:21Z</time>
      </trkpt>
      <trkpt lat="40.251217" lon="-4.894133">
        <ele>1209.0</ele>
        <time>2018-09-16T12:28:22Z</time>
      </trkpt>
      <trkpt lat="40.251283" lon="-4.894017">
        <ele>1208.0</ele>
        <time>2018-09-16T12:28:23Z</time>
      </trkpt>
      <trkpt lat="40.251367" lon="-4.893933">
        <ele>1209.0</ele>
        <time>2018-09-16T12:28:24Z</time>
      </trkpt>
      <trkpt lat="40.251483" lon="-4.893867">
        <ele>1208.0</ele>
        <time>2018-09-16T12:28:25Z</time>
      </trkpt>
      <trkpt lat="40.251600" lon="-4.893817">
        <ele>1208.0</ele>
        <time>2018-09-16T12:28:26Z</time>
      </trkpt>
      <trkpt lat="40.251717" lon="-4.893817">
        <ele>1207.0</ele>
        <time>2018-09-16T12:28:27Z</time>
      </trkpt>
      <trkpt lat="40.251833" lon="-4.893867">
        <ele>1206.0</ele>
        <time>2018-09-16T12:28:28Z</time>
      </trkpt>
      <trkpt lat="40.251917" lon="-4.893950">
        <ele>1206.0</ele>
        <time>2018-09-16T12:28:29Z</time>
      </trkpt>
      <trkpt lat="40.251967" lon="-4.894083">
        <ele>1206.0</ele>
        <time>2018-09-16T12:28:30Z</time>
      </trkpt>
      <trkpt lat="40.251967" lon="-4.894200">
        <ele>1206.0</ele>
        <time>2018-09-16T12:28:31Z</time>
      </trkpt>
      <trkpt lat="40.251933" lon="-4.894300">
        <ele>1207.0</ele>
        <time>2018-09-16T12:28:32Z</time>
      </trkpt>
      <trkpt lat="40.251933" lon="-4.894417">
        <ele>1209.0</ele>
        <time>2018-09-16T12:28:33Z</time>
      </trkpt>
      <trkpt lat="40.251950" lon="-4.894533">
        <ele>1211.0</ele>
        <time>2018-09-16T12:28:34Z</time>
      </trkpt>
      <trkpt lat="40.251967" lon="-4.894650">
        <ele>1213.0</ele>
        <time>2018-09-16T12:28:35Z</time>
      </trkpt>
      <trkpt lat="40.251983" lon="-4.894750">
        <ele>1215.0</ele>
        <time>2018-09-16T12:28:36Z</time>
      </trkpt>
      <trkpt lat="40.251967" lon="-4.894850">
        <ele>1216.0</ele>
        <time>2018-09-16T12:28:37Z</time>
      </trkpt>
      <trkpt lat="40.251933" lon="-4.894950">
        <ele>1217.0</ele>
        <time>2018-09-16T12:28:38Z</time>
      </trkpt>
      <trkpt lat="40.251917" lon="-4.895017">
        <ele>1218.0</ele>
        <time>2018-09-16T12:28:39Z</time>
      </trkpt>
      <trkpt lat="40.251883" lon="-4.895083">
        <ele>1220.0</ele>
        <time>2018-09-16T12:28:40Z</time>
      </trkpt>
      <trkpt lat="40.251833" lon="-4.895133">
        <ele>1220.0</ele>
        <time>2018-09-16T12:28:41Z</time>
      </trkpt>
      <trkpt lat="40.251767" lon="-4.895167">
        <ele>1221.0</ele>
        <time>2018-09-16T12:28:42Z</time>
      </trkpt>
      <trkpt lat="40.251717" lon="-4.895167">
        <ele>1222.0</ele>
        <time>2018-09-16T12:28:43Z</time>
      </trkpt>
      <trkpt lat="40.251667" lon="-4.895167">
        <ele>1223.0</ele>
        <time>2018-09-16T12:28:44Z</time>
      </trkpt>
      <trkpt lat="40.251617" lon="-4.895117">
        <ele>1225.0</ele>
        <time>2018-09-16T12:28:45Z</time>
      </trkpt>
      <trkpt lat="40.251583" lon="-4.895050">
        <ele>1225.0</ele>
        <time>2018-09-16T12:28:46Z</time>
      </trkpt>
      <trkpt lat="40.251567" lon="-4.894950">
        <ele>1225.0</ele>
        <time>2018-09-16T12:28:47Z</time>
      </trkpt>
      <trkpt lat="40.251600" lon="-4.894833">
        <ele>1226.0</ele>
        <time>2018-09-16T12:28:48Z</time>
      </trkpt>
      <trkpt lat="40.251667" lon="-4.894717">
        <ele>1227.0</ele>
        <time>2018-09-16T12:28:49Z</time>
      </trkpt>
      <trkpt lat="40.251767" lon="-4.894650">
        <ele>1227.0</ele>
        <time>2018-09-16T12:28:50Z</time>
      </trkpt>
      <trkpt lat="40.251900" lon="-4.894650">
        <ele>1228.0</ele>
        <time>2018-09-16T12:28:51Z</time>
      </trkpt>
      <trkpt lat="40.252000" lon="-4.894717">
        <ele>1227.0</ele>
        <time>2018-09-16T12:28:52Z</time>
      </trkpt>
      <trkpt lat="40.252050" lon="-4.894833">
        <ele>1227.0</ele>
        <time>2018-09-16T12:28:53Z</time>
      </trkpt>
      <trkpt lat="40.252083" lon="-4.894950">
        <ele>1227.0</ele>
        <time>2018-09-16T12:28:54Z</time>
      </trkpt>
      <trkpt lat="40.252083" lon="-4.895067">
        <ele>1227.0</ele>
        <time>2018-09-16T12:28:55Z</time>
      </trkpt>
      <trkpt lat="40.252083" lon="-4.895167">
        <ele>1227.0</ele>
        <time>2018-09-16T12:28:56Z</time>
      </trkpt>
      <trkpt lat="40.252067" lon="-4.895267">
        <ele>1227.0</ele>
        <time>2018-09-16T12:28:57Z</time>
      </trkpt>
      <trkpt lat="40.252033" lon="-4.895333">
        <ele>1228.0</ele>
        <time>2018-09-16T12:28:58Z</time>
      </trkpt>
      <trkpt lat="40.252017" lon="-4.895417">
        <ele>1230.0</ele>
        <time>2018-09-16T12:28:59Z</time>
      </trkpt>
      <trkpt lat="40.251983" lon="-4.895500">
        <ele>1230.0</ele>
        <time>2018-09-16T12:29:00Z</time>
      </trkpt>
      <trkpt lat="40.251950" lon="-4.895583">
        <ele>1231.0</ele>
        <time>2018-09-16T12:29:01Z</time>
      </trkpt>
      <trkpt lat="40.251917" lon="-4.895667">
        <ele>1232.0</ele>
        <time>2018-09-16T12:29:02Z</time>
      </trkpt>
      <trkpt lat="40.251883" lon="-4.895733">
        <ele>1233.0</ele>
        <time>2018-09-16T12:29:03Z</time>
      </trkpt>
      <trkpt lat="40.251850" lon="-4.895800">
        <ele>1233.0</ele>
        <time>2018-09-16T12:29:04Z</time>
      </trkpt>
      <trkpt lat="40.251783" lon="-4.895867">
        <ele>1233.0</ele>
        <time>2018-09-16T12:29:05Z</time>
      </trkpt>
      <trkpt lat="40.251733" lon="-4.895917">
        <ele>1234.0</ele>
        <time>2018-09-16T12:29:06Z</time>
      </trkpt>
      <trkpt lat="40.251667" lon="-4.895950">
        <ele>1235.0</ele>
        <time>2018-09-16T12:29:07Z</time>
      </trkpt>
      <trkpt lat="40.251617" lon="-4.896000">
        <ele>1237.0</ele>
        <time>2018-09-16T12:29:08Z</time>
      </trkpt>
      <trkpt lat="40.251567" lon="-4.896067">
        <ele>1239.0</ele>
        <time>2018-09-16T12:29:09Z</time>
      </trkpt>
      <trkpt lat="40.251517" lon="-4.896117">
        <ele>1241.0</ele>
        <time>2018-09-16T12:29:10Z</time>
      </trkpt>
      <trkpt lat="40.251467" lon="-4.896167">
        <ele>1243.0</ele>
        <time>2018-09-16T12:29:11Z</time>
      </trkpt>
      <trkpt lat="40.251400" lon="-4.896200">
        <ele>1250.0</ele>
        <time>2018-09-16T12:29:13Z</time>
      </trkpt>
      <trkpt lat="40.251367" lon="-4.896217">
        <ele>1252.0</ele>
        <time>2018-09-16T12:29:14Z</time>
      </trkpt>
      <trkpt lat="40.251450" lon="-4.896417">
        <ele>0.0</ele>
        <time>2018-09-16T12:29:19Z</time>
      </trkpt>
      <trkpt lat="40.251400" lon="-4.896500">
        <ele>1257.0</ele>
        <time>2018-09-16T12:29:20Z</time>
      </trkpt>
      <trkpt lat="40.251550" lon="-4.896483">
        <ele>1244.0</ele>
        <time>2018-09-16T12:29:21Z</time>
      </trkpt>
      <trkpt lat="40.251667" lon="-4.896383">
        <ele>1246.0</ele>
        <time>2018-09-16T12:29:22Z</time>
      </trkpt>
      <trkpt lat="40.251750" lon="-4.896250">
        <ele>1247.0</ele>
        <time>2018-09-16T12:29:23Z</time>
      </trkpt>
      <trkpt lat="40.251750" lon="-4.896133">
        <ele>1248.0</ele>
        <time>2018-09-16T12:29:24Z</time>
      </trkpt>
      <trkpt lat="40.251733" lon="-4.896033">
        <ele>1250.0</ele>
        <time>2018-09-16T12:29:25Z</time>
      </trkpt>
      <trkpt lat="40.251717" lon="-4.895967">
        <ele>1252.0</ele>
        <time>2018-09-16T12:29:26Z</time>
      </trkpt>
      <trkpt lat="40.251667" lon="-4.895917">
        <ele>1254.0</ele>
        <time>2018-09-16T12:29:27Z</time>
      </trkpt>
      <trkpt lat="40.251617" lon="-4.895900">
        <ele>1257.0</ele>
        <time>2018-09-16T12:29:28Z</time>
      </trkpt>
      <trkpt lat="40.251567" lon="-4.895900">
        <ele>1259.0</ele>
        <time>2018-09-16T12:29:29Z</time>
      </trkpt>
      <trkpt lat="40.251533" lon="-4.895950">
        <ele>1261.0</ele>
        <time>2018-09-16T12:29:30Z</time>
      </trkpt>
      <trkpt lat="40.251533" lon="-4.896033">
        <ele>1260.0</ele>
        <time>2018-09-16T12:29:31Z</time>
      </trkpt>
      <trkpt lat="40.251583" lon="-4.896117">
        <ele>1261.0</ele>
        <time>2018-09-16T12:29:32Z</time>
      </trkpt>
      <trkpt lat="40.251700" lon="-4.896150">
        <ele>1263.0</ele>
        <time>2018-09-16T12:29:33Z</time>
      </trkpt>
      <trkpt lat="40.251800" lon="-4.896150">
        <ele>1265.0</ele>
        <time>2018-09-16T12:29:34Z</time>
      </trkpt>
      <trkpt lat="40.251917" lon="-4.896083">
        <ele>1265.0</ele>
        <time>2018-09-16T12:29:35Z</time>
      </trkpt>
      <trkpt lat="40.252000" lon="-4.895967">
        <ele>1266.0</ele>
        <time>2018-09-16T12:29:36Z</time>
      </trkpt>
      <trkpt lat="40.252050" lon="-4.895833">
        <ele>1268.0</ele>
        <time>2018-09-16T12:29:37Z</time>
      </trkpt>
      <trkpt lat="40.252050" lon="-4.895717">
        <ele>1270.0</ele>
        <time>2018-09-16T12:29:38Z</time>
      </trkpt>
      <trkpt lat="40.252017" lon="-4.895617">
        <ele>1273.0</ele>
        <time>2018-09-16T12:29:39Z</time>
      </trkpt>
      <trkpt lat="40.252000" lon="-4.895550">
        <ele>1275.0</ele>
        <time>2018-09-16T12:29:40Z</time>
      </trkpt>
      <trkpt lat="40.251983" lon="-4.895500">
        <ele>1277.0</ele>
        <time>2018-09-16T12:29:41Z</time>
      </trkpt>
      <trkpt lat="40.251933" lon="-4.895450">
        <ele>1273.0</ele>
        <time>2018-09-16T12:29:42Z</time>
      </trkpt>
      <trkpt lat="40.251883" lon="-4.895433">
        <ele>1273.0</ele>
        <time>2018-09-16T12:29:43Z</time>
      </trkpt>
      <trkpt lat="40.251850" lon="-4.895450">
        <ele>1274.0</ele>
        <time>2018-09-16T12:29:44Z</time>
      </trkpt>
      <trkpt lat="40.251817" lon="-4.895517">
        <ele>1275.0</ele>
        <time>2018-09-16T12:29:45Z</time>
      </trkpt>
      <trkpt lat="40.251850" lon="-4.895600">
        <ele>1276.0</ele>
        <time>2018-09-16T12:29:46Z</time>
      </trkpt>
      <trkpt lat="40.251933" lon="-4.895667">
        <ele>1277.0</ele>
        <time>2018-09-16T12:29:47Z</time>
      </trkpt>
      <trkpt lat="40.252033" lon="-4.895700">
        <ele>1279.0</ele>
        <time>2018-09-16T12:29:48Z</time>
      </trkpt>
      <trkpt lat="40.252150" lon="-4.895683">
        <ele>1279.0</ele>
        <time>2018-09-16T12:29:49Z</time>
      </trkpt>
      <trkpt lat="40.252283" lon="-4.895633">
        <ele>1280.0</ele>
        <time>2018-09-16T12:29:50Z</time>
      </trkpt>
      <trkpt lat="40.252383" lon="-4.895533">
        <ele>1281.0</ele>
        <time>2018-09-16T12:29:51Z</time>
      </trkpt>
      <trkpt lat="40.252467" lon="-4.895417">
        <ele>1282.0</ele>
        <time>2018-09-16T12:29:52Z</time>
      </trkpt>
      <trkpt lat="40.252533" lon="-4.895267">
        <ele>1283.0</ele>
        <time>2018-09-16T12:29:53Z</time>
      </trkpt>
      <trkpt lat="40.252583" lon="-4.895133">
        <ele>1285.0</ele>
        <time>2018-09-16T12:29:54Z</time>
      </trkpt>
      <trkpt lat="40.252617" lon="-4.895017">
        <ele>1287.0</ele>
        <time>2018-09-16T12:29:55Z</time>
      </trkpt>
      <trkpt lat="40.252650" lon="-4.894933">
        <ele>1289.0</ele>
        <time>2018-09-16T12:29:56Z</time>
      </trkpt>
      <trkpt lat="40.252683" lon="-4.894833">
        <ele>1286.0</ele>
        <time>2018-09-16T12:29:57Z</time>
      </trkpt>
      <trkpt lat="40.252717" lon="-4.894733">
        <ele>1286.0</ele>
        <time>2018-09-16T12:29:58Z</time>
      </trkpt>
      <trkpt lat="40.252733" lon="-4.894583">
        <ele>1286.0</ele>
        <time>2018-09-16T12:29:59Z</time>
      </trkpt>
      <trkpt lat="40.252733" lon="-4.894467">
        <ele>1286.0</ele>
        <time>2018-09-16T12:30:00Z</time>
      </trkpt>
      <trkpt lat="40.252700" lon="-4.894383">
        <ele>1286.0</ele>
        <time>2018-09-16T12:30:01Z</time>
      </trkpt>
      <trkpt lat="40.252650" lon="-4.894367">
        <ele>1286.0</ele>
        <time>2018-09-16T12:30:02Z</time>
      </trkpt>
      <trkpt lat="40.252650" lon="-4.894433">
        <ele>1285.0</ele>
        <time>2018-09-16T12:30:03Z</time>
      </trkpt>
      <trkpt lat="40.252633" lon="-4.894533">
        <ele>1283.0</ele>
        <time>2018-09-16T12:30:04Z</time>
      </trkpt>
      <trkpt lat="40.252617" lon="-4.894617">
        <ele>1285.0</ele>
        <time>2018-09-16T12:30:05Z</time>
      </trkpt>
      <trkpt lat="40.252600" lon="-4.894633">
        <ele>1284.0</ele>
        <time>2018-09-16T12:30:06Z</time>
      </trkpt>
      <trkpt lat="40.252567" lon="-4.894633">
        <ele>1283.0</ele>
        <time>2018-09-16T12:30:07Z</time>
      </trkpt>
      <trkpt lat="40.252517" lon="-4.894633">
        <ele>1282.0</ele>
        <time>2018-09-16T12:30:08Z</time>
      </trkpt>
      <trkpt lat="40.252467" lon="-4.894667">
        <ele>1281.0</ele>
        <time>2018-09-16T12:30:09Z</time>
      </trkpt>
      <trkpt lat="40.252433" lon="-4.894717">
        <ele>1280.0</ele>
        <time>2018-09-16T12:30:10Z</time>
      </trkpt>
      <trkpt lat="40.252400" lon="-4.894767">
        <ele>1278.0</ele>
        <time>2018-09-16T12:30:11Z</time>
      </trkpt>
      <trkpt lat="40.252383" lon="-4.894800">
        <ele>1277.0</ele>
        <time>2018-09-16T12:30:12Z</time>
      </trkpt>
      <trkpt lat="40.252350" lon="-4.894817">
        <ele>1277.0</ele>
        <time>2018-09-16T12:30:13Z</time>
      </trkpt>
      <trkpt lat="40.252317" lon="-4.894817">
        <ele>1275.0</ele>
        <time>2018-09-16T12:30:14Z</time>
      </trkpt>
      <trkpt lat="40.252267" lon="-4.894833">
        <ele>1274.0</ele>
        <time>2018-09-16T12:30:15Z</time>
      </trkpt>
      <trkpt lat="40.252233" lon="-4.894850">
        <ele>1274.0</ele>
        <time>2018-09-16T12:30:16Z</time>
      </trkpt>
      <trkpt lat="40.252183" lon="-4.894883">
        <ele>1273.0</ele>
        <time>2018-09-16T12:30:17Z</time>
      </trkpt>
      <trkpt lat="40.252150" lon="-4.894917">
        <ele>1272.0</ele>
        <time>2018-09-16T12:30:18Z</time>
      </trkpt>
      <trkpt lat="40.252117" lon="-4.894950">
        <ele>1274.0</ele>
        <time>2018-09-16T12:30:19Z</time>
      </trkpt>
      <trkpt lat="40.252083" lon="-4.894950">
        <ele>1273.0</ele>
        <time>2018-09-16T12:30:20Z</time>
      </trkpt>
      <trkpt lat="40.252033" lon="-4.894950">
        <ele>1273.0</ele>
        <time>2018-09-16T12:30:21Z</time>
      </trkpt>
      <trkpt lat="40.251983" lon="-4.894933">
        <ele>1273.0</ele>
        <time>2018-09-16T12:30:22Z</time>
      </trkpt>
      <trkpt lat="40.251950" lon="-4.894933">
        <ele>1273.0</ele>
        <time>2018-09-16T12:30:23Z</time>
      </trkpt>
      <trkpt lat="40.251917" lon="-4.894967">
        <ele>1273.0</ele>
        <time>2018-09-16T12:30:24Z</time>
      </trkpt>
      <trkpt lat="40.251900" lon="-4.895017">
        <ele>1273.0</ele>
        <time>2018-09-16T12:30:25Z</time>
      </trkpt>
      <trkpt lat="40.251867" lon="-4.895050">
        <ele>1273.0</ele>
        <time>2018-09-16T12:30:26Z</time>
      </trkpt>
      <trkpt lat="40.251850" lon="-4.895067">
        <ele>1274.0</ele>
        <time>2018-09-16T12:30:27Z</time>
      </trkpt>
      <trkpt lat="40.251833" lon="-4.895083">
        <ele>1276.0</ele>
        <time>2018-09-16T12:30:28Z</time>
      </trkpt>
      <trkpt lat="40.251817" lon="-4.895100">
        <ele>1277.0</ele>
        <time>2018-09-16T12:30:29Z</time>
      </trkpt>
      <trkpt lat="40.251800" lon="-4.895117">
        <ele>1277.0</ele>
        <time>2018-09-16T12:30:30Z</time>
      </trkpt>
      <trkpt lat="40.251800" lon="-4.895150">
        <ele>1276.0</ele>
        <time>2018-09-16T12:30:31Z</time>
      </trkpt>
      <trkpt lat="40.251767" lon="-4.895183">
        <ele>1274.0</ele>
        <time>2018-09-16T12:30:32Z</time>
      </trkpt>
      <trkpt lat="40.251750" lon="-4.895217">
        <ele>1273.0</ele>
        <time>2018-09-16T12:30:33Z</time>
      </trkpt>
      <trkpt lat="40.251717" lon="-4.895250">
        <ele>1273.0</ele>
        <time>2018-09-16T12:30:34Z</time>
      </trkpt>
      <trkpt lat="40.251700" lon="-4.895267">
        <ele>1273.0</ele>
        <time>2018-09-16T12:30:35Z</time>
      </trkpt>
      <trkpt lat="40.251667" lon="-4.895317">
        <ele>1272.0</ele>
        <time>2018-09-16T12:30:36Z</time>
      </trkpt>
      <trkpt lat="40.251633" lon="-4.895383">
        <ele>1272.0</ele>
        <time>2018-09-16T12:30:37Z</time>
      </trkpt>
      <trkpt lat="40.251583" lon="-4.895450">
        <ele>1271.0</ele>
        <time>2018-09-16T12:30:38Z</time>
      </trkpt>
      <trkpt lat="40.251550" lon="-4.895500">
        <ele>1271.0</ele>
        <time>2018-09-16T12:30:39Z</time>
      </trkpt>
      <trkpt lat="40.251517" lon="-4.895517">
        <ele>1272.0</ele>
        <time>2018-09-16T12:30:40Z</time>
      </trkpt>
      <trkpt lat="40.251483" lon="-4.895533">
        <ele>1273.0</ele>
        <time>2018-09-16T12:30:41Z</time>
      </trkpt>
      <trkpt lat="40.251433" lon="-4.895550">
        <ele>1273.0</ele>
        <time>2018-09-16T12:30:42Z</time>
      </trkpt>
      <trkpt lat="40.251383" lon="-4.895583">
        <ele>1273.0</ele>
        <time>2018-09-16T12:30:43Z</time>
      </trkpt>
      <trkpt lat="40.251333" lon="-4.895617">
        <ele>1273.0</ele>
        <time>2018-09-16T12:30:44Z</time>
      </trkpt>
      <trkpt lat="40.251283" lon="-4.895667">
        <ele>1273.0</ele>
        <time>2018-09-16T12:30:45Z</time>
      </trkpt>
      <trkpt lat="40.251233" lon="-4.895717">
        <ele>1274.0</ele>
        <time>2018-09-16T12:30:46Z</time>
      </trkpt>
      <trkpt lat="40.251200" lon="-4.895767">
        <ele>1274.0</ele>
        <time>2018-09-16T12:30:47Z</time>
      </trkpt>
      <trkpt lat="40.251183" lon="-4.895850">
        <ele>1273.0</ele>
        <time>2018-09-16T12:30:48Z</time>
      </trkpt>
      <trkpt lat="40.251150" lon="-4.895933">
        <ele>1273.0</ele>
        <time>2018-09-16T12:30:49Z</time>
      </trkpt>
      <trkpt lat="40.251133" lon="-4.896017">
        <ele>1271.0</ele>
        <time>2018-09-16T12:30:50Z</time>
      </trkpt>
      <trkpt lat="40.251100" lon="-4.896100">
        <ele>1271.0</ele>
        <time>2018-09-16T12:30:51Z</time>
      </trkpt>
      <trkpt lat="40.251067" lon="-4.896183">
        <ele>1270.0</ele>
        <time>2018-09-16T12:30:52Z</time>
      </trkpt>
      <trkpt lat="40.251033" lon="-4.896250">
        <ele>1269.0</ele>
        <time>2018-09-16T12:30:53Z</time>
      </trkpt>
      <trkpt lat="40.251000" lon="-4.896317">
        <ele>1269.0</ele>
        <time>2018-09-16T12:30:54Z</time>
      </trkpt>
      <trkpt lat="40.250967" lon="-4.896383">
        <ele>1268.0</ele>
        <time>2018-09-16T12:30:55Z</time>
      </trkpt>
      <trkpt lat="40.250933" lon="-4.896433">
        <ele>1268.0</ele>
        <time>2018-09-16T12:30:56Z</time>
      </trkpt>
      <trkpt lat="40.250900" lon="-4.896500">
        <ele>1267.0</ele>
        <time>2018-09-16T12:30:57Z</time>
      </trkpt>
      <trkpt lat="40.250850" lon="-4.896567">
        <ele>1265.0</ele>
        <time>2018-09-16T12:30:58Z</time>
      </trkpt>
      <trkpt lat="40.250817" lon="-4.896633">
        <ele>1265.0</ele>
        <time>2018-09-16T12:30:59Z</time>
      </trkpt>
      <trkpt lat="40.250800" lon="-4.896683">
        <ele>1265.0</ele>
        <time>2018-09-16T12:31:00Z</time>
      </trkpt>
      <trkpt lat="40.250783" lon="-4.896750">
        <ele>1266.0</ele>
        <time>2018-09-16T12:31:01Z</time>
      </trkpt>
      <trkpt lat="40.250783" lon="-4.896800">
        <ele>1266.0</ele>
        <time>2018-09-16T12:31:02Z</time>
      </trkpt>
      <trkpt lat="40.250783" lon="-4.896867">
        <ele>1267.0</ele>
        <time>2018-09-16T12:31:03Z</time>
      </trkpt>
      <trkpt lat="40.250783" lon="-4.896950">
        <ele>1267.0</ele>
        <time>2018-09-16T12:31:04Z</time>
      </trkpt>
      <trkpt lat="40.250767" lon="-4.897017">
        <ele>1265.0</ele>
        <time>2018-09-16T12:31:05Z</time>
      </trkpt>
      <trkpt lat="40.250750" lon="-4.897083">
        <ele>1264.0</ele>
        <time>2018-09-16T12:31:06Z</time>
      </trkpt>
      <trkpt lat="40.250717" lon="-4.897133">
        <ele>1262.0</ele>
        <time>2018-09-16T12:31:07Z</time>
      </trkpt>
      <trkpt lat="40.250667" lon="-4.897167">
        <ele>1262.0</ele>
        <time>2018-09-16T12:31:08Z</time>
      </trkpt>
      <trkpt lat="40.250633" lon="-4.897200">
        <ele>1262.0</ele>
        <time>2018-09-16T12:31:09Z</time>
      </trkpt>
      <trkpt lat="40.250600" lon="-4.897250">
        <ele>1262.0</ele>
        <time>2018-09-16T12:31:10Z</time>
      </trkpt>
      <trkpt lat="40.250567" lon="-4.897300">
        <ele>1261.0</ele>
        <time>2018-09-16T12:31:11Z</time>
      </trkpt>
      <trkpt lat="40.250533" lon="-4.897350">
        <ele>1260.0</ele>
        <time>2018-09-16T12:31:12Z</time>
      </trkpt>
      <trkpt lat="40.250483" lon="-4.897417">
        <ele>1260.0</ele>
        <time>2018-09-16T12:31:13Z</time>
      </trkpt>
      <trkpt lat="40.250450" lon="-4.897500">
        <ele>1258.0</ele>
        <time>2018-09-16T12:31:14Z</time>
      </trkpt>
      <trkpt lat="40.250400" lon="-4.897567">
        <ele>1256.0</ele>
        <time>2018-09-16T12:31:15Z</time>
      </trkpt>
      <trkpt lat="40.250333" lon="-4.897617">
        <ele>1256.0</ele>
        <time>2018-09-16T12:31:16Z</time>
      </trkpt>
      <trkpt lat="40.250283" lon="-4.897633">
        <ele>1256.0</ele>
        <time>2018-09-16T12:31:17Z</time>
      </trkpt>
      <trkpt lat="40.250217" lon="-4.897650">
        <ele>1257.0</ele>
        <time>2018-09-16T12:31:18Z</time>
      </trkpt>
      <trkpt lat="40.250183" lon="-4.897683">
        <ele>1258.0</ele>
        <time>2018-09-16T12:31:19Z</time>
      </trkpt>
      <trkpt lat="40.250133" lon="-4.897700">
        <ele>1258.0</ele>
        <time>2018-09-16T12:31:20Z</time>
      </trkpt>
      <trkpt lat="40.250100" lon="-4.897733">
        <ele>1259.0</ele>
        <time>2018-09-16T12:31:21Z</time>
      </trkpt>
      <trkpt lat="40.250033" lon="-4.897783">
        <ele>1259.0</ele>
        <time>2018-09-16T12:31:22Z</time>
      </trkpt>
      <trkpt lat="40.249983" lon="-4.897817">
        <ele>1259.0</ele>
        <time>2018-09-16T12:31:23Z</time>
      </trkpt>
      <trkpt lat="40.249917" lon="-4.897867">
        <ele>1259.0</ele>
        <time>2018-09-16T12:31:24Z</time>
      </trkpt>
      <trkpt lat="40.249867" lon="-4.897883">
        <ele>1259.0</ele>
        <time>2018-09-16T12:31:25Z</time>
      </trkpt>
      <trkpt lat="40.249817" lon="-4.897933">
        <ele>1260.0</ele>
        <time>2018-09-16T12:31:26Z</time>
      </trkpt>
      <trkpt lat="40.249783" lon="-4.897983">
        <ele>1262.0</ele>
        <time>2018-09-16T12:31:27Z</time>
      </trkpt>
      <trkpt lat="40.249750" lon="-4.898017">
        <ele>1265.0</ele>
        <time>2018-09-16T12:31:28Z</time>
      </trkpt>
      <trkpt lat="40.249700" lon="-4.898050">
        <ele>1266.0</ele>
        <time>2018-09-16T12:31:29Z</time>
      </trkpt>
      <trkpt lat="40.249650" lon="-4.898083">
        <ele>1267.0</ele>
        <time>2018-09-16T12:31:30Z</time>
      </trkpt>
      <trkpt lat="40.249600" lon="-4.898133">
        <ele>1268.0</ele>
        <time>2018-09-16T12:31:31Z</time>
      </trkpt>
      <trkpt lat="40.249533" lon="-4.898183">
        <ele>1269.0</ele>
        <time>2018-09-16T12:31:32Z</time>
      </trkpt>
      <trkpt lat="40.249483" lon="-4.898233">
        <ele>1273.0</ele>
        <time>2018-09-16T12:31:33Z</time>
      </trkpt>
      <trkpt lat="40.249450" lon="-4.898250">
        <ele>1276.0</ele>
        <time>2018-09-16T12:31:34Z</time>
      </trkpt>
      <trkpt lat="40.249400" lon="-4.898267">
        <ele>1278.0</ele>
        <time>2018-09-16T12:31:35Z</time>
      </trkpt>
      <trkpt lat="40.249367" lon="-4.898283">
        <ele>1279.0</ele>
        <time>2018-09-16T12:31:36Z</time>
      </trkpt>
      <trkpt lat="40.249300" lon="-4.898300">
        <ele>1278.0</ele>
        <time>2018-09-16T12:31:37Z</time>
      </trkpt>
      <trkpt lat="40.249200" lon="-4.898283">
        <ele>1278.0</ele>
        <time>2018-09-16T12:31:38Z</time>
      </trkpt>
      <trkpt lat="40.249100" lon="-4.898233">
        <ele>1276.0</ele>
        <time>2018-09-16T12:31:39Z</time>
      </trkpt>
      <trkpt lat="40.249017" lon="-4.898117">
        <ele>1274.0</ele>
        <time>2018-09-16T12:31:40Z</time>
      </trkpt>
      <trkpt lat="40.248983" lon="-4.897983">
        <ele>1271.0</ele>
        <time>2018-09-16T12:31:41Z</time>
      </trkpt>
      <trkpt lat="40.248983" lon="-4.897833">
        <ele>1269.0</ele>
        <time>2018-09-16T12:31:42Z</time>
      </trkpt>
      <trkpt lat="40.249050" lon="-4.897700">
        <ele>1265.0</ele>
        <time>2018-09-16T12:31:43Z</time>
      </trkpt>
      <trkpt lat="40.249167" lon="-4.897633">
        <ele>1260.0</ele>
        <time>2018-09-16T12:31:44Z</time>
      </trkpt>
      <trkpt lat="40.249300" lon="-4.897617">
        <ele>1255.0</ele>
        <time>2018-09-16T12:31:45Z</time>
      </trkpt>
      <trkpt lat="40.249400" lon="-4.897700">
        <ele>1250.0</ele>
        <time>2018-09-16T12:31:46Z</time>
      </trkpt>
      <trkpt lat="40.249467" lon="-4.897817">
        <ele>1246.0</ele>
        <time>2018-09-16T12:31:47Z</time>
      </trkpt>
      <trkpt lat="40.249483" lon="-4.897950">
        <ele>1242.0</ele>
        <time>2018-09-16T12:31:48Z</time>
      </trkpt>
      <trkpt lat="40.249500" lon="-4.898050">
        <ele>1241.0</ele>
        <time>2018-09-16T12:31:49Z</time>
      </trkpt>
      <trkpt lat="40.249500" lon="-4.898133">
        <ele>1242.0</ele>
        <time>2018-09-16T12:31:50Z</time>
      </trkpt>
      <trkpt lat="40.249500" lon="-4.898183">
        <ele>1242.0</ele>
        <time>2018-09-16T12:31:51Z</time>
      </trkpt>
      <trkpt lat="40.249517" lon="-4.898233">
        <ele>1242.0</ele>
        <time>2018-09-16T12:31:52Z</time>
      </trkpt>
      <trkpt lat="40.249517" lon="-4.898300">
        <ele>1242.0</ele>
        <time>2018-09-16T12:31:53Z</time>
      </trkpt>
      <trkpt lat="40.249517" lon="-4.898400">
        <ele>1241.0</ele>
        <time>2018-09-16T12:31:54Z</time>
      </trkpt>
      <trkpt lat="40.249483" lon="-4.898500">
        <ele>1240.0</ele>
        <time>2018-09-16T12:31:55Z</time>
      </trkpt>
      <trkpt lat="40.249467" lon="-4.898583">
        <ele>1240.0</ele>
        <time>2018-09-16T12:31:56Z</time>
      </trkpt>
      <trkpt lat="40.249433" lon="-4.898650">
        <ele>1241.0</ele>
        <time>2018-09-16T12:31:57Z</time>
      </trkpt>
      <trkpt lat="40.249433" lon="-4.898733">
        <ele>1241.0</ele>
        <time>2018-09-16T12:31:58Z</time>
      </trkpt>
      <trkpt lat="40.249417" lon="-4.898783">
        <ele>1241.0</ele>
        <time>2018-09-16T12:31:59Z</time>
      </trkpt>
      <trkpt lat="40.249400" lon="-4.898867">
        <ele>1240.0</ele>
        <time>2018-09-16T12:32:00Z</time>
      </trkpt>
      <trkpt lat="40.249383" lon="-4.898950">
        <ele>1239.0</ele>
        <time>2018-09-16T12:32:01Z</time>
      </trkpt>
      <trkpt lat="40.249350" lon="-4.899017">
        <ele>1237.0</ele>
        <time>2018-09-16T12:32:02Z</time>
      </trkpt>
      <trkpt lat="40.249317" lon="-4.899100">
        <ele>1236.0</ele>
        <time>2018-09-16T12:32:03Z</time>
      </trkpt>
      <trkpt lat="40.249300" lon="-4.899183">
        <ele>1233.0</ele>
        <time>2018-09-16T12:32:04Z</time>
      </trkpt>
      <trkpt lat="40.249283" lon="-4.899267">
        <ele>1231.0</ele>
        <time>2018-09-16T12:32:05Z</time>
      </trkpt>
      <trkpt lat="40.249250" lon="-4.899333">
        <ele>1230.0</ele>
        <time>2018-09-16T12:32:06Z</time>
      </trkpt>
      <trkpt lat="40.249200" lon="-4.899400">
        <ele>1227.0</ele>
        <time>2018-09-16T12:32:07Z</time>
      </trkpt>
      <trkpt lat="40.249150" lon="-4.899433">
        <ele>1225.0</ele>
        <time>2018-09-16T12:32:08Z</time>
      </trkpt>
      <trkpt lat="40.249100" lon="-4.899467">
        <ele>1224.0</ele>
        <time>2018-09-16T12:32:09Z</time>
      </trkpt>
      <trkpt lat="40.249050" lon="-4.899500">
        <ele>1224.0</ele>
        <time>2018-09-16T12:32:10Z</time>
      </trkpt>
      <trkpt lat="40.249017" lon="-4.899550">
        <ele>1223.0</ele>
        <time>2018-09-16T12:32:11Z</time>
      </trkpt>
      <trkpt lat="40.248967" lon="-4.899617">
        <ele>1222.0</ele>
        <time>2018-09-16T12:32:12Z</time>
      </trkpt>
      <trkpt lat="40.248933" lon="-4.899683">
        <ele>1222.0</ele>
        <time>2018-09-16T12:32:13Z</time>
      </trkpt>
      <trkpt lat="40.248900" lon="-4.899733">
        <ele>1222.0</ele>
        <time>2018-09-16T12:32:14Z</time>
      </trkpt>
      <trkpt lat="40.248867" lon="-4.899783">
        <ele>1222.0</ele>
        <time>2018-09-16T12:32:15Z</time>
      </trkpt>
      <trkpt lat="40.248833" lon="-4.899850">
        <ele>1222.0</ele>
        <time>2018-09-16T12:32:16Z</time>
      </trkpt>
      <trkpt lat="40.248783" lon="-4.899917">
        <ele>1222.0</ele>
        <time>2018-09-16T12:32:17Z</time>
      </trkpt>
      <trkpt lat="40.248750" lon="-4.899983">
        <ele>1221.0</ele>
        <time>2018-09-16T12:32:18Z</time>
      </trkpt>
      <trkpt lat="40.248717" lon="-4.900050">
        <ele>1219.0</ele>
        <time>2018-09-16T12:32:19Z</time>
      </trkpt>
      <trkpt lat="40.248667" lon="-4.900117">
        <ele>1218.0</ele>
        <time>2018-09-16T12:32:20Z</time>
      </trkpt>
      <trkpt lat="40.248617" lon="-4.900167">
        <ele>1217.0</ele>
        <time>2018-09-16T12:32:21Z</time>
      </trkpt>
      <trkpt lat="40.248583" lon="-4.900233">
        <ele>1216.0</ele>
        <time>2018-09-16T12:32:22Z</time>
      </trkpt>
      <trkpt lat="40.248533" lon="-4.900283">
        <ele>1216.0</ele>
        <time>2018-09-16T12:32:23Z</time>
      </trkpt>
      <trkpt lat="40.248500" lon="-4.900350">
        <ele>1215.0</ele>
        <time>2018-09-16T12:32:24Z</time>
      </trkpt>
      <trkpt lat="40.248450" lon="-4.900417">
        <ele>1214.0</ele>
        <time>2018-09-16T12:32:25Z</time>
      </trkpt>
      <trkpt lat="40.248417" lon="-4.900500">
        <ele>1214.0</ele>
        <time>2018-09-16T12:32:26Z</time>
      </trkpt>
      <trkpt lat="40.248367" lon="-4.900567">
        <ele>1213.0</ele>
        <time>2018-09-16T12:32:27Z</time>
      </trkpt>
      <trkpt lat="40.248317" lon="-4.900650">
        <ele>1213.0</ele>
        <time>2018-09-16T12:32:28Z</time>
      </trkpt>
      <trkpt lat="40.248283" lon="-4.900717">
        <ele>1213.0</ele>
        <time>2018-09-16T12:32:29Z</time>
      </trkpt>
      <trkpt lat="40.248233" lon="-4.900767">
        <ele>1212.0</ele>
        <time>2018-09-16T12:32:30Z</time>
      </trkpt>
      <trkpt lat="40.248200" lon="-4.900833">
        <ele>1211.0</ele>
        <time>2018-09-16T12:32:31Z</time>
      </trkpt>
      <trkpt lat="40.248183" lon="-4.900917">
        <ele>1210.0</ele>
        <time>2018-09-16T12:32:32Z</time>
      </trkpt>
      <trkpt lat="40.248150" lon="-4.901000">
        <ele>1206.0</ele>
        <time>2018-09-16T12:32:33Z</time>
      </trkpt>
      <trkpt lat="40.248100" lon="-4.901083">
        <ele>1204.0</ele>
        <time>2018-09-16T12:32:34Z</time>
      </trkpt>
      <trkpt lat="40.248033" lon="-4.901167">
        <ele>1202.0</ele>
        <time>2018-09-16T12:32:35Z</time>
      </trkpt>
      <trkpt lat="40.247967" lon="-4.901267">
        <ele>1201.0</ele>
        <time>2018-09-16T12:32:36Z</time>
      </trkpt>
      <trkpt lat="40.247917" lon="-4.901333">
        <ele>1200.0</ele>
        <time>2018-09-16T12:32:37Z</time>
      </trkpt>
      <trkpt lat="40.247900" lon="-4.901417">
        <ele>1205.0</ele>
        <time>2018-09-16T12:32:38Z</time>
      </trkpt>
      <trkpt lat="40.247883" lon="-4.901500">
        <ele>1206.0</ele>
        <time>2018-09-16T12:32:39Z</time>
      </trkpt>
      <trkpt lat="40.247883" lon="-4.901583">
        <ele>1207.0</ele>
        <time>2018-09-16T12:32:40Z</time>
      </trkpt>
      <trkpt lat="40.247850" lon="-4.901667">
        <ele>1208.0</ele>
        <time>2018-09-16T12:32:41Z</time>
      </trkpt>
      <trkpt lat="40.247833" lon="-4.901783">
        <ele>1209.0</ele>
        <time>2018-09-16T12:32:42Z</time>
      </trkpt>
      <trkpt lat="40.247850" lon="-4.901850">
        <ele>1213.0</ele>
        <time>2018-09-16T12:32:43Z</time>
      </trkpt>
      <trkpt lat="40.247833" lon="-4.901900">
        <ele>1220.0</ele>
        <time>2018-09-16T12:32:44Z</time>
      </trkpt>
      <trkpt lat="40.247833" lon="-4.901950">
        <ele>1222.0</ele>
        <time>2018-09-16T12:32:45Z</time>
      </trkpt>
      <trkpt lat="40.247800" lon="-4.901983">
        <ele>1224.0</ele>
        <time>2018-09-16T12:32:46Z</time>
      </trkpt>
      <trkpt lat="40.247750" lon="-4.902017">
        <ele>1225.0</ele>
        <time>2018-09-16T12:32:47Z</time>
      </trkpt>
      <trkpt lat="40.247733" lon="-4.902067">
        <ele>1226.0</ele>
        <time>2018-09-16T12:32:48Z</time>
      </trkpt>
      <trkpt lat="40.247717" lon="-4.902150">
        <ele>1227.0</ele>
        <time>2018-09-16T12:32:49Z</time>
      </trkpt>
      <trkpt lat="40.247717" lon="-4.902250">
        <ele>1229.0</ele>
        <time>2018-09-16T12:32:50Z</time>
      </trkpt>
      <trkpt lat="40.247733" lon="-4.902333">
        <ele>1230.0</ele>
        <time>2018-09-16T12:32:51Z</time>
      </trkpt>
      <trkpt lat="40.247800" lon="-4.902417">
        <ele>1229.0</ele>
        <time>2018-09-16T12:32:52Z</time>
      </trkpt>
      <trkpt lat="40.247883" lon="-4.902433">
        <ele>1229.0</ele>
        <time>2018-09-16T12:32:53Z</time>
      </trkpt>
      <trkpt lat="40.248000" lon="-4.902400">
        <ele>1229.0</ele>
        <time>2018-09-16T12:32:54Z</time>
      </trkpt>
      <trkpt lat="40.248083" lon="-4.902317">
        <ele>1229.0</ele>
        <time>2018-09-16T12:32:55Z</time>
      </trkpt>
      <trkpt lat="40.248117" lon="-4.902200">
        <ele>1228.0</ele>
        <time>2018-09-16T12:32:56Z</time>
      </trkpt>
      <trkpt lat="40.248133" lon="-4.902067">
        <ele>1228.0</ele>
        <time>2018-09-16T12:32:57Z</time>
      </trkpt>
      <trkpt lat="40.248100" lon="-4.901967">
        <ele>1228.0</ele>
        <time>2018-09-16T12:32:58Z</time>
      </trkpt>
      <trkpt lat="40.248050" lon="-4.901900">
        <ele>1227.0</ele>
        <time>2018-09-16T12:32:59Z</time>
      </trkpt>
      <trkpt lat="40.247983" lon="-4.901867">
        <ele>1227.0</ele>
        <time>2018-09-16T12:33:00Z</time>
      </trkpt>
      <trkpt lat="40.247933" lon="-4.901817">
        <ele>1227.0</ele>
        <time>2018-09-16T12:33:01Z</time>
      </trkpt>
      <trkpt lat="40.247900" lon="-4.901783">
        <ele>1227.0</ele>
        <time>2018-09-16T12:33:02Z</time>
      </trkpt>
      <trkpt lat="40.247850" lon="-4.901733">
        <ele>1227.0</ele>
        <time>2018-09-16T12:33:03Z</time>
      </trkpt>
      <trkpt lat="40.247817" lon="-4.901700">
        <ele>1228.0</ele>
        <time>2018-09-16T12:33:04Z</time>
      </trkpt>
      <trkpt lat="40.247767" lon="-4.901717">
        <ele>1228.0</ele>
        <time>2018-09-16T12:33:05Z</time>
      </trkpt>
      <trkpt lat="40.247717" lon="-4.901733">
        <ele>1228.0</ele>
        <time>2018-09-16T12:33:06Z</time>
      </trkpt>
      <trkpt lat="40.247683" lon="-4.901767">
        <ele>1229.0</ele>
        <time>2018-09-16T12:33:07Z</time>
      </trkpt>
      <trkpt lat="40.247633" lon="-4.901800">
        <ele>1232.0</ele>
        <time>2018-09-16T12:33:08Z</time>
      </trkpt>
      <trkpt lat="40.247600" lon="-4.901833">
        <ele>1238.0</ele>
        <time>2018-09-16T12:33:09Z</time>
      </trkpt>
      <trkpt lat="40.247550" lon="-4.901850">
        <ele>1242.0</ele>
        <time>2018-09-16T12:33:10Z</time>
      </trkpt>
      <trkpt lat="40.247517" lon="-4.901867">
        <ele>1245.0</ele>
        <time>2018-09-16T12:33:11Z</time>
      </trkpt>
      <trkpt lat="40.247483" lon="-4.901867">
        <ele>1248.0</ele>
        <time>2018-09-16T12:33:12Z</time>
      </trkpt>
      <trkpt lat="40.247450" lon="-4.901867">
        <ele>1250.0</ele>
        <time>2018-09-16T12:33:13Z</time>
      </trkpt>
      <trkpt lat="40.247400" lon="-4.901867">
        <ele>1252.0</ele>
        <time>2018-09-16T12:33:14Z</time>
      </trkpt>
      <trkpt lat="40.247383" lon="-4.901917">
        <ele>1255.0</ele>
        <time>2018-09-16T12:33:15Z</time>
      </trkpt>
      <trkpt lat="40.247367" lon="-4.902000">
        <ele>1256.0</ele>
        <time>2018-09-16T12:33:16Z</time>
      </trkpt>
      <trkpt lat="40.247383" lon="-4.902133">
        <ele>1257.0</ele>
        <time>2018-09-16T12:33:17Z</time>
      </trkpt>
      <trkpt lat="40.247450" lon="-4.902267">
        <ele>1258.0</ele>
        <time>2018-09-16T12:33:18Z</time>
      </trkpt>
      <trkpt lat="40.247550" lon="-4.902350">
        <ele>1260.0</ele>
        <time>2018-09-16T12:33:19Z</time>
      </trkpt>
      <trkpt lat="40.247667" lon="-4.902350">
        <ele>1261.0</ele>
        <time>2018-09-16T12:33:20Z</time>
      </trkpt>
      <trkpt lat="40.247767" lon="-4.902300">
        <ele>1263.0</ele>
        <time>2018-09-16T12:33:21Z</time>
      </trkpt>
      <trkpt lat="40.247833" lon="-4.902217">
        <ele>1264.0</ele>
        <time>2018-09-16T12:33:22Z</time>
      </trkpt>
      <trkpt lat="40.247867" lon="-4.902100">
        <ele>1265.0</ele>
        <time>2018-09-16T12:33:23Z</time>
      </trkpt>
      <trkpt lat="40.247867" lon="-4.902017">
        <ele>1266.0</ele>
        <time>2018-09-16T12:33:24Z</time>
      </trkpt>
      <trkpt lat="40.247817" lon="-4.901950">
        <ele>1268.0</ele>
        <time>2018-09-16T12:33:25Z</time>
      </trkpt>
      <trkpt lat="40.247783" lon="-4.901950">
        <ele>1269.0</ele>
        <time>2018-09-16T12:33:26Z</time>
      </trkpt>
      <trkpt lat="40.247733" lon="-4.902017">
        <ele>1269.0</ele>
        <time>2018-09-16T12:33:27Z</time>
      </trkpt>
      <trkpt lat="40.247700" lon="-4.902117">
        <ele>1269.0</ele>
        <time>2018-09-16T12:33:28Z</time>
      </trkpt>
      <trkpt lat="40.247717" lon="-4.902233">
        <ele>1271.0</ele>
        <time>2018-09-16T12:33:29Z</time>
      </trkpt>
      <trkpt lat="40.247750" lon="-4.902317">
        <ele>1272.0</ele>
        <time>2018-09-16T12:33:30Z</time>
      </trkpt>
      <trkpt lat="40.247833" lon="-4.902383">
        <ele>1273.0</ele>
        <time>2018-09-16T12:33:31Z</time>
      </trkpt>
      <trkpt lat="40.247917" lon="-4.902400">
        <ele>1274.0</ele>
        <time>2018-09-16T12:33:32Z</time>
      </trkpt>
      <trkpt lat="40.248017" lon="-4.902350">
        <ele>1271.0</ele>
        <time>2018-09-16T12:33:33Z</time>
      </trkpt>
      <trkpt lat="40.248100" lon="-4.902267">
        <ele>1271.0</ele>
        <time>2018-09-16T12:33:34Z</time>
      </trkpt>
      <trkpt lat="40.248150" lon="-4.902167">
        <ele>1272.0</ele>
        <time>2018-09-16T12:33:35Z</time>
      </trkpt>
      <trkpt lat="40.248150" lon="-4.902033">
        <ele>1273.0</ele>
        <time>2018-09-16T12:33:36Z</time>
      </trkpt>
      <trkpt lat="40.248100" lon="-4.901933">
        <ele>1273.0</ele>
        <time>2018-09-16T12:33:37Z</time>
      </trkpt>
      <trkpt lat="40.248033" lon="-4.901850">
        <ele>1272.0</ele>
        <time>2018-09-16T12:33:38Z</time>
      </trkpt>
      <trkpt lat="40.247950" lon="-4.901817">
        <ele>1273.0</ele>
        <time>2018-09-16T12:33:39Z</time>
      </trkpt>
      <trkpt lat="40.247867" lon="-4.901800">
        <ele>1273.0</ele>
        <time>2018-09-16T12:33:40Z</time>
      </trkpt>
      <trkpt lat="40.247800" lon="-4.901800">
        <ele>1272.0</ele>
        <time>2018-09-16T12:33:41Z</time>
      </trkpt>
      <trkpt lat="40.247750" lon="-4.901817">
        <ele>1273.0</ele>
        <time>2018-09-16T12:33:42Z</time>
      </trkpt>
      <trkpt lat="40.247683" lon="-4.901850">
        <ele>1273.0</ele>
        <time>2018-09-16T12:33:43Z</time>
      </trkpt>
      <trkpt lat="40.247650" lon="-4.901867">
        <ele>1273.0</ele>
        <time>2018-09-16T12:33:44Z</time>
      </trkpt>
      <trkpt lat="40.247583" lon="-4.901850">
        <ele>1274.0</ele>
        <time>2018-09-16T12:33:45Z</time>
      </trkpt>
      <trkpt lat="40.247533" lon="-4.901817">
        <ele>1275.0</ele>
        <time>2018-09-16T12:33:46Z</time>
      </trkpt>
      <trkpt lat="40.247483" lon="-4.901750">
        <ele>1276.0</ele>
        <time>2018-09-16T12:33:47Z</time>
      </trkpt>
      <trkpt lat="40.247467" lon="-4.901650">
        <ele>1276.0</ele>
        <time>2018-09-16T12:33:48Z</time>
      </trkpt>
      <trkpt lat="40.247483" lon="-4.901533">
        <ele>1276.0</ele>
        <time>2018-09-16T12:33:49Z</time>
      </trkpt>
      <trkpt lat="40.247533" lon="-4.901417">
        <ele>1276.0</ele>
        <time>2018-09-16T12:33:50Z</time>
      </trkpt>
      <trkpt lat="40.247617" lon="-4.901317">
        <ele>1275.0</ele>
        <time>2018-09-16T12:33:51Z</time>
      </trkpt>
      <trkpt lat="40.247717" lon="-4.901233">
        <ele>1276.0</ele>
        <time>2018-09-16T12:33:52Z</time>
      </trkpt>
      <trkpt lat="40.247817" lon="-4.901183">
        <ele>1279.0</ele>
        <time>2018-09-16T12:33:53Z</time>
      </trkpt>
      <trkpt lat="40.247933" lon="-4.901167">
        <ele>1283.0</ele>
        <time>2018-09-16T12:33:54Z</time>
      </trkpt>
      <trkpt lat="40.248033" lon="-4.901183">
        <ele>1286.0</ele>
        <time>2018-09-16T12:33:55Z</time>
      </trkpt>
      <trkpt lat="40.248117" lon="-4.901200">
        <ele>1289.0</ele>
        <time>2018-09-16T12:33:56Z</time>
      </trkpt>
      <trkpt lat="40.248217" lon="-4.901250">
        <ele>1292.0</ele>
        <time>2018-09-16T12:33:57Z</time>
      </trkpt>
      <trkpt lat="40.248283" lon="-4.901300">
        <ele>1293.0</ele>
        <time>2018-09-16T12:33:58Z</time>
      </trkpt>
      <trkpt lat="40.248317" lon="-4.901383">
        <ele>1295.0</ele>
        <time>2018-09-16T12:33:59Z</time>
      </trkpt>
      <trkpt lat="40.248333" lon="-4.901483">
        <ele>1295.0</ele>
        <time>2018-09-16T12:34:00Z</time>
      </trkpt>
      <trkpt lat="40.248317" lon="-4.901583">
        <ele>1296.0</ele>
        <time>2018-09-16T12:34:01Z</time>
      </trkpt>
      <trkpt lat="40.248283" lon="-4.901650">
        <ele>1297.0</ele>
        <time>2018-09-16T12:34:02Z</time>
      </trkpt>
      <trkpt lat="40.248233" lon="-4.901683">
        <ele>1298.0</ele>
        <time>2018-09-16T12:34:03Z</time>
      </trkpt>
      <trkpt lat="40.248183" lon="-4.901683">
        <ele>1298.0</ele>
        <time>2018-09-16T12:34:04Z</time>
      </trkpt>
      <trkpt lat="40.248133" lon="-4.901650">
        <ele>1297.0</ele>
        <time>2018-09-16T12:34:05Z</time>
      </trkpt>
      <trkpt lat="40.248083" lon="-4.901567">
        <ele>1296.0</ele>
        <time>2018-09-16T12:34:06Z</time>
      </trkpt>
      <trkpt lat="40.248050" lon="-4.901450">
        <ele>1295.0</ele>
        <time>2018-09-16T12:34:07Z</time>
      </trkpt>
      <trkpt lat="40.248067" lon="-4.901317">
        <ele>1294.0</ele>
        <time>2018-09-16T12:34:08Z</time>
      </trkpt>
      <trkpt lat="40.248133" lon="-4.901200">
        <ele>1293.0</ele>
        <time>2018-09-16T12:34:09Z</time>
      </trkpt>
      <trkpt lat="40.248217" lon="-4.901100">
        <ele>1291.0</ele>
        <time>2018-09-16T12:34:10Z</time>
      </trkpt>
      <trkpt lat="40.248333" lon="-4.901067">
        <ele>1292.0</ele>
        <time>2018-09-16T12:34:11Z</time>
      </trkpt>
      <trkpt lat="40.248450" lon="-4.901067">
        <ele>1293.0</ele>
        <time>2018-09-16T12:34:12Z</time>
      </trkpt>
      <trkpt lat="40.248567" lon="-4.901083">
        <ele>1295.0</ele>
        <time>2018-09-16T12:34:13Z</time>
      </trkpt>
      <trkpt lat="40.248667" lon="-4.901133">
        <ele>1298.0</ele>
        <time>2018-09-16T12:34:14Z</time>
      </trkpt>
      <trkpt lat="40.248750" lon="-4.901167">
        <ele>1300.0</ele>
        <time>2018-09-16T12:34:15Z</time>
      </trkpt>
      <trkpt lat="40.248833" lon="-4.901217">
        <ele>1302.0</ele>
        <time>2018-09-16T12:34:16Z</time>
      </trkpt>
      <trkpt lat="40.248917" lon="-4.901283">
        <ele>1304.0</ele>
        <time>2018-09-16T12:34:17Z</time>
      </trkpt>
      <trkpt lat="40.248983" lon="-4.901367">
        <ele>1306.0</ele>
        <time>2018-09-16T12:34:18Z</time>
      </trkpt>
      <trkpt lat="40.249050" lon="-4.901467">
        <ele>1307.0</ele>
        <time>2018-09-16T12:34:19Z</time>
      </trkpt>
      <trkpt lat="40.249100" lon="-4.901550">
        <ele>1310.0</ele>
        <time>2018-09-16T12:34:20Z</time>
      </trkpt>
      <trkpt lat="40.249150" lon="-4.901617">
        <ele>1316.0</ele>
        <time>2018-09-16T12:34:21Z</time>
      </trkpt>
      <trkpt lat="40.249200" lon="-4.901650">
        <ele>1320.0</ele>
        <time>2018-09-16T12:34:22Z</time>
      </trkpt>
      <trkpt lat="40.249250" lon="-4.901700">
        <ele>1322.0</ele>
        <time>2018-09-16T12:34:23Z</time>
      </trkpt>
      <trkpt lat="40.249283" lon="-4.901750">
        <ele>1324.0</ele>
        <time>2018-09-16T12:34:24Z</time>
      </trkpt>
      <trkpt lat="40.249300" lon="-4.901833">
        <ele>1325.0</ele>
        <time>2018-09-16T12:34:25Z</time>
      </trkpt>
      <trkpt lat="40.249283" lon="-4.901883">
        <ele>1326.0</ele>
        <time>2018-09-16T12:34:26Z</time>
      </trkpt>
      <trkpt lat="40.249233" lon="-4.901900">
        <ele>1327.0</ele>
        <time>2018-09-16T12:34:27Z</time>
      </trkpt>
      <trkpt lat="40.249167" lon="-4.901850">
        <ele>1328.0</ele>
        <time>2018-09-16T12:34:28Z</time>
      </trkpt>
      <trkpt lat="40.249117" lon="-4.901767">
        <ele>1328.0</ele>
        <time>2018-09-16T12:34:29Z</time>
      </trkpt>
      <trkpt lat="40.249100" lon="-4.901650">
        <ele>1329.0</ele>
        <time>2018-09-16T12:34:30Z</time>
      </trkpt>
      <trkpt lat="40.249150" lon="-4.901533">
        <ele>1330.0</ele>
        <time>2018-09-16T12:34:31Z</time>
      </trkpt>
      <trkpt lat="40.249250" lon="-4.901433">
        <ele>1330.0</ele>
        <time>2018-09-16T12:34:32Z</time>
      </trkpt>
      <trkpt lat="40.249383" lon="-4.901400">
        <ele>1330.0</ele>
        <time>2018-09-16T12:34:33Z</time>
      </trkpt>
      <trkpt lat="40.249500" lon="-4.901417">
        <ele>1331.0</ele>
        <time>2018-09-16T12:34:34Z</time>
      </trkpt>
      <trkpt lat="40.249567" lon="-4.901467">
        <ele>1334.0</ele>
        <time>2018-09-16T12:34:35Z</time>
      </trkpt>
      <trkpt lat="40.249600" lon="-4.901533">
        <ele>1336.0</ele>
        <time>2018-09-16T12:34:36Z</time>
      </trkpt>
      <trkpt lat="40.249600" lon="-4.901600">
        <ele>1337.0</ele>
        <time>2018-09-16T12:34:37Z</time>
      </trkpt>
      <trkpt lat="40.249583" lon="-4.901650">
        <ele>1338.0</ele>
        <time>2018-09-16T12:34:38Z</time>
      </trkpt>
      <trkpt lat="40.249550" lon="-4.901700">
        <ele>1340.0</ele>
        <time>2018-09-16T12:34:39Z</time>
      </trkpt>
      <trkpt lat="40.249500" lon="-4.901717">
        <ele>1342.0</ele>
        <time>2018-09-16T12:34:40Z</time>
      </trkpt>
      <trkpt lat="40.249450" lon="-4.901700">
        <ele>1344.0</ele>
        <time>2018-09-16T12:34:41Z</time>
      </trkpt>
      <trkpt lat="40.249400" lon="-4.901667">
        <ele>1346.0</ele>
        <time>2018-09-16T12:34:42Z</time>
      </trkpt>
      <trkpt lat="40.249350" lon="-4.901600">
        <ele>1347.0</ele>
        <time>2018-09-16T12:34:43Z</time>
      </trkpt>
      <trkpt lat="40.249333" lon="-4.901483">
        <ele>1348.0</ele>
        <time>2018-09-16T12:34:44Z</time>
      </trkpt>
      <trkpt lat="40.249350" lon="-4.901350">
        <ele>1348.0</ele>
        <time>2018-09-16T12:34:45Z</time>
      </trkpt>
      <trkpt lat="40.249417" lon="-4.901233">
        <ele>1348.0</ele>
        <time>2018-09-16T12:34:46Z</time>
      </trkpt>
      <trkpt lat="40.249500" lon="-4.901133">
        <ele>1349.0</ele>
        <time>2018-09-16T12:34:47Z</time>
      </trkpt>
      <trkpt lat="40.249617" lon="-4.901100">
        <ele>1350.0</ele>
        <time>2018-09-16T12:34:48Z</time>
      </trkpt>
      <trkpt lat="40.249717" lon="-4.901100">
        <ele>1352.0</ele>
        <time>2018-09-16T12:34:49Z</time>
      </trkpt>
      <trkpt lat="40.249800" lon="-4.901150">
        <ele>1353.0</ele>
        <time>2018-09-16T12:34:50Z</time>
      </trkpt>
      <trkpt lat="40.249867" lon="-4.901217">
        <ele>1355.0</ele>
        <time>2018-09-16T12:34:51Z</time>
      </trkpt>
      <trkpt lat="40.249900" lon="-4.901300">
        <ele>1357.0</ele>
        <time>2018-09-16T12:34:52Z</time>
      </trkpt>
      <trkpt lat="40.249900" lon="-4.901367">
        <ele>1358.0</ele>
        <time>2018-09-16T12:34:53Z</time>
      </trkpt>
      <trkpt lat="40.249900" lon="-4.901433">
        <ele>1361.0</ele>
        <time>2018-09-16T12:34:54Z</time>
      </trkpt>
      <trkpt lat="40.249883" lon="-4.901483">
        <ele>1364.0</ele>
        <time>2018-09-16T12:34:55Z</time>
      </trkpt>
      <trkpt lat="40.249867" lon="-4.901533">
        <ele>1366.0</ele>
        <time>2018-09-16T12:34:56Z</time>
      </trkpt>
      <trkpt lat="40.249850" lon="-4.901567">
        <ele>1368.0</ele>
        <time>2018-09-16T12:34:57Z</time>
      </trkpt>
      <trkpt lat="40.249833" lon="-4.901600">
        <ele>1369.0</ele>
        <time>2018-09-16T12:34:58Z</time>
      </trkpt>
      <trkpt lat="40.249783" lon="-4.901633">
        <ele>1370.0</ele>
        <time>2018-09-16T12:34:59Z</time>
      </trkpt>
      <trkpt lat="40.249733" lon="-4.901667">
        <ele>1371.0</ele>
        <time>2018-09-16T12:35:00Z</time>
      </trkpt>
      <trkpt lat="40.249717" lon="-4.901717">
        <ele>1372.0</ele>
        <time>2018-09-16T12:35:01Z</time>
      </trkpt>
      <trkpt lat="40.249717" lon="-4.901800">
        <ele>1373.0</ele>
        <time>2018-09-16T12:35:02Z</time>
      </trkpt>
      <trkpt lat="40.249767" lon="-4.901900">
        <ele>1374.0</ele>
        <time>2018-09-16T12:35:03Z</time>
      </trkpt>
      <trkpt lat="40.249850" lon="-4.901983">
        <ele>1374.0</ele>
        <time>2018-09-16T12:35:04Z</time>
      </trkpt>
      <trkpt lat="40.249967" lon="-4.902017">
        <ele>1375.0</ele>
        <time>2018-09-16T12:35:05Z</time>
      </trkpt>
      <trkpt lat="40.250067" lon="-4.902000">
        <ele>1376.0</ele>
        <time>2018-09-16T12:35:06Z</time>
      </trkpt>
      <trkpt lat="40.250167" lon="-4.901900">
        <ele>1376.0</ele>
        <time>2018-09-16T12:35:07Z</time>
      </trkpt>
      <trkpt lat="40.250217" lon="-4.901767">
        <ele>1376.0</ele>
        <time>2018-09-16T12:35:08Z</time>
      </trkpt>
      <trkpt lat="40.250233" lon="-4.901617">
        <ele>1375.0</ele>
        <time>2018-09-16T12:35:09Z</time>
      </trkpt>
      <trkpt lat="40.250217" lon="-4.901500">
        <ele>1375.0</ele>
        <time>2018-09-16T12:35:10Z</time>
      </trkpt>
      <trkpt lat="40.250150" lon="-4.901417">
        <ele>1375.0</ele>
        <time>2018-09-16T12:35:11Z</time>
      </trkpt>
      <trkpt lat="40.250100" lon="-4.901383">
        <ele>1374.0</ele>
        <time>2018-09-16T12:35:12Z</time>
      </trkpt>
      <trkpt lat="40.250033" lon="-4.901400">
        <ele>1373.0</ele>
        <time>2018-09-16T12:35:13Z</time>
      </trkpt>
      <trkpt lat="40.249983" lon="-4.901467">
        <ele>1374.0</ele>
        <time>2018-09-16T12:35:14Z</time>
      </trkpt>
      <trkpt lat="40.249950" lon="-4.901533">
        <ele>1375.0</ele>
        <time>2018-09-16T12:35:15Z</time>
      </trkpt>
      <trkpt lat="40.249933" lon="-4.901617">
        <ele>1378.0</ele>
        <time>2018-09-16T12:35:16Z</time>
      </trkpt>
      <trkpt lat="40.249917" lon="-4.901667">
        <ele>1381.0</ele>
        <time>2018-09-16T12:35:17Z</time>
      </trkpt>
      <trkpt lat="40.249883" lon="-4.901700">
        <ele>1384.0</ele>
        <time>2018-09-16T12:35:18Z</time>
      </trkpt>
      <trkpt lat="40.249833" lon="-4.901733">
        <ele>1385.0</ele>
        <time>2018-09-16T12:35:19Z</time>
      </trkpt>
      <trkpt lat="40.249800" lon="-4.901783">
        <ele>1384.0</ele>
        <time>2018-09-16T12:35:20Z</time>
      </trkpt>
      <trkpt lat="40.249750" lon="-4.901817">
        <ele>1383.0</ele>
        <time>2018-09-16T12:35:21Z</time>
      </trkpt>
      <trkpt lat="40.249700" lon="-4.901850">
        <ele>1384.0</ele>
        <time>2018-09-16T12:35:22Z</time>
      </trkpt>
      <trkpt lat="40.249650" lon="-4.901867">
        <ele>1385.0</ele>
        <time>2018-09-16T12:35:23Z</time>
      </trkpt>
      <trkpt lat="40.249600" lon="-4.901867">
        <ele>1385.0</ele>
        <time>2018-09-16T12:35:24Z</time>
      </trkpt>
      <trkpt lat="40.249567" lon="-4.901867">
        <ele>1386.0</ele>
        <time>2018-09-16T12:35:25Z</time>
      </trkpt>
      <trkpt lat="40.249533" lon="-4.901883">
        <ele>1386.0</ele>
        <time>2018-09-16T12:35:26Z</time>
      </trkpt>
      <trkpt lat="40.249483" lon="-4.901917">
        <ele>1387.0</ele>
        <time>2018-09-16T12:35:27Z</time>
      </trkpt>
      <trkpt lat="40.249433" lon="-4.901983">
        <ele>1387.0</ele>
        <time>2018-09-16T12:35:28Z</time>
      </trkpt>
      <trkpt lat="40.249383" lon="-4.902067">
        <ele>1387.0</ele>
        <time>2018-09-16T12:35:29Z</time>
      </trkpt>
      <trkpt lat="40.249350" lon="-4.902150">
        <ele>1389.0</ele>
        <time>2018-09-16T12:35:30Z</time>
      </trkpt>
      <trkpt lat="40.249333" lon="-4.902217">
        <ele>1393.0</ele>
        <time>2018-09-16T12:35:31Z</time>
      </trkpt>
      <trkpt lat="40.249283" lon="-4.902283">
        <ele>1397.0</ele>
        <time>2018-09-16T12:35:32Z</time>
      </trkpt>
      <trkpt lat="40.249233" lon="-4.902333">
        <ele>1400.0</ele>
        <time>2018-09-16T12:35:33Z</time>
      </trkpt>
      <trkpt lat="40.249200" lon="-4.902400">
        <ele>1403.0</ele>
        <time>2018-09-16T12:35:34Z</time>
      </trkpt>
      <trkpt lat="40.249133" lon="-4.902433">
        <ele>1406.0</ele>
        <time>2018-09-16T12:35:35Z</time>
      </trkpt>
      <trkpt lat="40.249083" lon="-4.902467">
        <ele>1409.0</ele>
        <time>2018-09-16T12:35:36Z</time>
      </trkpt>
      <trkpt lat="40.249017" lon="-4.902450">
        <ele>1412.0</ele>
        <time>2018-09-16T12:35:37Z</time>
      </trkpt>
      <trkpt lat="40.248950" lon="-4.902417">
        <ele>1415.0</ele>
        <time>2018-09-16T12:35:38Z</time>
      </trkpt>
      <trkpt lat="40.248900" lon="-4.902417">
        <ele>1419.0</ele>
        <time>2018-09-16T12:35:39Z</time>
      </trkpt>
      <trkpt lat="40.248850" lon="-4.902467">
        <ele>1423.0</ele>
        <time>2018-09-16T12:35:40Z</time>
      </trkpt>
      <trkpt lat="40.248850" lon="-4.902567">
        <ele>1426.0</ele>
        <time>2018-09-16T12:35:41Z</time>
      </trkpt>
      <trkpt lat="40.248867" lon="-4.902700">
        <ele>1428.0</ele>
        <time>2018-09-16T12:35:42Z</time>
      </trkpt>
      <trkpt lat="40.248950" lon="-4.902817">
        <ele>1430.0</ele>
        <time>2018-09-16T12:35:43Z</time>
      </trkpt>
      <trkpt lat="40.249050" lon="-4.902883">
        <ele>1433.0</ele>
        <time>2018-09-16T12:35:44Z</time>
      </trkpt>
      <trkpt lat="40.249167" lon="-4.902867">
        <ele>1436.0</ele>
        <time>2018-09-16T12:35:45Z</time>
      </trkpt>
      <trkpt lat="40.249267" lon="-4.902800">
        <ele>1437.0</ele>
        <time>2018-09-16T12:35:46Z</time>
      </trkpt>
      <trkpt lat="40.249317" lon="-4.902683">
        <ele>1439.0</ele>
        <time>2018-09-16T12:35:47Z</time>
      </trkpt>
      <trkpt lat="40.249300" lon="-4.902583">
        <ele>1441.0</ele>
        <time>2018-09-16T12:35:48Z</time>
      </trkpt>
      <trkpt lat="40.249250" lon="-4.902517">
        <ele>1443.0</ele>
        <time>2018-09-16T12:35:49Z</time>
      </trkpt>
      <trkpt lat="40.249183" lon="-4.902533">
        <ele>1445.0</ele>
        <time>2018-09-16T12:35:50Z</time>
      </trkpt>
      <trkpt lat="40.249133" lon="-4.902617">
        <ele>1447.0</ele>
        <time>2018-09-16T12:35:51Z</time>
      </trkpt>
      <trkpt lat="40.249133" lon="-4.902750">
        <ele>1449.0</ele>
        <time>2018-09-16T12:35:52Z</time>
      </trkpt>
      <trkpt lat="40.249200" lon="-4.902867">
        <ele>1451.0</ele>
        <time>2018-09-16T12:35:53Z</time>
      </trkpt>
      <trkpt lat="40.249300" lon="-4.902950">
        <ele>1454.0</ele>
        <time>2018-09-16T12:35:54Z</time>
      </trkpt>
      <trkpt lat="40.249400" lon="-4.902983">
        <ele>1457.0</ele>
        <time>2018-09-16T12:35:55Z</time>
      </trkpt>
      <trkpt lat="40.249517" lon="-4.902967">
        <ele>1459.0</ele>
        <time>2018-09-16T12:35:56Z</time>
      </trkpt>
      <trkpt lat="40.249617" lon="-4.902883">
        <ele>1462.0</ele>
        <time>2018-09-16T12:35:57Z</time>
      </trkpt>
      <trkpt lat="40.249667" lon="-4.902767">
        <ele>1464.0</ele>
        <time>2018-09-16T12:35:58Z</time>
      </trkpt>
      <trkpt lat="40.249683" lon="-4.902650">
        <ele>1467.0</ele>
        <time>2018-09-16T12:35:59Z</time>
      </trkpt>
      <trkpt lat="40.249650" lon="-4.902567">
        <ele>1469.0</ele>
        <time>2018-09-16T12:36:00Z</time>
      </trkpt>
      <trkpt lat="40.249583" lon="-4.902550">
        <ele>1471.0</ele>
        <time>2018-09-16T12:36:01Z</time>
      </trkpt>
      <trkpt lat="40.249533" lon="-4.902600">
        <ele>1473.0</ele>
        <time>2018-09-16T12:36:02Z</time>
      </trkpt>
      <trkpt lat="40.249500" lon="-4.902717">
        <ele>1475.0</ele>
        <time>2018-09-16T12:36:03Z</time>
      </trkpt>
      <trkpt lat="40.249533" lon="-4.902833">
        <ele>1478.0</ele>
        <time>2018-09-16T12:36:04Z</time>
      </trkpt>
      <trkpt lat="40.249583" lon="-4.902950">
        <ele>1480.0</ele>
        <time>2018-09-16T12:36:05Z</time>
      </trkpt>
      <trkpt lat="40.249683" lon="-4.903067">
        <ele>1481.0</ele>
        <time>2018-09-16T12:36:06Z</time>
      </trkpt>
      <trkpt lat="40.249800" lon="-4.903133">
        <ele>1484.0</ele>
        <time>2018-09-16T12:36:07Z</time>
      </trkpt>
      <trkpt lat="40.249917" lon="-4.903150">
        <ele>1486.0</ele>
        <time>2018-09-16T12:36:08Z</time>
      </trkpt>
      <trkpt lat="40.250017" lon="-4.903133">
        <ele>1490.0</ele>
        <time>2018-09-16T12:36:09Z</time>
      </trkpt>
      <trkpt lat="40.250083" lon="-4.903067">
        <ele>1492.0</ele>
        <time>2018-09-16T12:36:10Z</time>
      </trkpt>
      <trkpt lat="40.250133" lon="-4.902967">
        <ele>1494.0</ele>
        <time>2018-09-16T12:36:11Z</time>
      </trkpt>
      <trkpt lat="40.250150" lon="-4.902850">
        <ele>1496.0</ele>
        <time>2018-09-16T12:36:12Z</time>
      </trkpt>
      <trkpt lat="40.250133" lon="-4.902750">
        <ele>1498.0</ele>
        <time>2018-09-16T12:36:13Z</time>
      </trkpt>
      <trkpt lat="40.250083" lon="-4.902667">
        <ele>1500.0</ele>
        <time>2018-09-16T12:36:14Z</time>
      </trkpt>
      <trkpt lat="40.250000" lon="-4.902650">
        <ele>1501.0</ele>
        <time>2018-09-16T12:36:15Z</time>
      </trkpt>
      <trkpt lat="40.249933" lon="-4.902667">
        <ele>1503.0</ele>
        <time>2018-09-16T12:36:16Z</time>
      </trkpt>
      <trkpt lat="40.249883" lon="-4.902700">
        <ele>1509.0</ele>
        <time>2018-09-16T12:36:17Z</time>
      </trkpt>
      <trkpt lat="40.249850" lon="-4.902717">
        <ele>1516.0</ele>
        <time>2018-09-16T12:36:18Z</time>
      </trkpt>
      <trkpt lat="40.249800" lon="-4.902733">
        <ele>1520.0</ele>
        <time>2018-09-16T12:36:19Z</time>
      </trkpt>
      <trkpt lat="40.249767" lon="-4.902783">
        <ele>1523.0</ele>
        <time>2018-09-16T12:36:20Z</time>
      </trkpt>
      <trkpt lat="40.249733" lon="-4.902850">
        <ele>1525.0</ele>
        <time>2018-09-16T12:36:21Z</time>
      </trkpt>
      <trkpt lat="40.249717" lon="-4.902950">
        <ele>1528.0</ele>
        <time>2018-09-16T12:36:22Z</time>
      </trkpt>
      <trkpt lat="40.249750" lon="-4.903100">
        <ele>1529.0</ele>
        <time>2018-09-16T12:36:23Z</time>
      </trkpt>
      <trkpt lat="40.249817" lon="-4.903217">
        <ele>1530.0</ele>
        <time>2018-09-16T12:36:24Z</time>
      </trkpt>
      <trkpt lat="40.249933" lon="-4.903267">
        <ele>1530.0</ele>
        <time>2018-09-16T12:36:25Z</time>
      </trkpt>
      <trkpt lat="40.250050" lon="-4.903250">
        <ele>1531.0</ele>
        <time>2018-09-16T12:36:26Z</time>
      </trkpt>
      <trkpt lat="40.250167" lon="-4.903167">
        <ele>1530.0</ele>
        <time>2018-09-16T12:36:27Z</time>
      </trkpt>
      <trkpt lat="40.250233" lon="-4.903033">
        <ele>1530.0</ele>
        <time>2018-09-16T12:36:28Z</time>
      </trkpt>
      <trkpt lat="40.250283" lon="-4.902917">
        <ele>1531.0</ele>
        <time>2018-09-16T12:36:29Z</time>
      </trkpt>
      <trkpt lat="40.250300" lon="-4.902800">
        <ele>1533.0</ele>
        <time>2018-09-16T12:36:30Z</time>
      </trkpt>
      <trkpt lat="40.250300" lon="-4.902700">
        <ele>1534.0</ele>
        <time>2018-09-16T12:36:31Z</time>
      </trkpt>
      <trkpt lat="40.250267" lon="-4.902617">
        <ele>1535.0</ele>
        <time>2018-09-16T12:36:32Z</time>
      </trkpt>
      <trkpt lat="40.250233" lon="-4.902550">
        <ele>1536.0</ele>
        <time>2018-09-16T12:36:33Z</time>
      </trkpt>
      <trkpt lat="40.250200" lon="-4.902517">
        <ele>1537.0</ele>
        <time>2018-09-16T12:36:34Z</time>
      </trkpt>
      <trkpt lat="40.250150" lon="-4.902517">
        <ele>1534.0</ele>
        <time>2018-09-16T12:36:35Z</time>
      </trkpt>
      <trkpt lat="40.250100" lon="-4.902517">
        <ele>1534.0</ele>
        <time>2018-09-16T12:36:36Z</time>
      </trkpt>
      <trkpt lat="40.250050" lon="-4.902533">
        <ele>1535.0</ele>
        <time>2018-09-16T12:36:37Z</time>
      </trkpt>
      <trkpt lat="40.250000" lon="-4.902533">
        <ele>1536.0</ele>
        <time>2018-09-16T12:36:38Z</time>
      </trkpt>
      <trkpt lat="40.249950" lon="-4.902533">
        <ele>1538.0</ele>
        <time>2018-09-16T12:36:39Z</time>
      </trkpt>
      <trkpt lat="40.249900" lon="-4.902583">
        <ele>1539.0</ele>
        <time>2018-09-16T12:36:40Z</time>
      </trkpt>
      <trkpt lat="40.249850" lon="-4.902650">
        <ele>1540.0</ele>
        <time>2018-09-16T12:36:41Z</time>
      </trkpt>
      <trkpt lat="40.249833" lon="-4.902750">
        <ele>1541.0</ele>
        <time>2018-09-16T12:36:42Z</time>
      </trkpt>
      <trkpt lat="40.249833" lon="-4.902850">
        <ele>1541.0</ele>
        <time>2018-09-16T12:36:43Z</time>
      </trkpt>
      <trkpt lat="40.249883" lon="-4.902933">
        <ele>1541.0</ele>
        <time>2018-09-16T12:36:44Z</time>
      </trkpt>
      <trkpt lat="40.249933" lon="-4.903017">
        <ele>1542.0</ele>
        <time>2018-09-16T12:36:45Z</time>
      </trkpt>
      <trkpt lat="40.250033" lon="-4.903050">
        <ele>1542.0</ele>
        <time>2018-09-16T12:36:46Z</time>
      </trkpt>
      <trkpt lat="40.250150" lon="-4.903033">
        <ele>1543.0</ele>
        <time>2018-09-16T12:36:47Z</time>
      </trkpt>
      <trkpt lat="40.250267" lon="-4.902967">
        <ele>1543.0</ele>
        <time>2018-09-16T12:36:48Z</time>
      </trkpt>
      <trkpt lat="40.250333" lon="-4.902850">
        <ele>1543.0</ele>
        <time>2018-09-16T12:36:49Z</time>
      </trkpt>
      <trkpt lat="40.250367" lon="-4.902717">
        <ele>1544.0</ele>
        <time>2018-09-16T12:36:50Z</time>
      </trkpt>
      <trkpt lat="40.250383" lon="-4.902600">
        <ele>1546.0</ele>
        <time>2018-09-16T12:36:51Z</time>
      </trkpt>
      <trkpt lat="40.250400" lon="-4.902517">
        <ele>1548.0</ele>
        <time>2018-09-16T12:36:52Z</time>
      </trkpt>
      <trkpt lat="40.250417" lon="-4.902450">
        <ele>1547.0</ele>
        <time>2018-09-16T12:36:53Z</time>
      </trkpt>
      <trkpt lat="40.250433" lon="-4.902383">
        <ele>1548.0</ele>
        <time>2018-09-16T12:36:54Z</time>
      </trkpt>
      <trkpt lat="40.250433" lon="-4.902300">
        <ele>1549.0</ele>
        <time>2018-09-16T12:36:55Z</time>
      </trkpt>
      <trkpt lat="40.250417" lon="-4.902183">
        <ele>1550.0</ele>
        <time>2018-09-16T12:36:56Z</time>
      </trkpt>
      <trkpt lat="40.250367" lon="-4.902133">
        <ele>1551.0</ele>
        <time>2018-09-16T12:36:57Z</time>
      </trkpt>
      <trkpt lat="40.250317" lon="-4.902150">
        <ele>1551.0</ele>
        <time>2018-09-16T12:36:58Z</time>
      </trkpt>
      <trkpt lat="40.250267" lon="-4.902217">
        <ele>1552.0</ele>
        <time>2018-09-16T12:36:59Z</time>
      </trkpt>
      <trkpt lat="40.250250" lon="-4.902317">
        <ele>1552.0</ele>
        <time>2018-09-16T12:37:00Z</time>
      </trkpt>
      <trkpt lat="40.250267" lon="-4.902433">
        <ele>1553.0</ele>
        <time>2018-09-16T12:37:01Z</time>
      </trkpt>
      <trkpt lat="40.250317" lon="-4.902517">
        <ele>1553.0</ele>
        <time>2018-09-16T12:37:02Z</time>
      </trkpt>
      <trkpt lat="40.250383" lon="-4.902583">
        <ele>1554.0</ele>
        <time>2018-09-16T12:37:03Z</time>
      </trkpt>
      <trkpt lat="40.250467" lon="-4.902600">
        <ele>1555.0</ele>
        <time>2018-09-16T12:37:04Z</time>
      </trkpt>
      <trkpt lat="40.250583" lon="-4.902600">
        <ele>1555.0</ele>
        <time>2018-09-16T12:37:05Z</time>
      </trkpt>
      <trkpt lat="40.250700" lon="-4.902567">
        <ele>1556.0</ele>
        <time>2018-09-16T12:37:06Z</time>
      </trkpt>
      <trkpt lat="40.250800" lon="-4.902500">
        <ele>1556.0</ele>
        <time>2018-09-16T12:37:07Z</time>
      </trkpt>
      <trkpt lat="40.250850" lon="-4.902400">
        <ele>1557.0</ele>
        <time>2018-09-16T12:37:08Z</time>
      </trkpt>
      <trkpt lat="40.250883" lon="-4.902300">
        <ele>1558.0</ele>
        <time>2018-09-16T12:37:09Z</time>
      </trkpt>
      <trkpt lat="40.250900" lon="-4.902200">
        <ele>1559.0</ele>
        <time>2018-09-16T12:37:10Z</time>
      </trkpt>
      <trkpt lat="40.250917" lon="-4.902100">
        <ele>1559.0</ele>
        <time>2018-09-16T12:37:11Z</time>
      </trkpt>
      <trkpt lat="40.250933" lon="-4.902000">
        <ele>1560.0</ele>
        <time>2018-09-16T12:37:12Z</time>
      </trkpt>
      <trkpt lat="40.250933" lon="-4.901917">
        <ele>1560.0</ele>
        <time>2018-09-16T12:37:13Z</time>
      </trkpt>
      <trkpt lat="40.250933" lon="-4.901833">
        <ele>1560.0</ele>
        <time>2018-09-16T12:37:14Z</time>
      </trkpt>
      <trkpt lat="40.250883" lon="-4.901783">
        <ele>1561.0</ele>
        <time>2018-09-16T12:37:15Z</time>
      </trkpt>
      <trkpt lat="40.250833" lon="-4.901750">
        <ele>1561.0</ele>
        <time>2018-09-16T12:37:16Z</time>
      </trkpt>
      <trkpt lat="40.250767" lon="-4.901783">
        <ele>1561.0</ele>
        <time>2018-09-16T12:37:17Z</time>
      </trkpt>
      <trkpt lat="40.250717" lon="-4.901850">
        <ele>1562.0</ele>
        <time>2018-09-16T12:37:18Z</time>
      </trkpt>
      <trkpt lat="40.250717" lon="-4.901950">
        <ele>1563.0</ele>
        <time>2018-09-16T12:37:19Z</time>
      </trkpt>
      <trkpt lat="40.250733" lon="-4.902050">
        <ele>1564.0</ele>
        <time>2018-09-16T12:37:20Z</time>
      </trkpt>
      <trkpt lat="40.250767" lon="-4.902150">
        <ele>1564.0</ele>
        <time>2018-09-16T12:37:21Z</time>
      </trkpt>
      <trkpt lat="40.250783" lon="-4.902217">
        <ele>1565.0</ele>
        <time>2018-09-16T12:37:22Z</time>
      </trkpt>
      <trkpt lat="40.250800" lon="-4.902300">
        <ele>1567.0</ele>
        <time>2018-09-16T12:37:23Z</time>
      </trkpt>
      <trkpt lat="40.250817" lon="-4.902383">
        <ele>1568.0</ele>
        <time>2018-09-16T12:37:24Z</time>
      </trkpt>
      <trkpt lat="40.250817" lon="-4.902467">
        <ele>1569.0</ele>
        <time>2018-09-16T12:37:25Z</time>
      </trkpt>
      <trkpt lat="40.250800" lon="-4.902517">
        <ele>1571.0</ele>
        <time>2018-09-16T12:37:26Z</time>
      </trkpt>
      <trkpt lat="40.250800" lon="-4.902583">
        <ele>1573.0</ele>
        <time>2018-09-16T12:37:27Z</time>
      </trkpt>
      <trkpt lat="40.250767" lon="-4.902650">
        <ele>1574.0</ele>
        <time>2018-09-16T12:37:28Z</time>
      </trkpt>
      <trkpt lat="40.250717" lon="-4.902683">
        <ele>1575.0</ele>
        <time>2018-09-16T12:37:29Z</time>
      </trkpt>
      <trkpt lat="40.250650" lon="-4.902700">
        <ele>1576.0</ele>
        <time>2018-09-16T12:37:30Z</time>
      </trkpt>
      <trkpt lat="40.250567" lon="-4.902667">
        <ele>1577.0</ele>
        <time>2018-09-16T12:37:31Z</time>
      </trkpt>
      <trkpt lat="40.250500" lon="-4.902600">
        <ele>1578.0</ele>
        <time>2018-09-16T12:37:32Z</time>
      </trkpt>
      <trkpt lat="40.250450" lon="-4.902517">
        <ele>1579.0</ele>
        <time>2018-09-16T12:37:33Z</time>
      </trkpt>
      <trkpt lat="40.250433" lon="-4.902400">
        <ele>1580.0</ele>
        <time>2018-09-16T12:37:34Z</time>
      </trkpt>
      <trkpt lat="40.250450" lon="-4.902300">
        <ele>1581.0</ele>
        <time>2018-09-16T12:37:35Z</time>
      </trkpt>
      <trkpt lat="40.250483" lon="-4.902200">
        <ele>1582.0</ele>
        <time>2018-09-16T12:37:36Z</time>
      </trkpt>
      <trkpt lat="40.250550" lon="-4.902100">
        <ele>1581.0</ele>
        <time>2018-09-16T12:37:37Z</time>
      </trkpt>
      <trkpt lat="40.250617" lon="-4.902000">
        <ele>1579.0</ele>
        <time>2018-09-16T12:37:38Z</time>
      </trkpt>
      <trkpt lat="40.250717" lon="-4.901917">
        <ele>1578.0</ele>
        <time>2018-09-16T12:37:39Z</time>
      </trkpt>
      <trkpt lat="40.250817" lon="-4.901833">
        <ele>1577.0</ele>
        <time>2018-09-16T12:37:40Z</time>
      </trkpt>
      <trkpt lat="40.250933" lon="-4.901800">
        <ele>1577.0</ele>
        <time>2018-09-16T12:37:41Z</time>
      </trkpt>
      <trkpt lat="40.251050" lon="-4.901817">
        <ele>1578.0</ele>
        <time>2018-09-16T12:37:42Z</time>
      </trkpt>
      <trkpt lat="40.251150" lon="-4.901850">
        <ele>1578.0</ele>
        <time>2018-09-16T12:37:43Z</time>
      </trkpt>
      <trkpt lat="40.251233" lon="-4.901900">
        <ele>1579.0</ele>
        <time>2018-09-16T12:37:44Z</time>
      </trkpt>
      <trkpt lat="40.251283" lon="-4.901967">
        <ele>1579.0</ele>
        <time>2018-09-16T12:37:45Z</time>
      </trkpt>
      <trkpt lat="40.251333" lon="-4.902050">
        <ele>1580.0</ele>
        <time>2018-09-16T12:37:46Z</time>
      </trkpt>
      <trkpt lat="40.251350" lon="-4.902150">
        <ele>1580.0</ele>
        <time>2018-09-16T12:37:47Z</time>
      </trkpt>
      <trkpt lat="40.251350" lon="-4.902233">
        <ele>1579.0</ele>
        <time>2018-09-16T12:37:48Z</time>
      </trkpt>
      <trkpt lat="40.251300" lon="-4.902317">
        <ele>1579.0</ele>
        <time>2018-09-16T12:37:49Z</time>
      </trkpt>
      <trkpt lat="40.251233" lon="-4.902367">
        <ele>1578.0</ele>
        <time>2018-09-16T12:37:50Z</time>
      </trkpt>
      <trkpt lat="40.251167" lon="-4.902400">
        <ele>1579.0</ele>
        <time>2018-09-16T12:37:51Z</time>
      </trkpt>
      <trkpt lat="40.251100" lon="-4.902417">
        <ele>1579.0</ele>
        <time>2018-09-16T12:37:52Z</time>
      </trkpt>
      <trkpt lat="40.251050" lon="-4.902433">
        <ele>1580.0</ele>
        <time>2018-09-16T12:37:53Z</time>
      </trkpt>
      <trkpt lat="40.251000" lon="-4.902450">
        <ele>1581.0</ele>
        <time>2018-09-16T12:37:54Z</time>
      </trkpt>
      <trkpt lat="40.250967" lon="-4.902467">
        <ele>1581.0</ele>
        <time>2018-09-16T12:37:55Z</time>
      </trkpt>
      <trkpt lat="40.250917" lon="-4.902483">
        <ele>1581.0</ele>
        <time>2018-09-16T12:37:56Z</time>
      </trkpt>
      <trkpt lat="40.250867" lon="-4.902500">
        <ele>1581.0</ele>
        <time>2018-09-16T12:37:57Z</time>
      </trkpt>
      <trkpt lat="40.250817" lon="-4.902533">
        <ele>1580.0</ele>
        <time>2018-09-16T12:37:58Z</time>
      </trkpt>
      <trkpt lat="40.250750" lon="-4.902567">
        <ele>1580.0</ele>
        <time>2018-09-16T12:37:59Z</time>
      </trkpt>
      <trkpt lat="40.250700" lon="-4.902583">
        <ele>1579.0</ele>
        <time>2018-09-16T12:38:00Z</time>
      </trkpt>
      <trkpt lat="40.250633" lon="-4.902600">
        <ele>1578.0</ele>
        <time>2018-09-16T12:38:01Z</time>
      </trkpt>
      <trkpt lat="40.250567" lon="-4.902583">
        <ele>1576.0</ele>
        <time>2018-09-16T12:38:02Z</time>
      </trkpt>
      <trkpt lat="40.250500" lon="-4.902583">
        <ele>1575.0</ele>
        <time>2018-09-16T12:38:03Z</time>
      </trkpt>
      <trkpt lat="40.250450" lon="-4.902600">
        <ele>1573.0</ele>
        <time>2018-09-16T12:38:04Z</time>
      </trkpt>
      <trkpt lat="40.250383" lon="-4.902633">
        <ele>1572.0</ele>
        <time>2018-09-16T12:38:05Z</time>
      </trkpt>
      <trkpt lat="40.250317" lon="-4.902667">
        <ele>1571.0</ele>
        <time>2018-09-16T12:38:06Z</time>
      </trkpt>
      <trkpt lat="40.250267" lon="-4.902717">
        <ele>1570.0</ele>
        <time>2018-09-16T12:38:07Z</time>
      </trkpt>
      <trkpt lat="40.250217" lon="-4.902750">
        <ele>1569.0</ele>
        <time>2018-09-16T12:38:08Z</time>
      </trkpt>
      <trkpt lat="40.250150" lon="-4.902767">
        <ele>1568.0</ele>
        <time>2018-09-16T12:38:09Z</time>
      </trkpt>
      <trkpt lat="40.250083" lon="-4.902767">
        <ele>1566.0</ele>
        <time>2018-09-16T12:38:10Z</time>
      </trkpt>
      <trkpt lat="40.250017" lon="-4.902783">
        <ele>1565.0</ele>
        <time>2018-09-16T12:38:11Z</time>
      </trkpt>
      <trkpt lat="40.249967" lon="-4.902833">
        <ele>1564.0</ele>
        <time>2018-09-16T12:38:12Z</time>
      </trkpt>
      <trkpt lat="40.249900" lon="-4.902867">
        <ele>1563.0</ele>
        <time>2018-09-16T12:38:13Z</time>
      </trkpt>
      <trkpt lat="40.249833" lon="-4.902917">
        <ele>1562.0</ele>
        <time>2018-09-16T12:38:14Z</time>
      </trkpt>
      <trkpt lat="40.249767" lon="-4.902967">
        <ele>1561.0</ele>
        <time>2018-09-16T12:38:15Z</time>
      </trkpt>
      <trkpt lat="40.249717" lon="-4.903000">
        <ele>1563.0</ele>
        <time>2018-09-16T12:38:16Z</time>
      </trkpt>
      <trkpt lat="40.249667" lon="-4.903033">
        <ele>1565.0</ele>
        <time>2018-09-16T12:38:17Z</time>
      </trkpt>
      <trkpt lat="40.249617" lon="-4.903067">
        <ele>1564.0</ele>
        <time>2018-09-16T12:38:18Z</time>
      </trkpt>
      <trkpt lat="40.249550" lon="-4.903117">
        <ele>1563.0</ele>
        <time>2018-09-16T12:38:19Z</time>
      </trkpt>
      <trkpt lat="40.249467" lon="-4.903167">
        <ele>1561.0</ele>
        <time>2018-09-16T12:38:20Z</time>
      </trkpt>
      <trkpt lat="40.249400" lon="-4.903217">
        <ele>1562.0</ele>
        <time>2018-09-16T12:38:21Z</time>
      </trkpt>
      <trkpt lat="40.249350" lon="-4.903250">
        <ele>1563.0</ele>
        <time>2018-09-16T12:38:22Z</time>
      </trkpt>
      <trkpt lat="40.249300" lon="-4.903283">
        <ele>1565.0</ele>
        <time>2018-09-16T12:38:23Z</time>
      </trkpt>
      <trkpt lat="40.249250" lon="-4.903317">
        <ele>1566.0</ele>
        <time>2018-09-16T12:38:24Z</time>
      </trkpt>
      <trkpt lat="40.249217" lon="-4.903350">
        <ele>1566.0</ele>
        <time>2018-09-16T12:38:25Z</time>
      </trkpt>
      <trkpt lat="40.249183" lon="-4.903383">
        <ele>1566.0</ele>
        <time>2018-09-16T12:38:26Z</time>
      </trkpt>
      <trkpt lat="40.249150" lon="-4.903433">
        <ele>1565.0</ele>
        <time>2018-09-16T12:38:27Z</time>
      </trkpt>
      <trkpt lat="40.249100" lon="-4.903467">
        <ele>1564.0</ele>
        <time>2018-09-16T12:38:28Z</time>
      </trkpt>
      <trkpt lat="40.249067" lon="-4.903533">
        <ele>1563.0</ele>
        <time>2018-09-16T12:38:29Z</time>
      </trkpt>
      <trkpt lat="40.249017" lon="-4.903600">
        <ele>1561.0</ele>
        <time>2018-09-16T12:38:30Z</time>
      </trkpt>
      <trkpt lat="40.248950" lon="-4.903650">
        <ele>1560.0</ele>
        <time>2018-09-16T12:38:31Z</time>
      </trkpt>
      <trkpt lat="40.248900" lon="-4.903700">
        <ele>1559.0</ele>
        <time>2018-09-16T12:38:32Z</time>
      </trkpt>
      <trkpt lat="40.248833" lon="-4.903733">
        <ele>1558.0</ele>
        <time>2018-09-16T12:38:33Z</time>
      </trkpt>
      <trkpt lat="40.248767" lon="-4.903750">
        <ele>1556.0</ele>
        <time>2018-09-16T12:38:34Z</time>
      </trkpt>
      <trkpt lat="40.248700" lon="-4.903767">
        <ele>1554.0</ele>
        <time>2018-09-16T12:38:35Z</time>
      </trkpt>
      <trkpt lat="40.248617" lon="-4.903783">
        <ele>1552.0</ele>
        <time>2018-09-16T12:38:36Z</time>
      </trkpt>
      <trkpt lat="40.248567" lon="-4.903817">
        <ele>1551.0</ele>
        <time>2018-09-16T12:38:37Z</time>
      </trkpt>
      <trkpt lat="40.248517" lon="-4.903817">
        <ele>1551.0</ele>
        <time>2018-09-16T12:38:38Z</time>
      </trkpt>
      <trkpt lat="40.248467" lon="-4.903817">
        <ele>1551.0</ele>
        <time>2018-09-16T12:38:39Z</time>
      </trkpt>
      <trkpt lat="40.248417" lon="-4.903817">
        <ele>1550.0</ele>
        <time>2018-09-16T12:38:40Z</time>
      </trkpt>
      <trkpt lat="40.248367" lon="-4.903800">
        <ele>1549.0</ele>
        <time>2018-09-16T12:38:41Z</time>
      </trkpt>
      <trkpt lat="40.248317" lon="-4.903817">
        <ele>1551.0</ele>
        <time>2018-09-16T12:38:42Z</time>
      </trkpt>
      <trkpt lat="40.248250" lon="-4.903833">
        <ele>1551.0</ele>
        <time>2018-09-16T12:38:43Z</time>
      </trkpt>
      <trkpt lat="40.248200" lon="-4.903867">
        <ele>1551.0</ele>
        <time>2018-09-16T12:38:44Z</time>
      </trkpt>
      <trkpt lat="40.248150" lon="-4.903900">
        <ele>1550.0</ele>
        <time>2018-09-16T12:38:45Z</time>
      </trkpt>
      <trkpt lat="40.248100" lon="-4.903950">
        <ele>1550.0</ele>
        <time>2018-09-16T12:38:46Z</time>
      </trkpt>
      <trkpt lat="40.248083" lon="-4.904017">
        <ele>1550.0</ele>
        <time>2018-09-16T12:38:47Z</time>
      </trkpt>
      <trkpt lat="40.248083" lon="-4.904083">
        <ele>1549.0</ele>
        <time>2018-09-16T12:38:48Z</time>
      </trkpt>
      <trkpt lat="40.248100" lon="-4.904167">
        <ele>1548.0</ele>
        <time>2018-09-16T12:38:49Z</time>
      </trkpt>
      <trkpt lat="40.248150" lon="-4.904250">
        <ele>1548.0</ele>
        <time>2018-09-16T12:38:50Z</time>
      </trkpt>
      <trkpt lat="40.248200" lon="-4.904317">
        <ele>1547.0</ele>
        <time>2018-09-16T12:38:51Z</time>
      </trkpt>
      <trkpt lat="40.248267" lon="-4.904383">
        <ele>1546.0</ele>
        <time>2018-09-16T12:38:52Z</time>
      </trkpt>
      <trkpt lat="40.248350" lon="-4.904417">
        <ele>1544.0</ele>
        <time>2018-09-16T12:38:53Z</time>
      </trkpt>
      <trkpt lat="40.248433" lon="-4.904467">
        <ele>1543.0</ele>
        <time>2018-09-16T12:38:54Z</time>
      </trkpt>
      <trkpt lat="40.248667" lon="-4.904600">
        <ele>1541.0</ele>
        <time>2018-09-16T12:38:56Z</time>
      </trkpt>
      <trkpt lat="40.248767" lon="-4.904650">
        <ele>1539.0</ele>
        <time>2018-09-16T12:38:57Z</time>
      </trkpt>
      <trkpt lat="40.248850" lon="-4.904700">
        <ele>1536.0</ele>
        <time>2018-09-16T12:38:58Z</time>
      </trkpt>
      <trkpt lat="40.248950" lon="-4.904750">
        <ele>1534.0</ele>
        <time>2018-09-16T12:38:59Z</time>
      </trkpt>
      <trkpt lat="40.249050" lon="-4.904817">
        <ele>1533.0</ele>
        <time>2018-09-16T12:39:00Z</time>
      </trkpt>
      <trkpt lat="40.249167" lon="-4.904900">
        <ele>1531.0</ele>
        <time>2018-09-16T12:39:01Z</time>
      </trkpt>
      <trkpt lat="40.249250" lon="-4.904967">
        <ele>1528.0</ele>
        <time>2018-09-16T12:39:02Z</time>
      </trkpt>
      <trkpt lat="40.249333" lon="-4.905033">
        <ele>1524.0</ele>
        <time>2018-09-16T12:39:03Z</time>
      </trkpt>
      <trkpt lat="40.249383" lon="-4.905083">
        <ele>1521.0</ele>
        <time>2018-09-16T12:39:04Z</time>
      </trkpt>
      <trkpt lat="40.249483" lon="-4.905133">
        <ele>1517.0</ele>
        <time>2018-09-16T12:39:05Z</time>
      </trkpt>
      <trkpt lat="40.249550" lon="-4.905183">
        <ele>1521.0</ele>
        <time>2018-09-16T12:39:06Z</time>
      </trkpt>
      <trkpt lat="40.249633" lon="-4.905250">
        <ele>1520.0</ele>
        <time>2018-09-16T12:39:07Z</time>
      </trkpt>
      <trkpt lat="40.249700" lon="-4.905317">
        <ele>1518.0</ele>
        <time>2018-09-16T12:39:08Z</time>
      </trkpt>
      <trkpt lat="40.249783" lon="-4.905383">
        <ele>1515.0</ele>
        <time>2018-09-16T12:39:09Z</time>
      </trkpt>
      <trkpt lat="40.249850" lon="-4.905433">
        <ele>1512.0</ele>
        <time>2018-09-16T12:39:10Z</time>
      </trkpt>
      <trkpt lat="40.249900" lon="-4.905483">
        <ele>1508.0</ele>
        <time>2018-09-16T12:39:11Z</time>
      </trkpt>
      <trkpt lat="40.249967" lon="-4.905533">
        <ele>1505.0</ele>
        <time>2018-09-16T12:39:12Z</time>
      </trkpt>
      <trkpt lat="40.250017" lon="-4.905583">
        <ele>1502.0</ele>
        <time>2018-09-16T12:39:13Z</time>
      </trkpt>
      <trkpt lat="40.250083" lon="-4.905650">
        <ele>1498.0</ele>
        <time>2018-09-16T12:39:14Z</time>
      </trkpt>
      <trkpt lat="40.250150" lon="-4.905700">
        <ele>1495.0</ele>
        <time>2018-09-16T12:39:15Z</time>
      </trkpt>
      <trkpt lat="40.250217" lon="-4.905767">
        <ele>1491.0</ele>
        <time>2018-09-16T12:39:16Z</time>
      </trkpt>
      <trkpt lat="40.250267" lon="-4.905817">
        <ele>1488.0</ele>
        <time>2018-09-16T12:39:17Z</time>
      </trkpt>
      <trkpt lat="40.250333" lon="-4.905867">
        <ele>1485.0</ele>
        <time>2018-09-16T12:39:18Z</time>
      </trkpt>
      <trkpt lat="40.250400" lon="-4.905933">
        <ele>1482.0</ele>
        <time>2018-09-16T12:39:19Z</time>
      </trkpt>
      <trkpt lat="40.250467" lon="-4.905983">
        <ele>1484.0</ele>
        <time>2018-09-16T12:39:20Z</time>
      </trkpt>
      <trkpt lat="40.250533" lon="-4.906050">
        <ele>1482.0</ele>
        <time>2018-09-16T12:39:21Z</time>
      </trkpt>
      <trkpt lat="40.250600" lon="-4.906133">
        <ele>1482.0</ele>
        <time>2018-09-16T12:39:22Z</time>
      </trkpt>
      <trkpt lat="40.250683" lon="-4.906200">
        <ele>1482.0</ele>
        <time>2018-09-16T12:39:23Z</time>
      </trkpt>
      <trkpt lat="40.250750" lon="-4.906250">
        <ele>1480.0</ele>
        <time>2018-09-16T12:39:24Z</time>
      </trkpt>
      <trkpt lat="40.250833" lon="-4.906317">
        <ele>1480.0</ele>
        <time>2018-09-16T12:39:25Z</time>
      </trkpt>
      <trkpt lat="40.250917" lon="-4.906400">
        <ele>1478.0</ele>
        <time>2018-09-16T12:39:26Z</time>
      </trkpt>
      <trkpt lat="40.251000" lon="-4.906467">
        <ele>1477.0</ele>
        <time>2018-09-16T12:39:27Z</time>
      </trkpt>
      <trkpt lat="40.251067" lon="-4.906550">
        <ele>1475.0</ele>
        <time>2018-09-16T12:39:28Z</time>
      </trkpt>
      <trkpt lat="40.251150" lon="-4.906617">
        <ele>1472.0</ele>
        <time>2018-09-16T12:39:29Z</time>
      </trkpt>
      <trkpt lat="40.251217" lon="-4.906683">
        <ele>1470.0</ele>
        <time>2018-09-16T12:39:30Z</time>
      </trkpt>
      <trkpt lat="40.251283" lon="-4.906733">
        <ele>1467.0</ele>
        <time>2018-09-16T12:39:31Z</time>
      </trkpt>
      <trkpt lat="40.251350" lon="-4.906800">
        <ele>1464.0</ele>
        <time>2018-09-16T12:39:32Z</time>
      </trkpt>
      <trkpt lat="40.251417" lon="-4.906883">
        <ele>1462.0</ele>
        <time>2018-09-16T12:39:33Z</time>
      </trkpt>
      <trkpt lat="40.251483" lon="-4.906950">
        <ele>1459.0</ele>
        <time>2018-09-16T12:39:34Z</time>
      </trkpt>
      <trkpt lat="40.251550" lon="-4.907033">
        <ele>1455.0</ele>
        <time>2018-09-16T12:39:35Z</time>
      </trkpt>
      <trkpt lat="40.251617" lon="-4.907117">
        <ele>1453.0</ele>
        <time>2018-09-16T12:39:36Z</time>
      </trkpt>
      <trkpt lat="40.251700" lon="-4.907200">
        <ele>1450.0</ele>
        <time>2018-09-16T12:39:37Z</time>
      </trkpt>
      <trkpt lat="40.251783" lon="-4.907267">
        <ele>1447.0</ele>
        <time>2018-09-16T12:39:38Z</time>
      </trkpt>
      <trkpt lat="40.251867" lon="-4.907333">
        <ele>1444.0</ele>
        <time>2018-09-16T12:39:39Z</time>
      </trkpt>
      <trkpt lat="40.251933" lon="-4.907400">
        <ele>1442.0</ele>
        <time>2018-09-16T12:39:40Z</time>
      </trkpt>
      <trkpt lat="40.252017" lon="-4.907467">
        <ele>1440.0</ele>
        <time>2018-09-16T12:39:41Z</time>
      </trkpt>
      <trkpt lat="40.252100" lon="-4.907517">
        <ele>1436.0</ele>
        <time>2018-09-16T12:39:42Z</time>
      </trkpt>
      <trkpt lat="40.252200" lon="-4.907583">
        <ele>1433.0</ele>
        <time>2018-09-16T12:39:43Z</time>
      </trkpt>
      <trkpt lat="40.252300" lon="-4.907667">
        <ele>1429.0</ele>
        <time>2018-09-16T12:39:44Z</time>
      </trkpt>
      <trkpt lat="40.252383" lon="-4.907733">
        <ele>1427.0</ele>
        <time>2018-09-16T12:39:45Z</time>
      </trkpt>
      <trkpt lat="40.252467" lon="-4.907817">
        <ele>1426.0</ele>
        <time>2018-09-16T12:39:46Z</time>
      </trkpt>
      <trkpt lat="40.252550" lon="-4.907883">
        <ele>1425.0</ele>
        <time>2018-09-16T12:39:47Z</time>
      </trkpt>
      <trkpt lat="40.252650" lon="-4.907933">
        <ele>1424.0</ele>
        <time>2018-09-16T12:39:48Z</time>
      </trkpt>
      <trkpt lat="40.252733" lon="-4.908017">
        <ele>1423.0</ele>
        <time>2018-09-16T12:39:49Z</time>
      </trkpt>
      <trkpt lat="40.252833" lon="-4.908083">
        <ele>1422.0</ele>
        <time>2018-09-16T12:39:50Z</time>
      </trkpt>
      <trkpt lat="40.252917" lon="-4.908150">
        <ele>1420.0</ele>
        <time>2018-09-16T12:39:51Z</time>
      </trkpt>
      <trkpt lat="40.253017" lon="-4.908200">
        <ele>1420.0</ele>
        <time>2018-09-16T12:39:52Z</time>
      </trkpt>
      <trkpt lat="40.253100" lon="-4.908267">
        <ele>1420.0</ele>
        <time>2018-09-16T12:39:53Z</time>
      </trkpt>
      <trkpt lat="40.253183" lon="-4.908317">
        <ele>1419.0</ele>
        <time>2018-09-16T12:39:54Z</time>
      </trkpt>
      <trkpt lat="40.253283" lon="-4.908383">
        <ele>1418.0</ele>
        <time>2018-09-16T12:39:55Z</time>
      </trkpt>
      <trkpt lat="40.253367" lon="-4.908450">
        <ele>1418.0</ele>
        <time>2018-09-16T12:39:56Z</time>
      </trkpt>
      <trkpt lat="40.253450" lon="-4.908533">
        <ele>1417.0</ele>
        <time>2018-09-16T12:39:57Z</time>
      </trkpt>
      <trkpt lat="40.253533" lon="-4.908583">
        <ele>1417.0</ele>
        <time>2018-09-16T12:39:58Z</time>
      </trkpt>
      <trkpt lat="40.253617" lon="-4.908633">
        <ele>1416.0</ele>
        <time>2018-09-16T12:39:59Z</time>
      </trkpt>
      <trkpt lat="40.253700" lon="-4.908683">
        <ele>1415.0</ele>
        <time>2018-09-16T12:40:00Z</time>
      </trkpt>
      <trkpt lat="40.253783" lon="-4.908750">
        <ele>1415.0</ele>
        <time>2018-09-16T12:40:01Z</time>
      </trkpt>
      <trkpt lat="40.253883" lon="-4.908800">
        <ele>1414.0</ele>
        <time>2018-09-16T12:40:02Z</time>
      </trkpt>
      <trkpt lat="40.253967" lon="-4.908867">
        <ele>1413.0</ele>
        <time>2018-09-16T12:40:03Z</time>
      </trkpt>
      <trkpt lat="40.254050" lon="-4.908917">
        <ele>1414.0</ele>
        <time>2018-09-16T12:40:04Z</time>
      </trkpt>
      <trkpt lat="40.254133" lon="-4.908967">
        <ele>1413.0</ele>
        <time>2018-09-16T12:40:05Z</time>
      </trkpt>
      <trkpt lat="40.254217" lon="-4.909000">
        <ele>1413.0</ele>
        <time>2018-09-16T12:40:06Z</time>
      </trkpt>
      <trkpt lat="40.254300" lon="-4.909067">
        <ele>1412.0</ele>
        <time>2018-09-16T12:40:07Z</time>
      </trkpt>
      <trkpt lat="40.254383" lon="-4.909117">
        <ele>1411.0</ele>
        <time>2018-09-16T12:40:08Z</time>
      </trkpt>
      <trkpt lat="40.254467" lon="-4.909183">
        <ele>1410.0</ele>
        <time>2018-09-16T12:40:09Z</time>
      </trkpt>
      <trkpt lat="40.254550" lon="-4.909250">
        <ele>1409.0</ele>
        <time>2018-09-16T12:40:10Z</time>
      </trkpt>
      <trkpt lat="40.254633" lon="-4.909300">
        <ele>1409.0</ele>
        <time>2018-09-16T12:40:11Z</time>
      </trkpt>
      <trkpt lat="40.254700" lon="-4.909367">
        <ele>1408.0</ele>
        <time>2018-09-16T12:40:12Z</time>
      </trkpt>
      <trkpt lat="40.254783" lon="-4.909417">
        <ele>1408.0</ele>
        <time>2018-09-16T12:40:13Z</time>
      </trkpt>
      <trkpt lat="40.254850" lon="-4.909467">
        <ele>1408.0</ele>
        <time>2018-09-16T12:40:14Z</time>
      </trkpt>
      <trkpt lat="40.254950" lon="-4.909517">
        <ele>1408.0</ele>
        <time>2018-09-16T12:40:15Z</time>
      </trkpt>
      <trkpt lat="40.255050" lon="-4.909567">
        <ele>1408.0</ele>
        <time>2018-09-16T12:40:16Z</time>
      </trkpt>
      <trkpt lat="40.255150" lon="-4.909633">
        <ele>1407.0</ele>
        <time>2018-09-16T12:40:17Z</time>
      </trkpt>
      <trkpt lat="40.255233" lon="-4.909683">
        <ele>1406.0</ele>
        <time>2018-09-16T12:40:18Z</time>
      </trkpt>
      <trkpt lat="40.255300" lon="-4.909750">
        <ele>1405.0</ele>
        <time>2018-09-16T12:40:19Z</time>
      </trkpt>
      <trkpt lat="40.255383" lon="-4.909800">
        <ele>1404.0</ele>
        <time>2018-09-16T12:40:20Z</time>
      </trkpt>
      <trkpt lat="40.255467" lon="-4.909867">
        <ele>1402.0</ele>
        <time>2018-09-16T12:40:21Z</time>
      </trkpt>
      <trkpt lat="40.255550" lon="-4.909933">
        <ele>1401.0</ele>
        <time>2018-09-16T12:40:22Z</time>
      </trkpt>
      <trkpt lat="40.255633" lon="-4.910000">
        <ele>1400.0</ele>
        <time>2018-09-16T12:40:23Z</time>
      </trkpt>
      <trkpt lat="40.255717" lon="-4.910067">
        <ele>1401.0</ele>
        <time>2018-09-16T12:40:24Z</time>
      </trkpt>
      <trkpt lat="40.255783" lon="-4.910133">
        <ele>1400.0</ele>
        <time>2018-09-16T12:40:25Z</time>
      </trkpt>
      <trkpt lat="40.255833" lon="-4.910217">
        <ele>1399.0</ele>
        <time>2018-09-16T12:40:26Z</time>
      </trkpt>
      <trkpt lat="40.255900" lon="-4.910317">
        <ele>1397.0</ele>
        <time>2018-09-16T12:40:27Z</time>
      </trkpt>
      <trkpt lat="40.255967" lon="-4.910400">
        <ele>1397.0</ele>
        <time>2018-09-16T12:40:28Z</time>
      </trkpt>
      <trkpt lat="40.256000" lon="-4.910500">
        <ele>1396.0</ele>
        <time>2018-09-16T12:40:29Z</time>
      </trkpt>
      <trkpt lat="40.256033" lon="-4.910600">
        <ele>1395.0</ele>
        <time>2018-09-16T12:40:30Z</time>
      </trkpt>
      <trkpt lat="40.256067" lon="-4.910683">
        <ele>1394.0</ele>
        <time>2018-09-16T12:40:31Z</time>
      </trkpt>
      <trkpt lat="40.256100" lon="-4.910783">
        <ele>1393.0</ele>
        <time>2018-09-16T12:40:32Z</time>
      </trkpt>
      <trkpt lat="40.256150" lon="-4.910883">
        <ele>1392.0</ele>
        <time>2018-09-16T12:40:33Z</time>
      </trkpt>
      <trkpt lat="40.256183" lon="-4.911000">
        <ele>1391.0</ele>
        <time>2018-09-16T12:40:34Z</time>
      </trkpt>
      <trkpt lat="40.256233" lon="-4.911117">
        <ele>1391.0</ele>
        <time>2018-09-16T12:40:35Z</time>
      </trkpt>
      <trkpt lat="40.256267" lon="-4.911217">
        <ele>1391.0</ele>
        <time>2018-09-16T12:40:36Z</time>
      </trkpt>
      <trkpt lat="40.256317" lon="-4.911333">
        <ele>1390.0</ele>
        <time>2018-09-16T12:40:37Z</time>
      </trkpt>
      <trkpt lat="40.256383" lon="-4.911433">
        <ele>1390.0</ele>
        <time>2018-09-16T12:40:38Z</time>
      </trkpt>
      <trkpt lat="40.256450" lon="-4.911533">
        <ele>1388.0</ele>
        <time>2018-09-16T12:40:39Z</time>
      </trkpt>
      <trkpt lat="40.256517" lon="-4.911650">
        <ele>1387.0</ele>
        <time>2018-09-16T12:40:40Z</time>
      </trkpt>
      <trkpt lat="40.256567" lon="-4.911750">
        <ele>1386.0</ele>
        <time>2018-09-16T12:40:41Z</time>
      </trkpt>
      <trkpt lat="40.256650" lon="-4.911850">
        <ele>1385.0</ele>
        <time>2018-09-16T12:40:42Z</time>
      </trkpt>
      <trkpt lat="40.256717" lon="-4.911917">
        <ele>1385.0</ele>
        <time>2018-09-16T12:40:43Z</time>
      </trkpt>
      <trkpt lat="40.256800" lon="-4.911983">
        <ele>1385.0</ele>
        <time>2018-09-16T12:40:44Z</time>
      </trkpt>
      <trkpt lat="40.256900" lon="-4.912050">
        <ele>1385.0</ele>
        <time>2018-09-16T12:40:45Z</time>
      </trkpt>
      <trkpt lat="40.256983" lon="-4.912100">
        <ele>1385.0</ele>
        <time>2018-09-16T12:40:46Z</time>
      </trkpt>
      <trkpt lat="40.257083" lon="-4.912133">
        <ele>1385.0</ele>
        <time>2018-09-16T12:40:47Z</time>
      </trkpt>
      <trkpt lat="40.257183" lon="-4.912183">
        <ele>1385.0</ele>
        <time>2018-09-16T12:40:48Z</time>
      </trkpt>
      <trkpt lat="40.257283" lon="-4.912233">
        <ele>1386.0</ele>
        <time>2018-09-16T12:40:49Z</time>
      </trkpt>
      <trkpt lat="40.257400" lon="-4.912267">
        <ele>1386.0</ele>
        <time>2018-09-16T12:40:50Z</time>
      </trkpt>
      <trkpt lat="40.257500" lon="-4.912300">
        <ele>1386.0</ele>
        <time>2018-09-16T12:40:51Z</time>
      </trkpt>
      <trkpt lat="40.257600" lon="-4.912317">
        <ele>1387.0</ele>
        <time>2018-09-16T12:40:52Z</time>
      </trkpt>
      <trkpt lat="40.257700" lon="-4.912333">
        <ele>1389.0</ele>
        <time>2018-09-16T12:40:53Z</time>
      </trkpt>
      <trkpt lat="40.257783" lon="-4.912333">
        <ele>1390.0</ele>
        <time>2018-09-16T12:40:54Z</time>
      </trkpt>
      <trkpt lat="40.257867" lon="-4.912317">
        <ele>1391.0</ele>
        <time>2018-09-16T12:40:55Z</time>
      </trkpt>
      <trkpt lat="40.257950" lon="-4.912317">
        <ele>1391.0</ele>
        <time>2018-09-16T12:40:56Z</time>
      </trkpt>
      <trkpt lat="40.258050" lon="-4.912317">
        <ele>1391.0</ele>
        <time>2018-09-16T12:40:57Z</time>
      </trkpt>
      <trkpt lat="40.258167" lon="-4.912300">
        <ele>1390.0</ele>
        <time>2018-09-16T12:40:58Z</time>
      </trkpt>
      <trkpt lat="40.258300" lon="-4.912300">
        <ele>1390.0</ele>
        <time>2018-09-16T12:40:59Z</time>
      </trkpt>
      <trkpt lat="40.258417" lon="-4.912300">
        <ele>1391.0</ele>
        <time>2018-09-16T12:41:00Z</time>
      </trkpt>
      <trkpt lat="40.258533" lon="-4.912317">
        <ele>1394.0</ele>
        <time>2018-09-16T12:41:01Z</time>
      </trkpt>
      <trkpt lat="40.258617" lon="-4.912317">
        <ele>1397.0</ele>
        <time>2018-09-16T12:41:02Z</time>
      </trkpt>
      <trkpt lat="40.258717" lon="-4.912333">
        <ele>1399.0</ele>
        <time>2018-09-16T12:41:03Z</time>
      </trkpt>
      <trkpt lat="40.258817" lon="-4.912333">
        <ele>1401.0</ele>
        <time>2018-09-16T12:41:04Z</time>
      </trkpt>
      <trkpt lat="40.258900" lon="-4.912333">
        <ele>1403.0</ele>
        <time>2018-09-16T12:41:05Z</time>
      </trkpt>
      <trkpt lat="40.259000" lon="-4.912367">
        <ele>1404.0</ele>
        <time>2018-09-16T12:41:06Z</time>
      </trkpt>
      <trkpt lat="40.259100" lon="-4.912417">
        <ele>1404.0</ele>
        <time>2018-09-16T12:41:07Z</time>
      </trkpt>
      <trkpt lat="40.259183" lon="-4.912467">
        <ele>1405.0</ele>
        <time>2018-09-16T12:41:08Z</time>
      </trkpt>
      <trkpt lat="40.259267" lon="-4.912550">
        <ele>1405.0</ele>
        <time>2018-09-16T12:41:09Z</time>
      </trkpt>
      <trkpt lat="40.259333" lon="-4.912650">
        <ele>1405.0</ele>
        <time>2018-09-16T12:41:10Z</time>
      </trkpt>
      <trkpt lat="40.259383" lon="-4.912767">
        <ele>1404.0</ele>
        <time>2018-09-16T12:41:11Z</time>
      </trkpt>
      <trkpt lat="40.259383" lon="-4.912900">
        <ele>1403.0</ele>
        <time>2018-09-16T12:41:12Z</time>
      </trkpt>
      <trkpt lat="40.259317" lon="-4.913000">
        <ele>1402.0</ele>
        <time>2018-09-16T12:41:13Z</time>
      </trkpt>
      <trkpt lat="40.259233" lon="-4.913067">
        <ele>1401.0</ele>
        <time>2018-09-16T12:41:14Z</time>
      </trkpt>
      <trkpt lat="40.259150" lon="-4.913083">
        <ele>1401.0</ele>
        <time>2018-09-16T12:41:15Z</time>
      </trkpt>
      <trkpt lat="40.259067" lon="-4.913050">
        <ele>1401.0</ele>
        <time>2018-09-16T12:41:16Z</time>
      </trkpt>
      <trkpt lat="40.259017" lon="-4.912983">
        <ele>1401.0</ele>
        <time>2018-09-16T12:41:17Z</time>
      </trkpt>
      <trkpt lat="40.258983" lon="-4.912883">
        <ele>1401.0</ele>
        <time>2018-09-16T12:41:18Z</time>
      </trkpt>
      <trkpt lat="40.258983" lon="-4.912783">
        <ele>1401.0</ele>
        <time>2018-09-16T12:41:19Z</time>
      </trkpt>
      <trkpt lat="40.259000" lon="-4.912700">
        <ele>1402.0</ele>
        <time>2018-09-16T12:41:20Z</time>
      </trkpt>
      <trkpt lat="40.259033" lon="-4.912600">
        <ele>1402.0</ele>
        <time>2018-09-16T12:41:21Z</time>
      </trkpt>
      <trkpt lat="40.259083" lon="-4.912517">
        <ele>1402.0</ele>
        <time>2018-09-16T12:41:22Z</time>
      </trkpt>
      <trkpt lat="40.259133" lon="-4.912417">
        <ele>1402.0</ele>
        <time>2018-09-16T12:41:23Z</time>
      </trkpt>
      <trkpt lat="40.259150" lon="-4.912317">
        <ele>1402.0</ele>
        <time>2018-09-16T12:41:24Z</time>
      </trkpt>
      <trkpt lat="40.259183" lon="-4.912233">
        <ele>1402.0</ele>
        <time>2018-09-16T12:41:25Z</time>
      </trkpt>
      <trkpt lat="40.259200" lon="-4.912117">
        <ele>1402.0</ele>
        <time>2018-09-16T12:41:26Z</time>
      </trkpt>
      <trkpt lat="40.259233" lon="-4.912017">
        <ele>1402.0</ele>
        <time>2018-09-16T12:41:27Z</time>
      </trkpt>
      <trkpt lat="40.259233" lon="-4.911900">
        <ele>1402.0</ele>
        <time>2018-09-16T12:41:28Z</time>
      </trkpt>
      <trkpt lat="40.259233" lon="-4.911800">
        <ele>1402.0</ele>
        <time>2018-09-16T12:41:29Z</time>
      </trkpt>
      <trkpt lat="40.259233" lon="-4.911683">
        <ele>1402.0</ele>
        <time>2018-09-16T12:41:30Z</time>
      </trkpt>
      <trkpt lat="40.259250" lon="-4.911583">
        <ele>1402.0</ele>
        <time>2018-09-16T12:41:31Z</time>
      </trkpt>
      <trkpt lat="40.259267" lon="-4.911483">
        <ele>1403.0</ele>
        <time>2018-09-16T12:41:32Z</time>
      </trkpt>
      <trkpt lat="40.259283" lon="-4.911383">
        <ele>1405.0</ele>
        <time>2018-09-16T12:41:33Z</time>
      </trkpt>
      <trkpt lat="40.259300" lon="-4.911300">
        <ele>1406.0</ele>
        <time>2018-09-16T12:41:34Z</time>
      </trkpt>
      <trkpt lat="40.259317" lon="-4.911200">
        <ele>1406.0</ele>
        <time>2018-09-16T12:41:35Z</time>
      </trkpt>
      <trkpt lat="40.259300" lon="-4.911117">
        <ele>1406.0</ele>
        <time>2018-09-16T12:41:36Z</time>
      </trkpt>
      <trkpt lat="40.259283" lon="-4.911033">
        <ele>1407.0</ele>
        <time>2018-09-16T12:41:37Z</time>
      </trkpt>
      <trkpt lat="40.259233" lon="-4.911000">
        <ele>1407.0</ele>
        <time>2018-09-16T12:41:38Z</time>
      </trkpt>
      <trkpt lat="40.259183" lon="-4.910983">
        <ele>1407.0</ele>
        <time>2018-09-16T12:41:39Z</time>
      </trkpt>
      <trkpt lat="40.258983" lon="-4.911133">
        <ele>1407.0</ele>
        <time>2018-09-16T12:41:42Z</time>
      </trkpt>
      <trkpt lat="40.258950" lon="-4.911217">
        <ele>1407.0</ele>
        <time>2018-09-16T12:41:43Z</time>
      </trkpt>
      <trkpt lat="40.258933" lon="-4.911317">
        <ele>1408.0</ele>
        <time>2018-09-16T12:41:44Z</time>
      </trkpt>
      <trkpt lat="40.258983" lon="-4.911517">
        <ele>1408.0</ele>
        <time>2018-09-16T12:41:46Z</time>
      </trkpt>
      <trkpt lat="40.259000" lon="-4.911633">
        <ele>1408.0</ele>
        <time>2018-09-16T12:41:47Z</time>
      </trkpt>
      <trkpt lat="40.259033" lon="-4.911733">
        <ele>1409.0</ele>
        <time>2018-09-16T12:41:48Z</time>
      </trkpt>
      <trkpt lat="40.259083" lon="-4.911817">
        <ele>1409.0</ele>
        <time>2018-09-16T12:41:49Z</time>
      </trkpt>
      <trkpt lat="40.259150" lon="-4.911917">
        <ele>1409.0</ele>
        <time>2018-09-16T12:41:50Z</time>
      </trkpt>
      <trkpt lat="40.259217" lon="-4.912017">
        <ele>1410.0</ele>
        <time>2018-09-16T12:41:51Z</time>
      </trkpt>
      <trkpt lat="40.259300" lon="-4.912100">
        <ele>1410.0</ele>
        <time>2018-09-16T12:41:52Z</time>
      </trkpt>
      <trkpt lat="40.259400" lon="-4.912183">
        <ele>1410.0</ele>
        <time>2018-09-16T12:41:53Z</time>
      </trkpt>
      <trkpt lat="40.259500" lon="-4.912250">
        <ele>1410.0</ele>
        <time>2018-09-16T12:41:54Z</time>
      </trkpt>
      <trkpt lat="40.259600" lon="-4.912300">
        <ele>1410.0</ele>
        <time>2018-09-16T12:41:55Z</time>
      </trkpt>
      <trkpt lat="40.259700" lon="-4.912350">
        <ele>1410.0</ele>
        <time>2018-09-16T12:41:56Z</time>
      </trkpt>
      <trkpt lat="40.259817" lon="-4.912417">
        <ele>1411.0</ele>
        <time>2018-09-16T12:41:57Z</time>
      </trkpt>
      <trkpt lat="40.259933" lon="-4.912483">
        <ele>1412.0</ele>
        <time>2018-09-16T12:41:58Z</time>
      </trkpt>
      <trkpt lat="40.260017" lon="-4.912550">
        <ele>1413.0</ele>
        <time>2018-09-16T12:41:59Z</time>
      </trkpt>
      <trkpt lat="40.260100" lon="-4.912600">
        <ele>1415.0</ele>
        <time>2018-09-16T12:42:00Z</time>
      </trkpt>
      <trkpt lat="40.260167" lon="-4.912650">
        <ele>1416.0</ele>
        <time>2018-09-16T12:42:01Z</time>
      </trkpt>
      <trkpt lat="40.260250" lon="-4.912700">
        <ele>1416.0</ele>
        <time>2018-09-16T12:42:02Z</time>
      </trkpt>
      <trkpt lat="40.260350" lon="-4.912783">
        <ele>1416.0</ele>
        <time>2018-09-16T12:42:03Z</time>
      </trkpt>
      <trkpt lat="40.260433" lon="-4.912883">
        <ele>1415.0</ele>
        <time>2018-09-16T12:42:04Z</time>
      </trkpt>
      <trkpt lat="40.260500" lon="-4.912983">
        <ele>1416.0</ele>
        <time>2018-09-16T12:42:05Z</time>
      </trkpt>
      <trkpt lat="40.260550" lon="-4.913083">
        <ele>1418.0</ele>
        <time>2018-09-16T12:42:06Z</time>
      </trkpt>
      <trkpt lat="40.260600" lon="-4.913167">
        <ele>1419.0</ele>
        <time>2018-09-16T12:42:07Z</time>
      </trkpt>
      <trkpt lat="40.260650" lon="-4.913267">
        <ele>1421.0</ele>
        <time>2018-09-16T12:42:08Z</time>
      </trkpt>
      <trkpt lat="40.260717" lon="-4.913367">
        <ele>1421.0</ele>
        <time>2018-09-16T12:42:09Z</time>
      </trkpt>
      <trkpt lat="40.260767" lon="-4.913450">
        <ele>1421.0</ele>
        <time>2018-09-16T12:42:10Z</time>
      </trkpt>
      <trkpt lat="40.260817" lon="-4.913550">
        <ele>1422.0</ele>
        <time>2018-09-16T12:42:11Z</time>
      </trkpt>
      <trkpt lat="40.260883" lon="-4.913650">
        <ele>1422.0</ele>
        <time>2018-09-16T12:42:12Z</time>
      </trkpt>
      <trkpt lat="40.260950" lon="-4.913750">
        <ele>1424.0</ele>
        <time>2018-09-16T12:42:13Z</time>
      </trkpt>
      <trkpt lat="40.261017" lon="-4.913850">
        <ele>1428.0</ele>
        <time>2018-09-16T12:42:14Z</time>
      </trkpt>
      <trkpt lat="40.261067" lon="-4.913917">
        <ele>1434.0</ele>
        <time>2018-09-16T12:42:15Z</time>
      </trkpt>
      <trkpt lat="40.261100" lon="-4.913967">
        <ele>1440.0</ele>
        <time>2018-09-16T12:42:16Z</time>
      </trkpt>
      <trkpt lat="40.261150" lon="-4.914033">
        <ele>1445.0</ele>
        <time>2018-09-16T12:42:17Z</time>
      </trkpt>
      <trkpt lat="40.261217" lon="-4.914100">
        <ele>1449.0</ele>
        <time>2018-09-16T12:42:18Z</time>
      </trkpt>
      <trkpt lat="40.261267" lon="-4.914183">
        <ele>1452.0</ele>
        <time>2018-09-16T12:42:19Z</time>
      </trkpt>
      <trkpt lat="40.261317" lon="-4.914283">
        <ele>1455.0</ele>
        <time>2018-09-16T12:42:20Z</time>
      </trkpt>
      <trkpt lat="40.261317" lon="-4.914350">
        <ele>1456.0</ele>
        <time>2018-09-16T12:42:21Z</time>
      </trkpt>
      <trkpt lat="40.261283" lon="-4.914400">
        <ele>1456.0</ele>
        <time>2018-09-16T12:42:22Z</time>
      </trkpt>
      <trkpt lat="40.261250" lon="-4.914400">
        <ele>1456.0</ele>
        <time>2018-09-16T12:42:23Z</time>
      </trkpt>
      <trkpt lat="40.261233" lon="-4.914333">
        <ele>1458.0</ele>
        <time>2018-09-16T12:42:24Z</time>
      </trkpt>
      <trkpt lat="40.261267" lon="-4.914233">
        <ele>1460.0</ele>
        <time>2018-09-16T12:42:25Z</time>
      </trkpt>
      <trkpt lat="40.261333" lon="-4.914117">
        <ele>1461.0</ele>
        <time>2018-09-16T12:42:26Z</time>
      </trkpt>
      <trkpt lat="40.261433" lon="-4.914000">
        <ele>1463.0</ele>
        <time>2018-09-16T12:42:27Z</time>
      </trkpt>
      <trkpt lat="40.261550" lon="-4.913900">
        <ele>1467.0</ele>
        <time>2018-09-16T12:42:28Z</time>
      </trkpt>
      <trkpt lat="40.261683" lon="-4.913833">
        <ele>1472.0</ele>
        <time>2018-09-16T12:42:29Z</time>
      </trkpt>
      <trkpt lat="40.261783" lon="-4.913800">
        <ele>1478.0</ele>
        <time>2018-09-16T12:42:30Z</time>
      </trkpt>
      <trkpt lat="40.261883" lon="-4.913800">
        <ele>1482.0</ele>
        <time>2018-09-16T12:42:31Z</time>
      </trkpt>
      <trkpt lat="40.261983" lon="-4.913850">
        <ele>1486.0</ele>
        <time>2018-09-16T12:42:32Z</time>
      </trkpt>
      <trkpt lat="40.262067" lon="-4.913917">
        <ele>1489.0</ele>
        <time>2018-09-16T12:42:33Z</time>
      </trkpt>
      <trkpt lat="40.262133" lon="-4.914000">
        <ele>1491.0</ele>
        <time>2018-09-16T12:42:34Z</time>
      </trkpt>
      <trkpt lat="40.262150" lon="-4.914100">
        <ele>1494.0</ele>
        <time>2018-09-16T12:42:35Z</time>
      </trkpt>
      <trkpt lat="40.262150" lon="-4.914167">
        <ele>1496.0</ele>
        <time>2018-09-16T12:42:36Z</time>
      </trkpt>
      <trkpt lat="40.262117" lon="-4.914183">
        <ele>1498.0</ele>
        <time>2018-09-16T12:42:37Z</time>
      </trkpt>
      <trkpt lat="40.262083" lon="-4.914117">
        <ele>1500.0</ele>
        <time>2018-09-16T12:42:38Z</time>
      </trkpt>
      <trkpt lat="40.262067" lon="-4.914017">
        <ele>1503.0</ele>
        <time>2018-09-16T12:42:39Z</time>
      </trkpt>
      <trkpt lat="40.262100" lon="-4.913883">
        <ele>1505.0</ele>
        <time>2018-09-16T12:42:40Z</time>
      </trkpt>
      <trkpt lat="40.262150" lon="-4.913767">
        <ele>1508.0</ele>
        <time>2018-09-16T12:42:41Z</time>
      </trkpt>
      <trkpt lat="40.262217" lon="-4.913667">
        <ele>1513.0</ele>
        <time>2018-09-16T12:42:42Z</time>
      </trkpt>
      <trkpt lat="40.262317" lon="-4.913617">
        <ele>1517.0</ele>
        <time>2018-09-16T12:42:43Z</time>
      </trkpt>
      <trkpt lat="40.262417" lon="-4.913600">
        <ele>1520.0</ele>
        <time>2018-09-16T12:42:44Z</time>
      </trkpt>
      <trkpt lat="40.262533" lon="-4.913633">
        <ele>1522.0</ele>
        <time>2018-09-16T12:42:45Z</time>
      </trkpt>
      <trkpt lat="40.262617" lon="-4.913717">
        <ele>1524.0</ele>
        <time>2018-09-16T12:42:46Z</time>
      </trkpt>
      <trkpt lat="40.262667" lon="-4.913817">
        <ele>1526.0</ele>
        <time>2018-09-16T12:42:47Z</time>
      </trkpt>
      <trkpt lat="40.262667" lon="-4.913900">
        <ele>1527.0</ele>
        <time>2018-09-16T12:42:48Z</time>
      </trkpt>
      <trkpt lat="40.262633" lon="-4.913950">
        <ele>1528.0</ele>
        <time>2018-09-16T12:42:49Z</time>
      </trkpt>
      <trkpt lat="40.262567" lon="-4.913933">
        <ele>1530.0</ele>
        <time>2018-09-16T12:42:50Z</time>
      </trkpt>
      <trkpt lat="40.262550" lon="-4.913883">
        <ele>1535.0</ele>
        <time>2018-09-16T12:42:51Z</time>
      </trkpt>
      <trkpt lat="40.262550" lon="-4.913767">
        <ele>1538.0</ele>
        <time>2018-09-16T12:42:52Z</time>
      </trkpt>
      <trkpt lat="40.262600" lon="-4.913650">
        <ele>1541.0</ele>
        <time>2018-09-16T12:42:53Z</time>
      </trkpt>
      <trkpt lat="40.262700" lon="-4.913533">
        <ele>1544.0</ele>
        <time>2018-09-16T12:42:54Z</time>
      </trkpt>
      <trkpt lat="40.262833" lon="-4.913500">
        <ele>1545.0</ele>
        <time>2018-09-16T12:42:55Z</time>
      </trkpt>
      <trkpt lat="40.262950" lon="-4.913533">
        <ele>1547.0</ele>
        <time>2018-09-16T12:42:56Z</time>
      </trkpt>
      <trkpt lat="40.263017" lon="-4.913633">
        <ele>1547.0</ele>
        <time>2018-09-16T12:42:57Z</time>
      </trkpt>
      <trkpt lat="40.263033" lon="-4.913750">
        <ele>1547.0</ele>
        <time>2018-09-16T12:42:58Z</time>
      </trkpt>
      <trkpt lat="40.262983" lon="-4.913800">
        <ele>1547.0</ele>
        <time>2018-09-16T12:42:59Z</time>
      </trkpt>
      <trkpt lat="40.262917" lon="-4.913767">
        <ele>1549.0</ele>
        <time>2018-09-16T12:43:00Z</time>
      </trkpt>
      <trkpt lat="40.262900" lon="-4.913683">
        <ele>1553.0</ele>
        <time>2018-09-16T12:43:01Z</time>
      </trkpt>
      <trkpt lat="40.262933" lon="-4.913550">
        <ele>1555.0</ele>
        <time>2018-09-16T12:43:02Z</time>
      </trkpt>
      <trkpt lat="40.263000" lon="-4.913433">
        <ele>1559.0</ele>
        <time>2018-09-16T12:43:03Z</time>
      </trkpt>
      <trkpt lat="40.263083" lon="-4.913333">
        <ele>1563.0</ele>
        <time>2018-09-16T12:43:04Z</time>
      </trkpt>
      <trkpt lat="40.263183" lon="-4.913250">
        <ele>1567.0</ele>
        <time>2018-09-16T12:43:05Z</time>
      </trkpt>
      <trkpt lat="40.263267" lon="-4.913200">
        <ele>1571.0</ele>
        <time>2018-09-16T12:43:06Z</time>
      </trkpt>
      <trkpt lat="40.263383" lon="-4.913150">
        <ele>1574.0</ele>
        <time>2018-09-16T12:43:07Z</time>
      </trkpt>
      <trkpt lat="40.263483" lon="-4.913133">
        <ele>1576.0</ele>
        <time>2018-09-16T12:43:08Z</time>
      </trkpt>
      <trkpt lat="40.263583" lon="-4.913167">
        <ele>1579.0</ele>
        <time>2018-09-16T12:43:09Z</time>
      </trkpt>
      <trkpt lat="40.263667" lon="-4.913233">
        <ele>1582.0</ele>
        <time>2018-09-16T12:43:10Z</time>
      </trkpt>
      <trkpt lat="40.263717" lon="-4.913333">
        <ele>1583.0</ele>
        <time>2018-09-16T12:43:11Z</time>
      </trkpt>
      <trkpt lat="40.263717" lon="-4.913417">
        <ele>1585.0</ele>
        <time>2018-09-16T12:43:12Z</time>
      </trkpt>
      <trkpt lat="40.263667" lon="-4.913483">
        <ele>1586.0</ele>
        <time>2018-09-16T12:43:13Z</time>
      </trkpt>
      <trkpt lat="40.263633" lon="-4.913517">
        <ele>1589.0</ele>
        <time>2018-09-16T12:43:14Z</time>
      </trkpt>
      <trkpt lat="40.263583" lon="-4.913517">
        <ele>1592.0</ele>
        <time>2018-09-16T12:43:15Z</time>
      </trkpt>
      <trkpt lat="40.263550" lon="-4.913500">
        <ele>1596.0</ele>
        <time>2018-09-16T12:43:16Z</time>
      </trkpt>
      <trkpt lat="40.263533" lon="-4.913467">
        <ele>1599.0</ele>
        <time>2018-09-16T12:43:17Z</time>
      </trkpt>
      <trkpt lat="40.263500" lon="-4.913433">
        <ele>1602.0</ele>
        <time>2018-09-16T12:43:18Z</time>
      </trkpt>
      <trkpt lat="40.263467" lon="-4.913383">
        <ele>1604.0</ele>
        <time>2018-09-16T12:43:19Z</time>
      </trkpt>
      <trkpt lat="40.263417" lon="-4.913333">
        <ele>1607.0</ele>
        <time>2018-09-16T12:43:20Z</time>
      </trkpt>
      <trkpt lat="40.263350" lon="-4.913283">
        <ele>1610.0</ele>
        <time>2018-09-16T12:43:21Z</time>
      </trkpt>
      <trkpt lat="40.263300" lon="-4.913267">
        <ele>1614.0</ele>
        <time>2018-09-16T12:43:22Z</time>
      </trkpt>
      <trkpt lat="40.263250" lon="-4.913267">
        <ele>1619.0</ele>
        <time>2018-09-16T12:43:23Z</time>
      </trkpt>
      <trkpt lat="40.263217" lon="-4.913267">
        <ele>1624.0</ele>
        <time>2018-09-16T12:43:24Z</time>
      </trkpt>
      <trkpt lat="40.263167" lon="-4.913300">
        <ele>1621.0</ele>
        <time>2018-09-16T12:43:26Z</time>
      </trkpt>
      <trkpt lat="40.263117" lon="-4.913317">
        <ele>1624.0</ele>
        <time>2018-09-16T12:43:27Z</time>
      </trkpt>
      <trkpt lat="40.263083" lon="-4.913350">
        <ele>1626.0</ele>
        <time>2018-09-16T12:43:28Z</time>
      </trkpt>
      <trkpt lat="40.263050" lon="-4.913417">
        <ele>1629.0</ele>
        <time>2018-09-16T12:43:29Z</time>
      </trkpt>
      <trkpt lat="40.263033" lon="-4.913500">
        <ele>1631.0</ele>
        <time>2018-09-16T12:43:30Z</time>
      </trkpt>
      <trkpt lat="40.263017" lon="-4.913633">
        <ele>1633.0</ele>
        <time>2018-09-16T12:43:31Z</time>
      </trkpt>
      <trkpt lat="40.263017" lon="-4.913783">
        <ele>1634.0</ele>
        <time>2018-09-16T12:43:32Z</time>
      </trkpt>
      <trkpt lat="40.263083" lon="-4.913900">
        <ele>1635.0</ele>
        <time>2018-09-16T12:43:33Z</time>
      </trkpt>
      <trkpt lat="40.263183" lon="-4.914000">
        <ele>1636.0</ele>
        <time>2018-09-16T12:43:34Z</time>
      </trkpt>
      <trkpt lat="40.263317" lon="-4.914050">
        <ele>1638.0</ele>
        <time>2018-09-16T12:43:35Z</time>
      </trkpt>
      <trkpt lat="40.263450" lon="-4.914050">
        <ele>1640.0</ele>
        <time>2018-09-16T12:43:36Z</time>
      </trkpt>
      <trkpt lat="40.263550" lon="-4.913983">
        <ele>1644.0</ele>
        <time>2018-09-16T12:43:37Z</time>
      </trkpt>
      <trkpt lat="40.263633" lon="-4.913900">
        <ele>1646.0</ele>
        <time>2018-09-16T12:43:38Z</time>
      </trkpt>
      <trkpt lat="40.263667" lon="-4.913783">
        <ele>1650.0</ele>
        <time>2018-09-16T12:43:39Z</time>
      </trkpt>
      <trkpt lat="40.263650" lon="-4.913700">
        <ele>1653.0</ele>
        <time>2018-09-16T12:43:40Z</time>
      </trkpt>
      <trkpt lat="40.263500" lon="-4.913783">
        <ele>1652.0</ele>
        <time>2018-09-16T12:43:43Z</time>
      </trkpt>
      <trkpt lat="40.263500" lon="-4.913883">
        <ele>1654.0</ele>
        <time>2018-09-16T12:43:44Z</time>
      </trkpt>
      <trkpt lat="40.263517" lon="-4.914000">
        <ele>1655.0</ele>
        <time>2018-09-16T12:43:45Z</time>
      </trkpt>
      <trkpt lat="40.263550" lon="-4.914150">
        <ele>1655.0</ele>
        <time>2018-09-16T12:43:46Z</time>
      </trkpt>
      <trkpt lat="40.263567" lon="-4.914300">
        <ele>1656.0</ele>
        <time>2018-09-16T12:43:47Z</time>
      </trkpt>
      <trkpt lat="40.263617" lon="-4.914450">
        <ele>1656.0</ele>
        <time>2018-09-16T12:43:48Z</time>
      </trkpt>
      <trkpt lat="40.263733" lon="-4.914583">
        <ele>1657.0</ele>
        <time>2018-09-16T12:43:49Z</time>
      </trkpt>
      <trkpt lat="40.263867" lon="-4.914633">
        <ele>1658.0</ele>
        <time>2018-09-16T12:43:50Z</time>
      </trkpt>
      <trkpt lat="40.264000" lon="-4.914633">
        <ele>1659.0</ele>
        <time>2018-09-16T12:43:51Z</time>
      </trkpt>
      <trkpt lat="40.264233" lon="-4.914500">
        <ele>1663.0</ele>
        <time>2018-09-16T12:43:53Z</time>
      </trkpt>
      <trkpt lat="40.264300" lon="-4.914400">
        <ele>1665.0</ele>
        <time>2018-09-16T12:43:54Z</time>
      </trkpt>
      <trkpt lat="40.264300" lon="-4.914333">
        <ele>1669.0</ele>
        <time>2018-09-16T12:43:55Z</time>
      </trkpt>
      <trkpt lat="40.264267" lon="-4.914283">
        <ele>1665.0</ele>
        <time>2018-09-16T12:43:56Z</time>
      </trkpt>
      <trkpt lat="40.264150" lon="-4.914383">
        <ele>1667.0</ele>
        <time>2018-09-16T12:43:58Z</time>
      </trkpt>
      <trkpt lat="40.264117" lon="-4.914600">
        <ele>1672.0</ele>
        <time>2018-09-16T12:44:00Z</time>
      </trkpt>
      <trkpt lat="40.264133" lon="-4.914750">
        <ele>1674.0</ele>
        <time>2018-09-16T12:44:01Z</time>
      </trkpt>
      <trkpt lat="40.264200" lon="-4.914883">
        <ele>1676.0</ele>
        <time>2018-09-16T12:44:02Z</time>
      </trkpt>
      <trkpt lat="40.264283" lon="-4.915017">
        <ele>1677.0</ele>
        <time>2018-09-16T12:44:03Z</time>
      </trkpt>
      <trkpt lat="40.264433" lon="-4.915117">
        <ele>1678.0</ele>
        <time>2018-09-16T12:44:04Z</time>
      </trkpt>
      <trkpt lat="40.264600" lon="-4.915167">
        <ele>1680.0</ele>
        <time>2018-09-16T12:44:05Z</time>
      </trkpt>
      <trkpt lat="40.264717" lon="-4.915117">
        <ele>1681.0</ele>
        <time>2018-09-16T12:44:06Z</time>
      </trkpt>
      <trkpt lat="40.264850" lon="-4.915017">
        <ele>1682.0</ele>
        <time>2018-09-16T12:44:07Z</time>
      </trkpt>
      <trkpt lat="40.264967" lon="-4.914900">
        <ele>1684.0</ele>
        <time>2018-09-16T12:44:08Z</time>
      </trkpt>
      <trkpt lat="40.265050" lon="-4.914767">
        <ele>1687.0</ele>
        <time>2018-09-16T12:44:09Z</time>
      </trkpt>
      <trkpt lat="40.265100" lon="-4.914617">
        <ele>1691.0</ele>
        <time>2018-09-16T12:44:10Z</time>
      </trkpt>
      <trkpt lat="40.265100" lon="-4.914500">
        <ele>1697.0</ele>
        <time>2018-09-16T12:44:11Z</time>
      </trkpt>
      <trkpt lat="40.265133" lon="-4.914400">
        <ele>1701.0</ele>
        <time>2018-09-16T12:44:12Z</time>
      </trkpt>
      <trkpt lat="40.265150" lon="-4.914283">
        <ele>1696.0</ele>
        <time>2018-09-16T12:44:13Z</time>
      </trkpt>
      <trkpt lat="40.265150" lon="-4.914150">
        <ele>1698.0</ele>
        <time>2018-09-16T12:44:14Z</time>
      </trkpt>
      <trkpt lat="40.265133" lon="-4.914033">
        <ele>1700.0</ele>
        <time>2018-09-16T12:44:15Z</time>
      </trkpt>
      <trkpt lat="40.265083" lon="-4.913967">
        <ele>1702.0</ele>
        <time>2018-09-16T12:44:16Z</time>
      </trkpt>
      <trkpt lat="40.265017" lon="-4.913983">
        <ele>1701.0</ele>
        <time>2018-09-16T12:44:17Z</time>
      </trkpt>
      <trkpt lat="40.264983" lon="-4.914050">
        <ele>1703.0</ele>
        <time>2018-09-16T12:44:18Z</time>
      </trkpt>
      <trkpt lat="40.264983" lon="-4.914150">
        <ele>1703.0</ele>
        <time>2018-09-16T12:44:19Z</time>
      </trkpt>
      <trkpt lat="40.265033" lon="-4.914283">
        <ele>1704.0</ele>
        <time>2018-09-16T12:44:20Z</time>
      </trkpt>
      <trkpt lat="40.265133" lon="-4.914383">
        <ele>1705.0</ele>
        <time>2018-09-16T12:44:21Z</time>
      </trkpt>
      <trkpt lat="40.265267" lon="-4.914450">
        <ele>1706.0</ele>
        <time>2018-09-16T12:44:22Z</time>
      </trkpt>
      <trkpt lat="40.265400" lon="-4.914467">
        <ele>1708.0</ele>
        <time>2018-09-16T12:44:23Z</time>
      </trkpt>
      <trkpt lat="40.265517" lon="-4.914417">
        <ele>1712.0</ele>
        <time>2018-09-16T12:44:24Z</time>
      </trkpt>
      <trkpt lat="40.265633" lon="-4.914300">
        <ele>1714.0</ele>
        <time>2018-09-16T12:44:25Z</time>
      </trkpt>
      <trkpt lat="40.265683" lon="-4.914133">
        <ele>1716.0</ele>
        <time>2018-09-16T12:44:26Z</time>
      </trkpt>
      <trkpt lat="40.265667" lon="-4.913983">
        <ele>1719.0</ele>
        <time>2018-09-16T12:44:27Z</time>
      </trkpt>
      <trkpt lat="40.265617" lon="-4.913850">
        <ele>1722.0</ele>
        <time>2018-09-16T12:44:28Z</time>
      </trkpt>
      <trkpt lat="40.265500" lon="-4.913800">
        <ele>1724.0</ele>
        <time>2018-09-16T12:44:29Z</time>
      </trkpt>
      <trkpt lat="40.265400" lon="-4.913850">
        <ele>1727.0</ele>
        <time>2018-09-16T12:44:30Z</time>
      </trkpt>
      <trkpt lat="40.265367" lon="-4.913950">
        <ele>1731.0</ele>
        <time>2018-09-16T12:44:31Z</time>
      </trkpt>
      <trkpt lat="40.265400" lon="-4.914083">
        <ele>1734.0</ele>
        <time>2018-09-16T12:44:32Z</time>
      </trkpt>
      <trkpt lat="40.265467" lon="-4.914200">
        <ele>1730.0</ele>
        <time>2018-09-16T12:44:33Z</time>
      </trkpt>
      <trkpt lat="40.265567" lon="-4.914300">
        <ele>1731.0</ele>
        <time>2018-09-16T12:44:34Z</time>
      </trkpt>
      <trkpt lat="40.265683" lon="-4.914367">
        <ele>1732.0</ele>
        <time>2018-09-16T12:44:35Z</time>
      </trkpt>
      <trkpt lat="40.265833" lon="-4.914383">
        <ele>1734.0</ele>
        <time>2018-09-16T12:44:36Z</time>
      </trkpt>
      <trkpt lat="40.265967" lon="-4.914350">
        <ele>1736.0</ele>
        <time>2018-09-16T12:44:37Z</time>
      </trkpt>
      <trkpt lat="40.266083" lon="-4.914283">
        <ele>1740.0</ele>
        <time>2018-09-16T12:44:38Z</time>
      </trkpt>
      <trkpt lat="40.266150" lon="-4.914167">
        <ele>1744.0</ele>
        <time>2018-09-16T12:44:39Z</time>
      </trkpt>
      <trkpt lat="40.266217" lon="-4.914017">
        <ele>1747.0</ele>
        <time>2018-09-16T12:44:40Z</time>
      </trkpt>
      <trkpt lat="40.266250" lon="-4.913867">
        <ele>1751.0</ele>
        <time>2018-09-16T12:44:41Z</time>
      </trkpt>
      <trkpt lat="40.266250" lon="-4.913750">
        <ele>1756.0</ele>
        <time>2018-09-16T12:44:42Z</time>
      </trkpt>
      <trkpt lat="40.266233" lon="-4.913667">
        <ele>1760.0</ele>
        <time>2018-09-16T12:44:43Z</time>
      </trkpt>
      <trkpt lat="40.266150" lon="-4.913600">
        <ele>1755.0</ele>
        <time>2018-09-16T12:44:44Z</time>
      </trkpt>
      <trkpt lat="40.266067" lon="-4.913600">
        <ele>1756.0</ele>
        <time>2018-09-16T12:44:45Z</time>
      </trkpt>
      <trkpt lat="40.265983" lon="-4.913667">
        <ele>1757.0</ele>
        <time>2018-09-16T12:44:46Z</time>
      </trkpt>
      <trkpt lat="40.265933" lon="-4.913767">
        <ele>1759.0</ele>
        <time>2018-09-16T12:44:47Z</time>
      </trkpt>
      <trkpt lat="40.265917" lon="-4.913900">
        <ele>1761.0</ele>
        <time>2018-09-16T12:44:48Z</time>
      </trkpt>
      <trkpt lat="40.265983" lon="-4.914000">
        <ele>1763.0</ele>
        <time>2018-09-16T12:44:49Z</time>
      </trkpt>
      <trkpt lat="40.266100" lon="-4.914033">
        <ele>1764.0</ele>
        <time>2018-09-16T12:44:50Z</time>
      </trkpt>
      <trkpt lat="40.266233" lon="-4.913983">
        <ele>1764.0</ele>
        <time>2018-09-16T12:44:51Z</time>
      </trkpt>
      <trkpt lat="40.266317" lon="-4.913850">
        <ele>1765.0</ele>
        <time>2018-09-16T12:44:52Z</time>
      </trkpt>
      <trkpt lat="40.266400" lon="-4.913750">
        <ele>1767.0</ele>
        <time>2018-09-16T12:44:53Z</time>
      </trkpt>
      <trkpt lat="40.266483" lon="-4.913667">
        <ele>1771.0</ele>
        <time>2018-09-16T12:44:54Z</time>
      </trkpt>
      <trkpt lat="40.266550" lon="-4.913600">
        <ele>1775.0</ele>
        <time>2018-09-16T12:44:55Z</time>
      </trkpt>
      <trkpt lat="40.266617" lon="-4.913517">
        <ele>1775.0</ele>
        <time>2018-09-16T12:44:56Z</time>
      </trkpt>
      <trkpt lat="40.266667" lon="-4.913383">
        <ele>1776.0</ele>
        <time>2018-09-16T12:44:57Z</time>
      </trkpt>
      <trkpt lat="40.266667" lon="-4.913233">
        <ele>1777.0</ele>
        <time>2018-09-16T12:44:58Z</time>
      </trkpt>
      <trkpt lat="40.266633" lon="-4.913133">
        <ele>1778.0</ele>
        <time>2018-09-16T12:44:59Z</time>
      </trkpt>
      <trkpt lat="40.266583" lon="-4.913033">
        <ele>1779.0</ele>
        <time>2018-09-16T12:45:00Z</time>
      </trkpt>
      <trkpt lat="40.266550" lon="-4.912950">
        <ele>1783.0</ele>
        <time>2018-09-16T12:45:01Z</time>
      </trkpt>
      <trkpt lat="40.266517" lon="-4.912867">
        <ele>1788.0</ele>
        <time>2018-09-16T12:45:02Z</time>
      </trkpt>
      <trkpt lat="40.266500" lon="-4.912733">
        <ele>1791.0</ele>
        <time>2018-09-16T12:45:03Z</time>
      </trkpt>
      <trkpt lat="40.266467" lon="-4.912600">
        <ele>1794.0</ele>
        <time>2018-09-16T12:45:04Z</time>
      </trkpt>
      <trkpt lat="40.266450" lon="-4.912483">
        <ele>1797.0</ele>
        <time>2018-09-16T12:45:05Z</time>
      </trkpt>
      <trkpt lat="40.266417" lon="-4.912383">
        <ele>1801.0</ele>
        <time>2018-09-16T12:45:06Z</time>
      </trkpt>
      <trkpt lat="40.266400" lon="-4.912300">
        <ele>1804.0</ele>
        <time>2018-09-16T12:45:07Z</time>
      </trkpt>
      <trkpt lat="40.266383" lon="-4.912200">
        <ele>1807.0</ele>
        <time>2018-09-16T12:45:08Z</time>
      </trkpt>
      <trkpt lat="40.266367" lon="-4.912100">
        <ele>1810.0</ele>
        <time>2018-09-16T12:45:09Z</time>
      </trkpt>
      <trkpt lat="40.266333" lon="-4.912000">
        <ele>1813.0</ele>
        <time>2018-09-16T12:45:10Z</time>
      </trkpt>
      <trkpt lat="40.266300" lon="-4.911900">
        <ele>1816.0</ele>
        <time>2018-09-16T12:45:11Z</time>
      </trkpt>
      <trkpt lat="40.266250" lon="-4.911867">
        <ele>1812.0</ele>
        <time>2018-09-16T12:45:12Z</time>
      </trkpt>
      <trkpt lat="40.266183" lon="-4.911900">
        <ele>1813.0</ele>
        <time>2018-09-16T12:45:13Z</time>
      </trkpt>
      <trkpt lat="40.266133" lon="-4.912000">
        <ele>1814.0</ele>
        <time>2018-09-16T12:45:14Z</time>
      </trkpt>
      <trkpt lat="40.266117" lon="-4.912117">
        <ele>1815.0</ele>
        <time>2018-09-16T12:45:15Z</time>
      </trkpt>
      <trkpt lat="40.266167" lon="-4.912233">
        <ele>1817.0</ele>
        <time>2018-09-16T12:45:16Z</time>
      </trkpt>
      <trkpt lat="40.266250" lon="-4.912283">
        <ele>1817.0</ele>
        <time>2018-09-16T12:45:17Z</time>
      </trkpt>
      <trkpt lat="40.266367" lon="-4.912283">
        <ele>1817.0</ele>
        <time>2018-09-16T12:45:18Z</time>
      </trkpt>
      <trkpt lat="40.266467" lon="-4.912200">
        <ele>1818.0</ele>
        <time>2018-09-16T12:45:19Z</time>
      </trkpt>
      <trkpt lat="40.266500" lon="-4.912067">
        <ele>1818.0</ele>
        <time>2018-09-16T12:45:20Z</time>
      </trkpt>
      <trkpt lat="40.266483" lon="-4.911933">
        <ele>1818.0</ele>
        <time>2018-09-16T12:45:21Z</time>
      </trkpt>
      <trkpt lat="40.266417" lon="-4.911867">
        <ele>1820.0</ele>
        <time>2018-09-16T12:45:22Z</time>
      </trkpt>
      <trkpt lat="40.266317" lon="-4.911900">
        <ele>1821.0</ele>
        <time>2018-09-16T12:45:23Z</time>
      </trkpt>
      <trkpt lat="40.266267" lon="-4.912000">
        <ele>1821.0</ele>
        <time>2018-09-16T12:45:24Z</time>
      </trkpt>
      <trkpt lat="40.266250" lon="-4.912133">
        <ele>1822.0</ele>
        <time>2018-09-16T12:45:25Z</time>
      </trkpt>
      <trkpt lat="40.266300" lon="-4.912233">
        <ele>1823.0</ele>
        <time>2018-09-16T12:45:26Z</time>
      </trkpt>
      <trkpt lat="40.266383" lon="-4.912283">
        <ele>1824.0</ele>
        <time>2018-09-16T12:45:27Z</time>
      </trkpt>
      <trkpt lat="40.266483" lon="-4.912283">
        <ele>1825.0</ele>
        <time>2018-09-16T12:45:28Z</time>
      </trkpt>
      <trkpt lat="40.266583" lon="-4.912233">
        <ele>1826.0</ele>
        <time>2018-09-16T12:45:29Z</time>
      </trkpt>
      <trkpt lat="40.266667" lon="-4.912150">
        <ele>1826.0</ele>
        <time>2018-09-16T12:45:30Z</time>
      </trkpt>
      <trkpt lat="40.266717" lon="-4.912033">
        <ele>1827.0</ele>
        <time>2018-09-16T12:45:31Z</time>
      </trkpt>
      <trkpt lat="40.266717" lon="-4.911917">
        <ele>1828.0</ele>
        <time>2018-09-16T12:45:32Z</time>
      </trkpt>
      <trkpt lat="40.266683" lon="-4.911817">
        <ele>1829.0</ele>
        <time>2018-09-16T12:45:33Z</time>
      </trkpt>
      <trkpt lat="40.266633" lon="-4.911750">
        <ele>1829.0</ele>
        <time>2018-09-16T12:45:34Z</time>
      </trkpt>
      <trkpt lat="40.266583" lon="-4.911717">
        <ele>1830.0</ele>
        <time>2018-09-16T12:45:35Z</time>
      </trkpt>
      <trkpt lat="40.266533" lon="-4.911700">
        <ele>1831.0</ele>
        <time>2018-09-16T12:45:36Z</time>
      </trkpt>
      <trkpt lat="40.266467" lon="-4.911683">
        <ele>1831.0</ele>
        <time>2018-09-16T12:45:37Z</time>
      </trkpt>
      <trkpt lat="40.266400" lon="-4.911650">
        <ele>1832.0</ele>
        <time>2018-09-16T12:45:38Z</time>
      </trkpt>
      <trkpt lat="40.266317" lon="-4.911600">
        <ele>1834.0</ele>
        <time>2018-09-16T12:45:39Z</time>
      </trkpt>
      <trkpt lat="40.266250" lon="-4.911550">
        <ele>1835.0</ele>
        <time>2018-09-16T12:45:40Z</time>
      </trkpt>
      <trkpt lat="40.266167" lon="-4.911483">
        <ele>1837.0</ele>
        <time>2018-09-16T12:45:41Z</time>
      </trkpt>
      <trkpt lat="40.266100" lon="-4.911417">
        <ele>1839.0</ele>
        <time>2018-09-16T12:45:42Z</time>
      </trkpt>
      <trkpt lat="40.266033" lon="-4.911350">
        <ele>1843.0</ele>
        <time>2018-09-16T12:45:43Z</time>
      </trkpt>
      <trkpt lat="40.265967" lon="-4.911300">
        <ele>1849.0</ele>
        <time>2018-09-16T12:45:44Z</time>
      </trkpt>
      <trkpt lat="40.265900" lon="-4.911267">
        <ele>1854.0</ele>
        <time>2018-09-16T12:45:45Z</time>
      </trkpt>
      <trkpt lat="40.265817" lon="-4.911233">
        <ele>1859.0</ele>
        <time>2018-09-16T12:45:46Z</time>
      </trkpt>
      <trkpt lat="40.265750" lon="-4.911200">
        <ele>1863.0</ele>
        <time>2018-09-16T12:45:47Z</time>
      </trkpt>
      <trkpt lat="40.265683" lon="-4.911183">
        <ele>1867.0</ele>
        <time>2018-09-16T12:45:48Z</time>
      </trkpt>
      <trkpt lat="40.265600" lon="-4.911150">
        <ele>1865.0</ele>
        <time>2018-09-16T12:45:49Z</time>
      </trkpt>
      <trkpt lat="40.265517" lon="-4.911117">
        <ele>1869.0</ele>
        <time>2018-09-16T12:45:50Z</time>
      </trkpt>
      <trkpt lat="40.265450" lon="-4.911100">
        <ele>1874.0</ele>
        <time>2018-09-16T12:45:51Z</time>
      </trkpt>
      <trkpt lat="40.265383" lon="-4.911083">
        <ele>1878.0</ele>
        <time>2018-09-16T12:45:52Z</time>
      </trkpt>
      <trkpt lat="40.265300" lon="-4.911050">
        <ele>1882.0</ele>
        <time>2018-09-16T12:45:53Z</time>
      </trkpt>
      <trkpt lat="40.265233" lon="-4.911033">
        <ele>1885.0</ele>
        <time>2018-09-16T12:45:54Z</time>
      </trkpt>
      <trkpt lat="40.265167" lon="-4.911017">
        <ele>1881.0</ele>
        <time>2018-09-16T12:45:55Z</time>
      </trkpt>
      <trkpt lat="40.265100" lon="-4.910983">
        <ele>1881.0</ele>
        <time>2018-09-16T12:45:56Z</time>
      </trkpt>
      <trkpt lat="40.265033" lon="-4.910967">
        <ele>1882.0</ele>
        <time>2018-09-16T12:45:57Z</time>
      </trkpt>
      <trkpt lat="40.264967" lon="-4.910983">
        <ele>1883.0</ele>
        <time>2018-09-16T12:45:58Z</time>
      </trkpt>
      <trkpt lat="40.264917" lon="-4.911017">
        <ele>1884.0</ele>
        <time>2018-09-16T12:45:59Z</time>
      </trkpt>
      <trkpt lat="40.264833" lon="-4.911067">
        <ele>1885.0</ele>
        <time>2018-09-16T12:46:00Z</time>
      </trkpt>
      <trkpt lat="40.264767" lon="-4.911150">
        <ele>1888.0</ele>
        <time>2018-09-16T12:46:01Z</time>
      </trkpt>
      <trkpt lat="40.264750" lon="-4.911283">
        <ele>1890.0</ele>
        <time>2018-09-16T12:46:02Z</time>
      </trkpt>
      <trkpt lat="40.264767" lon="-4.911400">
        <ele>1893.0</ele>
        <time>2018-09-16T12:46:03Z</time>
      </trkpt>
      <trkpt lat="40.264800" lon="-4.911517">
        <ele>1897.0</ele>
        <time>2018-09-16T12:46:04Z</time>
      </trkpt>
      <trkpt lat="40.264867" lon="-4.911600">
        <ele>1898.0</ele>
        <time>2018-09-16T12:46:05Z</time>
      </trkpt>
      <trkpt lat="40.264950" lon="-4.911650">
        <ele>1899.0</ele>
        <time>2018-09-16T12:46:06Z</time>
      </trkpt>
      <trkpt lat="40.265033" lon="-4.911617">
        <ele>1901.0</ele>
        <time>2018-09-16T12:46:07Z</time>
      </trkpt>
      <trkpt lat="40.265083" lon="-4.911550">
        <ele>1903.0</ele>
        <time>2018-09-16T12:46:08Z</time>
      </trkpt>
      <trkpt lat="40.265067" lon="-4.911483">
        <ele>1904.0</ele>
        <time>2018-09-16T12:46:09Z</time>
      </trkpt>
      <trkpt lat="40.265017" lon="-4.911433">
        <ele>1904.0</ele>
        <time>2018-09-16T12:46:10Z</time>
      </trkpt>
      <trkpt lat="40.264950" lon="-4.911417">
        <ele>1904.0</ele>
        <time>2018-09-16T12:46:11Z</time>
      </trkpt>
      <trkpt lat="40.264867" lon="-4.911417">
        <ele>1904.0</ele>
        <time>2018-09-16T12:46:12Z</time>
      </trkpt>
      <trkpt lat="40.264800" lon="-4.911467">
        <ele>1905.0</ele>
        <time>2018-09-16T12:46:13Z</time>
      </trkpt>
      <trkpt lat="40.264733" lon="-4.911550">
        <ele>1905.0</ele>
        <time>2018-09-16T12:46:14Z</time>
      </trkpt>
      <trkpt lat="40.264700" lon="-4.911650">
        <ele>1906.0</ele>
        <time>2018-09-16T12:46:15Z</time>
      </trkpt>
      <trkpt lat="40.264700" lon="-4.911783">
        <ele>1907.0</ele>
        <time>2018-09-16T12:46:16Z</time>
      </trkpt>
      <trkpt lat="40.264700" lon="-4.911883">
        <ele>1908.0</ele>
        <time>2018-09-16T12:46:17Z</time>
      </trkpt>
      <trkpt lat="40.264750" lon="-4.911933">
        <ele>1909.0</ele>
        <time>2018-09-16T12:46:18Z</time>
      </trkpt>
      <trkpt lat="40.264833" lon="-4.911983">
        <ele>1910.0</ele>
        <time>2018-09-16T12:46:19Z</time>
      </trkpt>
      <trkpt lat="40.264933" lon="-4.911983">
        <ele>1911.0</ele>
        <time>2018-09-16T12:46:20Z</time>
      </trkpt>
      <trkpt lat="40.265000" lon="-4.911933">
        <ele>1911.0</ele>
        <time>2018-09-16T12:46:21Z</time>
      </trkpt>
      <trkpt lat="40.265083" lon="-4.911850">
        <ele>1913.0</ele>
        <time>2018-09-16T12:46:22Z</time>
      </trkpt>
      <trkpt lat="40.265167" lon="-4.911750">
        <ele>1915.0</ele>
        <time>2018-09-16T12:46:23Z</time>
      </trkpt>
      <trkpt lat="40.265200" lon="-4.911700">
        <ele>1916.0</ele>
        <time>2018-09-16T12:46:24Z</time>
      </trkpt>
      <trkpt lat="40.265200" lon="-4.911650">
        <ele>1917.0</ele>
        <time>2018-09-16T12:46:25Z</time>
      </trkpt>
      <trkpt lat="40.265200" lon="-4.911617">
        <ele>1918.0</ele>
        <time>2018-09-16T12:46:26Z</time>
      </trkpt>
      <trkpt lat="40.265183" lon="-4.911533">
        <ele>1919.0</ele>
        <time>2018-09-16T12:46:27Z</time>
      </trkpt>
      <trkpt lat="40.265167" lon="-4.911450">
        <ele>1920.0</ele>
        <time>2018-09-16T12:46:28Z</time>
      </trkpt>
      <trkpt lat="40.265133" lon="-4.911350">
        <ele>1920.0</ele>
        <time>2018-09-16T12:46:29Z</time>
      </trkpt>
      <trkpt lat="40.265067" lon="-4.911267">
        <ele>1921.0</ele>
        <time>2018-09-16T12:46:30Z</time>
      </trkpt>
      <trkpt lat="40.264967" lon="-4.911383">
        <ele>1921.0</ele>
        <time>2018-09-16T12:46:31Z</time>
      </trkpt>
      <trkpt lat="40.264867" lon="-4.911483">
        <ele>1922.0</ele>
        <time>2018-09-16T12:46:32Z</time>
      </trkpt>
      <trkpt lat="40.264767" lon="-4.911567">
        <ele>1922.0</ele>
        <time>2018-09-16T12:46:33Z</time>
      </trkpt>
      <trkpt lat="40.264600" lon="-4.911683">
        <ele>1924.0</ele>
        <time>2018-09-16T12:46:35Z</time>
      </trkpt>
      <trkpt lat="40.264550" lon="-4.911717">
        <ele>1924.0</ele>
        <time>2018-09-16T12:46:36Z</time>
      </trkpt>
      <trkpt lat="40.264483" lon="-4.911767">
        <ele>1925.0</ele>
        <time>2018-09-16T12:46:37Z</time>
      </trkpt>
      <trkpt lat="40.264433" lon="-4.911650">
        <ele>1926.0</ele>
        <time>2018-09-16T12:46:39Z</time>
      </trkpt>
      <trkpt lat="40.264400" lon="-4.911567">
        <ele>1926.0</ele>
        <time>2018-09-16T12:46:40Z</time>
      </trkpt>
      <trkpt lat="40.264367" lon="-4.911483">
        <ele>1926.0</ele>
        <time>2018-09-16T12:46:41Z</time>
      </trkpt>
      <trkpt lat="40.264333" lon="-4.911383">
        <ele>1927.0</ele>
        <time>2018-09-16T12:46:42Z</time>
      </trkpt>
      <trkpt lat="40.264300" lon="-4.911317">
        <ele>1927.0</ele>
        <time>2018-09-16T12:46:43Z</time>
      </trkpt>
      <trkpt lat="40.264283" lon="-4.911250">
        <ele>1928.0</ele>
        <time>2018-09-16T12:46:44Z</time>
      </trkpt>
      <trkpt lat="40.264250" lon="-4.911183">
        <ele>1929.0</ele>
        <time>2018-09-16T12:46:45Z</time>
      </trkpt>
      <trkpt lat="40.264233" lon="-4.911100">
        <ele>1930.0</ele>
        <time>2018-09-16T12:46:46Z</time>
      </trkpt>
      <trkpt lat="40.264183" lon="-4.911033">
        <ele>1931.0</ele>
        <time>2018-09-16T12:46:47Z</time>
      </trkpt>
      <trkpt lat="40.264167" lon="-4.910950">
        <ele>1933.0</ele>
        <time>2018-09-16T12:46:48Z</time>
      </trkpt>
      <trkpt lat="40.264150" lon="-4.910817">
        <ele>1934.0</ele>
        <time>2018-09-16T12:46:49Z</time>
      </trkpt>
      <trkpt lat="40.264150" lon="-4.910683">
        <ele>1936.0</ele>
        <time>2018-09-16T12:46:50Z</time>
      </trkpt>
      <trkpt lat="40.264100" lon="-4.910533">
        <ele>1939.0</ele>
        <time>2018-09-16T12:46:52Z</time>
      </trkpt>
      <trkpt lat="40.263917" lon="-4.910550">
        <ele>1944.0</ele>
        <time>2018-09-16T12:46:56Z</time>
      </trkpt>
      <trkpt lat="40.263950" lon="-4.910600">
        <ele>1945.0</ele>
        <time>2018-09-16T12:46:57Z</time>
      </trkpt>
      <trkpt lat="40.263967" lon="-4.910600">
        <ele>1947.0</ele>
        <time>2018-09-16T12:46:59Z</time>
      </trkpt>
      <trkpt lat="40.263967" lon="-4.910633">
        <ele>1948.0</ele>
        <time>2018-09-16T12:47:00Z</time>
      </trkpt>
      <trkpt lat="40.263950" lon="-4.910650">
        <ele>1949.0</ele>
        <time>2018-09-16T12:47:01Z</time>
      </trkpt>
      <trkpt lat="40.263967" lon="-4.910633">
        <ele>1950.0</ele>
        <time>2018-09-16T12:47:02Z</time>
      </trkpt>
      <trkpt lat="40.263967" lon="-4.910617">
        <ele>1951.0</ele>
        <time>2018-09-16T12:47:03Z</time>
      </trkpt>
      <trkpt lat="40.263967" lon="-4.910617">
        <ele>1953.0</ele>
        <time>2018-09-16T12:47:04Z</time>
      </trkpt>
      <trkpt lat="40.263967" lon="-4.910650">
        <ele>1955.0</ele>
        <time>2018-09-16T12:47:05Z</time>
      </trkpt>
      <trkpt lat="40.263933" lon="-4.910617">
        <ele>1956.0</ele>
        <time>2018-09-16T12:47:06Z</time>
      </trkpt>
      <trkpt lat="40.263933" lon="-4.910600">
        <ele>1948.0</ele>
        <time>2018-09-16T12:47:07Z</time>
      </trkpt>
      <trkpt lat="40.263933" lon="-4.910583">
        <ele>1950.0</ele>
        <time>2018-09-16T12:47:08Z</time>
      </trkpt>
      <trkpt lat="40.263933" lon="-4.910600">
        <ele>1951.0</ele>
        <time>2018-09-16T12:47:09Z</time>
      </trkpt>
      <trkpt lat="40.263933" lon="-4.910600">
        <ele>1952.0</ele>
        <time>2018-09-16T12:47:10Z</time>
      </trkpt>
      <trkpt lat="40.263983" lon="-4.910567">
        <ele>1950.0</ele>
        <time>2018-09-16T12:47:11Z</time>
      </trkpt>
      <trkpt lat="40.263950" lon="-4.910567">
        <ele>1949.0</ele>
        <time>2018-09-16T12:47:12Z</time>
      </trkpt>
      <trkpt lat="40.263933" lon="-4.910550">
        <ele>1949.0</ele>
        <time>2018-09-16T12:47:13Z</time>
      </trkpt>
      <trkpt lat="40.263917" lon="-4.910533">
        <ele>1950.0</ele>
        <time>2018-09-16T12:47:14Z</time>
      </trkpt>
      <trkpt lat="40.263933" lon="-4.910550">
        <ele>1951.0</ele>
        <time>2018-09-16T12:47:15Z</time>
      </trkpt>
      <trkpt lat="40.263967" lon="-4.910600">
        <ele>1952.0</ele>
        <time>2018-09-16T12:47:16Z</time>
      </trkpt>
      <trkpt lat="40.263983" lon="-4.910633">
        <ele>1953.0</ele>
        <time>2018-09-16T12:47:17Z</time>
      </trkpt>
      <trkpt lat="40.263817" lon="-4.910650">
        <ele>1954.0</ele>
        <time>2018-09-16T12:47:18Z</time>
      </trkpt>
      <trkpt lat="40.263783" lon="-4.910750">
        <ele>1956.0</ele>
        <time>2018-09-16T12:47:19Z</time>
      </trkpt>
      <trkpt lat="40.263733" lon="-4.910867">
        <ele>1957.0</ele>
        <time>2018-09-16T12:47:20Z</time>
      </trkpt>
      <trkpt lat="40.263700" lon="-4.910967">
        <ele>1957.0</ele>
        <time>2018-09-16T12:47:21Z</time>
      </trkpt>
      <trkpt lat="40.263650" lon="-4.911050">
        <ele>1958.0</ele>
        <time>2018-09-16T12:47:22Z</time>
      </trkpt>
      <trkpt lat="40.263600" lon="-4.911117">
        <ele>1958.0</ele>
        <time>2018-09-16T12:47:23Z</time>
      </trkpt>
      <trkpt lat="40.263533" lon="-4.911200">
        <ele>1959.0</ele>
        <time>2018-09-16T12:47:24Z</time>
      </trkpt>
      <trkpt lat="40.263533" lon="-4.911283">
        <ele>1960.0</ele>
        <time>2018-09-16T12:47:25Z</time>
      </trkpt>
      <trkpt lat="40.263567" lon="-4.911383">
        <ele>1960.0</ele>
        <time>2018-09-16T12:47:26Z</time>
      </trkpt>
      <trkpt lat="40.263700" lon="-4.911450">
        <ele>1961.0</ele>
        <time>2018-09-16T12:47:27Z</time>
      </trkpt>
      <trkpt lat="40.263733" lon="-4.911550">
        <ele>1962.0</ele>
        <time>2018-09-16T12:47:28Z</time>
      </trkpt>
      <trkpt lat="40.263783" lon="-4.911667">
        <ele>1963.0</ele>
        <time>2018-09-16T12:47:29Z</time>
      </trkpt>
      <trkpt lat="40.263833" lon="-4.911767">
        <ele>1964.0</ele>
        <time>2018-09-16T12:47:30Z</time>
      </trkpt>
      <trkpt lat="40.263883" lon="-4.911867">
        <ele>1965.0</ele>
        <time>2018-09-16T12:47:31Z</time>
      </trkpt>
      <trkpt lat="40.263950" lon="-4.911933">
        <ele>1966.0</ele>
        <time>2018-09-16T12:47:32Z</time>
      </trkpt>
      <trkpt lat="40.264017" lon="-4.912000">
        <ele>1968.0</ele>
        <time>2018-09-16T12:47:33Z</time>
      </trkpt>
      <trkpt lat="40.264083" lon="-4.912050">
        <ele>1968.0</ele>
        <time>2018-09-16T12:47:34Z</time>
      </trkpt>
      <trkpt lat="40.264183" lon="-4.912050">
        <ele>1969.0</ele>
        <time>2018-09-16T12:47:35Z</time>
      </trkpt>
      <trkpt lat="40.264267" lon="-4.912017">
        <ele>1971.0</ele>
        <time>2018-09-16T12:47:36Z</time>
      </trkpt>
      <trkpt lat="40.264350" lon="-4.912033">
        <ele>1972.0</ele>
        <time>2018-09-16T12:47:37Z</time>
      </trkpt>
      <trkpt lat="40.264417" lon="-4.912000">
        <ele>1974.0</ele>
        <time>2018-09-16T12:47:38Z</time>
      </trkpt>
      <trkpt lat="40.264467" lon="-4.911983">
        <ele>1975.0</ele>
        <time>2018-09-16T12:47:39Z</time>
      </trkpt>
      <trkpt lat="40.264550" lon="-4.911983">
        <ele>1977.0</ele>
        <time>2018-09-16T12:47:40Z</time>
      </trkpt>
      <trkpt lat="40.264650" lon="-4.911983">
        <ele>1979.0</ele>
        <time>2018-09-16T12:47:41Z</time>
      </trkpt>
      <trkpt lat="40.264717" lon="-4.911983">
        <ele>1981.0</ele>
        <time>2018-09-16T12:47:42Z</time>
      </trkpt>
      <trkpt lat="40.264817" lon="-4.912000">
        <ele>1983.0</ele>
        <time>2018-09-16T12:47:43Z</time>
      </trkpt>
      <trkpt lat="40.264883" lon="-4.912017">
        <ele>1985.0</ele>
        <time>2018-09-16T12:47:44Z</time>
      </trkpt>
      <trkpt lat="40.264967" lon="-4.912017">
        <ele>1987.0</ele>
        <time>2018-09-16T12:47:45Z</time>
      </trkpt>
      <trkpt lat="40.265067" lon="-4.912017">
        <ele>1989.0</ele>
        <time>2018-09-16T12:47:46Z</time>
      </trkpt>
      <trkpt lat="40.265150" lon="-4.912000">
        <ele>1991.0</ele>
        <time>2018-09-16T12:47:47Z</time>
      </trkpt>
      <trkpt lat="40.265200" lon="-4.911900">
        <ele>1993.0</ele>
        <time>2018-09-16T12:47:48Z</time>
      </trkpt>
      <trkpt lat="40.265183" lon="-4.911783">
        <ele>1995.0</ele>
        <time>2018-09-16T12:47:49Z</time>
      </trkpt>
      <trkpt lat="40.265167" lon="-4.911667">
        <ele>1998.0</ele>
        <time>2018-09-16T12:47:50Z</time>
      </trkpt>
      <trkpt lat="40.265150" lon="-4.911600">
        <ele>2000.0</ele>
        <time>2018-09-16T12:47:51Z</time>
      </trkpt>
      <trkpt lat="40.265100" lon="-4.911567">
        <ele>2002.0</ele>
        <time>2018-09-16T12:47:52Z</time>
      </trkpt>
      <trkpt lat="40.265067" lon="-4.911567">
        <ele>2004.0</ele>
        <time>2018-09-16T12:47:53Z</time>
      </trkpt>
      <trkpt lat="40.265050" lon="-4.911600">
        <ele>2005.0</ele>
        <time>2018-09-16T12:47:54Z</time>
      </trkpt>
      <trkpt lat="40.265033" lon="-4.911617">
        <ele>2007.0</ele>
        <time>2018-09-16T12:47:55Z</time>
      </trkpt>
      <trkpt lat="40.265017" lon="-4.911617">
        <ele>2009.0</ele>
        <time>2018-09-16T12:47:56Z</time>
      </trkpt>
      <trkpt lat="40.265000" lon="-4.911633">
        <ele>2011.0</ele>
        <time>2018-09-16T12:47:57Z</time>
      </trkpt>
      <trkpt lat="40.264983" lon="-4.911667">
        <ele>2013.0</ele>
        <time>2018-09-16T12:47:58Z</time>
      </trkpt>
      <trkpt lat="40.265033" lon="-4.911650">
        <ele>2015.0</ele>
        <time>2018-09-16T12:47:59Z</time>
      </trkpt>
      <trkpt lat="40.265083" lon="-4.911650">
        <ele>2016.0</ele>
        <time>2018-09-16T12:48:00Z</time>
      </trkpt>
      <trkpt lat="40.265117" lon="-4.911650">
        <ele>2018.0</ele>
        <time>2018-09-16T12:48:01Z</time>
      </trkpt>
      <trkpt lat="40.265117" lon="-4.911583">
        <ele>2019.0</ele>
        <time>2018-09-16T12:48:02Z</time>
      </trkpt>
      <trkpt lat="40.265117" lon="-4.911517">
        <ele>2020.0</ele>
        <time>2018-09-16T12:48:03Z</time>
      </trkpt>
      <trkpt lat="40.265067" lon="-4.911433">
        <ele>2022.0</ele>
        <time>2018-09-16T12:48:04Z</time>
      </trkpt>
      <trkpt lat="40.265067" lon="-4.911383">
        <ele>2024.0</ele>
        <time>2018-09-16T12:48:05Z</time>
      </trkpt>
      <trkpt lat="40.265067" lon="-4.911317">
        <ele>2027.0</ele>
        <time>2018-09-16T12:48:06Z</time>
      </trkpt>
      <trkpt lat="40.265050" lon="-4.911267">
        <ele>2030.0</ele>
        <time>2018-09-16T12:48:07Z</time>
      </trkpt>
      <trkpt lat="40.265017" lon="-4.911283">
        <ele>2035.0</ele>
        <time>2018-09-16T12:48:08Z</time>
      </trkpt>
      <trkpt lat="40.265000" lon="-4.911317">
        <ele>2037.0</ele>
        <time>2018-09-16T12:48:09Z</time>
      </trkpt>
      <trkpt lat="40.264983" lon="-4.911417">
        <ele>2040.0</ele>
        <time>2018-09-16T12:48:10Z</time>
      </trkpt>
      <trkpt lat="40.264950" lon="-4.911517">
        <ele>2044.0</ele>
        <time>2018-09-16T12:48:11Z</time>
      </trkpt>
      <trkpt lat="40.264917" lon="-4.911667">
        <ele>2049.0</ele>
        <time>2018-09-16T12:48:12Z</time>
      </trkpt>
      <trkpt lat="40.264933" lon="-4.911783">
        <ele>2053.0</ele>
        <time>2018-09-16T12:48:13Z</time>
      </trkpt>
      <trkpt lat="40.264950" lon="-4.911867">
        <ele>2056.0</ele>
        <time>2018-09-16T12:48:14Z</time>
      </trkpt>
      <trkpt lat="40.264933" lon="-4.911950">
        <ele>2059.0</ele>
        <time>2018-09-16T12:48:15Z</time>
      </trkpt>
      <trkpt lat="40.264917" lon="-4.912000">
        <ele>2062.0</ele>
        <time>2018-09-16T12:48:16Z</time>
      </trkpt>
      <trkpt lat="40.264900" lon="-4.912033">
        <ele>2065.0</ele>
        <time>2018-09-16T12:48:17Z</time>
      </trkpt>
      <trkpt lat="40.264883" lon="-4.912017">
        <ele>2069.0</ele>
        <time>2018-09-16T12:48:18Z</time>
      </trkpt>
      <trkpt lat="40.264900" lon="-4.911983">
        <ele>2072.0</ele>
        <time>2018-09-16T12:48:19Z</time>
      </trkpt>
      <trkpt lat="40.264900" lon="-4.911917">
        <ele>2075.0</ele>
        <time>2018-09-16T12:48:20Z</time>
      </trkpt>
      <trkpt lat="40.264933" lon="-4.911867">
        <ele>2078.0</ele>
        <time>2018-09-16T12:48:21Z</time>
      </trkpt>
      <trkpt lat="40.264983" lon="-4.911833">
        <ele>2081.0</ele>
        <time>2018-09-16T12:48:22Z</time>
      </trkpt>
      <trkpt lat="40.265033" lon="-4.911833">
        <ele>2086.0</ele>
        <time>2018-09-16T12:48:23Z</time>
      </trkpt>
      <trkpt lat="40.265100" lon="-4.911817">
        <ele>2090.0</ele>
        <time>2018-09-16T12:48:24Z</time>
      </trkpt>
      <trkpt lat="40.265150" lon="-4.911783">
        <ele>2095.0</ele>
        <time>2018-09-16T12:48:25Z</time>
      </trkpt>
      <trkpt lat="40.265167" lon="-4.911733">
        <ele>2100.0</ele>
        <time>2018-09-16T12:48:26Z</time>
      </trkpt>
      <trkpt lat="40.265133" lon="-4.911650">
        <ele>2104.0</ele>
        <time>2018-09-16T12:48:27Z</time>
      </trkpt>
      <trkpt lat="40.265033" lon="-4.911583">
        <ele>2109.0</ele>
        <time>2018-09-16T12:48:28Z</time>
      </trkpt>
      <trkpt lat="40.264967" lon="-4.911567">
        <ele>2115.0</ele>
        <time>2018-09-16T12:48:29Z</time>
      </trkpt>
      <trkpt lat="40.264917" lon="-4.911650">
        <ele>2119.0</ele>
        <time>2018-09-16T12:48:30Z</time>
      </trkpt>
      <trkpt lat="40.264867" lon="-4.911733">
        <ele>2122.0</ele>
        <time>2018-09-16T12:48:31Z</time>
      </trkpt>
      <trkpt lat="40.264817" lon="-4.911800">
        <ele>2124.0</ele>
        <time>2018-09-16T12:48:32Z</time>
      </trkpt>
      <trkpt lat="40.264783" lon="-4.911883">
        <ele>2128.0</ele>
        <time>2018-09-16T12:48:33Z</time>
      </trkpt>
      <trkpt lat="40.264767" lon="-4.912000">
        <ele>2131.0</ele>
        <time>2018-09-16T12:48:34Z</time>
      </trkpt>
      <trkpt lat="40.264767" lon="-4.912100">
        <ele>2133.0</ele>
        <time>2018-09-16T12:48:35Z</time>
      </trkpt>
      <trkpt lat="40.264783" lon="-4.912200">
        <ele>2136.0</ele>
        <time>2018-09-16T12:48:36Z</time>
      </trkpt>
      <trkpt lat="40.264817" lon="-4.912267">
        <ele>2139.0</ele>
        <time>2018-09-16T12:48:37Z</time>
      </trkpt>
      <trkpt lat="40.264850" lon="-4.912333">
        <ele>2142.0</ele>
        <time>2018-09-16T12:48:38Z</time>
      </trkpt>
      <trkpt lat="40.264867" lon="-4.912367">
        <ele>2145.0</ele>
        <time>2018-09-16T12:48:39Z</time>
      </trkpt>
      <trkpt lat="40.264900" lon="-4.912333">
        <ele>2148.0</ele>
        <time>2018-09-16T12:48:40Z</time>
      </trkpt>
      <trkpt lat="40.264933" lon="-4.912300">
        <ele>2151.0</ele>
        <time>2018-09-16T12:48:41Z</time>
      </trkpt>
      <trkpt lat="40.264967" lon="-4.912283">
        <ele>2154.0</ele>
        <time>2018-09-16T12:48:42Z</time>
      </trkpt>
      <trkpt lat="40.264967" lon="-4.912233">
        <ele>2156.0</ele>
        <time>2018-09-16T12:48:43Z</time>
      </trkpt>
      <trkpt lat="40.265000" lon="-4.912200">
        <ele>2159.0</ele>
        <time>2018-09-16T12:48:44Z</time>
      </trkpt>
      <trkpt lat="40.265017" lon="-4.912167">
        <ele>2162.0</ele>
        <time>2018-09-16T12:48:45Z</time>
      </trkpt>
      <trkpt lat="40.265017" lon="-4.912117">
        <ele>2165.0</ele>
        <time>2018-09-16T12:48:46Z</time>
      </trkpt>
      <trkpt lat="40.265017" lon="-4.912067">
        <ele>2168.0</ele>
        <time>2018-09-16T12:48:47Z</time>
      </trkpt>
      <trkpt lat="40.264983" lon="-4.912083">
        <ele>2171.0</ele>
        <time>2018-09-16T12:48:48Z</time>
      </trkpt>
      <trkpt lat="40.264950" lon="-4.912233">
        <ele>2174.0</ele>
        <time>2018-09-16T12:48:49Z</time>
      </trkpt>
      <trkpt lat="40.264933" lon="-4.912333">
        <ele>2177.0</ele>
        <time>2018-09-16T12:48:50Z</time>
      </trkpt>
      <trkpt lat="40.264917" lon="-4.912433">
        <ele>2179.0</ele>
        <time>2018-09-16T12:48:51Z</time>
      </trkpt>
      <trkpt lat="40.264883" lon="-4.912533">
        <ele>2181.0</ele>
        <time>2018-09-16T12:48:52Z</time>
      </trkpt>
      <trkpt lat="40.264867" lon="-4.912650">
        <ele>2183.0</ele>
        <time>2018-09-16T12:48:53Z</time>
      </trkpt>
      <trkpt lat="40.264933" lon="-4.912750">
        <ele>2186.0</ele>
        <time>2018-09-16T12:48:54Z</time>
      </trkpt>
      <trkpt lat="40.264983" lon="-4.912867">
        <ele>2189.0</ele>
        <time>2018-09-16T12:48:55Z</time>
      </trkpt>
      <trkpt lat="40.265033" lon="-4.912967">
        <ele>2191.0</ele>
        <time>2018-09-16T12:48:56Z</time>
      </trkpt>
      <trkpt lat="40.265083" lon="-4.912983">
        <ele>2193.0</ele>
        <time>2018-09-16T12:48:57Z</time>
      </trkpt>
      <trkpt lat="40.265150" lon="-4.912983">
        <ele>2194.0</ele>
        <time>2018-09-16T12:48:58Z</time>
      </trkpt>
      <trkpt lat="40.265183" lon="-4.912967">
        <ele>2195.0</ele>
        <time>2018-09-16T12:48:59Z</time>
      </trkpt>
      <trkpt lat="40.265233" lon="-4.912933">
        <ele>2195.0</ele>
        <time>2018-09-16T12:49:00Z</time>
      </trkpt>
      <trkpt lat="40.265283" lon="-4.912883">
        <ele>2195.0</ele>
        <time>2018-09-16T12:49:01Z</time>
      </trkpt>
      <trkpt lat="40.265317" lon="-4.912833">
        <ele>2195.0</ele>
        <time>2018-09-16T12:49:02Z</time>
      </trkpt>
      <trkpt lat="40.265350" lon="-4.912783">
        <ele>2195.0</ele>
        <time>2018-09-16T12:49:03Z</time>
      </trkpt>
      <trkpt lat="40.265417" lon="-4.912700">
        <ele>2196.0</ele>
        <time>2018-09-16T12:49:04Z</time>
      </trkpt>
      <trkpt lat="40.265467" lon="-4.912600">
        <ele>2197.0</ele>
        <time>2018-09-16T12:49:05Z</time>
      </trkpt>
      <trkpt lat="40.265517" lon="-4.912517">
        <ele>2196.0</ele>
        <time>2018-09-16T12:49:06Z</time>
      </trkpt>
      <trkpt lat="40.265567" lon="-4.912450">
        <ele>2196.0</ele>
        <time>2018-09-16T12:49:07Z</time>
      </trkpt>
      <trkpt lat="40.265617" lon="-4.912367">
        <ele>2196.0</ele>
        <time>2018-09-16T12:49:08Z</time>
      </trkpt>
      <trkpt lat="40.265667" lon="-4.912283">
        <ele>2197.0</ele>
        <time>2018-09-16T12:49:09Z</time>
      </trkpt>
      <trkpt lat="40.265717" lon="-4.912183">
        <ele>2198.0</ele>
        <time>2018-09-16T12:49:10Z</time>
      </trkpt>
      <trkpt lat="40.265767" lon="-4.912100">
        <ele>2198.0</ele>
        <time>2018-09-16T12:49:11Z</time>
      </trkpt>
      <trkpt lat="40.265817" lon="-4.912050">
        <ele>2200.0</ele>
        <time>2018-09-16T12:49:12Z</time>
      </trkpt>
      <trkpt lat="40.265867" lon="-4.911983">
        <ele>2203.0</ele>
        <time>2018-09-16T12:49:13Z</time>
      </trkpt>
      <trkpt lat="40.265917" lon="-4.911933">
        <ele>2205.0</ele>
        <time>2018-09-16T12:49:14Z</time>
      </trkpt>
      <trkpt lat="40.265967" lon="-4.911850">
        <ele>2206.0</ele>
        <time>2018-09-16T12:49:15Z</time>
      </trkpt>
      <trkpt lat="40.265983" lon="-4.911750">
        <ele>2207.0</ele>
        <time>2018-09-16T12:49:16Z</time>
      </trkpt>
      <trkpt lat="40.265983" lon="-4.911667">
        <ele>2208.0</ele>
        <time>2018-09-16T12:49:17Z</time>
      </trkpt>
      <trkpt lat="40.265933" lon="-4.911567">
        <ele>2209.0</ele>
        <time>2018-09-16T12:49:18Z</time>
      </trkpt>
      <trkpt lat="40.265883" lon="-4.911500">
        <ele>2210.0</ele>
        <time>2018-09-16T12:49:19Z</time>
      </trkpt>
      <trkpt lat="40.265850" lon="-4.911500">
        <ele>2211.0</ele>
        <time>2018-09-16T12:49:20Z</time>
      </trkpt>
      <trkpt lat="40.265800" lon="-4.911550">
        <ele>2211.0</ele>
        <time>2018-09-16T12:49:21Z</time>
      </trkpt>
      <trkpt lat="40.265783" lon="-4.911633">
        <ele>2212.0</ele>
        <time>2018-09-16T12:49:22Z</time>
      </trkpt>
      <trkpt lat="40.265767" lon="-4.911700">
        <ele>2212.0</ele>
        <time>2018-09-16T12:49:23Z</time>
      </trkpt>
      <trkpt lat="40.265733" lon="-4.911800">
        <ele>2214.0</ele>
        <time>2018-09-16T12:49:24Z</time>
      </trkpt>
      <trkpt lat="40.265717" lon="-4.911917">
        <ele>2216.0</ele>
        <time>2018-09-16T12:49:25Z</time>
      </trkpt>
      <trkpt lat="40.265717" lon="-4.912033">
        <ele>2217.0</ele>
        <time>2018-09-16T12:49:26Z</time>
      </trkpt>
      <trkpt lat="40.265717" lon="-4.912133">
        <ele>2218.0</ele>
        <time>2018-09-16T12:49:27Z</time>
      </trkpt>
      <trkpt lat="40.265717" lon="-4.912250">
        <ele>2220.0</ele>
        <time>2018-09-16T12:49:28Z</time>
      </trkpt>
      <trkpt lat="40.265717" lon="-4.912367">
        <ele>2221.0</ele>
        <time>2018-09-16T12:49:29Z</time>
      </trkpt>
      <trkpt lat="40.265750" lon="-4.912367">
        <ele>2222.0</ele>
        <time>2018-09-16T12:49:30Z</time>
      </trkpt>
      <trkpt lat="40.265800" lon="-4.912267">
        <ele>2223.0</ele>
        <time>2018-09-16T12:49:31Z</time>
      </trkpt>
      <trkpt lat="40.265883" lon="-4.912200">
        <ele>2223.0</ele>
        <time>2018-09-16T12:49:32Z</time>
      </trkpt>
      <trkpt lat="40.265917" lon="-4.912133">
        <ele>2224.0</ele>
        <time>2018-09-16T12:49:33Z</time>
      </trkpt>
      <trkpt lat="40.265950" lon="-4.912050">
        <ele>2225.0</ele>
        <time>2018-09-16T12:49:34Z</time>
      </trkpt>
      <trkpt lat="40.265967" lon="-4.911967">
        <ele>2226.0</ele>
        <time>2018-09-16T12:49:35Z</time>
      </trkpt>
      <trkpt lat="40.265950" lon="-4.911867">
        <ele>2228.0</ele>
        <time>2018-09-16T12:49:36Z</time>
      </trkpt>
      <trkpt lat="40.265967" lon="-4.911783">
        <ele>2229.0</ele>
        <time>2018-09-16T12:49:37Z</time>
      </trkpt>
      <trkpt lat="40.265933" lon="-4.911733">
        <ele>2231.0</ele>
        <time>2018-09-16T12:49:38Z</time>
      </trkpt>
      <trkpt lat="40.265883" lon="-4.911733">
        <ele>2233.0</ele>
        <time>2018-09-16T12:49:39Z</time>
      </trkpt>
      <trkpt lat="40.265850" lon="-4.911800">
        <ele>2235.0</ele>
        <time>2018-09-16T12:49:40Z</time>
      </trkpt>
      <trkpt lat="40.265817" lon="-4.911867">
        <ele>2236.0</ele>
        <time>2018-09-16T12:49:41Z</time>
      </trkpt>
      <trkpt lat="40.265783" lon="-4.911950">
        <ele>2238.0</ele>
        <time>2018-09-16T12:49:42Z</time>
      </trkpt>
      <trkpt lat="40.265800" lon="-4.912050">
        <ele>2239.0</ele>
        <time>2018-09-16T12:49:43Z</time>
      </trkpt>
      <trkpt lat="40.265850" lon="-4.912150">
        <ele>2240.0</ele>
        <time>2018-09-16T12:49:44Z</time>
      </trkpt>
      <trkpt lat="40.265900" lon="-4.912250">
        <ele>2241.0</ele>
        <time>2018-09-16T12:49:45Z</time>
      </trkpt>
      <trkpt lat="40.265950" lon="-4.912317">
        <ele>2241.0</ele>
        <time>2018-09-16T12:49:46Z</time>
      </trkpt>
      <trkpt lat="40.266017" lon="-4.912333">
        <ele>2242.0</ele>
        <time>2018-09-16T12:49:47Z</time>
      </trkpt>
      <trkpt lat="40.266117" lon="-4.912317">
        <ele>2243.0</ele>
        <time>2018-09-16T12:49:48Z</time>
      </trkpt>
      <trkpt lat="40.266200" lon="-4.912300">
        <ele>2244.0</ele>
        <time>2018-09-16T12:49:49Z</time>
      </trkpt>
      <trkpt lat="40.266300" lon="-4.912300">
        <ele>2245.0</ele>
        <time>2018-09-16T12:49:50Z</time>
      </trkpt>
      <trkpt lat="40.266400" lon="-4.912300">
        <ele>2247.0</ele>
        <time>2018-09-16T12:49:51Z</time>
      </trkpt>
      <trkpt lat="40.266483" lon="-4.912250">
        <ele>2248.0</ele>
        <time>2018-09-16T12:49:52Z</time>
      </trkpt>
      <trkpt lat="40.266583" lon="-4.912167">
        <ele>2250.0</ele>
        <time>2018-09-16T12:49:53Z</time>
      </trkpt>
      <trkpt lat="40.266633" lon="-4.912117">
        <ele>2251.0</ele>
        <time>2018-09-16T12:49:54Z</time>
      </trkpt>
      <trkpt lat="40.266700" lon="-4.912067">
        <ele>2255.0</ele>
        <time>2018-09-16T12:49:55Z</time>
      </trkpt>
      <trkpt lat="40.266767" lon="-4.912033">
        <ele>2258.0</ele>
        <time>2018-09-16T12:49:56Z</time>
      </trkpt>
      <trkpt lat="40.266833" lon="-4.912017">
        <ele>2261.0</ele>
        <time>2018-09-16T12:49:57Z</time>
      </trkpt>
      <trkpt lat="40.266917" lon="-4.912000">
        <ele>2263.0</ele>
        <time>2018-09-16T12:49:58Z</time>
      </trkpt>
      <trkpt lat="40.266983" lon="-4.912000">
        <ele>2266.0</ele>
        <time>2018-09-16T12:49:59Z</time>
      </trkpt>
      <trkpt lat="40.267050" lon="-4.912033">
        <ele>2271.0</ele>
        <time>2018-09-16T12:50:00Z</time>
      </trkpt>
      <trkpt lat="40.267083" lon="-4.912133">
        <ele>2277.0</ele>
        <time>2018-09-16T12:50:01Z</time>
      </trkpt>
      <trkpt lat="40.267117" lon="-4.912233">
        <ele>2281.0</ele>
        <time>2018-09-16T12:50:02Z</time>
      </trkpt>
      <trkpt lat="40.267117" lon="-4.912367">
        <ele>2284.0</ele>
        <time>2018-09-16T12:50:03Z</time>
      </trkpt>
      <trkpt lat="40.267083" lon="-4.912483">
        <ele>2287.0</ele>
        <time>2018-09-16T12:50:04Z</time>
      </trkpt>
      <trkpt lat="40.267017" lon="-4.912600">
        <ele>2291.0</ele>
        <time>2018-09-16T12:50:05Z</time>
      </trkpt>
      <trkpt lat="40.266933" lon="-4.912667">
        <ele>2295.0</ele>
        <time>2018-09-16T12:50:06Z</time>
      </trkpt>
      <trkpt lat="40.266850" lon="-4.912683">
        <ele>2300.0</ele>
        <time>2018-09-16T12:50:07Z</time>
      </trkpt>
      <trkpt lat="40.266783" lon="-4.912633">
        <ele>2303.0</ele>
        <time>2018-09-16T12:50:08Z</time>
      </trkpt>
      <trkpt lat="40.266767" lon="-4.912533">
        <ele>2305.0</ele>
        <time>2018-09-16T12:50:09Z</time>
      </trkpt>
      <trkpt lat="40.266833" lon="-4.912433">
        <ele>2308.0</ele>
        <time>2018-09-16T12:50:10Z</time>
      </trkpt>
      <trkpt lat="40.266917" lon="-4.912383">
        <ele>2310.0</ele>
        <time>2018-09-16T12:50:11Z</time>
      </trkpt>
      <trkpt lat="40.267000" lon="-4.912367">
        <ele>2315.0</ele>
        <time>2018-09-16T12:50:12Z</time>
      </trkpt>
      <trkpt lat="40.267067" lon="-4.912383">
        <ele>2319.0</ele>
        <time>2018-09-16T12:50:13Z</time>
      </trkpt>
      <trkpt lat="40.267133" lon="-4.912450">
        <ele>2323.0</ele>
        <time>2018-09-16T12:50:14Z</time>
      </trkpt>
      <trkpt lat="40.267183" lon="-4.912517">
        <ele>2327.0</ele>
        <time>2018-09-16T12:50:15Z</time>
      </trkpt>
      <trkpt lat="40.267217" lon="-4.912617">
        <ele>2330.0</ele>
        <time>2018-09-16T12:50:16Z</time>
      </trkpt>
      <trkpt lat="40.267233" lon="-4.912733">
        <ele>2333.0</ele>
        <time>2018-09-16T12:50:17Z</time>
      </trkpt>
      <trkpt lat="40.267233" lon="-4.912867">
        <ele>2335.0</ele>
        <time>2018-09-16T12:50:18Z</time>
      </trkpt>
      <trkpt lat="40.267167" lon="-4.912983">
        <ele>2337.0</ele>
        <time>2018-09-16T12:50:19Z</time>
      </trkpt>
      <trkpt lat="40.267050" lon="-4.913050">
        <ele>2341.0</ele>
        <time>2018-09-16T12:50:20Z</time>
      </trkpt>
      <trkpt lat="40.266967" lon="-4.913083">
        <ele>2345.0</ele>
        <time>2018-09-16T12:50:21Z</time>
      </trkpt>
      <trkpt lat="40.266883" lon="-4.913067">
        <ele>2347.0</ele>
        <time>2018-09-16T12:50:22Z</time>
      </trkpt>
      <trkpt lat="40.266817" lon="-4.913033">
        <ele>2350.0</ele>
        <time>2018-09-16T12:50:23Z</time>
      </trkpt>
      <trkpt lat="40.266783" lon="-4.912983">
        <ele>2353.0</ele>
        <time>2018-09-16T12:50:24Z</time>
      </trkpt>
      <trkpt lat="40.266767" lon="-4.912917">
        <ele>2357.0</ele>
        <time>2018-09-16T12:50:25Z</time>
      </trkpt>
      <trkpt lat="40.266767" lon="-4.912850">
        <ele>2361.0</ele>
        <time>2018-09-16T12:50:26Z</time>
      </trkpt>
      <trkpt lat="40.266783" lon="-4.912783">
        <ele>2365.0</ele>
        <time>2018-09-16T12:50:27Z</time>
      </trkpt>
      <trkpt lat="40.266817" lon="-4.912733">
        <ele>2369.0</ele>
        <time>2018-09-16T12:50:28Z</time>
      </trkpt>
      <trkpt lat="40.266883" lon="-4.912700">
        <ele>2373.0</ele>
        <time>2018-09-16T12:50:29Z</time>
      </trkpt>
      <trkpt lat="40.266950" lon="-4.912717">
        <ele>2375.0</ele>
        <time>2018-09-16T12:50:30Z</time>
      </trkpt>
      <trkpt lat="40.267033" lon="-4.912783">
        <ele>2378.0</ele>
        <time>2018-09-16T12:50:31Z</time>
      </trkpt>
      <trkpt lat="40.267083" lon="-4.912883">
        <ele>2381.0</ele>
        <time>2018-09-16T12:50:32Z</time>
      </trkpt>
      <trkpt lat="40.267133" lon="-4.912983">
        <ele>2383.0</ele>
        <time>2018-09-16T12:50:33Z</time>
      </trkpt>
      <trkpt lat="40.267167" lon="-4.913100">
        <ele>2386.0</ele>
        <time>2018-09-16T12:50:34Z</time>
      </trkpt>
      <trkpt lat="40.267183" lon="-4.913233">
        <ele>2388.0</ele>
        <time>2018-09-16T12:50:35Z</time>
      </trkpt>
      <trkpt lat="40.267183" lon="-4.913367">
        <ele>2391.0</ele>
        <time>2018-09-16T12:50:36Z</time>
      </trkpt>
      <trkpt lat="40.267167" lon="-4.913517">
        <ele>2393.0</ele>
        <time>2018-09-16T12:50:37Z</time>
      </trkpt>
      <trkpt lat="40.267100" lon="-4.913667">
        <ele>2395.0</ele>
        <time>2018-09-16T12:50:38Z</time>
      </trkpt>
      <trkpt lat="40.267017" lon="-4.913767">
        <ele>2396.0</ele>
        <time>2018-09-16T12:50:39Z</time>
      </trkpt>
      <trkpt lat="40.266917" lon="-4.913817">
        <ele>2398.0</ele>
        <time>2018-09-16T12:50:40Z</time>
      </trkpt>
      <trkpt lat="40.266817" lon="-4.913783">
        <ele>2399.0</ele>
        <time>2018-09-16T12:50:41Z</time>
      </trkpt>
      <trkpt lat="40.266767" lon="-4.913717">
        <ele>2401.0</ele>
        <time>2018-09-16T12:50:42Z</time>
      </trkpt>
      <trkpt lat="40.266767" lon="-4.913650">
        <ele>2403.0</ele>
        <time>2018-09-16T12:50:43Z</time>
      </trkpt>
      <trkpt lat="40.266767" lon="-4.913583">
        <ele>2405.0</ele>
        <time>2018-09-16T12:50:44Z</time>
      </trkpt>
      <trkpt lat="40.266800" lon="-4.913517">
        <ele>2407.0</ele>
        <time>2018-09-16T12:50:45Z</time>
      </trkpt>
      <trkpt lat="40.266817" lon="-4.913467">
        <ele>2411.0</ele>
        <time>2018-09-16T12:50:46Z</time>
      </trkpt>
      <trkpt lat="40.266850" lon="-4.913433">
        <ele>2413.0</ele>
        <time>2018-09-16T12:50:47Z</time>
      </trkpt>
      <trkpt lat="40.266883" lon="-4.913417">
        <ele>2415.0</ele>
        <time>2018-09-16T12:50:48Z</time>
      </trkpt>
      <trkpt lat="40.266950" lon="-4.913400">
        <ele>2416.0</ele>
        <time>2018-09-16T12:50:49Z</time>
      </trkpt>
      <trkpt lat="40.267000" lon="-4.913367">
        <ele>2414.0</ele>
        <time>2018-09-16T12:50:50Z</time>
      </trkpt>
      <trkpt lat="40.267050" lon="-4.913300">
        <ele>2414.0</ele>
        <time>2018-09-16T12:50:51Z</time>
      </trkpt>
      <trkpt lat="40.267067" lon="-4.913250">
        <ele>2414.0</ele>
        <time>2018-09-16T12:50:52Z</time>
      </trkpt>
      <trkpt lat="40.267083" lon="-4.913183">
        <ele>2415.0</ele>
        <time>2018-09-16T12:50:53Z</time>
      </trkpt>
      <trkpt lat="40.267067" lon="-4.913150">
        <ele>2416.0</ele>
        <time>2018-09-16T12:50:54Z</time>
      </trkpt>
      <trkpt lat="40.267067" lon="-4.913083">
        <ele>2420.0</ele>
        <time>2018-09-16T12:50:55Z</time>
      </trkpt>
      <trkpt lat="40.267067" lon="-4.913017">
        <ele>2424.0</ele>
        <time>2018-09-16T12:50:56Z</time>
      </trkpt>
      <trkpt lat="40.267083" lon="-4.912950">
        <ele>2428.0</ele>
        <time>2018-09-16T12:50:57Z</time>
      </trkpt>
      <trkpt lat="40.267133" lon="-4.912917">
        <ele>2433.0</ele>
        <time>2018-09-16T12:50:58Z</time>
      </trkpt>
      <trkpt lat="40.267183" lon="-4.912883">
        <ele>2436.0</ele>
        <time>2018-09-16T12:50:59Z</time>
      </trkpt>
      <trkpt lat="40.267267" lon="-4.912867">
        <ele>2439.0</ele>
        <time>2018-09-16T12:51:00Z</time>
      </trkpt>
      <trkpt lat="40.267350" lon="-4.912900">
        <ele>2440.0</ele>
        <time>2018-09-16T12:51:01Z</time>
      </trkpt>
      <trkpt lat="40.267433" lon="-4.912967">
        <ele>2442.0</ele>
        <time>2018-09-16T12:51:02Z</time>
      </trkpt>
      <trkpt lat="40.267500" lon="-4.913067">
        <ele>2444.0</ele>
        <time>2018-09-16T12:51:03Z</time>
      </trkpt>
      <trkpt lat="40.267550" lon="-4.913217">
        <ele>2445.0</ele>
        <time>2018-09-16T12:51:04Z</time>
      </trkpt>
      <trkpt lat="40.267567" lon="-4.913383">
        <ele>2445.0</ele>
        <time>2018-09-16T12:51:05Z</time>
      </trkpt>
      <trkpt lat="40.267567" lon="-4.913550">
        <ele>2447.0</ele>
        <time>2018-09-16T12:51:06Z</time>
      </trkpt>
      <trkpt lat="40.267517" lon="-4.913683">
        <ele>2449.0</ele>
        <time>2018-09-16T12:51:07Z</time>
      </trkpt>
      <trkpt lat="40.267450" lon="-4.913800">
        <ele>2451.0</ele>
        <time>2018-09-16T12:51:08Z</time>
      </trkpt>
      <trkpt lat="40.267350" lon="-4.913867">
        <ele>2452.0</ele>
        <time>2018-09-16T12:51:09Z</time>
      </trkpt>
      <trkpt lat="40.267250" lon="-4.913900">
        <ele>2454.0</ele>
        <time>2018-09-16T12:51:10Z</time>
      </trkpt>
      <trkpt lat="40.267167" lon="-4.913883">
        <ele>2455.0</ele>
        <time>2018-09-16T12:51:11Z</time>
      </trkpt>
      <trkpt lat="40.267100" lon="-4.913817">
        <ele>2457.0</ele>
        <time>2018-09-16T12:51:12Z</time>
      </trkpt>
      <trkpt lat="40.267083" lon="-4.913717">
        <ele>2459.0</ele>
        <time>2018-09-16T12:51:13Z</time>
      </trkpt>
      <trkpt lat="40.267100" lon="-4.913633">
        <ele>2461.0</ele>
        <time>2018-09-16T12:51:14Z</time>
      </trkpt>
      <trkpt lat="40.267150" lon="-4.913567">
        <ele>2463.0</ele>
        <time>2018-09-16T12:51:15Z</time>
      </trkpt>
      <trkpt lat="40.267217" lon="-4.913550">
        <ele>2467.0</ele>
        <time>2018-09-16T12:51:16Z</time>
      </trkpt>
      <trkpt lat="40.267283" lon="-4.913550">
        <ele>2470.0</ele>
        <time>2018-09-16T12:51:17Z</time>
      </trkpt>
      <trkpt lat="40.267350" lon="-4.913583">
        <ele>2473.0</ele>
        <time>2018-09-16T12:51:18Z</time>
      </trkpt>
      <trkpt lat="40.267417" lon="-4.913600">
        <ele>2476.0</ele>
        <time>2018-09-16T12:51:19Z</time>
      </trkpt>
      <trkpt lat="40.267500" lon="-4.913650">
        <ele>2478.0</ele>
        <time>2018-09-16T12:51:20Z</time>
      </trkpt>
      <trkpt lat="40.267583" lon="-4.913667">
        <ele>2475.0</ele>
        <time>2018-09-16T12:51:21Z</time>
      </trkpt>
      <trkpt lat="40.267667" lon="-4.913633">
        <ele>2475.0</ele>
        <time>2018-09-16T12:51:22Z</time>
      </trkpt>
      <trkpt lat="40.267733" lon="-4.913583">
        <ele>2475.0</ele>
        <time>2018-09-16T12:51:23Z</time>
      </trkpt>
      <trkpt lat="40.267750" lon="-4.913500">
        <ele>2476.0</ele>
        <time>2018-09-16T12:51:24Z</time>
      </trkpt>
      <trkpt lat="40.267750" lon="-4.913417">
        <ele>2478.0</ele>
        <time>2018-09-16T12:51:25Z</time>
      </trkpt>
      <trkpt lat="40.267700" lon="-4.913350">
        <ele>2480.0</ele>
        <time>2018-09-16T12:51:26Z</time>
      </trkpt>
      <trkpt lat="40.267633" lon="-4.913333">
        <ele>2481.0</ele>
        <time>2018-09-16T12:51:27Z</time>
      </trkpt>
      <trkpt lat="40.267533" lon="-4.913350">
        <ele>2482.0</ele>
        <time>2018-09-16T12:51:28Z</time>
      </trkpt>
      <trkpt lat="40.267450" lon="-4.913417">
        <ele>2484.0</ele>
        <time>2018-09-16T12:51:29Z</time>
      </trkpt>
      <trkpt lat="40.267367" lon="-4.913533">
        <ele>2487.0</ele>
        <time>2018-09-16T12:51:30Z</time>
      </trkpt>
      <trkpt lat="40.267317" lon="-4.913650">
        <ele>2490.0</ele>
        <time>2018-09-16T12:51:31Z</time>
      </trkpt>
      <trkpt lat="40.267317" lon="-4.913783">
        <ele>2493.0</ele>
        <time>2018-09-16T12:51:32Z</time>
      </trkpt>
      <trkpt lat="40.267350" lon="-4.913917">
        <ele>2495.0</ele>
        <time>2018-09-16T12:51:33Z</time>
      </trkpt>
      <trkpt lat="40.267417" lon="-4.914000">
        <ele>2497.0</ele>
        <time>2018-09-16T12:51:34Z</time>
      </trkpt>
      <trkpt lat="40.267483" lon="-4.914067">
        <ele>2499.0</ele>
        <time>2018-09-16T12:51:35Z</time>
      </trkpt>
      <trkpt lat="40.267583" lon="-4.914083">
        <ele>2495.0</ele>
        <time>2018-09-16T12:51:36Z</time>
      </trkpt>
      <trkpt lat="40.267650" lon="-4.914083">
        <ele>2496.0</ele>
        <time>2018-09-16T12:51:37Z</time>
      </trkpt>
      <trkpt lat="40.267733" lon="-4.914033">
        <ele>2496.0</ele>
        <time>2018-09-16T12:51:38Z</time>
      </trkpt>
      <trkpt lat="40.267800" lon="-4.913967">
        <ele>2497.0</ele>
        <time>2018-09-16T12:51:39Z</time>
      </trkpt>
      <trkpt lat="40.267850" lon="-4.913883">
        <ele>2498.0</ele>
        <time>2018-09-16T12:51:40Z</time>
      </trkpt>
      <trkpt lat="40.267867" lon="-4.913817">
        <ele>2499.0</ele>
        <time>2018-09-16T12:51:41Z</time>
      </trkpt>
      <trkpt lat="40.267833" lon="-4.913750">
        <ele>2500.0</ele>
        <time>2018-09-16T12:51:42Z</time>
      </trkpt>
      <trkpt lat="40.267783" lon="-4.913700">
        <ele>2501.0</ele>
        <time>2018-09-16T12:51:43Z</time>
      </trkpt>
      <trkpt lat="40.267717" lon="-4.913667">
        <ele>2502.0</ele>
        <time>2018-09-16T12:51:44Z</time>
      </trkpt>
      <trkpt lat="40.267633" lon="-4.913650">
        <ele>2502.0</ele>
        <time>2018-09-16T12:51:45Z</time>
      </trkpt>
      <trkpt lat="40.267550" lon="-4.913667">
        <ele>2502.0</ele>
        <time>2018-09-16T12:51:46Z</time>
      </trkpt>
      <trkpt lat="40.267450" lon="-4.913700">
        <ele>2503.0</ele>
        <time>2018-09-16T12:51:47Z</time>
      </trkpt>
      <trkpt lat="40.267350" lon="-4.913767">
        <ele>2504.0</ele>
        <time>2018-09-16T12:51:48Z</time>
      </trkpt>
      <trkpt lat="40.267283" lon="-4.913867">
        <ele>2505.0</ele>
        <time>2018-09-16T12:51:49Z</time>
      </trkpt>
      <trkpt lat="40.267233" lon="-4.913983">
        <ele>2506.0</ele>
        <time>2018-09-16T12:51:50Z</time>
      </trkpt>
      <trkpt lat="40.267200" lon="-4.914117">
        <ele>2508.0</ele>
        <time>2018-09-16T12:51:51Z</time>
      </trkpt>
      <trkpt lat="40.267217" lon="-4.914267">
        <ele>2510.0</ele>
        <time>2018-09-16T12:51:52Z</time>
      </trkpt>
      <trkpt lat="40.267267" lon="-4.914400">
        <ele>2512.0</ele>
        <time>2018-09-16T12:51:53Z</time>
      </trkpt>
      <trkpt lat="40.267333" lon="-4.914500">
        <ele>2516.0</ele>
        <time>2018-09-16T12:51:54Z</time>
      </trkpt>
      <trkpt lat="40.267400" lon="-4.914600">
        <ele>2520.0</ele>
        <time>2018-09-16T12:51:55Z</time>
      </trkpt>
      <trkpt lat="40.267483" lon="-4.914633">
        <ele>2522.0</ele>
        <time>2018-09-16T12:51:56Z</time>
      </trkpt>
      <trkpt lat="40.267567" lon="-4.914650">
        <ele>2521.0</ele>
        <time>2018-09-16T12:51:57Z</time>
      </trkpt>
      <trkpt lat="40.267650" lon="-4.914633">
        <ele>2520.0</ele>
        <time>2018-09-16T12:51:58Z</time>
      </trkpt>
      <trkpt lat="40.267717" lon="-4.914600">
        <ele>2521.0</ele>
        <time>2018-09-16T12:51:59Z</time>
      </trkpt>
      <trkpt lat="40.267783" lon="-4.914550">
        <ele>2522.0</ele>
        <time>2018-09-16T12:52:00Z</time>
      </trkpt>
      <trkpt lat="40.267833" lon="-4.914517">
        <ele>2524.0</ele>
        <time>2018-09-16T12:52:01Z</time>
      </trkpt>
      <trkpt lat="40.267867" lon="-4.914467">
        <ele>2525.0</ele>
        <time>2018-09-16T12:52:02Z</time>
      </trkpt>
      <trkpt lat="40.267900" lon="-4.914417">
        <ele>2526.0</ele>
        <time>2018-09-16T12:52:03Z</time>
      </trkpt>
      <trkpt lat="40.267933" lon="-4.914350">
        <ele>2526.0</ele>
        <time>2018-09-16T12:52:04Z</time>
      </trkpt>
      <trkpt lat="40.267967" lon="-4.914283">
        <ele>2526.0</ele>
        <time>2018-09-16T12:52:05Z</time>
      </trkpt>
      <trkpt lat="40.268017" lon="-4.914183">
        <ele>2527.0</ele>
        <time>2018-09-16T12:52:06Z</time>
      </trkpt>
      <trkpt lat="40.268050" lon="-4.914100">
        <ele>2527.0</ele>
        <time>2018-09-16T12:52:07Z</time>
      </trkpt>
      <trkpt lat="40.268050" lon="-4.914017">
        <ele>2528.0</ele>
        <time>2018-09-16T12:52:08Z</time>
      </trkpt>
      <trkpt lat="40.268067" lon="-4.913933">
        <ele>2529.0</ele>
        <time>2018-09-16T12:52:09Z</time>
      </trkpt>
      <trkpt lat="40.268100" lon="-4.913850">
        <ele>2529.0</ele>
        <time>2018-09-16T12:52:10Z</time>
      </trkpt>
      <trkpt lat="40.268133" lon="-4.913767">
        <ele>2530.0</ele>
        <time>2018-09-16T12:52:11Z</time>
      </trkpt>
      <trkpt lat="40.268167" lon="-4.913700">
        <ele>2530.0</ele>
        <time>2018-09-16T12:52:12Z</time>
      </trkpt>
      <trkpt lat="40.268200" lon="-4.913617">
        <ele>2530.0</ele>
        <time>2018-09-16T12:52:13Z</time>
      </trkpt>
      <trkpt lat="40.268250" lon="-4.913533">
        <ele>2530.0</ele>
        <time>2018-09-16T12:52:14Z</time>
      </trkpt>
      <trkpt lat="40.268283" lon="-4.913450">
        <ele>2529.0</ele>
        <time>2018-09-16T12:52:15Z</time>
      </trkpt>
      <trkpt lat="40.268333" lon="-4.913367">
        <ele>2530.0</ele>
        <time>2018-09-16T12:52:16Z</time>
      </trkpt>
      <trkpt lat="40.268367" lon="-4.913283">
        <ele>2531.0</ele>
        <time>2018-09-16T12:52:17Z</time>
      </trkpt>
      <trkpt lat="40.268383" lon="-4.913217">
        <ele>2533.0</ele>
        <time>2018-09-16T12:52:18Z</time>
      </trkpt>
      <trkpt lat="40.268417" lon="-4.913133">
        <ele>2532.0</ele>
        <time>2018-09-16T12:52:19Z</time>
      </trkpt>
      <trkpt lat="40.268450" lon="-4.913050">
        <ele>2531.0</ele>
        <time>2018-09-16T12:52:20Z</time>
      </trkpt>
      <trkpt lat="40.268500" lon="-4.912950">
        <ele>2528.0</ele>
        <time>2018-09-16T12:52:21Z</time>
      </trkpt>
      <trkpt lat="40.268533" lon="-4.912850">
        <ele>2525.0</ele>
        <time>2018-09-16T12:52:22Z</time>
      </trkpt>
      <trkpt lat="40.268567" lon="-4.912750">
        <ele>2524.0</ele>
        <time>2018-09-16T12:52:23Z</time>
      </trkpt>
      <trkpt lat="40.268583" lon="-4.912667">
        <ele>2524.0</ele>
        <time>2018-09-16T12:52:24Z</time>
      </trkpt>
      <trkpt lat="40.268617" lon="-4.912567">
        <ele>2523.0</ele>
        <time>2018-09-16T12:52:25Z</time>
      </trkpt>
      <trkpt lat="40.268667" lon="-4.912483">
        <ele>2521.0</ele>
        <time>2018-09-16T12:52:26Z</time>
      </trkpt>
      <trkpt lat="40.268700" lon="-4.912400">
        <ele>2520.0</ele>
        <time>2018-09-16T12:52:27Z</time>
      </trkpt>
      <trkpt lat="40.268733" lon="-4.912317">
        <ele>2519.0</ele>
        <time>2018-09-16T12:52:28Z</time>
      </trkpt>
      <trkpt lat="40.268750" lon="-4.912233">
        <ele>2518.0</ele>
        <time>2018-09-16T12:52:29Z</time>
      </trkpt>
      <trkpt lat="40.268783" lon="-4.912167">
        <ele>2516.0</ele>
        <time>2018-09-16T12:52:30Z</time>
      </trkpt>
      <trkpt lat="40.268800" lon="-4.912067">
        <ele>2515.0</ele>
        <time>2018-09-16T12:52:31Z</time>
      </trkpt>
      <trkpt lat="40.268817" lon="-4.911983">
        <ele>2516.0</ele>
        <time>2018-09-16T12:52:32Z</time>
      </trkpt>
      <trkpt lat="40.268833" lon="-4.911900">
        <ele>2516.0</ele>
        <time>2018-09-16T12:52:33Z</time>
      </trkpt>
      <trkpt lat="40.268867" lon="-4.911800">
        <ele>2516.0</ele>
        <time>2018-09-16T12:52:34Z</time>
      </trkpt>
      <trkpt lat="40.268883" lon="-4.911733">
        <ele>2516.0</ele>
        <time>2018-09-16T12:52:35Z</time>
      </trkpt>
      <trkpt lat="40.268883" lon="-4.911650">
        <ele>2516.0</ele>
        <time>2018-09-16T12:52:36Z</time>
      </trkpt>
      <trkpt lat="40.268950" lon="-4.911350">
        <ele>0.0</ele>
        <time>2018-09-16T12:52:40Z</time>
      </trkpt>
      <trkpt lat="40.268950" lon="-4.911217">
        <ele>2516.0</ele>
        <time>2018-09-16T12:52:41Z</time>
      </trkpt>
      <trkpt lat="40.268967" lon="-4.911117">
        <ele>2516.0</ele>
        <time>2018-09-16T12:52:42Z</time>
      </trkpt>
      <trkpt lat="40.268983" lon="-4.911033">
        <ele>2516.0</ele>
        <time>2018-09-16T12:52:43Z</time>
      </trkpt>
      <trkpt lat="40.269017" lon="-4.910967">
        <ele>2516.0</ele>
        <time>2018-09-16T12:52:44Z</time>
      </trkpt>
      <trkpt lat="40.269033" lon="-4.910883">
        <ele>2516.0</ele>
        <time>2018-09-16T12:52:45Z</time>
      </trkpt>
      <trkpt lat="40.269050" lon="-4.910800">
        <ele>2516.0</ele>
        <time>2018-09-16T12:52:46Z</time>
      </trkpt>
      <trkpt lat="40.269067" lon="-4.910717">
        <ele>2515.0</ele>
        <time>2018-09-16T12:52:47Z</time>
      </trkpt>
      <trkpt lat="40.269083" lon="-4.910650">
        <ele>2514.0</ele>
        <time>2018-09-16T12:52:48Z</time>
      </trkpt>
      <trkpt lat="40.269100" lon="-4.910567">
        <ele>2513.0</ele>
        <time>2018-09-16T12:52:49Z</time>
      </trkpt>
      <trkpt lat="40.269117" lon="-4.910483">
        <ele>2514.0</ele>
        <time>2018-09-16T12:52:50Z</time>
      </trkpt>
      <trkpt lat="40.269150" lon="-4.910417">
        <ele>2513.0</ele>
        <time>2018-09-16T12:52:51Z</time>
      </trkpt>
      <trkpt lat="40.269183" lon="-4.910317">
        <ele>2513.0</ele>
        <time>2018-09-16T12:52:52Z</time>
      </trkpt>
      <trkpt lat="40.269217" lon="-4.910233">
        <ele>2512.0</ele>
        <time>2018-09-16T12:52:53Z</time>
      </trkpt>
      <trkpt lat="40.269250" lon="-4.910150">
        <ele>2512.0</ele>
        <time>2018-09-16T12:52:54Z</time>
      </trkpt>
      <trkpt lat="40.269283" lon="-4.910083">
        <ele>2511.0</ele>
        <time>2018-09-16T12:52:55Z</time>
      </trkpt>
      <trkpt lat="40.269300" lon="-4.910000">
        <ele>2510.0</ele>
        <time>2018-09-16T12:52:56Z</time>
      </trkpt>
      <trkpt lat="40.269333" lon="-4.909917">
        <ele>2509.0</ele>
        <time>2018-09-16T12:52:57Z</time>
      </trkpt>
      <trkpt lat="40.269367" lon="-4.909833">
        <ele>2508.0</ele>
        <time>2018-09-16T12:52:58Z</time>
      </trkpt>
      <trkpt lat="40.269400" lon="-4.909733">
        <ele>2506.0</ele>
        <time>2018-09-16T12:52:59Z</time>
      </trkpt>
      <trkpt lat="40.269450" lon="-4.909650">
        <ele>2505.0</ele>
        <time>2018-09-16T12:53:00Z</time>
      </trkpt>
      <trkpt lat="40.269500" lon="-4.909583">
        <ele>2504.0</ele>
        <time>2018-09-16T12:53:01Z</time>
      </trkpt>
      <trkpt lat="40.269550" lon="-4.909517">
        <ele>2502.0</ele>
        <time>2018-09-16T12:53:02Z</time>
      </trkpt>
      <trkpt lat="40.269600" lon="-4.909450">
        <ele>2500.0</ele>
        <time>2018-09-16T12:53:03Z</time>
      </trkpt>
      <trkpt lat="40.269667" lon="-4.909383">
        <ele>2498.0</ele>
        <time>2018-09-16T12:53:04Z</time>
      </trkpt>
      <trkpt lat="40.269733" lon="-4.909317">
        <ele>2496.0</ele>
        <time>2018-09-16T12:53:05Z</time>
      </trkpt>
      <trkpt lat="40.269800" lon="-4.909250">
        <ele>2494.0</ele>
        <time>2018-09-16T12:53:06Z</time>
      </trkpt>
      <trkpt lat="40.269850" lon="-4.909183">
        <ele>2492.0</ele>
        <time>2018-09-16T12:53:07Z</time>
      </trkpt>
      <trkpt lat="40.269883" lon="-4.909100">
        <ele>2491.0</ele>
        <time>2018-09-16T12:53:08Z</time>
      </trkpt>
      <trkpt lat="40.269917" lon="-4.909033">
        <ele>2492.0</ele>
        <time>2018-09-16T12:53:09Z</time>
      </trkpt>
      <trkpt lat="40.269950" lon="-4.908950">
        <ele>2492.0</ele>
        <time>2018-09-16T12:53:10Z</time>
      </trkpt>
      <trkpt lat="40.269967" lon="-4.908867">
        <ele>2491.0</ele>
        <time>2018-09-16T12:53:11Z</time>
      </trkpt>
      <trkpt lat="40.270000" lon="-4.908783">
        <ele>2491.0</ele>
        <time>2018-09-16T12:53:12Z</time>
      </trkpt>
      <trkpt lat="40.270017" lon="-4.908700">
        <ele>2490.0</ele>
        <time>2018-09-16T12:53:13Z</time>
      </trkpt>
      <trkpt lat="40.270050" lon="-4.908617">
        <ele>2489.0</ele>
        <time>2018-09-16T12:53:14Z</time>
      </trkpt>
      <trkpt lat="40.270083" lon="-4.908533">
        <ele>2489.0</ele>
        <time>2018-09-16T12:53:15Z</time>
      </trkpt>
      <trkpt lat="40.270117" lon="-4.908450">
        <ele>2488.0</ele>
        <time>2018-09-16T12:53:16Z</time>
      </trkpt>
      <trkpt lat="40.270167" lon="-4.908383">
        <ele>2488.0</ele>
        <time>2018-09-16T12:53:17Z</time>
      </trkpt>
      <trkpt lat="40.270233" lon="-4.908333">
        <ele>2488.0</ele>
        <time>2018-09-16T12:53:18Z</time>
      </trkpt>
      <trkpt lat="40.270300" lon="-4.908300">
        <ele>2487.0</ele>
        <time>2018-09-16T12:53:19Z</time>
      </trkpt>
      <trkpt lat="40.270383" lon="-4.908267">
        <ele>2485.0</ele>
        <time>2018-09-16T12:53:20Z</time>
      </trkpt>
      <trkpt lat="40.270467" lon="-4.908233">
        <ele>2484.0</ele>
        <time>2018-09-16T12:53:21Z</time>
      </trkpt>
      <trkpt lat="40.270550" lon="-4.908183">
        <ele>2482.0</ele>
        <time>2018-09-16T12:53:22Z</time>
      </trkpt>
      <trkpt lat="40.270633" lon="-4.908150">
        <ele>2479.0</ele>
        <time>2018-09-16T12:53:23Z</time>
      </trkpt>
      <trkpt lat="40.270700" lon="-4.908100">
        <ele>2477.0</ele>
        <time>2018-09-16T12:53:24Z</time>
      </trkpt>
      <trkpt lat="40.270783" lon="-4.908067">
        <ele>2475.0</ele>
        <time>2018-09-16T12:53:25Z</time>
      </trkpt>
      <trkpt lat="40.270850" lon="-4.908017">
        <ele>2473.0</ele>
        <time>2018-09-16T12:53:26Z</time>
      </trkpt>
      <trkpt lat="40.270900" lon="-4.907950">
        <ele>2472.0</ele>
        <time>2018-09-16T12:53:27Z</time>
      </trkpt>
      <trkpt lat="40.270950" lon="-4.907883">
        <ele>2470.0</ele>
        <time>2018-09-16T12:53:28Z</time>
      </trkpt>
      <trkpt lat="40.270983" lon="-4.907800">
        <ele>2469.0</ele>
        <time>2018-09-16T12:53:29Z</time>
      </trkpt>
      <trkpt lat="40.271033" lon="-4.907733">
        <ele>2470.0</ele>
        <time>2018-09-16T12:53:30Z</time>
      </trkpt>
      <trkpt lat="40.271050" lon="-4.907667">
        <ele>2470.0</ele>
        <time>2018-09-16T12:53:31Z</time>
      </trkpt>
      <trkpt lat="40.271083" lon="-4.907600">
        <ele>2470.0</ele>
        <time>2018-09-16T12:53:32Z</time>
      </trkpt>
      <trkpt lat="40.271117" lon="-4.907517">
        <ele>2469.0</ele>
        <time>2018-09-16T12:53:33Z</time>
      </trkpt>
      <trkpt lat="40.271150" lon="-4.907433">
        <ele>2469.0</ele>
        <time>2018-09-16T12:53:34Z</time>
      </trkpt>
      <trkpt lat="40.271167" lon="-4.907333">
        <ele>2469.0</ele>
        <time>2018-09-16T12:53:35Z</time>
      </trkpt>
      <trkpt lat="40.271183" lon="-4.907233">
        <ele>2469.0</ele>
        <time>2018-09-16T12:53:36Z</time>
      </trkpt>
      <trkpt lat="40.271200" lon="-4.907150">
        <ele>2469.0</ele>
        <time>2018-09-16T12:53:37Z</time>
      </trkpt>
      <trkpt lat="40.271217" lon="-4.907067">
        <ele>2468.0</ele>
        <time>2018-09-16T12:53:38Z</time>
      </trkpt>
      <trkpt lat="40.271250" lon="-4.906967">
        <ele>2468.0</ele>
        <time>2018-09-16T12:53:39Z</time>
      </trkpt>
      <trkpt lat="40.271267" lon="-4.906883">
        <ele>2468.0</ele>
        <time>2018-09-16T12:53:40Z</time>
      </trkpt>
      <trkpt lat="40.271300" lon="-4.906783">
        <ele>2468.0</ele>
        <time>2018-09-16T12:53:41Z</time>
      </trkpt>
      <trkpt lat="40.271317" lon="-4.906700">
        <ele>2468.0</ele>
        <time>2018-09-16T12:53:42Z</time>
      </trkpt>
      <trkpt lat="40.271350" lon="-4.906617">
        <ele>2467.0</ele>
        <time>2018-09-16T12:53:43Z</time>
      </trkpt>
      <trkpt lat="40.271367" lon="-4.906533">
        <ele>2467.0</ele>
        <time>2018-09-16T12:53:44Z</time>
      </trkpt>
      <trkpt lat="40.271400" lon="-4.906450">
        <ele>2467.0</ele>
        <time>2018-09-16T12:53:45Z</time>
      </trkpt>
      <trkpt lat="40.271417" lon="-4.906350">
        <ele>2466.0</ele>
        <time>2018-09-16T12:53:46Z</time>
      </trkpt>
      <trkpt lat="40.271433" lon="-4.906250">
        <ele>2466.0</ele>
        <time>2018-09-16T12:53:47Z</time>
      </trkpt>
      <trkpt lat="40.271450" lon="-4.906167">
        <ele>2465.0</ele>
        <time>2018-09-16T12:53:48Z</time>
      </trkpt>
      <trkpt lat="40.271467" lon="-4.906067">
        <ele>2465.0</ele>
        <time>2018-09-16T12:53:49Z</time>
      </trkpt>
      <trkpt lat="40.271483" lon="-4.905967">
        <ele>2464.0</ele>
        <time>2018-09-16T12:53:50Z</time>
      </trkpt>
      <trkpt lat="40.271500" lon="-4.905867">
        <ele>2464.0</ele>
        <time>2018-09-16T12:53:51Z</time>
      </trkpt>
      <trkpt lat="40.271517" lon="-4.905767">
        <ele>2464.0</ele>
        <time>2018-09-16T12:53:52Z</time>
      </trkpt>
      <trkpt lat="40.271550" lon="-4.905667">
        <ele>2463.0</ele>
        <time>2018-09-16T12:53:53Z</time>
      </trkpt>
      <trkpt lat="40.271567" lon="-4.905567">
        <ele>2463.0</ele>
        <time>2018-09-16T12:53:54Z</time>
      </trkpt>
      <trkpt lat="40.271567" lon="-4.905483">
        <ele>2463.0</ele>
        <time>2018-09-16T12:53:55Z</time>
      </trkpt>
      <trkpt lat="40.271600" lon="-4.905383">
        <ele>2462.0</ele>
        <time>2018-09-16T12:53:56Z</time>
      </trkpt>
      <trkpt lat="40.271600" lon="-4.905300">
        <ele>2462.0</ele>
        <time>2018-09-16T12:53:57Z</time>
      </trkpt>
      <trkpt lat="40.271633" lon="-4.905233">
        <ele>2461.0</ele>
        <time>2018-09-16T12:53:58Z</time>
      </trkpt>
      <trkpt lat="40.271650" lon="-4.905167">
        <ele>2460.0</ele>
        <time>2018-09-16T12:53:59Z</time>
      </trkpt>
      <trkpt lat="40.271683" lon="-4.905117">
        <ele>2458.0</ele>
        <time>2018-09-16T12:54:00Z</time>
      </trkpt>
      <trkpt lat="40.271700" lon="-4.905050">
        <ele>2455.0</ele>
        <time>2018-09-16T12:54:01Z</time>
      </trkpt>
      <trkpt lat="40.271733" lon="-4.905017">
        <ele>2452.0</ele>
        <time>2018-09-16T12:54:02Z</time>
      </trkpt>
      <trkpt lat="40.271767" lon="-4.904950">
        <ele>2448.0</ele>
        <time>2018-09-16T12:54:03Z</time>
      </trkpt>
      <trkpt lat="40.271800" lon="-4.904883">
        <ele>2445.0</ele>
        <time>2018-09-16T12:54:04Z</time>
      </trkpt>
      <trkpt lat="40.271817" lon="-4.904800">
        <ele>2442.0</ele>
        <time>2018-09-16T12:54:05Z</time>
      </trkpt>
      <trkpt lat="40.271850" lon="-4.904733">
        <ele>2440.0</ele>
        <time>2018-09-16T12:54:06Z</time>
      </trkpt>
      <trkpt lat="40.271883" lon="-4.904650">
        <ele>2438.0</ele>
        <time>2018-09-16T12:54:07Z</time>
      </trkpt>
      <trkpt lat="40.271933" lon="-4.904583">
        <ele>2436.0</ele>
        <time>2018-09-16T12:54:08Z</time>
      </trkpt>
      <trkpt lat="40.271967" lon="-4.904500">
        <ele>2435.0</ele>
        <time>2018-09-16T12:54:09Z</time>
      </trkpt>
      <trkpt lat="40.272000" lon="-4.904433">
        <ele>2433.0</ele>
        <time>2018-09-16T12:54:10Z</time>
      </trkpt>
      <trkpt lat="40.272033" lon="-4.904350">
        <ele>2432.0</ele>
        <time>2018-09-16T12:54:11Z</time>
      </trkpt>
      <trkpt lat="40.272083" lon="-4.904283">
        <ele>2430.0</ele>
        <time>2018-09-16T12:54:12Z</time>
      </trkpt>
      <trkpt lat="40.272117" lon="-4.904200">
        <ele>2428.0</ele>
        <time>2018-09-16T12:54:13Z</time>
      </trkpt>
      <trkpt lat="40.272150" lon="-4.904133">
        <ele>2426.0</ele>
        <time>2018-09-16T12:54:14Z</time>
      </trkpt>
      <trkpt lat="40.272183" lon="-4.904050">
        <ele>2424.0</ele>
        <time>2018-09-16T12:54:15Z</time>
      </trkpt>
      <trkpt lat="40.272217" lon="-4.903967">
        <ele>2423.0</ele>
        <time>2018-09-16T12:54:16Z</time>
      </trkpt>
      <trkpt lat="40.272250" lon="-4.903883">
        <ele>2421.0</ele>
        <time>2018-09-16T12:54:17Z</time>
      </trkpt>
      <trkpt lat="40.272283" lon="-4.903800">
        <ele>2419.0</ele>
        <time>2018-09-16T12:54:18Z</time>
      </trkpt>
      <trkpt lat="40.272317" lon="-4.903717">
        <ele>2417.0</ele>
        <time>2018-09-16T12:54:19Z</time>
      </trkpt>
      <trkpt lat="40.272350" lon="-4.903633">
        <ele>2415.0</ele>
        <time>2018-09-16T12:54:20Z</time>
      </trkpt>
      <trkpt lat="40.272383" lon="-4.903550">
        <ele>2413.0</ele>
        <time>2018-09-16T12:54:21Z</time>
      </trkpt>
      <trkpt lat="40.272417" lon="-4.903467">
        <ele>2412.0</ele>
        <time>2018-09-16T12:54:22Z</time>
      </trkpt>
      <trkpt lat="40.272450" lon="-4.903383">
        <ele>2410.0</ele>
        <time>2018-09-16T12:54:23Z</time>
      </trkpt>
      <trkpt lat="40.272467" lon="-4.903300">
        <ele>2412.0</ele>
        <time>2018-09-16T12:54:24Z</time>
      </trkpt>
      <trkpt lat="40.272500" lon="-4.903200">
        <ele>2412.0</ele>
        <time>2018-09-16T12:54:25Z</time>
      </trkpt>
      <trkpt lat="40.272533" lon="-4.903117">
        <ele>2412.0</ele>
        <time>2018-09-16T12:54:26Z</time>
      </trkpt>
      <trkpt lat="40.272550" lon="-4.903033">
        <ele>2411.0</ele>
        <time>2018-09-16T12:54:27Z</time>
      </trkpt>
      <trkpt lat="40.272567" lon="-4.902950">
        <ele>2411.0</ele>
        <time>2018-09-16T12:54:28Z</time>
      </trkpt>
      <trkpt lat="40.272600" lon="-4.902850">
        <ele>2411.0</ele>
        <time>2018-09-16T12:54:29Z</time>
      </trkpt>
      <trkpt lat="40.272617" lon="-4.902767">
        <ele>2410.0</ele>
        <time>2018-09-16T12:54:30Z</time>
      </trkpt>
      <trkpt lat="40.272633" lon="-4.902667">
        <ele>2410.0</ele>
        <time>2018-09-16T12:54:31Z</time>
      </trkpt>
      <trkpt lat="40.272667" lon="-4.902583">
        <ele>2410.0</ele>
        <time>2018-09-16T12:54:32Z</time>
      </trkpt>
      <trkpt lat="40.272700" lon="-4.902500">
        <ele>2409.0</ele>
        <time>2018-09-16T12:54:33Z</time>
      </trkpt>
      <trkpt lat="40.272717" lon="-4.902433">
        <ele>2409.0</ele>
        <time>2018-09-16T12:54:34Z</time>
      </trkpt>
      <trkpt lat="40.272750" lon="-4.902350">
        <ele>2408.0</ele>
        <time>2018-09-16T12:54:35Z</time>
      </trkpt>
      <trkpt lat="40.272767" lon="-4.902283">
        <ele>2408.0</ele>
        <time>2018-09-16T12:54:36Z</time>
      </trkpt>
      <trkpt lat="40.272800" lon="-4.902200">
        <ele>2407.0</ele>
        <time>2018-09-16T12:54:37Z</time>
      </trkpt>
      <trkpt lat="40.272833" lon="-4.902117">
        <ele>2407.0</ele>
        <time>2018-09-16T12:54:38Z</time>
      </trkpt>
      <trkpt lat="40.272867" lon="-4.902033">
        <ele>2406.0</ele>
        <time>2018-09-16T12:54:39Z</time>
      </trkpt>
      <trkpt lat="40.272900" lon="-4.901967">
        <ele>2406.0</ele>
        <time>2018-09-16T12:54:40Z</time>
      </trkpt>
      <trkpt lat="40.272933" lon="-4.901900">
        <ele>2405.0</ele>
        <time>2018-09-16T12:54:41Z</time>
      </trkpt>
      <trkpt lat="40.272950" lon="-4.901817">
        <ele>2404.0</ele>
        <time>2018-09-16T12:54:42Z</time>
      </trkpt>
      <trkpt lat="40.272983" lon="-4.901733">
        <ele>2403.0</ele>
        <time>2018-09-16T12:54:43Z</time>
      </trkpt>
      <trkpt lat="40.273017" lon="-4.901650">
        <ele>2403.0</ele>
        <time>2018-09-16T12:54:44Z</time>
      </trkpt>
      <trkpt lat="40.273050" lon="-4.901567">
        <ele>2402.0</ele>
        <time>2018-09-16T12:54:45Z</time>
      </trkpt>
      <trkpt lat="40.273067" lon="-4.901483">
        <ele>2401.0</ele>
        <time>2018-09-16T12:54:46Z</time>
      </trkpt>
      <trkpt lat="40.273100" lon="-4.901400">
        <ele>2400.0</ele>
        <time>2018-09-16T12:54:47Z</time>
      </trkpt>
      <trkpt lat="40.273117" lon="-4.901317">
        <ele>2400.0</ele>
        <time>2018-09-16T12:54:48Z</time>
      </trkpt>
      <trkpt lat="40.273150" lon="-4.901250">
        <ele>2399.0</ele>
        <time>2018-09-16T12:54:49Z</time>
      </trkpt>
      <trkpt lat="40.273167" lon="-4.901183">
        <ele>2398.0</ele>
        <time>2018-09-16T12:54:50Z</time>
      </trkpt>
      <trkpt lat="40.273200" lon="-4.901117">
        <ele>2397.0</ele>
        <time>2018-09-16T12:54:51Z</time>
      </trkpt>
      <trkpt lat="40.273233" lon="-4.901050">
        <ele>2395.0</ele>
        <time>2018-09-16T12:54:52Z</time>
      </trkpt>
      <trkpt lat="40.273267" lon="-4.900983">
        <ele>2393.0</ele>
        <time>2018-09-16T12:54:53Z</time>
      </trkpt>
      <trkpt lat="40.273300" lon="-4.900917">
        <ele>2392.0</ele>
        <time>2018-09-16T12:54:54Z</time>
      </trkpt>
      <trkpt lat="40.273333" lon="-4.900850">
        <ele>2390.0</ele>
        <time>2018-09-16T12:54:55Z</time>
      </trkpt>
      <trkpt lat="40.273367" lon="-4.900767">
        <ele>2388.0</ele>
        <time>2018-09-16T12:54:56Z</time>
      </trkpt>
      <trkpt lat="40.273400" lon="-4.900700">
        <ele>2386.0</ele>
        <time>2018-09-16T12:54:57Z</time>
      </trkpt>
      <trkpt lat="40.273417" lon="-4.900617">
        <ele>2384.0</ele>
        <time>2018-09-16T12:54:58Z</time>
      </trkpt>
      <trkpt lat="40.273450" lon="-4.900550">
        <ele>2383.0</ele>
        <time>2018-09-16T12:54:59Z</time>
      </trkpt>
      <trkpt lat="40.273483" lon="-4.900467">
        <ele>2384.0</ele>
        <time>2018-09-16T12:55:00Z</time>
      </trkpt>
      <trkpt lat="40.273517" lon="-4.900383">
        <ele>2384.0</ele>
        <time>2018-09-16T12:55:01Z</time>
      </trkpt>
      <trkpt lat="40.273533" lon="-4.900300">
        <ele>2383.0</ele>
        <time>2018-09-16T12:55:02Z</time>
      </trkpt>
      <trkpt lat="40.273550" lon="-4.900200">
        <ele>2383.0</ele>
        <time>2018-09-16T12:55:03Z</time>
      </trkpt>
      <trkpt lat="40.273583" lon="-4.900117">
        <ele>2382.0</ele>
        <time>2018-09-16T12:55:04Z</time>
      </trkpt>
      <trkpt lat="40.273600" lon="-4.900033">
        <ele>2382.0</ele>
        <time>2018-09-16T12:55:05Z</time>
      </trkpt>
      <trkpt lat="40.273617" lon="-4.899950">
        <ele>2381.0</ele>
        <time>2018-09-16T12:55:06Z</time>
      </trkpt>
      <trkpt lat="40.273650" lon="-4.899867">
        <ele>2381.0</ele>
        <time>2018-09-16T12:55:07Z</time>
      </trkpt>
      <trkpt lat="40.273667" lon="-4.899783">
        <ele>2381.0</ele>
        <time>2018-09-16T12:55:08Z</time>
      </trkpt>
      <trkpt lat="40.273683" lon="-4.899683">
        <ele>2380.0</ele>
        <time>2018-09-16T12:55:09Z</time>
      </trkpt>
      <trkpt lat="40.273717" lon="-4.899600">
        <ele>2380.0</ele>
        <time>2018-09-16T12:55:10Z</time>
      </trkpt>
      <trkpt lat="40.273733" lon="-4.899517">
        <ele>2379.0</ele>
        <time>2018-09-16T12:55:11Z</time>
      </trkpt>
      <trkpt lat="40.273767" lon="-4.899433">
        <ele>2379.0</ele>
        <time>2018-09-16T12:55:12Z</time>
      </trkpt>
      <trkpt lat="40.273800" lon="-4.899350">
        <ele>2379.0</ele>
        <time>2018-09-16T12:55:13Z</time>
      </trkpt>
      <trkpt lat="40.273833" lon="-4.899283">
        <ele>2378.0</ele>
        <time>2018-09-16T12:55:14Z</time>
      </trkpt>
      <trkpt lat="40.273850" lon="-4.899200">
        <ele>2378.0</ele>
        <time>2018-09-16T12:55:15Z</time>
      </trkpt>
      <trkpt lat="40.273883" lon="-4.899133">
        <ele>2377.0</ele>
        <time>2018-09-16T12:55:16Z</time>
      </trkpt>
      <trkpt lat="40.273917" lon="-4.899050">
        <ele>2377.0</ele>
        <time>2018-09-16T12:55:17Z</time>
      </trkpt>
      <trkpt lat="40.273950" lon="-4.898967">
        <ele>2376.0</ele>
        <time>2018-09-16T12:55:18Z</time>
      </trkpt>
      <trkpt lat="40.273967" lon="-4.898867">
        <ele>2376.0</ele>
        <time>2018-09-16T12:55:19Z</time>
      </trkpt>
      <trkpt lat="40.274000" lon="-4.898783">
        <ele>2375.0</ele>
        <time>2018-09-16T12:55:20Z</time>
      </trkpt>
      <trkpt lat="40.274033" lon="-4.898717">
        <ele>2375.0</ele>
        <time>2018-09-16T12:55:21Z</time>
      </trkpt>
      <trkpt lat="40.274050" lon="-4.898617">
        <ele>2375.0</ele>
        <time>2018-09-16T12:55:22Z</time>
      </trkpt>
      <trkpt lat="40.274083" lon="-4.898533">
        <ele>2374.0</ele>
        <time>2018-09-16T12:55:23Z</time>
      </trkpt>
      <trkpt lat="40.274117" lon="-4.898450">
        <ele>2374.0</ele>
        <time>2018-09-16T12:55:24Z</time>
      </trkpt>
      <trkpt lat="40.274133" lon="-4.898367">
        <ele>2373.0</ele>
        <time>2018-09-16T12:55:25Z</time>
      </trkpt>
      <trkpt lat="40.274167" lon="-4.898267">
        <ele>2373.0</ele>
        <time>2018-09-16T12:55:26Z</time>
      </trkpt>
      <trkpt lat="40.274183" lon="-4.898183">
        <ele>2372.0</ele>
        <time>2018-09-16T12:55:27Z</time>
      </trkpt>
      <trkpt lat="40.274217" lon="-4.898083">
        <ele>2372.0</ele>
        <time>2018-09-16T12:55:28Z</time>
      </trkpt>
      <trkpt lat="40.274233" lon="-4.897983">
        <ele>2372.0</ele>
        <time>2018-09-16T12:55:29Z</time>
      </trkpt>
      <trkpt lat="40.274250" lon="-4.897900">
        <ele>2371.0</ele>
        <time>2018-09-16T12:55:30Z</time>
      </trkpt>
      <trkpt lat="40.274283" lon="-4.897800">
        <ele>2371.0</ele>
        <time>2018-09-16T12:55:31Z</time>
      </trkpt>
      <trkpt lat="40.274300" lon="-4.897717">
        <ele>2371.0</ele>
        <time>2018-09-16T12:55:32Z</time>
      </trkpt>
      <trkpt lat="40.274333" lon="-4.897633">
        <ele>2370.0</ele>
        <time>2018-09-16T12:55:33Z</time>
      </trkpt>
      <trkpt lat="40.274350" lon="-4.897550">
        <ele>2370.0</ele>
        <time>2018-09-16T12:55:34Z</time>
      </trkpt>
      <trkpt lat="40.274383" lon="-4.897467">
        <ele>2369.0</ele>
        <time>2018-09-16T12:55:35Z</time>
      </trkpt>
      <trkpt lat="40.274400" lon="-4.897383">
        <ele>2369.0</ele>
        <time>2018-09-16T12:55:36Z</time>
      </trkpt>
      <trkpt lat="40.274433" lon="-4.897283">
        <ele>2368.0</ele>
        <time>2018-09-16T12:55:37Z</time>
      </trkpt>
      <trkpt lat="40.274450" lon="-4.897183">
        <ele>2368.0</ele>
        <time>2018-09-16T12:55:38Z</time>
      </trkpt>
      <trkpt lat="40.274467" lon="-4.897100">
        <ele>2368.0</ele>
        <time>2018-09-16T12:55:39Z</time>
      </trkpt>
      <trkpt lat="40.274500" lon="-4.897017">
        <ele>2367.0</ele>
        <time>2018-09-16T12:55:40Z</time>
      </trkpt>
      <trkpt lat="40.274517" lon="-4.896933">
        <ele>2367.0</ele>
        <time>2018-09-16T12:55:41Z</time>
      </trkpt>
      <trkpt lat="40.274533" lon="-4.896833">
        <ele>2366.0</ele>
        <time>2018-09-16T12:55:42Z</time>
      </trkpt>
      <trkpt lat="40.274550" lon="-4.896750">
        <ele>2366.0</ele>
        <time>2018-09-16T12:55:43Z</time>
      </trkpt>
      <trkpt lat="40.274567" lon="-4.896650">
        <ele>2365.0</ele>
        <time>2018-09-16T12:55:44Z</time>
      </trkpt>
      <trkpt lat="40.274600" lon="-4.896567">
        <ele>2365.0</ele>
        <time>2018-09-16T12:55:45Z</time>
      </trkpt>
      <trkpt lat="40.274617" lon="-4.896467">
        <ele>2364.0</ele>
        <time>2018-09-16T12:55:46Z</time>
      </trkpt>
      <trkpt lat="40.274633" lon="-4.896383">
        <ele>2364.0</ele>
        <time>2018-09-16T12:55:47Z</time>
      </trkpt>
      <trkpt lat="40.274650" lon="-4.896283">
        <ele>2363.0</ele>
        <time>2018-09-16T12:55:48Z</time>
      </trkpt>
      <trkpt lat="40.274650" lon="-4.896183">
        <ele>2363.0</ele>
        <time>2018-09-16T12:55:49Z</time>
      </trkpt>
      <trkpt lat="40.274667" lon="-4.896100">
        <ele>2362.0</ele>
        <time>2018-09-16T12:55:50Z</time>
      </trkpt>
      <trkpt lat="40.274683" lon="-4.896017">
        <ele>2362.0</ele>
        <time>2018-09-16T12:55:51Z</time>
      </trkpt>
      <trkpt lat="40.274700" lon="-4.895917">
        <ele>2361.0</ele>
        <time>2018-09-16T12:55:52Z</time>
      </trkpt>
      <trkpt lat="40.274717" lon="-4.895833">
        <ele>2361.0</ele>
        <time>2018-09-16T12:55:53Z</time>
      </trkpt>
      <trkpt lat="40.274717" lon="-4.895733">
        <ele>2360.0</ele>
        <time>2018-09-16T12:55:54Z</time>
      </trkpt>
      <trkpt lat="40.274733" lon="-4.895617">
        <ele>2360.0</ele>
        <time>2018-09-16T12:55:55Z</time>
      </trkpt>
      <trkpt lat="40.274733" lon="-4.895517">
        <ele>2359.0</ele>
        <time>2018-09-16T12:55:56Z</time>
      </trkpt>
      <trkpt lat="40.274750" lon="-4.895417">
        <ele>2359.0</ele>
        <time>2018-09-16T12:55:57Z</time>
      </trkpt>
      <trkpt lat="40.274750" lon="-4.895317">
        <ele>2359.0</ele>
        <time>2018-09-16T12:55:58Z</time>
      </trkpt>
      <trkpt lat="40.274750" lon="-4.895217">
        <ele>2358.0</ele>
        <time>2018-09-16T12:55:59Z</time>
      </trkpt>
      <trkpt lat="40.274767" lon="-4.895117">
        <ele>2358.0</ele>
        <time>2018-09-16T12:56:00Z</time>
      </trkpt>
      <trkpt lat="40.274783" lon="-4.895017">
        <ele>2357.0</ele>
        <time>2018-09-16T12:56:01Z</time>
      </trkpt>
      <trkpt lat="40.274800" lon="-4.894917">
        <ele>2357.0</ele>
        <time>2018-09-16T12:56:02Z</time>
      </trkpt>
      <trkpt lat="40.274800" lon="-4.894850">
        <ele>2356.0</ele>
        <time>2018-09-16T12:56:03Z</time>
      </trkpt>
      <trkpt lat="40.274833" lon="-4.894767">
        <ele>2356.0</ele>
        <time>2018-09-16T12:56:04Z</time>
      </trkpt>
      <trkpt lat="40.274850" lon="-4.894683">
        <ele>2355.0</ele>
        <time>2018-09-16T12:56:05Z</time>
      </trkpt>
      <trkpt lat="40.274867" lon="-4.894600">
        <ele>2355.0</ele>
        <time>2018-09-16T12:56:06Z</time>
      </trkpt>
      <trkpt lat="40.274883" lon="-4.894517">
        <ele>2354.0</ele>
        <time>2018-09-16T12:56:07Z</time>
      </trkpt>
      <trkpt lat="40.274900" lon="-4.894433">
        <ele>2354.0</ele>
        <time>2018-09-16T12:56:08Z</time>
      </trkpt>
      <trkpt lat="40.274917" lon="-4.894350">
        <ele>2353.0</ele>
        <time>2018-09-16T12:56:09Z</time>
      </trkpt>
      <trkpt lat="40.274950" lon="-4.894250">
        <ele>2352.0</ele>
        <time>2018-09-16T12:56:10Z</time>
      </trkpt>
      <trkpt lat="40.274967" lon="-4.894167">
        <ele>2352.0</ele>
        <time>2018-09-16T12:56:11Z</time>
      </trkpt>
      <trkpt lat="40.274967" lon="-4.894083">
        <ele>2351.0</ele>
        <time>2018-09-16T12:56:12Z</time>
      </trkpt>
      <trkpt lat="40.274983" lon="-4.894000">
        <ele>2351.0</ele>
        <time>2018-09-16T12:56:13Z</time>
      </trkpt>
      <trkpt lat="40.275000" lon="-4.893933">
        <ele>2350.0</ele>
        <time>2018-09-16T12:56:14Z</time>
      </trkpt>
      <trkpt lat="40.275017" lon="-4.893833">
        <ele>2349.0</ele>
        <time>2018-09-16T12:56:15Z</time>
      </trkpt>
      <trkpt lat="40.275050" lon="-4.893733">
        <ele>2349.0</ele>
        <time>2018-09-16T12:56:16Z</time>
      </trkpt>
      <trkpt lat="40.275050" lon="-4.893650">
        <ele>2349.0</ele>
        <time>2018-09-16T12:56:17Z</time>
      </trkpt>
      <trkpt lat="40.275067" lon="-4.893567">
        <ele>2348.0</ele>
        <time>2018-09-16T12:56:18Z</time>
      </trkpt>
      <trkpt lat="40.275067" lon="-4.893467">
        <ele>2348.0</ele>
        <time>2018-09-16T12:56:19Z</time>
      </trkpt>
      <trkpt lat="40.275083" lon="-4.893383">
        <ele>2347.0</ele>
        <time>2018-09-16T12:56:20Z</time>
      </trkpt>
      <trkpt lat="40.275117" lon="-4.893283">
        <ele>2347.0</ele>
        <time>2018-09-16T12:56:21Z</time>
      </trkpt>
      <trkpt lat="40.275133" lon="-4.893183">
        <ele>2346.0</ele>
        <time>2018-09-16T12:56:22Z</time>
      </trkpt>
      <trkpt lat="40.275150" lon="-4.893083">
        <ele>2346.0</ele>
        <time>2018-09-16T12:56:23Z</time>
      </trkpt>
      <trkpt lat="40.275167" lon="-4.893017">
        <ele>2346.0</ele>
        <time>2018-09-16T12:56:24Z</time>
      </trkpt>
      <trkpt lat="40.275167" lon="-4.892933">
        <ele>2345.0</ele>
        <time>2018-09-16T12:56:25Z</time>
      </trkpt>
      <trkpt lat="40.275183" lon="-4.892850">
        <ele>2345.0</ele>
        <time>2018-09-16T12:56:26Z</time>
      </trkpt>
      <trkpt lat="40.275200" lon="-4.892767">
        <ele>2344.0</ele>
        <time>2018-09-16T12:56:27Z</time>
      </trkpt>
      <trkpt lat="40.275217" lon="-4.892700">
        <ele>2344.0</ele>
        <time>2018-09-16T12:56:28Z</time>
      </trkpt>
      <trkpt lat="40.275233" lon="-4.892633">
        <ele>2343.0</ele>
        <time>2018-09-16T12:56:29Z</time>
      </trkpt>
      <trkpt lat="40.275267" lon="-4.892550">
        <ele>2343.0</ele>
        <time>2018-09-16T12:56:30Z</time>
      </trkpt>
      <trkpt lat="40.275300" lon="-4.892483">
        <ele>2342.0</ele>
        <time>2018-09-16T12:56:31Z</time>
      </trkpt>
      <trkpt lat="40.275333" lon="-4.892400">
        <ele>2341.0</ele>
        <time>2018-09-16T12:56:32Z</time>
      </trkpt>
      <trkpt lat="40.275367" lon="-4.892317">
        <ele>2340.0</ele>
        <time>2018-09-16T12:56:33Z</time>
      </trkpt>
      <trkpt lat="40.275400" lon="-4.892233">
        <ele>2339.0</ele>
        <time>2018-09-16T12:56:34Z</time>
      </trkpt>
      <trkpt lat="40.275433" lon="-4.892150">
        <ele>2338.0</ele>
        <time>2018-09-16T12:56:35Z</time>
      </trkpt>
      <trkpt lat="40.275467" lon="-4.892067">
        <ele>2337.0</ele>
        <time>2018-09-16T12:56:36Z</time>
      </trkpt>
      <trkpt lat="40.275500" lon="-4.891983">
        <ele>2336.0</ele>
        <time>2018-09-16T12:56:37Z</time>
      </trkpt>
      <trkpt lat="40.275533" lon="-4.891917">
        <ele>2335.0</ele>
        <time>2018-09-16T12:56:38Z</time>
      </trkpt>
      <trkpt lat="40.275550" lon="-4.891817">
        <ele>2334.0</ele>
        <time>2018-09-16T12:56:39Z</time>
      </trkpt>
      <trkpt lat="40.275567" lon="-4.891717">
        <ele>2333.0</ele>
        <time>2018-09-16T12:56:40Z</time>
      </trkpt>
      <trkpt lat="40.275600" lon="-4.891617">
        <ele>2332.0</ele>
        <time>2018-09-16T12:56:41Z</time>
      </trkpt>
      <trkpt lat="40.275617" lon="-4.891517">
        <ele>2332.0</ele>
        <time>2018-09-16T12:56:42Z</time>
      </trkpt>
      <trkpt lat="40.275650" lon="-4.891433">
        <ele>2332.0</ele>
        <time>2018-09-16T12:56:43Z</time>
      </trkpt>
      <trkpt lat="40.275667" lon="-4.891333">
        <ele>2331.0</ele>
        <time>2018-09-16T12:56:44Z</time>
      </trkpt>
      <trkpt lat="40.275683" lon="-4.891233">
        <ele>2331.0</ele>
        <time>2018-09-16T12:56:45Z</time>
      </trkpt>
      <trkpt lat="40.275700" lon="-4.891133">
        <ele>2330.0</ele>
        <time>2018-09-16T12:56:46Z</time>
      </trkpt>
      <trkpt lat="40.275700" lon="-4.891050">
        <ele>2330.0</ele>
        <time>2018-09-16T12:56:47Z</time>
      </trkpt>
      <trkpt lat="40.275717" lon="-4.890950">
        <ele>2329.0</ele>
        <time>2018-09-16T12:56:48Z</time>
      </trkpt>
      <trkpt lat="40.275717" lon="-4.890867">
        <ele>2328.0</ele>
        <time>2018-09-16T12:56:49Z</time>
      </trkpt>
      <trkpt lat="40.275717" lon="-4.890783">
        <ele>2328.0</ele>
        <time>2018-09-16T12:56:50Z</time>
      </trkpt>
      <trkpt lat="40.275733" lon="-4.890683">
        <ele>2327.0</ele>
        <time>2018-09-16T12:56:51Z</time>
      </trkpt>
      <trkpt lat="40.275733" lon="-4.890583">
        <ele>2326.0</ele>
        <time>2018-09-16T12:56:52Z</time>
      </trkpt>
      <trkpt lat="40.275750" lon="-4.890500">
        <ele>2325.0</ele>
        <time>2018-09-16T12:56:53Z</time>
      </trkpt>
      <trkpt lat="40.275750" lon="-4.890417">
        <ele>2324.0</ele>
        <time>2018-09-16T12:56:54Z</time>
      </trkpt>
      <trkpt lat="40.275767" lon="-4.890317">
        <ele>2323.0</ele>
        <time>2018-09-16T12:56:55Z</time>
      </trkpt>
      <trkpt lat="40.275767" lon="-4.890233">
        <ele>2322.0</ele>
        <time>2018-09-16T12:56:56Z</time>
      </trkpt>
      <trkpt lat="40.275767" lon="-4.890150">
        <ele>2321.0</ele>
        <time>2018-09-16T12:56:57Z</time>
      </trkpt>
      <trkpt lat="40.275783" lon="-4.890067">
        <ele>2320.0</ele>
        <time>2018-09-16T12:56:58Z</time>
      </trkpt>
      <trkpt lat="40.275783" lon="-4.889983">
        <ele>2319.0</ele>
        <time>2018-09-16T12:56:59Z</time>
      </trkpt>
      <trkpt lat="40.275800" lon="-4.889900">
        <ele>2317.0</ele>
        <time>2018-09-16T12:57:00Z</time>
      </trkpt>
      <trkpt lat="40.275800" lon="-4.889817">
        <ele>2316.0</ele>
        <time>2018-09-16T12:57:01Z</time>
      </trkpt>
      <trkpt lat="40.275817" lon="-4.889733">
        <ele>2315.0</ele>
        <time>2018-09-16T12:57:02Z</time>
      </trkpt>
      <trkpt lat="40.275833" lon="-4.889650">
        <ele>2313.0</ele>
        <time>2018-09-16T12:57:03Z</time>
      </trkpt>
      <trkpt lat="40.275833" lon="-4.889583">
        <ele>2311.0</ele>
        <time>2018-09-16T12:57:04Z</time>
      </trkpt>
      <trkpt lat="40.275850" lon="-4.889500">
        <ele>2309.0</ele>
        <time>2018-09-16T12:57:05Z</time>
      </trkpt>
      <trkpt lat="40.275850" lon="-4.889417">
        <ele>2308.0</ele>
        <time>2018-09-16T12:57:06Z</time>
      </trkpt>
      <trkpt lat="40.275850" lon="-4.889333">
        <ele>2306.0</ele>
        <time>2018-09-16T12:57:07Z</time>
      </trkpt>
      <trkpt lat="40.275867" lon="-4.889250">
        <ele>2304.0</ele>
        <time>2018-09-16T12:57:08Z</time>
      </trkpt>
      <trkpt lat="40.275883" lon="-4.889167">
        <ele>2303.0</ele>
        <time>2018-09-16T12:57:09Z</time>
      </trkpt>
      <trkpt lat="40.275883" lon="-4.889083">
        <ele>2301.0</ele>
        <time>2018-09-16T12:57:10Z</time>
      </trkpt>
      <trkpt lat="40.275900" lon="-4.888983">
        <ele>2299.0</ele>
        <time>2018-09-16T12:57:11Z</time>
      </trkpt>
      <trkpt lat="40.275900" lon="-4.888900">
        <ele>2297.0</ele>
        <time>2018-09-16T12:57:12Z</time>
      </trkpt>
      <trkpt lat="40.275917" lon="-4.888817">
        <ele>2296.0</ele>
        <time>2018-09-16T12:57:13Z</time>
      </trkpt>
      <trkpt lat="40.275933" lon="-4.888733">
        <ele>2294.0</ele>
        <time>2018-09-16T12:57:14Z</time>
      </trkpt>
      <trkpt lat="40.275950" lon="-4.888650">
        <ele>2291.0</ele>
        <time>2018-09-16T12:57:15Z</time>
      </trkpt>
      <trkpt lat="40.275967" lon="-4.888567">
        <ele>2289.0</ele>
        <time>2018-09-16T12:57:16Z</time>
      </trkpt>
      <trkpt lat="40.276000" lon="-4.888483">
        <ele>2286.0</ele>
        <time>2018-09-16T12:57:17Z</time>
      </trkpt>
      <trkpt lat="40.276017" lon="-4.888400">
        <ele>2284.0</ele>
        <time>2018-09-16T12:57:18Z</time>
      </trkpt>
      <trkpt lat="40.276050" lon="-4.888350">
        <ele>2281.0</ele>
        <time>2018-09-16T12:57:19Z</time>
      </trkpt>
      <trkpt lat="40.276083" lon="-4.888300">
        <ele>2276.0</ele>
        <time>2018-09-16T12:57:20Z</time>
      </trkpt>
      <trkpt lat="40.276100" lon="-4.888233">
        <ele>2271.0</ele>
        <time>2018-09-16T12:57:21Z</time>
      </trkpt>
      <trkpt lat="40.276133" lon="-4.888167">
        <ele>2266.0</ele>
        <time>2018-09-16T12:57:22Z</time>
      </trkpt>
      <trkpt lat="40.276150" lon="-4.888083">
        <ele>2262.0</ele>
        <time>2018-09-16T12:57:23Z</time>
      </trkpt>
      <trkpt lat="40.276167" lon="-4.888000">
        <ele>2259.0</ele>
        <time>2018-09-16T12:57:24Z</time>
      </trkpt>
      <trkpt lat="40.276167" lon="-4.887917">
        <ele>2257.0</ele>
        <time>2018-09-16T12:57:25Z</time>
      </trkpt>
      <trkpt lat="40.276183" lon="-4.887850">
        <ele>2254.0</ele>
        <time>2018-09-16T12:57:26Z</time>
      </trkpt>
      <trkpt lat="40.276200" lon="-4.887750">
        <ele>2252.0</ele>
        <time>2018-09-16T12:57:27Z</time>
      </trkpt>
      <trkpt lat="40.276217" lon="-4.887683">
        <ele>2249.0</ele>
        <time>2018-09-16T12:57:28Z</time>
      </trkpt>
      <trkpt lat="40.276233" lon="-4.887600">
        <ele>2247.0</ele>
        <time>2018-09-16T12:57:29Z</time>
      </trkpt>
      <trkpt lat="40.276250" lon="-4.887517">
        <ele>2245.0</ele>
        <time>2018-09-16T12:57:30Z</time>
      </trkpt>
      <trkpt lat="40.276267" lon="-4.887433">
        <ele>2242.0</ele>
        <time>2018-09-16T12:57:31Z</time>
      </trkpt>
      <trkpt lat="40.276283" lon="-4.887350">
        <ele>2239.0</ele>
        <time>2018-09-16T12:57:32Z</time>
      </trkpt>
      <trkpt lat="40.276300" lon="-4.887267">
        <ele>2237.0</ele>
        <time>2018-09-16T12:57:33Z</time>
      </trkpt>
      <trkpt lat="40.276300" lon="-4.887183">
        <ele>2235.0</ele>
        <time>2018-09-16T12:57:34Z</time>
      </trkpt>
      <trkpt lat="40.276333" lon="-4.887100">
        <ele>2232.0</ele>
        <time>2018-09-16T12:57:35Z</time>
      </trkpt>
      <trkpt lat="40.276333" lon="-4.887017">
        <ele>2230.0</ele>
        <time>2018-09-16T12:57:36Z</time>
      </trkpt>
      <trkpt lat="40.276350" lon="-4.886917">
        <ele>2228.0</ele>
        <time>2018-09-16T12:57:37Z</time>
      </trkpt>
      <trkpt lat="40.276367" lon="-4.886833">
        <ele>2226.0</ele>
        <time>2018-09-16T12:57:38Z</time>
      </trkpt>
      <trkpt lat="40.276383" lon="-4.886750">
        <ele>2224.0</ele>
        <time>2018-09-16T12:57:39Z</time>
      </trkpt>
      <trkpt lat="40.276400" lon="-4.886667">
        <ele>2221.0</ele>
        <time>2018-09-16T12:57:40Z</time>
      </trkpt>
      <trkpt lat="40.276400" lon="-4.886583">
        <ele>2219.0</ele>
        <time>2018-09-16T12:57:41Z</time>
      </trkpt>
      <trkpt lat="40.276417" lon="-4.886500">
        <ele>2217.0</ele>
        <time>2018-09-16T12:57:42Z</time>
      </trkpt>
      <trkpt lat="40.276433" lon="-4.886417">
        <ele>2215.0</ele>
        <time>2018-09-16T12:57:43Z</time>
      </trkpt>
      <trkpt lat="40.276433" lon="-4.886333">
        <ele>2213.0</ele>
        <time>2018-09-16T12:57:44Z</time>
      </trkpt>
      <trkpt lat="40.276450" lon="-4.886233">
        <ele>2211.0</ele>
        <time>2018-09-16T12:57:45Z</time>
      </trkpt>
      <trkpt lat="40.276467" lon="-4.886150">
        <ele>2209.0</ele>
        <time>2018-09-16T12:57:46Z</time>
      </trkpt>
      <trkpt lat="40.276483" lon="-4.886067">
        <ele>2207.0</ele>
        <time>2018-09-16T12:57:47Z</time>
      </trkpt>
      <trkpt lat="40.276500" lon="-4.885983">
        <ele>2204.0</ele>
        <time>2018-09-16T12:57:48Z</time>
      </trkpt>
      <trkpt lat="40.276517" lon="-4.885900">
        <ele>2202.0</ele>
        <time>2018-09-16T12:57:49Z</time>
      </trkpt>
      <trkpt lat="40.276533" lon="-4.885817">
        <ele>2200.0</ele>
        <time>2018-09-16T12:57:50Z</time>
      </trkpt>
      <trkpt lat="40.276550" lon="-4.885733">
        <ele>2198.0</ele>
        <time>2018-09-16T12:57:51Z</time>
      </trkpt>
      <trkpt lat="40.276583" lon="-4.885650">
        <ele>2196.0</ele>
        <time>2018-09-16T12:57:52Z</time>
      </trkpt>
      <trkpt lat="40.276600" lon="-4.885567">
        <ele>2194.0</ele>
        <time>2018-09-16T12:57:53Z</time>
      </trkpt>
      <trkpt lat="40.276617" lon="-4.885483">
        <ele>2192.0</ele>
        <time>2018-09-16T12:57:54Z</time>
      </trkpt>
      <trkpt lat="40.276650" lon="-4.885400">
        <ele>2190.0</ele>
        <time>2018-09-16T12:57:55Z</time>
      </trkpt>
      <trkpt lat="40.276683" lon="-4.885317">
        <ele>2188.0</ele>
        <time>2018-09-16T12:57:56Z</time>
      </trkpt>
      <trkpt lat="40.276700" lon="-4.885233">
        <ele>2186.0</ele>
        <time>2018-09-16T12:57:57Z</time>
      </trkpt>
      <trkpt lat="40.276733" lon="-4.885150">
        <ele>2184.0</ele>
        <time>2018-09-16T12:57:58Z</time>
      </trkpt>
      <trkpt lat="40.276767" lon="-4.885067">
        <ele>2183.0</ele>
        <time>2018-09-16T12:57:59Z</time>
      </trkpt>
      <trkpt lat="40.276800" lon="-4.884983">
        <ele>2181.0</ele>
        <time>2018-09-16T12:58:00Z</time>
      </trkpt>
      <trkpt lat="40.276833" lon="-4.884900">
        <ele>2179.0</ele>
        <time>2018-09-16T12:58:01Z</time>
      </trkpt>
      <trkpt lat="40.276850" lon="-4.884817">
        <ele>2178.0</ele>
        <time>2018-09-16T12:58:02Z</time>
      </trkpt>
      <trkpt lat="40.276883" lon="-4.884733">
        <ele>2177.0</ele>
        <time>2018-09-16T12:58:03Z</time>
      </trkpt>
      <trkpt lat="40.276900" lon="-4.884650">
        <ele>2176.0</ele>
        <time>2018-09-16T12:58:04Z</time>
      </trkpt>
      <trkpt lat="40.276933" lon="-4.884567">
        <ele>2175.0</ele>
        <time>2018-09-16T12:58:05Z</time>
      </trkpt>
      <trkpt lat="40.276950" lon="-4.884483">
        <ele>2174.0</ele>
        <time>2018-09-16T12:58:06Z</time>
      </trkpt>
      <trkpt lat="40.276983" lon="-4.884400">
        <ele>2173.0</ele>
        <time>2018-09-16T12:58:07Z</time>
      </trkpt>
      <trkpt lat="40.277000" lon="-4.884317">
        <ele>2172.0</ele>
        <time>2018-09-16T12:58:08Z</time>
      </trkpt>
      <trkpt lat="40.277017" lon="-4.884233">
        <ele>2170.0</ele>
        <time>2018-09-16T12:58:09Z</time>
      </trkpt>
      <trkpt lat="40.277050" lon="-4.884150">
        <ele>2169.0</ele>
        <time>2018-09-16T12:58:10Z</time>
      </trkpt>
      <trkpt lat="40.277067" lon="-4.884067">
        <ele>2167.0</ele>
        <time>2018-09-16T12:58:11Z</time>
      </trkpt>
      <trkpt lat="40.277100" lon="-4.883983">
        <ele>2166.0</ele>
        <time>2018-09-16T12:58:12Z</time>
      </trkpt>
      <trkpt lat="40.277117" lon="-4.883900">
        <ele>2165.0</ele>
        <time>2018-09-16T12:58:13Z</time>
      </trkpt>
      <trkpt lat="40.277150" lon="-4.883817">
        <ele>2163.0</ele>
        <time>2018-09-16T12:58:14Z</time>
      </trkpt>
      <trkpt lat="40.277167" lon="-4.883733">
        <ele>2162.0</ele>
        <time>2018-09-16T12:58:15Z</time>
      </trkpt>
      <trkpt lat="40.277200" lon="-4.883667">
        <ele>2161.0</ele>
        <time>2018-09-16T12:58:16Z</time>
      </trkpt>
      <trkpt lat="40.277233" lon="-4.883583">
        <ele>2160.0</ele>
        <time>2018-09-16T12:58:17Z</time>
      </trkpt>
      <trkpt lat="40.277250" lon="-4.883500">
        <ele>2158.0</ele>
        <time>2018-09-16T12:58:18Z</time>
      </trkpt>
      <trkpt lat="40.277283" lon="-4.883417">
        <ele>2157.0</ele>
        <time>2018-09-16T12:58:19Z</time>
      </trkpt>
      <trkpt lat="40.277317" lon="-4.883333">
        <ele>2155.0</ele>
        <time>2018-09-16T12:58:20Z</time>
      </trkpt>
      <trkpt lat="40.277350" lon="-4.883250">
        <ele>2154.0</ele>
        <time>2018-09-16T12:58:21Z</time>
      </trkpt>
      <trkpt lat="40.277383" lon="-4.883167">
        <ele>2153.0</ele>
        <time>2018-09-16T12:58:22Z</time>
      </trkpt>
      <trkpt lat="40.277417" lon="-4.883100">
        <ele>2152.0</ele>
        <time>2018-09-16T12:58:23Z</time>
      </trkpt>
      <trkpt lat="40.277450" lon="-4.883033">
        <ele>2153.0</ele>
        <time>2018-09-16T12:58:24Z</time>
      </trkpt>
      <trkpt lat="40.277467" lon="-4.882950">
        <ele>2154.0</ele>
        <time>2018-09-16T12:58:25Z</time>
      </trkpt>
      <trkpt lat="40.277500" lon="-4.882867">
        <ele>2154.0</ele>
        <time>2018-09-16T12:58:26Z</time>
      </trkpt>
      <trkpt lat="40.277533" lon="-4.882767">
        <ele>2154.0</ele>
        <time>2018-09-16T12:58:27Z</time>
      </trkpt>
      <trkpt lat="40.277567" lon="-4.882683">
        <ele>2154.0</ele>
        <time>2018-09-16T12:58:28Z</time>
      </trkpt>
      <trkpt lat="40.277600" lon="-4.882600">
        <ele>2154.0</ele>
        <time>2018-09-16T12:58:29Z</time>
      </trkpt>
      <trkpt lat="40.277633" lon="-4.882533">
        <ele>2154.0</ele>
        <time>2018-09-16T12:58:30Z</time>
      </trkpt>
      <trkpt lat="40.277650" lon="-4.882433">
        <ele>2154.0</ele>
        <time>2018-09-16T12:58:31Z</time>
      </trkpt>
      <trkpt lat="40.277683" lon="-4.882350">
        <ele>2153.0</ele>
        <time>2018-09-16T12:58:32Z</time>
      </trkpt>
      <trkpt lat="40.277717" lon="-4.882283">
        <ele>2153.0</ele>
        <time>2018-09-16T12:58:33Z</time>
      </trkpt>
      <trkpt lat="40.277750" lon="-4.882200">
        <ele>2153.0</ele>
        <time>2018-09-16T12:58:34Z</time>
      </trkpt>
      <trkpt lat="40.277767" lon="-4.882117">
        <ele>2153.0</ele>
        <time>2018-09-16T12:58:35Z</time>
      </trkpt>
      <trkpt lat="40.277800" lon="-4.882033">
        <ele>2152.0</ele>
        <time>2018-09-16T12:58:36Z</time>
      </trkpt>
      <trkpt lat="40.277833" lon="-4.881950">
        <ele>2152.0</ele>
        <time>2018-09-16T12:58:37Z</time>
      </trkpt>
      <trkpt lat="40.277867" lon="-4.881867">
        <ele>2152.0</ele>
        <time>2018-09-16T12:58:38Z</time>
      </trkpt>
      <trkpt lat="40.277900" lon="-4.881783">
        <ele>2151.0</ele>
        <time>2018-09-16T12:58:39Z</time>
      </trkpt>
      <trkpt lat="40.277933" lon="-4.881700">
        <ele>2151.0</ele>
        <time>2018-09-16T12:58:40Z</time>
      </trkpt>
      <trkpt lat="40.277967" lon="-4.881633">
        <ele>2150.0</ele>
        <time>2018-09-16T12:58:41Z</time>
      </trkpt>
      <trkpt lat="40.278017" lon="-4.881550">
        <ele>2150.0</ele>
        <time>2018-09-16T12:58:42Z</time>
      </trkpt>
      <trkpt lat="40.278050" lon="-4.881467">
        <ele>2149.0</ele>
        <time>2018-09-16T12:58:43Z</time>
      </trkpt>
      <trkpt lat="40.278083" lon="-4.881400">
        <ele>2149.0</ele>
        <time>2018-09-16T12:58:44Z</time>
      </trkpt>
      <trkpt lat="40.278117" lon="-4.881317">
        <ele>2148.0</ele>
        <time>2018-09-16T12:58:45Z</time>
      </trkpt>
      <trkpt lat="40.278150" lon="-4.881233">
        <ele>2148.0</ele>
        <time>2018-09-16T12:58:46Z</time>
      </trkpt>
      <trkpt lat="40.278183" lon="-4.881167">
        <ele>2148.0</ele>
        <time>2018-09-16T12:58:47Z</time>
      </trkpt>
      <trkpt lat="40.278217" lon="-4.881083">
        <ele>2147.0</ele>
        <time>2018-09-16T12:58:48Z</time>
      </trkpt>
      <trkpt lat="40.278250" lon="-4.881000">
        <ele>2147.0</ele>
        <time>2018-09-16T12:58:49Z</time>
      </trkpt>
      <trkpt lat="40.278283" lon="-4.880933">
        <ele>2146.0</ele>
        <time>2018-09-16T12:58:50Z</time>
      </trkpt>
      <trkpt lat="40.278317" lon="-4.880850">
        <ele>2146.0</ele>
        <time>2018-09-16T12:58:51Z</time>
      </trkpt>
      <trkpt lat="40.278350" lon="-4.880783">
        <ele>2145.0</ele>
        <time>2018-09-16T12:58:52Z</time>
      </trkpt>
      <trkpt lat="40.278367" lon="-4.880700">
        <ele>2145.0</ele>
        <time>2018-09-16T12:58:53Z</time>
      </trkpt>
      <trkpt lat="40.278400" lon="-4.880600">
        <ele>2145.0</ele>
        <time>2018-09-16T12:58:54Z</time>
      </trkpt>
      <trkpt lat="40.278417" lon="-4.880517">
        <ele>2144.0</ele>
        <time>2018-09-16T12:58:55Z</time>
      </trkpt>
      <trkpt lat="40.278450" lon="-4.880433">
        <ele>2144.0</ele>
        <time>2018-09-16T12:58:56Z</time>
      </trkpt>
      <trkpt lat="40.278467" lon="-4.880350">
        <ele>2144.0</ele>
        <time>2018-09-16T12:58:57Z</time>
      </trkpt>
      <trkpt lat="40.278500" lon="-4.880267">
        <ele>2143.0</ele>
        <time>2018-09-16T12:58:58Z</time>
      </trkpt>
      <trkpt lat="40.278517" lon="-4.880183">
        <ele>2142.0</ele>
        <time>2018-09-16T12:58:59Z</time>
      </trkpt>
      <trkpt lat="40.278550" lon="-4.880100">
        <ele>2142.0</ele>
        <time>2018-09-16T12:59:00Z</time>
      </trkpt>
      <trkpt lat="40.278567" lon="-4.880000">
        <ele>2142.0</ele>
        <time>2018-09-16T12:59:01Z</time>
      </trkpt>
      <trkpt lat="40.278600" lon="-4.879883">
        <ele>2141.0</ele>
        <time>2018-09-16T12:59:02Z</time>
      </trkpt>
      <trkpt lat="40.278617" lon="-4.879767">
        <ele>2141.0</ele>
        <time>2018-09-16T12:59:03Z</time>
      </trkpt>
      <trkpt lat="40.278650" lon="-4.879667">
        <ele>2140.0</ele>
        <time>2018-09-16T12:59:04Z</time>
      </trkpt>
      <trkpt lat="40.278667" lon="-4.879567">
        <ele>2140.0</ele>
        <time>2018-09-16T12:59:05Z</time>
      </trkpt>
      <trkpt lat="40.278683" lon="-4.879467">
        <ele>2139.0</ele>
        <time>2018-09-16T12:59:06Z</time>
      </trkpt>
      <trkpt lat="40.278700" lon="-4.879383">
        <ele>2139.0</ele>
        <time>2018-09-16T12:59:07Z</time>
      </trkpt>
      <trkpt lat="40.278750" lon="-4.879083">
        <ele>2137.0</ele>
        <time>2018-09-16T12:59:10Z</time>
      </trkpt>
      <trkpt lat="40.278750" lon="-4.879000">
        <ele>2137.0</ele>
        <time>2018-09-16T12:59:11Z</time>
      </trkpt>
      <trkpt lat="40.278767" lon="-4.878883">
        <ele>2137.0</ele>
        <time>2018-09-16T12:59:12Z</time>
      </trkpt>
      <trkpt lat="40.278783" lon="-4.878800">
        <ele>2136.0</ele>
        <time>2018-09-16T12:59:13Z</time>
      </trkpt>
      <trkpt lat="40.278817" lon="-4.878733">
        <ele>2135.0</ele>
        <time>2018-09-16T12:59:14Z</time>
      </trkpt>
      <trkpt lat="40.278833" lon="-4.878650">
        <ele>2134.0</ele>
        <time>2018-09-16T12:59:15Z</time>
      </trkpt>
      <trkpt lat="40.278833" lon="-4.878550">
        <ele>2134.0</ele>
        <time>2018-09-16T12:59:16Z</time>
      </trkpt>
      <trkpt lat="40.278850" lon="-4.878450">
        <ele>2133.0</ele>
        <time>2018-09-16T12:59:17Z</time>
      </trkpt>
      <trkpt lat="40.278867" lon="-4.878350">
        <ele>2133.0</ele>
        <time>2018-09-16T12:59:18Z</time>
      </trkpt>
      <trkpt lat="40.278883" lon="-4.878250">
        <ele>2132.0</ele>
        <time>2018-09-16T12:59:19Z</time>
      </trkpt>
      <trkpt lat="40.278900" lon="-4.878167">
        <ele>2132.0</ele>
        <time>2018-09-16T12:59:20Z</time>
      </trkpt>
      <trkpt lat="40.278917" lon="-4.878067">
        <ele>2131.0</ele>
        <time>2018-09-16T12:59:21Z</time>
      </trkpt>
      <trkpt lat="40.278933" lon="-4.877983">
        <ele>2131.0</ele>
        <time>2018-09-16T12:59:22Z</time>
      </trkpt>
      <trkpt lat="40.278933" lon="-4.877900">
        <ele>2130.0</ele>
        <time>2018-09-16T12:59:23Z</time>
      </trkpt>
      <trkpt lat="40.278950" lon="-4.877783">
        <ele>2130.0</ele>
        <time>2018-09-16T12:59:24Z</time>
      </trkpt>
      <trkpt lat="40.278967" lon="-4.877700">
        <ele>2129.0</ele>
        <time>2018-09-16T12:59:25Z</time>
      </trkpt>
      <trkpt lat="40.278983" lon="-4.877633">
        <ele>2128.0</ele>
        <time>2018-09-16T12:59:26Z</time>
      </trkpt>
      <trkpt lat="40.279000" lon="-4.877550">
        <ele>2127.0</ele>
        <time>2018-09-16T12:59:27Z</time>
      </trkpt>
      <trkpt lat="40.279000" lon="-4.877467">
        <ele>2127.0</ele>
        <time>2018-09-16T12:59:28Z</time>
      </trkpt>
      <trkpt lat="40.279017" lon="-4.877367">
        <ele>2126.0</ele>
        <time>2018-09-16T12:59:29Z</time>
      </trkpt>
      <trkpt lat="40.279017" lon="-4.877267">
        <ele>2125.0</ele>
        <time>2018-09-16T12:59:30Z</time>
      </trkpt>
      <trkpt lat="40.279033" lon="-4.877167">
        <ele>2125.0</ele>
        <time>2018-09-16T12:59:31Z</time>
      </trkpt>
      <trkpt lat="40.279033" lon="-4.877050">
        <ele>2124.0</ele>
        <time>2018-09-16T12:59:32Z</time>
      </trkpt>
      <trkpt lat="40.279050" lon="-4.876967">
        <ele>2124.0</ele>
        <time>2018-09-16T12:59:33Z</time>
      </trkpt>
      <trkpt lat="40.279050" lon="-4.876867">
        <ele>2123.0</ele>
        <time>2018-09-16T12:59:34Z</time>
      </trkpt>
      <trkpt lat="40.279067" lon="-4.876783">
        <ele>2122.0</ele>
        <time>2018-09-16T12:59:35Z</time>
      </trkpt>
      <trkpt lat="40.279083" lon="-4.876700">
        <ele>2122.0</ele>
        <time>2018-09-16T12:59:36Z</time>
      </trkpt>
      <trkpt lat="40.279100" lon="-4.876617">
        <ele>2121.0</ele>
        <time>2018-09-16T12:59:37Z</time>
      </trkpt>
      <trkpt lat="40.279117" lon="-4.876533">
        <ele>2120.0</ele>
        <time>2018-09-16T12:59:38Z</time>
      </trkpt>
      <trkpt lat="40.279133" lon="-4.876450">
        <ele>2120.0</ele>
        <time>2018-09-16T12:59:39Z</time>
      </trkpt>
      <trkpt lat="40.279150" lon="-4.876350">
        <ele>2119.0</ele>
        <time>2018-09-16T12:59:40Z</time>
      </trkpt>
      <trkpt lat="40.279167" lon="-4.876267">
        <ele>2118.0</ele>
        <time>2018-09-16T12:59:41Z</time>
      </trkpt>
      <trkpt lat="40.279183" lon="-4.876183">
        <ele>2118.0</ele>
        <time>2018-09-16T12:59:42Z</time>
      </trkpt>
      <trkpt lat="40.279200" lon="-4.876100">
        <ele>2117.0</ele>
        <time>2018-09-16T12:59:43Z</time>
      </trkpt>
      <trkpt lat="40.279217" lon="-4.876017">
        <ele>2117.0</ele>
        <time>2018-09-16T12:59:44Z</time>
      </trkpt>
      <trkpt lat="40.279233" lon="-4.875933">
        <ele>2116.0</ele>
        <time>2018-09-16T12:59:45Z</time>
      </trkpt>
      <trkpt lat="40.279250" lon="-4.875850">
        <ele>2115.0</ele>
        <time>2018-09-16T12:59:46Z</time>
      </trkpt>
      <trkpt lat="40.279267" lon="-4.875767">
        <ele>2115.0</ele>
        <time>2018-09-16T12:59:47Z</time>
      </trkpt>
      <trkpt lat="40.279283" lon="-4.875683">
        <ele>2114.0</ele>
        <time>2018-09-16T12:59:48Z</time>
      </trkpt>
      <trkpt lat="40.279300" lon="-4.875600">
        <ele>2114.0</ele>
        <time>2018-09-16T12:59:49Z</time>
      </trkpt>
      <trkpt lat="40.279300" lon="-4.875517">
        <ele>2113.0</ele>
        <time>2018-09-16T12:59:50Z</time>
      </trkpt>
      <trkpt lat="40.279317" lon="-4.875417">
        <ele>2112.0</ele>
        <time>2018-09-16T12:59:51Z</time>
      </trkpt>
      <trkpt lat="40.279333" lon="-4.875333">
        <ele>2112.0</ele>
        <time>2018-09-16T12:59:52Z</time>
      </trkpt>
      <trkpt lat="40.279350" lon="-4.875233">
        <ele>2111.0</ele>
        <time>2018-09-16T12:59:53Z</time>
      </trkpt>
      <trkpt lat="40.279383" lon="-4.875150">
        <ele>2110.0</ele>
        <time>2018-09-16T12:59:54Z</time>
      </trkpt>
      <trkpt lat="40.279400" lon="-4.875067">
        <ele>2110.0</ele>
        <time>2018-09-16T12:59:55Z</time>
      </trkpt>
      <trkpt lat="40.279433" lon="-4.874983">
        <ele>2109.0</ele>
        <time>2018-09-16T12:59:56Z</time>
      </trkpt>
      <trkpt lat="40.279450" lon="-4.874900">
        <ele>2108.0</ele>
        <time>2018-09-16T12:59:57Z</time>
      </trkpt>
      <trkpt lat="40.279483" lon="-4.874800">
        <ele>2107.0</ele>
        <time>2018-09-16T12:59:58Z</time>
      </trkpt>
      <trkpt lat="40.279500" lon="-4.874700">
        <ele>2107.0</ele>
        <time>2018-09-16T12:59:59Z</time>
      </trkpt>
      <trkpt lat="40.279517" lon="-4.874617">
        <ele>2106.0</ele>
        <time>2018-09-16T13:00:00Z</time>
      </trkpt>
      <trkpt lat="40.279550" lon="-4.874517">
        <ele>2105.0</ele>
        <time>2018-09-16T13:00:01Z</time>
      </trkpt>
      <trkpt lat="40.279567" lon="-4.874417">
        <ele>2104.0</ele>
        <time>2018-09-16T13:00:02Z</time>
      </trkpt>
      <trkpt lat="40.279600" lon="-4.874317">
        <ele>2103.0</ele>
        <time>2018-09-16T13:00:03Z</time>
      </trkpt>
      <trkpt lat="40.279617" lon="-4.874217">
        <ele>2103.0</ele>
        <time>2018-09-16T13:00:04Z</time>
      </trkpt>
      <trkpt lat="40.279650" lon="-4.874100">
        <ele>2102.0</ele>
        <time>2018-09-16T13:00:05Z</time>
      </trkpt>
      <trkpt lat="40.279683" lon="-4.874000">
        <ele>2100.0</ele>
        <time>2018-09-16T13:00:06Z</time>
      </trkpt>
      <trkpt lat="40.279717" lon="-4.873917">
        <ele>2099.0</ele>
        <time>2018-09-16T13:00:07Z</time>
      </trkpt>
      <trkpt lat="40.279733" lon="-4.873817">
        <ele>2098.0</ele>
        <time>2018-09-16T13:00:08Z</time>
      </trkpt>
      <trkpt lat="40.279750" lon="-4.873750">
        <ele>2097.0</ele>
        <time>2018-09-16T13:00:09Z</time>
      </trkpt>
      <trkpt lat="40.279767" lon="-4.873683">
        <ele>2096.0</ele>
        <time>2018-09-16T13:00:10Z</time>
      </trkpt>
      <trkpt lat="40.279800" lon="-4.873600">
        <ele>2094.0</ele>
        <time>2018-09-16T13:00:11Z</time>
      </trkpt>
      <trkpt lat="40.279817" lon="-4.873500">
        <ele>2093.0</ele>
        <time>2018-09-16T13:00:12Z</time>
      </trkpt>
      <trkpt lat="40.279850" lon="-4.873417">
        <ele>2092.0</ele>
        <time>2018-09-16T13:00:13Z</time>
      </trkpt>
      <trkpt lat="40.279867" lon="-4.873317">
        <ele>2091.0</ele>
        <time>2018-09-16T13:00:14Z</time>
      </trkpt>
      <trkpt lat="40.279900" lon="-4.873217">
        <ele>2091.0</ele>
        <time>2018-09-16T13:00:15Z</time>
      </trkpt>
      <trkpt lat="40.279917" lon="-4.873117">
        <ele>2090.0</ele>
        <time>2018-09-16T13:00:16Z</time>
      </trkpt>
      <trkpt lat="40.279950" lon="-4.873033">
        <ele>2090.0</ele>
        <time>2018-09-16T13:00:17Z</time>
      </trkpt>
      <trkpt lat="40.279983" lon="-4.872933">
        <ele>2089.0</ele>
        <time>2018-09-16T13:00:18Z</time>
      </trkpt>
      <trkpt lat="40.280017" lon="-4.872833">
        <ele>2088.0</ele>
        <time>2018-09-16T13:00:19Z</time>
      </trkpt>
      <trkpt lat="40.280033" lon="-4.872733">
        <ele>2087.0</ele>
        <time>2018-09-16T13:00:20Z</time>
      </trkpt>
      <trkpt lat="40.280067" lon="-4.872667">
        <ele>2087.0</ele>
        <time>2018-09-16T13:00:21Z</time>
      </trkpt>
      <trkpt lat="40.280100" lon="-4.872617">
        <ele>2086.0</ele>
        <time>2018-09-16T13:00:22Z</time>
      </trkpt>
      <trkpt lat="40.280150" lon="-4.872583">
        <ele>2085.0</ele>
        <time>2018-09-16T13:00:23Z</time>
      </trkpt>
      <trkpt lat="40.280217" lon="-4.872633">
        <ele>2083.0</ele>
        <time>2018-09-16T13:00:24Z</time>
      </trkpt>
      <trkpt lat="40.280333" lon="-4.872700">
        <ele>2080.0</ele>
        <time>2018-09-16T13:00:25Z</time>
      </trkpt>
      <trkpt lat="40.280533" lon="-4.872683">
        <ele>2070.0</ele>
        <time>2018-09-16T13:00:27Z</time>
      </trkpt>
      <trkpt lat="40.280633" lon="-4.872633">
        <ele>2067.0</ele>
        <time>2018-09-16T13:00:28Z</time>
      </trkpt>
      <trkpt lat="40.280717" lon="-4.872600">
        <ele>2062.0</ele>
        <time>2018-09-16T13:00:29Z</time>
      </trkpt>
      <trkpt lat="40.280800" lon="-4.872583">
        <ele>2059.0</ele>
        <time>2018-09-16T13:00:30Z</time>
      </trkpt>
      <trkpt lat="40.280900" lon="-4.872533">
        <ele>2056.0</ele>
        <time>2018-09-16T13:00:31Z</time>
      </trkpt>
      <trkpt lat="40.281000" lon="-4.872483">
        <ele>2052.0</ele>
        <time>2018-09-16T13:00:32Z</time>
      </trkpt>
      <trkpt lat="40.281100" lon="-4.872450">
        <ele>2048.0</ele>
        <time>2018-09-16T13:00:33Z</time>
      </trkpt>
      <trkpt lat="40.281167" lon="-4.872417">
        <ele>2045.0</ele>
        <time>2018-09-16T13:00:34Z</time>
      </trkpt>
      <trkpt lat="40.281250" lon="-4.872400">
        <ele>2043.0</ele>
        <time>2018-09-16T13:00:35Z</time>
      </trkpt>
      <trkpt lat="40.281333" lon="-4.872367">
        <ele>2040.0</ele>
        <time>2018-09-16T13:00:36Z</time>
      </trkpt>
      <trkpt lat="40.281417" lon="-4.872350">
        <ele>2038.0</ele>
        <time>2018-09-16T13:00:37Z</time>
      </trkpt>
      <trkpt lat="40.281500" lon="-4.872317">
        <ele>2035.0</ele>
        <time>2018-09-16T13:00:38Z</time>
      </trkpt>
      <trkpt lat="40.281583" lon="-4.872300">
        <ele>2032.0</ele>
        <time>2018-09-16T13:00:39Z</time>
      </trkpt>
      <trkpt lat="40.281683" lon="-4.872283">
        <ele>2029.0</ele>
        <time>2018-09-16T13:00:40Z</time>
      </trkpt>
      <trkpt lat="40.281767" lon="-4.872250">
        <ele>2026.0</ele>
        <time>2018-09-16T13:00:41Z</time>
      </trkpt>
      <trkpt lat="40.281867" lon="-4.872217">
        <ele>2023.0</ele>
        <time>2018-09-16T13:00:42Z</time>
      </trkpt>
      <trkpt lat="40.281950" lon="-4.872200">
        <ele>2020.0</ele>
        <time>2018-09-16T13:00:43Z</time>
      </trkpt>
      <trkpt lat="40.282050" lon="-4.872167">
        <ele>2017.0</ele>
        <time>2018-09-16T13:00:44Z</time>
      </trkpt>
      <trkpt lat="40.282150" lon="-4.872150">
        <ele>2014.0</ele>
        <time>2018-09-16T13:00:45Z</time>
      </trkpt>
      <trkpt lat="40.282233" lon="-4.872117">
        <ele>2010.0</ele>
        <time>2018-09-16T13:00:46Z</time>
      </trkpt>
      <trkpt lat="40.282333" lon="-4.872100">
        <ele>2007.0</ele>
        <time>2018-09-16T13:00:47Z</time>
      </trkpt>
      <trkpt lat="40.282417" lon="-4.872067">
        <ele>2004.0</ele>
        <time>2018-09-16T13:00:48Z</time>
      </trkpt>
      <trkpt lat="40.282517" lon="-4.872050">
        <ele>2002.0</ele>
        <time>2018-09-16T13:00:49Z</time>
      </trkpt>
      <trkpt lat="40.282600" lon="-4.872017">
        <ele>1999.0</ele>
        <time>2018-09-16T13:00:50Z</time>
      </trkpt>
      <trkpt lat="40.282700" lon="-4.872000">
        <ele>1996.0</ele>
        <time>2018-09-16T13:00:51Z</time>
      </trkpt>
      <trkpt lat="40.282783" lon="-4.871967">
        <ele>1993.0</ele>
        <time>2018-09-16T13:00:52Z</time>
      </trkpt>
      <trkpt lat="40.282883" lon="-4.871950">
        <ele>1990.0</ele>
        <time>2018-09-16T13:00:53Z</time>
      </trkpt>
      <trkpt lat="40.282967" lon="-4.871933">
        <ele>1988.0</ele>
        <time>2018-09-16T13:00:54Z</time>
      </trkpt>
      <trkpt lat="40.283050" lon="-4.871917">
        <ele>1985.0</ele>
        <time>2018-09-16T13:00:55Z</time>
      </trkpt>
      <trkpt lat="40.283150" lon="-4.871883">
        <ele>1982.0</ele>
        <time>2018-09-16T13:00:56Z</time>
      </trkpt>
      <trkpt lat="40.283233" lon="-4.871867">
        <ele>1980.0</ele>
        <time>2018-09-16T13:00:57Z</time>
      </trkpt>
      <trkpt lat="40.283333" lon="-4.871850">
        <ele>1978.0</ele>
        <time>2018-09-16T13:00:58Z</time>
      </trkpt>
      <trkpt lat="40.283417" lon="-4.871833">
        <ele>1975.0</ele>
        <time>2018-09-16T13:00:59Z</time>
      </trkpt>
      <trkpt lat="40.283500" lon="-4.871817">
        <ele>1973.0</ele>
        <time>2018-09-16T13:01:00Z</time>
      </trkpt>
      <trkpt lat="40.283600" lon="-4.871800">
        <ele>1972.0</ele>
        <time>2018-09-16T13:01:01Z</time>
      </trkpt>
      <trkpt lat="40.283683" lon="-4.871783">
        <ele>1970.0</ele>
        <time>2018-09-16T13:01:02Z</time>
      </trkpt>
      <trkpt lat="40.283767" lon="-4.871767">
        <ele>1968.0</ele>
        <time>2018-09-16T13:01:03Z</time>
      </trkpt>
      <trkpt lat="40.283850" lon="-4.871767">
        <ele>1966.0</ele>
        <time>2018-09-16T13:01:04Z</time>
      </trkpt>
      <trkpt lat="40.283933" lon="-4.871750">
        <ele>1964.0</ele>
        <time>2018-09-16T13:01:05Z</time>
      </trkpt>
      <trkpt lat="40.284017" lon="-4.871733">
        <ele>1962.0</ele>
        <time>2018-09-16T13:01:06Z</time>
      </trkpt>
      <trkpt lat="40.284100" lon="-4.871733">
        <ele>1960.0</ele>
        <time>2018-09-16T13:01:07Z</time>
      </trkpt>
      <trkpt lat="40.284183" lon="-4.871733">
        <ele>1959.0</ele>
        <time>2018-09-16T13:01:08Z</time>
      </trkpt>
      <trkpt lat="40.284283" lon="-4.871733">
        <ele>1957.0</ele>
        <time>2018-09-16T13:01:09Z</time>
      </trkpt>
      <trkpt lat="40.284367" lon="-4.871733">
        <ele>1955.0</ele>
        <time>2018-09-16T13:01:10Z</time>
      </trkpt>
      <trkpt lat="40.284450" lon="-4.871717">
        <ele>1954.0</ele>
        <time>2018-09-16T13:01:11Z</time>
      </trkpt>
      <trkpt lat="40.284533" lon="-4.871717">
        <ele>1952.0</ele>
        <time>2018-09-16T13:01:12Z</time>
      </trkpt>
      <trkpt lat="40.284633" lon="-4.871717">
        <ele>1950.0</ele>
        <time>2018-09-16T13:01:13Z</time>
      </trkpt>
      <trkpt lat="40.284717" lon="-4.871717">
        <ele>1948.0</ele>
        <time>2018-09-16T13:01:14Z</time>
      </trkpt>
      <trkpt lat="40.284800" lon="-4.871717">
        <ele>1947.0</ele>
        <time>2018-09-16T13:01:15Z</time>
      </trkpt>
      <trkpt lat="40.284900" lon="-4.871717">
        <ele>1945.0</ele>
        <time>2018-09-16T13:01:16Z</time>
      </trkpt>
      <trkpt lat="40.284983" lon="-4.871717">
        <ele>1944.0</ele>
        <time>2018-09-16T13:01:17Z</time>
      </trkpt>
      <trkpt lat="40.285067" lon="-4.871717">
        <ele>1942.0</ele>
        <time>2018-09-16T13:01:18Z</time>
      </trkpt>
      <trkpt lat="40.285150" lon="-4.871700">
        <ele>1941.0</ele>
        <time>2018-09-16T13:01:19Z</time>
      </trkpt>
      <trkpt lat="40.285250" lon="-4.871700">
        <ele>1939.0</ele>
        <time>2018-09-16T13:01:20Z</time>
      </trkpt>
      <trkpt lat="40.285333" lon="-4.871683">
        <ele>1938.0</ele>
        <time>2018-09-16T13:01:21Z</time>
      </trkpt>
      <trkpt lat="40.285417" lon="-4.871683">
        <ele>1936.0</ele>
        <time>2018-09-16T13:01:22Z</time>
      </trkpt>
      <trkpt lat="40.285500" lon="-4.871683">
        <ele>1935.0</ele>
        <time>2018-09-16T13:01:23Z</time>
      </trkpt>
      <trkpt lat="40.285600" lon="-4.871683">
        <ele>1933.0</ele>
        <time>2018-09-16T13:01:24Z</time>
      </trkpt>
      <trkpt lat="40.285683" lon="-4.871667">
        <ele>1932.0</ele>
        <time>2018-09-16T13:01:25Z</time>
      </trkpt>
      <trkpt lat="40.285767" lon="-4.871650">
        <ele>1930.0</ele>
        <time>2018-09-16T13:01:26Z</time>
      </trkpt>
      <trkpt lat="40.285867" lon="-4.871650">
        <ele>1929.0</ele>
        <time>2018-09-16T13:01:27Z</time>
      </trkpt>
      <trkpt lat="40.285950" lon="-4.871650">
        <ele>1927.0</ele>
        <time>2018-09-16T13:01:28Z</time>
      </trkpt>
      <trkpt lat="40.286050" lon="-4.871650">
        <ele>1926.0</ele>
        <time>2018-09-16T13:01:29Z</time>
      </trkpt>
      <trkpt lat="40.286133" lon="-4.871633">
        <ele>1925.0</ele>
        <time>2018-09-16T13:01:30Z</time>
      </trkpt>
      <trkpt lat="40.286233" lon="-4.871633">
        <ele>1923.0</ele>
        <time>2018-09-16T13:01:31Z</time>
      </trkpt>
      <trkpt lat="40.286317" lon="-4.871633">
        <ele>1922.0</ele>
        <time>2018-09-16T13:01:32Z</time>
      </trkpt>
      <trkpt lat="40.286417" lon="-4.871633">
        <ele>1921.0</ele>
        <time>2018-09-16T13:01:33Z</time>
      </trkpt>
      <trkpt lat="40.286500" lon="-4.871617">
        <ele>1919.0</ele>
        <time>2018-09-16T13:01:34Z</time>
      </trkpt>
      <trkpt lat="40.286600" lon="-4.871600">
        <ele>1918.0</ele>
        <time>2018-09-16T13:01:35Z</time>
      </trkpt>
      <trkpt lat="40.286700" lon="-4.871583">
        <ele>1916.0</ele>
        <time>2018-09-16T13:01:36Z</time>
      </trkpt>
      <trkpt lat="40.286800" lon="-4.871567">
        <ele>1915.0</ele>
        <time>2018-09-16T13:01:37Z</time>
      </trkpt>
      <trkpt lat="40.287017" lon="-4.871483">
        <ele>1912.0</ele>
        <time>2018-09-16T13:01:39Z</time>
      </trkpt>
      <trkpt lat="40.287117" lon="-4.871450">
        <ele>1911.0</ele>
        <time>2018-09-16T13:01:40Z</time>
      </trkpt>
      <trkpt lat="40.287217" lon="-4.871400">
        <ele>1911.0</ele>
        <time>2018-09-16T13:01:41Z</time>
      </trkpt>
      <trkpt lat="40.287317" lon="-4.871383">
        <ele>1912.0</ele>
        <time>2018-09-16T13:01:42Z</time>
      </trkpt>
      <trkpt lat="40.287433" lon="-4.871367">
        <ele>1913.0</ele>
        <time>2018-09-16T13:01:43Z</time>
      </trkpt>
      <trkpt lat="40.287550" lon="-4.871333">
        <ele>1914.0</ele>
        <time>2018-09-16T13:01:44Z</time>
      </trkpt>
      <trkpt lat="40.287667" lon="-4.871300">
        <ele>1915.0</ele>
        <time>2018-09-16T13:01:45Z</time>
      </trkpt>
      <trkpt lat="40.287750" lon="-4.871267">
        <ele>1916.0</ele>
        <time>2018-09-16T13:01:46Z</time>
      </trkpt>
      <trkpt lat="40.287850" lon="-4.871217">
        <ele>1917.0</ele>
        <time>2018-09-16T13:01:47Z</time>
      </trkpt>
      <trkpt lat="40.288033" lon="-4.871100">
        <ele>1918.0</ele>
        <time>2018-09-16T13:01:49Z</time>
      </trkpt>
      <trkpt lat="40.288117" lon="-4.871017">
        <ele>1920.0</ele>
        <time>2018-09-16T13:01:50Z</time>
      </trkpt>
      <trkpt lat="40.288183" lon="-4.870917">
        <ele>1922.0</ele>
        <time>2018-09-16T13:01:51Z</time>
      </trkpt>
      <trkpt lat="40.288217" lon="-4.870800">
        <ele>1924.0</ele>
        <time>2018-09-16T13:01:52Z</time>
      </trkpt>
      <trkpt lat="40.288217" lon="-4.870700">
        <ele>1927.0</ele>
        <time>2018-09-16T13:01:53Z</time>
      </trkpt>
      <trkpt lat="40.288183" lon="-4.870617">
        <ele>1931.0</ele>
        <time>2018-09-16T13:01:54Z</time>
      </trkpt>
      <trkpt lat="40.288150" lon="-4.870567">
        <ele>1933.0</ele>
        <time>2018-09-16T13:01:55Z</time>
      </trkpt>
      <trkpt lat="40.288083" lon="-4.870550">
        <ele>1927.0</ele>
        <time>2018-09-16T13:01:56Z</time>
      </trkpt>
      <trkpt lat="40.288017" lon="-4.870567">
        <ele>1927.0</ele>
        <time>2018-09-16T13:01:57Z</time>
      </trkpt>
      <trkpt lat="40.287950" lon="-4.870617">
        <ele>1928.0</ele>
        <time>2018-09-16T13:01:58Z</time>
      </trkpt>
      <trkpt lat="40.287917" lon="-4.870717">
        <ele>1929.0</ele>
        <time>2018-09-16T13:01:59Z</time>
      </trkpt>
      <trkpt lat="40.287900" lon="-4.870850">
        <ele>1930.0</ele>
        <time>2018-09-16T13:02:00Z</time>
      </trkpt>
      <trkpt lat="40.287917" lon="-4.870967">
        <ele>1932.0</ele>
        <time>2018-09-16T13:02:01Z</time>
      </trkpt>
      <trkpt lat="40.287983" lon="-4.871067">
        <ele>1933.0</ele>
        <time>2018-09-16T13:02:02Z</time>
      </trkpt>
      <trkpt lat="40.288050" lon="-4.871133">
        <ele>1935.0</ele>
        <time>2018-09-16T13:02:03Z</time>
      </trkpt>
      <trkpt lat="40.288150" lon="-4.871167">
        <ele>1936.0</ele>
        <time>2018-09-16T13:02:04Z</time>
      </trkpt>
      <trkpt lat="40.288233" lon="-4.871167">
        <ele>1936.0</ele>
        <time>2018-09-16T13:02:05Z</time>
      </trkpt>
      <trkpt lat="40.288317" lon="-4.871150">
        <ele>1938.0</ele>
        <time>2018-09-16T13:02:06Z</time>
      </trkpt>
      <trkpt lat="40.288417" lon="-4.871083">
        <ele>1939.0</ele>
        <time>2018-09-16T13:02:07Z</time>
      </trkpt>
      <trkpt lat="40.288483" lon="-4.871000">
        <ele>1941.0</ele>
        <time>2018-09-16T13:02:08Z</time>
      </trkpt>
      <trkpt lat="40.288533" lon="-4.870917">
        <ele>1942.0</ele>
        <time>2018-09-16T13:02:09Z</time>
      </trkpt>
      <trkpt lat="40.288583" lon="-4.870833">
        <ele>1944.0</ele>
        <time>2018-09-16T13:02:10Z</time>
      </trkpt>
      <trkpt lat="40.288617" lon="-4.870750">
        <ele>1946.0</ele>
        <time>2018-09-16T13:02:11Z</time>
      </trkpt>
      <trkpt lat="40.288650" lon="-4.870683">
        <ele>1949.0</ele>
        <time>2018-09-16T13:02:12Z</time>
      </trkpt>
      <trkpt lat="40.288667" lon="-4.870583">
        <ele>1951.0</ele>
        <time>2018-09-16T13:02:13Z</time>
      </trkpt>
      <trkpt lat="40.288667" lon="-4.870483">
        <ele>1952.0</ele>
        <time>2018-09-16T13:02:14Z</time>
      </trkpt>
      <trkpt lat="40.288633" lon="-4.870400">
        <ele>1954.0</ele>
        <time>2018-09-16T13:02:15Z</time>
      </trkpt>
      <trkpt lat="40.288583" lon="-4.870350">
        <ele>1955.0</ele>
        <time>2018-09-16T13:02:16Z</time>
      </trkpt>
      <trkpt lat="40.288517" lon="-4.870350">
        <ele>1953.0</ele>
        <time>2018-09-16T13:02:17Z</time>
      </trkpt>
      <trkpt lat="40.288433" lon="-4.870383">
        <ele>1953.0</ele>
        <time>2018-09-16T13:02:18Z</time>
      </trkpt>
      <trkpt lat="40.288367" lon="-4.870433">
        <ele>1954.0</ele>
        <time>2018-09-16T13:02:19Z</time>
      </trkpt>
      <trkpt lat="40.288267" lon="-4.870483">
        <ele>1955.0</ele>
        <time>2018-09-16T13:02:20Z</time>
      </trkpt>
      <trkpt lat="40.288200" lon="-4.870600">
        <ele>1957.0</ele>
        <time>2018-09-16T13:02:21Z</time>
      </trkpt>
      <trkpt lat="40.288150" lon="-4.870733">
        <ele>1958.0</ele>
        <time>2018-09-16T13:02:22Z</time>
      </trkpt>
      <trkpt lat="40.288167" lon="-4.870867">
        <ele>1959.0</ele>
        <time>2018-09-16T13:02:23Z</time>
      </trkpt>
      <trkpt lat="40.288217" lon="-4.871000">
        <ele>1960.0</ele>
        <time>2018-09-16T13:02:24Z</time>
      </trkpt>
      <trkpt lat="40.288283" lon="-4.871100">
        <ele>1960.0</ele>
        <time>2018-09-16T13:02:25Z</time>
      </trkpt>
      <trkpt lat="40.288383" lon="-4.871167">
        <ele>1961.0</ele>
        <time>2018-09-16T13:02:26Z</time>
      </trkpt>
      <trkpt lat="40.288483" lon="-4.871217">
        <ele>1961.0</ele>
        <time>2018-09-16T13:02:27Z</time>
      </trkpt>
      <trkpt lat="40.288567" lon="-4.871233">
        <ele>1962.0</ele>
        <time>2018-09-16T13:02:28Z</time>
      </trkpt>
      <trkpt lat="40.288667" lon="-4.871200">
        <ele>1962.0</ele>
        <time>2018-09-16T13:02:29Z</time>
      </trkpt>
      <trkpt lat="40.288750" lon="-4.871150">
        <ele>1963.0</ele>
        <time>2018-09-16T13:02:30Z</time>
      </trkpt>
      <trkpt lat="40.288833" lon="-4.871100">
        <ele>1965.0</ele>
        <time>2018-09-16T13:02:31Z</time>
      </trkpt>
      <trkpt lat="40.288917" lon="-4.871050">
        <ele>1968.0</ele>
        <time>2018-09-16T13:02:32Z</time>
      </trkpt>
      <trkpt lat="40.288983" lon="-4.871000">
        <ele>1965.0</ele>
        <time>2018-09-16T13:02:33Z</time>
      </trkpt>
      <trkpt lat="40.289050" lon="-4.870950">
        <ele>1965.0</ele>
        <time>2018-09-16T13:02:34Z</time>
      </trkpt>
      <trkpt lat="40.289133" lon="-4.870900">
        <ele>1965.0</ele>
        <time>2018-09-16T13:02:35Z</time>
      </trkpt>
      <trkpt lat="40.289183" lon="-4.870833">
        <ele>1966.0</ele>
        <time>2018-09-16T13:02:36Z</time>
      </trkpt>
      <trkpt lat="40.289250" lon="-4.870750">
        <ele>1967.0</ele>
        <time>2018-09-16T13:02:37Z</time>
      </trkpt>
      <trkpt lat="40.289283" lon="-4.870650">
        <ele>1968.0</ele>
        <time>2018-09-16T13:02:38Z</time>
      </trkpt>
      <trkpt lat="40.289283" lon="-4.870550">
        <ele>1969.0</ele>
        <time>2018-09-16T13:02:39Z</time>
      </trkpt>
      <trkpt lat="40.289267" lon="-4.870467">
        <ele>1970.0</ele>
        <time>2018-09-16T13:02:40Z</time>
      </trkpt>
      <trkpt lat="40.289233" lon="-4.870383">
        <ele>1972.0</ele>
        <time>2018-09-16T13:02:41Z</time>
      </trkpt>
      <trkpt lat="40.289183" lon="-4.870333">
        <ele>1975.0</ele>
        <time>2018-09-16T13:02:42Z</time>
      </trkpt>
      <trkpt lat="40.289117" lon="-4.870267">
        <ele>1977.0</ele>
        <time>2018-09-16T13:02:43Z</time>
      </trkpt>
      <trkpt lat="40.289067" lon="-4.870200">
        <ele>1979.0</ele>
        <time>2018-09-16T13:02:44Z</time>
      </trkpt>
      <trkpt lat="40.289017" lon="-4.870133">
        <ele>1981.0</ele>
        <time>2018-09-16T13:02:45Z</time>
      </trkpt>
      <trkpt lat="40.288983" lon="-4.870050">
        <ele>1984.0</ele>
        <time>2018-09-16T13:02:46Z</time>
      </trkpt>
      <trkpt lat="40.289000" lon="-4.869967">
        <ele>1986.0</ele>
        <time>2018-09-16T13:02:47Z</time>
      </trkpt>
      <trkpt lat="40.289050" lon="-4.869900">
        <ele>1986.0</ele>
        <time>2018-09-16T13:02:48Z</time>
      </trkpt>
      <trkpt lat="40.289100" lon="-4.869850">
        <ele>1987.0</ele>
        <time>2018-09-16T13:02:49Z</time>
      </trkpt>
      <trkpt lat="40.289167" lon="-4.869833">
        <ele>1988.0</ele>
        <time>2018-09-16T13:02:50Z</time>
      </trkpt>
      <trkpt lat="40.289250" lon="-4.869833">
        <ele>1988.0</ele>
        <time>2018-09-16T13:02:51Z</time>
      </trkpt>
      <trkpt lat="40.289333" lon="-4.869833">
        <ele>1988.0</ele>
        <time>2018-09-16T13:02:52Z</time>
      </trkpt>
      <trkpt lat="40.289417" lon="-4.869850">
        <ele>1989.0</ele>
        <time>2018-09-16T13:02:53Z</time>
      </trkpt>
      <trkpt lat="40.289483" lon="-4.869883">
        <ele>1990.0</ele>
        <time>2018-09-16T13:02:54Z</time>
      </trkpt>
      <trkpt lat="40.289533" lon="-4.869883">
        <ele>1990.0</ele>
        <time>2018-09-16T13:02:55Z</time>
      </trkpt>
      <trkpt lat="40.289600" lon="-4.869883">
        <ele>1990.0</ele>
        <time>2018-09-16T13:02:56Z</time>
      </trkpt>
      <trkpt lat="40.289667" lon="-4.869867">
        <ele>1990.0</ele>
        <time>2018-09-16T13:02:57Z</time>
      </trkpt>
      <trkpt lat="40.289750" lon="-4.869867">
        <ele>1991.0</ele>
        <time>2018-09-16T13:02:58Z</time>
      </trkpt>
      <trkpt lat="40.289833" lon="-4.869883">
        <ele>1990.0</ele>
        <time>2018-09-16T13:02:59Z</time>
      </trkpt>
      <trkpt lat="40.289933" lon="-4.869900">
        <ele>1990.0</ele>
        <time>2018-09-16T13:03:00Z</time>
      </trkpt>
      <trkpt lat="40.290017" lon="-4.869917">
        <ele>1990.0</ele>
        <time>2018-09-16T13:03:01Z</time>
      </trkpt>
      <trkpt lat="40.290100" lon="-4.869933">
        <ele>1989.0</ele>
        <time>2018-09-16T13:03:02Z</time>
      </trkpt>
      <trkpt lat="40.290183" lon="-4.869950">
        <ele>1990.0</ele>
        <time>2018-09-16T13:03:03Z</time>
      </trkpt>
      <trkpt lat="40.290283" lon="-4.869967">
        <ele>1989.0</ele>
        <time>2018-09-16T13:03:04Z</time>
      </trkpt>
      <trkpt lat="40.290350" lon="-4.869983">
        <ele>1988.0</ele>
        <time>2018-09-16T13:03:05Z</time>
      </trkpt>
      <trkpt lat="40.290433" lon="-4.870000">
        <ele>1986.0</ele>
        <time>2018-09-16T13:03:06Z</time>
      </trkpt>
      <trkpt lat="40.290517" lon="-4.869983">
        <ele>1984.0</ele>
        <time>2018-09-16T13:03:07Z</time>
      </trkpt>
      <trkpt lat="40.290583" lon="-4.869967">
        <ele>1981.0</ele>
        <time>2018-09-16T13:03:08Z</time>
      </trkpt>
      <trkpt lat="40.290783" lon="-4.869933">
        <ele>1975.0</ele>
        <time>2018-09-16T13:03:10Z</time>
      </trkpt>
      <trkpt lat="40.291067" lon="-4.869900">
        <ele>1973.0</ele>
        <time>2018-09-16T13:03:13Z</time>
      </trkpt>
      <trkpt lat="40.291133" lon="-4.869883">
        <ele>1972.0</ele>
        <time>2018-09-16T13:03:14Z</time>
      </trkpt>
      <trkpt lat="40.291200" lon="-4.869850">
        <ele>1973.0</ele>
        <time>2018-09-16T13:03:15Z</time>
      </trkpt>
      <trkpt lat="40.291267" lon="-4.869817">
        <ele>1972.0</ele>
        <time>2018-09-16T13:03:16Z</time>
      </trkpt>
      <trkpt lat="40.291333" lon="-4.869783">
        <ele>1971.0</ele>
        <time>2018-09-16T13:03:17Z</time>
      </trkpt>
      <trkpt lat="40.291417" lon="-4.869767">
        <ele>1969.0</ele>
        <time>2018-09-16T13:03:18Z</time>
      </trkpt>
      <trkpt lat="40.291483" lon="-4.869767">
        <ele>1968.0</ele>
        <time>2018-09-16T13:03:19Z</time>
      </trkpt>
      <trkpt lat="40.291550" lon="-4.869767">
        <ele>1967.0</ele>
        <time>2018-09-16T13:03:20Z</time>
      </trkpt>
      <trkpt lat="40.291617" lon="-4.869750">
        <ele>1967.0</ele>
        <time>2018-09-16T13:03:21Z</time>
      </trkpt>
      <trkpt lat="40.291683" lon="-4.869750">
        <ele>1965.0</ele>
        <time>2018-09-16T13:03:22Z</time>
      </trkpt>
      <trkpt lat="40.291767" lon="-4.869750">
        <ele>1961.0</ele>
        <time>2018-09-16T13:03:23Z</time>
      </trkpt>
      <trkpt lat="40.291850" lon="-4.869750">
        <ele>1959.0</ele>
        <time>2018-09-16T13:03:24Z</time>
      </trkpt>
      <trkpt lat="40.291950" lon="-4.869750">
        <ele>1956.0</ele>
        <time>2018-09-16T13:03:25Z</time>
      </trkpt>
      <trkpt lat="40.292033" lon="-4.869750">
        <ele>1954.0</ele>
        <time>2018-09-16T13:03:26Z</time>
      </trkpt>
      <trkpt lat="40.292117" lon="-4.869750">
        <ele>1952.0</ele>
        <time>2018-09-16T13:03:27Z</time>
      </trkpt>
      <trkpt lat="40.292200" lon="-4.869750">
        <ele>1951.0</ele>
        <time>2018-09-16T13:03:28Z</time>
      </trkpt>
      <trkpt lat="40.292300" lon="-4.869750">
        <ele>1948.0</ele>
        <time>2018-09-16T13:03:29Z</time>
      </trkpt>
      <trkpt lat="40.292383" lon="-4.869750">
        <ele>1946.0</ele>
        <time>2018-09-16T13:03:30Z</time>
      </trkpt>
      <trkpt lat="40.292483" lon="-4.869750">
        <ele>1944.0</ele>
        <time>2018-09-16T13:03:31Z</time>
      </trkpt>
      <trkpt lat="40.292583" lon="-4.869767">
        <ele>1941.0</ele>
        <time>2018-09-16T13:03:32Z</time>
      </trkpt>
      <trkpt lat="40.292683" lon="-4.869750">
        <ele>1939.0</ele>
        <time>2018-09-16T13:03:33Z</time>
      </trkpt>
      <trkpt lat="40.292783" lon="-4.869750">
        <ele>1937.0</ele>
        <time>2018-09-16T13:03:34Z</time>
      </trkpt>
      <trkpt lat="40.292883" lon="-4.869733">
        <ele>1936.0</ele>
        <time>2018-09-16T13:03:35Z</time>
      </trkpt>
      <trkpt lat="40.292983" lon="-4.869733">
        <ele>1935.0</ele>
        <time>2018-09-16T13:03:36Z</time>
      </trkpt>
      <trkpt lat="40.293067" lon="-4.869733">
        <ele>1933.0</ele>
        <time>2018-09-16T13:03:37Z</time>
      </trkpt>
      <trkpt lat="40.293167" lon="-4.869733">
        <ele>1931.0</ele>
        <time>2018-09-16T13:03:38Z</time>
      </trkpt>
      <trkpt lat="40.293267" lon="-4.869733">
        <ele>1932.0</ele>
        <time>2018-09-16T13:03:39Z</time>
      </trkpt>
      <trkpt lat="40.293383" lon="-4.869717">
        <ele>1930.0</ele>
        <time>2018-09-16T13:03:40Z</time>
      </trkpt>
      <trkpt lat="40.293483" lon="-4.869700">
        <ele>1928.0</ele>
        <time>2018-09-16T13:03:41Z</time>
      </trkpt>
      <trkpt lat="40.293583" lon="-4.869683">
        <ele>1926.0</ele>
        <time>2018-09-16T13:03:42Z</time>
      </trkpt>
      <trkpt lat="40.293683" lon="-4.869667">
        <ele>1924.0</ele>
        <time>2018-09-16T13:03:43Z</time>
      </trkpt>
      <trkpt lat="40.293767" lon="-4.869667">
        <ele>1922.0</ele>
        <time>2018-09-16T13:03:44Z</time>
      </trkpt>
      <trkpt lat="40.293867" lon="-4.869650">
        <ele>1920.0</ele>
        <time>2018-09-16T13:03:45Z</time>
      </trkpt>
      <trkpt lat="40.293967" lon="-4.869633">
        <ele>1917.0</ele>
        <time>2018-09-16T13:03:46Z</time>
      </trkpt>
      <trkpt lat="40.294067" lon="-4.869600">
        <ele>1914.0</ele>
        <time>2018-09-16T13:03:47Z</time>
      </trkpt>
      <trkpt lat="40.294167" lon="-4.869600">
        <ele>1911.0</ele>
        <time>2018-09-16T13:03:48Z</time>
      </trkpt>
      <trkpt lat="40.294250" lon="-4.869583">
        <ele>1908.0</ele>
        <time>2018-09-16T13:03:49Z</time>
      </trkpt>
      <trkpt lat="40.294350" lon="-4.869567">
        <ele>1906.0</ele>
        <time>2018-09-16T13:03:50Z</time>
      </trkpt>
      <trkpt lat="40.294433" lon="-4.869550">
        <ele>1903.0</ele>
        <time>2018-09-16T13:03:51Z</time>
      </trkpt>
      <trkpt lat="40.294533" lon="-4.869533">
        <ele>1901.0</ele>
        <time>2018-09-16T13:03:52Z</time>
      </trkpt>
      <trkpt lat="40.294633" lon="-4.869533">
        <ele>1903.0</ele>
        <time>2018-09-16T13:03:53Z</time>
      </trkpt>
      <trkpt lat="40.294733" lon="-4.869517">
        <ele>1902.0</ele>
        <time>2018-09-16T13:03:54Z</time>
      </trkpt>
      <trkpt lat="40.294817" lon="-4.869517">
        <ele>1900.0</ele>
        <time>2018-09-16T13:03:55Z</time>
      </trkpt>
      <trkpt lat="40.294917" lon="-4.869517">
        <ele>1899.0</ele>
        <time>2018-09-16T13:03:56Z</time>
      </trkpt>
      <trkpt lat="40.295033" lon="-4.869517">
        <ele>1897.0</ele>
        <time>2018-09-16T13:03:57Z</time>
      </trkpt>
      <trkpt lat="40.295133" lon="-4.869517">
        <ele>1895.0</ele>
        <time>2018-09-16T13:03:58Z</time>
      </trkpt>
      <trkpt lat="40.295250" lon="-4.869533">
        <ele>1893.0</ele>
        <time>2018-09-16T13:03:59Z</time>
      </trkpt>
      <trkpt lat="40.295350" lon="-4.869533">
        <ele>1890.0</ele>
        <time>2018-09-16T13:04:00Z</time>
      </trkpt>
      <trkpt lat="40.295467" lon="-4.869517">
        <ele>1887.0</ele>
        <time>2018-09-16T13:04:01Z</time>
      </trkpt>
      <trkpt lat="40.295650" lon="-4.869500">
        <ele>1882.0</ele>
        <time>2018-09-16T13:04:03Z</time>
      </trkpt>
      <trkpt lat="40.295733" lon="-4.869467">
        <ele>1880.0</ele>
        <time>2018-09-16T13:04:04Z</time>
      </trkpt>
      <trkpt lat="40.295833" lon="-4.869450">
        <ele>1877.0</ele>
        <time>2018-09-16T13:04:05Z</time>
      </trkpt>
      <trkpt lat="40.295933" lon="-4.869433">
        <ele>1875.0</ele>
        <time>2018-09-16T13:04:06Z</time>
      </trkpt>
      <trkpt lat="40.296033" lon="-4.869400">
        <ele>1873.0</ele>
        <time>2018-09-16T13:04:07Z</time>
      </trkpt>
      <trkpt lat="40.296117" lon="-4.869383">
        <ele>1871.0</ele>
        <time>2018-09-16T13:04:08Z</time>
      </trkpt>
      <trkpt lat="40.296217" lon="-4.869367">
        <ele>1869.0</ele>
        <time>2018-09-16T13:04:09Z</time>
      </trkpt>
      <trkpt lat="40.296317" lon="-4.869350">
        <ele>1868.0</ele>
        <time>2018-09-16T13:04:10Z</time>
      </trkpt>
      <trkpt lat="40.296400" lon="-4.869317">
        <ele>1866.0</ele>
        <time>2018-09-16T13:04:11Z</time>
      </trkpt>
      <trkpt lat="40.296500" lon="-4.869300">
        <ele>1864.0</ele>
        <time>2018-09-16T13:04:12Z</time>
      </trkpt>
      <trkpt lat="40.296600" lon="-4.869283">
        <ele>1863.0</ele>
        <time>2018-09-16T13:04:13Z</time>
      </trkpt>
      <trkpt lat="40.296683" lon="-4.869267">
        <ele>1862.0</ele>
        <time>2018-09-16T13:04:14Z</time>
      </trkpt>
      <trkpt lat="40.296767" lon="-4.869250">
        <ele>1861.0</ele>
        <time>2018-09-16T13:04:15Z</time>
      </trkpt>
      <trkpt lat="40.296867" lon="-4.869200">
        <ele>1860.0</ele>
        <time>2018-09-16T13:04:16Z</time>
      </trkpt>
      <trkpt lat="40.296967" lon="-4.869150">
        <ele>1858.0</ele>
        <time>2018-09-16T13:04:17Z</time>
      </trkpt>
      <trkpt lat="40.297067" lon="-4.869100">
        <ele>1857.0</ele>
        <time>2018-09-16T13:04:18Z</time>
      </trkpt>
      <trkpt lat="40.297167" lon="-4.869050">
        <ele>1856.0</ele>
        <time>2018-09-16T13:04:19Z</time>
      </trkpt>
      <trkpt lat="40.297283" lon="-4.869017">
        <ele>1856.0</ele>
        <time>2018-09-16T13:04:20Z</time>
      </trkpt>
      <trkpt lat="40.297367" lon="-4.868983">
        <ele>1857.0</ele>
        <time>2018-09-16T13:04:21Z</time>
      </trkpt>
      <trkpt lat="40.297467" lon="-4.868950">
        <ele>1858.0</ele>
        <time>2018-09-16T13:04:22Z</time>
      </trkpt>
      <trkpt lat="40.297550" lon="-4.868883">
        <ele>1858.0</ele>
        <time>2018-09-16T13:04:23Z</time>
      </trkpt>
      <trkpt lat="40.297633" lon="-4.868817">
        <ele>1858.0</ele>
        <time>2018-09-16T13:04:24Z</time>
      </trkpt>
      <trkpt lat="40.297733" lon="-4.868767">
        <ele>1858.0</ele>
        <time>2018-09-16T13:04:25Z</time>
      </trkpt>
      <trkpt lat="40.297833" lon="-4.868717">
        <ele>1859.0</ele>
        <time>2018-09-16T13:04:26Z</time>
      </trkpt>
      <trkpt lat="40.297950" lon="-4.868683">
        <ele>1860.0</ele>
        <time>2018-09-16T13:04:27Z</time>
      </trkpt>
      <trkpt lat="40.298050" lon="-4.868633">
        <ele>1862.0</ele>
        <time>2018-09-16T13:04:28Z</time>
      </trkpt>
      <trkpt lat="40.298150" lon="-4.868583">
        <ele>1863.0</ele>
        <time>2018-09-16T13:04:29Z</time>
      </trkpt>
      <trkpt lat="40.298250" lon="-4.868550">
        <ele>1865.0</ele>
        <time>2018-09-16T13:04:30Z</time>
      </trkpt>
      <trkpt lat="40.298367" lon="-4.868517">
        <ele>1866.0</ele>
        <time>2018-09-16T13:04:31Z</time>
      </trkpt>
      <trkpt lat="40.298500" lon="-4.868500">
        <ele>1867.0</ele>
        <time>2018-09-16T13:04:32Z</time>
      </trkpt>
      <trkpt lat="40.298617" lon="-4.868483">
        <ele>1870.0</ele>
        <time>2018-09-16T13:04:33Z</time>
      </trkpt>
      <trkpt lat="40.298717" lon="-4.868483">
        <ele>1873.0</ele>
        <time>2018-09-16T13:04:34Z</time>
      </trkpt>
      <trkpt lat="40.298817" lon="-4.868467">
        <ele>1876.0</ele>
        <time>2018-09-16T13:04:35Z</time>
      </trkpt>
      <trkpt lat="40.298917" lon="-4.868467">
        <ele>1878.0</ele>
        <time>2018-09-16T13:04:36Z</time>
      </trkpt>
      <trkpt lat="40.299017" lon="-4.868450">
        <ele>1880.0</ele>
        <time>2018-09-16T13:04:37Z</time>
      </trkpt>
      <trkpt lat="40.299233" lon="-4.868267">
        <ele>1887.0</ele>
        <time>2018-09-16T13:04:40Z</time>
      </trkpt>
      <trkpt lat="40.299217" lon="-4.868150">
        <ele>1881.0</ele>
        <time>2018-09-16T13:04:41Z</time>
      </trkpt>
      <trkpt lat="40.299183" lon="-4.868067">
        <ele>1881.0</ele>
        <time>2018-09-16T13:04:42Z</time>
      </trkpt>
      <trkpt lat="40.299150" lon="-4.868000">
        <ele>1881.0</ele>
        <time>2018-09-16T13:04:43Z</time>
      </trkpt>
      <trkpt lat="40.299117" lon="-4.867967">
        <ele>1881.0</ele>
        <time>2018-09-16T13:04:46Z</time>
      </trkpt>
      <trkpt lat="40.299167" lon="-4.868017">
        <ele>1881.0</ele>
        <time>2018-09-16T13:04:47Z</time>
      </trkpt>
      <trkpt lat="40.299217" lon="-4.868117">
        <ele>1881.0</ele>
        <time>2018-09-16T13:04:48Z</time>
      </trkpt>
      <trkpt lat="40.299267" lon="-4.868233">
        <ele>1881.0</ele>
        <time>2018-09-16T13:04:49Z</time>
      </trkpt>
      <trkpt lat="40.299317" lon="-4.868367">
        <ele>1881.0</ele>
        <time>2018-09-16T13:04:50Z</time>
      </trkpt>
      <trkpt lat="40.299350" lon="-4.868550">
        <ele>1881.0</ele>
        <time>2018-09-16T13:04:51Z</time>
      </trkpt>
      <trkpt lat="40.299433" lon="-4.868617">
        <ele>1881.0</ele>
        <time>2018-09-16T13:04:52Z</time>
      </trkpt>
      <trkpt lat="40.299500" lon="-4.868667">
        <ele>1881.0</ele>
        <time>2018-09-16T13:04:53Z</time>
      </trkpt>
      <trkpt lat="40.299583" lon="-4.868683">
        <ele>1881.0</ele>
        <time>2018-09-16T13:04:54Z</time>
      </trkpt>
      <trkpt lat="40.299683" lon="-4.868683">
        <ele>1882.0</ele>
        <time>2018-09-16T13:04:55Z</time>
      </trkpt>
      <trkpt lat="40.299783" lon="-4.868667">
        <ele>1882.0</ele>
        <time>2018-09-16T13:04:56Z</time>
      </trkpt>
      <trkpt lat="40.299883" lon="-4.868633">
        <ele>1883.0</ele>
        <time>2018-09-16T13:04:57Z</time>
      </trkpt>
      <trkpt lat="40.299983" lon="-4.868600">
        <ele>1885.0</ele>
        <time>2018-09-16T13:04:58Z</time>
      </trkpt>
      <trkpt lat="40.300033" lon="-4.868583">
        <ele>1888.0</ele>
        <time>2018-09-16T13:04:59Z</time>
      </trkpt>
      <trkpt lat="40.300100" lon="-4.868533">
        <ele>1891.0</ele>
        <time>2018-09-16T13:05:00Z</time>
      </trkpt>
      <trkpt lat="40.300150" lon="-4.868483">
        <ele>1893.0</ele>
        <time>2018-09-16T13:05:01Z</time>
      </trkpt>
      <trkpt lat="40.300233" lon="-4.868433">
        <ele>1890.0</ele>
        <time>2018-09-16T13:05:02Z</time>
      </trkpt>
      <trkpt lat="40.300300" lon="-4.868350">
        <ele>1890.0</ele>
        <time>2018-09-16T13:05:03Z</time>
      </trkpt>
      <trkpt lat="40.300383" lon="-4.868267">
        <ele>1890.0</ele>
        <time>2018-09-16T13:05:04Z</time>
      </trkpt>
      <trkpt lat="40.300417" lon="-4.868167">
        <ele>1890.0</ele>
        <time>2018-09-16T13:05:05Z</time>
      </trkpt>
      <trkpt lat="40.300467" lon="-4.868083">
        <ele>1890.0</ele>
        <time>2018-09-16T13:05:06Z</time>
      </trkpt>
      <trkpt lat="40.300517" lon="-4.868000">
        <ele>1890.0</ele>
        <time>2018-09-16T13:05:07Z</time>
      </trkpt>
      <trkpt lat="40.300567" lon="-4.867917">
        <ele>1890.0</ele>
        <time>2018-09-16T13:05:08Z</time>
      </trkpt>
      <trkpt lat="40.300633" lon="-4.867833">
        <ele>1888.0</ele>
        <time>2018-09-16T13:05:09Z</time>
      </trkpt>
      <trkpt lat="40.300717" lon="-4.867750">
        <ele>1887.0</ele>
        <time>2018-09-16T13:05:10Z</time>
      </trkpt>
      <trkpt lat="40.300783" lon="-4.867683">
        <ele>1886.0</ele>
        <time>2018-09-16T13:05:11Z</time>
      </trkpt>
      <trkpt lat="40.300850" lon="-4.867600">
        <ele>1886.0</ele>
        <time>2018-09-16T13:05:12Z</time>
      </trkpt>
      <trkpt lat="40.300917" lon="-4.867550">
        <ele>1885.0</ele>
        <time>2018-09-16T13:05:13Z</time>
      </trkpt>
      <trkpt lat="40.300967" lon="-4.867500">
        <ele>1884.0</ele>
        <time>2018-09-16T13:05:14Z</time>
      </trkpt>
      <trkpt lat="40.301033" lon="-4.867450">
        <ele>1882.0</ele>
        <time>2018-09-16T13:05:15Z</time>
      </trkpt>
      <trkpt lat="40.301117" lon="-4.867400">
        <ele>1880.0</ele>
        <time>2018-09-16T13:05:16Z</time>
      </trkpt>
      <trkpt lat="40.301200" lon="-4.867350">
        <ele>1878.0</ele>
        <time>2018-09-16T13:05:17Z</time>
      </trkpt>
      <trkpt lat="40.301283" lon="-4.867317">
        <ele>1876.0</ele>
        <time>2018-09-16T13:05:18Z</time>
      </trkpt>
      <trkpt lat="40.301383" lon="-4.867300">
        <ele>1875.0</ele>
        <time>2018-09-16T13:05:19Z</time>
      </trkpt>
      <trkpt lat="40.301467" lon="-4.867283">
        <ele>1873.0</ele>
        <time>2018-09-16T13:05:20Z</time>
      </trkpt>
      <trkpt lat="40.301550" lon="-4.867283">
        <ele>1871.0</ele>
        <time>2018-09-16T13:05:21Z</time>
      </trkpt>
      <trkpt lat="40.301650" lon="-4.867267">
        <ele>1870.0</ele>
        <time>2018-09-16T13:05:22Z</time>
      </trkpt>
      <trkpt lat="40.301733" lon="-4.867267">
        <ele>1868.0</ele>
        <time>2018-09-16T13:05:23Z</time>
      </trkpt>
      <trkpt lat="40.301817" lon="-4.867250">
        <ele>1867.0</ele>
        <time>2018-09-16T13:05:24Z</time>
      </trkpt>
      <trkpt lat="40.301900" lon="-4.867250">
        <ele>1865.0</ele>
        <time>2018-09-16T13:05:25Z</time>
      </trkpt>
      <trkpt lat="40.301983" lon="-4.867267">
        <ele>1864.0</ele>
        <time>2018-09-16T13:05:26Z</time>
      </trkpt>
      <trkpt lat="40.302083" lon="-4.867283">
        <ele>1862.0</ele>
        <time>2018-09-16T13:05:27Z</time>
      </trkpt>
      <trkpt lat="40.302167" lon="-4.867317">
        <ele>1860.0</ele>
        <time>2018-09-16T13:05:28Z</time>
      </trkpt>
      <trkpt lat="40.302233" lon="-4.867383">
        <ele>1859.0</ele>
        <time>2018-09-16T13:05:29Z</time>
      </trkpt>
      <trkpt lat="40.302317" lon="-4.867483">
        <ele>1858.0</ele>
        <time>2018-09-16T13:05:30Z</time>
      </trkpt>
      <trkpt lat="40.302383" lon="-4.867600">
        <ele>1856.0</ele>
        <time>2018-09-16T13:05:31Z</time>
      </trkpt>
      <trkpt lat="40.302433" lon="-4.867717">
        <ele>1857.0</ele>
        <time>2018-09-16T13:05:32Z</time>
      </trkpt>
      <trkpt lat="40.302467" lon="-4.867800">
        <ele>1859.0</ele>
        <time>2018-09-16T13:05:33Z</time>
      </trkpt>
      <trkpt lat="40.302500" lon="-4.867883">
        <ele>1861.0</ele>
        <time>2018-09-16T13:05:34Z</time>
      </trkpt>
      <trkpt lat="40.302550" lon="-4.867967">
        <ele>1860.0</ele>
        <time>2018-09-16T13:05:35Z</time>
      </trkpt>
      <trkpt lat="40.302617" lon="-4.868033">
        <ele>1860.0</ele>
        <time>2018-09-16T13:05:36Z</time>
      </trkpt>
      <trkpt lat="40.302700" lon="-4.868067">
        <ele>1860.0</ele>
        <time>2018-09-16T13:05:37Z</time>
      </trkpt>
      <trkpt lat="40.302800" lon="-4.868067">
        <ele>1860.0</ele>
        <time>2018-09-16T13:05:38Z</time>
      </trkpt>
      <trkpt lat="40.302883" lon="-4.868000">
        <ele>1860.0</ele>
        <time>2018-09-16T13:05:39Z</time>
      </trkpt>
      <trkpt lat="40.302933" lon="-4.867883">
        <ele>1860.0</ele>
        <time>2018-09-16T13:05:40Z</time>
      </trkpt>
      <trkpt lat="40.302933" lon="-4.867750">
        <ele>1860.0</ele>
        <time>2018-09-16T13:05:41Z</time>
      </trkpt>
      <trkpt lat="40.302883" lon="-4.867633">
        <ele>1860.0</ele>
        <time>2018-09-16T13:05:42Z</time>
      </trkpt>
      <trkpt lat="40.302800" lon="-4.867617">
        <ele>1860.0</ele>
        <time>2018-09-16T13:05:43Z</time>
      </trkpt>
      <trkpt lat="40.302700" lon="-4.867667">
        <ele>1860.0</ele>
        <time>2018-09-16T13:05:44Z</time>
      </trkpt>
      <trkpt lat="40.302633" lon="-4.867767">
        <ele>1860.0</ele>
        <time>2018-09-16T13:05:45Z</time>
      </trkpt>
      <trkpt lat="40.302617" lon="-4.867917">
        <ele>1860.0</ele>
        <time>2018-09-16T13:05:46Z</time>
      </trkpt>
      <trkpt lat="40.302650" lon="-4.868033">
        <ele>1860.0</ele>
        <time>2018-09-16T13:05:47Z</time>
      </trkpt>
      <trkpt lat="40.302717" lon="-4.868100">
        <ele>1860.0</ele>
        <time>2018-09-16T13:05:48Z</time>
      </trkpt>
      <trkpt lat="40.302800" lon="-4.868133">
        <ele>1861.0</ele>
        <time>2018-09-16T13:05:49Z</time>
      </trkpt>
      <trkpt lat="40.302883" lon="-4.868117">
        <ele>1861.0</ele>
        <time>2018-09-16T13:05:50Z</time>
      </trkpt>
      <trkpt lat="40.302950" lon="-4.868033">
        <ele>1862.0</ele>
        <time>2018-09-16T13:05:51Z</time>
      </trkpt>
      <trkpt lat="40.302967" lon="-4.867900">
        <ele>1862.0</ele>
        <time>2018-09-16T13:05:52Z</time>
      </trkpt>
      <trkpt lat="40.302950" lon="-4.867783">
        <ele>1862.0</ele>
        <time>2018-09-16T13:05:53Z</time>
      </trkpt>
      <trkpt lat="40.302883" lon="-4.867717">
        <ele>1862.0</ele>
        <time>2018-09-16T13:05:54Z</time>
      </trkpt>
      <trkpt lat="40.302783" lon="-4.867700">
        <ele>1862.0</ele>
        <time>2018-09-16T13:05:55Z</time>
      </trkpt>
      <trkpt lat="40.302700" lon="-4.867733">
        <ele>1863.0</ele>
        <time>2018-09-16T13:05:56Z</time>
      </trkpt>
      <trkpt lat="40.302633" lon="-4.867783">
        <ele>1863.0</ele>
        <time>2018-09-16T13:05:57Z</time>
      </trkpt>
      <trkpt lat="40.302583" lon="-4.867867">
        <ele>1863.0</ele>
        <time>2018-09-16T13:05:58Z</time>
      </trkpt>
      <trkpt lat="40.302567" lon="-4.867983">
        <ele>1864.0</ele>
        <time>2018-09-16T13:05:59Z</time>
      </trkpt>
      <trkpt lat="40.302583" lon="-4.868083">
        <ele>1864.0</ele>
        <time>2018-09-16T13:06:00Z</time>
      </trkpt>
      <trkpt lat="40.302650" lon="-4.868167">
        <ele>1865.0</ele>
        <time>2018-09-16T13:06:01Z</time>
      </trkpt>
      <trkpt lat="40.302733" lon="-4.868200">
        <ele>1865.0</ele>
        <time>2018-09-16T13:06:02Z</time>
      </trkpt>
      <trkpt lat="40.302833" lon="-4.868183">
        <ele>1865.0</ele>
        <time>2018-09-16T13:06:03Z</time>
      </trkpt>
      <trkpt lat="40.302917" lon="-4.868100">
        <ele>1865.0</ele>
        <time>2018-09-16T13:06:04Z</time>
      </trkpt>
      <trkpt lat="40.302967" lon="-4.867950">
        <ele>1865.0</ele>
        <time>2018-09-16T13:06:05Z</time>
      </trkpt>
      <trkpt lat="40.302967" lon="-4.867817">
        <ele>1866.0</ele>
        <time>2018-09-16T13:06:06Z</time>
      </trkpt>
      <trkpt lat="40.302933" lon="-4.867717">
        <ele>1867.0</ele>
        <time>2018-09-16T13:06:07Z</time>
      </trkpt>
      <trkpt lat="40.302900" lon="-4.867650">
        <ele>1868.0</ele>
        <time>2018-09-16T13:06:08Z</time>
      </trkpt>
      <trkpt lat="40.302850" lon="-4.867583">
        <ele>1868.0</ele>
        <time>2018-09-16T13:06:09Z</time>
      </trkpt>
      <trkpt lat="40.302800" lon="-4.867533">
        <ele>1868.0</ele>
        <time>2018-09-16T13:06:10Z</time>
      </trkpt>
      <trkpt lat="40.302717" lon="-4.867533">
        <ele>1868.0</ele>
        <time>2018-09-16T13:06:11Z</time>
      </trkpt>
      <trkpt lat="40.302633" lon="-4.867550">
        <ele>1869.0</ele>
        <time>2018-09-16T13:06:12Z</time>
      </trkpt>
      <trkpt lat="40.302550" lon="-4.867617">
        <ele>1869.0</ele>
        <time>2018-09-16T13:06:13Z</time>
      </trkpt>
      <trkpt lat="40.302517" lon="-4.867733">
        <ele>1870.0</ele>
        <time>2018-09-16T13:06:14Z</time>
      </trkpt>
      <trkpt lat="40.302533" lon="-4.867850">
        <ele>1870.0</ele>
        <time>2018-09-16T13:06:15Z</time>
      </trkpt>
      <trkpt lat="40.302617" lon="-4.867950">
        <ele>1871.0</ele>
        <time>2018-09-16T13:06:16Z</time>
      </trkpt>
      <trkpt lat="40.302717" lon="-4.867983">
        <ele>1873.0</ele>
        <time>2018-09-16T13:06:17Z</time>
      </trkpt>
      <trkpt lat="40.302800" lon="-4.867950">
        <ele>1874.0</ele>
        <time>2018-09-16T13:06:18Z</time>
      </trkpt>
      <trkpt lat="40.302883" lon="-4.867933">
        <ele>1875.0</ele>
        <time>2018-09-16T13:06:19Z</time>
      </trkpt>
      <trkpt lat="40.302950" lon="-4.867917">
        <ele>1877.0</ele>
        <time>2018-09-16T13:06:20Z</time>
      </trkpt>
      <trkpt lat="40.303017" lon="-4.867917">
        <ele>1880.0</ele>
        <time>2018-09-16T13:06:21Z</time>
      </trkpt>
      <trkpt lat="40.303117" lon="-4.867900">
        <ele>1878.0</ele>
        <time>2018-09-16T13:06:22Z</time>
      </trkpt>
      <trkpt lat="40.303200" lon="-4.867867">
        <ele>1879.0</ele>
        <time>2018-09-16T13:06:23Z</time>
      </trkpt>
      <trkpt lat="40.303267" lon="-4.867767">
        <ele>1880.0</ele>
        <time>2018-09-16T13:06:24Z</time>
      </trkpt>
      <trkpt lat="40.303300" lon="-4.867650">
        <ele>1881.0</ele>
        <time>2018-09-16T13:06:25Z</time>
      </trkpt>
      <trkpt lat="40.303267" lon="-4.867550">
        <ele>1881.0</ele>
        <time>2018-09-16T13:06:26Z</time>
      </trkpt>
      <trkpt lat="40.303200" lon="-4.867483">
        <ele>1882.0</ele>
        <time>2018-09-16T13:06:27Z</time>
      </trkpt>
      <trkpt lat="40.303117" lon="-4.867483">
        <ele>1882.0</ele>
        <time>2018-09-16T13:06:28Z</time>
      </trkpt>
      <trkpt lat="40.303033" lon="-4.867533">
        <ele>1883.0</ele>
        <time>2018-09-16T13:06:29Z</time>
      </trkpt>
      <trkpt lat="40.302950" lon="-4.867617">
        <ele>1883.0</ele>
        <time>2018-09-16T13:06:30Z</time>
      </trkpt>
      <trkpt lat="40.302917" lon="-4.867750">
        <ele>1884.0</ele>
        <time>2018-09-16T13:06:31Z</time>
      </trkpt>
      <trkpt lat="40.302933" lon="-4.867883">
        <ele>1885.0</ele>
        <time>2018-09-16T13:06:32Z</time>
      </trkpt>
      <trkpt lat="40.302983" lon="-4.867983">
        <ele>1886.0</ele>
        <time>2018-09-16T13:06:33Z</time>
      </trkpt>
      <trkpt lat="40.303050" lon="-4.868067">
        <ele>1887.0</ele>
        <time>2018-09-16T13:06:34Z</time>
      </trkpt>
      <trkpt lat="40.303150" lon="-4.868117">
        <ele>1888.0</ele>
        <time>2018-09-16T13:06:35Z</time>
      </trkpt>
      <trkpt lat="40.303250" lon="-4.868117">
        <ele>1890.0</ele>
        <time>2018-09-16T13:06:36Z</time>
      </trkpt>
      <trkpt lat="40.303333" lon="-4.868100">
        <ele>1892.0</ele>
        <time>2018-09-16T13:06:37Z</time>
      </trkpt>
      <trkpt lat="40.303400" lon="-4.868033">
        <ele>1894.0</ele>
        <time>2018-09-16T13:06:38Z</time>
      </trkpt>
      <trkpt lat="40.303450" lon="-4.867950">
        <ele>1891.0</ele>
        <time>2018-09-16T13:06:39Z</time>
      </trkpt>
      <trkpt lat="40.303483" lon="-4.867850">
        <ele>1892.0</ele>
        <time>2018-09-16T13:06:40Z</time>
      </trkpt>
      <trkpt lat="40.303450" lon="-4.867767">
        <ele>1893.0</ele>
        <time>2018-09-16T13:06:41Z</time>
      </trkpt>
      <trkpt lat="40.303400" lon="-4.867717">
        <ele>1893.0</ele>
        <time>2018-09-16T13:06:42Z</time>
      </trkpt>
      <trkpt lat="40.303317" lon="-4.867733">
        <ele>1894.0</ele>
        <time>2018-09-16T13:06:43Z</time>
      </trkpt>
      <trkpt lat="40.303250" lon="-4.867800">
        <ele>1894.0</ele>
        <time>2018-09-16T13:06:44Z</time>
      </trkpt>
      <trkpt lat="40.303200" lon="-4.867917">
        <ele>1894.0</ele>
        <time>2018-09-16T13:06:45Z</time>
      </trkpt>
      <trkpt lat="40.303200" lon="-4.868067">
        <ele>1893.0</ele>
        <time>2018-09-16T13:06:46Z</time>
      </trkpt>
      <trkpt lat="40.303250" lon="-4.868183">
        <ele>1894.0</ele>
        <time>2018-09-16T13:06:47Z</time>
      </trkpt>
      <trkpt lat="40.303317" lon="-4.868300">
        <ele>1895.0</ele>
        <time>2018-09-16T13:06:48Z</time>
      </trkpt>
      <trkpt lat="40.303383" lon="-4.868400">
        <ele>1897.0</ele>
        <time>2018-09-16T13:06:49Z</time>
      </trkpt>
      <trkpt lat="40.303417" lon="-4.868483">
        <ele>1900.0</ele>
        <time>2018-09-16T13:06:50Z</time>
      </trkpt>
      <trkpt lat="40.303467" lon="-4.868583">
        <ele>1904.0</ele>
        <time>2018-09-16T13:06:51Z</time>
      </trkpt>
      <trkpt lat="40.303483" lon="-4.868683">
        <ele>1907.0</ele>
        <time>2018-09-16T13:06:52Z</time>
      </trkpt>
      <trkpt lat="40.303533" lon="-4.868800">
        <ele>1909.0</ele>
        <time>2018-09-16T13:06:53Z</time>
      </trkpt>
      <trkpt lat="40.303550" lon="-4.868917">
        <ele>1912.0</ele>
        <time>2018-09-16T13:06:54Z</time>
      </trkpt>
      <trkpt lat="40.303550" lon="-4.869017">
        <ele>1914.0</ele>
        <time>2018-09-16T13:06:55Z</time>
      </trkpt>
      <trkpt lat="40.303517" lon="-4.869117">
        <ele>1916.0</ele>
        <time>2018-09-16T13:06:56Z</time>
      </trkpt>
      <trkpt lat="40.303450" lon="-4.869217">
        <ele>1916.0</ele>
        <time>2018-09-16T13:06:57Z</time>
      </trkpt>
      <trkpt lat="40.303367" lon="-4.869267">
        <ele>1918.0</ele>
        <time>2018-09-16T13:06:58Z</time>
      </trkpt>
      <trkpt lat="40.303283" lon="-4.869283">
        <ele>1920.0</ele>
        <time>2018-09-16T13:06:59Z</time>
      </trkpt>
      <trkpt lat="40.303200" lon="-4.869267">
        <ele>1922.0</ele>
        <time>2018-09-16T13:07:00Z</time>
      </trkpt>
      <trkpt lat="40.303133" lon="-4.869200">
        <ele>1924.0</ele>
        <time>2018-09-16T13:07:01Z</time>
      </trkpt>
      <trkpt lat="40.303083" lon="-4.869100">
        <ele>1925.0</ele>
        <time>2018-09-16T13:07:02Z</time>
      </trkpt>
      <trkpt lat="40.303083" lon="-4.868983">
        <ele>1926.0</ele>
        <time>2018-09-16T13:07:03Z</time>
      </trkpt>
      <trkpt lat="40.303100" lon="-4.868867">
        <ele>1926.0</ele>
        <time>2018-09-16T13:07:04Z</time>
      </trkpt>
      <trkpt lat="40.303167" lon="-4.868767">
        <ele>1927.0</ele>
        <time>2018-09-16T13:07:05Z</time>
      </trkpt>
      <trkpt lat="40.303250" lon="-4.868700">
        <ele>1928.0</ele>
        <time>2018-09-16T13:07:06Z</time>
      </trkpt>
      <trkpt lat="40.303317" lon="-4.868650">
        <ele>1929.0</ele>
        <time>2018-09-16T13:07:07Z</time>
      </trkpt>
      <trkpt lat="40.303400" lon="-4.868600">
        <ele>1931.0</ele>
        <time>2018-09-16T13:07:08Z</time>
      </trkpt>
      <trkpt lat="40.303467" lon="-4.868567">
        <ele>1933.0</ele>
        <time>2018-09-16T13:07:09Z</time>
      </trkpt>
      <trkpt lat="40.303567" lon="-4.868550">
        <ele>1934.0</ele>
        <time>2018-09-16T13:07:10Z</time>
      </trkpt>
      <trkpt lat="40.303667" lon="-4.868583">
        <ele>1935.0</ele>
        <time>2018-09-16T13:07:11Z</time>
      </trkpt>
      <trkpt lat="40.303750" lon="-4.868650">
        <ele>1935.0</ele>
        <time>2018-09-16T13:07:12Z</time>
      </trkpt>
      <trkpt lat="40.303817" lon="-4.868750">
        <ele>1936.0</ele>
        <time>2018-09-16T13:07:13Z</time>
      </trkpt>
      <trkpt lat="40.303867" lon="-4.868867">
        <ele>1936.0</ele>
        <time>2018-09-16T13:07:14Z</time>
      </trkpt>
      <trkpt lat="40.303917" lon="-4.868983">
        <ele>1937.0</ele>
        <time>2018-09-16T13:07:15Z</time>
      </trkpt>
      <trkpt lat="40.303933" lon="-4.869100">
        <ele>1938.0</ele>
        <time>2018-09-16T13:07:16Z</time>
      </trkpt>
      <trkpt lat="40.303950" lon="-4.869217">
        <ele>1940.0</ele>
        <time>2018-09-16T13:07:17Z</time>
      </trkpt>
      <trkpt lat="40.303933" lon="-4.869317">
        <ele>1942.0</ele>
        <time>2018-09-16T13:07:18Z</time>
      </trkpt>
      <trkpt lat="40.303917" lon="-4.869417">
        <ele>1945.0</ele>
        <time>2018-09-16T13:07:19Z</time>
      </trkpt>
      <trkpt lat="40.303917" lon="-4.869533">
        <ele>1948.0</ele>
        <time>2018-09-16T13:07:20Z</time>
      </trkpt>
      <trkpt lat="40.303933" lon="-4.869650">
        <ele>1950.0</ele>
        <time>2018-09-16T13:07:21Z</time>
      </trkpt>
      <trkpt lat="40.303950" lon="-4.869767">
        <ele>1952.0</ele>
        <time>2018-09-16T13:07:22Z</time>
      </trkpt>
      <trkpt lat="40.303983" lon="-4.869900">
        <ele>1954.0</ele>
        <time>2018-09-16T13:07:23Z</time>
      </trkpt>
      <trkpt lat="40.304000" lon="-4.870000">
        <ele>1957.0</ele>
        <time>2018-09-16T13:07:24Z</time>
      </trkpt>
      <trkpt lat="40.304033" lon="-4.870100">
        <ele>1960.0</ele>
        <time>2018-09-16T13:07:25Z</time>
      </trkpt>
      <trkpt lat="40.304067" lon="-4.870200">
        <ele>1963.0</ele>
        <time>2018-09-16T13:07:26Z</time>
      </trkpt>
      <trkpt lat="40.304100" lon="-4.870300">
        <ele>1965.0</ele>
        <time>2018-09-16T13:07:27Z</time>
      </trkpt>
      <trkpt lat="40.304117" lon="-4.870417">
        <ele>1967.0</ele>
        <time>2018-09-16T13:07:28Z</time>
      </trkpt>
      <trkpt lat="40.304100" lon="-4.870533">
        <ele>1968.0</ele>
        <time>2018-09-16T13:07:29Z</time>
      </trkpt>
      <trkpt lat="40.304033" lon="-4.870617">
        <ele>1969.0</ele>
        <time>2018-09-16T13:07:30Z</time>
      </trkpt>
      <trkpt lat="40.303950" lon="-4.870650">
        <ele>1970.0</ele>
        <time>2018-09-16T13:07:31Z</time>
      </trkpt>
      <trkpt lat="40.303850" lon="-4.870633">
        <ele>1972.0</ele>
        <time>2018-09-16T13:07:32Z</time>
      </trkpt>
      <trkpt lat="40.303783" lon="-4.870600">
        <ele>1975.0</ele>
        <time>2018-09-16T13:07:33Z</time>
      </trkpt>
      <trkpt lat="40.303750" lon="-4.870550">
        <ele>1978.0</ele>
        <time>2018-09-16T13:07:34Z</time>
      </trkpt>
      <trkpt lat="40.303733" lon="-4.870483">
        <ele>1981.0</ele>
        <time>2018-09-16T13:07:35Z</time>
      </trkpt>
      <trkpt lat="40.303733" lon="-4.870400">
        <ele>1983.0</ele>
        <time>2018-09-16T13:07:36Z</time>
      </trkpt>
      <trkpt lat="40.303767" lon="-4.870333">
        <ele>1985.0</ele>
        <time>2018-09-16T13:07:37Z</time>
      </trkpt>
      <trkpt lat="40.303800" lon="-4.870250">
        <ele>1986.0</ele>
        <time>2018-09-16T13:07:38Z</time>
      </trkpt>
      <trkpt lat="40.303867" lon="-4.870200">
        <ele>1988.0</ele>
        <time>2018-09-16T13:07:39Z</time>
      </trkpt>
      <trkpt lat="40.303967" lon="-4.870167">
        <ele>1991.0</ele>
        <time>2018-09-16T13:07:40Z</time>
      </trkpt>
      <trkpt lat="40.304050" lon="-4.870200">
        <ele>1993.0</ele>
        <time>2018-09-16T13:07:41Z</time>
      </trkpt>
      <trkpt lat="40.304117" lon="-4.870283">
        <ele>1996.0</ele>
        <time>2018-09-16T13:07:42Z</time>
      </trkpt>
      <trkpt lat="40.304183" lon="-4.870383">
        <ele>1998.0</ele>
        <time>2018-09-16T13:07:43Z</time>
      </trkpt>
      <trkpt lat="40.304217" lon="-4.870500">
        <ele>2001.0</ele>
        <time>2018-09-16T13:07:44Z</time>
      </trkpt>
      <trkpt lat="40.304217" lon="-4.870633">
        <ele>2004.0</ele>
        <time>2018-09-16T13:07:45Z</time>
      </trkpt>
      <trkpt lat="40.304200" lon="-4.870767">
        <ele>2007.0</ele>
        <time>2018-09-16T13:07:46Z</time>
      </trkpt>
      <trkpt lat="40.304150" lon="-4.870883">
        <ele>2010.0</ele>
        <time>2018-09-16T13:07:47Z</time>
      </trkpt>
      <trkpt lat="40.304083" lon="-4.870950">
        <ele>2015.0</ele>
        <time>2018-09-16T13:07:48Z</time>
      </trkpt>
      <trkpt lat="40.304017" lon="-4.870983">
        <ele>2020.0</ele>
        <time>2018-09-16T13:07:49Z</time>
      </trkpt>
      <trkpt lat="40.303950" lon="-4.870983">
        <ele>2025.0</ele>
        <time>2018-09-16T13:07:50Z</time>
      </trkpt>
      <trkpt lat="40.303900" lon="-4.870950">
        <ele>2028.0</ele>
        <time>2018-09-16T13:07:51Z</time>
      </trkpt>
      <trkpt lat="40.303850" lon="-4.870900">
        <ele>2030.0</ele>
        <time>2018-09-16T13:07:52Z</time>
      </trkpt>
      <trkpt lat="40.303817" lon="-4.870817">
        <ele>2033.0</ele>
        <time>2018-09-16T13:07:53Z</time>
      </trkpt>
      <trkpt lat="40.303800" lon="-4.870733">
        <ele>2034.0</ele>
        <time>2018-09-16T13:07:54Z</time>
      </trkpt>
      <trkpt lat="40.303833" lon="-4.870633">
        <ele>2035.0</ele>
        <time>2018-09-16T13:07:55Z</time>
      </trkpt>
      <trkpt lat="40.303900" lon="-4.870550">
        <ele>2035.0</ele>
        <time>2018-09-16T13:07:56Z</time>
      </trkpt>
      <trkpt lat="40.303983" lon="-4.870500">
        <ele>2037.0</ele>
        <time>2018-09-16T13:07:57Z</time>
      </trkpt>
      <trkpt lat="40.304067" lon="-4.870500">
        <ele>2039.0</ele>
        <time>2018-09-16T13:07:58Z</time>
      </trkpt>
      <trkpt lat="40.304150" lon="-4.870533">
        <ele>2041.0</ele>
        <time>2018-09-16T13:07:59Z</time>
      </trkpt>
      <trkpt lat="40.304233" lon="-4.870583">
        <ele>2044.0</ele>
        <time>2018-09-16T13:08:00Z</time>
      </trkpt>
      <trkpt lat="40.304300" lon="-4.870633">
        <ele>2049.0</ele>
        <time>2018-09-16T13:08:01Z</time>
      </trkpt>
      <trkpt lat="40.304367" lon="-4.870683">
        <ele>2053.0</ele>
        <time>2018-09-16T13:08:02Z</time>
      </trkpt>
      <trkpt lat="40.304450" lon="-4.870733">
        <ele>2057.0</ele>
        <time>2018-09-16T13:08:03Z</time>
      </trkpt>
      <trkpt lat="40.304533" lon="-4.870817">
        <ele>2060.0</ele>
        <time>2018-09-16T13:08:04Z</time>
      </trkpt>
      <trkpt lat="40.304600" lon="-4.870900">
        <ele>2062.0</ele>
        <time>2018-09-16T13:08:05Z</time>
      </trkpt>
      <trkpt lat="40.304667" lon="-4.871017">
        <ele>2066.0</ele>
        <time>2018-09-16T13:08:06Z</time>
      </trkpt>
      <trkpt lat="40.304700" lon="-4.871133">
        <ele>2069.0</ele>
        <time>2018-09-16T13:08:07Z</time>
      </trkpt>
      <trkpt lat="40.304700" lon="-4.871250">
        <ele>2071.0</ele>
        <time>2018-09-16T13:08:08Z</time>
      </trkpt>
      <trkpt lat="40.304683" lon="-4.871350">
        <ele>2073.0</ele>
        <time>2018-09-16T13:08:09Z</time>
      </trkpt>
      <trkpt lat="40.304633" lon="-4.871417">
        <ele>2077.0</ele>
        <time>2018-09-16T13:08:10Z</time>
      </trkpt>
      <trkpt lat="40.304567" lon="-4.871450">
        <ele>2080.0</ele>
        <time>2018-09-16T13:08:11Z</time>
      </trkpt>
      <trkpt lat="40.304483" lon="-4.871450">
        <ele>2082.0</ele>
        <time>2018-09-16T13:08:12Z</time>
      </trkpt>
      <trkpt lat="40.304417" lon="-4.871383">
        <ele>2084.0</ele>
        <time>2018-09-16T13:08:13Z</time>
      </trkpt>
      <trkpt lat="40.304383" lon="-4.871283">
        <ele>2086.0</ele>
        <time>2018-09-16T13:08:14Z</time>
      </trkpt>
      <trkpt lat="40.304400" lon="-4.871167">
        <ele>2089.0</ele>
        <time>2018-09-16T13:08:15Z</time>
      </trkpt>
      <trkpt lat="40.304450" lon="-4.871050">
        <ele>2091.0</ele>
        <time>2018-09-16T13:08:16Z</time>
      </trkpt>
      <trkpt lat="40.304517" lon="-4.870983">
        <ele>2094.0</ele>
        <time>2018-09-16T13:08:17Z</time>
      </trkpt>
      <trkpt lat="40.304617" lon="-4.870967">
        <ele>2100.0</ele>
        <time>2018-09-16T13:08:18Z</time>
      </trkpt>
      <trkpt lat="40.304700" lon="-4.870983">
        <ele>2104.0</ele>
        <time>2018-09-16T13:08:19Z</time>
      </trkpt>
      <trkpt lat="40.304783" lon="-4.871033">
        <ele>2108.0</ele>
        <time>2018-09-16T13:08:20Z</time>
      </trkpt>
      <trkpt lat="40.304867" lon="-4.871100">
        <ele>2111.0</ele>
        <time>2018-09-16T13:08:21Z</time>
      </trkpt>
      <trkpt lat="40.304933" lon="-4.871183">
        <ele>2114.0</ele>
        <time>2018-09-16T13:08:22Z</time>
      </trkpt>
      <trkpt lat="40.304983" lon="-4.871283">
        <ele>2116.0</ele>
        <time>2018-09-16T13:08:23Z</time>
      </trkpt>
      <trkpt lat="40.305017" lon="-4.871400">
        <ele>2117.0</ele>
        <time>2018-09-16T13:08:24Z</time>
      </trkpt>
      <trkpt lat="40.305000" lon="-4.871550">
        <ele>2119.0</ele>
        <time>2018-09-16T13:08:25Z</time>
      </trkpt>
      <trkpt lat="40.304933" lon="-4.871683">
        <ele>2120.0</ele>
        <time>2018-09-16T13:08:26Z</time>
      </trkpt>
      <trkpt lat="40.304867" lon="-4.871783">
        <ele>2123.0</ele>
        <time>2018-09-16T13:08:27Z</time>
      </trkpt>
      <trkpt lat="40.304767" lon="-4.871850">
        <ele>2125.0</ele>
        <time>2018-09-16T13:08:28Z</time>
      </trkpt>
      <trkpt lat="40.304700" lon="-4.871867">
        <ele>2129.0</ele>
        <time>2018-09-16T13:08:29Z</time>
      </trkpt>
      <trkpt lat="40.304650" lon="-4.871867">
        <ele>2133.0</ele>
        <time>2018-09-16T13:08:30Z</time>
      </trkpt>
      <trkpt lat="40.304600" lon="-4.871867">
        <ele>2131.0</ele>
        <time>2018-09-16T13:08:31Z</time>
      </trkpt>
      <trkpt lat="40.304550" lon="-4.871900">
        <ele>2130.0</ele>
        <time>2018-09-16T13:08:32Z</time>
      </trkpt>
      <trkpt lat="40.304517" lon="-4.871983">
        <ele>2130.0</ele>
        <time>2018-09-16T13:08:33Z</time>
      </trkpt>
      <trkpt lat="40.304467" lon="-4.872100">
        <ele>2131.0</ele>
        <time>2018-09-16T13:08:34Z</time>
      </trkpt>
      <trkpt lat="40.304450" lon="-4.872217">
        <ele>2131.0</ele>
        <time>2018-09-16T13:08:35Z</time>
      </trkpt>
      <trkpt lat="40.304467" lon="-4.872333">
        <ele>2132.0</ele>
        <time>2018-09-16T13:08:36Z</time>
      </trkpt>
      <trkpt lat="40.304533" lon="-4.872417">
        <ele>2132.0</ele>
        <time>2018-09-16T13:08:37Z</time>
      </trkpt>
      <trkpt lat="40.304633" lon="-4.872483">
        <ele>2132.0</ele>
        <time>2018-09-16T13:08:38Z</time>
      </trkpt>
      <trkpt lat="40.304767" lon="-4.872517">
        <ele>2132.0</ele>
        <time>2018-09-16T13:08:39Z</time>
      </trkpt>
      <trkpt lat="40.304883" lon="-4.872500">
        <ele>2132.0</ele>
        <time>2018-09-16T13:08:40Z</time>
      </trkpt>
      <trkpt lat="40.304983" lon="-4.872467">
        <ele>2132.0</ele>
        <time>2018-09-16T13:08:41Z</time>
      </trkpt>
      <trkpt lat="40.305083" lon="-4.872417">
        <ele>2132.0</ele>
        <time>2018-09-16T13:08:42Z</time>
      </trkpt>
      <trkpt lat="40.305167" lon="-4.872367">
        <ele>2134.0</ele>
        <time>2018-09-16T13:08:43Z</time>
      </trkpt>
      <trkpt lat="40.305267" lon="-4.872350">
        <ele>2135.0</ele>
        <time>2018-09-16T13:08:44Z</time>
      </trkpt>
      <trkpt lat="40.305367" lon="-4.872350">
        <ele>2138.0</ele>
        <time>2018-09-16T13:08:45Z</time>
      </trkpt>
      <trkpt lat="40.305467" lon="-4.872350">
        <ele>2139.0</ele>
        <time>2018-09-16T13:08:46Z</time>
      </trkpt>
      <trkpt lat="40.305567" lon="-4.872367">
        <ele>2141.0</ele>
        <time>2018-09-16T13:08:47Z</time>
      </trkpt>
      <trkpt lat="40.305683" lon="-4.872383">
        <ele>2143.0</ele>
        <time>2018-09-16T13:08:48Z</time>
      </trkpt>
      <trkpt lat="40.305783" lon="-4.872400">
        <ele>2146.0</ele>
        <time>2018-09-16T13:08:49Z</time>
      </trkpt>
      <trkpt lat="40.305850" lon="-4.872417">
        <ele>2151.0</ele>
        <time>2018-09-16T13:08:50Z</time>
      </trkpt>
      <trkpt lat="40.305917" lon="-4.872433">
        <ele>2150.0</ele>
        <time>2018-09-16T13:08:51Z</time>
      </trkpt>
      <trkpt lat="40.305983" lon="-4.872450">
        <ele>2148.0</ele>
        <time>2018-09-16T13:08:52Z</time>
      </trkpt>
      <trkpt lat="40.306083" lon="-4.872450">
        <ele>2148.0</ele>
        <time>2018-09-16T13:08:53Z</time>
      </trkpt>
      <trkpt lat="40.306183" lon="-4.872400">
        <ele>2149.0</ele>
        <time>2018-09-16T13:08:54Z</time>
      </trkpt>
      <trkpt lat="40.306267" lon="-4.872317">
        <ele>2149.0</ele>
        <time>2018-09-16T13:08:55Z</time>
      </trkpt>
      <trkpt lat="40.306300" lon="-4.872217">
        <ele>2149.0</ele>
        <time>2018-09-16T13:08:56Z</time>
      </trkpt>
      <trkpt lat="40.306317" lon="-4.872100">
        <ele>2150.0</ele>
        <time>2018-09-16T13:08:57Z</time>
      </trkpt>
      <trkpt lat="40.306300" lon="-4.872017">
        <ele>2151.0</ele>
        <time>2018-09-16T13:08:58Z</time>
      </trkpt>
      <trkpt lat="40.306250" lon="-4.871983">
        <ele>2153.0</ele>
        <time>2018-09-16T13:08:59Z</time>
      </trkpt>
      <trkpt lat="40.306200" lon="-4.872017">
        <ele>2152.0</ele>
        <time>2018-09-16T13:09:00Z</time>
      </trkpt>
      <trkpt lat="40.306150" lon="-4.872050">
        <ele>2152.0</ele>
        <time>2018-09-16T13:09:01Z</time>
      </trkpt>
      <trkpt lat="40.306083" lon="-4.872117">
        <ele>2153.0</ele>
        <time>2018-09-16T13:09:02Z</time>
      </trkpt>
      <trkpt lat="40.306033" lon="-4.872183">
        <ele>2154.0</ele>
        <time>2018-09-16T13:09:03Z</time>
      </trkpt>
      <trkpt lat="40.306017" lon="-4.872317">
        <ele>2155.0</ele>
        <time>2018-09-16T13:09:04Z</time>
      </trkpt>
      <trkpt lat="40.306000" lon="-4.872450">
        <ele>2156.0</ele>
        <time>2018-09-16T13:09:05Z</time>
      </trkpt>
      <trkpt lat="40.306017" lon="-4.872617">
        <ele>2157.0</ele>
        <time>2018-09-16T13:09:06Z</time>
      </trkpt>
      <trkpt lat="40.306067" lon="-4.872750">
        <ele>2158.0</ele>
        <time>2018-09-16T13:09:07Z</time>
      </trkpt>
      <trkpt lat="40.306117" lon="-4.872867">
        <ele>2159.0</ele>
        <time>2018-09-16T13:09:08Z</time>
      </trkpt>
      <trkpt lat="40.306200" lon="-4.872933">
        <ele>2161.0</ele>
        <time>2018-09-16T13:09:09Z</time>
      </trkpt>
      <trkpt lat="40.306300" lon="-4.872950">
        <ele>2162.0</ele>
        <time>2018-09-16T13:09:10Z</time>
      </trkpt>
      <trkpt lat="40.306383" lon="-4.872917">
        <ele>2164.0</ele>
        <time>2018-09-16T13:09:11Z</time>
      </trkpt>
      <trkpt lat="40.306483" lon="-4.872850">
        <ele>2165.0</ele>
        <time>2018-09-16T13:09:12Z</time>
      </trkpt>
      <trkpt lat="40.306550" lon="-4.872767">
        <ele>2168.0</ele>
        <time>2018-09-16T13:09:13Z</time>
      </trkpt>
      <trkpt lat="40.306617" lon="-4.872667">
        <ele>2168.0</ele>
        <time>2018-09-16T13:09:14Z</time>
      </trkpt>
      <trkpt lat="40.306650" lon="-4.872567">
        <ele>2170.0</ele>
        <time>2018-09-16T13:09:15Z</time>
      </trkpt>
      <trkpt lat="40.306617" lon="-4.872483">
        <ele>2171.0</ele>
        <time>2018-09-16T13:09:16Z</time>
      </trkpt>
      <trkpt lat="40.306567" lon="-4.872433">
        <ele>2172.0</ele>
        <time>2018-09-16T13:09:17Z</time>
      </trkpt>
      <trkpt lat="40.306483" lon="-4.872433">
        <ele>2173.0</ele>
        <time>2018-09-16T13:09:18Z</time>
      </trkpt>
      <trkpt lat="40.306433" lon="-4.872500">
        <ele>2174.0</ele>
        <time>2018-09-16T13:09:19Z</time>
      </trkpt>
      <trkpt lat="40.306383" lon="-4.872617">
        <ele>2175.0</ele>
        <time>2018-09-16T13:09:20Z</time>
      </trkpt>
      <trkpt lat="40.306333" lon="-4.872733">
        <ele>2176.0</ele>
        <time>2018-09-16T13:09:21Z</time>
      </trkpt>
      <trkpt lat="40.306317" lon="-4.872850">
        <ele>2179.0</ele>
        <time>2018-09-16T13:09:22Z</time>
      </trkpt>
      <trkpt lat="40.306333" lon="-4.872967">
        <ele>2182.0</ele>
        <time>2018-09-16T13:09:23Z</time>
      </trkpt>
      <trkpt lat="40.306383" lon="-4.873083">
        <ele>2183.0</ele>
        <time>2018-09-16T13:09:24Z</time>
      </trkpt>
      <trkpt lat="40.306467" lon="-4.873183">
        <ele>2185.0</ele>
        <time>2018-09-16T13:09:25Z</time>
      </trkpt>
      <trkpt lat="40.306550" lon="-4.873250">
        <ele>2187.0</ele>
        <time>2018-09-16T13:09:26Z</time>
      </trkpt>
      <trkpt lat="40.306650" lon="-4.873267">
        <ele>2191.0</ele>
        <time>2018-09-16T13:09:27Z</time>
      </trkpt>
      <trkpt lat="40.306750" lon="-4.873250">
        <ele>2195.0</ele>
        <time>2018-09-16T13:09:28Z</time>
      </trkpt>
      <trkpt lat="40.306850" lon="-4.873200">
        <ele>2197.0</ele>
        <time>2018-09-16T13:09:29Z</time>
      </trkpt>
      <trkpt lat="40.306933" lon="-4.873117">
        <ele>2201.0</ele>
        <time>2018-09-16T13:09:30Z</time>
      </trkpt>
      <trkpt lat="40.307000" lon="-4.873017">
        <ele>2204.0</ele>
        <time>2018-09-16T13:09:31Z</time>
      </trkpt>
      <trkpt lat="40.307033" lon="-4.872917">
        <ele>2207.0</ele>
        <time>2018-09-16T13:09:32Z</time>
      </trkpt>
      <trkpt lat="40.307050" lon="-4.872800">
        <ele>2210.0</ele>
        <time>2018-09-16T13:09:33Z</time>
      </trkpt>
      <trkpt lat="40.307000" lon="-4.872700">
        <ele>2214.0</ele>
        <time>2018-09-16T13:09:34Z</time>
      </trkpt>
      <trkpt lat="40.306950" lon="-4.872633">
        <ele>2206.0</ele>
        <time>2018-09-16T13:09:35Z</time>
      </trkpt>
      <trkpt lat="40.306883" lon="-4.872633">
        <ele>2207.0</ele>
        <time>2018-09-16T13:09:36Z</time>
      </trkpt>
      <trkpt lat="40.306817" lon="-4.872667">
        <ele>2208.0</ele>
        <time>2018-09-16T13:09:37Z</time>
      </trkpt>
      <trkpt lat="40.306767" lon="-4.872783">
        <ele>2210.0</ele>
        <time>2018-09-16T13:09:38Z</time>
      </trkpt>
      <trkpt lat="40.306733" lon="-4.872883">
        <ele>2212.0</ele>
        <time>2018-09-16T13:09:39Z</time>
      </trkpt>
      <trkpt lat="40.306750" lon="-4.873000">
        <ele>2214.0</ele>
        <time>2018-09-16T13:09:40Z</time>
      </trkpt>
      <trkpt lat="40.306783" lon="-4.873133">
        <ele>2215.0</ele>
        <time>2018-09-16T13:09:41Z</time>
      </trkpt>
      <trkpt lat="40.306850" lon="-4.873233">
        <ele>2217.0</ele>
        <time>2018-09-16T13:09:42Z</time>
      </trkpt>
      <trkpt lat="40.306933" lon="-4.873300">
        <ele>2219.0</ele>
        <time>2018-09-16T13:09:43Z</time>
      </trkpt>
      <trkpt lat="40.307050" lon="-4.873333">
        <ele>2221.0</ele>
        <time>2018-09-16T13:09:44Z</time>
      </trkpt>
      <trkpt lat="40.307167" lon="-4.873317">
        <ele>2223.0</ele>
        <time>2018-09-16T13:09:45Z</time>
      </trkpt>
      <trkpt lat="40.307267" lon="-4.873250">
        <ele>2227.0</ele>
        <time>2018-09-16T13:09:46Z</time>
      </trkpt>
      <trkpt lat="40.307333" lon="-4.873183">
        <ele>2230.0</ele>
        <time>2018-09-16T13:09:47Z</time>
      </trkpt>
      <trkpt lat="40.307400" lon="-4.873100">
        <ele>2230.0</ele>
        <time>2018-09-16T13:09:48Z</time>
      </trkpt>
      <trkpt lat="40.307417" lon="-4.873017">
        <ele>2230.0</ele>
        <time>2018-09-16T13:09:49Z</time>
      </trkpt>
      <trkpt lat="40.307400" lon="-4.872950">
        <ele>2232.0</ele>
        <time>2018-09-16T13:09:50Z</time>
      </trkpt>
      <trkpt lat="40.307367" lon="-4.872883">
        <ele>2233.0</ele>
        <time>2018-09-16T13:09:51Z</time>
      </trkpt>
      <trkpt lat="40.307333" lon="-4.872850">
        <ele>2234.0</ele>
        <time>2018-09-16T13:09:52Z</time>
      </trkpt>
      <trkpt lat="40.307300" lon="-4.872850">
        <ele>2235.0</ele>
        <time>2018-09-16T13:09:53Z</time>
      </trkpt>
      <trkpt lat="40.307267" lon="-4.872883">
        <ele>2236.0</ele>
        <time>2018-09-16T13:09:54Z</time>
      </trkpt>
      <trkpt lat="40.307217" lon="-4.872933">
        <ele>2237.0</ele>
        <time>2018-09-16T13:09:55Z</time>
      </trkpt>
      <trkpt lat="40.307183" lon="-4.872983">
        <ele>2239.0</ele>
        <time>2018-09-16T13:09:56Z</time>
      </trkpt>
      <trkpt lat="40.307150" lon="-4.873067">
        <ele>2241.0</ele>
        <time>2018-09-16T13:09:57Z</time>
      </trkpt>
      <trkpt lat="40.307133" lon="-4.873150">
        <ele>2242.0</ele>
        <time>2018-09-16T13:09:58Z</time>
      </trkpt>
      <trkpt lat="40.307117" lon="-4.873267">
        <ele>2243.0</ele>
        <time>2018-09-16T13:09:59Z</time>
      </trkpt>
      <trkpt lat="40.307100" lon="-4.873417">
        <ele>2244.0</ele>
        <time>2018-09-16T13:10:00Z</time>
      </trkpt>
      <trkpt lat="40.307133" lon="-4.873550">
        <ele>2245.0</ele>
        <time>2018-09-16T13:10:01Z</time>
      </trkpt>
      <trkpt lat="40.307183" lon="-4.873683">
        <ele>2246.0</ele>
        <time>2018-09-16T13:10:02Z</time>
      </trkpt>
      <trkpt lat="40.307250" lon="-4.873783">
        <ele>2246.0</ele>
        <time>2018-09-16T13:10:03Z</time>
      </trkpt>
      <trkpt lat="40.307333" lon="-4.873850">
        <ele>2248.0</ele>
        <time>2018-09-16T13:10:04Z</time>
      </trkpt>
      <trkpt lat="40.307400" lon="-4.873917">
        <ele>2249.0</ele>
        <time>2018-09-16T13:10:05Z</time>
      </trkpt>
      <trkpt lat="40.307467" lon="-4.873933">
        <ele>2252.0</ele>
        <time>2018-09-16T13:10:06Z</time>
      </trkpt>
      <trkpt lat="40.307550" lon="-4.873933">
        <ele>2252.0</ele>
        <time>2018-09-16T13:10:07Z</time>
      </trkpt>
      <trkpt lat="40.307633" lon="-4.873883">
        <ele>2254.0</ele>
        <time>2018-09-16T13:10:08Z</time>
      </trkpt>
      <trkpt lat="40.307683" lon="-4.873800">
        <ele>2255.0</ele>
        <time>2018-09-16T13:10:09Z</time>
      </trkpt>
      <trkpt lat="40.307733" lon="-4.873717">
        <ele>2256.0</ele>
        <time>2018-09-16T13:10:10Z</time>
      </trkpt>
      <trkpt lat="40.307733" lon="-4.873617">
        <ele>2258.0</ele>
        <time>2018-09-16T13:10:11Z</time>
      </trkpt>
      <trkpt lat="40.307700" lon="-4.873567">
        <ele>2260.0</ele>
        <time>2018-09-16T13:10:12Z</time>
      </trkpt>
      <trkpt lat="40.307633" lon="-4.873517">
        <ele>2261.0</ele>
        <time>2018-09-16T13:10:13Z</time>
      </trkpt>
      <trkpt lat="40.307600" lon="-4.873500">
        <ele>2261.0</ele>
        <time>2018-09-16T13:10:14Z</time>
      </trkpt>
      <trkpt lat="40.307550" lon="-4.873483">
        <ele>2262.0</ele>
        <time>2018-09-16T13:10:15Z</time>
      </trkpt>
      <trkpt lat="40.307517" lon="-4.873483">
        <ele>2262.0</ele>
        <time>2018-09-16T13:10:16Z</time>
      </trkpt>
      <trkpt lat="40.307483" lon="-4.873467">
        <ele>2263.0</ele>
        <time>2018-09-16T13:10:17Z</time>
      </trkpt>
      <trkpt lat="40.307417" lon="-4.873450">
        <ele>2264.0</ele>
        <time>2018-09-16T13:10:18Z</time>
      </trkpt>
      <trkpt lat="40.307367" lon="-4.873433">
        <ele>2265.0</ele>
        <time>2018-09-16T13:10:19Z</time>
      </trkpt>
      <trkpt lat="40.307317" lon="-4.873517">
        <ele>2266.0</ele>
        <time>2018-09-16T13:10:20Z</time>
      </trkpt>
      <trkpt lat="40.307267" lon="-4.873600">
        <ele>2267.0</ele>
        <time>2018-09-16T13:10:21Z</time>
      </trkpt>
      <trkpt lat="40.307267" lon="-4.873733">
        <ele>2268.0</ele>
        <time>2018-09-16T13:10:22Z</time>
      </trkpt>
      <trkpt lat="40.307283" lon="-4.873850">
        <ele>2268.0</ele>
        <time>2018-09-16T13:10:23Z</time>
      </trkpt>
      <trkpt lat="40.307333" lon="-4.873950">
        <ele>2269.0</ele>
        <time>2018-09-16T13:10:24Z</time>
      </trkpt>
      <trkpt lat="40.307400" lon="-4.874017">
        <ele>2270.0</ele>
        <time>2018-09-16T13:10:25Z</time>
      </trkpt>
      <trkpt lat="40.307483" lon="-4.874033">
        <ele>2271.0</ele>
        <time>2018-09-16T13:10:26Z</time>
      </trkpt>
      <trkpt lat="40.307583" lon="-4.874017">
        <ele>2271.0</ele>
        <time>2018-09-16T13:10:27Z</time>
      </trkpt>
      <trkpt lat="40.307650" lon="-4.874017">
        <ele>2272.0</ele>
        <time>2018-09-16T13:10:28Z</time>
      </trkpt>
      <trkpt lat="40.307717" lon="-4.874017">
        <ele>2273.0</ele>
        <time>2018-09-16T13:10:29Z</time>
      </trkpt>
      <trkpt lat="40.307767" lon="-4.874000">
        <ele>2273.0</ele>
        <time>2018-09-16T13:10:30Z</time>
      </trkpt>
      <trkpt lat="40.307800" lon="-4.873983">
        <ele>2274.0</ele>
        <time>2018-09-16T13:10:31Z</time>
      </trkpt>
      <trkpt lat="40.307817" lon="-4.873967">
        <ele>2275.0</ele>
        <time>2018-09-16T13:10:32Z</time>
      </trkpt>
      <trkpt lat="40.307817" lon="-4.873900">
        <ele>2276.0</ele>
        <time>2018-09-16T13:10:33Z</time>
      </trkpt>
      <trkpt lat="40.307833" lon="-4.873867">
        <ele>2276.0</ele>
        <time>2018-09-16T13:10:34Z</time>
      </trkpt>
      <trkpt lat="40.307833" lon="-4.873883">
        <ele>2277.0</ele>
        <time>2018-09-16T13:10:35Z</time>
      </trkpt>
      <trkpt lat="40.307833" lon="-4.873950">
        <ele>2278.0</ele>
        <time>2018-09-16T13:10:36Z</time>
      </trkpt>
      <trkpt lat="40.307783" lon="-4.874033">
        <ele>2278.0</ele>
        <time>2018-09-16T13:10:37Z</time>
      </trkpt>
      <trkpt lat="40.307750" lon="-4.874133">
        <ele>2278.0</ele>
        <time>2018-09-16T13:10:38Z</time>
      </trkpt>
      <trkpt lat="40.307750" lon="-4.874333">
        <ele>2281.0</ele>
        <time>2018-09-16T13:10:40Z</time>
      </trkpt>
      <trkpt lat="40.307783" lon="-4.874417">
        <ele>2282.0</ele>
        <time>2018-09-16T13:10:41Z</time>
      </trkpt>
      <trkpt lat="40.307833" lon="-4.874467">
        <ele>2284.0</ele>
        <time>2018-09-16T13:10:42Z</time>
      </trkpt>
      <trkpt lat="40.307883" lon="-4.874550">
        <ele>2285.0</ele>
        <time>2018-09-16T13:10:43Z</time>
      </trkpt>
      <trkpt lat="40.307950" lon="-4.874583">
        <ele>2286.0</ele>
        <time>2018-09-16T13:10:44Z</time>
      </trkpt>
      <trkpt lat="40.308017" lon="-4.874600">
        <ele>2288.0</ele>
        <time>2018-09-16T13:10:45Z</time>
      </trkpt>
      <trkpt lat="40.308100" lon="-4.874583">
        <ele>2289.0</ele>
        <time>2018-09-16T13:10:46Z</time>
      </trkpt>
      <trkpt lat="40.308167" lon="-4.874517">
        <ele>2291.0</ele>
        <time>2018-09-16T13:10:47Z</time>
      </trkpt>
      <trkpt lat="40.308217" lon="-4.874417">
        <ele>2296.0</ele>
        <time>2018-09-16T13:10:49Z</time>
      </trkpt>
      <trkpt lat="40.308217" lon="-4.874350">
        <ele>2299.0</ele>
        <time>2018-09-16T13:10:50Z</time>
      </trkpt>
      <trkpt lat="40.308100" lon="-4.874300">
        <ele>2301.0</ele>
        <time>2018-09-16T13:10:51Z</time>
      </trkpt>
      <trkpt lat="40.308083" lon="-4.874233">
        <ele>2303.0</ele>
        <time>2018-09-16T13:10:52Z</time>
      </trkpt>
      <trkpt lat="40.308050" lon="-4.874200">
        <ele>2306.0</ele>
        <time>2018-09-16T13:10:53Z</time>
      </trkpt>
      <trkpt lat="40.308000" lon="-4.874150">
        <ele>2309.0</ele>
        <time>2018-09-16T13:10:54Z</time>
      </trkpt>
      <trkpt lat="40.307950" lon="-4.874133">
        <ele>2312.0</ele>
        <time>2018-09-16T13:10:55Z</time>
      </trkpt>
      <trkpt lat="40.307883" lon="-4.874150">
        <ele>2314.0</ele>
        <time>2018-09-16T13:10:56Z</time>
      </trkpt>
      <trkpt lat="40.307817" lon="-4.874217">
        <ele>2317.0</ele>
        <time>2018-09-16T13:10:57Z</time>
      </trkpt>
      <trkpt lat="40.307750" lon="-4.874283">
        <ele>2322.0</ele>
        <time>2018-09-16T13:10:58Z</time>
      </trkpt>
      <trkpt lat="40.307700" lon="-4.874350">
        <ele>2326.0</ele>
        <time>2018-09-16T13:10:59Z</time>
      </trkpt>
      <trkpt lat="40.307683" lon="-4.874433">
        <ele>2331.0</ele>
        <time>2018-09-16T13:11:00Z</time>
      </trkpt>
      <trkpt lat="40.307667" lon="-4.874500">
        <ele>2334.0</ele>
        <time>2018-09-16T13:11:01Z</time>
      </trkpt>
      <trkpt lat="40.307650" lon="-4.874517">
        <ele>2338.0</ele>
        <time>2018-09-16T13:11:02Z</time>
      </trkpt>
      <trkpt lat="40.307633" lon="-4.874533">
        <ele>2342.0</ele>
        <time>2018-09-16T13:11:03Z</time>
      </trkpt>
      <trkpt lat="40.307650" lon="-4.874517">
        <ele>2346.0</ele>
        <time>2018-09-16T13:11:04Z</time>
      </trkpt>
      <trkpt lat="40.307683" lon="-4.874517">
        <ele>2350.0</ele>
        <time>2018-09-16T13:11:05Z</time>
      </trkpt>
      <trkpt lat="40.307700" lon="-4.874533">
        <ele>2356.0</ele>
        <time>2018-09-16T13:11:06Z</time>
      </trkpt>
      <trkpt lat="40.307767" lon="-4.874483">
        <ele>2362.0</ele>
        <time>2018-09-16T13:11:07Z</time>
      </trkpt>
      <trkpt lat="40.307800" lon="-4.874433">
        <ele>2365.0</ele>
        <time>2018-09-16T13:11:08Z</time>
      </trkpt>
      <trkpt lat="40.307833" lon="-4.874383">
        <ele>2369.0</ele>
        <time>2018-09-16T13:11:09Z</time>
      </trkpt>
      <trkpt lat="40.307867" lon="-4.874333">
        <ele>2373.0</ele>
        <time>2018-09-16T13:11:10Z</time>
      </trkpt>
      <trkpt lat="40.307900" lon="-4.874283">
        <ele>2378.0</ele>
        <time>2018-09-16T13:11:11Z</time>
      </trkpt>
      <trkpt lat="40.307933" lon="-4.874250">
        <ele>2382.0</ele>
        <time>2018-09-16T13:11:12Z</time>
      </trkpt>
      <trkpt lat="40.307883" lon="-4.874283">
        <ele>2387.0</ele>
        <time>2018-09-16T13:11:13Z</time>
      </trkpt>
      <trkpt lat="40.307833" lon="-4.874433">
        <ele>2393.0</ele>
        <time>2018-09-16T13:11:14Z</time>
      </trkpt>
      <trkpt lat="40.307833" lon="-4.874567">
        <ele>2398.0</ele>
        <time>2018-09-16T13:11:15Z</time>
      </trkpt>
      <trkpt lat="40.307800" lon="-4.874683">
        <ele>2402.0</ele>
        <time>2018-09-16T13:11:16Z</time>
      </trkpt>
      <trkpt lat="40.307833" lon="-4.874800">
        <ele>2410.0</ele>
        <time>2018-09-16T13:11:17Z</time>
      </trkpt>
      <trkpt lat="40.307867" lon="-4.874900">
        <ele>2415.0</ele>
        <time>2018-09-16T13:11:18Z</time>
      </trkpt>
      <trkpt lat="40.307917" lon="-4.874983">
        <ele>2420.0</ele>
        <time>2018-09-16T13:11:19Z</time>
      </trkpt>
      <trkpt lat="40.308017" lon="-4.875050">
        <ele>2424.0</ele>
        <time>2018-09-16T13:11:20Z</time>
      </trkpt>
      <trkpt lat="40.308100" lon="-4.875083">
        <ele>2428.0</ele>
        <time>2018-09-16T13:11:21Z</time>
      </trkpt>
      <trkpt lat="40.308200" lon="-4.875100">
        <ele>2433.0</ele>
        <time>2018-09-16T13:11:22Z</time>
      </trkpt>
      <trkpt lat="40.308283" lon="-4.875067">
        <ele>2438.0</ele>
        <time>2018-09-16T13:11:23Z</time>
      </trkpt>
      <trkpt lat="40.308367" lon="-4.875033">
        <ele>2442.0</ele>
        <time>2018-09-16T13:11:24Z</time>
      </trkpt>
      <trkpt lat="40.308433" lon="-4.874967">
        <ele>2445.0</ele>
        <time>2018-09-16T13:11:25Z</time>
      </trkpt>
      <trkpt lat="40.308467" lon="-4.874917">
        <ele>2448.0</ele>
        <time>2018-09-16T13:11:26Z</time>
      </trkpt>
      <trkpt lat="40.308500" lon="-4.874867">
        <ele>2451.0</ele>
        <time>2018-09-16T13:11:27Z</time>
      </trkpt>
      <trkpt lat="40.308533" lon="-4.874800">
        <ele>2453.0</ele>
        <time>2018-09-16T13:11:28Z</time>
      </trkpt>
      <trkpt lat="40.308517" lon="-4.874750">
        <ele>2456.0</ele>
        <time>2018-09-16T13:11:29Z</time>
      </trkpt>
      <trkpt lat="40.308450" lon="-4.874700">
        <ele>2459.0</ele>
        <time>2018-09-16T13:11:30Z</time>
      </trkpt>
      <trkpt lat="40.308400" lon="-4.874700">
        <ele>2462.0</ele>
        <time>2018-09-16T13:11:31Z</time>
      </trkpt>
      <trkpt lat="40.308350" lon="-4.874750">
        <ele>2464.0</ele>
        <time>2018-09-16T13:11:32Z</time>
      </trkpt>
      <trkpt lat="40.308300" lon="-4.874833">
        <ele>2467.0</ele>
        <time>2018-09-16T13:11:33Z</time>
      </trkpt>
      <trkpt lat="40.308267" lon="-4.874950">
        <ele>2469.0</ele>
        <time>2018-09-16T13:11:34Z</time>
      </trkpt>
      <trkpt lat="40.308267" lon="-4.875050">
        <ele>2472.0</ele>
        <time>2018-09-16T13:11:35Z</time>
      </trkpt>
      <trkpt lat="40.308283" lon="-4.875167">
        <ele>2476.0</ele>
        <time>2018-09-16T13:11:36Z</time>
      </trkpt>
      <trkpt lat="40.308317" lon="-4.875283">
        <ele>2479.0</ele>
        <time>2018-09-16T13:11:37Z</time>
      </trkpt>
      <trkpt lat="40.308367" lon="-4.875383">
        <ele>2482.0</ele>
        <time>2018-09-16T13:11:38Z</time>
      </trkpt>
      <trkpt lat="40.308450" lon="-4.875467">
        <ele>2485.0</ele>
        <time>2018-09-16T13:11:39Z</time>
      </trkpt>
      <trkpt lat="40.308533" lon="-4.875517">
        <ele>2487.0</ele>
        <time>2018-09-16T13:11:40Z</time>
      </trkpt>
      <trkpt lat="40.308650" lon="-4.875533">
        <ele>2489.0</ele>
        <time>2018-09-16T13:11:41Z</time>
      </trkpt>
      <trkpt lat="40.308767" lon="-4.875550">
        <ele>2491.0</ele>
        <time>2018-09-16T13:11:42Z</time>
      </trkpt>
      <trkpt lat="40.308867" lon="-4.875533">
        <ele>2492.0</ele>
        <time>2018-09-16T13:11:43Z</time>
      </trkpt>
      <trkpt lat="40.308983" lon="-4.875517">
        <ele>2494.0</ele>
        <time>2018-09-16T13:11:44Z</time>
      </trkpt>
      <trkpt lat="40.309083" lon="-4.875483">
        <ele>2496.0</ele>
        <time>2018-09-16T13:11:45Z</time>
      </trkpt>
      <trkpt lat="40.309167" lon="-4.875450">
        <ele>2498.0</ele>
        <time>2018-09-16T13:11:46Z</time>
      </trkpt>
      <trkpt lat="40.309150" lon="-4.875333">
        <ele>2500.0</ele>
        <time>2018-09-16T13:11:47Z</time>
      </trkpt>
      <trkpt lat="40.309150" lon="-4.875267">
        <ele>2502.0</ele>
        <time>2018-09-16T13:11:48Z</time>
      </trkpt>
      <trkpt lat="40.309117" lon="-4.875200">
        <ele>2505.0</ele>
        <time>2018-09-16T13:11:49Z</time>
      </trkpt>
      <trkpt lat="40.309083" lon="-4.875183">
        <ele>2507.0</ele>
        <time>2018-09-16T13:11:50Z</time>
      </trkpt>
      <trkpt lat="40.309050" lon="-4.875233">
        <ele>2509.0</ele>
        <time>2018-09-16T13:11:51Z</time>
      </trkpt>
      <trkpt lat="40.309017" lon="-4.875333">
        <ele>2510.0</ele>
        <time>2018-09-16T13:11:52Z</time>
      </trkpt>
      <trkpt lat="40.309000" lon="-4.875433">
        <ele>2512.0</ele>
        <time>2018-09-16T13:11:53Z</time>
      </trkpt>
      <trkpt lat="40.309000" lon="-4.875533">
        <ele>2515.0</ele>
        <time>2018-09-16T13:11:54Z</time>
      </trkpt>
      <trkpt lat="40.309050" lon="-4.875633">
        <ele>2517.0</ele>
        <time>2018-09-16T13:11:55Z</time>
      </trkpt>
      <trkpt lat="40.309133" lon="-4.875733">
        <ele>2519.0</ele>
        <time>2018-09-16T13:11:56Z</time>
      </trkpt>
      <trkpt lat="40.309250" lon="-4.875817">
        <ele>2521.0</ele>
        <time>2018-09-16T13:11:57Z</time>
      </trkpt>
      <trkpt lat="40.309367" lon="-4.875850">
        <ele>2522.0</ele>
        <time>2018-09-16T13:11:58Z</time>
      </trkpt>
      <trkpt lat="40.309483" lon="-4.875867">
        <ele>2524.0</ele>
        <time>2018-09-16T13:11:59Z</time>
      </trkpt>
      <trkpt lat="40.309583" lon="-4.875867">
        <ele>2525.0</ele>
        <time>2018-09-16T13:12:00Z</time>
      </trkpt>
      <trkpt lat="40.309667" lon="-4.875867">
        <ele>2527.0</ele>
        <time>2018-09-16T13:12:01Z</time>
      </trkpt>
      <trkpt lat="40.309733" lon="-4.875833">
        <ele>2528.0</ele>
        <time>2018-09-16T13:12:02Z</time>
      </trkpt>
      <trkpt lat="40.309767" lon="-4.875783">
        <ele>2530.0</ele>
        <time>2018-09-16T13:12:03Z</time>
      </trkpt>
      <trkpt lat="40.309783" lon="-4.875733">
        <ele>2532.0</ele>
        <time>2018-09-16T13:12:04Z</time>
      </trkpt>
      <trkpt lat="40.309767" lon="-4.875700">
        <ele>2534.0</ele>
        <time>2018-09-16T13:12:05Z</time>
      </trkpt>
      <trkpt lat="40.309767" lon="-4.875683">
        <ele>2535.0</ele>
        <time>2018-09-16T13:12:06Z</time>
      </trkpt>
      <trkpt lat="40.309750" lon="-4.875650">
        <ele>2537.0</ele>
        <time>2018-09-16T13:12:07Z</time>
      </trkpt>
      <trkpt lat="40.309733" lon="-4.875650">
        <ele>2539.0</ele>
        <time>2018-09-16T13:12:08Z</time>
      </trkpt>
      <trkpt lat="40.309700" lon="-4.875800">
        <ele>2540.0</ele>
        <time>2018-09-16T13:12:09Z</time>
      </trkpt>
      <trkpt lat="40.309717" lon="-4.875967">
        <ele>2541.0</ele>
        <time>2018-09-16T13:12:10Z</time>
      </trkpt>
      <trkpt lat="40.309750" lon="-4.876083">
        <ele>2542.0</ele>
        <time>2018-09-16T13:12:11Z</time>
      </trkpt>
      <trkpt lat="40.309833" lon="-4.876183">
        <ele>2543.0</ele>
        <time>2018-09-16T13:12:12Z</time>
      </trkpt>
      <trkpt lat="40.309933" lon="-4.876283">
        <ele>2544.0</ele>
        <time>2018-09-16T13:12:13Z</time>
      </trkpt>
      <trkpt lat="40.310033" lon="-4.876350">
        <ele>2545.0</ele>
        <time>2018-09-16T13:12:14Z</time>
      </trkpt>
      <trkpt lat="40.310150" lon="-4.876383">
        <ele>2546.0</ele>
        <time>2018-09-16T13:12:15Z</time>
      </trkpt>
      <trkpt lat="40.310267" lon="-4.876417">
        <ele>2547.0</ele>
        <time>2018-09-16T13:12:16Z</time>
      </trkpt>
      <trkpt lat="40.310383" lon="-4.876433">
        <ele>2548.0</ele>
        <time>2018-09-16T13:12:17Z</time>
      </trkpt>
      <trkpt lat="40.310500" lon="-4.876433">
        <ele>2549.0</ele>
        <time>2018-09-16T13:12:18Z</time>
      </trkpt>
      <trkpt lat="40.310600" lon="-4.876417">
        <ele>2550.0</ele>
        <time>2018-09-16T13:12:19Z</time>
      </trkpt>
      <trkpt lat="40.310700" lon="-4.876367">
        <ele>2550.0</ele>
        <time>2018-09-16T13:12:20Z</time>
      </trkpt>
      <trkpt lat="40.310767" lon="-4.876317">
        <ele>2550.0</ele>
        <time>2018-09-16T13:12:21Z</time>
      </trkpt>
      <trkpt lat="40.310833" lon="-4.876250">
        <ele>2551.0</ele>
        <time>2018-09-16T13:12:22Z</time>
      </trkpt>
      <trkpt lat="40.310883" lon="-4.876200">
        <ele>2552.0</ele>
        <time>2018-09-16T13:12:23Z</time>
      </trkpt>
      <trkpt lat="40.310917" lon="-4.876150">
        <ele>2553.0</ele>
        <time>2018-09-16T13:12:24Z</time>
      </trkpt>
      <trkpt lat="40.310900" lon="-4.876150">
        <ele>2555.0</ele>
        <time>2018-09-16T13:12:25Z</time>
      </trkpt>
      <trkpt lat="40.310867" lon="-4.876200">
        <ele>2556.0</ele>
        <time>2018-09-16T13:12:26Z</time>
      </trkpt>
      <trkpt lat="40.310783" lon="-4.876300">
        <ele>2557.0</ele>
        <time>2018-09-16T13:12:27Z</time>
      </trkpt>
      <trkpt lat="40.310750" lon="-4.876433">
        <ele>2557.0</ele>
        <time>2018-09-16T13:12:28Z</time>
      </trkpt>
      <trkpt lat="40.310767" lon="-4.876567">
        <ele>2558.0</ele>
        <time>2018-09-16T13:12:29Z</time>
      </trkpt>
      <trkpt lat="40.310800" lon="-4.876683">
        <ele>2559.0</ele>
        <time>2018-09-16T13:12:30Z</time>
      </trkpt>
      <trkpt lat="40.310850" lon="-4.876783">
        <ele>2560.0</ele>
        <time>2018-09-16T13:12:31Z</time>
      </trkpt>
      <trkpt lat="40.310917" lon="-4.876867">
        <ele>2560.0</ele>
        <time>2018-09-16T13:12:32Z</time>
      </trkpt>
      <trkpt lat="40.311017" lon="-4.876917">
        <ele>2562.0</ele>
        <time>2018-09-16T13:12:33Z</time>
      </trkpt>
      <trkpt lat="40.311100" lon="-4.876950">
        <ele>2562.0</ele>
        <time>2018-09-16T13:12:34Z</time>
      </trkpt>
      <trkpt lat="40.311183" lon="-4.876933">
        <ele>2563.0</ele>
        <time>2018-09-16T13:12:35Z</time>
      </trkpt>
      <trkpt lat="40.311250" lon="-4.876883">
        <ele>2563.0</ele>
        <time>2018-09-16T13:12:36Z</time>
      </trkpt>
      <trkpt lat="40.311367" lon="-4.876817">
        <ele>2563.0</ele>
        <time>2018-09-16T13:12:38Z</time>
      </trkpt>
      <trkpt lat="40.311433" lon="-4.876800">
        <ele>2563.0</ele>
        <time>2018-09-16T13:12:39Z</time>
      </trkpt>
      <trkpt lat="40.311483" lon="-4.876767">
        <ele>2563.0</ele>
        <time>2018-09-16T13:12:40Z</time>
      </trkpt>
      <trkpt lat="40.311500" lon="-4.876600">
        <ele>2563.0</ele>
        <time>2018-09-16T13:12:41Z</time>
      </trkpt>
      <trkpt lat="40.311533" lon="-4.876467">
        <ele>2563.0</ele>
        <time>2018-09-16T13:12:42Z</time>
      </trkpt>
      <trkpt lat="40.311567" lon="-4.876350">
        <ele>2564.0</ele>
        <time>2018-09-16T13:12:43Z</time>
      </trkpt>
      <trkpt lat="40.311700" lon="-4.876100">
        <ele>0.0</ele>
        <time>2018-09-16T13:12:46Z</time>
      </trkpt>
      <trkpt lat="40.311700" lon="-4.875950">
        <ele>0.0</ele>
        <time>2018-09-16T13:12:48Z</time>
      </trkpt>
      <trkpt lat="40.311650" lon="-4.875850">
        <ele>2570.0</ele>
        <time>2018-09-16T13:12:49Z</time>
      </trkpt>
      <trkpt lat="40.311617" lon="-4.875750">
        <ele>2570.0</ele>
        <time>2018-09-16T13:12:50Z</time>
      </trkpt>
      <trkpt lat="40.311600" lon="-4.875650">
        <ele>2570.0</ele>
        <time>2018-09-16T13:12:51Z</time>
      </trkpt>
      <trkpt lat="40.311583" lon="-4.875400">
        <ele>0.0</ele>
        <time>2018-09-16T13:12:54Z</time>
      </trkpt>
      <trkpt lat="40.311567" lon="-4.875283">
        <ele>2575.0</ele>
        <time>2018-09-16T13:12:55Z</time>
      </trkpt>
      <trkpt lat="40.311533" lon="-4.875150">
        <ele>2576.0</ele>
        <time>2018-09-16T13:12:56Z</time>
      </trkpt>
      <trkpt lat="40.311517" lon="-4.875017">
        <ele>2580.0</ele>
        <time>2018-09-16T13:12:57Z</time>
      </trkpt>
      <trkpt lat="40.311483" lon="-4.874917">
        <ele>2583.0</ele>
        <time>2018-09-16T13:12:58Z</time>
      </trkpt>
      <trkpt lat="40.311467" lon="-4.874833">
        <ele>2586.0</ele>
        <time>2018-09-16T13:12:59Z</time>
      </trkpt>
      <trkpt lat="40.311450" lon="-4.874750">
        <ele>2587.0</ele>
        <time>2018-09-16T13:13:00Z</time>
      </trkpt>
      <trkpt lat="40.311433" lon="-4.874667">
        <ele>2587.0</ele>
        <time>2018-09-16T13:13:01Z</time>
      </trkpt>
      <trkpt lat="40.311383" lon="-4.874567">
        <ele>2588.0</ele>
        <time>2018-09-16T13:13:02Z</time>
      </trkpt>
      <trkpt lat="40.311350" lon="-4.874483">
        <ele>2589.0</ele>
        <time>2018-09-16T13:13:03Z</time>
      </trkpt>
      <trkpt lat="40.311333" lon="-4.874400">
        <ele>2591.0</ele>
        <time>2018-09-16T13:13:04Z</time>
      </trkpt>
      <trkpt lat="40.311317" lon="-4.874317">
        <ele>2593.0</ele>
        <time>2018-09-16T13:13:05Z</time>
      </trkpt>
      <trkpt lat="40.311300" lon="-4.874250">
        <ele>2594.0</ele>
        <time>2018-09-16T13:13:06Z</time>
      </trkpt>
      <trkpt lat="40.311267" lon="-4.874167">
        <ele>2595.0</ele>
        <time>2018-09-16T13:13:07Z</time>
      </trkpt>
      <trkpt lat="40.311233" lon="-4.874083">
        <ele>2596.0</ele>
        <time>2018-09-16T13:13:08Z</time>
      </trkpt>
      <trkpt lat="40.311217" lon="-4.874000">
        <ele>2597.0</ele>
        <time>2018-09-16T13:13:09Z</time>
      </trkpt>
      <trkpt lat="40.311183" lon="-4.873917">
        <ele>2599.0</ele>
        <time>2018-09-16T13:13:10Z</time>
      </trkpt>
      <trkpt lat="40.311167" lon="-4.873833">
        <ele>2601.0</ele>
        <time>2018-09-16T13:13:11Z</time>
      </trkpt>
      <trkpt lat="40.311133" lon="-4.873750">
        <ele>2603.0</ele>
        <time>2018-09-16T13:13:12Z</time>
      </trkpt>
      <trkpt lat="40.311067" lon="-4.873683">
        <ele>2604.0</ele>
        <time>2018-09-16T13:13:13Z</time>
      </trkpt>
      <trkpt lat="40.311000" lon="-4.873633">
        <ele>2605.0</ele>
        <time>2018-09-16T13:13:14Z</time>
      </trkpt>
      <trkpt lat="40.310933" lon="-4.873600">
        <ele>2606.0</ele>
        <time>2018-09-16T13:13:15Z</time>
      </trkpt>
      <trkpt lat="40.310883" lon="-4.873517">
        <ele>2608.0</ele>
        <time>2018-09-16T13:13:16Z</time>
      </trkpt>
      <trkpt lat="40.310833" lon="-4.873433">
        <ele>2609.0</ele>
        <time>2018-09-16T13:13:17Z</time>
      </trkpt>
      <trkpt lat="40.310817" lon="-4.873317">
        <ele>2609.0</ele>
        <time>2018-09-16T13:13:18Z</time>
      </trkpt>
      <trkpt lat="40.310783" lon="-4.873200">
        <ele>2610.0</ele>
        <time>2018-09-16T13:13:19Z</time>
      </trkpt>
      <trkpt lat="40.310767" lon="-4.873083">
        <ele>2610.0</ele>
        <time>2018-09-16T13:13:20Z</time>
      </trkpt>
      <trkpt lat="40.310750" lon="-4.872967">
        <ele>2612.0</ele>
        <time>2018-09-16T13:13:21Z</time>
      </trkpt>
      <trkpt lat="40.310733" lon="-4.872867">
        <ele>2613.0</ele>
        <time>2018-09-16T13:13:22Z</time>
      </trkpt>
      <trkpt lat="40.310733" lon="-4.872750">
        <ele>2614.0</ele>
        <time>2018-09-16T13:13:23Z</time>
      </trkpt>
      <trkpt lat="40.310717" lon="-4.872633">
        <ele>2615.0</ele>
        <time>2018-09-16T13:13:24Z</time>
      </trkpt>
      <trkpt lat="40.310717" lon="-4.872500">
        <ele>2616.0</ele>
        <time>2018-09-16T13:13:25Z</time>
      </trkpt>
      <trkpt lat="40.310717" lon="-4.872400">
        <ele>2617.0</ele>
        <time>2018-09-16T13:13:26Z</time>
      </trkpt>
      <trkpt lat="40.310717" lon="-4.872300">
        <ele>2618.0</ele>
        <time>2018-09-16T13:13:27Z</time>
      </trkpt>
      <trkpt lat="40.310717" lon="-4.872200">
        <ele>2617.0</ele>
        <time>2018-09-16T13:13:28Z</time>
      </trkpt>
      <trkpt lat="40.310700" lon="-4.872100">
        <ele>2616.0</ele>
        <time>2018-09-16T13:13:29Z</time>
      </trkpt>
      <trkpt lat="40.310683" lon="-4.871967">
        <ele>2614.0</ele>
        <time>2018-09-16T13:13:30Z</time>
      </trkpt>
      <trkpt lat="40.310667" lon="-4.871867">
        <ele>2612.0</ele>
        <time>2018-09-16T13:13:31Z</time>
      </trkpt>
      <trkpt lat="40.310650" lon="-4.871750">
        <ele>2609.0</ele>
        <time>2018-09-16T13:13:32Z</time>
      </trkpt>
      <trkpt lat="40.310633" lon="-4.871667">
        <ele>2608.0</ele>
        <time>2018-09-16T13:13:33Z</time>
      </trkpt>
      <trkpt lat="40.310617" lon="-4.871583">
        <ele>2606.0</ele>
        <time>2018-09-16T13:13:34Z</time>
      </trkpt>
      <trkpt lat="40.310600" lon="-4.871483">
        <ele>2603.0</ele>
        <time>2018-09-16T13:13:35Z</time>
      </trkpt>
      <trkpt lat="40.310567" lon="-4.871383">
        <ele>2601.0</ele>
        <time>2018-09-16T13:13:36Z</time>
      </trkpt>
      <trkpt lat="40.310550" lon="-4.871283">
        <ele>2598.0</ele>
        <time>2018-09-16T13:13:37Z</time>
      </trkpt>
      <trkpt lat="40.310517" lon="-4.871183">
        <ele>2595.0</ele>
        <time>2018-09-16T13:13:38Z</time>
      </trkpt>
      <trkpt lat="40.310500" lon="-4.871083">
        <ele>2593.0</ele>
        <time>2018-09-16T13:13:39Z</time>
      </trkpt>
      <trkpt lat="40.310467" lon="-4.870983">
        <ele>2590.0</ele>
        <time>2018-09-16T13:13:40Z</time>
      </trkpt>
      <trkpt lat="40.310433" lon="-4.870900">
        <ele>2588.0</ele>
        <time>2018-09-16T13:13:41Z</time>
      </trkpt>
      <trkpt lat="40.310417" lon="-4.870817">
        <ele>2585.0</ele>
        <time>2018-09-16T13:13:42Z</time>
      </trkpt>
      <trkpt lat="40.310383" lon="-4.870717">
        <ele>2585.0</ele>
        <time>2018-09-16T13:13:43Z</time>
      </trkpt>
      <trkpt lat="40.310367" lon="-4.870600">
        <ele>2584.0</ele>
        <time>2018-09-16T13:13:44Z</time>
      </trkpt>
      <trkpt lat="40.310333" lon="-4.870483">
        <ele>2581.0</ele>
        <time>2018-09-16T13:13:45Z</time>
      </trkpt>
      <trkpt lat="40.310317" lon="-4.870367">
        <ele>2579.0</ele>
        <time>2018-09-16T13:13:46Z</time>
      </trkpt>
      <trkpt lat="40.310317" lon="-4.870267">
        <ele>2576.0</ele>
        <time>2018-09-16T13:13:47Z</time>
      </trkpt>
      <trkpt lat="40.310300" lon="-4.870167">
        <ele>2574.0</ele>
        <time>2018-09-16T13:13:48Z</time>
      </trkpt>
      <trkpt lat="40.310267" lon="-4.870067">
        <ele>2572.0</ele>
        <time>2018-09-16T13:13:49Z</time>
      </trkpt>
      <trkpt lat="40.310233" lon="-4.869967">
        <ele>2570.0</ele>
        <time>2018-09-16T13:13:50Z</time>
      </trkpt>
      <trkpt lat="40.310200" lon="-4.869883">
        <ele>2572.0</ele>
        <time>2018-09-16T13:13:51Z</time>
      </trkpt>
      <trkpt lat="40.310183" lon="-4.869783">
        <ele>2571.0</ele>
        <time>2018-09-16T13:13:52Z</time>
      </trkpt>
      <trkpt lat="40.310150" lon="-4.869683">
        <ele>2570.0</ele>
        <time>2018-09-16T13:13:53Z</time>
      </trkpt>
      <trkpt lat="40.310117" lon="-4.869567">
        <ele>2568.0</ele>
        <time>2018-09-16T13:13:54Z</time>
      </trkpt>
      <trkpt lat="40.310083" lon="-4.869450">
        <ele>2566.0</ele>
        <time>2018-09-16T13:13:55Z</time>
      </trkpt>
      <trkpt lat="40.310033" lon="-4.869350">
        <ele>2565.0</ele>
        <time>2018-09-16T13:13:56Z</time>
      </trkpt>
      <trkpt lat="40.310000" lon="-4.869233">
        <ele>2564.0</ele>
        <time>2018-09-16T13:13:57Z</time>
      </trkpt>
      <trkpt lat="40.309983" lon="-4.869133">
        <ele>2564.0</ele>
        <time>2018-09-16T13:13:58Z</time>
      </trkpt>
      <trkpt lat="40.309950" lon="-4.869050">
        <ele>2563.0</ele>
        <time>2018-09-16T13:13:59Z</time>
      </trkpt>
      <trkpt lat="40.309917" lon="-4.868950">
        <ele>2563.0</ele>
        <time>2018-09-16T13:14:00Z</time>
      </trkpt>
      <trkpt lat="40.309883" lon="-4.868850">
        <ele>2562.0</ele>
        <time>2018-09-16T13:14:01Z</time>
      </trkpt>
      <trkpt lat="40.309850" lon="-4.868767">
        <ele>2561.0</ele>
        <time>2018-09-16T13:14:02Z</time>
      </trkpt>
      <trkpt lat="40.309817" lon="-4.868667">
        <ele>2561.0</ele>
        <time>2018-09-16T13:14:03Z</time>
      </trkpt>
      <trkpt lat="40.309783" lon="-4.868567">
        <ele>2561.0</ele>
        <time>2018-09-16T13:14:04Z</time>
      </trkpt>
      <trkpt lat="40.309750" lon="-4.868467">
        <ele>2561.0</ele>
        <time>2018-09-16T13:14:05Z</time>
      </trkpt>
      <trkpt lat="40.309733" lon="-4.868367">
        <ele>2560.0</ele>
        <time>2018-09-16T13:14:06Z</time>
      </trkpt>
      <trkpt lat="40.309700" lon="-4.868267">
        <ele>2560.0</ele>
        <time>2018-09-16T13:14:07Z</time>
      </trkpt>
      <trkpt lat="40.309667" lon="-4.868167">
        <ele>2560.0</ele>
        <time>2018-09-16T13:14:08Z</time>
      </trkpt>
      <trkpt lat="40.309617" lon="-4.868050">
        <ele>2560.0</ele>
        <time>2018-09-16T13:14:09Z</time>
      </trkpt>
      <trkpt lat="40.309583" lon="-4.867967">
        <ele>2559.0</ele>
        <time>2018-09-16T13:14:10Z</time>
      </trkpt>
      <trkpt lat="40.309550" lon="-4.867867">
        <ele>2558.0</ele>
        <time>2018-09-16T13:14:11Z</time>
      </trkpt>
      <trkpt lat="40.309500" lon="-4.867750">
        <ele>2557.0</ele>
        <time>2018-09-16T13:14:12Z</time>
      </trkpt>
      <trkpt lat="40.309467" lon="-4.867633">
        <ele>2557.0</ele>
        <time>2018-09-16T13:14:13Z</time>
      </trkpt>
      <trkpt lat="40.309450" lon="-4.867517">
        <ele>2557.0</ele>
        <time>2018-09-16T13:14:14Z</time>
      </trkpt>
      <trkpt lat="40.309417" lon="-4.867417">
        <ele>2556.0</ele>
        <time>2018-09-16T13:14:15Z</time>
      </trkpt>
      <trkpt lat="40.309400" lon="-4.867333">
        <ele>2554.0</ele>
        <time>2018-09-16T13:14:16Z</time>
      </trkpt>
      <trkpt lat="40.309367" lon="-4.867250">
        <ele>2552.0</ele>
        <time>2018-09-16T13:14:17Z</time>
      </trkpt>
      <trkpt lat="40.309333" lon="-4.867150">
        <ele>2550.0</ele>
        <time>2018-09-16T13:14:18Z</time>
      </trkpt>
      <trkpt lat="40.309317" lon="-4.867033">
        <ele>2550.0</ele>
        <time>2018-09-16T13:14:19Z</time>
      </trkpt>
      <trkpt lat="40.309300" lon="-4.866917">
        <ele>2549.0</ele>
        <time>2018-09-16T13:14:20Z</time>
      </trkpt>
      <trkpt lat="40.309267" lon="-4.866783">
        <ele>2548.0</ele>
        <time>2018-09-16T13:14:21Z</time>
      </trkpt>
      <trkpt lat="40.309250" lon="-4.866683">
        <ele>2547.0</ele>
        <time>2018-09-16T13:14:22Z</time>
      </trkpt>
      <trkpt lat="40.309217" lon="-4.866583">
        <ele>2546.0</ele>
        <time>2018-09-16T13:14:23Z</time>
      </trkpt>
      <trkpt lat="40.309183" lon="-4.866500">
        <ele>2544.0</ele>
        <time>2018-09-16T13:14:24Z</time>
      </trkpt>
      <trkpt lat="40.309150" lon="-4.866417">
        <ele>2542.0</ele>
        <time>2018-09-16T13:14:25Z</time>
      </trkpt>
      <trkpt lat="40.309133" lon="-4.866350">
        <ele>2539.0</ele>
        <time>2018-09-16T13:14:26Z</time>
      </trkpt>
      <trkpt lat="40.309100" lon="-4.866250">
        <ele>2537.0</ele>
        <time>2018-09-16T13:14:27Z</time>
      </trkpt>
      <trkpt lat="40.309050" lon="-4.866150">
        <ele>2534.0</ele>
        <time>2018-09-16T13:14:28Z</time>
      </trkpt>
      <trkpt lat="40.309017" lon="-4.866033">
        <ele>2532.0</ele>
        <time>2018-09-16T13:14:29Z</time>
      </trkpt>
      <trkpt lat="40.308983" lon="-4.865950">
        <ele>2530.0</ele>
        <time>2018-09-16T13:14:30Z</time>
      </trkpt>
      <trkpt lat="40.308967" lon="-4.865850">
        <ele>2529.0</ele>
        <time>2018-09-16T13:14:31Z</time>
      </trkpt>
      <trkpt lat="40.308933" lon="-4.865767">
        <ele>2527.0</ele>
        <time>2018-09-16T13:14:32Z</time>
      </trkpt>
      <trkpt lat="40.308900" lon="-4.865667">
        <ele>2525.0</ele>
        <time>2018-09-16T13:14:33Z</time>
      </trkpt>
      <trkpt lat="40.308867" lon="-4.865567">
        <ele>2523.0</ele>
        <time>2018-09-16T13:14:34Z</time>
      </trkpt>
      <trkpt lat="40.308833" lon="-4.865450">
        <ele>2521.0</ele>
        <time>2018-09-16T13:14:35Z</time>
      </trkpt>
      <trkpt lat="40.308817" lon="-4.865350">
        <ele>2519.0</ele>
        <time>2018-09-16T13:14:36Z</time>
      </trkpt>
      <trkpt lat="40.308783" lon="-4.865250">
        <ele>2517.0</ele>
        <time>2018-09-16T13:14:37Z</time>
      </trkpt>
      <trkpt lat="40.308750" lon="-4.865150">
        <ele>2515.0</ele>
        <time>2018-09-16T13:14:38Z</time>
      </trkpt>
      <trkpt lat="40.308733" lon="-4.865050">
        <ele>2517.0</ele>
        <time>2018-09-16T13:14:39Z</time>
      </trkpt>
      <trkpt lat="40.308700" lon="-4.864933">
        <ele>2516.0</ele>
        <time>2018-09-16T13:14:40Z</time>
      </trkpt>
      <trkpt lat="40.308667" lon="-4.864833">
        <ele>2516.0</ele>
        <time>2018-09-16T13:14:41Z</time>
      </trkpt>
      <trkpt lat="40.308633" lon="-4.864733">
        <ele>2516.0</ele>
        <time>2018-09-16T13:14:42Z</time>
      </trkpt>
      <trkpt lat="40.308600" lon="-4.864650">
        <ele>2515.0</ele>
        <time>2018-09-16T13:14:43Z</time>
      </trkpt>
      <trkpt lat="40.308567" lon="-4.864550">
        <ele>2514.0</ele>
        <time>2018-09-16T13:14:44Z</time>
      </trkpt>
      <trkpt lat="40.308517" lon="-4.864450">
        <ele>2513.0</ele>
        <time>2018-09-16T13:14:45Z</time>
      </trkpt>
      <trkpt lat="40.308483" lon="-4.864350">
        <ele>2511.0</ele>
        <time>2018-09-16T13:14:46Z</time>
      </trkpt>
      <trkpt lat="40.308467" lon="-4.864267">
        <ele>2508.0</ele>
        <time>2018-09-16T13:14:47Z</time>
      </trkpt>
      <trkpt lat="40.308433" lon="-4.864167">
        <ele>2506.0</ele>
        <time>2018-09-16T13:14:48Z</time>
      </trkpt>
      <trkpt lat="40.308400" lon="-4.864067">
        <ele>2503.0</ele>
        <time>2018-09-16T13:14:49Z</time>
      </trkpt>
      <trkpt lat="40.308350" lon="-4.863967">
        <ele>2501.0</ele>
        <time>2018-09-16T13:14:50Z</time>
      </trkpt>
      <trkpt lat="40.308317" lon="-4.863883">
        <ele>2498.0</ele>
        <time>2018-09-16T13:14:51Z</time>
      </trkpt>
      <trkpt lat="40.308267" lon="-4.863800">
        <ele>2496.0</ele>
        <time>2018-09-16T13:14:52Z</time>
      </trkpt>
      <trkpt lat="40.308233" lon="-4.863717">
        <ele>2494.0</ele>
        <time>2018-09-16T13:14:53Z</time>
      </trkpt>
      <trkpt lat="40.308200" lon="-4.863617">
        <ele>2496.0</ele>
        <time>2018-09-16T13:14:54Z</time>
      </trkpt>
      <trkpt lat="40.308183" lon="-4.863517">
        <ele>2496.0</ele>
        <time>2018-09-16T13:14:55Z</time>
      </trkpt>
      <trkpt lat="40.308150" lon="-4.863417">
        <ele>2495.0</ele>
        <time>2018-09-16T13:14:56Z</time>
      </trkpt>
      <trkpt lat="40.308100" lon="-4.863300">
        <ele>2495.0</ele>
        <time>2018-09-16T13:14:57Z</time>
      </trkpt>
      <trkpt lat="40.308067" lon="-4.863217">
        <ele>2494.0</ele>
        <time>2018-09-16T13:14:58Z</time>
      </trkpt>
      <trkpt lat="40.308033" lon="-4.863117">
        <ele>2493.0</ele>
        <time>2018-09-16T13:14:59Z</time>
      </trkpt>
      <trkpt lat="40.308000" lon="-4.863017">
        <ele>2492.0</ele>
        <time>2018-09-16T13:15:00Z</time>
      </trkpt>
      <trkpt lat="40.307967" lon="-4.862917">
        <ele>2490.0</ele>
        <time>2018-09-16T13:15:01Z</time>
      </trkpt>
      <trkpt lat="40.307933" lon="-4.862833">
        <ele>2489.0</ele>
        <time>2018-09-16T13:15:02Z</time>
      </trkpt>
      <trkpt lat="40.307900" lon="-4.862733">
        <ele>2487.0</ele>
        <time>2018-09-16T13:15:03Z</time>
      </trkpt>
      <trkpt lat="40.307867" lon="-4.862650">
        <ele>2485.0</ele>
        <time>2018-09-16T13:15:04Z</time>
      </trkpt>
      <trkpt lat="40.307833" lon="-4.862550">
        <ele>2482.0</ele>
        <time>2018-09-16T13:15:05Z</time>
      </trkpt>
      <trkpt lat="40.307783" lon="-4.862450">
        <ele>2479.0</ele>
        <time>2018-09-16T13:15:06Z</time>
      </trkpt>
      <trkpt lat="40.307750" lon="-4.862367">
        <ele>2475.0</ele>
        <time>2018-09-16T13:15:07Z</time>
      </trkpt>
      <trkpt lat="40.307717" lon="-4.862267">
        <ele>2472.0</ele>
        <time>2018-09-16T13:15:08Z</time>
      </trkpt>
      <trkpt lat="40.307683" lon="-4.862183">
        <ele>2468.0</ele>
        <time>2018-09-16T13:15:09Z</time>
      </trkpt>
      <trkpt lat="40.307650" lon="-4.862083">
        <ele>2465.0</ele>
        <time>2018-09-16T13:15:10Z</time>
      </trkpt>
      <trkpt lat="40.307617" lon="-4.862000">
        <ele>2462.0</ele>
        <time>2018-09-16T13:15:11Z</time>
      </trkpt>
      <trkpt lat="40.307583" lon="-4.861900">
        <ele>2459.0</ele>
        <time>2018-09-16T13:15:12Z</time>
      </trkpt>
      <trkpt lat="40.307550" lon="-4.861800">
        <ele>2456.0</ele>
        <time>2018-09-16T13:15:13Z</time>
      </trkpt>
      <trkpt lat="40.307533" lon="-4.861700">
        <ele>2461.0</ele>
        <time>2018-09-16T13:15:14Z</time>
      </trkpt>
      <trkpt lat="40.307517" lon="-4.861600">
        <ele>2461.0</ele>
        <time>2018-09-16T13:15:15Z</time>
      </trkpt>
      <trkpt lat="40.307500" lon="-4.861483">
        <ele>2460.0</ele>
        <time>2018-09-16T13:15:16Z</time>
      </trkpt>
      <trkpt lat="40.307483" lon="-4.861383">
        <ele>2459.0</ele>
        <time>2018-09-16T13:15:17Z</time>
      </trkpt>
      <trkpt lat="40.307450" lon="-4.861283">
        <ele>2458.0</ele>
        <time>2018-09-16T13:15:18Z</time>
      </trkpt>
      <trkpt lat="40.307417" lon="-4.861183">
        <ele>2458.0</ele>
        <time>2018-09-16T13:15:19Z</time>
      </trkpt>
      <trkpt lat="40.307400" lon="-4.861083">
        <ele>2457.0</ele>
        <time>2018-09-16T13:15:20Z</time>
      </trkpt>
      <trkpt lat="40.307367" lon="-4.860983">
        <ele>2456.0</ele>
        <time>2018-09-16T13:15:21Z</time>
      </trkpt>
      <trkpt lat="40.307333" lon="-4.860883">
        <ele>2456.0</ele>
        <time>2018-09-16T13:15:22Z</time>
      </trkpt>
      <trkpt lat="40.307300" lon="-4.860783">
        <ele>2455.0</ele>
        <time>2018-09-16T13:15:23Z</time>
      </trkpt>
      <trkpt lat="40.307267" lon="-4.860700">
        <ele>2455.0</ele>
        <time>2018-09-16T13:15:24Z</time>
      </trkpt>
      <trkpt lat="40.307250" lon="-4.860617">
        <ele>2454.0</ele>
        <time>2018-09-16T13:15:25Z</time>
      </trkpt>
      <trkpt lat="40.307217" lon="-4.860533">
        <ele>2453.0</ele>
        <time>2018-09-16T13:15:26Z</time>
      </trkpt>
      <trkpt lat="40.307183" lon="-4.860450">
        <ele>2453.0</ele>
        <time>2018-09-16T13:15:27Z</time>
      </trkpt>
      <trkpt lat="40.307150" lon="-4.860350">
        <ele>2452.0</ele>
        <time>2018-09-16T13:15:28Z</time>
      </trkpt>
      <trkpt lat="40.307100" lon="-4.860250">
        <ele>2451.0</ele>
        <time>2018-09-16T13:15:29Z</time>
      </trkpt>
      <trkpt lat="40.307033" lon="-4.860167">
        <ele>2450.0</ele>
        <time>2018-09-16T13:15:30Z</time>
      </trkpt>
      <trkpt lat="40.306983" lon="-4.860067">
        <ele>2449.0</ele>
        <time>2018-09-16T13:15:31Z</time>
      </trkpt>
      <trkpt lat="40.306933" lon="-4.860000">
        <ele>2448.0</ele>
        <time>2018-09-16T13:15:32Z</time>
      </trkpt>
      <trkpt lat="40.306883" lon="-4.859917">
        <ele>2447.0</ele>
        <time>2018-09-16T13:15:33Z</time>
      </trkpt>
      <trkpt lat="40.306833" lon="-4.859817">
        <ele>2446.0</ele>
        <time>2018-09-16T13:15:34Z</time>
      </trkpt>
      <trkpt lat="40.306783" lon="-4.859733">
        <ele>2446.0</ele>
        <time>2018-09-16T13:15:35Z</time>
      </trkpt>
      <trkpt lat="40.306717" lon="-4.859633">
        <ele>2445.0</ele>
        <time>2018-09-16T13:15:36Z</time>
      </trkpt>
      <trkpt lat="40.306667" lon="-4.859533">
        <ele>2444.0</ele>
        <time>2018-09-16T13:15:37Z</time>
      </trkpt>
      <trkpt lat="40.306617" lon="-4.859450">
        <ele>2443.0</ele>
        <time>2018-09-16T13:15:38Z</time>
      </trkpt>
      <trkpt lat="40.306567" lon="-4.859350">
        <ele>2442.0</ele>
        <time>2018-09-16T13:15:39Z</time>
      </trkpt>
      <trkpt lat="40.306517" lon="-4.859267">
        <ele>2441.0</ele>
        <time>2018-09-16T13:15:40Z</time>
      </trkpt>
      <trkpt lat="40.306483" lon="-4.859167">
        <ele>2440.0</ele>
        <time>2018-09-16T13:15:41Z</time>
      </trkpt>
      <trkpt lat="40.306433" lon="-4.859083">
        <ele>2439.0</ele>
        <time>2018-09-16T13:15:42Z</time>
      </trkpt>
      <trkpt lat="40.306383" lon="-4.858983">
        <ele>2438.0</ele>
        <time>2018-09-16T13:15:43Z</time>
      </trkpt>
      <trkpt lat="40.306350" lon="-4.858900">
        <ele>2437.0</ele>
        <time>2018-09-16T13:15:44Z</time>
      </trkpt>
      <trkpt lat="40.306317" lon="-4.858800">
        <ele>2435.0</ele>
        <time>2018-09-16T13:15:45Z</time>
      </trkpt>
      <trkpt lat="40.306283" lon="-4.858717">
        <ele>2433.0</ele>
        <time>2018-09-16T13:15:46Z</time>
      </trkpt>
      <trkpt lat="40.306250" lon="-4.858617">
        <ele>2431.0</ele>
        <time>2018-09-16T13:15:47Z</time>
      </trkpt>
      <trkpt lat="40.306217" lon="-4.858517">
        <ele>2432.0</ele>
        <time>2018-09-16T13:15:48Z</time>
      </trkpt>
      <trkpt lat="40.306183" lon="-4.858400">
        <ele>2431.0</ele>
        <time>2018-09-16T13:15:49Z</time>
      </trkpt>
      <trkpt lat="40.306150" lon="-4.858300">
        <ele>2430.0</ele>
        <time>2018-09-16T13:15:50Z</time>
      </trkpt>
      <trkpt lat="40.306133" lon="-4.858217">
        <ele>2429.0</ele>
        <time>2018-09-16T13:15:51Z</time>
      </trkpt>
      <trkpt lat="40.306117" lon="-4.858117">
        <ele>2427.0</ele>
        <time>2018-09-16T13:15:52Z</time>
      </trkpt>
      <trkpt lat="40.306100" lon="-4.858017">
        <ele>2426.0</ele>
        <time>2018-09-16T13:15:53Z</time>
      </trkpt>
      <trkpt lat="40.306067" lon="-4.857900">
        <ele>2426.0</ele>
        <time>2018-09-16T13:15:54Z</time>
      </trkpt>
      <trkpt lat="40.306017" lon="-4.857800">
        <ele>2425.0</ele>
        <time>2018-09-16T13:15:55Z</time>
      </trkpt>
      <trkpt lat="40.305983" lon="-4.857700">
        <ele>2423.0</ele>
        <time>2018-09-16T13:15:56Z</time>
      </trkpt>
      <trkpt lat="40.305950" lon="-4.857600">
        <ele>2422.0</ele>
        <time>2018-09-16T13:15:57Z</time>
      </trkpt>
      <trkpt lat="40.305900" lon="-4.857500">
        <ele>2421.0</ele>
        <time>2018-09-16T13:15:58Z</time>
      </trkpt>
      <trkpt lat="40.305867" lon="-4.857383">
        <ele>2420.0</ele>
        <time>2018-09-16T13:15:59Z</time>
      </trkpt>
      <trkpt lat="40.305817" lon="-4.857283">
        <ele>2420.0</ele>
        <time>2018-09-16T13:16:00Z</time>
      </trkpt>
      <trkpt lat="40.305767" lon="-4.857183">
        <ele>2419.0</ele>
        <time>2018-09-16T13:16:01Z</time>
      </trkpt>
      <trkpt lat="40.305717" lon="-4.857083">
        <ele>2417.0</ele>
        <time>2018-09-16T13:16:02Z</time>
      </trkpt>
      <trkpt lat="40.305683" lon="-4.856983">
        <ele>2416.0</ele>
        <time>2018-09-16T13:16:03Z</time>
      </trkpt>
      <trkpt lat="40.305650" lon="-4.856900">
        <ele>2415.0</ele>
        <time>2018-09-16T13:16:04Z</time>
      </trkpt>
      <trkpt lat="40.305617" lon="-4.856817">
        <ele>2413.0</ele>
        <time>2018-09-16T13:16:05Z</time>
      </trkpt>
      <trkpt lat="40.305583" lon="-4.856750">
        <ele>2410.0</ele>
        <time>2018-09-16T13:16:06Z</time>
      </trkpt>
      <trkpt lat="40.305550" lon="-4.856683">
        <ele>2404.0</ele>
        <time>2018-09-16T13:16:07Z</time>
      </trkpt>
      <trkpt lat="40.305517" lon="-4.856617">
        <ele>2399.0</ele>
        <time>2018-09-16T13:16:08Z</time>
      </trkpt>
      <trkpt lat="40.305500" lon="-4.856517">
        <ele>2395.0</ele>
        <time>2018-09-16T13:16:09Z</time>
      </trkpt>
      <trkpt lat="40.305467" lon="-4.856433">
        <ele>2392.0</ele>
        <time>2018-09-16T13:16:10Z</time>
      </trkpt>
      <trkpt lat="40.305433" lon="-4.856333">
        <ele>2388.0</ele>
        <time>2018-09-16T13:16:11Z</time>
      </trkpt>
      <trkpt lat="40.305400" lon="-4.856250">
        <ele>2385.0</ele>
        <time>2018-09-16T13:16:12Z</time>
      </trkpt>
      <trkpt lat="40.305367" lon="-4.856167">
        <ele>2383.0</ele>
        <time>2018-09-16T13:16:13Z</time>
      </trkpt>
      <trkpt lat="40.305333" lon="-4.856083">
        <ele>2380.0</ele>
        <time>2018-09-16T13:16:14Z</time>
      </trkpt>
      <trkpt lat="40.305300" lon="-4.856000">
        <ele>2376.0</ele>
        <time>2018-09-16T13:16:15Z</time>
      </trkpt>
      <trkpt lat="40.305267" lon="-4.855900">
        <ele>2373.0</ele>
        <time>2018-09-16T13:16:16Z</time>
      </trkpt>
      <trkpt lat="40.305217" lon="-4.855800">
        <ele>2370.0</ele>
        <time>2018-09-16T13:16:17Z</time>
      </trkpt>
      <trkpt lat="40.305183" lon="-4.855700">
        <ele>2367.0</ele>
        <time>2018-09-16T13:16:18Z</time>
      </trkpt>
      <trkpt lat="40.305150" lon="-4.855617">
        <ele>2365.0</ele>
        <time>2018-09-16T13:16:19Z</time>
      </trkpt>
      <trkpt lat="40.305100" lon="-4.855517">
        <ele>2363.0</ele>
        <time>2018-09-16T13:16:20Z</time>
      </trkpt>
      <trkpt lat="40.305067" lon="-4.855417">
        <ele>2361.0</ele>
        <time>2018-09-16T13:16:21Z</time>
      </trkpt>
      <trkpt lat="40.305033" lon="-4.855317">
        <ele>2359.0</ele>
        <time>2018-09-16T13:16:22Z</time>
      </trkpt>
      <trkpt lat="40.304983" lon="-4.855233">
        <ele>2357.0</ele>
        <time>2018-09-16T13:16:23Z</time>
      </trkpt>
      <trkpt lat="40.304950" lon="-4.855133">
        <ele>2355.0</ele>
        <time>2018-09-16T13:16:24Z</time>
      </trkpt>
      <trkpt lat="40.304917" lon="-4.855050">
        <ele>2354.0</ele>
        <time>2018-09-16T13:16:25Z</time>
      </trkpt>
      <trkpt lat="40.304900" lon="-4.854967">
        <ele>2352.0</ele>
        <time>2018-09-16T13:16:26Z</time>
      </trkpt>
      <trkpt lat="40.304850" lon="-4.854867">
        <ele>2351.0</ele>
        <time>2018-09-16T13:16:27Z</time>
      </trkpt>
      <trkpt lat="40.304817" lon="-4.854783">
        <ele>2352.0</ele>
        <time>2018-09-16T13:16:28Z</time>
      </trkpt>
      <trkpt lat="40.304783" lon="-4.854683">
        <ele>2352.0</ele>
        <time>2018-09-16T13:16:29Z</time>
      </trkpt>
      <trkpt lat="40.304750" lon="-4.854600">
        <ele>2352.0</ele>
        <time>2018-09-16T13:16:30Z</time>
      </trkpt>
      <trkpt lat="40.304717" lon="-4.854517">
        <ele>2351.0</ele>
        <time>2018-09-16T13:16:31Z</time>
      </trkpt>
      <trkpt lat="40.304700" lon="-4.854433">
        <ele>2351.0</ele>
        <time>2018-09-16T13:16:32Z</time>
      </trkpt>
      <trkpt lat="40.304667" lon="-4.854350">
        <ele>2351.0</ele>
        <time>2018-09-16T13:16:33Z</time>
      </trkpt>
      <trkpt lat="40.304617" lon="-4.854250">
        <ele>2350.0</ele>
        <time>2018-09-16T13:16:34Z</time>
      </trkpt>
      <trkpt lat="40.304583" lon="-4.854150">
        <ele>2350.0</ele>
        <time>2018-09-16T13:16:35Z</time>
      </trkpt>
      <trkpt lat="40.304550" lon="-4.854050">
        <ele>2349.0</ele>
        <time>2018-09-16T13:16:36Z</time>
      </trkpt>
      <trkpt lat="40.304517" lon="-4.853950">
        <ele>2349.0</ele>
        <time>2018-09-16T13:16:37Z</time>
      </trkpt>
      <trkpt lat="40.304483" lon="-4.853867">
        <ele>2349.0</ele>
        <time>2018-09-16T13:16:38Z</time>
      </trkpt>
      <trkpt lat="40.304450" lon="-4.853783">
        <ele>2349.0</ele>
        <time>2018-09-16T13:16:39Z</time>
      </trkpt>
      <trkpt lat="40.304433" lon="-4.853683">
        <ele>2348.0</ele>
        <time>2018-09-16T13:16:40Z</time>
      </trkpt>
      <trkpt lat="40.304400" lon="-4.853583">
        <ele>2348.0</ele>
        <time>2018-09-16T13:16:41Z</time>
      </trkpt>
      <trkpt lat="40.304350" lon="-4.853500">
        <ele>2348.0</ele>
        <time>2018-09-16T13:16:42Z</time>
      </trkpt>
      <trkpt lat="40.304267" lon="-4.853417">
        <ele>2347.0</ele>
        <time>2018-09-16T13:16:43Z</time>
      </trkpt>
      <trkpt lat="40.304217" lon="-4.853317">
        <ele>2346.0</ele>
        <time>2018-09-16T13:16:44Z</time>
      </trkpt>
      <trkpt lat="40.304167" lon="-4.853233">
        <ele>2345.0</ele>
        <time>2018-09-16T13:16:45Z</time>
      </trkpt>
      <trkpt lat="40.304117" lon="-4.853150">
        <ele>2344.0</ele>
        <time>2018-09-16T13:16:46Z</time>
      </trkpt>
      <trkpt lat="40.304067" lon="-4.853050">
        <ele>2342.0</ele>
        <time>2018-09-16T13:16:47Z</time>
      </trkpt>
      <trkpt lat="40.304033" lon="-4.852950">
        <ele>2341.0</ele>
        <time>2018-09-16T13:16:48Z</time>
      </trkpt>
      <trkpt lat="40.303983" lon="-4.852850">
        <ele>2340.0</ele>
        <time>2018-09-16T13:16:49Z</time>
      </trkpt>
      <trkpt lat="40.303933" lon="-4.852767">
        <ele>2338.0</ele>
        <time>2018-09-16T13:16:50Z</time>
      </trkpt>
      <trkpt lat="40.303900" lon="-4.852683">
        <ele>2337.0</ele>
        <time>2018-09-16T13:16:51Z</time>
      </trkpt>
      <trkpt lat="40.303867" lon="-4.852600">
        <ele>2336.0</ele>
        <time>2018-09-16T13:16:52Z</time>
      </trkpt>
      <trkpt lat="40.303850" lon="-4.852500">
        <ele>2335.0</ele>
        <time>2018-09-16T13:16:53Z</time>
      </trkpt>
      <trkpt lat="40.303817" lon="-4.852417">
        <ele>2334.0</ele>
        <time>2018-09-16T13:16:54Z</time>
      </trkpt>
      <trkpt lat="40.303800" lon="-4.852333">
        <ele>2333.0</ele>
        <time>2018-09-16T13:16:55Z</time>
      </trkpt>
      <trkpt lat="40.303800" lon="-4.852233">
        <ele>2331.0</ele>
        <time>2018-09-16T13:16:56Z</time>
      </trkpt>
      <trkpt lat="40.303767" lon="-4.852150">
        <ele>2330.0</ele>
        <time>2018-09-16T13:16:57Z</time>
      </trkpt>
      <trkpt lat="40.303733" lon="-4.852067">
        <ele>2328.0</ele>
        <time>2018-09-16T13:16:58Z</time>
      </trkpt>
      <trkpt lat="40.303717" lon="-4.852000">
        <ele>2325.0</ele>
        <time>2018-09-16T13:16:59Z</time>
      </trkpt>
      <trkpt lat="40.303667" lon="-4.851900">
        <ele>2324.0</ele>
        <time>2018-09-16T13:17:00Z</time>
      </trkpt>
      <trkpt lat="40.303633" lon="-4.851817">
        <ele>2320.0</ele>
        <time>2018-09-16T13:17:01Z</time>
      </trkpt>
      <trkpt lat="40.303583" lon="-4.851733">
        <ele>2317.0</ele>
        <time>2018-09-16T13:17:02Z</time>
      </trkpt>
      <trkpt lat="40.303567" lon="-4.851650">
        <ele>2314.0</ele>
        <time>2018-09-16T13:17:03Z</time>
      </trkpt>
      <trkpt lat="40.303517" lon="-4.851550">
        <ele>2310.0</ele>
        <time>2018-09-16T13:17:04Z</time>
      </trkpt>
      <trkpt lat="40.303483" lon="-4.851483">
        <ele>2306.0</ele>
        <time>2018-09-16T13:17:05Z</time>
      </trkpt>
      <trkpt lat="40.303433" lon="-4.851417">
        <ele>2302.0</ele>
        <time>2018-09-16T13:17:06Z</time>
      </trkpt>
      <trkpt lat="40.303400" lon="-4.851333">
        <ele>2298.0</ele>
        <time>2018-09-16T13:17:07Z</time>
      </trkpt>
      <trkpt lat="40.303367" lon="-4.851267">
        <ele>2295.0</ele>
        <time>2018-09-16T13:17:08Z</time>
      </trkpt>
      <trkpt lat="40.303350" lon="-4.851183">
        <ele>2298.0</ele>
        <time>2018-09-16T13:17:09Z</time>
      </trkpt>
      <trkpt lat="40.303333" lon="-4.851100">
        <ele>2297.0</ele>
        <time>2018-09-16T13:17:10Z</time>
      </trkpt>
      <trkpt lat="40.303300" lon="-4.851000">
        <ele>2296.0</ele>
        <time>2018-09-16T13:17:11Z</time>
      </trkpt>
      <trkpt lat="40.303267" lon="-4.850917">
        <ele>2294.0</ele>
        <time>2018-09-16T13:17:12Z</time>
      </trkpt>
      <trkpt lat="40.303233" lon="-4.850817">
        <ele>2292.0</ele>
        <time>2018-09-16T13:17:13Z</time>
      </trkpt>
      <trkpt lat="40.303200" lon="-4.850733">
        <ele>2291.0</ele>
        <time>2018-09-16T13:17:14Z</time>
      </trkpt>
      <trkpt lat="40.303167" lon="-4.850650">
        <ele>2291.0</ele>
        <time>2018-09-16T13:17:15Z</time>
      </trkpt>
      <trkpt lat="40.303133" lon="-4.850583">
        <ele>2290.0</ele>
        <time>2018-09-16T13:17:16Z</time>
      </trkpt>
      <trkpt lat="40.303100" lon="-4.850517">
        <ele>2289.0</ele>
        <time>2018-09-16T13:17:17Z</time>
      </trkpt>
      <trkpt lat="40.303067" lon="-4.850433">
        <ele>2289.0</ele>
        <time>2018-09-16T13:17:18Z</time>
      </trkpt>
      <trkpt lat="40.303017" lon="-4.850350">
        <ele>2288.0</ele>
        <time>2018-09-16T13:17:19Z</time>
      </trkpt>
      <trkpt lat="40.302967" lon="-4.850283">
        <ele>2287.0</ele>
        <time>2018-09-16T13:17:20Z</time>
      </trkpt>
      <trkpt lat="40.302917" lon="-4.850200">
        <ele>2286.0</ele>
        <time>2018-09-16T13:17:21Z</time>
      </trkpt>
      <trkpt lat="40.302867" lon="-4.850100">
        <ele>2285.0</ele>
        <time>2018-09-16T13:17:22Z</time>
      </trkpt>
      <trkpt lat="40.302833" lon="-4.850017">
        <ele>2282.0</ele>
        <time>2018-09-16T13:17:23Z</time>
      </trkpt>
      <trkpt lat="40.302800" lon="-4.849933">
        <ele>2280.0</ele>
        <time>2018-09-16T13:17:24Z</time>
      </trkpt>
      <trkpt lat="40.302767" lon="-4.849867">
        <ele>2277.0</ele>
        <time>2018-09-16T13:17:25Z</time>
      </trkpt>
      <trkpt lat="40.302733" lon="-4.849783">
        <ele>2274.0</ele>
        <time>2018-09-16T13:17:26Z</time>
      </trkpt>
      <trkpt lat="40.302700" lon="-4.849717">
        <ele>2271.0</ele>
        <time>2018-09-16T13:17:27Z</time>
      </trkpt>
      <trkpt lat="40.302650" lon="-4.849617">
        <ele>2268.0</ele>
        <time>2018-09-16T13:17:28Z</time>
      </trkpt>
      <trkpt lat="40.302600" lon="-4.849533">
        <ele>2271.0</ele>
        <time>2018-09-16T13:17:29Z</time>
      </trkpt>
      <trkpt lat="40.302583" lon="-4.849450">
        <ele>2269.0</ele>
        <time>2018-09-16T13:17:30Z</time>
      </trkpt>
      <trkpt lat="40.302567" lon="-4.849367">
        <ele>2267.0</ele>
        <time>2018-09-16T13:17:31Z</time>
      </trkpt>
      <trkpt lat="40.302533" lon="-4.849283">
        <ele>2264.0</ele>
        <time>2018-09-16T13:17:32Z</time>
      </trkpt>
      <trkpt lat="40.302483" lon="-4.849200">
        <ele>2261.0</ele>
        <time>2018-09-16T13:17:33Z</time>
      </trkpt>
      <trkpt lat="40.302450" lon="-4.849117">
        <ele>2259.0</ele>
        <time>2018-09-16T13:17:34Z</time>
      </trkpt>
      <trkpt lat="40.302417" lon="-4.849033">
        <ele>2256.0</ele>
        <time>2018-09-16T13:17:35Z</time>
      </trkpt>
      <trkpt lat="40.302383" lon="-4.848967">
        <ele>2252.0</ele>
        <time>2018-09-16T13:17:36Z</time>
      </trkpt>
      <trkpt lat="40.302350" lon="-4.848900">
        <ele>2247.0</ele>
        <time>2018-09-16T13:17:37Z</time>
      </trkpt>
      <trkpt lat="40.302300" lon="-4.848850">
        <ele>2242.0</ele>
        <time>2018-09-16T13:17:38Z</time>
      </trkpt>
      <trkpt lat="40.302250" lon="-4.848800">
        <ele>2236.0</ele>
        <time>2018-09-16T13:17:39Z</time>
      </trkpt>
      <trkpt lat="40.302217" lon="-4.848733">
        <ele>2231.0</ele>
        <time>2018-09-16T13:17:40Z</time>
      </trkpt>
      <trkpt lat="40.302183" lon="-4.848650">
        <ele>2226.0</ele>
        <time>2018-09-16T13:17:41Z</time>
      </trkpt>
      <trkpt lat="40.302150" lon="-4.848583">
        <ele>2222.0</ele>
        <time>2018-09-16T13:17:42Z</time>
      </trkpt>
      <trkpt lat="40.302100" lon="-4.848517">
        <ele>2218.0</ele>
        <time>2018-09-16T13:17:43Z</time>
      </trkpt>
      <trkpt lat="40.302067" lon="-4.848450">
        <ele>2214.0</ele>
        <time>2018-09-16T13:17:44Z</time>
      </trkpt>
      <trkpt lat="40.302017" lon="-4.848383">
        <ele>2210.0</ele>
        <time>2018-09-16T13:17:45Z</time>
      </trkpt>
      <trkpt lat="40.302000" lon="-4.848300">
        <ele>2207.0</ele>
        <time>2018-09-16T13:17:46Z</time>
      </trkpt>
      <trkpt lat="40.301967" lon="-4.848217">
        <ele>2204.0</ele>
        <time>2018-09-16T13:17:47Z</time>
      </trkpt>
      <trkpt lat="40.301933" lon="-4.848150">
        <ele>2202.0</ele>
        <time>2018-09-16T13:17:48Z</time>
      </trkpt>
      <trkpt lat="40.301900" lon="-4.848067">
        <ele>2199.0</ele>
        <time>2018-09-16T13:17:49Z</time>
      </trkpt>
      <trkpt lat="40.301867" lon="-4.848000">
        <ele>2197.0</ele>
        <time>2018-09-16T13:17:50Z</time>
      </trkpt>
      <trkpt lat="40.301833" lon="-4.847883">
        <ele>2194.0</ele>
        <time>2018-09-16T13:17:51Z</time>
      </trkpt>
      <trkpt lat="40.301800" lon="-4.847800">
        <ele>2196.0</ele>
        <time>2018-09-16T13:17:52Z</time>
      </trkpt>
      <trkpt lat="40.301767" lon="-4.847717">
        <ele>2196.0</ele>
        <time>2018-09-16T13:17:53Z</time>
      </trkpt>
      <trkpt lat="40.301733" lon="-4.847617">
        <ele>2196.0</ele>
        <time>2018-09-16T13:17:54Z</time>
      </trkpt>
      <trkpt lat="40.301700" lon="-4.847533">
        <ele>2196.0</ele>
        <time>2018-09-16T13:17:55Z</time>
      </trkpt>
      <trkpt lat="40.301683" lon="-4.847433">
        <ele>2195.0</ele>
        <time>2018-09-16T13:17:56Z</time>
      </trkpt>
      <trkpt lat="40.301650" lon="-4.847350">
        <ele>2195.0</ele>
        <time>2018-09-16T13:17:57Z</time>
      </trkpt>
      <trkpt lat="40.301617" lon="-4.847267">
        <ele>2194.0</ele>
        <time>2018-09-16T13:17:58Z</time>
      </trkpt>
      <trkpt lat="40.301567" lon="-4.847183">
        <ele>2194.0</ele>
        <time>2018-09-16T13:17:59Z</time>
      </trkpt>
      <trkpt lat="40.301533" lon="-4.847100">
        <ele>2193.0</ele>
        <time>2018-09-16T13:18:00Z</time>
      </trkpt>
      <trkpt lat="40.301500" lon="-4.847033">
        <ele>2192.0</ele>
        <time>2018-09-16T13:18:01Z</time>
      </trkpt>
      <trkpt lat="40.301467" lon="-4.846950">
        <ele>2192.0</ele>
        <time>2018-09-16T13:18:02Z</time>
      </trkpt>
      <trkpt lat="40.301433" lon="-4.846867">
        <ele>2191.0</ele>
        <time>2018-09-16T13:18:03Z</time>
      </trkpt>
      <trkpt lat="40.301383" lon="-4.846767">
        <ele>2190.0</ele>
        <time>2018-09-16T13:18:04Z</time>
      </trkpt>
      <trkpt lat="40.301350" lon="-4.846683">
        <ele>2189.0</ele>
        <time>2018-09-16T13:18:05Z</time>
      </trkpt>
      <trkpt lat="40.301317" lon="-4.846600">
        <ele>2188.0</ele>
        <time>2018-09-16T13:18:06Z</time>
      </trkpt>
      <trkpt lat="40.301267" lon="-4.846517">
        <ele>2187.0</ele>
        <time>2018-09-16T13:18:07Z</time>
      </trkpt>
      <trkpt lat="40.301233" lon="-4.846417">
        <ele>2186.0</ele>
        <time>2018-09-16T13:18:08Z</time>
      </trkpt>
      <trkpt lat="40.301200" lon="-4.846317">
        <ele>2185.0</ele>
        <time>2018-09-16T13:18:09Z</time>
      </trkpt>
      <trkpt lat="40.301133" lon="-4.846233">
        <ele>2183.0</ele>
        <time>2018-09-16T13:18:10Z</time>
      </trkpt>
      <trkpt lat="40.301100" lon="-4.846150">
        <ele>2180.0</ele>
        <time>2018-09-16T13:18:11Z</time>
      </trkpt>
      <trkpt lat="40.301033" lon="-4.846083">
        <ele>2178.0</ele>
        <time>2018-09-16T13:18:12Z</time>
      </trkpt>
      <trkpt lat="40.300983" lon="-4.846000">
        <ele>2173.0</ele>
        <time>2018-09-16T13:18:13Z</time>
      </trkpt>
      <trkpt lat="40.300933" lon="-4.845917">
        <ele>2170.0</ele>
        <time>2018-09-16T13:18:14Z</time>
      </trkpt>
      <trkpt lat="40.300883" lon="-4.845833">
        <ele>2167.0</ele>
        <time>2018-09-16T13:18:15Z</time>
      </trkpt>
      <trkpt lat="40.300850" lon="-4.845750">
        <ele>2165.0</ele>
        <time>2018-09-16T13:18:16Z</time>
      </trkpt>
      <trkpt lat="40.300817" lon="-4.845683">
        <ele>2163.0</ele>
        <time>2018-09-16T13:18:17Z</time>
      </trkpt>
      <trkpt lat="40.300783" lon="-4.845600">
        <ele>2161.0</ele>
        <time>2018-09-16T13:18:18Z</time>
      </trkpt>
      <trkpt lat="40.300733" lon="-4.845517">
        <ele>2159.0</ele>
        <time>2018-09-16T13:18:19Z</time>
      </trkpt>
      <trkpt lat="40.300700" lon="-4.845433">
        <ele>2157.0</ele>
        <time>2018-09-16T13:18:20Z</time>
      </trkpt>
      <trkpt lat="40.300667" lon="-4.845333">
        <ele>2155.0</ele>
        <time>2018-09-16T13:18:21Z</time>
      </trkpt>
      <trkpt lat="40.300633" lon="-4.845250">
        <ele>2154.0</ele>
        <time>2018-09-16T13:18:22Z</time>
      </trkpt>
      <trkpt lat="40.300600" lon="-4.845167">
        <ele>2152.0</ele>
        <time>2018-09-16T13:18:23Z</time>
      </trkpt>
      <trkpt lat="40.300567" lon="-4.845067">
        <ele>2150.0</ele>
        <time>2018-09-16T13:18:24Z</time>
      </trkpt>
      <trkpt lat="40.300533" lon="-4.844983">
        <ele>2148.0</ele>
        <time>2018-09-16T13:18:25Z</time>
      </trkpt>
      <trkpt lat="40.300500" lon="-4.844900">
        <ele>2147.0</ele>
        <time>2018-09-16T13:18:26Z</time>
      </trkpt>
      <trkpt lat="40.300467" lon="-4.844817">
        <ele>2145.0</ele>
        <time>2018-09-16T13:18:27Z</time>
      </trkpt>
      <trkpt lat="40.300417" lon="-4.844717">
        <ele>2143.0</ele>
        <time>2018-09-16T13:18:28Z</time>
      </trkpt>
      <trkpt lat="40.300367" lon="-4.844633">
        <ele>2142.0</ele>
        <time>2018-09-16T13:18:29Z</time>
      </trkpt>
      <trkpt lat="40.300333" lon="-4.844567">
        <ele>2141.0</ele>
        <time>2018-09-16T13:18:30Z</time>
      </trkpt>
      <trkpt lat="40.300283" lon="-4.844483">
        <ele>2141.0</ele>
        <time>2018-09-16T13:18:31Z</time>
      </trkpt>
      <trkpt lat="40.300233" lon="-4.844400">
        <ele>2140.0</ele>
        <time>2018-09-16T13:18:32Z</time>
      </trkpt>
      <trkpt lat="40.300200" lon="-4.844317">
        <ele>2139.0</ele>
        <time>2018-09-16T13:18:33Z</time>
      </trkpt>
      <trkpt lat="40.300150" lon="-4.844233">
        <ele>2138.0</ele>
        <time>2018-09-16T13:18:34Z</time>
      </trkpt>
      <trkpt lat="40.300100" lon="-4.844150">
        <ele>2137.0</ele>
        <time>2018-09-16T13:18:35Z</time>
      </trkpt>
      <trkpt lat="40.300050" lon="-4.844067">
        <ele>2137.0</ele>
        <time>2018-09-16T13:18:36Z</time>
      </trkpt>
      <trkpt lat="40.300000" lon="-4.844000">
        <ele>2136.0</ele>
        <time>2018-09-16T13:18:37Z</time>
      </trkpt>
      <trkpt lat="40.299967" lon="-4.843917">
        <ele>2136.0</ele>
        <time>2018-09-16T13:18:38Z</time>
      </trkpt>
      <trkpt lat="40.299917" lon="-4.843833">
        <ele>2135.0</ele>
        <time>2018-09-16T13:18:39Z</time>
      </trkpt>
      <trkpt lat="40.299867" lon="-4.843750">
        <ele>2134.0</ele>
        <time>2018-09-16T13:18:40Z</time>
      </trkpt>
      <trkpt lat="40.299833" lon="-4.843650">
        <ele>2133.0</ele>
        <time>2018-09-16T13:18:41Z</time>
      </trkpt>
      <trkpt lat="40.299783" lon="-4.843567">
        <ele>2132.0</ele>
        <time>2018-09-16T13:18:42Z</time>
      </trkpt>
      <trkpt lat="40.299733" lon="-4.843483">
        <ele>2131.0</ele>
        <time>2018-09-16T13:18:43Z</time>
      </trkpt>
      <trkpt lat="40.299700" lon="-4.843400">
        <ele>2131.0</ele>
        <time>2018-09-16T13:18:44Z</time>
      </trkpt>
      <trkpt lat="40.299667" lon="-4.843317">
        <ele>2130.0</ele>
        <time>2018-09-16T13:18:45Z</time>
      </trkpt>
      <trkpt lat="40.299617" lon="-4.843233">
        <ele>2129.0</ele>
        <time>2018-09-16T13:18:46Z</time>
      </trkpt>
      <trkpt lat="40.299583" lon="-4.843150">
        <ele>2128.0</ele>
        <time>2018-09-16T13:18:47Z</time>
      </trkpt>
      <trkpt lat="40.299550" lon="-4.843050">
        <ele>2127.0</ele>
        <time>2018-09-16T13:18:48Z</time>
      </trkpt>
      <trkpt lat="40.299500" lon="-4.842950">
        <ele>2127.0</ele>
        <time>2018-09-16T13:18:49Z</time>
      </trkpt>
      <trkpt lat="40.299467" lon="-4.842850">
        <ele>2127.0</ele>
        <time>2018-09-16T13:18:50Z</time>
      </trkpt>
      <trkpt lat="40.299450" lon="-4.842767">
        <ele>2127.0</ele>
        <time>2018-09-16T13:18:51Z</time>
      </trkpt>
      <trkpt lat="40.299417" lon="-4.842667">
        <ele>2126.0</ele>
        <time>2018-09-16T13:18:52Z</time>
      </trkpt>
      <trkpt lat="40.299383" lon="-4.842583">
        <ele>2126.0</ele>
        <time>2018-09-16T13:18:53Z</time>
      </trkpt>
      <trkpt lat="40.299350" lon="-4.842483">
        <ele>2126.0</ele>
        <time>2018-09-16T13:18:54Z</time>
      </trkpt>
      <trkpt lat="40.299317" lon="-4.842383">
        <ele>2125.0</ele>
        <time>2018-09-16T13:18:55Z</time>
      </trkpt>
      <trkpt lat="40.299300" lon="-4.842283">
        <ele>2125.0</ele>
        <time>2018-09-16T13:18:56Z</time>
      </trkpt>
      <trkpt lat="40.299267" lon="-4.842183">
        <ele>2124.0</ele>
        <time>2018-09-16T13:18:57Z</time>
      </trkpt>
      <trkpt lat="40.299233" lon="-4.842083">
        <ele>2124.0</ele>
        <time>2018-09-16T13:18:58Z</time>
      </trkpt>
      <trkpt lat="40.299217" lon="-4.841983">
        <ele>2124.0</ele>
        <time>2018-09-16T13:18:59Z</time>
      </trkpt>
      <trkpt lat="40.299183" lon="-4.841883">
        <ele>2123.0</ele>
        <time>2018-09-16T13:19:00Z</time>
      </trkpt>
      <trkpt lat="40.299150" lon="-4.841783">
        <ele>2123.0</ele>
        <time>2018-09-16T13:19:01Z</time>
      </trkpt>
      <trkpt lat="40.299117" lon="-4.841700">
        <ele>2123.0</ele>
        <time>2018-09-16T13:19:02Z</time>
      </trkpt>
      <trkpt lat="40.299083" lon="-4.841600">
        <ele>2122.0</ele>
        <time>2018-09-16T13:19:03Z</time>
      </trkpt>
      <trkpt lat="40.299050" lon="-4.841517">
        <ele>2122.0</ele>
        <time>2018-09-16T13:19:04Z</time>
      </trkpt>
      <trkpt lat="40.299017" lon="-4.841417">
        <ele>2121.0</ele>
        <time>2018-09-16T13:19:05Z</time>
      </trkpt>
      <trkpt lat="40.298983" lon="-4.841333">
        <ele>2120.0</ele>
        <time>2018-09-16T13:19:06Z</time>
      </trkpt>
      <trkpt lat="40.298950" lon="-4.841233">
        <ele>2119.0</ele>
        <time>2018-09-16T13:19:07Z</time>
      </trkpt>
      <trkpt lat="40.298900" lon="-4.841133">
        <ele>2117.0</ele>
        <time>2018-09-16T13:19:08Z</time>
      </trkpt>
      <trkpt lat="40.298867" lon="-4.841050">
        <ele>2115.0</ele>
        <time>2018-09-16T13:19:09Z</time>
      </trkpt>
      <trkpt lat="40.298817" lon="-4.840967">
        <ele>2113.0</ele>
        <time>2018-09-16T13:19:10Z</time>
      </trkpt>
      <trkpt lat="40.298767" lon="-4.840883">
        <ele>2111.0</ele>
        <time>2018-09-16T13:19:11Z</time>
      </trkpt>
      <trkpt lat="40.298717" lon="-4.840817">
        <ele>2108.0</ele>
        <time>2018-09-16T13:19:12Z</time>
      </trkpt>
      <trkpt lat="40.298683" lon="-4.840750">
        <ele>2105.0</ele>
        <time>2018-09-16T13:19:13Z</time>
      </trkpt>
      <trkpt lat="40.298633" lon="-4.840667">
        <ele>2102.0</ele>
        <time>2018-09-16T13:19:14Z</time>
      </trkpt>
      <trkpt lat="40.298600" lon="-4.840583">
        <ele>2099.0</ele>
        <time>2018-09-16T13:19:15Z</time>
      </trkpt>
      <trkpt lat="40.298550" lon="-4.840500">
        <ele>2096.0</ele>
        <time>2018-09-16T13:19:16Z</time>
      </trkpt>
      <trkpt lat="40.298517" lon="-4.840433">
        <ele>2093.0</ele>
        <time>2018-09-16T13:19:17Z</time>
      </trkpt>
      <trkpt lat="40.298483" lon="-4.840350">
        <ele>2090.0</ele>
        <time>2018-09-16T13:19:18Z</time>
      </trkpt>
      <trkpt lat="40.298450" lon="-4.840267">
        <ele>2087.0</ele>
        <time>2018-09-16T13:19:19Z</time>
      </trkpt>
      <trkpt lat="40.298400" lon="-4.840200">
        <ele>2084.0</ele>
        <time>2018-09-16T13:19:20Z</time>
      </trkpt>
      <trkpt lat="40.298367" lon="-4.840117">
        <ele>2082.0</ele>
        <time>2018-09-16T13:19:21Z</time>
      </trkpt>
      <trkpt lat="40.298317" lon="-4.840050">
        <ele>2079.0</ele>
        <time>2018-09-16T13:19:22Z</time>
      </trkpt>
      <trkpt lat="40.298267" lon="-4.839983">
        <ele>2076.0</ele>
        <time>2018-09-16T13:19:23Z</time>
      </trkpt>
      <trkpt lat="40.298233" lon="-4.839900">
        <ele>2073.0</ele>
        <time>2018-09-16T13:19:24Z</time>
      </trkpt>
      <trkpt lat="40.298200" lon="-4.839833">
        <ele>2069.0</ele>
        <time>2018-09-16T13:19:25Z</time>
      </trkpt>
      <trkpt lat="40.298167" lon="-4.839767">
        <ele>2067.0</ele>
        <time>2018-09-16T13:19:26Z</time>
      </trkpt>
      <trkpt lat="40.298117" lon="-4.839683">
        <ele>2064.0</ele>
        <time>2018-09-16T13:19:27Z</time>
      </trkpt>
      <trkpt lat="40.298083" lon="-4.839600">
        <ele>2061.0</ele>
        <time>2018-09-16T13:19:28Z</time>
      </trkpt>
      <trkpt lat="40.298050" lon="-4.839517">
        <ele>2064.0</ele>
        <time>2018-09-16T13:19:29Z</time>
      </trkpt>
      <trkpt lat="40.298000" lon="-4.839450">
        <ele>2062.0</ele>
        <time>2018-09-16T13:19:30Z</time>
      </trkpt>
      <trkpt lat="40.297967" lon="-4.839383">
        <ele>2061.0</ele>
        <time>2018-09-16T13:19:31Z</time>
      </trkpt>
      <trkpt lat="40.297933" lon="-4.839317">
        <ele>2059.0</ele>
        <time>2018-09-16T13:19:32Z</time>
      </trkpt>
      <trkpt lat="40.297900" lon="-4.839250">
        <ele>2057.0</ele>
        <time>2018-09-16T13:19:33Z</time>
      </trkpt>
      <trkpt lat="40.297867" lon="-4.839183">
        <ele>2055.0</ele>
        <time>2018-09-16T13:19:34Z</time>
      </trkpt>
      <trkpt lat="40.297817" lon="-4.839100">
        <ele>2052.0</ele>
        <time>2018-09-16T13:19:35Z</time>
      </trkpt>
      <trkpt lat="40.297783" lon="-4.839033">
        <ele>2049.0</ele>
        <time>2018-09-16T13:19:36Z</time>
      </trkpt>
      <trkpt lat="40.297750" lon="-4.838967">
        <ele>2046.0</ele>
        <time>2018-09-16T13:19:37Z</time>
      </trkpt>
      <trkpt lat="40.297717" lon="-4.838883">
        <ele>2043.0</ele>
        <time>2018-09-16T13:19:38Z</time>
      </trkpt>
      <trkpt lat="40.297683" lon="-4.838817">
        <ele>2040.0</ele>
        <time>2018-09-16T13:19:39Z</time>
      </trkpt>
      <trkpt lat="40.297633" lon="-4.838750">
        <ele>2036.0</ele>
        <time>2018-09-16T13:19:40Z</time>
      </trkpt>
      <trkpt lat="40.297583" lon="-4.838683">
        <ele>2031.0</ele>
        <time>2018-09-16T13:19:41Z</time>
      </trkpt>
      <trkpt lat="40.297550" lon="-4.838617">
        <ele>2028.0</ele>
        <time>2018-09-16T13:19:42Z</time>
      </trkpt>
      <trkpt lat="40.297517" lon="-4.838550">
        <ele>2025.0</ele>
        <time>2018-09-16T13:19:43Z</time>
      </trkpt>
      <trkpt lat="40.297483" lon="-4.838500">
        <ele>2022.0</ele>
        <time>2018-09-16T13:19:44Z</time>
      </trkpt>
      <trkpt lat="40.297450" lon="-4.838433">
        <ele>2018.0</ele>
        <time>2018-09-16T13:19:45Z</time>
      </trkpt>
      <trkpt lat="40.297417" lon="-4.838367">
        <ele>2016.0</ele>
        <time>2018-09-16T13:19:46Z</time>
      </trkpt>
      <trkpt lat="40.297383" lon="-4.838300">
        <ele>2013.0</ele>
        <time>2018-09-16T13:19:47Z</time>
      </trkpt>
      <trkpt lat="40.297350" lon="-4.838233">
        <ele>2012.0</ele>
        <time>2018-09-16T13:19:48Z</time>
      </trkpt>
      <trkpt lat="40.297333" lon="-4.838167">
        <ele>2010.0</ele>
        <time>2018-09-16T13:19:49Z</time>
      </trkpt>
      <trkpt lat="40.297300" lon="-4.838100">
        <ele>2008.0</ele>
        <time>2018-09-16T13:19:50Z</time>
      </trkpt>
      <trkpt lat="40.297267" lon="-4.838017">
        <ele>2006.0</ele>
        <time>2018-09-16T13:19:51Z</time>
      </trkpt>
      <trkpt lat="40.297233" lon="-4.837950">
        <ele>2003.0</ele>
        <time>2018-09-16T13:19:52Z</time>
      </trkpt>
      <trkpt lat="40.297200" lon="-4.837867">
        <ele>2000.0</ele>
        <time>2018-09-16T13:19:53Z</time>
      </trkpt>
      <trkpt lat="40.297150" lon="-4.837783">
        <ele>1998.0</ele>
        <time>2018-09-16T13:19:54Z</time>
      </trkpt>
      <trkpt lat="40.297117" lon="-4.837717">
        <ele>1995.0</ele>
        <time>2018-09-16T13:19:55Z</time>
      </trkpt>
      <trkpt lat="40.297083" lon="-4.837650">
        <ele>1993.0</ele>
        <time>2018-09-16T13:19:56Z</time>
      </trkpt>
      <trkpt lat="40.297050" lon="-4.837583">
        <ele>1990.0</ele>
        <time>2018-09-16T13:19:57Z</time>
      </trkpt>
      <trkpt lat="40.297017" lon="-4.837517">
        <ele>1988.0</ele>
        <time>2018-09-16T13:19:58Z</time>
      </trkpt>
      <trkpt lat="40.297000" lon="-4.837450">
        <ele>1988.0</ele>
        <time>2018-09-16T13:19:59Z</time>
      </trkpt>
      <trkpt lat="40.296983" lon="-4.837367">
        <ele>1989.0</ele>
        <time>2018-09-16T13:20:00Z</time>
      </trkpt>
      <trkpt lat="40.296967" lon="-4.837267">
        <ele>1988.0</ele>
        <time>2018-09-16T13:20:01Z</time>
      </trkpt>
      <trkpt lat="40.296933" lon="-4.837183">
        <ele>1986.0</ele>
        <time>2018-09-16T13:20:02Z</time>
      </trkpt>
      <trkpt lat="40.296900" lon="-4.837083">
        <ele>1984.0</ele>
        <time>2018-09-16T13:20:03Z</time>
      </trkpt>
      <trkpt lat="40.296883" lon="-4.837000">
        <ele>1981.0</ele>
        <time>2018-09-16T13:20:04Z</time>
      </trkpt>
      <trkpt lat="40.296867" lon="-4.836917">
        <ele>1978.0</ele>
        <time>2018-09-16T13:20:05Z</time>
      </trkpt>
      <trkpt lat="40.296867" lon="-4.836833">
        <ele>1975.0</ele>
        <time>2018-09-16T13:20:06Z</time>
      </trkpt>
      <trkpt lat="40.296867" lon="-4.836750">
        <ele>1971.0</ele>
        <time>2018-09-16T13:20:07Z</time>
      </trkpt>
      <trkpt lat="40.296867" lon="-4.836667">
        <ele>1968.0</ele>
        <time>2018-09-16T13:20:08Z</time>
      </trkpt>
      <trkpt lat="40.296883" lon="-4.836583">
        <ele>1964.0</ele>
        <time>2018-09-16T13:20:09Z</time>
      </trkpt>
      <trkpt lat="40.296883" lon="-4.836500">
        <ele>1960.0</ele>
        <time>2018-09-16T13:20:10Z</time>
      </trkpt>
      <trkpt lat="40.296900" lon="-4.836400">
        <ele>1957.0</ele>
        <time>2018-09-16T13:20:11Z</time>
      </trkpt>
      <trkpt lat="40.296917" lon="-4.836317">
        <ele>1953.0</ele>
        <time>2018-09-16T13:20:12Z</time>
      </trkpt>
      <trkpt lat="40.296933" lon="-4.836233">
        <ele>1950.0</ele>
        <time>2018-09-16T13:20:13Z</time>
      </trkpt>
      <trkpt lat="40.296950" lon="-4.836150">
        <ele>1947.0</ele>
        <time>2018-09-16T13:20:14Z</time>
      </trkpt>
      <trkpt lat="40.296967" lon="-4.836067">
        <ele>1944.0</ele>
        <time>2018-09-16T13:20:15Z</time>
      </trkpt>
      <trkpt lat="40.296983" lon="-4.835983">
        <ele>1940.0</ele>
        <time>2018-09-16T13:20:16Z</time>
      </trkpt>
      <trkpt lat="40.296983" lon="-4.835883">
        <ele>1937.0</ele>
        <time>2018-09-16T13:20:17Z</time>
      </trkpt>
      <trkpt lat="40.297000" lon="-4.835817">
        <ele>1933.0</ele>
        <time>2018-09-16T13:20:18Z</time>
      </trkpt>
      <trkpt lat="40.297000" lon="-4.835750">
        <ele>1930.0</ele>
        <time>2018-09-16T13:20:19Z</time>
      </trkpt>
      <trkpt lat="40.297000" lon="-4.835683">
        <ele>1925.0</ele>
        <time>2018-09-16T13:20:20Z</time>
      </trkpt>
      <trkpt lat="40.297017" lon="-4.835600">
        <ele>1920.0</ele>
        <time>2018-09-16T13:20:21Z</time>
      </trkpt>
      <trkpt lat="40.297033" lon="-4.835500">
        <ele>1915.0</ele>
        <time>2018-09-16T13:20:22Z</time>
      </trkpt>
      <trkpt lat="40.297033" lon="-4.835417">
        <ele>1910.0</ele>
        <time>2018-09-16T13:20:23Z</time>
      </trkpt>
      <trkpt lat="40.297033" lon="-4.835333">
        <ele>1906.0</ele>
        <time>2018-09-16T13:20:24Z</time>
      </trkpt>
      <trkpt lat="40.297033" lon="-4.835250">
        <ele>1902.0</ele>
        <time>2018-09-16T13:20:25Z</time>
      </trkpt>
      <trkpt lat="40.297033" lon="-4.835183">
        <ele>1898.0</ele>
        <time>2018-09-16T13:20:26Z</time>
      </trkpt>
      <trkpt lat="40.297050" lon="-4.835100">
        <ele>1893.0</ele>
        <time>2018-09-16T13:20:27Z</time>
      </trkpt>
      <trkpt lat="40.297050" lon="-4.835000">
        <ele>1889.0</ele>
        <time>2018-09-16T13:20:28Z</time>
      </trkpt>
      <trkpt lat="40.297033" lon="-4.834917">
        <ele>1885.0</ele>
        <time>2018-09-16T13:20:29Z</time>
      </trkpt>
      <trkpt lat="40.297033" lon="-4.834833">
        <ele>1882.0</ele>
        <time>2018-09-16T13:20:30Z</time>
      </trkpt>
      <trkpt lat="40.297017" lon="-4.834767">
        <ele>1879.0</ele>
        <time>2018-09-16T13:20:31Z</time>
      </trkpt>
      <trkpt lat="40.297000" lon="-4.834700">
        <ele>1876.0</ele>
        <time>2018-09-16T13:20:32Z</time>
      </trkpt>
      <trkpt lat="40.297000" lon="-4.834617">
        <ele>1873.0</ele>
        <time>2018-09-16T13:20:33Z</time>
      </trkpt>
      <trkpt lat="40.296983" lon="-4.834533">
        <ele>1869.0</ele>
        <time>2018-09-16T13:20:34Z</time>
      </trkpt>
      <trkpt lat="40.296967" lon="-4.834433">
        <ele>1873.0</ele>
        <time>2018-09-16T13:20:35Z</time>
      </trkpt>
      <trkpt lat="40.296950" lon="-4.834333">
        <ele>1873.0</ele>
        <time>2018-09-16T13:20:36Z</time>
      </trkpt>
      <trkpt lat="40.296917" lon="-4.834250">
        <ele>1873.0</ele>
        <time>2018-09-16T13:20:37Z</time>
      </trkpt>
      <trkpt lat="40.296900" lon="-4.834100">
        <ele>1871.0</ele>
        <time>2018-09-16T13:20:39Z</time>
      </trkpt>
      <trkpt lat="40.296850" lon="-4.833917">
        <ele>1867.0</ele>
        <time>2018-09-16T13:20:41Z</time>
      </trkpt>
      <trkpt lat="40.296817" lon="-4.833817">
        <ele>1864.0</ele>
        <time>2018-09-16T13:20:42Z</time>
      </trkpt>
      <trkpt lat="40.296767" lon="-4.833750">
        <ele>1860.0</ele>
        <time>2018-09-16T13:20:43Z</time>
      </trkpt>
      <trkpt lat="40.296733" lon="-4.833667">
        <ele>1855.0</ele>
        <time>2018-09-16T13:20:44Z</time>
      </trkpt>
      <trkpt lat="40.296700" lon="-4.833617">
        <ele>1848.0</ele>
        <time>2018-09-16T13:20:45Z</time>
      </trkpt>
      <trkpt lat="40.296650" lon="-4.833517">
        <ele>1849.0</ele>
        <time>2018-09-16T13:20:46Z</time>
      </trkpt>
      <trkpt lat="40.296617" lon="-4.833433">
        <ele>1843.0</ele>
        <time>2018-09-16T13:20:47Z</time>
      </trkpt>
      <trkpt lat="40.296600" lon="-4.833350">
        <ele>1838.0</ele>
        <time>2018-09-16T13:20:48Z</time>
      </trkpt>
      <trkpt lat="40.296583" lon="-4.833267">
        <ele>1835.0</ele>
        <time>2018-09-16T13:20:49Z</time>
      </trkpt>
      <trkpt lat="40.296567" lon="-4.833217">
        <ele>1832.0</ele>
        <time>2018-09-16T13:20:50Z</time>
      </trkpt>
      <trkpt lat="40.296533" lon="-4.833150">
        <ele>1829.0</ele>
        <time>2018-09-16T13:20:51Z</time>
      </trkpt>
      <trkpt lat="40.296500" lon="-4.833067">
        <ele>1826.0</ele>
        <time>2018-09-16T13:20:52Z</time>
      </trkpt>
      <trkpt lat="40.296483" lon="-4.832983">
        <ele>1823.0</ele>
        <time>2018-09-16T13:20:53Z</time>
      </trkpt>
      <trkpt lat="40.296450" lon="-4.832900">
        <ele>1821.0</ele>
        <time>2018-09-16T13:20:54Z</time>
      </trkpt>
      <trkpt lat="40.296433" lon="-4.832833">
        <ele>1819.0</ele>
        <time>2018-09-16T13:20:55Z</time>
      </trkpt>
      <trkpt lat="40.296400" lon="-4.832767">
        <ele>1819.0</ele>
        <time>2018-09-16T13:20:56Z</time>
      </trkpt>
      <trkpt lat="40.296400" lon="-4.832700">
        <ele>1819.0</ele>
        <time>2018-09-16T13:20:57Z</time>
      </trkpt>
      <trkpt lat="40.296383" lon="-4.832650">
        <ele>1819.0</ele>
        <time>2018-09-16T13:20:58Z</time>
      </trkpt>
      <trkpt lat="40.296367" lon="-4.832600">
        <ele>1818.0</ele>
        <time>2018-09-16T13:20:59Z</time>
      </trkpt>
      <trkpt lat="40.296350" lon="-4.832550">
        <ele>1817.0</ele>
        <time>2018-09-16T13:21:00Z</time>
      </trkpt>
      <trkpt lat="40.296333" lon="-4.832500">
        <ele>1816.0</ele>
        <time>2018-09-16T13:21:01Z</time>
      </trkpt>
      <trkpt lat="40.296317" lon="-4.832433">
        <ele>1815.0</ele>
        <time>2018-09-16T13:21:02Z</time>
      </trkpt>
      <trkpt lat="40.296300" lon="-4.832367">
        <ele>1816.0</ele>
        <time>2018-09-16T13:21:03Z</time>
      </trkpt>
      <trkpt lat="40.296283" lon="-4.832300">
        <ele>1816.0</ele>
        <time>2018-09-16T13:21:04Z</time>
      </trkpt>
      <trkpt lat="40.296283" lon="-4.832250">
        <ele>1817.0</ele>
        <time>2018-09-16T13:21:05Z</time>
      </trkpt>
      <trkpt lat="40.296267" lon="-4.832183">
        <ele>1817.0</ele>
        <time>2018-09-16T13:21:06Z</time>
      </trkpt>
      <trkpt lat="40.296267" lon="-4.832117">
        <ele>1816.0</ele>
        <time>2018-09-16T13:21:07Z</time>
      </trkpt>
      <trkpt lat="40.296250" lon="-4.832050">
        <ele>1816.0</ele>
        <time>2018-09-16T13:21:08Z</time>
      </trkpt>
      <trkpt lat="40.296233" lon="-4.831983">
        <ele>1817.0</ele>
        <time>2018-09-16T13:21:09Z</time>
      </trkpt>
      <trkpt lat="40.296217" lon="-4.831917">
        <ele>1817.0</ele>
        <time>2018-09-16T13:21:10Z</time>
      </trkpt>
      <trkpt lat="40.296200" lon="-4.831850">
        <ele>1817.0</ele>
        <time>2018-09-16T13:21:11Z</time>
      </trkpt>
      <trkpt lat="40.296183" lon="-4.831783">
        <ele>1817.0</ele>
        <time>2018-09-16T13:21:12Z</time>
      </trkpt>
      <trkpt lat="40.296167" lon="-4.831700">
        <ele>1817.0</ele>
        <time>2018-09-16T13:21:13Z</time>
      </trkpt>
      <trkpt lat="40.296150" lon="-4.831600">
        <ele>1817.0</ele>
        <time>2018-09-16T13:21:14Z</time>
      </trkpt>
      <trkpt lat="40.296150" lon="-4.831550">
        <ele>1818.0</ele>
        <time>2018-09-16T13:21:15Z</time>
      </trkpt>
      <trkpt lat="40.296133" lon="-4.831500">
        <ele>1820.0</ele>
        <time>2018-09-16T13:21:16Z</time>
      </trkpt>
      <trkpt lat="40.296133" lon="-4.831400">
        <ele>1822.0</ele>
        <time>2018-09-16T13:21:18Z</time>
      </trkpt>
      <trkpt lat="40.296133" lon="-4.831350">
        <ele>1821.0</ele>
        <time>2018-09-16T13:21:19Z</time>
      </trkpt>
      <trkpt lat="40.296133" lon="-4.831317">
        <ele>1821.0</ele>
        <time>2018-09-16T13:21:20Z</time>
      </trkpt>
      <trkpt lat="40.296100" lon="-4.831283">
        <ele>1821.0</ele>
        <time>2018-09-16T13:21:21Z</time>
      </trkpt>
      <trkpt lat="40.296083" lon="-4.831250">
        <ele>1821.0</ele>
        <time>2018-09-16T13:21:22Z</time>
      </trkpt>
      <trkpt lat="40.296050" lon="-4.831200">
        <ele>1821.0</ele>
        <time>2018-09-16T13:21:23Z</time>
      </trkpt>
      <trkpt lat="40.296033" lon="-4.831150">
        <ele>1821.0</ele>
        <time>2018-09-16T13:21:24Z</time>
      </trkpt>
      <trkpt lat="40.296000" lon="-4.831100">
        <ele>1820.0</ele>
        <time>2018-09-16T13:21:25Z</time>
      </trkpt>
      <trkpt lat="40.295967" lon="-4.831033">
        <ele>1819.0</ele>
        <time>2018-09-16T13:21:26Z</time>
      </trkpt>
      <trkpt lat="40.295933" lon="-4.830983">
        <ele>1816.0</ele>
        <time>2018-09-16T13:21:27Z</time>
      </trkpt>
      <trkpt lat="40.295900" lon="-4.830933">
        <ele>1814.0</ele>
        <time>2018-09-16T13:21:28Z</time>
      </trkpt>
      <trkpt lat="40.295850" lon="-4.830867">
        <ele>1810.0</ele>
        <time>2018-09-16T13:21:29Z</time>
      </trkpt>
      <trkpt lat="40.295800" lon="-4.830783">
        <ele>1808.0</ele>
        <time>2018-09-16T13:21:30Z</time>
      </trkpt>
      <trkpt lat="40.295767" lon="-4.830717">
        <ele>1805.0</ele>
        <time>2018-09-16T13:21:31Z</time>
      </trkpt>
      <trkpt lat="40.295733" lon="-4.830650">
        <ele>1802.0</ele>
        <time>2018-09-16T13:21:32Z</time>
      </trkpt>
      <trkpt lat="40.295700" lon="-4.830600">
        <ele>1800.0</ele>
        <time>2018-09-16T13:21:33Z</time>
      </trkpt>
      <trkpt lat="40.295667" lon="-4.830517">
        <ele>1798.0</ele>
        <time>2018-09-16T13:21:34Z</time>
      </trkpt>
      <trkpt lat="40.295633" lon="-4.830450">
        <ele>1800.0</ele>
        <time>2018-09-16T13:21:35Z</time>
      </trkpt>
      <trkpt lat="40.295600" lon="-4.830383">
        <ele>1800.0</ele>
        <time>2018-09-16T13:21:36Z</time>
      </trkpt>
      <trkpt lat="40.295567" lon="-4.830300">
        <ele>1799.0</ele>
        <time>2018-09-16T13:21:37Z</time>
      </trkpt>
      <trkpt lat="40.295533" lon="-4.830217">
        <ele>1798.0</ele>
        <time>2018-09-16T13:21:38Z</time>
      </trkpt>
      <trkpt lat="40.295517" lon="-4.830150">
        <ele>1797.0</ele>
        <time>2018-09-16T13:21:39Z</time>
      </trkpt>
      <trkpt lat="40.295500" lon="-4.830083">
        <ele>1796.0</ele>
        <time>2018-09-16T13:21:40Z</time>
      </trkpt>
      <trkpt lat="40.295467" lon="-4.830017">
        <ele>1794.0</ele>
        <time>2018-09-16T13:21:41Z</time>
      </trkpt>
      <trkpt lat="40.295433" lon="-4.829933">
        <ele>1793.0</ele>
        <time>2018-09-16T13:21:42Z</time>
      </trkpt>
      <trkpt lat="40.295400" lon="-4.829850">
        <ele>1791.0</ele>
        <time>2018-09-16T13:21:43Z</time>
      </trkpt>
      <trkpt lat="40.295350" lon="-4.829783">
        <ele>1791.0</ele>
        <time>2018-09-16T13:21:44Z</time>
      </trkpt>
      <trkpt lat="40.295317" lon="-4.829733">
        <ele>1791.0</ele>
        <time>2018-09-16T13:21:45Z</time>
      </trkpt>
      <trkpt lat="40.295283" lon="-4.829700">
        <ele>1790.0</ele>
        <time>2018-09-16T13:21:46Z</time>
      </trkpt>
      <trkpt lat="40.295267" lon="-4.829650">
        <ele>1788.0</ele>
        <time>2018-09-16T13:21:47Z</time>
      </trkpt>
      <trkpt lat="40.295233" lon="-4.829600">
        <ele>1785.0</ele>
        <time>2018-09-16T13:21:48Z</time>
      </trkpt>
      <trkpt lat="40.295200" lon="-4.829517">
        <ele>1782.0</ele>
        <time>2018-09-16T13:21:49Z</time>
      </trkpt>
      <trkpt lat="40.295150" lon="-4.829417">
        <ele>1779.0</ele>
        <time>2018-09-16T13:21:50Z</time>
      </trkpt>
      <trkpt lat="40.295117" lon="-4.829333">
        <ele>1776.0</ele>
        <time>2018-09-16T13:21:51Z</time>
      </trkpt>
      <trkpt lat="40.295083" lon="-4.829250">
        <ele>1775.0</ele>
        <time>2018-09-16T13:21:52Z</time>
      </trkpt>
      <trkpt lat="40.295050" lon="-4.829183">
        <ele>1775.0</ele>
        <time>2018-09-16T13:21:53Z</time>
      </trkpt>
      <trkpt lat="40.295017" lon="-4.829150">
        <ele>1774.0</ele>
        <time>2018-09-16T13:21:54Z</time>
      </trkpt>
      <trkpt lat="40.294983" lon="-4.829100">
        <ele>1773.0</ele>
        <time>2018-09-16T13:21:55Z</time>
      </trkpt>
      <trkpt lat="40.294950" lon="-4.829050">
        <ele>1772.0</ele>
        <time>2018-09-16T13:21:56Z</time>
      </trkpt>
      <trkpt lat="40.294900" lon="-4.828983">
        <ele>1770.0</ele>
        <time>2018-09-16T13:21:57Z</time>
      </trkpt>
      <trkpt lat="40.294867" lon="-4.828917">
        <ele>1768.0</ele>
        <time>2018-09-16T13:21:58Z</time>
      </trkpt>
      <trkpt lat="40.294817" lon="-4.828850">
        <ele>1766.0</ele>
        <time>2018-09-16T13:21:59Z</time>
      </trkpt>
      <trkpt lat="40.294783" lon="-4.828767">
        <ele>1765.0</ele>
        <time>2018-09-16T13:22:00Z</time>
      </trkpt>
      <trkpt lat="40.294750" lon="-4.828700">
        <ele>1764.0</ele>
        <time>2018-09-16T13:22:01Z</time>
      </trkpt>
      <trkpt lat="40.294717" lon="-4.828633">
        <ele>1763.0</ele>
        <time>2018-09-16T13:22:02Z</time>
      </trkpt>
      <trkpt lat="40.294683" lon="-4.828550">
        <ele>1762.0</ele>
        <time>2018-09-16T13:22:03Z</time>
      </trkpt>
      <trkpt lat="40.294667" lon="-4.828483">
        <ele>1760.0</ele>
        <time>2018-09-16T13:22:04Z</time>
      </trkpt>
      <trkpt lat="40.294633" lon="-4.828400">
        <ele>1759.0</ele>
        <time>2018-09-16T13:22:05Z</time>
      </trkpt>
      <trkpt lat="40.294617" lon="-4.828317">
        <ele>1759.0</ele>
        <time>2018-09-16T13:22:06Z</time>
      </trkpt>
      <trkpt lat="40.294583" lon="-4.828233">
        <ele>1758.0</ele>
        <time>2018-09-16T13:22:07Z</time>
      </trkpt>
      <trkpt lat="40.294550" lon="-4.828150">
        <ele>1758.0</ele>
        <time>2018-09-16T13:22:08Z</time>
      </trkpt>
      <trkpt lat="40.294500" lon="-4.828067">
        <ele>1758.0</ele>
        <time>2018-09-16T13:22:09Z</time>
      </trkpt>
      <trkpt lat="40.294450" lon="-4.828000">
        <ele>1758.0</ele>
        <time>2018-09-16T13:22:10Z</time>
      </trkpt>
      <trkpt lat="40.294417" lon="-4.827917">
        <ele>1758.0</ele>
        <time>2018-09-16T13:22:11Z</time>
      </trkpt>
      <trkpt lat="40.294400" lon="-4.827850">
        <ele>1757.0</ele>
        <time>2018-09-16T13:22:12Z</time>
      </trkpt>
      <trkpt lat="40.294383" lon="-4.827783">
        <ele>1757.0</ele>
        <time>2018-09-16T13:22:13Z</time>
      </trkpt>
      <trkpt lat="40.294367" lon="-4.827717">
        <ele>1758.0</ele>
        <time>2018-09-16T13:22:14Z</time>
      </trkpt>
      <trkpt lat="40.294333" lon="-4.827650">
        <ele>1757.0</ele>
        <time>2018-09-16T13:22:15Z</time>
      </trkpt>
      <trkpt lat="40.294300" lon="-4.827583">
        <ele>1756.0</ele>
        <time>2018-09-16T13:22:16Z</time>
      </trkpt>
      <trkpt lat="40.294283" lon="-4.827517">
        <ele>1756.0</ele>
        <time>2018-09-16T13:22:17Z</time>
      </trkpt>
      <trkpt lat="40.294250" lon="-4.827433">
        <ele>1755.0</ele>
        <time>2018-09-16T13:22:18Z</time>
      </trkpt>
      <trkpt lat="40.294217" lon="-4.827367">
        <ele>1754.0</ele>
        <time>2018-09-16T13:22:19Z</time>
      </trkpt>
      <trkpt lat="40.294183" lon="-4.827283">
        <ele>1754.0</ele>
        <time>2018-09-16T13:22:20Z</time>
      </trkpt>
      <trkpt lat="40.294150" lon="-4.827217">
        <ele>1755.0</ele>
        <time>2018-09-16T13:22:21Z</time>
      </trkpt>
      <trkpt lat="40.294117" lon="-4.827150">
        <ele>1757.0</ele>
        <time>2018-09-16T13:22:22Z</time>
      </trkpt>
      <trkpt lat="40.294100" lon="-4.827100">
        <ele>1758.0</ele>
        <time>2018-09-16T13:22:23Z</time>
      </trkpt>
      <trkpt lat="40.294083" lon="-4.827050">
        <ele>1758.0</ele>
        <time>2018-09-16T13:22:24Z</time>
      </trkpt>
      <trkpt lat="40.294067" lon="-4.826983">
        <ele>1758.0</ele>
        <time>2018-09-16T13:22:25Z</time>
      </trkpt>
      <trkpt lat="40.294050" lon="-4.826917">
        <ele>1757.0</ele>
        <time>2018-09-16T13:22:26Z</time>
      </trkpt>
      <trkpt lat="40.294017" lon="-4.826833">
        <ele>1756.0</ele>
        <time>2018-09-16T13:22:27Z</time>
      </trkpt>
      <trkpt lat="40.293983" lon="-4.826750">
        <ele>1755.0</ele>
        <time>2018-09-16T13:22:28Z</time>
      </trkpt>
      <trkpt lat="40.293950" lon="-4.826667">
        <ele>1755.0</ele>
        <time>2018-09-16T13:22:29Z</time>
      </trkpt>
      <trkpt lat="40.293933" lon="-4.826583">
        <ele>1755.0</ele>
        <time>2018-09-16T13:22:30Z</time>
      </trkpt>
      <trkpt lat="40.293933" lon="-4.826483">
        <ele>1756.0</ele>
        <time>2018-09-16T13:22:31Z</time>
      </trkpt>
      <trkpt lat="40.293933" lon="-4.826400">
        <ele>1755.0</ele>
        <time>2018-09-16T13:22:32Z</time>
      </trkpt>
      <trkpt lat="40.293917" lon="-4.826283">
        <ele>1755.0</ele>
        <time>2018-09-16T13:22:33Z</time>
      </trkpt>
      <trkpt lat="40.293900" lon="-4.826200">
        <ele>1754.0</ele>
        <time>2018-09-16T13:22:34Z</time>
      </trkpt>
      <trkpt lat="40.293867" lon="-4.826100">
        <ele>1754.0</ele>
        <time>2018-09-16T13:22:35Z</time>
      </trkpt>
      <trkpt lat="40.293850" lon="-4.826033">
        <ele>1755.0</ele>
        <time>2018-09-16T13:22:36Z</time>
      </trkpt>
      <trkpt lat="40.293833" lon="-4.825967">
        <ele>1756.0</ele>
        <time>2018-09-16T13:22:37Z</time>
      </trkpt>
      <trkpt lat="40.293833" lon="-4.825900">
        <ele>1756.0</ele>
        <time>2018-09-16T13:22:38Z</time>
      </trkpt>
      <trkpt lat="40.293800" lon="-4.825817">
        <ele>1755.0</ele>
        <time>2018-09-16T13:22:39Z</time>
      </trkpt>
      <trkpt lat="40.293783" lon="-4.825717">
        <ele>1754.0</ele>
        <time>2018-09-16T13:22:40Z</time>
      </trkpt>
      <trkpt lat="40.293750" lon="-4.825633">
        <ele>1754.0</ele>
        <time>2018-09-16T13:22:41Z</time>
      </trkpt>
      <trkpt lat="40.293733" lon="-4.825550">
        <ele>1754.0</ele>
        <time>2018-09-16T13:22:42Z</time>
      </trkpt>
      <trkpt lat="40.293717" lon="-4.825467">
        <ele>1755.0</ele>
        <time>2018-09-16T13:22:43Z</time>
      </trkpt>
      <trkpt lat="40.293700" lon="-4.825400">
        <ele>1755.0</ele>
        <time>2018-09-16T13:22:44Z</time>
      </trkpt>
      <trkpt lat="40.293683" lon="-4.825317">
        <ele>1755.0</ele>
        <time>2018-09-16T13:22:45Z</time>
      </trkpt>
      <trkpt lat="40.293667" lon="-4.825217">
        <ele>1754.0</ele>
        <time>2018-09-16T13:22:46Z</time>
      </trkpt>
      <trkpt lat="40.293650" lon="-4.825117">
        <ele>1753.0</ele>
        <time>2018-09-16T13:22:47Z</time>
      </trkpt>
      <trkpt lat="40.293650" lon="-4.825017">
        <ele>1753.0</ele>
        <time>2018-09-16T13:22:48Z</time>
      </trkpt>
      <trkpt lat="40.293667" lon="-4.824933">
        <ele>1753.0</ele>
        <time>2018-09-16T13:22:49Z</time>
      </trkpt>
      <trkpt lat="40.293667" lon="-4.824850">
        <ele>1753.0</ele>
        <time>2018-09-16T13:22:50Z</time>
      </trkpt>
      <trkpt lat="40.293667" lon="-4.824750">
        <ele>1752.0</ele>
        <time>2018-09-16T13:22:51Z</time>
      </trkpt>
      <trkpt lat="40.293667" lon="-4.824650">
        <ele>1751.0</ele>
        <time>2018-09-16T13:22:52Z</time>
      </trkpt>
      <trkpt lat="40.293667" lon="-4.824550">
        <ele>1749.0</ele>
        <time>2018-09-16T13:22:53Z</time>
      </trkpt>
      <trkpt lat="40.293683" lon="-4.824450">
        <ele>1748.0</ele>
        <time>2018-09-16T13:22:54Z</time>
      </trkpt>
      <trkpt lat="40.293683" lon="-4.824333">
        <ele>1747.0</ele>
        <time>2018-09-16T13:22:55Z</time>
      </trkpt>
      <trkpt lat="40.293683" lon="-4.824233">
        <ele>1746.0</ele>
        <time>2018-09-16T13:22:56Z</time>
      </trkpt>
      <trkpt lat="40.293700" lon="-4.824133">
        <ele>1745.0</ele>
        <time>2018-09-16T13:22:57Z</time>
      </trkpt>
      <trkpt lat="40.293700" lon="-4.824033">
        <ele>1745.0</ele>
        <time>2018-09-16T13:22:58Z</time>
      </trkpt>
      <trkpt lat="40.293700" lon="-4.823933">
        <ele>1746.0</ele>
        <time>2018-09-16T13:22:59Z</time>
      </trkpt>
      <trkpt lat="40.293700" lon="-4.823833">
        <ele>1746.0</ele>
        <time>2018-09-16T13:23:00Z</time>
      </trkpt>
      <trkpt lat="40.293700" lon="-4.823750">
        <ele>1747.0</ele>
        <time>2018-09-16T13:23:01Z</time>
      </trkpt>
      <trkpt lat="40.293717" lon="-4.823650">
        <ele>1747.0</ele>
        <time>2018-09-16T13:23:02Z</time>
      </trkpt>
      <trkpt lat="40.293717" lon="-4.823550">
        <ele>1746.0</ele>
        <time>2018-09-16T13:23:03Z</time>
      </trkpt>
      <trkpt lat="40.293717" lon="-4.823450">
        <ele>1746.0</ele>
        <time>2018-09-16T13:23:04Z</time>
      </trkpt>
      <trkpt lat="40.293733" lon="-4.823350">
        <ele>1745.0</ele>
        <time>2018-09-16T13:23:05Z</time>
      </trkpt>
      <trkpt lat="40.293750" lon="-4.823250">
        <ele>1746.0</ele>
        <time>2018-09-16T13:23:06Z</time>
      </trkpt>
      <trkpt lat="40.293750" lon="-4.823150">
        <ele>1746.0</ele>
        <time>2018-09-16T13:23:07Z</time>
      </trkpt>
      <trkpt lat="40.293767" lon="-4.823050">
        <ele>1745.0</ele>
        <time>2018-09-16T13:23:08Z</time>
      </trkpt>
      <trkpt lat="40.293767" lon="-4.822950">
        <ele>1745.0</ele>
        <time>2018-09-16T13:23:09Z</time>
      </trkpt>
      <trkpt lat="40.293783" lon="-4.822850">
        <ele>1745.0</ele>
        <time>2018-09-16T13:23:10Z</time>
      </trkpt>
      <trkpt lat="40.293783" lon="-4.822750">
        <ele>1745.0</ele>
        <time>2018-09-16T13:23:11Z</time>
      </trkpt>
      <trkpt lat="40.293783" lon="-4.822650">
        <ele>1745.0</ele>
        <time>2018-09-16T13:23:12Z</time>
      </trkpt>
      <trkpt lat="40.293783" lon="-4.822550">
        <ele>1745.0</ele>
        <time>2018-09-16T13:23:13Z</time>
      </trkpt>
      <trkpt lat="40.293783" lon="-4.822450">
        <ele>1745.0</ele>
        <time>2018-09-16T13:23:14Z</time>
      </trkpt>
      <trkpt lat="40.293783" lon="-4.822367">
        <ele>1744.0</ele>
        <time>2018-09-16T13:23:15Z</time>
      </trkpt>
      <trkpt lat="40.293783" lon="-4.822267">
        <ele>1743.0</ele>
        <time>2018-09-16T13:23:16Z</time>
      </trkpt>
      <trkpt lat="40.293800" lon="-4.822167">
        <ele>1744.0</ele>
        <time>2018-09-16T13:23:17Z</time>
      </trkpt>
      <trkpt lat="40.293800" lon="-4.822100">
        <ele>1745.0</ele>
        <time>2018-09-16T13:23:18Z</time>
      </trkpt>
      <trkpt lat="40.293817" lon="-4.822033">
        <ele>1745.0</ele>
        <time>2018-09-16T13:23:19Z</time>
      </trkpt>
      <trkpt lat="40.293833" lon="-4.821950">
        <ele>1746.0</ele>
        <time>2018-09-16T13:23:20Z</time>
      </trkpt>
      <trkpt lat="40.293833" lon="-4.821883">
        <ele>1747.0</ele>
        <time>2018-09-16T13:23:21Z</time>
      </trkpt>
      <trkpt lat="40.293850" lon="-4.821800">
        <ele>1746.0</ele>
        <time>2018-09-16T13:23:22Z</time>
      </trkpt>
      <trkpt lat="40.293867" lon="-4.821717">
        <ele>1746.0</ele>
        <time>2018-09-16T13:23:23Z</time>
      </trkpt>
      <trkpt lat="40.293917" lon="-4.821650">
        <ele>1746.0</ele>
        <time>2018-09-16T13:23:24Z</time>
      </trkpt>
      <trkpt lat="40.293950" lon="-4.821567">
        <ele>1746.0</ele>
        <time>2018-09-16T13:23:25Z</time>
      </trkpt>
      <trkpt lat="40.294000" lon="-4.821500">
        <ele>1747.0</ele>
        <time>2018-09-16T13:23:26Z</time>
      </trkpt>
      <trkpt lat="40.294033" lon="-4.821433">
        <ele>1747.0</ele>
        <time>2018-09-16T13:23:27Z</time>
      </trkpt>
      <trkpt lat="40.294067" lon="-4.821350">
        <ele>1747.0</ele>
        <time>2018-09-16T13:23:28Z</time>
      </trkpt>
      <trkpt lat="40.294100" lon="-4.821267">
        <ele>1747.0</ele>
        <time>2018-09-16T13:23:29Z</time>
      </trkpt>
      <trkpt lat="40.294133" lon="-4.821200">
        <ele>1748.0</ele>
        <time>2018-09-16T13:23:30Z</time>
      </trkpt>
      <trkpt lat="40.294167" lon="-4.821133">
        <ele>1748.0</ele>
        <time>2018-09-16T13:23:31Z</time>
      </trkpt>
      <trkpt lat="40.294183" lon="-4.821067">
        <ele>1748.0</ele>
        <time>2018-09-16T13:23:32Z</time>
      </trkpt>
      <trkpt lat="40.294217" lon="-4.820983">
        <ele>1748.0</ele>
        <time>2018-09-16T13:23:33Z</time>
      </trkpt>
      <trkpt lat="40.294250" lon="-4.820883">
        <ele>1747.0</ele>
        <time>2018-09-16T13:23:34Z</time>
      </trkpt>
      <trkpt lat="40.294283" lon="-4.820817">
        <ele>1746.0</ele>
        <time>2018-09-16T13:23:35Z</time>
      </trkpt>
      <trkpt lat="40.294300" lon="-4.820733">
        <ele>1745.0</ele>
        <time>2018-09-16T13:23:36Z</time>
      </trkpt>
      <trkpt lat="40.294317" lon="-4.820667">
        <ele>1745.0</ele>
        <time>2018-09-16T13:23:37Z</time>
      </trkpt>
      <trkpt lat="40.294333" lon="-4.820583">
        <ele>1743.0</ele>
        <time>2018-09-16T13:23:38Z</time>
      </trkpt>
      <trkpt lat="40.294350" lon="-4.820483">
        <ele>1741.0</ele>
        <time>2018-09-16T13:23:39Z</time>
      </trkpt>
      <trkpt lat="40.294367" lon="-4.820383">
        <ele>1739.0</ele>
        <time>2018-09-16T13:23:40Z</time>
      </trkpt>
      <trkpt lat="40.294367" lon="-4.820283">
        <ele>1736.0</ele>
        <time>2018-09-16T13:23:41Z</time>
      </trkpt>
      <trkpt lat="40.294383" lon="-4.820200">
        <ele>1734.0</ele>
        <time>2018-09-16T13:23:42Z</time>
      </trkpt>
      <trkpt lat="40.294417" lon="-4.820067">
        <ele>1732.0</ele>
        <time>2018-09-16T13:23:44Z</time>
      </trkpt>
      <trkpt lat="40.294450" lon="-4.820000">
        <ele>1730.0</ele>
        <time>2018-09-16T13:23:45Z</time>
      </trkpt>
      <trkpt lat="40.294467" lon="-4.819917">
        <ele>1729.0</ele>
        <time>2018-09-16T13:23:46Z</time>
      </trkpt>
      <trkpt lat="40.294467" lon="-4.819817">
        <ele>1727.0</ele>
        <time>2018-09-16T13:23:47Z</time>
      </trkpt>
      <trkpt lat="40.294467" lon="-4.819717">
        <ele>1725.0</ele>
        <time>2018-09-16T13:23:48Z</time>
      </trkpt>
      <trkpt lat="40.294483" lon="-4.819633">
        <ele>1727.0</ele>
        <time>2018-09-16T13:23:49Z</time>
      </trkpt>
      <trkpt lat="40.294500" lon="-4.819550">
        <ele>1727.0</ele>
        <time>2018-09-16T13:23:50Z</time>
      </trkpt>
      <trkpt lat="40.294500" lon="-4.819467">
        <ele>1727.0</ele>
        <time>2018-09-16T13:23:51Z</time>
      </trkpt>
      <trkpt lat="40.294500" lon="-4.819383">
        <ele>1726.0</ele>
        <time>2018-09-16T13:23:52Z</time>
      </trkpt>
      <trkpt lat="40.294500" lon="-4.819200">
        <ele>1725.0</ele>
        <time>2018-09-16T13:23:54Z</time>
      </trkpt>
      <trkpt lat="40.294500" lon="-4.819100">
        <ele>1725.0</ele>
        <time>2018-09-16T13:23:55Z</time>
      </trkpt>
      <trkpt lat="40.294467" lon="-4.818917">
        <ele>1725.0</ele>
        <time>2018-09-16T13:23:57Z</time>
      </trkpt>
      <trkpt lat="40.294433" lon="-4.818833">
        <ele>1724.0</ele>
        <time>2018-09-16T13:23:58Z</time>
      </trkpt>
      <trkpt lat="40.294400" lon="-4.818767">
        <ele>1724.0</ele>
        <time>2018-09-16T13:23:59Z</time>
      </trkpt>
      <trkpt lat="40.294367" lon="-4.818700">
        <ele>1723.0</ele>
        <time>2018-09-16T13:24:00Z</time>
      </trkpt>
      <trkpt lat="40.294317" lon="-4.818650">
        <ele>1721.0</ele>
        <time>2018-09-16T13:24:01Z</time>
      </trkpt>
      <trkpt lat="40.294250" lon="-4.818617">
        <ele>1720.0</ele>
        <time>2018-09-16T13:24:02Z</time>
      </trkpt>
      <trkpt lat="40.294167" lon="-4.818583">
        <ele>1719.0</ele>
        <time>2018-09-16T13:24:03Z</time>
      </trkpt>
      <trkpt lat="40.294100" lon="-4.818567">
        <ele>1718.0</ele>
        <time>2018-09-16T13:24:04Z</time>
      </trkpt>
      <trkpt lat="40.294017" lon="-4.818600">
        <ele>1716.0</ele>
        <time>2018-09-16T13:24:05Z</time>
      </trkpt>
      <trkpt lat="40.293933" lon="-4.818650">
        <ele>1714.0</ele>
        <time>2018-09-16T13:24:06Z</time>
      </trkpt>
      <trkpt lat="40.293867" lon="-4.818717">
        <ele>1713.0</ele>
        <time>2018-09-16T13:24:07Z</time>
      </trkpt>
      <trkpt lat="40.293800" lon="-4.818783">
        <ele>1710.0</ele>
        <time>2018-09-16T13:24:08Z</time>
      </trkpt>
      <trkpt lat="40.293717" lon="-4.818867">
        <ele>1712.0</ele>
        <time>2018-09-16T13:24:09Z</time>
      </trkpt>
      <trkpt lat="40.293650" lon="-4.818950">
        <ele>1711.0</ele>
        <time>2018-09-16T13:24:10Z</time>
      </trkpt>
      <trkpt lat="40.293600" lon="-4.819067">
        <ele>1710.0</ele>
        <time>2018-09-16T13:24:11Z</time>
      </trkpt>
      <trkpt lat="40.293550" lon="-4.819200">
        <ele>1708.0</ele>
        <time>2018-09-16T13:24:12Z</time>
      </trkpt>
      <trkpt lat="40.293483" lon="-4.819283">
        <ele>1707.0</ele>
        <time>2018-09-16T13:24:13Z</time>
      </trkpt>
      <trkpt lat="40.293400" lon="-4.819350">
        <ele>1706.0</ele>
        <time>2018-09-16T13:24:14Z</time>
      </trkpt>
      <trkpt lat="40.293317" lon="-4.819400">
        <ele>1705.0</ele>
        <time>2018-09-16T13:24:15Z</time>
      </trkpt>
      <trkpt lat="40.293233" lon="-4.819400">
        <ele>1702.0</ele>
        <time>2018-09-16T13:24:16Z</time>
      </trkpt>
      <trkpt lat="40.293183" lon="-4.819350">
        <ele>1699.0</ele>
        <time>2018-09-16T13:24:17Z</time>
      </trkpt>
      <trkpt lat="40.293150" lon="-4.819283">
        <ele>1696.0</ele>
        <time>2018-09-16T13:24:18Z</time>
      </trkpt>
      <trkpt lat="40.293117" lon="-4.819183">
        <ele>1693.0</ele>
        <time>2018-09-16T13:24:19Z</time>
      </trkpt>
      <trkpt lat="40.293117" lon="-4.819083">
        <ele>1691.0</ele>
        <time>2018-09-16T13:24:20Z</time>
      </trkpt>
      <trkpt lat="40.293167" lon="-4.818983">
        <ele>1689.0</ele>
        <time>2018-09-16T13:24:21Z</time>
      </trkpt>
      <trkpt lat="40.293217" lon="-4.818883">
        <ele>1683.0</ele>
        <time>2018-09-16T13:24:22Z</time>
      </trkpt>
      <trkpt lat="40.293267" lon="-4.818800">
        <ele>1679.0</ele>
        <time>2018-09-16T13:24:23Z</time>
      </trkpt>
      <trkpt lat="40.293317" lon="-4.818717">
        <ele>1677.0</ele>
        <time>2018-09-16T13:24:24Z</time>
      </trkpt>
      <trkpt lat="40.293383" lon="-4.818633">
        <ele>1675.0</ele>
        <time>2018-09-16T13:24:25Z</time>
      </trkpt>
      <trkpt lat="40.293433" lon="-4.818550">
        <ele>1672.0</ele>
        <time>2018-09-16T13:24:26Z</time>
      </trkpt>
      <trkpt lat="40.293500" lon="-4.818467">
        <ele>1670.0</ele>
        <time>2018-09-16T13:24:27Z</time>
      </trkpt>
      <trkpt lat="40.293550" lon="-4.818383">
        <ele>1667.0</ele>
        <time>2018-09-16T13:24:28Z</time>
      </trkpt>
      <trkpt lat="40.293600" lon="-4.818283">
        <ele>1664.0</ele>
        <time>2018-09-16T13:24:29Z</time>
      </trkpt>
      <trkpt lat="40.293650" lon="-4.818200">
        <ele>1662.0</ele>
        <time>2018-09-16T13:24:30Z</time>
      </trkpt>
      <trkpt lat="40.293700" lon="-4.818117">
        <ele>1659.0</ele>
        <time>2018-09-16T13:24:31Z</time>
      </trkpt>
      <trkpt lat="40.293750" lon="-4.818050">
        <ele>1658.0</ele>
        <time>2018-09-16T13:24:32Z</time>
      </trkpt>
      <trkpt lat="40.293783" lon="-4.817983">
        <ele>1656.0</ele>
        <time>2018-09-16T13:24:33Z</time>
      </trkpt>
      <trkpt lat="40.293833" lon="-4.817900">
        <ele>1654.0</ele>
        <time>2018-09-16T13:24:34Z</time>
      </trkpt>
      <trkpt lat="40.293883" lon="-4.817817">
        <ele>1651.0</ele>
        <time>2018-09-16T13:24:35Z</time>
      </trkpt>
      <trkpt lat="40.293950" lon="-4.817733">
        <ele>1649.0</ele>
        <time>2018-09-16T13:24:36Z</time>
      </trkpt>
      <trkpt lat="40.294017" lon="-4.817667">
        <ele>1647.0</ele>
        <time>2018-09-16T13:24:37Z</time>
      </trkpt>
      <trkpt lat="40.294067" lon="-4.817600">
        <ele>1645.0</ele>
        <time>2018-09-16T13:24:38Z</time>
      </trkpt>
      <trkpt lat="40.294117" lon="-4.817533">
        <ele>1644.0</ele>
        <time>2018-09-16T13:24:39Z</time>
      </trkpt>
      <trkpt lat="40.294167" lon="-4.817467">
        <ele>1642.0</ele>
        <time>2018-09-16T13:24:40Z</time>
      </trkpt>
      <trkpt lat="40.294233" lon="-4.817383">
        <ele>1641.0</ele>
        <time>2018-09-16T13:24:41Z</time>
      </trkpt>
      <trkpt lat="40.294300" lon="-4.817300">
        <ele>1639.0</ele>
        <time>2018-09-16T13:24:42Z</time>
      </trkpt>
      <trkpt lat="40.294383" lon="-4.817233">
        <ele>1639.0</ele>
        <time>2018-09-16T13:24:43Z</time>
      </trkpt>
      <trkpt lat="40.294433" lon="-4.817183">
        <ele>1638.0</ele>
        <time>2018-09-16T13:24:44Z</time>
      </trkpt>
      <trkpt lat="40.294517" lon="-4.817117">
        <ele>1640.0</ele>
        <time>2018-09-16T13:24:45Z</time>
      </trkpt>
      <trkpt lat="40.294583" lon="-4.817067">
        <ele>1639.0</ele>
        <time>2018-09-16T13:24:46Z</time>
      </trkpt>
      <trkpt lat="40.294633" lon="-4.817017">
        <ele>1639.0</ele>
        <time>2018-09-16T13:24:47Z</time>
      </trkpt>
      <trkpt lat="40.294683" lon="-4.816950">
        <ele>1638.0</ele>
        <time>2018-09-16T13:24:48Z</time>
      </trkpt>
      <trkpt lat="40.294733" lon="-4.816883">
        <ele>1637.0</ele>
        <time>2018-09-16T13:24:49Z</time>
      </trkpt>
      <trkpt lat="40.294800" lon="-4.816833">
        <ele>1636.0</ele>
        <time>2018-09-16T13:24:50Z</time>
      </trkpt>
      <trkpt lat="40.294883" lon="-4.816783">
        <ele>1634.0</ele>
        <time>2018-09-16T13:24:51Z</time>
      </trkpt>
      <trkpt lat="40.294950" lon="-4.816733">
        <ele>1632.0</ele>
        <time>2018-09-16T13:24:52Z</time>
      </trkpt>
      <trkpt lat="40.295033" lon="-4.816667">
        <ele>1631.0</ele>
        <time>2018-09-16T13:24:53Z</time>
      </trkpt>
      <trkpt lat="40.295117" lon="-4.816600">
        <ele>1630.0</ele>
        <time>2018-09-16T13:24:54Z</time>
      </trkpt>
      <trkpt lat="40.295217" lon="-4.816533">
        <ele>1630.0</ele>
        <time>2018-09-16T13:24:55Z</time>
      </trkpt>
      <trkpt lat="40.295300" lon="-4.816450">
        <ele>1630.0</ele>
        <time>2018-09-16T13:24:56Z</time>
      </trkpt>
      <trkpt lat="40.295383" lon="-4.816383">
        <ele>1630.0</ele>
        <time>2018-09-16T13:24:57Z</time>
      </trkpt>
      <trkpt lat="40.295467" lon="-4.816317">
        <ele>1630.0</ele>
        <time>2018-09-16T13:24:58Z</time>
      </trkpt>
      <trkpt lat="40.295550" lon="-4.816233">
        <ele>1630.0</ele>
        <time>2018-09-16T13:24:59Z</time>
      </trkpt>
      <trkpt lat="40.295633" lon="-4.816150">
        <ele>1629.0</ele>
        <time>2018-09-16T13:25:00Z</time>
      </trkpt>
      <trkpt lat="40.295717" lon="-4.816067">
        <ele>1629.0</ele>
        <time>2018-09-16T13:25:01Z</time>
      </trkpt>
      <trkpt lat="40.295800" lon="-4.815983">
        <ele>1630.0</ele>
        <time>2018-09-16T13:25:02Z</time>
      </trkpt>
      <trkpt lat="40.295883" lon="-4.815900">
        <ele>1631.0</ele>
        <time>2018-09-16T13:25:03Z</time>
      </trkpt>
      <trkpt lat="40.295967" lon="-4.815850">
        <ele>1634.0</ele>
        <time>2018-09-16T13:25:04Z</time>
      </trkpt>
      <trkpt lat="40.296033" lon="-4.815817">
        <ele>1637.0</ele>
        <time>2018-09-16T13:25:05Z</time>
      </trkpt>
      <trkpt lat="40.296083" lon="-4.815767">
        <ele>1639.0</ele>
        <time>2018-09-16T13:25:06Z</time>
      </trkpt>
      <trkpt lat="40.296133" lon="-4.815700">
        <ele>1637.0</ele>
        <time>2018-09-16T13:25:07Z</time>
      </trkpt>
      <trkpt lat="40.296183" lon="-4.815617">
        <ele>1637.0</ele>
        <time>2018-09-16T13:25:08Z</time>
      </trkpt>
      <trkpt lat="40.296217" lon="-4.815517">
        <ele>1637.0</ele>
        <time>2018-09-16T13:25:09Z</time>
      </trkpt>
      <trkpt lat="40.296217" lon="-4.815417">
        <ele>1637.0</ele>
        <time>2018-09-16T13:25:10Z</time>
      </trkpt>
      <trkpt lat="40.296183" lon="-4.815350">
        <ele>1637.0</ele>
        <time>2018-09-16T13:25:11Z</time>
      </trkpt>
      <trkpt lat="40.296133" lon="-4.815283">
        <ele>1638.0</ele>
        <time>2018-09-16T13:25:12Z</time>
      </trkpt>
      <trkpt lat="40.296083" lon="-4.815283">
        <ele>1637.0</ele>
        <time>2018-09-16T13:25:13Z</time>
      </trkpt>
      <trkpt lat="40.296017" lon="-4.815317">
        <ele>1637.0</ele>
        <time>2018-09-16T13:25:14Z</time>
      </trkpt>
      <trkpt lat="40.295967" lon="-4.815400">
        <ele>1638.0</ele>
        <time>2018-09-16T13:25:15Z</time>
      </trkpt>
      <trkpt lat="40.295967" lon="-4.815650">
        <ele>1638.0</ele>
        <time>2018-09-16T13:25:17Z</time>
      </trkpt>
      <trkpt lat="40.296117" lon="-4.815817">
        <ele>1638.0</ele>
        <time>2018-09-16T13:25:19Z</time>
      </trkpt>
      <trkpt lat="40.296217" lon="-4.815850">
        <ele>1639.0</ele>
        <time>2018-09-16T13:25:20Z</time>
      </trkpt>
      <trkpt lat="40.296317" lon="-4.815833">
        <ele>1639.0</ele>
        <time>2018-09-16T13:25:21Z</time>
      </trkpt>
      <trkpt lat="40.296400" lon="-4.815800">
        <ele>1640.0</ele>
        <time>2018-09-16T13:25:22Z</time>
      </trkpt>
      <trkpt lat="40.296467" lon="-4.815733">
        <ele>1641.0</ele>
        <time>2018-09-16T13:25:23Z</time>
      </trkpt>
      <trkpt lat="40.296500" lon="-4.815667">
        <ele>1642.0</ele>
        <time>2018-09-16T13:25:24Z</time>
      </trkpt>
      <trkpt lat="40.296550" lon="-4.815583">
        <ele>1643.0</ele>
        <time>2018-09-16T13:25:25Z</time>
      </trkpt>
      <trkpt lat="40.296567" lon="-4.815500">
        <ele>1642.0</ele>
        <time>2018-09-16T13:25:26Z</time>
      </trkpt>
      <trkpt lat="40.296550" lon="-4.815433">
        <ele>1643.0</ele>
        <time>2018-09-16T13:25:27Z</time>
      </trkpt>
      <trkpt lat="40.296500" lon="-4.815383">
        <ele>1643.0</ele>
        <time>2018-09-16T13:25:28Z</time>
      </trkpt>
      <trkpt lat="40.296450" lon="-4.815367">
        <ele>1643.0</ele>
        <time>2018-09-16T13:25:29Z</time>
      </trkpt>
      <trkpt lat="40.296367" lon="-4.815367">
        <ele>1643.0</ele>
        <time>2018-09-16T13:25:30Z</time>
      </trkpt>
      <trkpt lat="40.296300" lon="-4.815400">
        <ele>1644.0</ele>
        <time>2018-09-16T13:25:31Z</time>
      </trkpt>
      <trkpt lat="40.296250" lon="-4.815500">
        <ele>1645.0</ele>
        <time>2018-09-16T13:25:32Z</time>
      </trkpt>
      <trkpt lat="40.296217" lon="-4.815600">
        <ele>1646.0</ele>
        <time>2018-09-16T13:25:33Z</time>
      </trkpt>
      <trkpt lat="40.296233" lon="-4.815733">
        <ele>1647.0</ele>
        <time>2018-09-16T13:25:34Z</time>
      </trkpt>
      <trkpt lat="40.296300" lon="-4.815850">
        <ele>1648.0</ele>
        <time>2018-09-16T13:25:35Z</time>
      </trkpt>
      <trkpt lat="40.296367" lon="-4.815950">
        <ele>1650.0</ele>
        <time>2018-09-16T13:25:36Z</time>
      </trkpt>
      <trkpt lat="40.296467" lon="-4.816000">
        <ele>1652.0</ele>
        <time>2018-09-16T13:25:37Z</time>
      </trkpt>
      <trkpt lat="40.296567" lon="-4.816033">
        <ele>1654.0</ele>
        <time>2018-09-16T13:25:38Z</time>
      </trkpt>
      <trkpt lat="40.296667" lon="-4.816033">
        <ele>1656.0</ele>
        <time>2018-09-16T13:25:39Z</time>
      </trkpt>
      <trkpt lat="40.296750" lon="-4.816000">
        <ele>1657.0</ele>
        <time>2018-09-16T13:25:40Z</time>
      </trkpt>
      <trkpt lat="40.296817" lon="-4.815967">
        <ele>1659.0</ele>
        <time>2018-09-16T13:25:41Z</time>
      </trkpt>
      <trkpt lat="40.296900" lon="-4.815933">
        <ele>1661.0</ele>
        <time>2018-09-16T13:25:42Z</time>
      </trkpt>
      <trkpt lat="40.296983" lon="-4.815900">
        <ele>1659.0</ele>
        <time>2018-09-16T13:25:43Z</time>
      </trkpt>
      <trkpt lat="40.297067" lon="-4.815867">
        <ele>1660.0</ele>
        <time>2018-09-16T13:25:44Z</time>
      </trkpt>
      <trkpt lat="40.297150" lon="-4.815817">
        <ele>1662.0</ele>
        <time>2018-09-16T13:25:45Z</time>
      </trkpt>
      <trkpt lat="40.297200" lon="-4.815750">
        <ele>1663.0</ele>
        <time>2018-09-16T13:25:46Z</time>
      </trkpt>
      <trkpt lat="40.297250" lon="-4.815683">
        <ele>1664.0</ele>
        <time>2018-09-16T13:25:47Z</time>
      </trkpt>
      <trkpt lat="40.297283" lon="-4.815600">
        <ele>1665.0</ele>
        <time>2018-09-16T13:25:48Z</time>
      </trkpt>
      <trkpt lat="40.297317" lon="-4.815500">
        <ele>1666.0</ele>
        <time>2018-09-16T13:25:49Z</time>
      </trkpt>
      <trkpt lat="40.297350" lon="-4.815417">
        <ele>1667.0</ele>
        <time>2018-09-16T13:25:50Z</time>
      </trkpt>
      <trkpt lat="40.297367" lon="-4.815317">
        <ele>1668.0</ele>
        <time>2018-09-16T13:25:51Z</time>
      </trkpt>
      <trkpt lat="40.297417" lon="-4.815233">
        <ele>1669.0</ele>
        <time>2018-09-16T13:25:52Z</time>
      </trkpt>
      <trkpt lat="40.297450" lon="-4.815133">
        <ele>1670.0</ele>
        <time>2018-09-16T13:25:53Z</time>
      </trkpt>
      <trkpt lat="40.297500" lon="-4.815050">
        <ele>1670.0</ele>
        <time>2018-09-16T13:25:54Z</time>
      </trkpt>
      <trkpt lat="40.297550" lon="-4.814967">
        <ele>1671.0</ele>
        <time>2018-09-16T13:25:55Z</time>
      </trkpt>
      <trkpt lat="40.297583" lon="-4.814900">
        <ele>1671.0</ele>
        <time>2018-09-16T13:25:56Z</time>
      </trkpt>
      <trkpt lat="40.297633" lon="-4.814817">
        <ele>1671.0</ele>
        <time>2018-09-16T13:25:57Z</time>
      </trkpt>
      <trkpt lat="40.297650" lon="-4.814750">
        <ele>1671.0</ele>
        <time>2018-09-16T13:25:58Z</time>
      </trkpt>
      <trkpt lat="40.297683" lon="-4.814650">
        <ele>1671.0</ele>
        <time>2018-09-16T13:25:59Z</time>
      </trkpt>
      <trkpt lat="40.297733" lon="-4.814550">
        <ele>1670.0</ele>
        <time>2018-09-16T13:26:00Z</time>
      </trkpt>
      <trkpt lat="40.297767" lon="-4.814450">
        <ele>1669.0</ele>
        <time>2018-09-16T13:26:01Z</time>
      </trkpt>
      <trkpt lat="40.297800" lon="-4.814350">
        <ele>1668.0</ele>
        <time>2018-09-16T13:26:02Z</time>
      </trkpt>
      <trkpt lat="40.297833" lon="-4.814233">
        <ele>1667.0</ele>
        <time>2018-09-16T13:26:03Z</time>
      </trkpt>
      <trkpt lat="40.297850" lon="-4.814133">
        <ele>1667.0</ele>
        <time>2018-09-16T13:26:04Z</time>
      </trkpt>
      <trkpt lat="40.297867" lon="-4.814017">
        <ele>1666.0</ele>
        <time>2018-09-16T13:26:05Z</time>
      </trkpt>
      <trkpt lat="40.297883" lon="-4.813917">
        <ele>1666.0</ele>
        <time>2018-09-16T13:26:06Z</time>
      </trkpt>
      <trkpt lat="40.297900" lon="-4.813800">
        <ele>1665.0</ele>
        <time>2018-09-16T13:26:07Z</time>
      </trkpt>
      <trkpt lat="40.297900" lon="-4.813667">
        <ele>1663.0</ele>
        <time>2018-09-16T13:26:08Z</time>
      </trkpt>
      <trkpt lat="40.297917" lon="-4.813550">
        <ele>1663.0</ele>
        <time>2018-09-16T13:26:09Z</time>
      </trkpt>
      <trkpt lat="40.297917" lon="-4.813433">
        <ele>1663.0</ele>
        <time>2018-09-16T13:26:10Z</time>
      </trkpt>
      <trkpt lat="40.297933" lon="-4.813333">
        <ele>1662.0</ele>
        <time>2018-09-16T13:26:11Z</time>
      </trkpt>
      <trkpt lat="40.297933" lon="-4.813233">
        <ele>1660.0</ele>
        <time>2018-09-16T13:26:12Z</time>
      </trkpt>
      <trkpt lat="40.297933" lon="-4.813100">
        <ele>1658.0</ele>
        <time>2018-09-16T13:26:13Z</time>
      </trkpt>
      <trkpt lat="40.297950" lon="-4.812967">
        <ele>1656.0</ele>
        <time>2018-09-16T13:26:14Z</time>
      </trkpt>
      <trkpt lat="40.297983" lon="-4.812817">
        <ele>1655.0</ele>
        <time>2018-09-16T13:26:15Z</time>
      </trkpt>
      <trkpt lat="40.298000" lon="-4.812700">
        <ele>1655.0</ele>
        <time>2018-09-16T13:26:16Z</time>
      </trkpt>
      <trkpt lat="40.298000" lon="-4.812567">
        <ele>1656.0</ele>
        <time>2018-09-16T13:26:17Z</time>
      </trkpt>
      <trkpt lat="40.298017" lon="-4.812433">
        <ele>1656.0</ele>
        <time>2018-09-16T13:26:18Z</time>
      </trkpt>
      <trkpt lat="40.298017" lon="-4.812300">
        <ele>1657.0</ele>
        <time>2018-09-16T13:26:19Z</time>
      </trkpt>
      <trkpt lat="40.298033" lon="-4.812167">
        <ele>1657.0</ele>
        <time>2018-09-16T13:26:20Z</time>
      </trkpt>
      <trkpt lat="40.298033" lon="-4.812033">
        <ele>1658.0</ele>
        <time>2018-09-16T13:26:21Z</time>
      </trkpt>
      <trkpt lat="40.298050" lon="-4.811883">
        <ele>1659.0</ele>
        <time>2018-09-16T13:26:22Z</time>
      </trkpt>
      <trkpt lat="40.298067" lon="-4.811750">
        <ele>1659.0</ele>
        <time>2018-09-16T13:26:23Z</time>
      </trkpt>
      <trkpt lat="40.298067" lon="-4.811633">
        <ele>1660.0</ele>
        <time>2018-09-16T13:26:24Z</time>
      </trkpt>
      <trkpt lat="40.298067" lon="-4.811533">
        <ele>1660.0</ele>
        <time>2018-09-16T13:26:25Z</time>
      </trkpt>
      <trkpt lat="40.298067" lon="-4.811417">
        <ele>1659.0</ele>
        <time>2018-09-16T13:26:26Z</time>
      </trkpt>
      <trkpt lat="40.298083" lon="-4.811317">
        <ele>1659.0</ele>
        <time>2018-09-16T13:26:27Z</time>
      </trkpt>
      <trkpt lat="40.298117" lon="-4.811200">
        <ele>1659.0</ele>
        <time>2018-09-16T13:26:28Z</time>
      </trkpt>
      <trkpt lat="40.298150" lon="-4.811083">
        <ele>1658.0</ele>
        <time>2018-09-16T13:26:29Z</time>
      </trkpt>
      <trkpt lat="40.298167" lon="-4.810967">
        <ele>1658.0</ele>
        <time>2018-09-16T13:26:30Z</time>
      </trkpt>
      <trkpt lat="40.298183" lon="-4.810833">
        <ele>1658.0</ele>
        <time>2018-09-16T13:26:31Z</time>
      </trkpt>
      <trkpt lat="40.298217" lon="-4.810717">
        <ele>1659.0</ele>
        <time>2018-09-16T13:26:32Z</time>
      </trkpt>
      <trkpt lat="40.298250" lon="-4.810600">
        <ele>1659.0</ele>
        <time>2018-09-16T13:26:33Z</time>
      </trkpt>
      <trkpt lat="40.298283" lon="-4.810483">
        <ele>1660.0</ele>
        <time>2018-09-16T13:26:34Z</time>
      </trkpt>
      <trkpt lat="40.298317" lon="-4.810383">
        <ele>1661.0</ele>
        <time>2018-09-16T13:26:35Z</time>
      </trkpt>
      <trkpt lat="40.298333" lon="-4.810283">
        <ele>1661.0</ele>
        <time>2018-09-16T13:26:36Z</time>
      </trkpt>
      <trkpt lat="40.298350" lon="-4.810183">
        <ele>1660.0</ele>
        <time>2018-09-16T13:26:37Z</time>
      </trkpt>
      <trkpt lat="40.298367" lon="-4.810067">
        <ele>1660.0</ele>
        <time>2018-09-16T13:26:38Z</time>
      </trkpt>
      <trkpt lat="40.298383" lon="-4.809950">
        <ele>1659.0</ele>
        <time>2018-09-16T13:26:39Z</time>
      </trkpt>
      <trkpt lat="40.298400" lon="-4.809850">
        <ele>1659.0</ele>
        <time>2018-09-16T13:26:40Z</time>
      </trkpt>
      <trkpt lat="40.298433" lon="-4.809750">
        <ele>1660.0</ele>
        <time>2018-09-16T13:26:41Z</time>
      </trkpt>
      <trkpt lat="40.298467" lon="-4.809667">
        <ele>1661.0</ele>
        <time>2018-09-16T13:26:42Z</time>
      </trkpt>
      <trkpt lat="40.298483" lon="-4.809583">
        <ele>1661.0</ele>
        <time>2018-09-16T13:26:43Z</time>
      </trkpt>
      <trkpt lat="40.298517" lon="-4.809500">
        <ele>1660.0</ele>
        <time>2018-09-16T13:26:44Z</time>
      </trkpt>
      <trkpt lat="40.298550" lon="-4.809400">
        <ele>1659.0</ele>
        <time>2018-09-16T13:26:45Z</time>
      </trkpt>
      <trkpt lat="40.298567" lon="-4.809300">
        <ele>1657.0</ele>
        <time>2018-09-16T13:26:46Z</time>
      </trkpt>
      <trkpt lat="40.298600" lon="-4.809200">
        <ele>1656.0</ele>
        <time>2018-09-16T13:26:47Z</time>
      </trkpt>
      <trkpt lat="40.298633" lon="-4.809100">
        <ele>1656.0</ele>
        <time>2018-09-16T13:26:48Z</time>
      </trkpt>
      <trkpt lat="40.298683" lon="-4.809017">
        <ele>1656.0</ele>
        <time>2018-09-16T13:26:49Z</time>
      </trkpt>
      <trkpt lat="40.298717" lon="-4.808933">
        <ele>1656.0</ele>
        <time>2018-09-16T13:26:50Z</time>
      </trkpt>
      <trkpt lat="40.298783" lon="-4.808850">
        <ele>1656.0</ele>
        <time>2018-09-16T13:26:51Z</time>
      </trkpt>
      <trkpt lat="40.298850" lon="-4.808750">
        <ele>1656.0</ele>
        <time>2018-09-16T13:26:52Z</time>
      </trkpt>
      <trkpt lat="40.298933" lon="-4.808683">
        <ele>1656.0</ele>
        <time>2018-09-16T13:26:53Z</time>
      </trkpt>
      <trkpt lat="40.299033" lon="-4.808650">
        <ele>1656.0</ele>
        <time>2018-09-16T13:26:54Z</time>
      </trkpt>
      <trkpt lat="40.299133" lon="-4.808650">
        <ele>1656.0</ele>
        <time>2018-09-16T13:26:55Z</time>
      </trkpt>
      <trkpt lat="40.299250" lon="-4.808683">
        <ele>1655.0</ele>
        <time>2018-09-16T13:26:56Z</time>
      </trkpt>
      <trkpt lat="40.299333" lon="-4.808733">
        <ele>1654.0</ele>
        <time>2018-09-16T13:26:57Z</time>
      </trkpt>
      <trkpt lat="40.299433" lon="-4.808817">
        <ele>1653.0</ele>
        <time>2018-09-16T13:26:58Z</time>
      </trkpt>
      <trkpt lat="40.299500" lon="-4.808917">
        <ele>1652.0</ele>
        <time>2018-09-16T13:26:59Z</time>
      </trkpt>
      <trkpt lat="40.299583" lon="-4.809017">
        <ele>1651.0</ele>
        <time>2018-09-16T13:27:00Z</time>
      </trkpt>
      <trkpt lat="40.299650" lon="-4.809150">
        <ele>1650.0</ele>
        <time>2018-09-16T13:27:01Z</time>
      </trkpt>
      <trkpt lat="40.299717" lon="-4.809267">
        <ele>1648.0</ele>
        <time>2018-09-16T13:27:02Z</time>
      </trkpt>
      <trkpt lat="40.299783" lon="-4.809383">
        <ele>1648.0</ele>
        <time>2018-09-16T13:27:03Z</time>
      </trkpt>
      <trkpt lat="40.299833" lon="-4.809500">
        <ele>1647.0</ele>
        <time>2018-09-16T13:27:04Z</time>
      </trkpt>
      <trkpt lat="40.299917" lon="-4.809617">
        <ele>1647.0</ele>
        <time>2018-09-16T13:27:05Z</time>
      </trkpt>
      <trkpt lat="40.299983" lon="-4.809700">
        <ele>1647.0</ele>
        <time>2018-09-16T13:27:06Z</time>
      </trkpt>
      <trkpt lat="40.300083" lon="-4.809767">
        <ele>1647.0</ele>
        <time>2018-09-16T13:27:07Z</time>
      </trkpt>
      <trkpt lat="40.300150" lon="-4.809833">
        <ele>1648.0</ele>
        <time>2018-09-16T13:27:08Z</time>
      </trkpt>
      <trkpt lat="40.300250" lon="-4.809900">
        <ele>1648.0</ele>
        <time>2018-09-16T13:27:09Z</time>
      </trkpt>
      <trkpt lat="40.300333" lon="-4.809983">
        <ele>1648.0</ele>
        <time>2018-09-16T13:27:10Z</time>
      </trkpt>
      <trkpt lat="40.300450" lon="-4.810067">
        <ele>1647.0</ele>
        <time>2018-09-16T13:27:11Z</time>
      </trkpt>
      <trkpt lat="40.300550" lon="-4.810150">
        <ele>1648.0</ele>
        <time>2018-09-16T13:27:12Z</time>
      </trkpt>
      <trkpt lat="40.300633" lon="-4.810233">
        <ele>1650.0</ele>
        <time>2018-09-16T13:27:13Z</time>
      </trkpt>
      <trkpt lat="40.300733" lon="-4.810300">
        <ele>1651.0</ele>
        <time>2018-09-16T13:27:14Z</time>
      </trkpt>
      <trkpt lat="40.300817" lon="-4.810367">
        <ele>1652.0</ele>
        <time>2018-09-16T13:27:15Z</time>
      </trkpt>
      <trkpt lat="40.300917" lon="-4.810450">
        <ele>1653.0</ele>
        <time>2018-09-16T13:27:16Z</time>
      </trkpt>
      <trkpt lat="40.301000" lon="-4.810533">
        <ele>1654.0</ele>
        <time>2018-09-16T13:27:17Z</time>
      </trkpt>
      <trkpt lat="40.301083" lon="-4.810650">
        <ele>1654.0</ele>
        <time>2018-09-16T13:27:18Z</time>
      </trkpt>
      <trkpt lat="40.301150" lon="-4.810767">
        <ele>1655.0</ele>
        <time>2018-09-16T13:27:19Z</time>
      </trkpt>
      <trkpt lat="40.301217" lon="-4.810883">
        <ele>1656.0</ele>
        <time>2018-09-16T13:27:20Z</time>
      </trkpt>
      <trkpt lat="40.301283" lon="-4.810983">
        <ele>1657.0</ele>
        <time>2018-09-16T13:27:21Z</time>
      </trkpt>
      <trkpt lat="40.301350" lon="-4.811100">
        <ele>1659.0</ele>
        <time>2018-09-16T13:27:22Z</time>
      </trkpt>
      <trkpt lat="40.301417" lon="-4.811200">
        <ele>1662.0</ele>
        <time>2018-09-16T13:27:23Z</time>
      </trkpt>
      <trkpt lat="40.301467" lon="-4.811300">
        <ele>1666.0</ele>
        <time>2018-09-16T13:27:24Z</time>
      </trkpt>
      <trkpt lat="40.301533" lon="-4.811383">
        <ele>1669.0</ele>
        <time>2018-09-16T13:27:25Z</time>
      </trkpt>
      <trkpt lat="40.301583" lon="-4.811467">
        <ele>1671.0</ele>
        <time>2018-09-16T13:27:26Z</time>
      </trkpt>
      <trkpt lat="40.301600" lon="-4.811567">
        <ele>1673.0</ele>
        <time>2018-09-16T13:27:27Z</time>
      </trkpt>
      <trkpt lat="40.301600" lon="-4.811667">
        <ele>1674.0</ele>
        <time>2018-09-16T13:27:28Z</time>
      </trkpt>
      <trkpt lat="40.301567" lon="-4.811733">
        <ele>1674.0</ele>
        <time>2018-09-16T13:27:29Z</time>
      </trkpt>
      <trkpt lat="40.301517" lon="-4.811750">
        <ele>1674.0</ele>
        <time>2018-09-16T13:27:30Z</time>
      </trkpt>
      <trkpt lat="40.301483" lon="-4.811733">
        <ele>1675.0</ele>
        <time>2018-09-16T13:27:31Z</time>
      </trkpt>
      <trkpt lat="40.301450" lon="-4.811700">
        <ele>1677.0</ele>
        <time>2018-09-16T13:27:32Z</time>
      </trkpt>
      <trkpt lat="40.301417" lon="-4.811650">
        <ele>1678.0</ele>
        <time>2018-09-16T13:27:33Z</time>
      </trkpt>
      <trkpt lat="40.301417" lon="-4.811600">
        <ele>1679.0</ele>
        <time>2018-09-16T13:27:34Z</time>
      </trkpt>
      <trkpt lat="40.301433" lon="-4.811533">
        <ele>1680.0</ele>
        <time>2018-09-16T13:27:35Z</time>
      </trkpt>
      <trkpt lat="40.301450" lon="-4.811450">
        <ele>1681.0</ele>
        <time>2018-09-16T13:27:36Z</time>
      </trkpt>
      <trkpt lat="40.301500" lon="-4.811350">
        <ele>1680.0</ele>
        <time>2018-09-16T13:27:37Z</time>
      </trkpt>
      <trkpt lat="40.301583" lon="-4.811267">
        <ele>1678.0</ele>
        <time>2018-09-16T13:27:38Z</time>
      </trkpt>
      <trkpt lat="40.301683" lon="-4.811200">
        <ele>1679.0</ele>
        <time>2018-09-16T13:27:39Z</time>
      </trkpt>
      <trkpt lat="40.301783" lon="-4.811150">
        <ele>1679.0</ele>
        <time>2018-09-16T13:27:40Z</time>
      </trkpt>
      <trkpt lat="40.301883" lon="-4.811133">
        <ele>1681.0</ele>
        <time>2018-09-16T13:27:41Z</time>
      </trkpt>
      <trkpt lat="40.301983" lon="-4.811150">
        <ele>1682.0</ele>
        <time>2018-09-16T13:27:42Z</time>
      </trkpt>
      <trkpt lat="40.302083" lon="-4.811150">
        <ele>1684.0</ele>
        <time>2018-09-16T13:27:43Z</time>
      </trkpt>
      <trkpt lat="40.302183" lon="-4.811167">
        <ele>1686.0</ele>
        <time>2018-09-16T13:27:44Z</time>
      </trkpt>
      <trkpt lat="40.302300" lon="-4.811200">
        <ele>1687.0</ele>
        <time>2018-09-16T13:27:45Z</time>
      </trkpt>
      <trkpt lat="40.302417" lon="-4.811267">
        <ele>1687.0</ele>
        <time>2018-09-16T13:27:46Z</time>
      </trkpt>
      <trkpt lat="40.302517" lon="-4.811367">
        <ele>1687.0</ele>
        <time>2018-09-16T13:27:47Z</time>
      </trkpt>
      <trkpt lat="40.302583" lon="-4.811483">
        <ele>1687.0</ele>
        <time>2018-09-16T13:27:48Z</time>
      </trkpt>
      <trkpt lat="40.302617" lon="-4.811617">
        <ele>1688.0</ele>
        <time>2018-09-16T13:27:49Z</time>
      </trkpt>
      <trkpt lat="40.302617" lon="-4.811733">
        <ele>1688.0</ele>
        <time>2018-09-16T13:27:50Z</time>
      </trkpt>
      <trkpt lat="40.302583" lon="-4.811817">
        <ele>1689.0</ele>
        <time>2018-09-16T13:27:51Z</time>
      </trkpt>
      <trkpt lat="40.302533" lon="-4.811867">
        <ele>1691.0</ele>
        <time>2018-09-16T13:27:52Z</time>
      </trkpt>
      <trkpt lat="40.302500" lon="-4.811867">
        <ele>1693.0</ele>
        <time>2018-09-16T13:27:53Z</time>
      </trkpt>
      <trkpt lat="40.302467" lon="-4.811833">
        <ele>1695.0</ele>
        <time>2018-09-16T13:27:54Z</time>
      </trkpt>
      <trkpt lat="40.302450" lon="-4.811800">
        <ele>1698.0</ele>
        <time>2018-09-16T13:27:55Z</time>
      </trkpt>
      <trkpt lat="40.302417" lon="-4.811783">
        <ele>1700.0</ele>
        <time>2018-09-16T13:27:56Z</time>
      </trkpt>
      <trkpt lat="40.302383" lon="-4.811733">
        <ele>1702.0</ele>
        <time>2018-09-16T13:27:57Z</time>
      </trkpt>
      <trkpt lat="40.302350" lon="-4.811683">
        <ele>1703.0</ele>
        <time>2018-09-16T13:27:58Z</time>
      </trkpt>
      <trkpt lat="40.302333" lon="-4.811600">
        <ele>1703.0</ele>
        <time>2018-09-16T13:27:59Z</time>
      </trkpt>
      <trkpt lat="40.302317" lon="-4.811517">
        <ele>1705.0</ele>
        <time>2018-09-16T13:28:00Z</time>
      </trkpt>
      <trkpt lat="40.302333" lon="-4.811417">
        <ele>1707.0</ele>
        <time>2018-09-16T13:28:01Z</time>
      </trkpt>
      <trkpt lat="40.302400" lon="-4.811333">
        <ele>1709.0</ele>
        <time>2018-09-16T13:28:02Z</time>
      </trkpt>
      <trkpt lat="40.302483" lon="-4.811300">
        <ele>1710.0</ele>
        <time>2018-09-16T13:28:03Z</time>
      </trkpt>
      <trkpt lat="40.302567" lon="-4.811267">
        <ele>1711.0</ele>
        <time>2018-09-16T13:28:04Z</time>
      </trkpt>
      <trkpt lat="40.302650" lon="-4.811250">
        <ele>1712.0</ele>
        <time>2018-09-16T13:28:05Z</time>
      </trkpt>
      <trkpt lat="40.302733" lon="-4.811250">
        <ele>1713.0</ele>
        <time>2018-09-16T13:28:06Z</time>
      </trkpt>
      <trkpt lat="40.302817" lon="-4.811267">
        <ele>1714.0</ele>
        <time>2018-09-16T13:28:07Z</time>
      </trkpt>
      <trkpt lat="40.302917" lon="-4.811300">
        <ele>1713.0</ele>
        <time>2018-09-16T13:28:08Z</time>
      </trkpt>
      <trkpt lat="40.303017" lon="-4.811383">
        <ele>1713.0</ele>
        <time>2018-09-16T13:28:09Z</time>
      </trkpt>
      <trkpt lat="40.303100" lon="-4.811500">
        <ele>1711.0</ele>
        <time>2018-09-16T13:28:10Z</time>
      </trkpt>
      <trkpt lat="40.303150" lon="-4.811650">
        <ele>1711.0</ele>
        <time>2018-09-16T13:28:11Z</time>
      </trkpt>
      <trkpt lat="40.303183" lon="-4.811800">
        <ele>1712.0</ele>
        <time>2018-09-16T13:28:12Z</time>
      </trkpt>
      <trkpt lat="40.303183" lon="-4.811933">
        <ele>1714.0</ele>
        <time>2018-09-16T13:28:13Z</time>
      </trkpt>
      <trkpt lat="40.303167" lon="-4.812050">
        <ele>1715.0</ele>
        <time>2018-09-16T13:28:14Z</time>
      </trkpt>
      <trkpt lat="40.303150" lon="-4.812167">
        <ele>1716.0</ele>
        <time>2018-09-16T13:28:15Z</time>
      </trkpt>
      <trkpt lat="40.303133" lon="-4.812283">
        <ele>1717.0</ele>
        <time>2018-09-16T13:28:16Z</time>
      </trkpt>
      <trkpt lat="40.303100" lon="-4.812383">
        <ele>1718.0</ele>
        <time>2018-09-16T13:28:17Z</time>
      </trkpt>
      <trkpt lat="40.303067" lon="-4.812450">
        <ele>1718.0</ele>
        <time>2018-09-16T13:28:18Z</time>
      </trkpt>
      <trkpt lat="40.303017" lon="-4.812483">
        <ele>1718.0</ele>
        <time>2018-09-16T13:28:19Z</time>
      </trkpt>
      <trkpt lat="40.302950" lon="-4.812500">
        <ele>1718.0</ele>
        <time>2018-09-16T13:28:20Z</time>
      </trkpt>
      <trkpt lat="40.302900" lon="-4.812500">
        <ele>1719.0</ele>
        <time>2018-09-16T13:28:21Z</time>
      </trkpt>
      <trkpt lat="40.302850" lon="-4.812500">
        <ele>1720.0</ele>
        <time>2018-09-16T13:28:22Z</time>
      </trkpt>
      <trkpt lat="40.302817" lon="-4.812500">
        <ele>1722.0</ele>
        <time>2018-09-16T13:28:23Z</time>
      </trkpt>
      <trkpt lat="40.302783" lon="-4.812483">
        <ele>1725.0</ele>
        <time>2018-09-16T13:28:24Z</time>
      </trkpt>
      <trkpt lat="40.302750" lon="-4.812483">
        <ele>1727.0</ele>
        <time>2018-09-16T13:28:25Z</time>
      </trkpt>
      <trkpt lat="40.302700" lon="-4.812467">
        <ele>1728.0</ele>
        <time>2018-09-16T13:28:26Z</time>
      </trkpt>
      <trkpt lat="40.302667" lon="-4.812450">
        <ele>1728.0</ele>
        <time>2018-09-16T13:28:27Z</time>
      </trkpt>
      <trkpt lat="40.302633" lon="-4.812400">
        <ele>1728.0</ele>
        <time>2018-09-16T13:28:28Z</time>
      </trkpt>
      <trkpt lat="40.302617" lon="-4.812317">
        <ele>1729.0</ele>
        <time>2018-09-16T13:28:29Z</time>
      </trkpt>
      <trkpt lat="40.302650" lon="-4.812217">
        <ele>1730.0</ele>
        <time>2018-09-16T13:28:30Z</time>
      </trkpt>
      <trkpt lat="40.302717" lon="-4.812150">
        <ele>1731.0</ele>
        <time>2018-09-16T13:28:31Z</time>
      </trkpt>
      <trkpt lat="40.302783" lon="-4.812083">
        <ele>1730.0</ele>
        <time>2018-09-16T13:28:32Z</time>
      </trkpt>
      <trkpt lat="40.302883" lon="-4.812017">
        <ele>1729.0</ele>
        <time>2018-09-16T13:28:33Z</time>
      </trkpt>
      <trkpt lat="40.303000" lon="-4.811983">
        <ele>1728.0</ele>
        <time>2018-09-16T13:28:34Z</time>
      </trkpt>
      <trkpt lat="40.303117" lon="-4.811983">
        <ele>1728.0</ele>
        <time>2018-09-16T13:28:35Z</time>
      </trkpt>
      <trkpt lat="40.303217" lon="-4.812033">
        <ele>1729.0</ele>
        <time>2018-09-16T13:28:36Z</time>
      </trkpt>
      <trkpt lat="40.303283" lon="-4.812133">
        <ele>1730.0</ele>
        <time>2018-09-16T13:28:37Z</time>
      </trkpt>
      <trkpt lat="40.303350" lon="-4.812233">
        <ele>1731.0</ele>
        <time>2018-09-16T13:28:38Z</time>
      </trkpt>
      <trkpt lat="40.303383" lon="-4.812350">
        <ele>1732.0</ele>
        <time>2018-09-16T13:28:39Z</time>
      </trkpt>
      <trkpt lat="40.303417" lon="-4.812467">
        <ele>1733.0</ele>
        <time>2018-09-16T13:28:40Z</time>
      </trkpt>
      <trkpt lat="40.303433" lon="-4.812583">
        <ele>1734.0</ele>
        <time>2018-09-16T13:28:41Z</time>
      </trkpt>
      <trkpt lat="40.303433" lon="-4.812700">
        <ele>1735.0</ele>
        <time>2018-09-16T13:28:42Z</time>
      </trkpt>
      <trkpt lat="40.303400" lon="-4.812800">
        <ele>1736.0</ele>
        <time>2018-09-16T13:28:43Z</time>
      </trkpt>
      <trkpt lat="40.303367" lon="-4.812867">
        <ele>1736.0</ele>
        <time>2018-09-16T13:28:44Z</time>
      </trkpt>
      <trkpt lat="40.303300" lon="-4.812883">
        <ele>1736.0</ele>
        <time>2018-09-16T13:28:45Z</time>
      </trkpt>
      <trkpt lat="40.303250" lon="-4.812867">
        <ele>1736.0</ele>
        <time>2018-09-16T13:28:46Z</time>
      </trkpt>
      <trkpt lat="40.303200" lon="-4.812833">
        <ele>1737.0</ele>
        <time>2018-09-16T13:28:47Z</time>
      </trkpt>
      <trkpt lat="40.303167" lon="-4.812783">
        <ele>1738.0</ele>
        <time>2018-09-16T13:28:48Z</time>
      </trkpt>
      <trkpt lat="40.303150" lon="-4.812767">
        <ele>1740.0</ele>
        <time>2018-09-16T13:28:49Z</time>
      </trkpt>
      <trkpt lat="40.303117" lon="-4.812733">
        <ele>1741.0</ele>
        <time>2018-09-16T13:28:50Z</time>
      </trkpt>
      <trkpt lat="40.303067" lon="-4.812683">
        <ele>1742.0</ele>
        <time>2018-09-16T13:28:51Z</time>
      </trkpt>
      <trkpt lat="40.303017" lon="-4.812633">
        <ele>1743.0</ele>
        <time>2018-09-16T13:28:52Z</time>
      </trkpt>
      <trkpt lat="40.303000" lon="-4.812533">
        <ele>1744.0</ele>
        <time>2018-09-16T13:28:53Z</time>
      </trkpt>
      <trkpt lat="40.302983" lon="-4.812433">
        <ele>1746.0</ele>
        <time>2018-09-16T13:28:54Z</time>
      </trkpt>
      <trkpt lat="40.303000" lon="-4.812317">
        <ele>1748.0</ele>
        <time>2018-09-16T13:28:55Z</time>
      </trkpt>
      <trkpt lat="40.303017" lon="-4.812217">
        <ele>1750.0</ele>
        <time>2018-09-16T13:28:56Z</time>
      </trkpt>
      <trkpt lat="40.303050" lon="-4.812117">
        <ele>1751.0</ele>
        <time>2018-09-16T13:28:57Z</time>
      </trkpt>
      <trkpt lat="40.303117" lon="-4.812033">
        <ele>1753.0</ele>
        <time>2018-09-16T13:28:58Z</time>
      </trkpt>
      <trkpt lat="40.303200" lon="-4.811967">
        <ele>1753.0</ele>
        <time>2018-09-16T13:28:59Z</time>
      </trkpt>
      <trkpt lat="40.303283" lon="-4.811917">
        <ele>1754.0</ele>
        <time>2018-09-16T13:29:00Z</time>
      </trkpt>
      <trkpt lat="40.303383" lon="-4.811917">
        <ele>1755.0</ele>
        <time>2018-09-16T13:29:01Z</time>
      </trkpt>
      <trkpt lat="40.303483" lon="-4.811933">
        <ele>1755.0</ele>
        <time>2018-09-16T13:29:02Z</time>
      </trkpt>
      <trkpt lat="40.303583" lon="-4.812000">
        <ele>1755.0</ele>
        <time>2018-09-16T13:29:03Z</time>
      </trkpt>
      <trkpt lat="40.303683" lon="-4.812100">
        <ele>1755.0</ele>
        <time>2018-09-16T13:29:04Z</time>
      </trkpt>
      <trkpt lat="40.303733" lon="-4.812200">
        <ele>1755.0</ele>
        <time>2018-09-16T13:29:05Z</time>
      </trkpt>
      <trkpt lat="40.303767" lon="-4.812317">
        <ele>1756.0</ele>
        <time>2018-09-16T13:29:06Z</time>
      </trkpt>
      <trkpt lat="40.303750" lon="-4.812450">
        <ele>1756.0</ele>
        <time>2018-09-16T13:29:07Z</time>
      </trkpt>
      <trkpt lat="40.303733" lon="-4.812550">
        <ele>1757.0</ele>
        <time>2018-09-16T13:29:08Z</time>
      </trkpt>
      <trkpt lat="40.303700" lon="-4.812633">
        <ele>1758.0</ele>
        <time>2018-09-16T13:29:09Z</time>
      </trkpt>
      <trkpt lat="40.303650" lon="-4.812717">
        <ele>1758.0</ele>
        <time>2018-09-16T13:29:10Z</time>
      </trkpt>
      <trkpt lat="40.303600" lon="-4.812767">
        <ele>1759.0</ele>
        <time>2018-09-16T13:29:11Z</time>
      </trkpt>
      <trkpt lat="40.303533" lon="-4.812817">
        <ele>1760.0</ele>
        <time>2018-09-16T13:29:12Z</time>
      </trkpt>
      <trkpt lat="40.303467" lon="-4.812833">
        <ele>1761.0</ele>
        <time>2018-09-16T13:29:13Z</time>
      </trkpt>
      <trkpt lat="40.303400" lon="-4.812850">
        <ele>1762.0</ele>
        <time>2018-09-16T13:29:14Z</time>
      </trkpt>
      <trkpt lat="40.303333" lon="-4.812850">
        <ele>1764.0</ele>
        <time>2018-09-16T13:29:15Z</time>
      </trkpt>
      <trkpt lat="40.303267" lon="-4.812850">
        <ele>1766.0</ele>
        <time>2018-09-16T13:29:16Z</time>
      </trkpt>
      <trkpt lat="40.303200" lon="-4.812850">
        <ele>1768.0</ele>
        <time>2018-09-16T13:29:17Z</time>
      </trkpt>
      <trkpt lat="40.303133" lon="-4.812833">
        <ele>1769.0</ele>
        <time>2018-09-16T13:29:18Z</time>
      </trkpt>
      <trkpt lat="40.303067" lon="-4.812800">
        <ele>1770.0</ele>
        <time>2018-09-16T13:29:19Z</time>
      </trkpt>
      <trkpt lat="40.303017" lon="-4.812767">
        <ele>1772.0</ele>
        <time>2018-09-16T13:29:20Z</time>
      </trkpt>
      <trkpt lat="40.302967" lon="-4.812717">
        <ele>1774.0</ele>
        <time>2018-09-16T13:29:21Z</time>
      </trkpt>
      <trkpt lat="40.302917" lon="-4.812667">
        <ele>1775.0</ele>
        <time>2018-09-16T13:29:22Z</time>
      </trkpt>
      <trkpt lat="40.302883" lon="-4.812600">
        <ele>1776.0</ele>
        <time>2018-09-16T13:29:23Z</time>
      </trkpt>
      <trkpt lat="40.302867" lon="-4.812550">
        <ele>1777.0</ele>
        <time>2018-09-16T13:29:24Z</time>
      </trkpt>
      <trkpt lat="40.302850" lon="-4.812467">
        <ele>1777.0</ele>
        <time>2018-09-16T13:29:25Z</time>
      </trkpt>
      <trkpt lat="40.302850" lon="-4.812367">
        <ele>1776.0</ele>
        <time>2018-09-16T13:29:26Z</time>
      </trkpt>
      <trkpt lat="40.302867" lon="-4.812283">
        <ele>1775.0</ele>
        <time>2018-09-16T13:29:27Z</time>
      </trkpt>
      <trkpt lat="40.302933" lon="-4.812217">
        <ele>1775.0</ele>
        <time>2018-09-16T13:29:28Z</time>
      </trkpt>
      <trkpt lat="40.303000" lon="-4.812167">
        <ele>1773.0</ele>
        <time>2018-09-16T13:29:29Z</time>
      </trkpt>
      <trkpt lat="40.303083" lon="-4.812133">
        <ele>1772.0</ele>
        <time>2018-09-16T13:29:30Z</time>
      </trkpt>
      <trkpt lat="40.303183" lon="-4.812117">
        <ele>1772.0</ele>
        <time>2018-09-16T13:29:31Z</time>
      </trkpt>
      <trkpt lat="40.303267" lon="-4.812133">
        <ele>1771.0</ele>
        <time>2018-09-16T13:29:32Z</time>
      </trkpt>
      <trkpt lat="40.303367" lon="-4.812150">
        <ele>1771.0</ele>
        <time>2018-09-16T13:29:33Z</time>
      </trkpt>
      <trkpt lat="40.303450" lon="-4.812200">
        <ele>1772.0</ele>
        <time>2018-09-16T13:29:34Z</time>
      </trkpt>
      <trkpt lat="40.303533" lon="-4.812250">
        <ele>1772.0</ele>
        <time>2018-09-16T13:29:35Z</time>
      </trkpt>
      <trkpt lat="40.303633" lon="-4.812300">
        <ele>1771.0</ele>
        <time>2018-09-16T13:29:36Z</time>
      </trkpt>
      <trkpt lat="40.303750" lon="-4.812350">
        <ele>1771.0</ele>
        <time>2018-09-16T13:29:37Z</time>
      </trkpt>
      <trkpt lat="40.303833" lon="-4.812383">
        <ele>1771.0</ele>
        <time>2018-09-16T13:29:38Z</time>
      </trkpt>
      <trkpt lat="40.303933" lon="-4.812433">
        <ele>1772.0</ele>
        <time>2018-09-16T13:29:39Z</time>
      </trkpt>
      <trkpt lat="40.304000" lon="-4.812483">
        <ele>1774.0</ele>
        <time>2018-09-16T13:29:40Z</time>
      </trkpt>
      <trkpt lat="40.304083" lon="-4.812533">
        <ele>1775.0</ele>
        <time>2018-09-16T13:29:41Z</time>
      </trkpt>
      <trkpt lat="40.304167" lon="-4.812583">
        <ele>1776.0</ele>
        <time>2018-09-16T13:29:42Z</time>
      </trkpt>
      <trkpt lat="40.304250" lon="-4.812633">
        <ele>1776.0</ele>
        <time>2018-09-16T13:29:43Z</time>
      </trkpt>
      <trkpt lat="40.304350" lon="-4.812683">
        <ele>1775.0</ele>
        <time>2018-09-16T13:29:44Z</time>
      </trkpt>
      <trkpt lat="40.304433" lon="-4.812717">
        <ele>1776.0</ele>
        <time>2018-09-16T13:29:45Z</time>
      </trkpt>
      <trkpt lat="40.304517" lon="-4.812750">
        <ele>1777.0</ele>
        <time>2018-09-16T13:29:46Z</time>
      </trkpt>
      <trkpt lat="40.304583" lon="-4.812783">
        <ele>1777.0</ele>
        <time>2018-09-16T13:29:47Z</time>
      </trkpt>
      <trkpt lat="40.304683" lon="-4.812817">
        <ele>1778.0</ele>
        <time>2018-09-16T13:29:48Z</time>
      </trkpt>
      <trkpt lat="40.304783" lon="-4.812850">
        <ele>1778.0</ele>
        <time>2018-09-16T13:29:49Z</time>
      </trkpt>
      <trkpt lat="40.304883" lon="-4.812900">
        <ele>1778.0</ele>
        <time>2018-09-16T13:29:50Z</time>
      </trkpt>
      <trkpt lat="40.304967" lon="-4.812950">
        <ele>1779.0</ele>
        <time>2018-09-16T13:29:51Z</time>
      </trkpt>
      <trkpt lat="40.305033" lon="-4.813000">
        <ele>1781.0</ele>
        <time>2018-09-16T13:29:52Z</time>
      </trkpt>
      <trkpt lat="40.305117" lon="-4.813067">
        <ele>1781.0</ele>
        <time>2018-09-16T13:29:53Z</time>
      </trkpt>
      <trkpt lat="40.305167" lon="-4.813150">
        <ele>1781.0</ele>
        <time>2018-09-16T13:29:54Z</time>
      </trkpt>
      <trkpt lat="40.305217" lon="-4.813250">
        <ele>1781.0</ele>
        <time>2018-09-16T13:29:55Z</time>
      </trkpt>
      <trkpt lat="40.305250" lon="-4.813367">
        <ele>1781.0</ele>
        <time>2018-09-16T13:29:56Z</time>
      </trkpt>
      <trkpt lat="40.305233" lon="-4.813483">
        <ele>1781.0</ele>
        <time>2018-09-16T13:29:57Z</time>
      </trkpt>
      <trkpt lat="40.305183" lon="-4.813583">
        <ele>1781.0</ele>
        <time>2018-09-16T13:29:58Z</time>
      </trkpt>
      <trkpt lat="40.305117" lon="-4.813633">
        <ele>1782.0</ele>
        <time>2018-09-16T13:29:59Z</time>
      </trkpt>
      <trkpt lat="40.305050" lon="-4.813650">
        <ele>1784.0</ele>
        <time>2018-09-16T13:30:00Z</time>
      </trkpt>
      <trkpt lat="40.305017" lon="-4.813617">
        <ele>1786.0</ele>
        <time>2018-09-16T13:30:01Z</time>
      </trkpt>
      <trkpt lat="40.305000" lon="-4.813550">
        <ele>1787.0</ele>
        <time>2018-09-16T13:30:02Z</time>
      </trkpt>
      <trkpt lat="40.305017" lon="-4.813450">
        <ele>1786.0</ele>
        <time>2018-09-16T13:30:03Z</time>
      </trkpt>
      <trkpt lat="40.305033" lon="-4.813350">
        <ele>1786.0</ele>
        <time>2018-09-16T13:30:04Z</time>
      </trkpt>
      <trkpt lat="40.305083" lon="-4.813233">
        <ele>1786.0</ele>
        <time>2018-09-16T13:30:05Z</time>
      </trkpt>
      <trkpt lat="40.305167" lon="-4.813133">
        <ele>1786.0</ele>
        <time>2018-09-16T13:30:06Z</time>
      </trkpt>
      <trkpt lat="40.305250" lon="-4.813067">
        <ele>1784.0</ele>
        <time>2018-09-16T13:30:07Z</time>
      </trkpt>
      <trkpt lat="40.305383" lon="-4.813050">
        <ele>1783.0</ele>
        <time>2018-09-16T13:30:08Z</time>
      </trkpt>
      <trkpt lat="40.305500" lon="-4.813050">
        <ele>1781.0</ele>
        <time>2018-09-16T13:30:09Z</time>
      </trkpt>
      <trkpt lat="40.305600" lon="-4.813117">
        <ele>1781.0</ele>
        <time>2018-09-16T13:30:10Z</time>
      </trkpt>
      <trkpt lat="40.305683" lon="-4.813217">
        <ele>1782.0</ele>
        <time>2018-09-16T13:30:11Z</time>
      </trkpt>
      <trkpt lat="40.305717" lon="-4.813317">
        <ele>1784.0</ele>
        <time>2018-09-16T13:30:12Z</time>
      </trkpt>
      <trkpt lat="40.305767" lon="-4.813400">
        <ele>1784.0</ele>
        <time>2018-09-16T13:30:13Z</time>
      </trkpt>
      <trkpt lat="40.305850" lon="-4.813483">
        <ele>1785.0</ele>
        <time>2018-09-16T13:30:14Z</time>
      </trkpt>
      <trkpt lat="40.305933" lon="-4.813550">
        <ele>1785.0</ele>
        <time>2018-09-16T13:30:15Z</time>
      </trkpt>
      <trkpt lat="40.306017" lon="-4.813583">
        <ele>1784.0</ele>
        <time>2018-09-16T13:30:16Z</time>
      </trkpt>
      <trkpt lat="40.306117" lon="-4.813583">
        <ele>1784.0</ele>
        <time>2018-09-16T13:30:17Z</time>
      </trkpt>
      <trkpt lat="40.306217" lon="-4.813533">
        <ele>1783.0</ele>
        <time>2018-09-16T13:30:18Z</time>
      </trkpt>
      <trkpt lat="40.306300" lon="-4.813333">
        <ele>1782.0</ele>
        <time>2018-09-16T13:30:20Z</time>
      </trkpt>
      <trkpt lat="40.306300" lon="-4.813217">
        <ele>1783.0</ele>
        <time>2018-09-16T13:30:21Z</time>
      </trkpt>
      <trkpt lat="40.306300" lon="-4.813133">
        <ele>1783.0</ele>
        <time>2018-09-16T13:30:22Z</time>
      </trkpt>
      <trkpt lat="40.306267" lon="-4.813067">
        <ele>1783.0</ele>
        <time>2018-09-16T13:30:23Z</time>
      </trkpt>
      <trkpt lat="40.306250" lon="-4.812983">
        <ele>1783.0</ele>
        <time>2018-09-16T13:30:24Z</time>
      </trkpt>
      <trkpt lat="40.306233" lon="-4.812917">
        <ele>1783.0</ele>
        <time>2018-09-16T13:30:25Z</time>
      </trkpt>
      <trkpt lat="40.306200" lon="-4.812850">
        <ele>1783.0</ele>
        <time>2018-09-16T13:30:26Z</time>
      </trkpt>
      <trkpt lat="40.306083" lon="-4.812817">
        <ele>1783.0</ele>
        <time>2018-09-16T13:30:28Z</time>
      </trkpt>
      <trkpt lat="40.306017" lon="-4.812850">
        <ele>1783.0</ele>
        <time>2018-09-16T13:30:29Z</time>
      </trkpt>
      <trkpt lat="40.305967" lon="-4.812917">
        <ele>1783.0</ele>
        <time>2018-09-16T13:30:30Z</time>
      </trkpt>
      <trkpt lat="40.305967" lon="-4.813017">
        <ele>1783.0</ele>
        <time>2018-09-16T13:30:31Z</time>
      </trkpt>
      <trkpt lat="40.306017" lon="-4.813100">
        <ele>1782.0</ele>
        <time>2018-09-16T13:30:32Z</time>
      </trkpt>
      <trkpt lat="40.306100" lon="-4.813167">
        <ele>1781.0</ele>
        <time>2018-09-16T13:30:33Z</time>
      </trkpt>
      <trkpt lat="40.306217" lon="-4.813200">
        <ele>1780.0</ele>
        <time>2018-09-16T13:30:34Z</time>
      </trkpt>
      <trkpt lat="40.306317" lon="-4.813217">
        <ele>1780.0</ele>
        <time>2018-09-16T13:30:35Z</time>
      </trkpt>
      <trkpt lat="40.306417" lon="-4.813200">
        <ele>1780.0</ele>
        <time>2018-09-16T13:30:36Z</time>
      </trkpt>
      <trkpt lat="40.306500" lon="-4.813167">
        <ele>1781.0</ele>
        <time>2018-09-16T13:30:37Z</time>
      </trkpt>
      <trkpt lat="40.306583" lon="-4.813100">
        <ele>1781.0</ele>
        <time>2018-09-16T13:30:38Z</time>
      </trkpt>
      <trkpt lat="40.306667" lon="-4.813050">
        <ele>1781.0</ele>
        <time>2018-09-16T13:30:39Z</time>
      </trkpt>
      <trkpt lat="40.306733" lon="-4.812983">
        <ele>1781.0</ele>
        <time>2018-09-16T13:30:40Z</time>
      </trkpt>
      <trkpt lat="40.306817" lon="-4.812900">
        <ele>1782.0</ele>
        <time>2018-09-16T13:30:41Z</time>
      </trkpt>
      <trkpt lat="40.306867" lon="-4.812800">
        <ele>1782.0</ele>
        <time>2018-09-16T13:30:42Z</time>
      </trkpt>
      <trkpt lat="40.306917" lon="-4.812700">
        <ele>1783.0</ele>
        <time>2018-09-16T13:30:43Z</time>
      </trkpt>
      <trkpt lat="40.306967" lon="-4.812583">
        <ele>1784.0</ele>
        <time>2018-09-16T13:30:44Z</time>
      </trkpt>
      <trkpt lat="40.307000" lon="-4.812483">
        <ele>1786.0</ele>
        <time>2018-09-16T13:30:45Z</time>
      </trkpt>
      <trkpt lat="40.307050" lon="-4.812383">
        <ele>1788.0</ele>
        <time>2018-09-16T13:30:46Z</time>
      </trkpt>
      <trkpt lat="40.307083" lon="-4.812283">
        <ele>1790.0</ele>
        <time>2018-09-16T13:30:47Z</time>
      </trkpt>
      <trkpt lat="40.307117" lon="-4.812183">
        <ele>1791.0</ele>
        <time>2018-09-16T13:30:48Z</time>
      </trkpt>
      <trkpt lat="40.307150" lon="-4.812100">
        <ele>1789.0</ele>
        <time>2018-09-16T13:30:49Z</time>
      </trkpt>
      <trkpt lat="40.307167" lon="-4.812033">
        <ele>1789.0</ele>
        <time>2018-09-16T13:30:50Z</time>
      </trkpt>
      <trkpt lat="40.307167" lon="-4.811967">
        <ele>1790.0</ele>
        <time>2018-09-16T13:30:51Z</time>
      </trkpt>
      <trkpt lat="40.307117" lon="-4.811917">
        <ele>1790.0</ele>
        <time>2018-09-16T13:30:52Z</time>
      </trkpt>
      <trkpt lat="40.307050" lon="-4.811900">
        <ele>1790.0</ele>
        <time>2018-09-16T13:30:53Z</time>
      </trkpt>
      <trkpt lat="40.306983" lon="-4.811917">
        <ele>1791.0</ele>
        <time>2018-09-16T13:30:54Z</time>
      </trkpt>
      <trkpt lat="40.306933" lon="-4.811983">
        <ele>1792.0</ele>
        <time>2018-09-16T13:30:55Z</time>
      </trkpt>
      <trkpt lat="40.306917" lon="-4.812100">
        <ele>1793.0</ele>
        <time>2018-09-16T13:30:56Z</time>
      </trkpt>
      <trkpt lat="40.306950" lon="-4.812233">
        <ele>1793.0</ele>
        <time>2018-09-16T13:30:57Z</time>
      </trkpt>
      <trkpt lat="40.307000" lon="-4.812367">
        <ele>1794.0</ele>
        <time>2018-09-16T13:30:58Z</time>
      </trkpt>
      <trkpt lat="40.307083" lon="-4.812450">
        <ele>1797.0</ele>
        <time>2018-09-16T13:30:59Z</time>
      </trkpt>
      <trkpt lat="40.307183" lon="-4.812483">
        <ele>1799.0</ele>
        <time>2018-09-16T13:31:00Z</time>
      </trkpt>
      <trkpt lat="40.307283" lon="-4.812450">
        <ele>1801.0</ele>
        <time>2018-09-16T13:31:01Z</time>
      </trkpt>
      <trkpt lat="40.307350" lon="-4.812383">
        <ele>1803.0</ele>
        <time>2018-09-16T13:31:02Z</time>
      </trkpt>
      <trkpt lat="40.307400" lon="-4.812300">
        <ele>1804.0</ele>
        <time>2018-09-16T13:31:03Z</time>
      </trkpt>
      <trkpt lat="40.307433" lon="-4.812217">
        <ele>1807.0</ele>
        <time>2018-09-16T13:31:04Z</time>
      </trkpt>
      <trkpt lat="40.307467" lon="-4.812133">
        <ele>1809.0</ele>
        <time>2018-09-16T13:31:05Z</time>
      </trkpt>
      <trkpt lat="40.307500" lon="-4.812033">
        <ele>1811.0</ele>
        <time>2018-09-16T13:31:06Z</time>
      </trkpt>
      <trkpt lat="40.307533" lon="-4.811933">
        <ele>1807.0</ele>
        <time>2018-09-16T13:31:07Z</time>
      </trkpt>
      <trkpt lat="40.307550" lon="-4.811833">
        <ele>1807.0</ele>
        <time>2018-09-16T13:31:08Z</time>
      </trkpt>
      <trkpt lat="40.307533" lon="-4.811750">
        <ele>1808.0</ele>
        <time>2018-09-16T13:31:09Z</time>
      </trkpt>
      <trkpt lat="40.307500" lon="-4.811700">
        <ele>1808.0</ele>
        <time>2018-09-16T13:31:10Z</time>
      </trkpt>
      <trkpt lat="40.307450" lon="-4.811683">
        <ele>1808.0</ele>
        <time>2018-09-16T13:31:11Z</time>
      </trkpt>
      <trkpt lat="40.307383" lon="-4.811717">
        <ele>1808.0</ele>
        <time>2018-09-16T13:31:12Z</time>
      </trkpt>
      <trkpt lat="40.307333" lon="-4.811783">
        <ele>1808.0</ele>
        <time>2018-09-16T13:31:13Z</time>
      </trkpt>
      <trkpt lat="40.307300" lon="-4.811867">
        <ele>1808.0</ele>
        <time>2018-09-16T13:31:14Z</time>
      </trkpt>
      <trkpt lat="40.307300" lon="-4.812000">
        <ele>1806.0</ele>
        <time>2018-09-16T13:31:15Z</time>
      </trkpt>
      <trkpt lat="40.307317" lon="-4.812133">
        <ele>1806.0</ele>
        <time>2018-09-16T13:31:16Z</time>
      </trkpt>
      <trkpt lat="40.307300" lon="-4.812250">
        <ele>1808.0</ele>
        <time>2018-09-16T13:31:17Z</time>
      </trkpt>
      <trkpt lat="40.307283" lon="-4.812367">
        <ele>1810.0</ele>
        <time>2018-09-16T13:31:18Z</time>
      </trkpt>
      <trkpt lat="40.307267" lon="-4.812483">
        <ele>1815.0</ele>
        <time>2018-09-16T13:31:19Z</time>
      </trkpt>
      <trkpt lat="40.307267" lon="-4.812567">
        <ele>1819.0</ele>
        <time>2018-09-16T13:31:20Z</time>
      </trkpt>
      <trkpt lat="40.307267" lon="-4.812650">
        <ele>1822.0</ele>
        <time>2018-09-16T13:31:21Z</time>
      </trkpt>
      <trkpt lat="40.307250" lon="-4.812750">
        <ele>1824.0</ele>
        <time>2018-09-16T13:31:22Z</time>
      </trkpt>
      <trkpt lat="40.307217" lon="-4.812833">
        <ele>1824.0</ele>
        <time>2018-09-16T13:31:23Z</time>
      </trkpt>
      <trkpt lat="40.307150" lon="-4.812883">
        <ele>1824.0</ele>
        <time>2018-09-16T13:31:24Z</time>
      </trkpt>
      <trkpt lat="40.307083" lon="-4.812883">
        <ele>1823.0</ele>
        <time>2018-09-16T13:31:25Z</time>
      </trkpt>
      <trkpt lat="40.307033" lon="-4.812817">
        <ele>1823.0</ele>
        <time>2018-09-16T13:31:26Z</time>
      </trkpt>
      <trkpt lat="40.307000" lon="-4.812717">
        <ele>1823.0</ele>
        <time>2018-09-16T13:31:27Z</time>
      </trkpt>
      <trkpt lat="40.307017" lon="-4.812617">
        <ele>1824.0</ele>
        <time>2018-09-16T13:31:28Z</time>
      </trkpt>
      <trkpt lat="40.307067" lon="-4.812500">
        <ele>1824.0</ele>
        <time>2018-09-16T13:31:29Z</time>
      </trkpt>
      <trkpt lat="40.307133" lon="-4.812417">
        <ele>1826.0</ele>
        <time>2018-09-16T13:31:30Z</time>
      </trkpt>
      <trkpt lat="40.307200" lon="-4.812367">
        <ele>1828.0</ele>
        <time>2018-09-16T13:31:31Z</time>
      </trkpt>
      <trkpt lat="40.307283" lon="-4.812333">
        <ele>1830.0</ele>
        <time>2018-09-16T13:31:32Z</time>
      </trkpt>
      <trkpt lat="40.307383" lon="-4.812333">
        <ele>1833.0</ele>
        <time>2018-09-16T13:31:33Z</time>
      </trkpt>
      <trkpt lat="40.307483" lon="-4.812333">
        <ele>1835.0</ele>
        <time>2018-09-16T13:31:34Z</time>
      </trkpt>
      <trkpt lat="40.307583" lon="-4.812367">
        <ele>1837.0</ele>
        <time>2018-09-16T13:31:35Z</time>
      </trkpt>
      <trkpt lat="40.307683" lon="-4.812417">
        <ele>1838.0</ele>
        <time>2018-09-16T13:31:36Z</time>
      </trkpt>
      <trkpt lat="40.307767" lon="-4.812517">
        <ele>1840.0</ele>
        <time>2018-09-16T13:31:37Z</time>
      </trkpt>
      <trkpt lat="40.307833" lon="-4.812617">
        <ele>1842.0</ele>
        <time>2018-09-16T13:31:38Z</time>
      </trkpt>
      <trkpt lat="40.307883" lon="-4.812750">
        <ele>1845.0</ele>
        <time>2018-09-16T13:31:39Z</time>
      </trkpt>
      <trkpt lat="40.307900" lon="-4.812867">
        <ele>1849.0</ele>
        <time>2018-09-16T13:31:40Z</time>
      </trkpt>
      <trkpt lat="40.307883" lon="-4.812967">
        <ele>1852.0</ele>
        <time>2018-09-16T13:31:41Z</time>
      </trkpt>
      <trkpt lat="40.307883" lon="-4.813083">
        <ele>1855.0</ele>
        <time>2018-09-16T13:31:42Z</time>
      </trkpt>
      <trkpt lat="40.307850" lon="-4.813200">
        <ele>1857.0</ele>
        <time>2018-09-16T13:31:43Z</time>
      </trkpt>
      <trkpt lat="40.307817" lon="-4.813283">
        <ele>1859.0</ele>
        <time>2018-09-16T13:31:44Z</time>
      </trkpt>
      <trkpt lat="40.307767" lon="-4.813350">
        <ele>1860.0</ele>
        <time>2018-09-16T13:31:45Z</time>
      </trkpt>
      <trkpt lat="40.307700" lon="-4.813383">
        <ele>1861.0</ele>
        <time>2018-09-16T13:31:46Z</time>
      </trkpt>
      <trkpt lat="40.307633" lon="-4.813367">
        <ele>1861.0</ele>
        <time>2018-09-16T13:31:47Z</time>
      </trkpt>
      <trkpt lat="40.307600" lon="-4.813317">
        <ele>1862.0</ele>
        <time>2018-09-16T13:31:48Z</time>
      </trkpt>
      <trkpt lat="40.307567" lon="-4.813233">
        <ele>1862.0</ele>
        <time>2018-09-16T13:31:49Z</time>
      </trkpt>
      <trkpt lat="40.307600" lon="-4.813133">
        <ele>1862.0</ele>
        <time>2018-09-16T13:31:50Z</time>
      </trkpt>
      <trkpt lat="40.307650" lon="-4.813033">
        <ele>1861.0</ele>
        <time>2018-09-16T13:31:51Z</time>
      </trkpt>
      <trkpt lat="40.307733" lon="-4.812950">
        <ele>1862.0</ele>
        <time>2018-09-16T13:31:52Z</time>
      </trkpt>
      <trkpt lat="40.307833" lon="-4.812900">
        <ele>1863.0</ele>
        <time>2018-09-16T13:31:53Z</time>
      </trkpt>
      <trkpt lat="40.307933" lon="-4.812867">
        <ele>1864.0</ele>
        <time>2018-09-16T13:31:54Z</time>
      </trkpt>
      <trkpt lat="40.308033" lon="-4.812850">
        <ele>1866.0</ele>
        <time>2018-09-16T13:31:55Z</time>
      </trkpt>
      <trkpt lat="40.308133" lon="-4.812833">
        <ele>1868.0</ele>
        <time>2018-09-16T13:31:56Z</time>
      </trkpt>
      <trkpt lat="40.308233" lon="-4.812833">
        <ele>1871.0</ele>
        <time>2018-09-16T13:31:57Z</time>
      </trkpt>
      <trkpt lat="40.308317" lon="-4.812850">
        <ele>1873.0</ele>
        <time>2018-09-16T13:31:58Z</time>
      </trkpt>
      <trkpt lat="40.308400" lon="-4.812883">
        <ele>1876.0</ele>
        <time>2018-09-16T13:31:59Z</time>
      </trkpt>
      <trkpt lat="40.308483" lon="-4.812933">
        <ele>1879.0</ele>
        <time>2018-09-16T13:32:00Z</time>
      </trkpt>
      <trkpt lat="40.308567" lon="-4.813000">
        <ele>1881.0</ele>
        <time>2018-09-16T13:32:01Z</time>
      </trkpt>
      <trkpt lat="40.308650" lon="-4.813083">
        <ele>1883.0</ele>
        <time>2018-09-16T13:32:02Z</time>
      </trkpt>
      <trkpt lat="40.308700" lon="-4.813200">
        <ele>1886.0</ele>
        <time>2018-09-16T13:32:03Z</time>
      </trkpt>
      <trkpt lat="40.308717" lon="-4.813317">
        <ele>1888.0</ele>
        <time>2018-09-16T13:32:04Z</time>
      </trkpt>
      <trkpt lat="40.308683" lon="-4.813417">
        <ele>1890.0</ele>
        <time>2018-09-16T13:32:05Z</time>
      </trkpt>
      <trkpt lat="40.308633" lon="-4.813483">
        <ele>1892.0</ele>
        <time>2018-09-16T13:32:06Z</time>
      </trkpt>
      <trkpt lat="40.308550" lon="-4.813500">
        <ele>1895.0</ele>
        <time>2018-09-16T13:32:07Z</time>
      </trkpt>
      <trkpt lat="40.308500" lon="-4.813483">
        <ele>1898.0</ele>
        <time>2018-09-16T13:32:08Z</time>
      </trkpt>
      <trkpt lat="40.308467" lon="-4.813417">
        <ele>1901.0</ele>
        <time>2018-09-16T13:32:09Z</time>
      </trkpt>
      <trkpt lat="40.308450" lon="-4.813333">
        <ele>1903.0</ele>
        <time>2018-09-16T13:32:10Z</time>
      </trkpt>
      <trkpt lat="40.308467" lon="-4.813233">
        <ele>1905.0</ele>
        <time>2018-09-16T13:32:11Z</time>
      </trkpt>
      <trkpt lat="40.308500" lon="-4.813133">
        <ele>1907.0</ele>
        <time>2018-09-16T13:32:12Z</time>
      </trkpt>
      <trkpt lat="40.308550" lon="-4.813017">
        <ele>1909.0</ele>
        <time>2018-09-16T13:32:13Z</time>
      </trkpt>
      <trkpt lat="40.308617" lon="-4.812933">
        <ele>1912.0</ele>
        <time>2018-09-16T13:32:14Z</time>
      </trkpt>
      <trkpt lat="40.308717" lon="-4.812900">
        <ele>1915.0</ele>
        <time>2018-09-16T13:32:15Z</time>
      </trkpt>
      <trkpt lat="40.308833" lon="-4.812917">
        <ele>1918.0</ele>
        <time>2018-09-16T13:32:16Z</time>
      </trkpt>
      <trkpt lat="40.308950" lon="-4.812950">
        <ele>1920.0</ele>
        <time>2018-09-16T13:32:17Z</time>
      </trkpt>
      <trkpt lat="40.309050" lon="-4.813033">
        <ele>1922.0</ele>
        <time>2018-09-16T13:32:18Z</time>
      </trkpt>
      <trkpt lat="40.309133" lon="-4.813117">
        <ele>1925.0</ele>
        <time>2018-09-16T13:32:19Z</time>
      </trkpt>
      <trkpt lat="40.309183" lon="-4.813233">
        <ele>1928.0</ele>
        <time>2018-09-16T13:32:20Z</time>
      </trkpt>
      <trkpt lat="40.309200" lon="-4.813350">
        <ele>1931.0</ele>
        <time>2018-09-16T13:32:21Z</time>
      </trkpt>
      <trkpt lat="40.309200" lon="-4.813467">
        <ele>1933.0</ele>
        <time>2018-09-16T13:32:22Z</time>
      </trkpt>
      <trkpt lat="40.309167" lon="-4.813567">
        <ele>1936.0</ele>
        <time>2018-09-16T13:32:23Z</time>
      </trkpt>
      <trkpt lat="40.309117" lon="-4.813633">
        <ele>1939.0</ele>
        <time>2018-09-16T13:32:24Z</time>
      </trkpt>
      <trkpt lat="40.309033" lon="-4.813667">
        <ele>1941.0</ele>
        <time>2018-09-16T13:32:25Z</time>
      </trkpt>
      <trkpt lat="40.308983" lon="-4.813617">
        <ele>1944.0</ele>
        <time>2018-09-16T13:32:26Z</time>
      </trkpt>
      <trkpt lat="40.308950" lon="-4.813533">
        <ele>1946.0</ele>
        <time>2018-09-16T13:32:27Z</time>
      </trkpt>
      <trkpt lat="40.308950" lon="-4.813433">
        <ele>1949.0</ele>
        <time>2018-09-16T13:32:28Z</time>
      </trkpt>
      <trkpt lat="40.308983" lon="-4.813333">
        <ele>1951.0</ele>
        <time>2018-09-16T13:32:29Z</time>
      </trkpt>
      <trkpt lat="40.309017" lon="-4.813217">
        <ele>1953.0</ele>
        <time>2018-09-16T13:32:30Z</time>
      </trkpt>
      <trkpt lat="40.309067" lon="-4.813117">
        <ele>1957.0</ele>
        <time>2018-09-16T13:32:31Z</time>
      </trkpt>
      <trkpt lat="40.309150" lon="-4.813033">
        <ele>1960.0</ele>
        <time>2018-09-16T13:32:32Z</time>
      </trkpt>
      <trkpt lat="40.309250" lon="-4.813000">
        <ele>1964.0</ele>
        <time>2018-09-16T13:32:33Z</time>
      </trkpt>
      <trkpt lat="40.309367" lon="-4.813017">
        <ele>1967.0</ele>
        <time>2018-09-16T13:32:34Z</time>
      </trkpt>
      <trkpt lat="40.309483" lon="-4.813067">
        <ele>1969.0</ele>
        <time>2018-09-16T13:32:35Z</time>
      </trkpt>
      <trkpt lat="40.309600" lon="-4.813133">
        <ele>1972.0</ele>
        <time>2018-09-16T13:32:36Z</time>
      </trkpt>
      <trkpt lat="40.309717" lon="-4.813233">
        <ele>1974.0</ele>
        <time>2018-09-16T13:32:37Z</time>
      </trkpt>
      <trkpt lat="40.309800" lon="-4.813367">
        <ele>1976.0</ele>
        <time>2018-09-16T13:32:38Z</time>
      </trkpt>
      <trkpt lat="40.309850" lon="-4.813517">
        <ele>1978.0</ele>
        <time>2018-09-16T13:32:39Z</time>
      </trkpt>
      <trkpt lat="40.309850" lon="-4.813667">
        <ele>1980.0</ele>
        <time>2018-09-16T13:32:40Z</time>
      </trkpt>
      <trkpt lat="40.309817" lon="-4.813783">
        <ele>1982.0</ele>
        <time>2018-09-16T13:32:41Z</time>
      </trkpt>
      <trkpt lat="40.309733" lon="-4.813850">
        <ele>1985.0</ele>
        <time>2018-09-16T13:32:42Z</time>
      </trkpt>
      <trkpt lat="40.309650" lon="-4.813900">
        <ele>1986.0</ele>
        <time>2018-09-16T13:32:43Z</time>
      </trkpt>
      <trkpt lat="40.309583" lon="-4.813917">
        <ele>1989.0</ele>
        <time>2018-09-16T13:32:44Z</time>
      </trkpt>
      <trkpt lat="40.309500" lon="-4.813900">
        <ele>1992.0</ele>
        <time>2018-09-16T13:32:45Z</time>
      </trkpt>
      <trkpt lat="40.309450" lon="-4.813867">
        <ele>1995.0</ele>
        <time>2018-09-16T13:32:46Z</time>
      </trkpt>
      <trkpt lat="40.309400" lon="-4.813800">
        <ele>1998.0</ele>
        <time>2018-09-16T13:32:47Z</time>
      </trkpt>
      <trkpt lat="40.309350" lon="-4.813700">
        <ele>2000.0</ele>
        <time>2018-09-16T13:32:48Z</time>
      </trkpt>
      <trkpt lat="40.309333" lon="-4.813600">
        <ele>2004.0</ele>
        <time>2018-09-16T13:32:49Z</time>
      </trkpt>
      <trkpt lat="40.309350" lon="-4.813500">
        <ele>2008.0</ele>
        <time>2018-09-16T13:32:50Z</time>
      </trkpt>
      <trkpt lat="40.309400" lon="-4.813433">
        <ele>2011.0</ele>
        <time>2018-09-16T13:32:51Z</time>
      </trkpt>
      <trkpt lat="40.309483" lon="-4.813367">
        <ele>2014.0</ele>
        <time>2018-09-16T13:32:52Z</time>
      </trkpt>
      <trkpt lat="40.309583" lon="-4.813317">
        <ele>2017.0</ele>
        <time>2018-09-16T13:32:53Z</time>
      </trkpt>
      <trkpt lat="40.309683" lon="-4.813300">
        <ele>2018.0</ele>
        <time>2018-09-16T13:32:54Z</time>
      </trkpt>
      <trkpt lat="40.309783" lon="-4.813283">
        <ele>2021.0</ele>
        <time>2018-09-16T13:32:55Z</time>
      </trkpt>
      <trkpt lat="40.309883" lon="-4.813300">
        <ele>2023.0</ele>
        <time>2018-09-16T13:32:56Z</time>
      </trkpt>
      <trkpt lat="40.310000" lon="-4.813300">
        <ele>2024.0</ele>
        <time>2018-09-16T13:32:57Z</time>
      </trkpt>
      <trkpt lat="40.310233" lon="-4.813250">
        <ele>2028.0</ele>
        <time>2018-09-16T13:32:59Z</time>
      </trkpt>
      <trkpt lat="40.310300" lon="-4.813167">
        <ele>2029.0</ele>
        <time>2018-09-16T13:33:00Z</time>
      </trkpt>
      <trkpt lat="40.310300" lon="-4.813050">
        <ele>2030.0</ele>
        <time>2018-09-16T13:33:01Z</time>
      </trkpt>
      <trkpt lat="40.310283" lon="-4.812950">
        <ele>2030.0</ele>
        <time>2018-09-16T13:33:02Z</time>
      </trkpt>
      <trkpt lat="40.310233" lon="-4.812883">
        <ele>2030.0</ele>
        <time>2018-09-16T13:33:03Z</time>
      </trkpt>
      <trkpt lat="40.310183" lon="-4.812833">
        <ele>2030.0</ele>
        <time>2018-09-16T13:33:04Z</time>
      </trkpt>
      <trkpt lat="40.310117" lon="-4.812833">
        <ele>2031.0</ele>
        <time>2018-09-16T13:33:05Z</time>
      </trkpt>
      <trkpt lat="40.310050" lon="-4.812850">
        <ele>2032.0</ele>
        <time>2018-09-16T13:33:06Z</time>
      </trkpt>
      <trkpt lat="40.310000" lon="-4.812867">
        <ele>2034.0</ele>
        <time>2018-09-16T13:33:07Z</time>
      </trkpt>
      <trkpt lat="40.309950" lon="-4.812883">
        <ele>2035.0</ele>
        <time>2018-09-16T13:33:08Z</time>
      </trkpt>
      <trkpt lat="40.309883" lon="-4.812900">
        <ele>2036.0</ele>
        <time>2018-09-16T13:33:09Z</time>
      </trkpt>
      <trkpt lat="40.309833" lon="-4.812933">
        <ele>2037.0</ele>
        <time>2018-09-16T13:33:10Z</time>
      </trkpt>
      <trkpt lat="40.309783" lon="-4.813017">
        <ele>2037.0</ele>
        <time>2018-09-16T13:33:11Z</time>
      </trkpt>
      <trkpt lat="40.309750" lon="-4.813117">
        <ele>2038.0</ele>
        <time>2018-09-16T13:33:12Z</time>
      </trkpt>
      <trkpt lat="40.309733" lon="-4.813250">
        <ele>2035.0</ele>
        <time>2018-09-16T13:33:13Z</time>
      </trkpt>
      <trkpt lat="40.309750" lon="-4.813400">
        <ele>2035.0</ele>
        <time>2018-09-16T13:33:14Z</time>
      </trkpt>
      <trkpt lat="40.309817" lon="-4.813533">
        <ele>2035.0</ele>
        <time>2018-09-16T13:33:15Z</time>
      </trkpt>
      <trkpt lat="40.309900" lon="-4.813633">
        <ele>2035.0</ele>
        <time>2018-09-16T13:33:16Z</time>
      </trkpt>
      <trkpt lat="40.310017" lon="-4.813700">
        <ele>2035.0</ele>
        <time>2018-09-16T13:33:17Z</time>
      </trkpt>
      <trkpt lat="40.310150" lon="-4.813683">
        <ele>2035.0</ele>
        <time>2018-09-16T13:33:18Z</time>
      </trkpt>
      <trkpt lat="40.310267" lon="-4.813650">
        <ele>2037.0</ele>
        <time>2018-09-16T13:33:19Z</time>
      </trkpt>
      <trkpt lat="40.310350" lon="-4.813617">
        <ele>2040.0</ele>
        <time>2018-09-16T13:33:20Z</time>
      </trkpt>
      <trkpt lat="40.310450" lon="-4.813583">
        <ele>2043.0</ele>
        <time>2018-09-16T13:33:21Z</time>
      </trkpt>
      <trkpt lat="40.310550" lon="-4.813533">
        <ele>2045.0</ele>
        <time>2018-09-16T13:33:22Z</time>
      </trkpt>
      <trkpt lat="40.310650" lon="-4.813467">
        <ele>2048.0</ele>
        <time>2018-09-16T13:33:23Z</time>
      </trkpt>
      <trkpt lat="40.310717" lon="-4.813367">
        <ele>2050.0</ele>
        <time>2018-09-16T13:33:24Z</time>
      </trkpt>
      <trkpt lat="40.310733" lon="-4.813250">
        <ele>2052.0</ele>
        <time>2018-09-16T13:33:25Z</time>
      </trkpt>
      <trkpt lat="40.310683" lon="-4.813183">
        <ele>2054.0</ele>
        <time>2018-09-16T13:33:26Z</time>
      </trkpt>
      <trkpt lat="40.310617" lon="-4.813167">
        <ele>2055.0</ele>
        <time>2018-09-16T13:33:27Z</time>
      </trkpt>
      <trkpt lat="40.310583" lon="-4.813250">
        <ele>2057.0</ele>
        <time>2018-09-16T13:33:28Z</time>
      </trkpt>
      <trkpt lat="40.310583" lon="-4.813383">
        <ele>2058.0</ele>
        <time>2018-09-16T13:33:29Z</time>
      </trkpt>
      <trkpt lat="40.310667" lon="-4.813517">
        <ele>2059.0</ele>
        <time>2018-09-16T13:33:30Z</time>
      </trkpt>
      <trkpt lat="40.310817" lon="-4.813550">
        <ele>2058.0</ele>
        <time>2018-09-16T13:33:31Z</time>
      </trkpt>
      <trkpt lat="40.310967" lon="-4.813483">
        <ele>2057.0</ele>
        <time>2018-09-16T13:33:32Z</time>
      </trkpt>
      <trkpt lat="40.311050" lon="-4.813367">
        <ele>2059.0</ele>
        <time>2018-09-16T13:33:33Z</time>
      </trkpt>
      <trkpt lat="40.311083" lon="-4.813267">
        <ele>2061.0</ele>
        <time>2018-09-16T13:33:34Z</time>
      </trkpt>
      <trkpt lat="40.311083" lon="-4.813217">
        <ele>2060.0</ele>
        <time>2018-09-16T13:33:35Z</time>
      </trkpt>
      <trkpt lat="40.311033" lon="-4.813217">
        <ele>2059.0</ele>
        <time>2018-09-16T13:33:36Z</time>
      </trkpt>
      <trkpt lat="40.311000" lon="-4.813267">
        <ele>2060.0</ele>
        <time>2018-09-16T13:33:37Z</time>
      </trkpt>
      <trkpt lat="40.310967" lon="-4.813350">
        <ele>2060.0</ele>
        <time>2018-09-16T13:33:38Z</time>
      </trkpt>
      <trkpt lat="40.310967" lon="-4.813450">
        <ele>2061.0</ele>
        <time>2018-09-16T13:33:39Z</time>
      </trkpt>
      <trkpt lat="40.310983" lon="-4.813550">
        <ele>2062.0</ele>
        <time>2018-09-16T13:33:40Z</time>
      </trkpt>
      <trkpt lat="40.311017" lon="-4.813667">
        <ele>2062.0</ele>
        <time>2018-09-16T13:33:41Z</time>
      </trkpt>
      <trkpt lat="40.311083" lon="-4.813783">
        <ele>2063.0</ele>
        <time>2018-09-16T13:33:42Z</time>
      </trkpt>
      <trkpt lat="40.311183" lon="-4.813867">
        <ele>2065.0</ele>
        <time>2018-09-16T13:33:43Z</time>
      </trkpt>
      <trkpt lat="40.311300" lon="-4.813883">
        <ele>2067.0</ele>
        <time>2018-09-16T13:33:44Z</time>
      </trkpt>
      <trkpt lat="40.311417" lon="-4.813850">
        <ele>2068.0</ele>
        <time>2018-09-16T13:33:45Z</time>
      </trkpt>
      <trkpt lat="40.311500" lon="-4.813767">
        <ele>2070.0</ele>
        <time>2018-09-16T13:33:46Z</time>
      </trkpt>
      <trkpt lat="40.311533" lon="-4.813650">
        <ele>2072.0</ele>
        <time>2018-09-16T13:33:47Z</time>
      </trkpt>
      <trkpt lat="40.311533" lon="-4.813533">
        <ele>2073.0</ele>
        <time>2018-09-16T13:33:48Z</time>
      </trkpt>
      <trkpt lat="40.311500" lon="-4.813483">
        <ele>2072.0</ele>
        <time>2018-09-16T13:33:49Z</time>
      </trkpt>
      <trkpt lat="40.311450" lon="-4.813483">
        <ele>2073.0</ele>
        <time>2018-09-16T13:33:50Z</time>
      </trkpt>
      <trkpt lat="40.311400" lon="-4.813533">
        <ele>2075.0</ele>
        <time>2018-09-16T13:33:51Z</time>
      </trkpt>
      <trkpt lat="40.311367" lon="-4.813617">
        <ele>2075.0</ele>
        <time>2018-09-16T13:33:52Z</time>
      </trkpt>
      <trkpt lat="40.311367" lon="-4.813733">
        <ele>2076.0</ele>
        <time>2018-09-16T13:33:53Z</time>
      </trkpt>
      <trkpt lat="40.311400" lon="-4.813833">
        <ele>2078.0</ele>
        <time>2018-09-16T13:33:54Z</time>
      </trkpt>
      <trkpt lat="40.311483" lon="-4.813950">
        <ele>2081.0</ele>
        <time>2018-09-16T13:33:55Z</time>
      </trkpt>
      <trkpt lat="40.311583" lon="-4.814017">
        <ele>2082.0</ele>
        <time>2018-09-16T13:33:56Z</time>
      </trkpt>
      <trkpt lat="40.311700" lon="-4.814067">
        <ele>2085.0</ele>
        <time>2018-09-16T13:33:57Z</time>
      </trkpt>
      <trkpt lat="40.311817" lon="-4.814067">
        <ele>2089.0</ele>
        <time>2018-09-16T13:33:58Z</time>
      </trkpt>
      <trkpt lat="40.311917" lon="-4.814000">
        <ele>2092.0</ele>
        <time>2018-09-16T13:33:59Z</time>
      </trkpt>
      <trkpt lat="40.311983" lon="-4.813900">
        <ele>2096.0</ele>
        <time>2018-09-16T13:34:00Z</time>
      </trkpt>
      <trkpt lat="40.312033" lon="-4.813800">
        <ele>2099.0</ele>
        <time>2018-09-16T13:34:01Z</time>
      </trkpt>
      <trkpt lat="40.312050" lon="-4.813717">
        <ele>2097.0</ele>
        <time>2018-09-16T13:34:02Z</time>
      </trkpt>
      <trkpt lat="40.312017" lon="-4.813667">
        <ele>2097.0</ele>
        <time>2018-09-16T13:34:03Z</time>
      </trkpt>
      <trkpt lat="40.311983" lon="-4.813667">
        <ele>2098.0</ele>
        <time>2018-09-16T13:34:04Z</time>
      </trkpt>
      <trkpt lat="40.311950" lon="-4.813733">
        <ele>2099.0</ele>
        <time>2018-09-16T13:34:05Z</time>
      </trkpt>
      <trkpt lat="40.311933" lon="-4.813850">
        <ele>2099.0</ele>
        <time>2018-09-16T13:34:06Z</time>
      </trkpt>
      <trkpt lat="40.312033" lon="-4.814083">
        <ele>2101.0</ele>
        <time>2018-09-16T13:34:08Z</time>
      </trkpt>
      <trkpt lat="40.312117" lon="-4.814200">
        <ele>2102.0</ele>
        <time>2018-09-16T13:34:09Z</time>
      </trkpt>
      <trkpt lat="40.312217" lon="-4.814267">
        <ele>2104.0</ele>
        <time>2018-09-16T13:34:10Z</time>
      </trkpt>
      <trkpt lat="40.312333" lon="-4.814267">
        <ele>2108.0</ele>
        <time>2018-09-16T13:34:11Z</time>
      </trkpt>
      <trkpt lat="40.312450" lon="-4.814267">
        <ele>2110.0</ele>
        <time>2018-09-16T13:34:12Z</time>
      </trkpt>
      <trkpt lat="40.312550" lon="-4.814217">
        <ele>2112.0</ele>
        <time>2018-09-16T13:34:13Z</time>
      </trkpt>
      <trkpt lat="40.312633" lon="-4.814150">
        <ele>2116.0</ele>
        <time>2018-09-16T13:34:14Z</time>
      </trkpt>
      <trkpt lat="40.312683" lon="-4.814067">
        <ele>2118.0</ele>
        <time>2018-09-16T13:34:15Z</time>
      </trkpt>
      <trkpt lat="40.312717" lon="-4.814000">
        <ele>2118.0</ele>
        <time>2018-09-16T13:34:16Z</time>
      </trkpt>
      <trkpt lat="40.312700" lon="-4.813917">
        <ele>2118.0</ele>
        <time>2018-09-16T13:34:17Z</time>
      </trkpt>
      <trkpt lat="40.312667" lon="-4.813850">
        <ele>2120.0</ele>
        <time>2018-09-16T13:34:18Z</time>
      </trkpt>
      <trkpt lat="40.312650" lon="-4.813833">
        <ele>2120.0</ele>
        <time>2018-09-16T13:34:19Z</time>
      </trkpt>
      <trkpt lat="40.312617" lon="-4.813850">
        <ele>2122.0</ele>
        <time>2018-09-16T13:34:20Z</time>
      </trkpt>
      <trkpt lat="40.312600" lon="-4.813883">
        <ele>2125.0</ele>
        <time>2018-09-16T13:34:21Z</time>
      </trkpt>
      <trkpt lat="40.312567" lon="-4.813917">
        <ele>2128.0</ele>
        <time>2018-09-16T13:34:22Z</time>
      </trkpt>
      <trkpt lat="40.312500" lon="-4.813933">
        <ele>2131.0</ele>
        <time>2018-09-16T13:34:23Z</time>
      </trkpt>
      <trkpt lat="40.312433" lon="-4.814017">
        <ele>2137.0</ele>
        <time>2018-09-16T13:34:24Z</time>
      </trkpt>
      <trkpt lat="40.312400" lon="-4.814117">
        <ele>2143.0</ele>
        <time>2018-09-16T13:34:25Z</time>
      </trkpt>
      <trkpt lat="40.312400" lon="-4.814233">
        <ele>2147.0</ele>
        <time>2018-09-16T13:34:26Z</time>
      </trkpt>
      <trkpt lat="40.312433" lon="-4.814350">
        <ele>2151.0</ele>
        <time>2018-09-16T13:34:27Z</time>
      </trkpt>
      <trkpt lat="40.312483" lon="-4.814467">
        <ele>2155.0</ele>
        <time>2018-09-16T13:34:28Z</time>
      </trkpt>
      <trkpt lat="40.312550" lon="-4.814550">
        <ele>2160.0</ele>
        <time>2018-09-16T13:34:29Z</time>
      </trkpt>
      <trkpt lat="40.312650" lon="-4.814600">
        <ele>2165.0</ele>
        <time>2018-09-16T13:34:30Z</time>
      </trkpt>
      <trkpt lat="40.312733" lon="-4.814633">
        <ele>2169.0</ele>
        <time>2018-09-16T13:34:31Z</time>
      </trkpt>
      <trkpt lat="40.312833" lon="-4.814617">
        <ele>2173.0</ele>
        <time>2018-09-16T13:34:32Z</time>
      </trkpt>
      <trkpt lat="40.312933" lon="-4.814550">
        <ele>2177.0</ele>
        <time>2018-09-16T13:34:33Z</time>
      </trkpt>
      <trkpt lat="40.313000" lon="-4.814467">
        <ele>2180.0</ele>
        <time>2018-09-16T13:34:34Z</time>
      </trkpt>
      <trkpt lat="40.313033" lon="-4.814383">
        <ele>2182.0</ele>
        <time>2018-09-16T13:34:35Z</time>
      </trkpt>
      <trkpt lat="40.313033" lon="-4.814317">
        <ele>2184.0</ele>
        <time>2018-09-16T13:34:36Z</time>
      </trkpt>
      <trkpt lat="40.313000" lon="-4.814267">
        <ele>2187.0</ele>
        <time>2018-09-16T13:34:37Z</time>
      </trkpt>
      <trkpt lat="40.312950" lon="-4.814267">
        <ele>2189.0</ele>
        <time>2018-09-16T13:34:38Z</time>
      </trkpt>
      <trkpt lat="40.312900" lon="-4.814300">
        <ele>2192.0</ele>
        <time>2018-09-16T13:34:39Z</time>
      </trkpt>
      <trkpt lat="40.312867" lon="-4.814367">
        <ele>2194.0</ele>
        <time>2018-09-16T13:34:40Z</time>
      </trkpt>
      <trkpt lat="40.312833" lon="-4.814417">
        <ele>2196.0</ele>
        <time>2018-09-16T13:34:41Z</time>
      </trkpt>
      <trkpt lat="40.312783" lon="-4.814483">
        <ele>2190.0</ele>
        <time>2018-09-16T13:34:42Z</time>
      </trkpt>
      <trkpt lat="40.312717" lon="-4.814567">
        <ele>2190.0</ele>
        <time>2018-09-16T13:34:43Z</time>
      </trkpt>
      <trkpt lat="40.312683" lon="-4.814683">
        <ele>2192.0</ele>
        <time>2018-09-16T13:34:44Z</time>
      </trkpt>
      <trkpt lat="40.312667" lon="-4.814817">
        <ele>2192.0</ele>
        <time>2018-09-16T13:34:45Z</time>
      </trkpt>
      <trkpt lat="40.312700" lon="-4.814967">
        <ele>2194.0</ele>
        <time>2018-09-16T13:34:46Z</time>
      </trkpt>
      <trkpt lat="40.312733" lon="-4.815083">
        <ele>2195.0</ele>
        <time>2018-09-16T13:34:47Z</time>
      </trkpt>
      <trkpt lat="40.312800" lon="-4.815167">
        <ele>2197.0</ele>
        <time>2018-09-16T13:34:48Z</time>
      </trkpt>
      <trkpt lat="40.312867" lon="-4.815217">
        <ele>2200.0</ele>
        <time>2018-09-16T13:34:49Z</time>
      </trkpt>
      <trkpt lat="40.312967" lon="-4.815233">
        <ele>2203.0</ele>
        <time>2018-09-16T13:34:50Z</time>
      </trkpt>
      <trkpt lat="40.313067" lon="-4.815217">
        <ele>2206.0</ele>
        <time>2018-09-16T13:34:51Z</time>
      </trkpt>
      <trkpt lat="40.313150" lon="-4.815150">
        <ele>2209.0</ele>
        <time>2018-09-16T13:34:52Z</time>
      </trkpt>
      <trkpt lat="40.313200" lon="-4.815067">
        <ele>2211.0</ele>
        <time>2018-09-16T13:34:53Z</time>
      </trkpt>
      <trkpt lat="40.313233" lon="-4.814967">
        <ele>2214.0</ele>
        <time>2018-09-16T13:34:54Z</time>
      </trkpt>
      <trkpt lat="40.313233" lon="-4.814867">
        <ele>2218.0</ele>
        <time>2018-09-16T13:34:55Z</time>
      </trkpt>
      <trkpt lat="40.313200" lon="-4.814783">
        <ele>2221.0</ele>
        <time>2018-09-16T13:34:56Z</time>
      </trkpt>
      <trkpt lat="40.313133" lon="-4.814733">
        <ele>2224.0</ele>
        <time>2018-09-16T13:34:57Z</time>
      </trkpt>
      <trkpt lat="40.313083" lon="-4.814717">
        <ele>2226.0</ele>
        <time>2018-09-16T13:34:58Z</time>
      </trkpt>
      <trkpt lat="40.313033" lon="-4.814733">
        <ele>2222.0</ele>
        <time>2018-09-16T13:34:59Z</time>
      </trkpt>
      <trkpt lat="40.313000" lon="-4.814800">
        <ele>2222.0</ele>
        <time>2018-09-16T13:35:00Z</time>
      </trkpt>
      <trkpt lat="40.313000" lon="-4.814917">
        <ele>2223.0</ele>
        <time>2018-09-16T13:35:01Z</time>
      </trkpt>
      <trkpt lat="40.313050" lon="-4.815033">
        <ele>2226.0</ele>
        <time>2018-09-16T13:35:02Z</time>
      </trkpt>
      <trkpt lat="40.313100" lon="-4.815117">
        <ele>2228.0</ele>
        <time>2018-09-16T13:35:03Z</time>
      </trkpt>
      <trkpt lat="40.313167" lon="-4.815200">
        <ele>2231.0</ele>
        <time>2018-09-16T13:35:04Z</time>
      </trkpt>
      <trkpt lat="40.313217" lon="-4.815300">
        <ele>2233.0</ele>
        <time>2018-09-16T13:35:05Z</time>
      </trkpt>
      <trkpt lat="40.313283" lon="-4.815350">
        <ele>2238.0</ele>
        <time>2018-09-16T13:35:06Z</time>
      </trkpt>
      <trkpt lat="40.313333" lon="-4.815350">
        <ele>2239.0</ele>
        <time>2018-09-16T13:35:07Z</time>
      </trkpt>
      <trkpt lat="40.313400" lon="-4.815300">
        <ele>2239.0</ele>
        <time>2018-09-16T13:35:08Z</time>
      </trkpt>
      <trkpt lat="40.313450" lon="-4.815200">
        <ele>2240.0</ele>
        <time>2018-09-16T13:35:09Z</time>
      </trkpt>
      <trkpt lat="40.313450" lon="-4.815117">
        <ele>2241.0</ele>
        <time>2018-09-16T13:35:10Z</time>
      </trkpt>
      <trkpt lat="40.313417" lon="-4.815067">
        <ele>2242.0</ele>
        <time>2018-09-16T13:35:11Z</time>
      </trkpt>
      <trkpt lat="40.313367" lon="-4.815033">
        <ele>2242.0</ele>
        <time>2018-09-16T13:35:12Z</time>
      </trkpt>
      <trkpt lat="40.313300" lon="-4.815017">
        <ele>2243.0</ele>
        <time>2018-09-16T13:35:13Z</time>
      </trkpt>
      <trkpt lat="40.313267" lon="-4.815017">
        <ele>2244.0</ele>
        <time>2018-09-16T13:35:14Z</time>
      </trkpt>
      <trkpt lat="40.313250" lon="-4.815033">
        <ele>2246.0</ele>
        <time>2018-09-16T13:35:15Z</time>
      </trkpt>
      <trkpt lat="40.313233" lon="-4.815100">
        <ele>2248.0</ele>
        <time>2018-09-16T13:35:16Z</time>
      </trkpt>
      <trkpt lat="40.313200" lon="-4.815200">
        <ele>2248.0</ele>
        <time>2018-09-16T13:35:17Z</time>
      </trkpt>
      <trkpt lat="40.313183" lon="-4.815283">
        <ele>2249.0</ele>
        <time>2018-09-16T13:35:18Z</time>
      </trkpt>
      <trkpt lat="40.313167" lon="-4.815383">
        <ele>2251.0</ele>
        <time>2018-09-16T13:35:19Z</time>
      </trkpt>
      <trkpt lat="40.313183" lon="-4.815467">
        <ele>2253.0</ele>
        <time>2018-09-16T13:35:20Z</time>
      </trkpt>
      <trkpt lat="40.313233" lon="-4.815567">
        <ele>2254.0</ele>
        <time>2018-09-16T13:35:21Z</time>
      </trkpt>
      <trkpt lat="40.313300" lon="-4.815650">
        <ele>2255.0</ele>
        <time>2018-09-16T13:35:22Z</time>
      </trkpt>
      <trkpt lat="40.313417" lon="-4.815650">
        <ele>2256.0</ele>
        <time>2018-09-16T13:35:23Z</time>
      </trkpt>
      <trkpt lat="40.313500" lon="-4.815617">
        <ele>2256.0</ele>
        <time>2018-09-16T13:35:24Z</time>
      </trkpt>
      <trkpt lat="40.313567" lon="-4.815533">
        <ele>2258.0</ele>
        <time>2018-09-16T13:35:25Z</time>
      </trkpt>
      <trkpt lat="40.313583" lon="-4.815433">
        <ele>2259.0</ele>
        <time>2018-09-16T13:35:26Z</time>
      </trkpt>
      <trkpt lat="40.313600" lon="-4.815317">
        <ele>2259.0</ele>
        <time>2018-09-16T13:35:27Z</time>
      </trkpt>
      <trkpt lat="40.313567" lon="-4.815233">
        <ele>2261.0</ele>
        <time>2018-09-16T13:35:28Z</time>
      </trkpt>
      <trkpt lat="40.313517" lon="-4.815200">
        <ele>2262.0</ele>
        <time>2018-09-16T13:35:29Z</time>
      </trkpt>
      <trkpt lat="40.313450" lon="-4.815217">
        <ele>2263.0</ele>
        <time>2018-09-16T13:35:30Z</time>
      </trkpt>
      <trkpt lat="40.313400" lon="-4.815283">
        <ele>2263.0</ele>
        <time>2018-09-16T13:35:31Z</time>
      </trkpt>
      <trkpt lat="40.313400" lon="-4.815383">
        <ele>2264.0</ele>
        <time>2018-09-16T13:35:32Z</time>
      </trkpt>
      <trkpt lat="40.313383" lon="-4.815433">
        <ele>2265.0</ele>
        <time>2018-09-16T13:35:33Z</time>
      </trkpt>
      <trkpt lat="40.313383" lon="-4.815483">
        <ele>2267.0</ele>
        <time>2018-09-16T13:35:34Z</time>
      </trkpt>
      <trkpt lat="40.313417" lon="-4.815600">
        <ele>2268.0</ele>
        <time>2018-09-16T13:35:35Z</time>
      </trkpt>
      <trkpt lat="40.313467" lon="-4.815733">
        <ele>2269.0</ele>
        <time>2018-09-16T13:35:36Z</time>
      </trkpt>
      <trkpt lat="40.313550" lon="-4.815817">
        <ele>2272.0</ele>
        <time>2018-09-16T13:35:37Z</time>
      </trkpt>
      <trkpt lat="40.313667" lon="-4.815817">
        <ele>2273.0</ele>
        <time>2018-09-16T13:35:38Z</time>
      </trkpt>
      <trkpt lat="40.313750" lon="-4.815767">
        <ele>2274.0</ele>
        <time>2018-09-16T13:35:39Z</time>
      </trkpt>
      <trkpt lat="40.313767" lon="-4.815667">
        <ele>2275.0</ele>
        <time>2018-09-16T13:35:40Z</time>
      </trkpt>
      <trkpt lat="40.313700" lon="-4.815533">
        <ele>2276.0</ele>
        <time>2018-09-16T13:35:42Z</time>
      </trkpt>
      <trkpt lat="40.313633" lon="-4.815517">
        <ele>2277.0</ele>
        <time>2018-09-16T13:35:43Z</time>
      </trkpt>
      <trkpt lat="40.313583" lon="-4.815567">
        <ele>2278.0</ele>
        <time>2018-09-16T13:35:44Z</time>
      </trkpt>
      <trkpt lat="40.313583" lon="-4.815683">
        <ele>2278.0</ele>
        <time>2018-09-16T13:35:45Z</time>
      </trkpt>
      <trkpt lat="40.313600" lon="-4.815750">
        <ele>2279.0</ele>
        <time>2018-09-16T13:35:46Z</time>
      </trkpt>
      <trkpt lat="40.313617" lon="-4.815817">
        <ele>2279.0</ele>
        <time>2018-09-16T13:35:47Z</time>
      </trkpt>
      <trkpt lat="40.313717" lon="-4.815883">
        <ele>2280.0</ele>
        <time>2018-09-16T13:35:49Z</time>
      </trkpt>
      <trkpt lat="40.313783" lon="-4.815850">
        <ele>2281.0</ele>
        <time>2018-09-16T13:35:50Z</time>
      </trkpt>
      <trkpt lat="40.313833" lon="-4.815817">
        <ele>2282.0</ele>
        <time>2018-09-16T13:35:51Z</time>
      </trkpt>
      <trkpt lat="40.313867" lon="-4.815800">
        <ele>2282.0</ele>
        <time>2018-09-16T13:35:52Z</time>
      </trkpt>
      <trkpt lat="40.313883" lon="-4.815750">
        <ele>2284.0</ele>
        <time>2018-09-16T13:35:53Z</time>
      </trkpt>
      <trkpt lat="40.313917" lon="-4.815683">
        <ele>2285.0</ele>
        <time>2018-09-16T13:35:54Z</time>
      </trkpt>
      <trkpt lat="40.313933" lon="-4.815633">
        <ele>2286.0</ele>
        <time>2018-09-16T13:35:55Z</time>
      </trkpt>
      <trkpt lat="40.313917" lon="-4.815517">
        <ele>2287.0</ele>
        <time>2018-09-16T13:35:56Z</time>
      </trkpt>
      <trkpt lat="40.313917" lon="-4.815450">
        <ele>2289.0</ele>
        <time>2018-09-16T13:35:57Z</time>
      </trkpt>
      <trkpt lat="40.313917" lon="-4.815400">
        <ele>2291.0</ele>
        <time>2018-09-16T13:35:58Z</time>
      </trkpt>
      <trkpt lat="40.313917" lon="-4.815317">
        <ele>2293.0</ele>
        <time>2018-09-16T13:35:59Z</time>
      </trkpt>
      <trkpt lat="40.313917" lon="-4.815250">
        <ele>2295.0</ele>
        <time>2018-09-16T13:36:00Z</time>
      </trkpt>
      <trkpt lat="40.313900" lon="-4.815183">
        <ele>2297.0</ele>
        <time>2018-09-16T13:36:01Z</time>
      </trkpt>
      <trkpt lat="40.313867" lon="-4.815117">
        <ele>2300.0</ele>
        <time>2018-09-16T13:36:02Z</time>
      </trkpt>
      <trkpt lat="40.313850" lon="-4.815050">
        <ele>2302.0</ele>
        <time>2018-09-16T13:36:03Z</time>
      </trkpt>
      <trkpt lat="40.313850" lon="-4.814983">
        <ele>2305.0</ele>
        <time>2018-09-16T13:36:04Z</time>
      </trkpt>
      <trkpt lat="40.313850" lon="-4.814933">
        <ele>2307.0</ele>
        <time>2018-09-16T13:36:05Z</time>
      </trkpt>
      <trkpt lat="40.313833" lon="-4.814850">
        <ele>2312.0</ele>
        <time>2018-09-16T13:36:06Z</time>
      </trkpt>
      <trkpt lat="40.313817" lon="-4.814800">
        <ele>2318.0</ele>
        <time>2018-09-16T13:36:07Z</time>
      </trkpt>
      <trkpt lat="40.313783" lon="-4.814733">
        <ele>2322.0</ele>
        <time>2018-09-16T13:36:08Z</time>
      </trkpt>
      <trkpt lat="40.313767" lon="-4.814683">
        <ele>2326.0</ele>
        <time>2018-09-16T13:36:09Z</time>
      </trkpt>
      <trkpt lat="40.313750" lon="-4.814633">
        <ele>2330.0</ele>
        <time>2018-09-16T13:36:10Z</time>
      </trkpt>
      <trkpt lat="40.313717" lon="-4.814583">
        <ele>2334.0</ele>
        <time>2018-09-16T13:36:11Z</time>
      </trkpt>
      <trkpt lat="40.313667" lon="-4.814517">
        <ele>2337.0</ele>
        <time>2018-09-16T13:36:12Z</time>
      </trkpt>
      <trkpt lat="40.313600" lon="-4.814450">
        <ele>2340.0</ele>
        <time>2018-09-16T13:36:13Z</time>
      </trkpt>
      <trkpt lat="40.313533" lon="-4.814400">
        <ele>2344.0</ele>
        <time>2018-09-16T13:36:14Z</time>
      </trkpt>
      <trkpt lat="40.313500" lon="-4.814367">
        <ele>2352.0</ele>
        <time>2018-09-16T13:36:15Z</time>
      </trkpt>
      <trkpt lat="40.313483" lon="-4.814317">
        <ele>2357.0</ele>
        <time>2018-09-16T13:36:16Z</time>
      </trkpt>
      <trkpt lat="40.313467" lon="-4.814267">
        <ele>2362.0</ele>
        <time>2018-09-16T13:36:17Z</time>
      </trkpt>
      <trkpt lat="40.313433" lon="-4.814200">
        <ele>2367.0</ele>
        <time>2018-09-16T13:36:18Z</time>
      </trkpt>
      <trkpt lat="40.313367" lon="-4.814117">
        <ele>2373.0</ele>
        <time>2018-09-16T13:36:19Z</time>
      </trkpt>
      <trkpt lat="40.313300" lon="-4.814050">
        <ele>2380.0</ele>
        <time>2018-09-16T13:36:20Z</time>
      </trkpt>
      <trkpt lat="40.313233" lon="-4.813983">
        <ele>2385.0</ele>
        <time>2018-09-16T13:36:21Z</time>
      </trkpt>
      <trkpt lat="40.313183" lon="-4.813917">
        <ele>2390.0</ele>
        <time>2018-09-16T13:36:22Z</time>
      </trkpt>
      <trkpt lat="40.313117" lon="-4.813850">
        <ele>2396.0</ele>
        <time>2018-09-16T13:36:23Z</time>
      </trkpt>
      <trkpt lat="40.313067" lon="-4.813783">
        <ele>2403.0</ele>
        <time>2018-09-16T13:36:24Z</time>
      </trkpt>
      <trkpt lat="40.313000" lon="-4.813717">
        <ele>2408.0</ele>
        <time>2018-09-16T13:36:25Z</time>
      </trkpt>
      <trkpt lat="40.312917" lon="-4.813667">
        <ele>2414.0</ele>
        <time>2018-09-16T13:36:26Z</time>
      </trkpt>
      <trkpt lat="40.312817" lon="-4.813600">
        <ele>2419.0</ele>
        <time>2018-09-16T13:36:27Z</time>
      </trkpt>
      <trkpt lat="40.312750" lon="-4.813533">
        <ele>2425.0</ele>
        <time>2018-09-16T13:36:28Z</time>
      </trkpt>
      <trkpt lat="40.312683" lon="-4.813467">
        <ele>2429.0</ele>
        <time>2018-09-16T13:36:29Z</time>
      </trkpt>
      <trkpt lat="40.312617" lon="-4.813383">
        <ele>2433.0</ele>
        <time>2018-09-16T13:36:30Z</time>
      </trkpt>
      <trkpt lat="40.312533" lon="-4.813300">
        <ele>2437.0</ele>
        <time>2018-09-16T13:36:31Z</time>
      </trkpt>
      <trkpt lat="40.312467" lon="-4.813250">
        <ele>2441.0</ele>
        <time>2018-09-16T13:36:32Z</time>
      </trkpt>
      <trkpt lat="40.312400" lon="-4.813217">
        <ele>2445.0</ele>
        <time>2018-09-16T13:36:33Z</time>
      </trkpt>
      <trkpt lat="40.312350" lon="-4.813200">
        <ele>2449.0</ele>
        <time>2018-09-16T13:36:34Z</time>
      </trkpt>
      <trkpt lat="40.312283" lon="-4.813167">
        <ele>2453.0</ele>
        <time>2018-09-16T13:36:35Z</time>
      </trkpt>
      <trkpt lat="40.312233" lon="-4.813133">
        <ele>2455.0</ele>
        <time>2018-09-16T13:36:36Z</time>
      </trkpt>
      <trkpt lat="40.312183" lon="-4.813100">
        <ele>2457.0</ele>
        <time>2018-09-16T13:36:37Z</time>
      </trkpt>
      <trkpt lat="40.312133" lon="-4.813033">
        <ele>2460.0</ele>
        <time>2018-09-16T13:36:38Z</time>
      </trkpt>
      <trkpt lat="40.312083" lon="-4.812983">
        <ele>2461.0</ele>
        <time>2018-09-16T13:36:39Z</time>
      </trkpt>
      <trkpt lat="40.312050" lon="-4.812933">
        <ele>2463.0</ele>
        <time>2018-09-16T13:36:40Z</time>
      </trkpt>
      <trkpt lat="40.312000" lon="-4.812883">
        <ele>2465.0</ele>
        <time>2018-09-16T13:36:41Z</time>
      </trkpt>
      <trkpt lat="40.311950" lon="-4.812833">
        <ele>2467.0</ele>
        <time>2018-09-16T13:36:42Z</time>
      </trkpt>
      <trkpt lat="40.311900" lon="-4.812750">
        <ele>2469.0</ele>
        <time>2018-09-16T13:36:43Z</time>
      </trkpt>
      <trkpt lat="40.311867" lon="-4.812683">
        <ele>2470.0</ele>
        <time>2018-09-16T13:36:44Z</time>
      </trkpt>
      <trkpt lat="40.311833" lon="-4.812633">
        <ele>2471.0</ele>
        <time>2018-09-16T13:36:45Z</time>
      </trkpt>
      <trkpt lat="40.311783" lon="-4.812567">
        <ele>2472.0</ele>
        <time>2018-09-16T13:36:46Z</time>
      </trkpt>
      <trkpt lat="40.311750" lon="-4.812500">
        <ele>2474.0</ele>
        <time>2018-09-16T13:36:47Z</time>
      </trkpt>
      <trkpt lat="40.311717" lon="-4.812433">
        <ele>2475.0</ele>
        <time>2018-09-16T13:36:48Z</time>
      </trkpt>
      <trkpt lat="40.311683" lon="-4.812367">
        <ele>2477.0</ele>
        <time>2018-09-16T13:36:49Z</time>
      </trkpt>
      <trkpt lat="40.311650" lon="-4.812300">
        <ele>2479.0</ele>
        <time>2018-09-16T13:36:50Z</time>
      </trkpt>
      <trkpt lat="40.311583" lon="-4.812233">
        <ele>2479.0</ele>
        <time>2018-09-16T13:36:51Z</time>
      </trkpt>
      <trkpt lat="40.311533" lon="-4.812167">
        <ele>2479.0</ele>
        <time>2018-09-16T13:36:52Z</time>
      </trkpt>
      <trkpt lat="40.311483" lon="-4.812100">
        <ele>2481.0</ele>
        <time>2018-09-16T13:36:53Z</time>
      </trkpt>
      <trkpt lat="40.311450" lon="-4.812033">
        <ele>2483.0</ele>
        <time>2018-09-16T13:36:54Z</time>
      </trkpt>
      <trkpt lat="40.311400" lon="-4.811983">
        <ele>2485.0</ele>
        <time>2018-09-16T13:36:55Z</time>
      </trkpt>
      <trkpt lat="40.311350" lon="-4.811917">
        <ele>2487.0</ele>
        <time>2018-09-16T13:36:56Z</time>
      </trkpt>
      <trkpt lat="40.311300" lon="-4.811867">
        <ele>2488.0</ele>
        <time>2018-09-16T13:36:57Z</time>
      </trkpt>
      <trkpt lat="40.311217" lon="-4.811833">
        <ele>2490.0</ele>
        <time>2018-09-16T13:36:58Z</time>
      </trkpt>
      <trkpt lat="40.311133" lon="-4.811833">
        <ele>2492.0</ele>
        <time>2018-09-16T13:36:59Z</time>
      </trkpt>
      <trkpt lat="40.311050" lon="-4.811900">
        <ele>2494.0</ele>
        <time>2018-09-16T13:37:00Z</time>
      </trkpt>
      <trkpt lat="40.311017" lon="-4.812017">
        <ele>2496.0</ele>
        <time>2018-09-16T13:37:01Z</time>
      </trkpt>
      <trkpt lat="40.311000" lon="-4.812117">
        <ele>2498.0</ele>
        <time>2018-09-16T13:37:02Z</time>
      </trkpt>
      <trkpt lat="40.311050" lon="-4.812250">
        <ele>2501.0</ele>
        <time>2018-09-16T13:37:04Z</time>
      </trkpt>
      <trkpt lat="40.311100" lon="-4.812267">
        <ele>2502.0</ele>
        <time>2018-09-16T13:37:05Z</time>
      </trkpt>
      <trkpt lat="40.311133" lon="-4.812267">
        <ele>2503.0</ele>
        <time>2018-09-16T13:37:06Z</time>
      </trkpt>
      <trkpt lat="40.311150" lon="-4.812217">
        <ele>2504.0</ele>
        <time>2018-09-16T13:37:07Z</time>
      </trkpt>
      <trkpt lat="40.311150" lon="-4.812183">
        <ele>2505.0</ele>
        <time>2018-09-16T13:37:08Z</time>
      </trkpt>
      <trkpt lat="40.311117" lon="-4.812117">
        <ele>2505.0</ele>
        <time>2018-09-16T13:37:09Z</time>
      </trkpt>
      <trkpt lat="40.311067" lon="-4.812083">
        <ele>2506.0</ele>
        <time>2018-09-16T13:37:10Z</time>
      </trkpt>
      <trkpt lat="40.311017" lon="-4.812067">
        <ele>2508.0</ele>
        <time>2018-09-16T13:37:11Z</time>
      </trkpt>
      <trkpt lat="40.310950" lon="-4.812150">
        <ele>2509.0</ele>
        <time>2018-09-16T13:37:12Z</time>
      </trkpt>
      <trkpt lat="40.310933" lon="-4.812250">
        <ele>2511.0</ele>
        <time>2018-09-16T13:37:13Z</time>
      </trkpt>
      <trkpt lat="40.310917" lon="-4.812367">
        <ele>2512.0</ele>
        <time>2018-09-16T13:37:14Z</time>
      </trkpt>
      <trkpt lat="40.310933" lon="-4.812467">
        <ele>2514.0</ele>
        <time>2018-09-16T13:37:15Z</time>
      </trkpt>
      <trkpt lat="40.311000" lon="-4.812517">
        <ele>2517.0</ele>
        <time>2018-09-16T13:37:16Z</time>
      </trkpt>
      <trkpt lat="40.311083" lon="-4.812567">
        <ele>2519.0</ele>
        <time>2018-09-16T13:37:17Z</time>
      </trkpt>
      <trkpt lat="40.311167" lon="-4.812550">
        <ele>2523.0</ele>
        <time>2018-09-16T13:37:18Z</time>
      </trkpt>
      <trkpt lat="40.311233" lon="-4.812517">
        <ele>2526.0</ele>
        <time>2018-09-16T13:37:19Z</time>
      </trkpt>
      <trkpt lat="40.311267" lon="-4.812450">
        <ele>2529.0</ele>
        <time>2018-09-16T13:37:20Z</time>
      </trkpt>
      <trkpt lat="40.311283" lon="-4.812350">
        <ele>2531.0</ele>
        <time>2018-09-16T13:37:21Z</time>
      </trkpt>
      <trkpt lat="40.311267" lon="-4.812250">
        <ele>2533.0</ele>
        <time>2018-09-16T13:37:22Z</time>
      </trkpt>
      <trkpt lat="40.311250" lon="-4.812200">
        <ele>2535.0</ele>
        <time>2018-09-16T13:37:23Z</time>
      </trkpt>
      <trkpt lat="40.311217" lon="-4.812183">
        <ele>2537.0</ele>
        <time>2018-09-16T13:37:24Z</time>
      </trkpt>
      <trkpt lat="40.311167" lon="-4.812217">
        <ele>2539.0</ele>
        <time>2018-09-16T13:37:25Z</time>
      </trkpt>
      <trkpt lat="40.311083" lon="-4.812300">
        <ele>2541.0</ele>
        <time>2018-09-16T13:37:26Z</time>
      </trkpt>
      <trkpt lat="40.311017" lon="-4.812400">
        <ele>2542.0</ele>
        <time>2018-09-16T13:37:27Z</time>
      </trkpt>
      <trkpt lat="40.310967" lon="-4.812483">
        <ele>2544.0</ele>
        <time>2018-09-16T13:37:28Z</time>
      </trkpt>
      <trkpt lat="40.310950" lon="-4.812600">
        <ele>2547.0</ele>
        <time>2018-09-16T13:37:29Z</time>
      </trkpt>
      <trkpt lat="40.310950" lon="-4.812717">
        <ele>2550.0</ele>
        <time>2018-09-16T13:37:30Z</time>
      </trkpt>
      <trkpt lat="40.311017" lon="-4.812833">
        <ele>2553.0</ele>
        <time>2018-09-16T13:37:31Z</time>
      </trkpt>
      <trkpt lat="40.311083" lon="-4.812917">
        <ele>2555.0</ele>
        <time>2018-09-16T13:37:32Z</time>
      </trkpt>
      <trkpt lat="40.311150" lon="-4.812967">
        <ele>2558.0</ele>
        <time>2018-09-16T13:37:33Z</time>
      </trkpt>
      <trkpt lat="40.311233" lon="-4.812933">
        <ele>2561.0</ele>
        <time>2018-09-16T13:37:34Z</time>
      </trkpt>
      <trkpt lat="40.311283" lon="-4.812867">
        <ele>2564.0</ele>
        <time>2018-09-16T13:37:35Z</time>
      </trkpt>
      <trkpt lat="40.311317" lon="-4.812783">
        <ele>2567.0</ele>
        <time>2018-09-16T13:37:36Z</time>
      </trkpt>
      <trkpt lat="40.311317" lon="-4.812700">
        <ele>2570.0</ele>
        <time>2018-09-16T13:37:37Z</time>
      </trkpt>
      <trkpt lat="40.311283" lon="-4.812633">
        <ele>2573.0</ele>
        <time>2018-09-16T13:37:38Z</time>
      </trkpt>
      <trkpt lat="40.311217" lon="-4.812600">
        <ele>2575.0</ele>
        <time>2018-09-16T13:37:39Z</time>
      </trkpt>
      <trkpt lat="40.311117" lon="-4.812617">
        <ele>2577.0</ele>
        <time>2018-09-16T13:37:40Z</time>
      </trkpt>
      <trkpt lat="40.311033" lon="-4.812667">
        <ele>2579.0</ele>
        <time>2018-09-16T13:37:41Z</time>
      </trkpt>
      <trkpt lat="40.310967" lon="-4.812767">
        <ele>2581.0</ele>
        <time>2018-09-16T13:37:42Z</time>
      </trkpt>
      <trkpt lat="40.310917" lon="-4.812867">
        <ele>2582.0</ele>
        <time>2018-09-16T13:37:43Z</time>
      </trkpt>
      <trkpt lat="40.310883" lon="-4.813000">
        <ele>2584.0</ele>
        <time>2018-09-16T13:37:44Z</time>
      </trkpt>
      <trkpt lat="40.310883" lon="-4.813133">
        <ele>2587.0</ele>
        <time>2018-09-16T13:37:45Z</time>
      </trkpt>
      <trkpt lat="40.310900" lon="-4.813233">
        <ele>2589.0</ele>
        <time>2018-09-16T13:37:46Z</time>
      </trkpt>
      <trkpt lat="40.310967" lon="-4.813317">
        <ele>2591.0</ele>
        <time>2018-09-16T13:37:47Z</time>
      </trkpt>
      <trkpt lat="40.311067" lon="-4.813367">
        <ele>2594.0</ele>
        <time>2018-09-16T13:37:48Z</time>
      </trkpt>
      <trkpt lat="40.311133" lon="-4.813367">
        <ele>2598.0</ele>
        <time>2018-09-16T13:37:49Z</time>
      </trkpt>
      <trkpt lat="40.311183" lon="-4.813333">
        <ele>2601.0</ele>
        <time>2018-09-16T13:37:50Z</time>
      </trkpt>
      <trkpt lat="40.311217" lon="-4.813250">
        <ele>2604.0</ele>
        <time>2018-09-16T13:37:51Z</time>
      </trkpt>
      <trkpt lat="40.311200" lon="-4.813167">
        <ele>2608.0</ele>
        <time>2018-09-16T13:37:52Z</time>
      </trkpt>
      <trkpt lat="40.311150" lon="-4.813100">
        <ele>2611.0</ele>
        <time>2018-09-16T13:37:53Z</time>
      </trkpt>
      <trkpt lat="40.311067" lon="-4.813067">
        <ele>2613.0</ele>
        <time>2018-09-16T13:37:54Z</time>
      </trkpt>
      <trkpt lat="40.310967" lon="-4.813100">
        <ele>2614.0</ele>
        <time>2018-09-16T13:37:55Z</time>
      </trkpt>
      <trkpt lat="40.310867" lon="-4.813200">
        <ele>2616.0</ele>
        <time>2018-09-16T13:37:56Z</time>
      </trkpt>
      <trkpt lat="40.310783" lon="-4.813333">
        <ele>2616.0</ele>
        <time>2018-09-16T13:37:57Z</time>
      </trkpt>
      <trkpt lat="40.310750" lon="-4.813500">
        <ele>2618.0</ele>
        <time>2018-09-16T13:37:58Z</time>
      </trkpt>
      <trkpt lat="40.310750" lon="-4.813667">
        <ele>2620.0</ele>
        <time>2018-09-16T13:37:59Z</time>
      </trkpt>
      <trkpt lat="40.310783" lon="-4.813800">
        <ele>2623.0</ele>
        <time>2018-09-16T13:38:00Z</time>
      </trkpt>
      <trkpt lat="40.310867" lon="-4.813883">
        <ele>2625.0</ele>
        <time>2018-09-16T13:38:01Z</time>
      </trkpt>
      <trkpt lat="40.310950" lon="-4.813917">
        <ele>2628.0</ele>
        <time>2018-09-16T13:38:02Z</time>
      </trkpt>
      <trkpt lat="40.311017" lon="-4.813917">
        <ele>2630.0</ele>
        <time>2018-09-16T13:38:03Z</time>
      </trkpt>
      <trkpt lat="40.311067" lon="-4.813883">
        <ele>2633.0</ele>
        <time>2018-09-16T13:38:04Z</time>
      </trkpt>
      <trkpt lat="40.311083" lon="-4.813833">
        <ele>2635.0</ele>
        <time>2018-09-16T13:38:05Z</time>
      </trkpt>
      <trkpt lat="40.311083" lon="-4.813767">
        <ele>2638.0</ele>
        <time>2018-09-16T13:38:06Z</time>
      </trkpt>
      <trkpt lat="40.311033" lon="-4.813700">
        <ele>2640.0</ele>
        <time>2018-09-16T13:38:07Z</time>
      </trkpt>
      <trkpt lat="40.310967" lon="-4.813667">
        <ele>2643.0</ele>
        <time>2018-09-16T13:38:08Z</time>
      </trkpt>
      <trkpt lat="40.310883" lon="-4.813683">
        <ele>2645.0</ele>
        <time>2018-09-16T13:38:09Z</time>
      </trkpt>
      <trkpt lat="40.310833" lon="-4.813750">
        <ele>2648.0</ele>
        <time>2018-09-16T13:38:10Z</time>
      </trkpt>
      <trkpt lat="40.310767" lon="-4.813883">
        <ele>2649.0</ele>
        <time>2018-09-16T13:38:11Z</time>
      </trkpt>
      <trkpt lat="40.310700" lon="-4.814050">
        <ele>2650.0</ele>
        <time>2018-09-16T13:38:12Z</time>
      </trkpt>
      <trkpt lat="40.310683" lon="-4.814217">
        <ele>2653.0</ele>
        <time>2018-09-16T13:38:13Z</time>
      </trkpt>
      <trkpt lat="40.310717" lon="-4.814367">
        <ele>2655.0</ele>
        <time>2018-09-16T13:38:14Z</time>
      </trkpt>
      <trkpt lat="40.310767" lon="-4.814500">
        <ele>2658.0</ele>
        <time>2018-09-16T13:38:15Z</time>
      </trkpt>
      <trkpt lat="40.310833" lon="-4.814600">
        <ele>2661.0</ele>
        <time>2018-09-16T13:38:16Z</time>
      </trkpt>
      <trkpt lat="40.310900" lon="-4.814650">
        <ele>2663.0</ele>
        <time>2018-09-16T13:38:17Z</time>
      </trkpt>
      <trkpt lat="40.310967" lon="-4.814667">
        <ele>2666.0</ele>
        <time>2018-09-16T13:38:18Z</time>
      </trkpt>
      <trkpt lat="40.311017" lon="-4.814633">
        <ele>2669.0</ele>
        <time>2018-09-16T13:38:19Z</time>
      </trkpt>
      <trkpt lat="40.311017" lon="-4.814600">
        <ele>2671.0</ele>
        <time>2018-09-16T13:38:20Z</time>
      </trkpt>
      <trkpt lat="40.311000" lon="-4.814550">
        <ele>2673.0</ele>
        <time>2018-09-16T13:38:21Z</time>
      </trkpt>
      <trkpt lat="40.310933" lon="-4.814533">
        <ele>2675.0</ele>
        <time>2018-09-16T13:38:22Z</time>
      </trkpt>
      <trkpt lat="40.310833" lon="-4.814533">
        <ele>2677.0</ele>
        <time>2018-09-16T13:38:23Z</time>
      </trkpt>
      <trkpt lat="40.310767" lon="-4.814617">
        <ele>2679.0</ele>
        <time>2018-09-16T13:38:24Z</time>
      </trkpt>
      <trkpt lat="40.310683" lon="-4.814733">
        <ele>2680.0</ele>
        <time>2018-09-16T13:38:25Z</time>
      </trkpt>
      <trkpt lat="40.310633" lon="-4.814867">
        <ele>2682.0</ele>
        <time>2018-09-16T13:38:26Z</time>
      </trkpt>
      <trkpt lat="40.310600" lon="-4.815050">
        <ele>2685.0</ele>
        <time>2018-09-16T13:38:27Z</time>
      </trkpt>
      <trkpt lat="40.310600" lon="-4.815183">
        <ele>2688.0</ele>
        <time>2018-09-16T13:38:28Z</time>
      </trkpt>
      <trkpt lat="40.310633" lon="-4.815283">
        <ele>2691.0</ele>
        <time>2018-09-16T13:38:29Z</time>
      </trkpt>
      <trkpt lat="40.310683" lon="-4.815367">
        <ele>2693.0</ele>
        <time>2018-09-16T13:38:30Z</time>
      </trkpt>
      <trkpt lat="40.310733" lon="-4.815350">
        <ele>2695.0</ele>
        <time>2018-09-16T13:38:31Z</time>
      </trkpt>
      <trkpt lat="40.310767" lon="-4.815283">
        <ele>2696.0</ele>
        <time>2018-09-16T13:38:32Z</time>
      </trkpt>
      <trkpt lat="40.310750" lon="-4.815183">
        <ele>2696.0</ele>
        <time>2018-09-16T13:38:33Z</time>
      </trkpt>
      <trkpt lat="40.310683" lon="-4.815083">
        <ele>2698.0</ele>
        <time>2018-09-16T13:38:34Z</time>
      </trkpt>
      <trkpt lat="40.310567" lon="-4.815050">
        <ele>2700.0</ele>
        <time>2018-09-16T13:38:35Z</time>
      </trkpt>
      <trkpt lat="40.310450" lon="-4.815100">
        <ele>2702.0</ele>
        <time>2018-09-16T13:38:36Z</time>
      </trkpt>
      <trkpt lat="40.310350" lon="-4.815217">
        <ele>2705.0</ele>
        <time>2018-09-16T13:38:37Z</time>
      </trkpt>
      <trkpt lat="40.310300" lon="-4.815367">
        <ele>2706.0</ele>
        <time>2018-09-16T13:38:38Z</time>
      </trkpt>
      <trkpt lat="40.310317" lon="-4.815517">
        <ele>2710.0</ele>
        <time>2018-09-16T13:38:39Z</time>
      </trkpt>
      <trkpt lat="40.310367" lon="-4.815633">
        <ele>2714.0</ele>
        <time>2018-09-16T13:38:40Z</time>
      </trkpt>
      <trkpt lat="40.310450" lon="-4.815683">
        <ele>2716.0</ele>
        <time>2018-09-16T13:38:41Z</time>
      </trkpt>
      <trkpt lat="40.310517" lon="-4.815633">
        <ele>2718.0</ele>
        <time>2018-09-16T13:38:42Z</time>
      </trkpt>
      <trkpt lat="40.310550" lon="-4.815550">
        <ele>2719.0</ele>
        <time>2018-09-16T13:38:43Z</time>
      </trkpt>
      <trkpt lat="40.310533" lon="-4.815433">
        <ele>2720.0</ele>
        <time>2018-09-16T13:38:44Z</time>
      </trkpt>
      <trkpt lat="40.310483" lon="-4.815317">
        <ele>2722.0</ele>
        <time>2018-09-16T13:38:45Z</time>
      </trkpt>
      <trkpt lat="40.310433" lon="-4.815250">
        <ele>2726.0</ele>
        <time>2018-09-16T13:38:46Z</time>
      </trkpt>
      <trkpt lat="40.310367" lon="-4.815200">
        <ele>2729.0</ele>
        <time>2018-09-16T13:38:47Z</time>
      </trkpt>
      <trkpt lat="40.310300" lon="-4.815167">
        <ele>2732.0</ele>
        <time>2018-09-16T13:38:48Z</time>
      </trkpt>
      <trkpt lat="40.310217" lon="-4.815133">
        <ele>2735.0</ele>
        <time>2018-09-16T13:38:49Z</time>
      </trkpt>
      <trkpt lat="40.310133" lon="-4.815100">
        <ele>2738.0</ele>
        <time>2018-09-16T13:38:50Z</time>
      </trkpt>
      <trkpt lat="40.310033" lon="-4.815050">
        <ele>2742.0</ele>
        <time>2018-09-16T13:38:51Z</time>
      </trkpt>
      <trkpt lat="40.309967" lon="-4.815000">
        <ele>2745.0</ele>
        <time>2018-09-16T13:38:52Z</time>
      </trkpt>
      <trkpt lat="40.309883" lon="-4.814950">
        <ele>2749.0</ele>
        <time>2018-09-16T13:38:53Z</time>
      </trkpt>
      <trkpt lat="40.309783" lon="-4.814917">
        <ele>2753.0</ele>
        <time>2018-09-16T13:38:54Z</time>
      </trkpt>
      <trkpt lat="40.309700" lon="-4.814867">
        <ele>2758.0</ele>
        <time>2018-09-16T13:38:55Z</time>
      </trkpt>
      <trkpt lat="40.309600" lon="-4.814833">
        <ele>2765.0</ele>
        <time>2018-09-16T13:38:56Z</time>
      </trkpt>
      <trkpt lat="40.309533" lon="-4.814800">
        <ele>2771.0</ele>
        <time>2018-09-16T13:38:57Z</time>
      </trkpt>
      <trkpt lat="40.309450" lon="-4.814767">
        <ele>2776.0</ele>
        <time>2018-09-16T13:38:58Z</time>
      </trkpt>
      <trkpt lat="40.309367" lon="-4.814717">
        <ele>2780.0</ele>
        <time>2018-09-16T13:38:59Z</time>
      </trkpt>
      <trkpt lat="40.309283" lon="-4.814683">
        <ele>2783.0</ele>
        <time>2018-09-16T13:39:00Z</time>
      </trkpt>
      <trkpt lat="40.309183" lon="-4.814650">
        <ele>2787.0</ele>
        <time>2018-09-16T13:39:01Z</time>
      </trkpt>
      <trkpt lat="40.309100" lon="-4.814617">
        <ele>2789.0</ele>
        <time>2018-09-16T13:39:02Z</time>
      </trkpt>
      <trkpt lat="40.309000" lon="-4.814583">
        <ele>2792.0</ele>
        <time>2018-09-16T13:39:03Z</time>
      </trkpt>
      <trkpt lat="40.308900" lon="-4.814550">
        <ele>2794.0</ele>
        <time>2018-09-16T13:39:04Z</time>
      </trkpt>
      <trkpt lat="40.308800" lon="-4.814500">
        <ele>2796.0</ele>
        <time>2018-09-16T13:39:05Z</time>
      </trkpt>
      <trkpt lat="40.308717" lon="-4.814450">
        <ele>2798.0</ele>
        <time>2018-09-16T13:39:06Z</time>
      </trkpt>
      <trkpt lat="40.308633" lon="-4.814417">
        <ele>2801.0</ele>
        <time>2018-09-16T13:39:07Z</time>
      </trkpt>
      <trkpt lat="40.308550" lon="-4.814367">
        <ele>2802.0</ele>
        <time>2018-09-16T13:39:08Z</time>
      </trkpt>
      <trkpt lat="40.308467" lon="-4.814333">
        <ele>2804.0</ele>
        <time>2018-09-16T13:39:09Z</time>
      </trkpt>
      <trkpt lat="40.308383" lon="-4.814283">
        <ele>2804.0</ele>
        <time>2018-09-16T13:39:10Z</time>
      </trkpt>
      <trkpt lat="40.308300" lon="-4.814233">
        <ele>2804.0</ele>
        <time>2018-09-16T13:39:11Z</time>
      </trkpt>
      <trkpt lat="40.308217" lon="-4.814183">
        <ele>2804.0</ele>
        <time>2018-09-16T13:39:12Z</time>
      </trkpt>
      <trkpt lat="40.308150" lon="-4.814117">
        <ele>2805.0</ele>
        <time>2018-09-16T13:39:13Z</time>
      </trkpt>
      <trkpt lat="40.308067" lon="-4.814067">
        <ele>2806.0</ele>
        <time>2018-09-16T13:39:14Z</time>
      </trkpt>
      <trkpt lat="40.307983" lon="-4.814017">
        <ele>2807.0</ele>
        <time>2018-09-16T13:39:15Z</time>
      </trkpt>
      <trkpt lat="40.307883" lon="-4.813983">
        <ele>2810.0</ele>
        <time>2018-09-16T13:39:16Z</time>
      </trkpt>
      <trkpt lat="40.307800" lon="-4.813950">
        <ele>2813.0</ele>
        <time>2018-09-16T13:39:17Z</time>
      </trkpt>
      <trkpt lat="40.307700" lon="-4.813917">
        <ele>2816.0</ele>
        <time>2018-09-16T13:39:18Z</time>
      </trkpt>
      <trkpt lat="40.307617" lon="-4.813900">
        <ele>2817.0</ele>
        <time>2018-09-16T13:39:19Z</time>
      </trkpt>
      <trkpt lat="40.307517" lon="-4.813867">
        <ele>2818.0</ele>
        <time>2018-09-16T13:39:20Z</time>
      </trkpt>
      <trkpt lat="40.307433" lon="-4.813833">
        <ele>2818.0</ele>
        <time>2018-09-16T13:39:21Z</time>
      </trkpt>
      <trkpt lat="40.307350" lon="-4.813800">
        <ele>2819.0</ele>
        <time>2018-09-16T13:39:22Z</time>
      </trkpt>
      <trkpt lat="40.307250" lon="-4.813767">
        <ele>2819.0</ele>
        <time>2018-09-16T13:39:23Z</time>
      </trkpt>
      <trkpt lat="40.307150" lon="-4.813733">
        <ele>2819.0</ele>
        <time>2018-09-16T13:39:24Z</time>
      </trkpt>
      <trkpt lat="40.307050" lon="-4.813683">
        <ele>2818.0</ele>
        <time>2018-09-16T13:39:25Z</time>
      </trkpt>
      <trkpt lat="40.306983" lon="-4.813633">
        <ele>2818.0</ele>
        <time>2018-09-16T13:39:26Z</time>
      </trkpt>
      <trkpt lat="40.306900" lon="-4.813583">
        <ele>2818.0</ele>
        <time>2018-09-16T13:39:27Z</time>
      </trkpt>
      <trkpt lat="40.306817" lon="-4.813517">
        <ele>2818.0</ele>
        <time>2018-09-16T13:39:28Z</time>
      </trkpt>
      <trkpt lat="40.306717" lon="-4.813467">
        <ele>2817.0</ele>
        <time>2018-09-16T13:39:29Z</time>
      </trkpt>
      <trkpt lat="40.306600" lon="-4.813417">
        <ele>2816.0</ele>
        <time>2018-09-16T13:39:30Z</time>
      </trkpt>
      <trkpt lat="40.306500" lon="-4.813367">
        <ele>2814.0</ele>
        <time>2018-09-16T13:39:31Z</time>
      </trkpt>
      <trkpt lat="40.306417" lon="-4.813300">
        <ele>2814.0</ele>
        <time>2018-09-16T13:39:32Z</time>
      </trkpt>
      <trkpt lat="40.306350" lon="-4.813233">
        <ele>2814.0</ele>
        <time>2018-09-16T13:39:33Z</time>
      </trkpt>
      <trkpt lat="40.306283" lon="-4.813183">
        <ele>2814.0</ele>
        <time>2018-09-16T13:39:34Z</time>
      </trkpt>
      <trkpt lat="40.306200" lon="-4.813150">
        <ele>2815.0</ele>
        <time>2018-09-16T13:39:35Z</time>
      </trkpt>
      <trkpt lat="40.306100" lon="-4.813117">
        <ele>2814.0</ele>
        <time>2018-09-16T13:39:36Z</time>
      </trkpt>
      <trkpt lat="40.305983" lon="-4.813100">
        <ele>2813.0</ele>
        <time>2018-09-16T13:39:37Z</time>
      </trkpt>
      <trkpt lat="40.305883" lon="-4.813067">
        <ele>2812.0</ele>
        <time>2018-09-16T13:39:38Z</time>
      </trkpt>
      <trkpt lat="40.305783" lon="-4.813033">
        <ele>2812.0</ele>
        <time>2018-09-16T13:39:39Z</time>
      </trkpt>
      <trkpt lat="40.305700" lon="-4.812983">
        <ele>2813.0</ele>
        <time>2018-09-16T13:39:40Z</time>
      </trkpt>
      <trkpt lat="40.305633" lon="-4.812950">
        <ele>2813.0</ele>
        <time>2018-09-16T13:39:41Z</time>
      </trkpt>
      <trkpt lat="40.305550" lon="-4.812900">
        <ele>2813.0</ele>
        <time>2018-09-16T13:39:42Z</time>
      </trkpt>
      <trkpt lat="40.305450" lon="-4.812850">
        <ele>2812.0</ele>
        <time>2018-09-16T13:39:43Z</time>
      </trkpt>
      <trkpt lat="40.305367" lon="-4.812800">
        <ele>2811.0</ele>
        <time>2018-09-16T13:39:44Z</time>
      </trkpt>
      <trkpt lat="40.305267" lon="-4.812750">
        <ele>2810.0</ele>
        <time>2018-09-16T13:39:45Z</time>
      </trkpt>
      <trkpt lat="40.305167" lon="-4.812717">
        <ele>2808.0</ele>
        <time>2018-09-16T13:39:46Z</time>
      </trkpt>
      <trkpt lat="40.305083" lon="-4.812683">
        <ele>2806.0</ele>
        <time>2018-09-16T13:39:47Z</time>
      </trkpt>
      <trkpt lat="40.305000" lon="-4.812650">
        <ele>2803.0</ele>
        <time>2018-09-16T13:39:48Z</time>
      </trkpt>
      <trkpt lat="40.304917" lon="-4.812600">
        <ele>2799.0</ele>
        <time>2018-09-16T13:39:49Z</time>
      </trkpt>
      <trkpt lat="40.304817" lon="-4.812550">
        <ele>2795.0</ele>
        <time>2018-09-16T13:39:50Z</time>
      </trkpt>
      <trkpt lat="40.304717" lon="-4.812500">
        <ele>2791.0</ele>
        <time>2018-09-16T13:39:51Z</time>
      </trkpt>
      <trkpt lat="40.304617" lon="-4.812467">
        <ele>2788.0</ele>
        <time>2018-09-16T13:39:52Z</time>
      </trkpt>
      <trkpt lat="40.304517" lon="-4.812417">
        <ele>2785.0</ele>
        <time>2018-09-16T13:39:53Z</time>
      </trkpt>
      <trkpt lat="40.304433" lon="-4.812383">
        <ele>2782.0</ele>
        <time>2018-09-16T13:39:54Z</time>
      </trkpt>
      <trkpt lat="40.304333" lon="-4.812333">
        <ele>2780.0</ele>
        <time>2018-09-16T13:39:55Z</time>
      </trkpt>
      <trkpt lat="40.304250" lon="-4.812300">
        <ele>2777.0</ele>
        <time>2018-09-16T13:39:56Z</time>
      </trkpt>
      <trkpt lat="40.304150" lon="-4.812233">
        <ele>2774.0</ele>
        <time>2018-09-16T13:39:57Z</time>
      </trkpt>
      <trkpt lat="40.304033" lon="-4.812167">
        <ele>2771.0</ele>
        <time>2018-09-16T13:39:58Z</time>
      </trkpt>
      <trkpt lat="40.303933" lon="-4.812100">
        <ele>2769.0</ele>
        <time>2018-09-16T13:39:59Z</time>
      </trkpt>
      <trkpt lat="40.303850" lon="-4.812033">
        <ele>2767.0</ele>
        <time>2018-09-16T13:40:00Z</time>
      </trkpt>
      <trkpt lat="40.303750" lon="-4.811983">
        <ele>2765.0</ele>
        <time>2018-09-16T13:40:01Z</time>
      </trkpt>
      <trkpt lat="40.303667" lon="-4.811933">
        <ele>2763.0</ele>
        <time>2018-09-16T13:40:02Z</time>
      </trkpt>
      <trkpt lat="40.303567" lon="-4.811883">
        <ele>2762.0</ele>
        <time>2018-09-16T13:40:03Z</time>
      </trkpt>
      <trkpt lat="40.303483" lon="-4.811800">
        <ele>2760.0</ele>
        <time>2018-09-16T13:40:04Z</time>
      </trkpt>
      <trkpt lat="40.303417" lon="-4.811717">
        <ele>2759.0</ele>
        <time>2018-09-16T13:40:05Z</time>
      </trkpt>
      <trkpt lat="40.303350" lon="-4.811650">
        <ele>2758.0</ele>
        <time>2018-09-16T13:40:06Z</time>
      </trkpt>
      <trkpt lat="40.303283" lon="-4.811583">
        <ele>2759.0</ele>
        <time>2018-09-16T13:40:07Z</time>
      </trkpt>
      <trkpt lat="40.303217" lon="-4.811533">
        <ele>2759.0</ele>
        <time>2018-09-16T13:40:08Z</time>
      </trkpt>
      <trkpt lat="40.303133" lon="-4.811483">
        <ele>2758.0</ele>
        <time>2018-09-16T13:40:09Z</time>
      </trkpt>
      <trkpt lat="40.303067" lon="-4.811417">
        <ele>2757.0</ele>
        <time>2018-09-16T13:40:10Z</time>
      </trkpt>
      <trkpt lat="40.302983" lon="-4.811367">
        <ele>2755.0</ele>
        <time>2018-09-16T13:40:11Z</time>
      </trkpt>
      <trkpt lat="40.302900" lon="-4.811300">
        <ele>2753.0</ele>
        <time>2018-09-16T13:40:12Z</time>
      </trkpt>
      <trkpt lat="40.302833" lon="-4.811217">
        <ele>2752.0</ele>
        <time>2018-09-16T13:40:13Z</time>
      </trkpt>
      <trkpt lat="40.302767" lon="-4.811150">
        <ele>2751.0</ele>
        <time>2018-09-16T13:40:14Z</time>
      </trkpt>
      <trkpt lat="40.302700" lon="-4.811083">
        <ele>2750.0</ele>
        <time>2018-09-16T13:40:15Z</time>
      </trkpt>
      <trkpt lat="40.302633" lon="-4.811033">
        <ele>2749.0</ele>
        <time>2018-09-16T13:40:16Z</time>
      </trkpt>
      <trkpt lat="40.302567" lon="-4.810983">
        <ele>2748.0</ele>
        <time>2018-09-16T13:40:17Z</time>
      </trkpt>
      <trkpt lat="40.302467" lon="-4.810933">
        <ele>2747.0</ele>
        <time>2018-09-16T13:40:18Z</time>
      </trkpt>
      <trkpt lat="40.302383" lon="-4.810900">
        <ele>2745.0</ele>
        <time>2018-09-16T13:40:19Z</time>
      </trkpt>
      <trkpt lat="40.302300" lon="-4.810850">
        <ele>2744.0</ele>
        <time>2018-09-16T13:40:20Z</time>
      </trkpt>
      <trkpt lat="40.302217" lon="-4.810817">
        <ele>2743.0</ele>
        <time>2018-09-16T13:40:21Z</time>
      </trkpt>
      <trkpt lat="40.302133" lon="-4.810767">
        <ele>2742.0</ele>
        <time>2018-09-16T13:40:22Z</time>
      </trkpt>
      <trkpt lat="40.302033" lon="-4.810717">
        <ele>2741.0</ele>
        <time>2018-09-16T13:40:23Z</time>
      </trkpt>
      <trkpt lat="40.301967" lon="-4.810667">
        <ele>2739.0</ele>
        <time>2018-09-16T13:40:24Z</time>
      </trkpt>
      <trkpt lat="40.301900" lon="-4.810600">
        <ele>2737.0</ele>
        <time>2018-09-16T13:40:25Z</time>
      </trkpt>
      <trkpt lat="40.301850" lon="-4.810517">
        <ele>2734.0</ele>
        <time>2018-09-16T13:40:26Z</time>
      </trkpt>
      <trkpt lat="40.301800" lon="-4.810433">
        <ele>2732.0</ele>
        <time>2018-09-16T13:40:27Z</time>
      </trkpt>
      <trkpt lat="40.301750" lon="-4.810350">
        <ele>2730.0</ele>
        <time>2018-09-16T13:40:28Z</time>
      </trkpt>
      <trkpt lat="40.301700" lon="-4.810267">
        <ele>2728.0</ele>
        <time>2018-09-16T13:40:29Z</time>
      </trkpt>
      <trkpt lat="40.301650" lon="-4.810200">
        <ele>2727.0</ele>
        <time>2018-09-16T13:40:30Z</time>
      </trkpt>
      <trkpt lat="40.301600" lon="-4.810133">
        <ele>2726.0</ele>
        <time>2018-09-16T13:40:31Z</time>
      </trkpt>
      <trkpt lat="40.301550" lon="-4.810067">
        <ele>2724.0</ele>
        <time>2018-09-16T13:40:32Z</time>
      </trkpt>
      <trkpt lat="40.301517" lon="-4.809983">
        <ele>2721.0</ele>
        <time>2018-09-16T13:40:33Z</time>
      </trkpt>
      <trkpt lat="40.301467" lon="-4.809900">
        <ele>2718.0</ele>
        <time>2018-09-16T13:40:34Z</time>
      </trkpt>
      <trkpt lat="40.301400" lon="-4.809817">
        <ele>2715.0</ele>
        <time>2018-09-16T13:40:35Z</time>
      </trkpt>
      <trkpt lat="40.301333" lon="-4.809733">
        <ele>2712.0</ele>
        <time>2018-09-16T13:40:36Z</time>
      </trkpt>
      <trkpt lat="40.301267" lon="-4.809667">
        <ele>2710.0</ele>
        <time>2018-09-16T13:40:37Z</time>
      </trkpt>
      <trkpt lat="40.301200" lon="-4.809600">
        <ele>2709.0</ele>
        <time>2018-09-16T13:40:38Z</time>
      </trkpt>
      <trkpt lat="40.301133" lon="-4.809517">
        <ele>2707.0</ele>
        <time>2018-09-16T13:40:39Z</time>
      </trkpt>
      <trkpt lat="40.301050" lon="-4.809450">
        <ele>2705.0</ele>
        <time>2018-09-16T13:40:40Z</time>
      </trkpt>
      <trkpt lat="40.300967" lon="-4.809367">
        <ele>2703.0</ele>
        <time>2018-09-16T13:40:41Z</time>
      </trkpt>
      <trkpt lat="40.300900" lon="-4.809267">
        <ele>2701.0</ele>
        <time>2018-09-16T13:40:42Z</time>
      </trkpt>
      <trkpt lat="40.300833" lon="-4.809200">
        <ele>2700.0</ele>
        <time>2018-09-16T13:40:43Z</time>
      </trkpt>
      <trkpt lat="40.300767" lon="-4.809133">
        <ele>2701.0</ele>
        <time>2018-09-16T13:40:44Z</time>
      </trkpt>
      <trkpt lat="40.300700" lon="-4.809083">
        <ele>2701.0</ele>
        <time>2018-09-16T13:40:45Z</time>
      </trkpt>
      <trkpt lat="40.300633" lon="-4.809033">
        <ele>2701.0</ele>
        <time>2018-09-16T13:40:46Z</time>
      </trkpt>
      <trkpt lat="40.300550" lon="-4.808967">
        <ele>2699.0</ele>
        <time>2018-09-16T13:40:47Z</time>
      </trkpt>
      <trkpt lat="40.300450" lon="-4.808900">
        <ele>2698.0</ele>
        <time>2018-09-16T13:40:48Z</time>
      </trkpt>
      <trkpt lat="40.300367" lon="-4.808850">
        <ele>2697.0</ele>
        <time>2018-09-16T13:40:49Z</time>
      </trkpt>
      <trkpt lat="40.300283" lon="-4.808783">
        <ele>2698.0</ele>
        <time>2018-09-16T13:40:50Z</time>
      </trkpt>
      <trkpt lat="40.300217" lon="-4.808733">
        <ele>2698.0</ele>
        <time>2018-09-16T13:40:51Z</time>
      </trkpt>
      <trkpt lat="40.300133" lon="-4.808683">
        <ele>2698.0</ele>
        <time>2018-09-16T13:40:52Z</time>
      </trkpt>
      <trkpt lat="40.300067" lon="-4.808617">
        <ele>2698.0</ele>
        <time>2018-09-16T13:40:53Z</time>
      </trkpt>
      <trkpt lat="40.300000" lon="-4.808533">
        <ele>2698.0</ele>
        <time>2018-09-16T13:40:54Z</time>
      </trkpt>
      <trkpt lat="40.299917" lon="-4.808450">
        <ele>2696.0</ele>
        <time>2018-09-16T13:40:55Z</time>
      </trkpt>
      <trkpt lat="40.299800" lon="-4.808383">
        <ele>2694.0</ele>
        <time>2018-09-16T13:40:56Z</time>
      </trkpt>
      <trkpt lat="40.299700" lon="-4.808350">
        <ele>2693.0</ele>
        <time>2018-09-16T13:40:57Z</time>
      </trkpt>
      <trkpt lat="40.299600" lon="-4.808317">
        <ele>2694.0</ele>
        <time>2018-09-16T13:40:58Z</time>
      </trkpt>
      <trkpt lat="40.299517" lon="-4.808283">
        <ele>2695.0</ele>
        <time>2018-09-16T13:40:59Z</time>
      </trkpt>
      <trkpt lat="40.299433" lon="-4.808233">
        <ele>2695.0</ele>
        <time>2018-09-16T13:41:00Z</time>
      </trkpt>
      <trkpt lat="40.299367" lon="-4.808150">
        <ele>2694.0</ele>
        <time>2018-09-16T13:41:01Z</time>
      </trkpt>
      <trkpt lat="40.299300" lon="-4.808050">
        <ele>2693.0</ele>
        <time>2018-09-16T13:41:02Z</time>
      </trkpt>
      <trkpt lat="40.299217" lon="-4.807950">
        <ele>2690.0</ele>
        <time>2018-09-16T13:41:03Z</time>
      </trkpt>
      <trkpt lat="40.299117" lon="-4.807867">
        <ele>2688.0</ele>
        <time>2018-09-16T13:41:04Z</time>
      </trkpt>
      <trkpt lat="40.299017" lon="-4.807817">
        <ele>2688.0</ele>
        <time>2018-09-16T13:41:05Z</time>
      </trkpt>
      <trkpt lat="40.298933" lon="-4.807767">
        <ele>2689.0</ele>
        <time>2018-09-16T13:41:06Z</time>
      </trkpt>
      <trkpt lat="40.298833" lon="-4.807733">
        <ele>2688.0</ele>
        <time>2018-09-16T13:41:07Z</time>
      </trkpt>
      <trkpt lat="40.298733" lon="-4.807700">
        <ele>2686.0</ele>
        <time>2018-09-16T13:41:08Z</time>
      </trkpt>
      <trkpt lat="40.298633" lon="-4.807650">
        <ele>2685.0</ele>
        <time>2018-09-16T13:41:09Z</time>
      </trkpt>
      <trkpt lat="40.298517" lon="-4.807583">
        <ele>2683.0</ele>
        <time>2018-09-16T13:41:10Z</time>
      </trkpt>
      <trkpt lat="40.298400" lon="-4.807533">
        <ele>2681.0</ele>
        <time>2018-09-16T13:41:11Z</time>
      </trkpt>
      <trkpt lat="40.298300" lon="-4.807483">
        <ele>2678.0</ele>
        <time>2018-09-16T13:41:12Z</time>
      </trkpt>
      <trkpt lat="40.298217" lon="-4.807450">
        <ele>2676.0</ele>
        <time>2018-09-16T13:41:13Z</time>
      </trkpt>
      <trkpt lat="40.298133" lon="-4.807400">
        <ele>2672.0</ele>
        <time>2018-09-16T13:41:14Z</time>
      </trkpt>
      <trkpt lat="40.298033" lon="-4.807367">
        <ele>2667.0</ele>
        <time>2018-09-16T13:41:15Z</time>
      </trkpt>
      <trkpt lat="40.297933" lon="-4.807300">
        <ele>2660.0</ele>
        <time>2018-09-16T13:41:16Z</time>
      </trkpt>
      <trkpt lat="40.297817" lon="-4.807250">
        <ele>2655.0</ele>
        <time>2018-09-16T13:41:17Z</time>
      </trkpt>
      <trkpt lat="40.297700" lon="-4.807183">
        <ele>2650.0</ele>
        <time>2018-09-16T13:41:18Z</time>
      </trkpt>
      <trkpt lat="40.297600" lon="-4.807117">
        <ele>2647.0</ele>
        <time>2018-09-16T13:41:19Z</time>
      </trkpt>
      <trkpt lat="40.297517" lon="-4.807033">
        <ele>2643.0</ele>
        <time>2018-09-16T13:41:20Z</time>
      </trkpt>
      <trkpt lat="40.297417" lon="-4.806967">
        <ele>2640.0</ele>
        <time>2018-09-16T13:41:21Z</time>
      </trkpt>
      <trkpt lat="40.297333" lon="-4.806917">
        <ele>2636.0</ele>
        <time>2018-09-16T13:41:22Z</time>
      </trkpt>
      <trkpt lat="40.297250" lon="-4.806850">
        <ele>2632.0</ele>
        <time>2018-09-16T13:41:23Z</time>
      </trkpt>
      <trkpt lat="40.297150" lon="-4.806783">
        <ele>2629.0</ele>
        <time>2018-09-16T13:41:24Z</time>
      </trkpt>
      <trkpt lat="40.297067" lon="-4.806717">
        <ele>2625.0</ele>
        <time>2018-09-16T13:41:25Z</time>
      </trkpt>
      <trkpt lat="40.296983" lon="-4.806650">
        <ele>2622.0</ele>
        <time>2018-09-16T13:41:26Z</time>
      </trkpt>
      <trkpt lat="40.296917" lon="-4.806583">
        <ele>2618.0</ele>
        <time>2018-09-16T13:41:27Z</time>
      </trkpt>
      <trkpt lat="40.296833" lon="-4.806517">
        <ele>2614.0</ele>
        <time>2018-09-16T13:41:28Z</time>
      </trkpt>
      <trkpt lat="40.296750" lon="-4.806417">
        <ele>2609.0</ele>
        <time>2018-09-16T13:41:29Z</time>
      </trkpt>
      <trkpt lat="40.296667" lon="-4.806317">
        <ele>2605.0</ele>
        <time>2018-09-16T13:41:30Z</time>
      </trkpt>
      <trkpt lat="40.296567" lon="-4.806250">
        <ele>2602.0</ele>
        <time>2018-09-16T13:41:31Z</time>
      </trkpt>
      <trkpt lat="40.296467" lon="-4.806183">
        <ele>2600.0</ele>
        <time>2018-09-16T13:41:32Z</time>
      </trkpt>
      <trkpt lat="40.296383" lon="-4.806133">
        <ele>2599.0</ele>
        <time>2018-09-16T13:41:33Z</time>
      </trkpt>
      <trkpt lat="40.296300" lon="-4.806083">
        <ele>2597.0</ele>
        <time>2018-09-16T13:41:34Z</time>
      </trkpt>
      <trkpt lat="40.296217" lon="-4.806017">
        <ele>2595.0</ele>
        <time>2018-09-16T13:41:35Z</time>
      </trkpt>
      <trkpt lat="40.296117" lon="-4.805933">
        <ele>2592.0</ele>
        <time>2018-09-16T13:41:36Z</time>
      </trkpt>
      <trkpt lat="40.296017" lon="-4.805883">
        <ele>2590.0</ele>
        <time>2018-09-16T13:41:37Z</time>
      </trkpt>
      <trkpt lat="40.295933" lon="-4.805817">
        <ele>2588.0</ele>
        <time>2018-09-16T13:41:38Z</time>
      </trkpt>
      <trkpt lat="40.295850" lon="-4.805750">
        <ele>2586.0</ele>
        <time>2018-09-16T13:41:39Z</time>
      </trkpt>
      <trkpt lat="40.295767" lon="-4.805683">
        <ele>2585.0</ele>
        <time>2018-09-16T13:41:40Z</time>
      </trkpt>
      <trkpt lat="40.295683" lon="-4.805617">
        <ele>2583.0</ele>
        <time>2018-09-16T13:41:41Z</time>
      </trkpt>
      <trkpt lat="40.295600" lon="-4.805550">
        <ele>2581.0</ele>
        <time>2018-09-16T13:41:42Z</time>
      </trkpt>
      <trkpt lat="40.295517" lon="-4.805483">
        <ele>2578.0</ele>
        <time>2018-09-16T13:41:43Z</time>
      </trkpt>
      <trkpt lat="40.295433" lon="-4.805400">
        <ele>2576.0</ele>
        <time>2018-09-16T13:41:44Z</time>
      </trkpt>
      <trkpt lat="40.295350" lon="-4.805317">
        <ele>2574.0</ele>
        <time>2018-09-16T13:41:45Z</time>
      </trkpt>
      <trkpt lat="40.295283" lon="-4.805233">
        <ele>2572.0</ele>
        <time>2018-09-16T13:41:46Z</time>
      </trkpt>
      <trkpt lat="40.295200" lon="-4.805150">
        <ele>2570.0</ele>
        <time>2018-09-16T13:41:47Z</time>
      </trkpt>
      <trkpt lat="40.295133" lon="-4.805083">
        <ele>2568.0</ele>
        <time>2018-09-16T13:41:48Z</time>
      </trkpt>
      <trkpt lat="40.295050" lon="-4.805000">
        <ele>2565.0</ele>
        <time>2018-09-16T13:41:49Z</time>
      </trkpt>
      <trkpt lat="40.294983" lon="-4.804933">
        <ele>2563.0</ele>
        <time>2018-09-16T13:41:50Z</time>
      </trkpt>
      <trkpt lat="40.294900" lon="-4.804867">
        <ele>2560.0</ele>
        <time>2018-09-16T13:41:51Z</time>
      </trkpt>
      <trkpt lat="40.294833" lon="-4.804800">
        <ele>2558.0</ele>
        <time>2018-09-16T13:41:52Z</time>
      </trkpt>
      <trkpt lat="40.294767" lon="-4.804733">
        <ele>2556.0</ele>
        <time>2018-09-16T13:41:53Z</time>
      </trkpt>
      <trkpt lat="40.294683" lon="-4.804650">
        <ele>2555.0</ele>
        <time>2018-09-16T13:41:54Z</time>
      </trkpt>
      <trkpt lat="40.294617" lon="-4.804583">
        <ele>2553.0</ele>
        <time>2018-09-16T13:41:55Z</time>
      </trkpt>
      <trkpt lat="40.294533" lon="-4.804500">
        <ele>2551.0</ele>
        <time>2018-09-16T13:41:56Z</time>
      </trkpt>
      <trkpt lat="40.294467" lon="-4.804400">
        <ele>2550.0</ele>
        <time>2018-09-16T13:41:57Z</time>
      </trkpt>
      <trkpt lat="40.294400" lon="-4.804317">
        <ele>2548.0</ele>
        <time>2018-09-16T13:41:58Z</time>
      </trkpt>
      <trkpt lat="40.294333" lon="-4.804233">
        <ele>2546.0</ele>
        <time>2018-09-16T13:41:59Z</time>
      </trkpt>
      <trkpt lat="40.294267" lon="-4.804133">
        <ele>2545.0</ele>
        <time>2018-09-16T13:42:00Z</time>
      </trkpt>
      <trkpt lat="40.294200" lon="-4.804033">
        <ele>2543.0</ele>
        <time>2018-09-16T13:42:01Z</time>
      </trkpt>
      <trkpt lat="40.294133" lon="-4.803950">
        <ele>2541.0</ele>
        <time>2018-09-16T13:42:02Z</time>
      </trkpt>
      <trkpt lat="40.294000" lon="-4.803783">
        <ele>2538.0</ele>
        <time>2018-09-16T13:42:04Z</time>
      </trkpt>
      <trkpt lat="40.293933" lon="-4.803683">
        <ele>2537.0</ele>
        <time>2018-09-16T13:42:05Z</time>
      </trkpt>
      <trkpt lat="40.293867" lon="-4.803600">
        <ele>2536.0</ele>
        <time>2018-09-16T13:42:06Z</time>
      </trkpt>
      <trkpt lat="40.293800" lon="-4.803500">
        <ele>2535.0</ele>
        <time>2018-09-16T13:42:07Z</time>
      </trkpt>
      <trkpt lat="40.293733" lon="-4.803433">
        <ele>2534.0</ele>
        <time>2018-09-16T13:42:08Z</time>
      </trkpt>
      <trkpt lat="40.293667" lon="-4.803350">
        <ele>2532.0</ele>
        <time>2018-09-16T13:42:09Z</time>
      </trkpt>
      <trkpt lat="40.293583" lon="-4.803267">
        <ele>2531.0</ele>
        <time>2018-09-16T13:42:10Z</time>
      </trkpt>
      <trkpt lat="40.293517" lon="-4.803200">
        <ele>2529.0</ele>
        <time>2018-09-16T13:42:11Z</time>
      </trkpt>
      <trkpt lat="40.293433" lon="-4.803117">
        <ele>2527.0</ele>
        <time>2018-09-16T13:42:12Z</time>
      </trkpt>
      <trkpt lat="40.293367" lon="-4.803050">
        <ele>2526.0</ele>
        <time>2018-09-16T13:42:13Z</time>
      </trkpt>
      <trkpt lat="40.293283" lon="-4.802983">
        <ele>2524.0</ele>
        <time>2018-09-16T13:42:14Z</time>
      </trkpt>
      <trkpt lat="40.293217" lon="-4.802917">
        <ele>2523.0</ele>
        <time>2018-09-16T13:42:15Z</time>
      </trkpt>
      <trkpt lat="40.293150" lon="-4.802833">
        <ele>2521.0</ele>
        <time>2018-09-16T13:42:16Z</time>
      </trkpt>
      <trkpt lat="40.293067" lon="-4.802767">
        <ele>2520.0</ele>
        <time>2018-09-16T13:42:17Z</time>
      </trkpt>
      <trkpt lat="40.293000" lon="-4.802700">
        <ele>2519.0</ele>
        <time>2018-09-16T13:42:18Z</time>
      </trkpt>
      <trkpt lat="40.292917" lon="-4.802633">
        <ele>2517.0</ele>
        <time>2018-09-16T13:42:19Z</time>
      </trkpt>
      <trkpt lat="40.292833" lon="-4.802567">
        <ele>2516.0</ele>
        <time>2018-09-16T13:42:20Z</time>
      </trkpt>
      <trkpt lat="40.292767" lon="-4.802500">
        <ele>2515.0</ele>
        <time>2018-09-16T13:42:21Z</time>
      </trkpt>
      <trkpt lat="40.292683" lon="-4.802433">
        <ele>2514.0</ele>
        <time>2018-09-16T13:42:22Z</time>
      </trkpt>
      <trkpt lat="40.292600" lon="-4.802367">
        <ele>2512.0</ele>
        <time>2018-09-16T13:42:23Z</time>
      </trkpt>
      <trkpt lat="40.292533" lon="-4.802317">
        <ele>2511.0</ele>
        <time>2018-09-16T13:42:24Z</time>
      </trkpt>
      <trkpt lat="40.292433" lon="-4.802250">
        <ele>2510.0</ele>
        <time>2018-09-16T13:42:25Z</time>
      </trkpt>
      <trkpt lat="40.292367" lon="-4.802183">
        <ele>2513.0</ele>
        <time>2018-09-16T13:42:26Z</time>
      </trkpt>
      <trkpt lat="40.292217" lon="-4.802050">
        <ele>2513.0</ele>
        <time>2018-09-16T13:42:28Z</time>
      </trkpt>
      <trkpt lat="40.292050" lon="-4.801917">
        <ele>2512.0</ele>
        <time>2018-09-16T13:42:30Z</time>
      </trkpt>
      <trkpt lat="40.291967" lon="-4.801850">
        <ele>2512.0</ele>
        <time>2018-09-16T13:42:31Z</time>
      </trkpt>
      <trkpt lat="40.291750" lon="-4.801667">
        <ele>2511.0</ele>
        <time>2018-09-16T13:42:34Z</time>
      </trkpt>
      <trkpt lat="40.291667" lon="-4.801617">
        <ele>2510.0</ele>
        <time>2018-09-16T13:42:35Z</time>
      </trkpt>
      <trkpt lat="40.291583" lon="-4.801550">
        <ele>2509.0</ele>
        <time>2018-09-16T13:42:36Z</time>
      </trkpt>
      <trkpt lat="40.291517" lon="-4.801500">
        <ele>2508.0</ele>
        <time>2018-09-16T13:42:37Z</time>
      </trkpt>
      <trkpt lat="40.291433" lon="-4.801433">
        <ele>2507.0</ele>
        <time>2018-09-16T13:42:38Z</time>
      </trkpt>
      <trkpt lat="40.291367" lon="-4.801383">
        <ele>2506.0</ele>
        <time>2018-09-16T13:42:39Z</time>
      </trkpt>
      <trkpt lat="40.291283" lon="-4.801333">
        <ele>2505.0</ele>
        <time>2018-09-16T13:42:40Z</time>
      </trkpt>
      <trkpt lat="40.291217" lon="-4.801267">
        <ele>2504.0</ele>
        <time>2018-09-16T13:42:41Z</time>
      </trkpt>
      <trkpt lat="40.291133" lon="-4.801217">
        <ele>2503.0</ele>
        <time>2018-09-16T13:42:42Z</time>
      </trkpt>
      <trkpt lat="40.291067" lon="-4.801150">
        <ele>2501.0</ele>
        <time>2018-09-16T13:42:43Z</time>
      </trkpt>
      <trkpt lat="40.290983" lon="-4.801100">
        <ele>2500.0</ele>
        <time>2018-09-16T13:42:44Z</time>
      </trkpt>
      <trkpt lat="40.290917" lon="-4.801033">
        <ele>2498.0</ele>
        <time>2018-09-16T13:42:45Z</time>
      </trkpt>
      <trkpt lat="40.290833" lon="-4.800983">
        <ele>2496.0</ele>
        <time>2018-09-16T13:42:46Z</time>
      </trkpt>
      <trkpt lat="40.290750" lon="-4.800933">
        <ele>2493.0</ele>
        <time>2018-09-16T13:42:47Z</time>
      </trkpt>
      <trkpt lat="40.290683" lon="-4.800867">
        <ele>2495.0</ele>
        <time>2018-09-16T13:42:48Z</time>
      </trkpt>
      <trkpt lat="40.290600" lon="-4.800817">
        <ele>2493.0</ele>
        <time>2018-09-16T13:42:49Z</time>
      </trkpt>
      <trkpt lat="40.290533" lon="-4.800767">
        <ele>2492.0</ele>
        <time>2018-09-16T13:42:50Z</time>
      </trkpt>
      <trkpt lat="40.290450" lon="-4.800700">
        <ele>2491.0</ele>
        <time>2018-09-16T13:42:51Z</time>
      </trkpt>
      <trkpt lat="40.290367" lon="-4.800617">
        <ele>2489.0</ele>
        <time>2018-09-16T13:42:52Z</time>
      </trkpt>
      <trkpt lat="40.290300" lon="-4.800550">
        <ele>2485.0</ele>
        <time>2018-09-16T13:42:53Z</time>
      </trkpt>
      <trkpt lat="40.290250" lon="-4.800483">
        <ele>2479.0</ele>
        <time>2018-09-16T13:42:54Z</time>
      </trkpt>
      <trkpt lat="40.290183" lon="-4.800433">
        <ele>2474.0</ele>
        <time>2018-09-16T13:42:55Z</time>
      </trkpt>
      <trkpt lat="40.290117" lon="-4.800367">
        <ele>2470.0</ele>
        <time>2018-09-16T13:42:56Z</time>
      </trkpt>
      <trkpt lat="40.290050" lon="-4.800300">
        <ele>2466.0</ele>
        <time>2018-09-16T13:42:57Z</time>
      </trkpt>
      <trkpt lat="40.289983" lon="-4.800250">
        <ele>2463.0</ele>
        <time>2018-09-16T13:42:58Z</time>
      </trkpt>
      <trkpt lat="40.289917" lon="-4.800183">
        <ele>2461.0</ele>
        <time>2018-09-16T13:42:59Z</time>
      </trkpt>
      <trkpt lat="40.289850" lon="-4.800117">
        <ele>2458.0</ele>
        <time>2018-09-16T13:43:00Z</time>
      </trkpt>
      <trkpt lat="40.289783" lon="-4.800067">
        <ele>2456.0</ele>
        <time>2018-09-16T13:43:01Z</time>
      </trkpt>
      <trkpt lat="40.289717" lon="-4.800000">
        <ele>2453.0</ele>
        <time>2018-09-16T13:43:02Z</time>
      </trkpt>
      <trkpt lat="40.289633" lon="-4.799950">
        <ele>2451.0</ele>
        <time>2018-09-16T13:43:03Z</time>
      </trkpt>
      <trkpt lat="40.289567" lon="-4.799883">
        <ele>2453.0</ele>
        <time>2018-09-16T13:43:04Z</time>
      </trkpt>
      <trkpt lat="40.289483" lon="-4.799833">
        <ele>2453.0</ele>
        <time>2018-09-16T13:43:05Z</time>
      </trkpt>
      <trkpt lat="40.289417" lon="-4.799783">
        <ele>2452.0</ele>
        <time>2018-09-16T13:43:06Z</time>
      </trkpt>
      <trkpt lat="40.289333" lon="-4.799733">
        <ele>2452.0</ele>
        <time>2018-09-16T13:43:07Z</time>
      </trkpt>
      <trkpt lat="40.289267" lon="-4.799683">
        <ele>2452.0</ele>
        <time>2018-09-16T13:43:08Z</time>
      </trkpt>
      <trkpt lat="40.289200" lon="-4.799633">
        <ele>2451.0</ele>
        <time>2018-09-16T13:43:09Z</time>
      </trkpt>
      <trkpt lat="40.289133" lon="-4.799583">
        <ele>2451.0</ele>
        <time>2018-09-16T13:43:10Z</time>
      </trkpt>
      <trkpt lat="40.289067" lon="-4.799533">
        <ele>2451.0</ele>
        <time>2018-09-16T13:43:11Z</time>
      </trkpt>
      <trkpt lat="40.288983" lon="-4.799483">
        <ele>2450.0</ele>
        <time>2018-09-16T13:43:12Z</time>
      </trkpt>
      <trkpt lat="40.288917" lon="-4.799433">
        <ele>2450.0</ele>
        <time>2018-09-16T13:43:13Z</time>
      </trkpt>
      <trkpt lat="40.288833" lon="-4.799367">
        <ele>2449.0</ele>
        <time>2018-09-16T13:43:14Z</time>
      </trkpt>
      <trkpt lat="40.288767" lon="-4.799317">
        <ele>2449.0</ele>
        <time>2018-09-16T13:43:15Z</time>
      </trkpt>
      <trkpt lat="40.288700" lon="-4.799250">
        <ele>2448.0</ele>
        <time>2018-09-16T13:43:16Z</time>
      </trkpt>
      <trkpt lat="40.288617" lon="-4.799200">
        <ele>2448.0</ele>
        <time>2018-09-16T13:43:17Z</time>
      </trkpt>
      <trkpt lat="40.288533" lon="-4.799133">
        <ele>2447.0</ele>
        <time>2018-09-16T13:43:18Z</time>
      </trkpt>
      <trkpt lat="40.288467" lon="-4.799067">
        <ele>2447.0</ele>
        <time>2018-09-16T13:43:19Z</time>
      </trkpt>
      <trkpt lat="40.288383" lon="-4.799000">
        <ele>2446.0</ele>
        <time>2018-09-16T13:43:20Z</time>
      </trkpt>
      <trkpt lat="40.288317" lon="-4.798933">
        <ele>2445.0</ele>
        <time>2018-09-16T13:43:21Z</time>
      </trkpt>
      <trkpt lat="40.288250" lon="-4.798883">
        <ele>2444.0</ele>
        <time>2018-09-16T13:43:22Z</time>
      </trkpt>
      <trkpt lat="40.288167" lon="-4.798833">
        <ele>2444.0</ele>
        <time>2018-09-16T13:43:23Z</time>
      </trkpt>
      <trkpt lat="40.288100" lon="-4.798783">
        <ele>2443.0</ele>
        <time>2018-09-16T13:43:24Z</time>
      </trkpt>
      <trkpt lat="40.288033" lon="-4.798733">
        <ele>2442.0</ele>
        <time>2018-09-16T13:43:25Z</time>
      </trkpt>
      <trkpt lat="40.287967" lon="-4.798700">
        <ele>2442.0</ele>
        <time>2018-09-16T13:43:26Z</time>
      </trkpt>
      <trkpt lat="40.287900" lon="-4.798650">
        <ele>2441.0</ele>
        <time>2018-09-16T13:43:27Z</time>
      </trkpt>
      <trkpt lat="40.287833" lon="-4.798583">
        <ele>2441.0</ele>
        <time>2018-09-16T13:43:28Z</time>
      </trkpt>
      <trkpt lat="40.287783" lon="-4.798517">
        <ele>2440.0</ele>
        <time>2018-09-16T13:43:29Z</time>
      </trkpt>
      <trkpt lat="40.287717" lon="-4.798483">
        <ele>2439.0</ele>
        <time>2018-09-16T13:43:30Z</time>
      </trkpt>
      <trkpt lat="40.287633" lon="-4.798433">
        <ele>2438.0</ele>
        <time>2018-09-16T13:43:31Z</time>
      </trkpt>
      <trkpt lat="40.287583" lon="-4.798367">
        <ele>2437.0</ele>
        <time>2018-09-16T13:43:32Z</time>
      </trkpt>
      <trkpt lat="40.287517" lon="-4.798317">
        <ele>2437.0</ele>
        <time>2018-09-16T13:43:33Z</time>
      </trkpt>
      <trkpt lat="40.287450" lon="-4.798267">
        <ele>2436.0</ele>
        <time>2018-09-16T13:43:34Z</time>
      </trkpt>
      <trkpt lat="40.287383" lon="-4.798233">
        <ele>2436.0</ele>
        <time>2018-09-16T13:43:35Z</time>
      </trkpt>
      <trkpt lat="40.287317" lon="-4.798183">
        <ele>2435.0</ele>
        <time>2018-09-16T13:43:36Z</time>
      </trkpt>
      <trkpt lat="40.287250" lon="-4.798150">
        <ele>2435.0</ele>
        <time>2018-09-16T13:43:37Z</time>
      </trkpt>
      <trkpt lat="40.287183" lon="-4.798100">
        <ele>2435.0</ele>
        <time>2018-09-16T13:43:38Z</time>
      </trkpt>
      <trkpt lat="40.287117" lon="-4.798067">
        <ele>2434.0</ele>
        <time>2018-09-16T13:43:39Z</time>
      </trkpt>
      <trkpt lat="40.287033" lon="-4.798017">
        <ele>2435.0</ele>
        <time>2018-09-16T13:43:40Z</time>
      </trkpt>
      <trkpt lat="40.286967" lon="-4.797967">
        <ele>2436.0</ele>
        <time>2018-09-16T13:43:41Z</time>
      </trkpt>
      <trkpt lat="40.286900" lon="-4.797900">
        <ele>2436.0</ele>
        <time>2018-09-16T13:43:42Z</time>
      </trkpt>
      <trkpt lat="40.286867" lon="-4.797800">
        <ele>2437.0</ele>
        <time>2018-09-16T13:43:43Z</time>
      </trkpt>
      <trkpt lat="40.286883" lon="-4.797683">
        <ele>2437.0</ele>
        <time>2018-09-16T13:43:44Z</time>
      </trkpt>
      <trkpt lat="40.286917" lon="-4.797600">
        <ele>2435.0</ele>
        <time>2018-09-16T13:43:45Z</time>
      </trkpt>
      <trkpt lat="40.286967" lon="-4.797517">
        <ele>2435.0</ele>
        <time>2018-09-16T13:43:46Z</time>
      </trkpt>
      <trkpt lat="40.287033" lon="-4.797483">
        <ele>2435.0</ele>
        <time>2018-09-16T13:43:47Z</time>
      </trkpt>
      <trkpt lat="40.287100" lon="-4.797450">
        <ele>2436.0</ele>
        <time>2018-09-16T13:43:48Z</time>
      </trkpt>
      <trkpt lat="40.287183" lon="-4.797450">
        <ele>2436.0</ele>
        <time>2018-09-16T13:43:49Z</time>
      </trkpt>
      <trkpt lat="40.287267" lon="-4.797483">
        <ele>2436.0</ele>
        <time>2018-09-16T13:43:50Z</time>
      </trkpt>
      <trkpt lat="40.287350" lon="-4.797550">
        <ele>2437.0</ele>
        <time>2018-09-16T13:43:51Z</time>
      </trkpt>
      <trkpt lat="40.287417" lon="-4.797633">
        <ele>2437.0</ele>
        <time>2018-09-16T13:43:52Z</time>
      </trkpt>
      <trkpt lat="40.287483" lon="-4.797733">
        <ele>2438.0</ele>
        <time>2018-09-16T13:43:53Z</time>
      </trkpt>
      <trkpt lat="40.287533" lon="-4.797850">
        <ele>2438.0</ele>
        <time>2018-09-16T13:43:54Z</time>
      </trkpt>
      <trkpt lat="40.287550" lon="-4.797983">
        <ele>2439.0</ele>
        <time>2018-09-16T13:43:55Z</time>
      </trkpt>
      <trkpt lat="40.287567" lon="-4.798117">
        <ele>2440.0</ele>
        <time>2018-09-16T13:43:56Z</time>
      </trkpt>
      <trkpt lat="40.287550" lon="-4.798250">
        <ele>2440.0</ele>
        <time>2018-09-16T13:43:57Z</time>
      </trkpt>
      <trkpt lat="40.287517" lon="-4.798383">
        <ele>2441.0</ele>
        <time>2018-09-16T13:43:58Z</time>
      </trkpt>
      <trkpt lat="40.287500" lon="-4.798500">
        <ele>2442.0</ele>
        <time>2018-09-16T13:43:59Z</time>
      </trkpt>
      <trkpt lat="40.287450" lon="-4.798617">
        <ele>2442.0</ele>
        <time>2018-09-16T13:44:00Z</time>
      </trkpt>
      <trkpt lat="40.287400" lon="-4.798733">
        <ele>2443.0</ele>
        <time>2018-09-16T13:44:01Z</time>
      </trkpt>
      <trkpt lat="40.287333" lon="-4.798850">
        <ele>2443.0</ele>
        <time>2018-09-16T13:44:02Z</time>
      </trkpt>
      <trkpt lat="40.287267" lon="-4.798933">
        <ele>2443.0</ele>
        <time>2018-09-16T13:44:03Z</time>
      </trkpt>
      <trkpt lat="40.287183" lon="-4.798983">
        <ele>2444.0</ele>
        <time>2018-09-16T13:44:04Z</time>
      </trkpt>
      <trkpt lat="40.287117" lon="-4.799033">
        <ele>2445.0</ele>
        <time>2018-09-16T13:44:05Z</time>
      </trkpt>
      <trkpt lat="40.287033" lon="-4.799067">
        <ele>2446.0</ele>
        <time>2018-09-16T13:44:06Z</time>
      </trkpt>
      <trkpt lat="40.286967" lon="-4.799083">
        <ele>2446.0</ele>
        <time>2018-09-16T13:44:07Z</time>
      </trkpt>
      <trkpt lat="40.286883" lon="-4.799100">
        <ele>2445.0</ele>
        <time>2018-09-16T13:44:08Z</time>
      </trkpt>
      <trkpt lat="40.286800" lon="-4.799117">
        <ele>2445.0</ele>
        <time>2018-09-16T13:44:09Z</time>
      </trkpt>
      <trkpt lat="40.286717" lon="-4.799100">
        <ele>2444.0</ele>
        <time>2018-09-16T13:44:10Z</time>
      </trkpt>
      <trkpt lat="40.286633" lon="-4.799083">
        <ele>2444.0</ele>
        <time>2018-09-16T13:44:11Z</time>
      </trkpt>
      <trkpt lat="40.286567" lon="-4.799050">
        <ele>2444.0</ele>
        <time>2018-09-16T13:44:12Z</time>
      </trkpt>
      <trkpt lat="40.286500" lon="-4.799000">
        <ele>2443.0</ele>
        <time>2018-09-16T13:44:13Z</time>
      </trkpt>
      <trkpt lat="40.286433" lon="-4.798933">
        <ele>2442.0</ele>
        <time>2018-09-16T13:44:14Z</time>
      </trkpt>
      <trkpt lat="40.286367" lon="-4.798850">
        <ele>2441.0</ele>
        <time>2018-09-16T13:44:15Z</time>
      </trkpt>
      <trkpt lat="40.286317" lon="-4.798783">
        <ele>2441.0</ele>
        <time>2018-09-16T13:44:16Z</time>
      </trkpt>
      <trkpt lat="40.286250" lon="-4.798717">
        <ele>2440.0</ele>
        <time>2018-09-16T13:44:17Z</time>
      </trkpt>
      <trkpt lat="40.286183" lon="-4.798650">
        <ele>2440.0</ele>
        <time>2018-09-16T13:44:18Z</time>
      </trkpt>
      <trkpt lat="40.286117" lon="-4.798583">
        <ele>2440.0</ele>
        <time>2018-09-16T13:44:19Z</time>
      </trkpt>
      <trkpt lat="40.285967" lon="-4.798433">
        <ele>2440.0</ele>
        <time>2018-09-16T13:44:21Z</time>
      </trkpt>
      <trkpt lat="40.285867" lon="-4.798367">
        <ele>2439.0</ele>
        <time>2018-09-16T13:44:22Z</time>
      </trkpt>
      <trkpt lat="40.285783" lon="-4.798300">
        <ele>2438.0</ele>
        <time>2018-09-16T13:44:23Z</time>
      </trkpt>
      <trkpt lat="40.285700" lon="-4.798233">
        <ele>2438.0</ele>
        <time>2018-09-16T13:44:24Z</time>
      </trkpt>
      <trkpt lat="40.285617" lon="-4.798167">
        <ele>2437.0</ele>
        <time>2018-09-16T13:44:25Z</time>
      </trkpt>
      <trkpt lat="40.285550" lon="-4.798100">
        <ele>2435.0</ele>
        <time>2018-09-16T13:44:26Z</time>
      </trkpt>
      <trkpt lat="40.285467" lon="-4.798033">
        <ele>2434.0</ele>
        <time>2018-09-16T13:44:27Z</time>
      </trkpt>
      <trkpt lat="40.285383" lon="-4.797967">
        <ele>2432.0</ele>
        <time>2018-09-16T13:44:28Z</time>
      </trkpt>
      <trkpt lat="40.285300" lon="-4.797900">
        <ele>2430.0</ele>
        <time>2018-09-16T13:44:29Z</time>
      </trkpt>
      <trkpt lat="40.285200" lon="-4.797833">
        <ele>2428.0</ele>
        <time>2018-09-16T13:44:30Z</time>
      </trkpt>
      <trkpt lat="40.285117" lon="-4.797767">
        <ele>2427.0</ele>
        <time>2018-09-16T13:44:31Z</time>
      </trkpt>
      <trkpt lat="40.285033" lon="-4.797700">
        <ele>2425.0</ele>
        <time>2018-09-16T13:44:32Z</time>
      </trkpt>
      <trkpt lat="40.284950" lon="-4.797650">
        <ele>2422.0</ele>
        <time>2018-09-16T13:44:33Z</time>
      </trkpt>
      <trkpt lat="40.284850" lon="-4.797600">
        <ele>2419.0</ele>
        <time>2018-09-16T13:44:34Z</time>
      </trkpt>
      <trkpt lat="40.284767" lon="-4.797550">
        <ele>2416.0</ele>
        <time>2018-09-16T13:44:35Z</time>
      </trkpt>
      <trkpt lat="40.284683" lon="-4.797500">
        <ele>2414.0</ele>
        <time>2018-09-16T13:44:36Z</time>
      </trkpt>
      <trkpt lat="40.284583" lon="-4.797450">
        <ele>2411.0</ele>
        <time>2018-09-16T13:44:37Z</time>
      </trkpt>
      <trkpt lat="40.284517" lon="-4.797400">
        <ele>2409.0</ele>
        <time>2018-09-16T13:44:38Z</time>
      </trkpt>
      <trkpt lat="40.284400" lon="-4.797367">
        <ele>2406.0</ele>
        <time>2018-09-16T13:44:39Z</time>
      </trkpt>
      <trkpt lat="40.284300" lon="-4.797317">
        <ele>2412.0</ele>
        <time>2018-09-16T13:44:40Z</time>
      </trkpt>
      <trkpt lat="40.284217" lon="-4.797267">
        <ele>2410.0</ele>
        <time>2018-09-16T13:44:41Z</time>
      </trkpt>
      <trkpt lat="40.284133" lon="-4.797217">
        <ele>2408.0</ele>
        <time>2018-09-16T13:44:42Z</time>
      </trkpt>
      <trkpt lat="40.284050" lon="-4.797167">
        <ele>2406.0</ele>
        <time>2018-09-16T13:44:43Z</time>
      </trkpt>
      <trkpt lat="40.283967" lon="-4.797117">
        <ele>2404.0</ele>
        <time>2018-09-16T13:44:44Z</time>
      </trkpt>
      <trkpt lat="40.283883" lon="-4.797067">
        <ele>2402.0</ele>
        <time>2018-09-16T13:44:45Z</time>
      </trkpt>
      <trkpt lat="40.283733" lon="-4.796967">
        <ele>2397.0</ele>
        <time>2018-09-16T13:44:47Z</time>
      </trkpt>
      <trkpt lat="40.283650" lon="-4.796933">
        <ele>2395.0</ele>
        <time>2018-09-16T13:44:48Z</time>
      </trkpt>
      <trkpt lat="40.283567" lon="-4.796900">
        <ele>2392.0</ele>
        <time>2018-09-16T13:44:49Z</time>
      </trkpt>
      <trkpt lat="40.283483" lon="-4.796833">
        <ele>2389.0</ele>
        <time>2018-09-16T13:44:50Z</time>
      </trkpt>
      <trkpt lat="40.283400" lon="-4.796800">
        <ele>2387.0</ele>
        <time>2018-09-16T13:44:51Z</time>
      </trkpt>
      <trkpt lat="40.283317" lon="-4.796750">
        <ele>2384.0</ele>
        <time>2018-09-16T13:44:52Z</time>
      </trkpt>
      <trkpt lat="40.283233" lon="-4.796717">
        <ele>2382.0</ele>
        <time>2018-09-16T13:44:53Z</time>
      </trkpt>
      <trkpt lat="40.283150" lon="-4.796667">
        <ele>2380.0</ele>
        <time>2018-09-16T13:44:54Z</time>
      </trkpt>
      <trkpt lat="40.283067" lon="-4.796617">
        <ele>2378.0</ele>
        <time>2018-09-16T13:44:55Z</time>
      </trkpt>
      <trkpt lat="40.282983" lon="-4.796567">
        <ele>2376.0</ele>
        <time>2018-09-16T13:44:56Z</time>
      </trkpt>
      <trkpt lat="40.282883" lon="-4.796533">
        <ele>2373.0</ele>
        <time>2018-09-16T13:44:57Z</time>
      </trkpt>
      <trkpt lat="40.282800" lon="-4.796483">
        <ele>2370.0</ele>
        <time>2018-09-16T13:44:58Z</time>
      </trkpt>
      <trkpt lat="40.282717" lon="-4.796433">
        <ele>2368.0</ele>
        <time>2018-09-16T13:44:59Z</time>
      </trkpt>
      <trkpt lat="40.282633" lon="-4.796383">
        <ele>2366.0</ele>
        <time>2018-09-16T13:45:00Z</time>
      </trkpt>
      <trkpt lat="40.282550" lon="-4.796333">
        <ele>2363.0</ele>
        <time>2018-09-16T13:45:01Z</time>
      </trkpt>
      <trkpt lat="40.282467" lon="-4.796283">
        <ele>2361.0</ele>
        <time>2018-09-16T13:45:02Z</time>
      </trkpt>
      <trkpt lat="40.282383" lon="-4.796233">
        <ele>2359.0</ele>
        <time>2018-09-16T13:45:03Z</time>
      </trkpt>
      <trkpt lat="40.282300" lon="-4.796183">
        <ele>2358.0</ele>
        <time>2018-09-16T13:45:04Z</time>
      </trkpt>
      <trkpt lat="40.282233" lon="-4.796133">
        <ele>2356.0</ele>
        <time>2018-09-16T13:45:05Z</time>
      </trkpt>
      <trkpt lat="40.282150" lon="-4.796067">
        <ele>2354.0</ele>
        <time>2018-09-16T13:45:06Z</time>
      </trkpt>
      <trkpt lat="40.282067" lon="-4.796017">
        <ele>2352.0</ele>
        <time>2018-09-16T13:45:07Z</time>
      </trkpt>
      <trkpt lat="40.282000" lon="-4.795950">
        <ele>2350.0</ele>
        <time>2018-09-16T13:45:08Z</time>
      </trkpt>
      <trkpt lat="40.281917" lon="-4.795883">
        <ele>2348.0</ele>
        <time>2018-09-16T13:45:09Z</time>
      </trkpt>
      <trkpt lat="40.281850" lon="-4.795833">
        <ele>2346.0</ele>
        <time>2018-09-16T13:45:10Z</time>
      </trkpt>
      <trkpt lat="40.281767" lon="-4.795767">
        <ele>2344.0</ele>
        <time>2018-09-16T13:45:11Z</time>
      </trkpt>
      <trkpt lat="40.281700" lon="-4.795700">
        <ele>2343.0</ele>
        <time>2018-09-16T13:45:12Z</time>
      </trkpt>
      <trkpt lat="40.281617" lon="-4.795633">
        <ele>2341.0</ele>
        <time>2018-09-16T13:45:13Z</time>
      </trkpt>
      <trkpt lat="40.281550" lon="-4.795567">
        <ele>2339.0</ele>
        <time>2018-09-16T13:45:14Z</time>
      </trkpt>
      <trkpt lat="40.281467" lon="-4.795483">
        <ele>2338.0</ele>
        <time>2018-09-16T13:45:15Z</time>
      </trkpt>
      <trkpt lat="40.281400" lon="-4.795417">
        <ele>2336.0</ele>
        <time>2018-09-16T13:45:16Z</time>
      </trkpt>
      <trkpt lat="40.281317" lon="-4.795350">
        <ele>2335.0</ele>
        <time>2018-09-16T13:45:17Z</time>
      </trkpt>
      <trkpt lat="40.281233" lon="-4.795300">
        <ele>2333.0</ele>
        <time>2018-09-16T13:45:18Z</time>
      </trkpt>
      <trkpt lat="40.281167" lon="-4.795233">
        <ele>2332.0</ele>
        <time>2018-09-16T13:45:19Z</time>
      </trkpt>
      <trkpt lat="40.281083" lon="-4.795167">
        <ele>2330.0</ele>
        <time>2018-09-16T13:45:20Z</time>
      </trkpt>
      <trkpt lat="40.281000" lon="-4.795117">
        <ele>2329.0</ele>
        <time>2018-09-16T13:45:21Z</time>
      </trkpt>
      <trkpt lat="40.280917" lon="-4.795067">
        <ele>2327.0</ele>
        <time>2018-09-16T13:45:22Z</time>
      </trkpt>
      <trkpt lat="40.280833" lon="-4.795017">
        <ele>2326.0</ele>
        <time>2018-09-16T13:45:23Z</time>
      </trkpt>
      <trkpt lat="40.280750" lon="-4.794967">
        <ele>2325.0</ele>
        <time>2018-09-16T13:45:24Z</time>
      </trkpt>
      <trkpt lat="40.280667" lon="-4.794917">
        <ele>2324.0</ele>
        <time>2018-09-16T13:45:25Z</time>
      </trkpt>
      <trkpt lat="40.280600" lon="-4.794867">
        <ele>2323.0</ele>
        <time>2018-09-16T13:45:26Z</time>
      </trkpt>
      <trkpt lat="40.280533" lon="-4.794817">
        <ele>2326.0</ele>
        <time>2018-09-16T13:45:27Z</time>
      </trkpt>
      <trkpt lat="40.279950" lon="-4.794333">
        <ele>0.0</ele>
        <time>2018-09-16T13:45:35Z</time>
      </trkpt>
      <trkpt lat="40.279833" lon="-4.794267">
        <ele>2326.0</ele>
        <time>2018-09-16T13:45:36Z</time>
      </trkpt>
      <trkpt lat="40.279733" lon="-4.794183">
        <ele>2326.0</ele>
        <time>2018-09-16T13:45:37Z</time>
      </trkpt>
      <trkpt lat="40.279650" lon="-4.794100">
        <ele>2325.0</ele>
        <time>2018-09-16T13:45:38Z</time>
      </trkpt>
      <trkpt lat="40.279383" lon="-4.793850">
        <ele>0.0</ele>
        <time>2018-09-16T13:45:42Z</time>
      </trkpt>
      <trkpt lat="40.279300" lon="-4.793700">
        <ele>2325.0</ele>
        <time>2018-09-16T13:45:44Z</time>
      </trkpt>
      <trkpt lat="40.279233" lon="-4.793583">
        <ele>2324.0</ele>
        <time>2018-09-16T13:45:45Z</time>
      </trkpt>
      <trkpt lat="40.279183" lon="-4.793500">
        <ele>2323.0</ele>
        <time>2018-09-16T13:45:46Z</time>
      </trkpt>
      <trkpt lat="40.279117" lon="-4.793400">
        <ele>2322.0</ele>
        <time>2018-09-16T13:45:47Z</time>
      </trkpt>
      <trkpt lat="40.279050" lon="-4.793317">
        <ele>2321.0</ele>
        <time>2018-09-16T13:45:48Z</time>
      </trkpt>
      <trkpt lat="40.279000" lon="-4.793250">
        <ele>2320.0</ele>
        <time>2018-09-16T13:45:49Z</time>
      </trkpt>
      <trkpt lat="40.278933" lon="-4.793167">
        <ele>2319.0</ele>
        <time>2018-09-16T13:45:50Z</time>
      </trkpt>
      <trkpt lat="40.278850" lon="-4.793083">
        <ele>2318.0</ele>
        <time>2018-09-16T13:45:51Z</time>
      </trkpt>
      <trkpt lat="40.278783" lon="-4.793000">
        <ele>2317.0</ele>
        <time>2018-09-16T13:45:52Z</time>
      </trkpt>
      <trkpt lat="40.278700" lon="-4.792933">
        <ele>2316.0</ele>
        <time>2018-09-16T13:45:53Z</time>
      </trkpt>
      <trkpt lat="40.278550" lon="-4.792800">
        <ele>2315.0</ele>
        <time>2018-09-16T13:45:55Z</time>
      </trkpt>
      <trkpt lat="40.278467" lon="-4.792717">
        <ele>2315.0</ele>
        <time>2018-09-16T13:45:56Z</time>
      </trkpt>
      <trkpt lat="40.278383" lon="-4.792667">
        <ele>2315.0</ele>
        <time>2018-09-16T13:45:57Z</time>
      </trkpt>
      <trkpt lat="40.278233" lon="-4.792533">
        <ele>2315.0</ele>
        <time>2018-09-16T13:45:59Z</time>
      </trkpt>
      <trkpt lat="40.278150" lon="-4.792467">
        <ele>2314.0</ele>
        <time>2018-09-16T13:46:00Z</time>
      </trkpt>
      <trkpt lat="40.278067" lon="-4.792433">
        <ele>2314.0</ele>
        <time>2018-09-16T13:46:01Z</time>
      </trkpt>
      <trkpt lat="40.278000" lon="-4.792367">
        <ele>2314.0</ele>
        <time>2018-09-16T13:46:02Z</time>
      </trkpt>
      <trkpt lat="40.277933" lon="-4.792283">
        <ele>2314.0</ele>
        <time>2018-09-16T13:46:03Z</time>
      </trkpt>
      <trkpt lat="40.277867" lon="-4.792200">
        <ele>2313.0</ele>
        <time>2018-09-16T13:46:04Z</time>
      </trkpt>
      <trkpt lat="40.277800" lon="-4.792100">
        <ele>2313.0</ele>
        <time>2018-09-16T13:46:05Z</time>
      </trkpt>
      <trkpt lat="40.277567" lon="-4.791850">
        <ele>0.0</ele>
        <time>2018-09-16T13:46:08Z</time>
      </trkpt>
      <trkpt lat="40.277517" lon="-4.791800">
        <ele>2309.0</ele>
        <time>2018-09-16T13:46:09Z</time>
      </trkpt>
      <trkpt lat="40.277467" lon="-4.791733">
        <ele>2308.0</ele>
        <time>2018-09-16T13:46:10Z</time>
      </trkpt>
      <trkpt lat="40.277400" lon="-4.791650">
        <ele>2308.0</ele>
        <time>2018-09-16T13:46:11Z</time>
      </trkpt>
      <trkpt lat="40.277333" lon="-4.791583">
        <ele>2307.0</ele>
        <time>2018-09-16T13:46:12Z</time>
      </trkpt>
      <trkpt lat="40.277250" lon="-4.791500">
        <ele>2307.0</ele>
        <time>2018-09-16T13:46:13Z</time>
      </trkpt>
      <trkpt lat="40.277200" lon="-4.791433">
        <ele>2306.0</ele>
        <time>2018-09-16T13:46:14Z</time>
      </trkpt>
      <trkpt lat="40.277133" lon="-4.791367">
        <ele>2306.0</ele>
        <time>2018-09-16T13:46:15Z</time>
      </trkpt>
      <trkpt lat="40.277067" lon="-4.791283">
        <ele>2305.0</ele>
        <time>2018-09-16T13:46:16Z</time>
      </trkpt>
      <trkpt lat="40.277017" lon="-4.791200">
        <ele>2305.0</ele>
        <time>2018-09-16T13:46:17Z</time>
      </trkpt>
      <trkpt lat="40.276983" lon="-4.791117">
        <ele>2303.0</ele>
        <time>2018-09-16T13:46:18Z</time>
      </trkpt>
      <trkpt lat="40.276950" lon="-4.791017">
        <ele>2299.0</ele>
        <time>2018-09-16T13:46:19Z</time>
      </trkpt>
      <trkpt lat="40.276883" lon="-4.790950">
        <ele>2292.0</ele>
        <time>2018-09-16T13:46:20Z</time>
      </trkpt>
      <trkpt lat="40.276817" lon="-4.790883">
        <ele>2289.0</ele>
        <time>2018-09-16T13:46:21Z</time>
      </trkpt>
      <trkpt lat="40.276750" lon="-4.790800">
        <ele>2287.0</ele>
        <time>2018-09-16T13:46:22Z</time>
      </trkpt>
      <trkpt lat="40.276667" lon="-4.790733">
        <ele>2285.0</ele>
        <time>2018-09-16T13:46:23Z</time>
      </trkpt>
      <trkpt lat="40.276600" lon="-4.790650">
        <ele>2284.0</ele>
        <time>2018-09-16T13:46:24Z</time>
      </trkpt>
      <trkpt lat="40.276517" lon="-4.790583">
        <ele>2282.0</ele>
        <time>2018-09-16T13:46:25Z</time>
      </trkpt>
      <trkpt lat="40.276450" lon="-4.790500">
        <ele>2281.0</ele>
        <time>2018-09-16T13:46:26Z</time>
      </trkpt>
      <trkpt lat="40.276367" lon="-4.790433">
        <ele>2280.0</ele>
        <time>2018-09-16T13:46:27Z</time>
      </trkpt>
      <trkpt lat="40.276300" lon="-4.790367">
        <ele>2279.0</ele>
        <time>2018-09-16T13:46:28Z</time>
      </trkpt>
      <trkpt lat="40.276217" lon="-4.790300">
        <ele>2277.0</ele>
        <time>2018-09-16T13:46:29Z</time>
      </trkpt>
      <trkpt lat="40.276150" lon="-4.790233">
        <ele>2276.0</ele>
        <time>2018-09-16T13:46:30Z</time>
      </trkpt>
      <trkpt lat="40.276067" lon="-4.790167">
        <ele>2274.0</ele>
        <time>2018-09-16T13:46:31Z</time>
      </trkpt>
      <trkpt lat="40.276000" lon="-4.790100">
        <ele>2273.0</ele>
        <time>2018-09-16T13:46:32Z</time>
      </trkpt>
      <trkpt lat="40.275917" lon="-4.790033">
        <ele>2271.0</ele>
        <time>2018-09-16T13:46:33Z</time>
      </trkpt>
      <trkpt lat="40.275833" lon="-4.789983">
        <ele>2269.0</ele>
        <time>2018-09-16T13:46:34Z</time>
      </trkpt>
      <trkpt lat="40.275767" lon="-4.789917">
        <ele>2272.0</ele>
        <time>2018-09-16T13:46:35Z</time>
      </trkpt>
      <trkpt lat="40.275683" lon="-4.789850">
        <ele>2271.0</ele>
        <time>2018-09-16T13:46:36Z</time>
      </trkpt>
      <trkpt lat="40.275600" lon="-4.789800">
        <ele>2270.0</ele>
        <time>2018-09-16T13:46:37Z</time>
      </trkpt>
      <trkpt lat="40.275533" lon="-4.789733">
        <ele>2269.0</ele>
        <time>2018-09-16T13:46:38Z</time>
      </trkpt>
      <trkpt lat="40.275467" lon="-4.789667">
        <ele>2268.0</ele>
        <time>2018-09-16T13:46:39Z</time>
      </trkpt>
      <trkpt lat="40.275383" lon="-4.789617">
        <ele>2268.0</ele>
        <time>2018-09-16T13:46:40Z</time>
      </trkpt>
      <trkpt lat="40.275317" lon="-4.789567">
        <ele>2267.0</ele>
        <time>2018-09-16T13:46:41Z</time>
      </trkpt>
      <trkpt lat="40.275233" lon="-4.789517">
        <ele>2267.0</ele>
        <time>2018-09-16T13:46:42Z</time>
      </trkpt>
      <trkpt lat="40.275167" lon="-4.789450">
        <ele>2266.0</ele>
        <time>2018-09-16T13:46:43Z</time>
      </trkpt>
      <trkpt lat="40.275083" lon="-4.789400">
        <ele>2266.0</ele>
        <time>2018-09-16T13:46:44Z</time>
      </trkpt>
      <trkpt lat="40.275000" lon="-4.789350">
        <ele>2265.0</ele>
        <time>2018-09-16T13:46:45Z</time>
      </trkpt>
      <trkpt lat="40.274917" lon="-4.789300">
        <ele>2264.0</ele>
        <time>2018-09-16T13:46:46Z</time>
      </trkpt>
      <trkpt lat="40.274850" lon="-4.789267">
        <ele>2263.0</ele>
        <time>2018-09-16T13:46:47Z</time>
      </trkpt>
      <trkpt lat="40.274767" lon="-4.789200">
        <ele>2262.0</ele>
        <time>2018-09-16T13:46:48Z</time>
      </trkpt>
      <trkpt lat="40.274683" lon="-4.789133">
        <ele>2261.0</ele>
        <time>2018-09-16T13:46:49Z</time>
      </trkpt>
      <trkpt lat="40.274600" lon="-4.789100">
        <ele>2259.0</ele>
        <time>2018-09-16T13:46:50Z</time>
      </trkpt>
      <trkpt lat="40.274517" lon="-4.789050">
        <ele>2257.0</ele>
        <time>2018-09-16T13:46:51Z</time>
      </trkpt>
      <trkpt lat="40.274433" lon="-4.789000">
        <ele>2255.0</ele>
        <time>2018-09-16T13:46:52Z</time>
      </trkpt>
      <trkpt lat="40.274350" lon="-4.788933">
        <ele>2253.0</ele>
        <time>2018-09-16T13:46:53Z</time>
      </trkpt>
      <trkpt lat="40.274283" lon="-4.788883">
        <ele>2251.0</ele>
        <time>2018-09-16T13:46:54Z</time>
      </trkpt>
      <trkpt lat="40.274200" lon="-4.788833">
        <ele>2248.0</ele>
        <time>2018-09-16T13:46:55Z</time>
      </trkpt>
      <trkpt lat="40.274117" lon="-4.788767">
        <ele>2246.0</ele>
        <time>2018-09-16T13:46:56Z</time>
      </trkpt>
      <trkpt lat="40.274050" lon="-4.788717">
        <ele>2244.0</ele>
        <time>2018-09-16T13:46:57Z</time>
      </trkpt>
      <trkpt lat="40.273967" lon="-4.788667">
        <ele>2243.0</ele>
        <time>2018-09-16T13:46:58Z</time>
      </trkpt>
      <trkpt lat="40.273900" lon="-4.788600">
        <ele>2241.0</ele>
        <time>2018-09-16T13:46:59Z</time>
      </trkpt>
      <trkpt lat="40.273817" lon="-4.788550">
        <ele>2240.0</ele>
        <time>2018-09-16T13:47:00Z</time>
      </trkpt>
      <trkpt lat="40.273750" lon="-4.788483">
        <ele>2238.0</ele>
        <time>2018-09-16T13:47:01Z</time>
      </trkpt>
      <trkpt lat="40.273667" lon="-4.788433">
        <ele>2237.0</ele>
        <time>2018-09-16T13:47:02Z</time>
      </trkpt>
      <trkpt lat="40.273583" lon="-4.788367">
        <ele>2236.0</ele>
        <time>2018-09-16T13:47:03Z</time>
      </trkpt>
      <trkpt lat="40.273500" lon="-4.788317">
        <ele>2235.0</ele>
        <time>2018-09-16T13:47:04Z</time>
      </trkpt>
      <trkpt lat="40.273433" lon="-4.788267">
        <ele>2234.0</ele>
        <time>2018-09-16T13:47:05Z</time>
      </trkpt>
      <trkpt lat="40.273350" lon="-4.788217">
        <ele>2233.0</ele>
        <time>2018-09-16T13:47:06Z</time>
      </trkpt>
      <trkpt lat="40.273267" lon="-4.788150">
        <ele>2232.0</ele>
        <time>2018-09-16T13:47:07Z</time>
      </trkpt>
      <trkpt lat="40.273183" lon="-4.788100">
        <ele>2231.0</ele>
        <time>2018-09-16T13:47:08Z</time>
      </trkpt>
      <trkpt lat="40.273100" lon="-4.788050">
        <ele>2231.0</ele>
        <time>2018-09-16T13:47:09Z</time>
      </trkpt>
      <trkpt lat="40.273017" lon="-4.788000">
        <ele>2230.0</ele>
        <time>2018-09-16T13:47:10Z</time>
      </trkpt>
      <trkpt lat="40.272933" lon="-4.787933">
        <ele>2232.0</ele>
        <time>2018-09-16T13:47:11Z</time>
      </trkpt>
      <trkpt lat="40.272850" lon="-4.787900">
        <ele>2232.0</ele>
        <time>2018-09-16T13:47:12Z</time>
      </trkpt>
      <trkpt lat="40.272783" lon="-4.787833">
        <ele>2231.0</ele>
        <time>2018-09-16T13:47:13Z</time>
      </trkpt>
      <trkpt lat="40.272700" lon="-4.787783">
        <ele>2231.0</ele>
        <time>2018-09-16T13:47:14Z</time>
      </trkpt>
      <trkpt lat="40.272617" lon="-4.787733">
        <ele>2230.0</ele>
        <time>2018-09-16T13:47:15Z</time>
      </trkpt>
      <trkpt lat="40.272533" lon="-4.787683">
        <ele>2230.0</ele>
        <time>2018-09-16T13:47:16Z</time>
      </trkpt>
      <trkpt lat="40.272467" lon="-4.787617">
        <ele>2229.0</ele>
        <time>2018-09-16T13:47:17Z</time>
      </trkpt>
      <trkpt lat="40.272383" lon="-4.787567">
        <ele>2229.0</ele>
        <time>2018-09-16T13:47:18Z</time>
      </trkpt>
      <trkpt lat="40.272317" lon="-4.787500">
        <ele>2229.0</ele>
        <time>2018-09-16T13:47:19Z</time>
      </trkpt>
      <trkpt lat="40.272233" lon="-4.787450">
        <ele>2229.0</ele>
        <time>2018-09-16T13:47:20Z</time>
      </trkpt>
      <trkpt lat="40.272167" lon="-4.787400">
        <ele>2228.0</ele>
        <time>2018-09-16T13:47:21Z</time>
      </trkpt>
      <trkpt lat="40.272083" lon="-4.787333">
        <ele>2227.0</ele>
        <time>2018-09-16T13:47:22Z</time>
      </trkpt>
      <trkpt lat="40.272017" lon="-4.787283">
        <ele>2227.0</ele>
        <time>2018-09-16T13:47:23Z</time>
      </trkpt>
      <trkpt lat="40.271933" lon="-4.787233">
        <ele>2227.0</ele>
        <time>2018-09-16T13:47:24Z</time>
      </trkpt>
      <trkpt lat="40.271867" lon="-4.787167">
        <ele>2227.0</ele>
        <time>2018-09-16T13:47:25Z</time>
      </trkpt>
      <trkpt lat="40.271800" lon="-4.787100">
        <ele>2226.0</ele>
        <time>2018-09-16T13:47:26Z</time>
      </trkpt>
      <trkpt lat="40.271733" lon="-4.787050">
        <ele>2226.0</ele>
        <time>2018-09-16T13:47:27Z</time>
      </trkpt>
      <trkpt lat="40.271667" lon="-4.786983">
        <ele>2225.0</ele>
        <time>2018-09-16T13:47:28Z</time>
      </trkpt>
      <trkpt lat="40.271600" lon="-4.786933">
        <ele>2224.0</ele>
        <time>2018-09-16T13:47:29Z</time>
      </trkpt>
      <trkpt lat="40.271533" lon="-4.786867">
        <ele>2223.0</ele>
        <time>2018-09-16T13:47:30Z</time>
      </trkpt>
      <trkpt lat="40.271450" lon="-4.786800">
        <ele>2221.0</ele>
        <time>2018-09-16T13:47:31Z</time>
      </trkpt>
      <trkpt lat="40.271383" lon="-4.786750">
        <ele>2220.0</ele>
        <time>2018-09-16T13:47:32Z</time>
      </trkpt>
      <trkpt lat="40.271317" lon="-4.786683">
        <ele>2219.0</ele>
        <time>2018-09-16T13:47:33Z</time>
      </trkpt>
      <trkpt lat="40.271250" lon="-4.786633">
        <ele>2218.0</ele>
        <time>2018-09-16T13:47:34Z</time>
      </trkpt>
      <trkpt lat="40.271183" lon="-4.786567">
        <ele>2217.0</ele>
        <time>2018-09-16T13:47:35Z</time>
      </trkpt>
      <trkpt lat="40.271117" lon="-4.786517">
        <ele>2216.0</ele>
        <time>2018-09-16T13:47:36Z</time>
      </trkpt>
      <trkpt lat="40.271033" lon="-4.786450">
        <ele>2214.0</ele>
        <time>2018-09-16T13:47:37Z</time>
      </trkpt>
      <trkpt lat="40.270967" lon="-4.786400">
        <ele>2213.0</ele>
        <time>2018-09-16T13:47:38Z</time>
      </trkpt>
      <trkpt lat="40.270900" lon="-4.786333">
        <ele>2212.0</ele>
        <time>2018-09-16T13:47:39Z</time>
      </trkpt>
      <trkpt lat="40.270833" lon="-4.786283">
        <ele>2211.0</ele>
        <time>2018-09-16T13:47:40Z</time>
      </trkpt>
      <trkpt lat="40.270767" lon="-4.786217">
        <ele>2209.0</ele>
        <time>2018-09-16T13:47:41Z</time>
      </trkpt>
      <trkpt lat="40.270683" lon="-4.786167">
        <ele>2208.0</ele>
        <time>2018-09-16T13:47:42Z</time>
      </trkpt>
      <trkpt lat="40.270617" lon="-4.786100">
        <ele>2207.0</ele>
        <time>2018-09-16T13:47:43Z</time>
      </trkpt>
      <trkpt lat="40.270550" lon="-4.786033">
        <ele>2206.0</ele>
        <time>2018-09-16T13:47:44Z</time>
      </trkpt>
      <trkpt lat="40.270467" lon="-4.785983">
        <ele>2205.0</ele>
        <time>2018-09-16T13:47:45Z</time>
      </trkpt>
      <trkpt lat="40.270400" lon="-4.785917">
        <ele>2204.0</ele>
        <time>2018-09-16T13:47:46Z</time>
      </trkpt>
      <trkpt lat="40.270317" lon="-4.785867">
        <ele>2203.0</ele>
        <time>2018-09-16T13:47:47Z</time>
      </trkpt>
      <trkpt lat="40.270250" lon="-4.785800">
        <ele>2202.0</ele>
        <time>2018-09-16T13:47:48Z</time>
      </trkpt>
      <trkpt lat="40.270167" lon="-4.785750">
        <ele>2201.0</ele>
        <time>2018-09-16T13:47:49Z</time>
      </trkpt>
      <trkpt lat="40.270100" lon="-4.785683">
        <ele>2200.0</ele>
        <time>2018-09-16T13:47:50Z</time>
      </trkpt>
      <trkpt lat="40.270033" lon="-4.785617">
        <ele>2199.0</ele>
        <time>2018-09-16T13:47:51Z</time>
      </trkpt>
      <trkpt lat="40.269950" lon="-4.785567">
        <ele>2198.0</ele>
        <time>2018-09-16T13:47:52Z</time>
      </trkpt>
      <trkpt lat="40.269883" lon="-4.785517">
        <ele>2198.0</ele>
        <time>2018-09-16T13:47:53Z</time>
      </trkpt>
      <trkpt lat="40.269800" lon="-4.785450">
        <ele>2197.0</ele>
        <time>2018-09-16T13:47:54Z</time>
      </trkpt>
      <trkpt lat="40.269717" lon="-4.785400">
        <ele>2196.0</ele>
        <time>2018-09-16T13:47:55Z</time>
      </trkpt>
      <trkpt lat="40.269633" lon="-4.785350">
        <ele>2195.0</ele>
        <time>2018-09-16T13:47:56Z</time>
      </trkpt>
      <trkpt lat="40.269567" lon="-4.785300">
        <ele>2194.0</ele>
        <time>2018-09-16T13:47:57Z</time>
      </trkpt>
      <trkpt lat="40.269483" lon="-4.785233">
        <ele>2193.0</ele>
        <time>2018-09-16T13:47:58Z</time>
      </trkpt>
      <trkpt lat="40.269400" lon="-4.785183">
        <ele>2192.0</ele>
        <time>2018-09-16T13:47:59Z</time>
      </trkpt>
      <trkpt lat="40.269333" lon="-4.785133">
        <ele>2191.0</ele>
        <time>2018-09-16T13:48:00Z</time>
      </trkpt>
      <trkpt lat="40.269250" lon="-4.785067">
        <ele>2190.0</ele>
        <time>2018-09-16T13:48:01Z</time>
      </trkpt>
      <trkpt lat="40.269167" lon="-4.785017">
        <ele>2189.0</ele>
        <time>2018-09-16T13:48:02Z</time>
      </trkpt>
      <trkpt lat="40.269083" lon="-4.784967">
        <ele>2190.0</ele>
        <time>2018-09-16T13:48:03Z</time>
      </trkpt>
      <trkpt lat="40.269000" lon="-4.784933">
        <ele>2190.0</ele>
        <time>2018-09-16T13:48:04Z</time>
      </trkpt>
      <trkpt lat="40.268967" lon="-4.784817">
        <ele>2190.0</ele>
        <time>2018-09-16T13:48:06Z</time>
      </trkpt>
      <trkpt lat="40.268867" lon="-4.784767">
        <ele>2190.0</ele>
        <time>2018-09-16T13:48:07Z</time>
      </trkpt>
      <trkpt lat="40.268783" lon="-4.784700">
        <ele>2190.0</ele>
        <time>2018-09-16T13:48:08Z</time>
      </trkpt>
      <trkpt lat="40.268683" lon="-4.784633">
        <ele>2189.0</ele>
        <time>2018-09-16T13:48:09Z</time>
      </trkpt>
      <trkpt lat="40.268583" lon="-4.784567">
        <ele>2189.0</ele>
        <time>2018-09-16T13:48:10Z</time>
      </trkpt>
      <trkpt lat="40.268483" lon="-4.784517">
        <ele>2189.0</ele>
        <time>2018-09-16T13:48:11Z</time>
      </trkpt>
      <trkpt lat="40.268400" lon="-4.784467">
        <ele>2189.0</ele>
        <time>2018-09-16T13:48:12Z</time>
      </trkpt>
      <trkpt lat="40.268300" lon="-4.784417">
        <ele>2189.0</ele>
        <time>2018-09-16T13:48:13Z</time>
      </trkpt>
      <trkpt lat="40.268217" lon="-4.784367">
        <ele>2189.0</ele>
        <time>2018-09-16T13:48:14Z</time>
      </trkpt>
      <trkpt lat="40.268133" lon="-4.784300">
        <ele>2189.0</ele>
        <time>2018-09-16T13:48:15Z</time>
      </trkpt>
      <trkpt lat="40.268050" lon="-4.784233">
        <ele>2188.0</ele>
        <time>2018-09-16T13:48:16Z</time>
      </trkpt>
      <trkpt lat="40.267950" lon="-4.784183">
        <ele>2187.0</ele>
        <time>2018-09-16T13:48:17Z</time>
      </trkpt>
      <trkpt lat="40.267867" lon="-4.784133">
        <ele>2186.0</ele>
        <time>2018-09-16T13:48:18Z</time>
      </trkpt>
      <trkpt lat="40.267767" lon="-4.784067">
        <ele>2185.0</ele>
        <time>2018-09-16T13:48:19Z</time>
      </trkpt>
      <trkpt lat="40.267683" lon="-4.784000">
        <ele>2184.0</ele>
        <time>2018-09-16T13:48:20Z</time>
      </trkpt>
      <trkpt lat="40.267617" lon="-4.783950">
        <ele>2182.0</ele>
        <time>2018-09-16T13:48:21Z</time>
      </trkpt>
      <trkpt lat="40.267533" lon="-4.783883">
        <ele>2180.0</ele>
        <time>2018-09-16T13:48:22Z</time>
      </trkpt>
      <trkpt lat="40.267467" lon="-4.783833">
        <ele>2178.0</ele>
        <time>2018-09-16T13:48:23Z</time>
      </trkpt>
      <trkpt lat="40.267400" lon="-4.783767">
        <ele>2175.0</ele>
        <time>2018-09-16T13:48:24Z</time>
      </trkpt>
      <trkpt lat="40.267317" lon="-4.783717">
        <ele>2171.0</ele>
        <time>2018-09-16T13:48:25Z</time>
      </trkpt>
      <trkpt lat="40.267250" lon="-4.783650">
        <ele>2168.0</ele>
        <time>2018-09-16T13:48:26Z</time>
      </trkpt>
      <trkpt lat="40.267167" lon="-4.783600">
        <ele>2165.0</ele>
        <time>2018-09-16T13:48:27Z</time>
      </trkpt>
      <trkpt lat="40.267100" lon="-4.783533">
        <ele>2162.0</ele>
        <time>2018-09-16T13:48:28Z</time>
      </trkpt>
      <trkpt lat="40.267033" lon="-4.783483">
        <ele>2159.0</ele>
        <time>2018-09-16T13:48:29Z</time>
      </trkpt>
      <trkpt lat="40.266917" lon="-4.783433">
        <ele>2156.0</ele>
        <time>2018-09-16T13:48:30Z</time>
      </trkpt>
      <trkpt lat="40.266833" lon="-4.783383">
        <ele>2161.0</ele>
        <time>2018-09-16T13:48:31Z</time>
      </trkpt>
      <trkpt lat="40.266750" lon="-4.783317">
        <ele>2159.0</ele>
        <time>2018-09-16T13:48:32Z</time>
      </trkpt>
      <trkpt lat="40.266683" lon="-4.783267">
        <ele>2157.0</ele>
        <time>2018-09-16T13:48:33Z</time>
      </trkpt>
      <trkpt lat="40.266600" lon="-4.783217">
        <ele>2156.0</ele>
        <time>2018-09-16T13:48:34Z</time>
      </trkpt>
      <trkpt lat="40.266533" lon="-4.783167">
        <ele>2154.0</ele>
        <time>2018-09-16T13:48:35Z</time>
      </trkpt>
      <trkpt lat="40.266450" lon="-4.783100">
        <ele>2151.0</ele>
        <time>2018-09-16T13:48:36Z</time>
      </trkpt>
      <trkpt lat="40.266383" lon="-4.783050">
        <ele>2149.0</ele>
        <time>2018-09-16T13:48:37Z</time>
      </trkpt>
      <trkpt lat="40.266300" lon="-4.783000">
        <ele>2147.0</ele>
        <time>2018-09-16T13:48:38Z</time>
      </trkpt>
      <trkpt lat="40.266233" lon="-4.782933">
        <ele>2145.0</ele>
        <time>2018-09-16T13:48:39Z</time>
      </trkpt>
      <trkpt lat="40.266150" lon="-4.782883">
        <ele>2144.0</ele>
        <time>2018-09-16T13:48:40Z</time>
      </trkpt>
      <trkpt lat="40.266067" lon="-4.782833">
        <ele>2142.0</ele>
        <time>2018-09-16T13:48:41Z</time>
      </trkpt>
      <trkpt lat="40.266000" lon="-4.782783">
        <ele>2140.0</ele>
        <time>2018-09-16T13:48:42Z</time>
      </trkpt>
      <trkpt lat="40.265917" lon="-4.782717">
        <ele>2139.0</ele>
        <time>2018-09-16T13:48:43Z</time>
      </trkpt>
      <trkpt lat="40.265833" lon="-4.782667">
        <ele>2137.0</ele>
        <time>2018-09-16T13:48:44Z</time>
      </trkpt>
      <trkpt lat="40.265750" lon="-4.782617">
        <ele>2136.0</ele>
        <time>2018-09-16T13:48:45Z</time>
      </trkpt>
      <trkpt lat="40.265667" lon="-4.782583">
        <ele>2135.0</ele>
        <time>2018-09-16T13:48:46Z</time>
      </trkpt>
      <trkpt lat="40.265583" lon="-4.782533">
        <ele>2133.0</ele>
        <time>2018-09-16T13:48:47Z</time>
      </trkpt>
      <trkpt lat="40.265500" lon="-4.782483">
        <ele>2132.0</ele>
        <time>2018-09-16T13:48:48Z</time>
      </trkpt>
      <trkpt lat="40.265433" lon="-4.782433">
        <ele>2130.0</ele>
        <time>2018-09-16T13:48:49Z</time>
      </trkpt>
      <trkpt lat="40.265350" lon="-4.782400">
        <ele>2129.0</ele>
        <time>2018-09-16T13:48:50Z</time>
      </trkpt>
      <trkpt lat="40.265267" lon="-4.782350">
        <ele>2127.0</ele>
        <time>2018-09-16T13:48:51Z</time>
      </trkpt>
      <trkpt lat="40.265183" lon="-4.782300">
        <ele>2126.0</ele>
        <time>2018-09-16T13:48:52Z</time>
      </trkpt>
      <trkpt lat="40.265100" lon="-4.782267">
        <ele>2124.0</ele>
        <time>2018-09-16T13:48:53Z</time>
      </trkpt>
      <trkpt lat="40.265017" lon="-4.782217">
        <ele>2122.0</ele>
        <time>2018-09-16T13:48:54Z</time>
      </trkpt>
      <trkpt lat="40.264933" lon="-4.782183">
        <ele>2121.0</ele>
        <time>2018-09-16T13:48:55Z</time>
      </trkpt>
      <trkpt lat="40.264833" lon="-4.782133">
        <ele>2123.0</ele>
        <time>2018-09-16T13:48:56Z</time>
      </trkpt>
      <trkpt lat="40.264750" lon="-4.782100">
        <ele>2123.0</ele>
        <time>2018-09-16T13:48:57Z</time>
      </trkpt>
      <trkpt lat="40.264667" lon="-4.782050">
        <ele>2122.0</ele>
        <time>2018-09-16T13:48:58Z</time>
      </trkpt>
      <trkpt lat="40.264583" lon="-4.782000">
        <ele>2121.0</ele>
        <time>2018-09-16T13:48:59Z</time>
      </trkpt>
      <trkpt lat="40.264500" lon="-4.781950">
        <ele>2120.0</ele>
        <time>2018-09-16T13:49:00Z</time>
      </trkpt>
      <trkpt lat="40.264417" lon="-4.781917">
        <ele>2119.0</ele>
        <time>2018-09-16T13:49:01Z</time>
      </trkpt>
      <trkpt lat="40.264350" lon="-4.781867">
        <ele>2120.0</ele>
        <time>2018-09-16T13:49:02Z</time>
      </trkpt>
      <trkpt lat="40.264267" lon="-4.781817">
        <ele>2119.0</ele>
        <time>2018-09-16T13:49:03Z</time>
      </trkpt>
      <trkpt lat="40.264167" lon="-4.781767">
        <ele>2119.0</ele>
        <time>2018-09-16T13:49:04Z</time>
      </trkpt>
      <trkpt lat="40.264083" lon="-4.781717">
        <ele>2118.0</ele>
        <time>2018-09-16T13:49:05Z</time>
      </trkpt>
      <trkpt lat="40.264000" lon="-4.781650">
        <ele>2117.0</ele>
        <time>2018-09-16T13:49:06Z</time>
      </trkpt>
      <trkpt lat="40.263933" lon="-4.781600">
        <ele>2115.0</ele>
        <time>2018-09-16T13:49:07Z</time>
      </trkpt>
      <trkpt lat="40.263867" lon="-4.781533">
        <ele>2113.0</ele>
        <time>2018-09-16T13:49:08Z</time>
      </trkpt>
      <trkpt lat="40.263800" lon="-4.781467">
        <ele>2111.0</ele>
        <time>2018-09-16T13:49:09Z</time>
      </trkpt>
      <trkpt lat="40.263733" lon="-4.781417">
        <ele>2109.0</ele>
        <time>2018-09-16T13:49:10Z</time>
      </trkpt>
      <trkpt lat="40.263667" lon="-4.781350">
        <ele>2106.0</ele>
        <time>2018-09-16T13:49:11Z</time>
      </trkpt>
      <trkpt lat="40.263583" lon="-4.781283">
        <ele>2104.0</ele>
        <time>2018-09-16T13:49:12Z</time>
      </trkpt>
      <trkpt lat="40.263500" lon="-4.781217">
        <ele>2105.0</ele>
        <time>2018-09-16T13:49:13Z</time>
      </trkpt>
      <trkpt lat="40.263433" lon="-4.781150">
        <ele>2104.0</ele>
        <time>2018-09-16T13:49:14Z</time>
      </trkpt>
      <trkpt lat="40.263350" lon="-4.781083">
        <ele>2103.0</ele>
        <time>2018-09-16T13:49:15Z</time>
      </trkpt>
      <trkpt lat="40.263283" lon="-4.781033">
        <ele>2102.0</ele>
        <time>2018-09-16T13:49:16Z</time>
      </trkpt>
      <trkpt lat="40.263200" lon="-4.780967">
        <ele>2101.0</ele>
        <time>2018-09-16T13:49:17Z</time>
      </trkpt>
      <trkpt lat="40.263117" lon="-4.780917">
        <ele>2100.0</ele>
        <time>2018-09-16T13:49:18Z</time>
      </trkpt>
      <trkpt lat="40.263033" lon="-4.780850">
        <ele>2101.0</ele>
        <time>2018-09-16T13:49:19Z</time>
      </trkpt>
      <trkpt lat="40.262950" lon="-4.780800">
        <ele>2100.0</ele>
        <time>2018-09-16T13:49:20Z</time>
      </trkpt>
      <trkpt lat="40.262867" lon="-4.780750">
        <ele>2100.0</ele>
        <time>2018-09-16T13:49:21Z</time>
      </trkpt>
      <trkpt lat="40.262783" lon="-4.780700">
        <ele>2099.0</ele>
        <time>2018-09-16T13:49:22Z</time>
      </trkpt>
      <trkpt lat="40.262700" lon="-4.780650">
        <ele>2098.0</ele>
        <time>2018-09-16T13:49:23Z</time>
      </trkpt>
      <trkpt lat="40.262617" lon="-4.780600">
        <ele>2097.0</ele>
        <time>2018-09-16T13:49:24Z</time>
      </trkpt>
      <trkpt lat="40.262517" lon="-4.780550">
        <ele>2096.0</ele>
        <time>2018-09-16T13:49:25Z</time>
      </trkpt>
      <trkpt lat="40.262433" lon="-4.780483">
        <ele>2096.0</ele>
        <time>2018-09-16T13:49:26Z</time>
      </trkpt>
      <trkpt lat="40.262350" lon="-4.780433">
        <ele>2095.0</ele>
        <time>2018-09-16T13:49:27Z</time>
      </trkpt>
      <trkpt lat="40.262250" lon="-4.780383">
        <ele>2094.0</ele>
        <time>2018-09-16T13:49:28Z</time>
      </trkpt>
      <trkpt lat="40.262167" lon="-4.780333">
        <ele>2093.0</ele>
        <time>2018-09-16T13:49:29Z</time>
      </trkpt>
      <trkpt lat="40.262083" lon="-4.780283">
        <ele>2092.0</ele>
        <time>2018-09-16T13:49:30Z</time>
      </trkpt>
      <trkpt lat="40.262000" lon="-4.780233">
        <ele>2091.0</ele>
        <time>2018-09-16T13:49:31Z</time>
      </trkpt>
      <trkpt lat="40.261917" lon="-4.780183">
        <ele>2089.0</ele>
        <time>2018-09-16T13:49:32Z</time>
      </trkpt>
      <trkpt lat="40.261833" lon="-4.780133">
        <ele>2087.0</ele>
        <time>2018-09-16T13:49:33Z</time>
      </trkpt>
      <trkpt lat="40.261750" lon="-4.780083">
        <ele>2085.0</ele>
        <time>2018-09-16T13:49:34Z</time>
      </trkpt>
      <trkpt lat="40.261683" lon="-4.780017">
        <ele>2082.0</ele>
        <time>2018-09-16T13:49:35Z</time>
      </trkpt>
      <trkpt lat="40.261600" lon="-4.779967">
        <ele>2078.0</ele>
        <time>2018-09-16T13:49:36Z</time>
      </trkpt>
      <trkpt lat="40.261533" lon="-4.779900">
        <ele>2075.0</ele>
        <time>2018-09-16T13:49:37Z</time>
      </trkpt>
      <trkpt lat="40.261450" lon="-4.779850">
        <ele>2071.0</ele>
        <time>2018-09-16T13:49:38Z</time>
      </trkpt>
      <trkpt lat="40.261317" lon="-4.779817">
        <ele>2068.0</ele>
        <time>2018-09-16T13:49:39Z</time>
      </trkpt>
      <trkpt lat="40.261233" lon="-4.779767">
        <ele>2076.0</ele>
        <time>2018-09-16T13:49:40Z</time>
      </trkpt>
      <trkpt lat="40.261150" lon="-4.779700">
        <ele>2075.0</ele>
        <time>2018-09-16T13:49:41Z</time>
      </trkpt>
      <trkpt lat="40.261067" lon="-4.779650">
        <ele>2073.0</ele>
        <time>2018-09-16T13:49:42Z</time>
      </trkpt>
      <trkpt lat="40.260983" lon="-4.779583">
        <ele>2072.0</ele>
        <time>2018-09-16T13:49:43Z</time>
      </trkpt>
      <trkpt lat="40.260900" lon="-4.779533">
        <ele>2070.0</ele>
        <time>2018-09-16T13:49:44Z</time>
      </trkpt>
      <trkpt lat="40.260833" lon="-4.779467">
        <ele>2068.0</ele>
        <time>2018-09-16T13:49:45Z</time>
      </trkpt>
      <trkpt lat="40.260750" lon="-4.779400">
        <ele>2067.0</ele>
        <time>2018-09-16T13:49:46Z</time>
      </trkpt>
      <trkpt lat="40.260667" lon="-4.779350">
        <ele>2065.0</ele>
        <time>2018-09-16T13:49:47Z</time>
      </trkpt>
      <trkpt lat="40.260583" lon="-4.779300">
        <ele>2063.0</ele>
        <time>2018-09-16T13:49:48Z</time>
      </trkpt>
      <trkpt lat="40.260517" lon="-4.779233">
        <ele>2061.0</ele>
        <time>2018-09-16T13:49:49Z</time>
      </trkpt>
      <trkpt lat="40.260433" lon="-4.779183">
        <ele>2059.0</ele>
        <time>2018-09-16T13:49:50Z</time>
      </trkpt>
      <trkpt lat="40.260367" lon="-4.779117">
        <ele>2056.0</ele>
        <time>2018-09-16T13:49:51Z</time>
      </trkpt>
      <trkpt lat="40.260300" lon="-4.779050">
        <ele>2058.0</ele>
        <time>2018-09-16T13:49:52Z</time>
      </trkpt>
      <trkpt lat="40.260233" lon="-4.779000">
        <ele>2056.0</ele>
        <time>2018-09-16T13:49:53Z</time>
      </trkpt>
      <trkpt lat="40.260150" lon="-4.778950">
        <ele>2055.0</ele>
        <time>2018-09-16T13:49:54Z</time>
      </trkpt>
      <trkpt lat="40.260083" lon="-4.778900">
        <ele>2053.0</ele>
        <time>2018-09-16T13:49:55Z</time>
      </trkpt>
      <trkpt lat="40.260033" lon="-4.778850">
        <ele>2051.0</ele>
        <time>2018-09-16T13:49:56Z</time>
      </trkpt>
      <trkpt lat="40.259950" lon="-4.778800">
        <ele>2046.0</ele>
        <time>2018-09-16T13:49:57Z</time>
      </trkpt>
      <trkpt lat="40.259867" lon="-4.778750">
        <ele>2044.0</ele>
        <time>2018-09-16T13:49:58Z</time>
      </trkpt>
      <trkpt lat="40.259800" lon="-4.778700">
        <ele>2043.0</ele>
        <time>2018-09-16T13:49:59Z</time>
      </trkpt>
      <trkpt lat="40.259717" lon="-4.778650">
        <ele>2041.0</ele>
        <time>2018-09-16T13:50:00Z</time>
      </trkpt>
      <trkpt lat="40.259633" lon="-4.778600">
        <ele>2040.0</ele>
        <time>2018-09-16T13:50:01Z</time>
      </trkpt>
      <trkpt lat="40.259550" lon="-4.778550">
        <ele>2038.0</ele>
        <time>2018-09-16T13:50:02Z</time>
      </trkpt>
      <trkpt lat="40.259467" lon="-4.778500">
        <ele>2037.0</ele>
        <time>2018-09-16T13:50:03Z</time>
      </trkpt>
      <trkpt lat="40.259383" lon="-4.778450">
        <ele>2035.0</ele>
        <time>2018-09-16T13:50:04Z</time>
      </trkpt>
      <trkpt lat="40.259300" lon="-4.778400">
        <ele>2033.0</ele>
        <time>2018-09-16T13:50:05Z</time>
      </trkpt>
      <trkpt lat="40.259217" lon="-4.778350">
        <ele>2031.0</ele>
        <time>2018-09-16T13:50:06Z</time>
      </trkpt>
      <trkpt lat="40.259133" lon="-4.778300">
        <ele>2028.0</ele>
        <time>2018-09-16T13:50:07Z</time>
      </trkpt>
      <trkpt lat="40.259067" lon="-4.778250">
        <ele>2026.0</ele>
        <time>2018-09-16T13:50:08Z</time>
      </trkpt>
      <trkpt lat="40.258983" lon="-4.778183">
        <ele>2023.0</ele>
        <time>2018-09-16T13:50:09Z</time>
      </trkpt>
      <trkpt lat="40.258900" lon="-4.778133">
        <ele>2020.0</ele>
        <time>2018-09-16T13:50:10Z</time>
      </trkpt>
      <trkpt lat="40.258833" lon="-4.778083">
        <ele>2017.0</ele>
        <time>2018-09-16T13:50:11Z</time>
      </trkpt>
      <trkpt lat="40.258750" lon="-4.778017">
        <ele>2013.0</ele>
        <time>2018-09-16T13:50:12Z</time>
      </trkpt>
      <trkpt lat="40.258683" lon="-4.777967">
        <ele>2010.0</ele>
        <time>2018-09-16T13:50:13Z</time>
      </trkpt>
      <trkpt lat="40.258617" lon="-4.777900">
        <ele>2006.0</ele>
        <time>2018-09-16T13:50:14Z</time>
      </trkpt>
      <trkpt lat="40.258533" lon="-4.777850">
        <ele>2003.0</ele>
        <time>2018-09-16T13:50:15Z</time>
      </trkpt>
      <trkpt lat="40.258467" lon="-4.777800">
        <ele>1999.0</ele>
        <time>2018-09-16T13:50:16Z</time>
      </trkpt>
      <trkpt lat="40.258417" lon="-4.777750">
        <ele>1996.0</ele>
        <time>2018-09-16T13:50:17Z</time>
      </trkpt>
      <trkpt lat="40.258367" lon="-4.777700">
        <ele>1991.0</ele>
        <time>2018-09-16T13:50:18Z</time>
      </trkpt>
      <trkpt lat="40.258283" lon="-4.777667">
        <ele>1987.0</ele>
        <time>2018-09-16T13:50:19Z</time>
      </trkpt>
      <trkpt lat="40.258217" lon="-4.777600">
        <ele>1984.0</ele>
        <time>2018-09-16T13:50:20Z</time>
      </trkpt>
      <trkpt lat="40.258133" lon="-4.777550">
        <ele>1981.0</ele>
        <time>2018-09-16T13:50:21Z</time>
      </trkpt>
      <trkpt lat="40.258067" lon="-4.777483">
        <ele>1979.0</ele>
        <time>2018-09-16T13:50:22Z</time>
      </trkpt>
      <trkpt lat="40.257983" lon="-4.777433">
        <ele>1977.0</ele>
        <time>2018-09-16T13:50:23Z</time>
      </trkpt>
      <trkpt lat="40.257900" lon="-4.777383">
        <ele>1976.0</ele>
        <time>2018-09-16T13:50:24Z</time>
      </trkpt>
      <trkpt lat="40.257817" lon="-4.777350">
        <ele>1975.0</ele>
        <time>2018-09-16T13:50:25Z</time>
      </trkpt>
      <trkpt lat="40.257733" lon="-4.777283">
        <ele>1974.0</ele>
        <time>2018-09-16T13:50:26Z</time>
      </trkpt>
      <trkpt lat="40.257650" lon="-4.777233">
        <ele>1975.0</ele>
        <time>2018-09-16T13:50:27Z</time>
      </trkpt>
      <trkpt lat="40.257567" lon="-4.777183">
        <ele>1974.0</ele>
        <time>2018-09-16T13:50:28Z</time>
      </trkpt>
      <trkpt lat="40.257483" lon="-4.777117">
        <ele>1974.0</ele>
        <time>2018-09-16T13:50:29Z</time>
      </trkpt>
      <trkpt lat="40.257400" lon="-4.777067">
        <ele>1973.0</ele>
        <time>2018-09-16T13:50:30Z</time>
      </trkpt>
      <trkpt lat="40.257300" lon="-4.777017">
        <ele>1971.0</ele>
        <time>2018-09-16T13:50:31Z</time>
      </trkpt>
      <trkpt lat="40.257217" lon="-4.776967">
        <ele>1970.0</ele>
        <time>2018-09-16T13:50:32Z</time>
      </trkpt>
      <trkpt lat="40.257133" lon="-4.776917">
        <ele>1968.0</ele>
        <time>2018-09-16T13:50:33Z</time>
      </trkpt>
      <trkpt lat="40.257050" lon="-4.776867">
        <ele>1966.0</ele>
        <time>2018-09-16T13:50:34Z</time>
      </trkpt>
      <trkpt lat="40.256967" lon="-4.776800">
        <ele>1964.0</ele>
        <time>2018-09-16T13:50:35Z</time>
      </trkpt>
      <trkpt lat="40.256883" lon="-4.776750">
        <ele>1963.0</ele>
        <time>2018-09-16T13:50:36Z</time>
      </trkpt>
      <trkpt lat="40.256800" lon="-4.776717">
        <ele>1961.0</ele>
        <time>2018-09-16T13:50:37Z</time>
      </trkpt>
      <trkpt lat="40.256733" lon="-4.776667">
        <ele>1960.0</ele>
        <time>2018-09-16T13:50:38Z</time>
      </trkpt>
      <trkpt lat="40.256667" lon="-4.776617">
        <ele>1958.0</ele>
        <time>2018-09-16T13:50:39Z</time>
      </trkpt>
      <trkpt lat="40.256583" lon="-4.776567">
        <ele>1959.0</ele>
        <time>2018-09-16T13:50:40Z</time>
      </trkpt>
      <trkpt lat="40.256517" lon="-4.776517">
        <ele>1957.0</ele>
        <time>2018-09-16T13:50:41Z</time>
      </trkpt>
      <trkpt lat="40.256417" lon="-4.776467">
        <ele>1955.0</ele>
        <time>2018-09-16T13:50:42Z</time>
      </trkpt>
      <trkpt lat="40.256317" lon="-4.776433">
        <ele>1954.0</ele>
        <time>2018-09-16T13:50:43Z</time>
      </trkpt>
      <trkpt lat="40.256233" lon="-4.776417">
        <ele>1953.0</ele>
        <time>2018-09-16T13:50:44Z</time>
      </trkpt>
      <trkpt lat="40.256150" lon="-4.776400">
        <ele>1951.0</ele>
        <time>2018-09-16T13:50:45Z</time>
      </trkpt>
      <trkpt lat="40.256083" lon="-4.776400">
        <ele>1950.0</ele>
        <time>2018-09-16T13:50:46Z</time>
      </trkpt>
      <trkpt lat="40.256000" lon="-4.776400">
        <ele>1949.0</ele>
        <time>2018-09-16T13:50:47Z</time>
      </trkpt>
      <trkpt lat="40.255917" lon="-4.776383">
        <ele>1947.0</ele>
        <time>2018-09-16T13:50:48Z</time>
      </trkpt>
      <trkpt lat="40.255833" lon="-4.776383">
        <ele>1945.0</ele>
        <time>2018-09-16T13:50:49Z</time>
      </trkpt>
      <trkpt lat="40.255750" lon="-4.776367">
        <ele>1943.0</ele>
        <time>2018-09-16T13:50:50Z</time>
      </trkpt>
      <trkpt lat="40.255667" lon="-4.776367">
        <ele>1943.0</ele>
        <time>2018-09-16T13:50:51Z</time>
      </trkpt>
      <trkpt lat="40.255600" lon="-4.776367">
        <ele>1943.0</ele>
        <time>2018-09-16T13:50:52Z</time>
      </trkpt>
      <trkpt lat="40.255517" lon="-4.776350">
        <ele>1942.0</ele>
        <time>2018-09-16T13:50:53Z</time>
      </trkpt>
      <trkpt lat="40.255450" lon="-4.776333">
        <ele>1941.0</ele>
        <time>2018-09-16T13:50:54Z</time>
      </trkpt>
      <trkpt lat="40.255367" lon="-4.776317">
        <ele>1939.0</ele>
        <time>2018-09-16T13:50:55Z</time>
      </trkpt>
      <trkpt lat="40.255283" lon="-4.776300">
        <ele>1937.0</ele>
        <time>2018-09-16T13:50:56Z</time>
      </trkpt>
      <trkpt lat="40.255217" lon="-4.776267">
        <ele>1936.0</ele>
        <time>2018-09-16T13:50:57Z</time>
      </trkpt>
      <trkpt lat="40.255167" lon="-4.776233">
        <ele>1935.0</ele>
        <time>2018-09-16T13:50:58Z</time>
      </trkpt>
      <trkpt lat="40.255100" lon="-4.776200">
        <ele>1934.0</ele>
        <time>2018-09-16T13:50:59Z</time>
      </trkpt>
      <trkpt lat="40.255017" lon="-4.776183">
        <ele>1932.0</ele>
        <time>2018-09-16T13:51:00Z</time>
      </trkpt>
      <trkpt lat="40.254950" lon="-4.776150">
        <ele>1930.0</ele>
        <time>2018-09-16T13:51:01Z</time>
      </trkpt>
      <trkpt lat="40.254867" lon="-4.776133">
        <ele>1928.0</ele>
        <time>2018-09-16T13:51:02Z</time>
      </trkpt>
      <trkpt lat="40.254783" lon="-4.776100">
        <ele>1927.0</ele>
        <time>2018-09-16T13:51:03Z</time>
      </trkpt>
      <trkpt lat="40.254717" lon="-4.776083">
        <ele>1926.0</ele>
        <time>2018-09-16T13:51:04Z</time>
      </trkpt>
      <trkpt lat="40.254633" lon="-4.776067">
        <ele>1925.0</ele>
        <time>2018-09-16T13:51:05Z</time>
      </trkpt>
      <trkpt lat="40.254550" lon="-4.776067">
        <ele>1923.0</ele>
        <time>2018-09-16T13:51:06Z</time>
      </trkpt>
      <trkpt lat="40.254467" lon="-4.776033">
        <ele>1921.0</ele>
        <time>2018-09-16T13:51:07Z</time>
      </trkpt>
      <trkpt lat="40.254400" lon="-4.776000">
        <ele>1919.0</ele>
        <time>2018-09-16T13:51:08Z</time>
      </trkpt>
      <trkpt lat="40.254317" lon="-4.775967">
        <ele>1918.0</ele>
        <time>2018-09-16T13:51:09Z</time>
      </trkpt>
      <trkpt lat="40.254250" lon="-4.775933">
        <ele>1917.0</ele>
        <time>2018-09-16T13:51:10Z</time>
      </trkpt>
      <trkpt lat="40.254167" lon="-4.775917">
        <ele>1916.0</ele>
        <time>2018-09-16T13:51:11Z</time>
      </trkpt>
      <trkpt lat="40.254100" lon="-4.775883">
        <ele>1915.0</ele>
        <time>2018-09-16T13:51:12Z</time>
      </trkpt>
      <trkpt lat="40.254017" lon="-4.775833">
        <ele>1914.0</ele>
        <time>2018-09-16T13:51:13Z</time>
      </trkpt>
      <trkpt lat="40.253950" lon="-4.775800">
        <ele>1912.0</ele>
        <time>2018-09-16T13:51:14Z</time>
      </trkpt>
      <trkpt lat="40.253867" lon="-4.775750">
        <ele>1911.0</ele>
        <time>2018-09-16T13:51:15Z</time>
      </trkpt>
      <trkpt lat="40.253800" lon="-4.775700">
        <ele>1910.0</ele>
        <time>2018-09-16T13:51:16Z</time>
      </trkpt>
      <trkpt lat="40.253733" lon="-4.775667">
        <ele>1909.0</ele>
        <time>2018-09-16T13:51:17Z</time>
      </trkpt>
      <trkpt lat="40.253667" lon="-4.775617">
        <ele>1908.0</ele>
        <time>2018-09-16T13:51:18Z</time>
      </trkpt>
      <trkpt lat="40.253600" lon="-4.775567">
        <ele>1906.0</ele>
        <time>2018-09-16T13:51:19Z</time>
      </trkpt>
      <trkpt lat="40.253517" lon="-4.775517">
        <ele>1905.0</ele>
        <time>2018-09-16T13:51:20Z</time>
      </trkpt>
      <trkpt lat="40.253450" lon="-4.775450">
        <ele>1905.0</ele>
        <time>2018-09-16T13:51:21Z</time>
      </trkpt>
      <trkpt lat="40.253367" lon="-4.775400">
        <ele>1905.0</ele>
        <time>2018-09-16T13:51:22Z</time>
      </trkpt>
      <trkpt lat="40.253300" lon="-4.775350">
        <ele>1905.0</ele>
        <time>2018-09-16T13:51:23Z</time>
      </trkpt>
      <trkpt lat="40.253233" lon="-4.775300">
        <ele>1905.0</ele>
        <time>2018-09-16T13:51:24Z</time>
      </trkpt>
      <trkpt lat="40.253167" lon="-4.775233">
        <ele>1904.0</ele>
        <time>2018-09-16T13:51:25Z</time>
      </trkpt>
      <trkpt lat="40.253100" lon="-4.775183">
        <ele>1904.0</ele>
        <time>2018-09-16T13:51:26Z</time>
      </trkpt>
      <trkpt lat="40.253033" lon="-4.775117">
        <ele>1902.0</ele>
        <time>2018-09-16T13:51:27Z</time>
      </trkpt>
      <trkpt lat="40.252950" lon="-4.775067">
        <ele>1901.0</ele>
        <time>2018-09-16T13:51:28Z</time>
      </trkpt>
      <trkpt lat="40.252883" lon="-4.775000">
        <ele>1899.0</ele>
        <time>2018-09-16T13:51:29Z</time>
      </trkpt>
      <trkpt lat="40.252800" lon="-4.774950">
        <ele>1900.0</ele>
        <time>2018-09-16T13:51:30Z</time>
      </trkpt>
      <trkpt lat="40.252733" lon="-4.774900">
        <ele>1900.0</ele>
        <time>2018-09-16T13:51:31Z</time>
      </trkpt>
      <trkpt lat="40.252667" lon="-4.774850">
        <ele>1900.0</ele>
        <time>2018-09-16T13:51:32Z</time>
      </trkpt>
      <trkpt lat="40.252600" lon="-4.774800">
        <ele>1900.0</ele>
        <time>2018-09-16T13:51:33Z</time>
      </trkpt>
      <trkpt lat="40.252517" lon="-4.774750">
        <ele>1900.0</ele>
        <time>2018-09-16T13:51:34Z</time>
      </trkpt>
      <trkpt lat="40.252467" lon="-4.774700">
        <ele>1899.0</ele>
        <time>2018-09-16T13:51:35Z</time>
      </trkpt>
      <trkpt lat="40.252400" lon="-4.774633">
        <ele>1899.0</ele>
        <time>2018-09-16T13:51:36Z</time>
      </trkpt>
      <trkpt lat="40.252333" lon="-4.774583">
        <ele>1899.0</ele>
        <time>2018-09-16T13:51:37Z</time>
      </trkpt>
      <trkpt lat="40.252283" lon="-4.774533">
        <ele>1898.0</ele>
        <time>2018-09-16T13:51:38Z</time>
      </trkpt>
      <trkpt lat="40.252200" lon="-4.774483">
        <ele>1898.0</ele>
        <time>2018-09-16T13:51:39Z</time>
      </trkpt>
      <trkpt lat="40.252133" lon="-4.774433">
        <ele>1898.0</ele>
        <time>2018-09-16T13:51:40Z</time>
      </trkpt>
      <trkpt lat="40.252050" lon="-4.774367">
        <ele>1897.0</ele>
        <time>2018-09-16T13:51:41Z</time>
      </trkpt>
      <trkpt lat="40.251967" lon="-4.774317">
        <ele>1897.0</ele>
        <time>2018-09-16T13:51:42Z</time>
      </trkpt>
      <trkpt lat="40.251900" lon="-4.774250">
        <ele>1896.0</ele>
        <time>2018-09-16T13:51:43Z</time>
      </trkpt>
      <trkpt lat="40.251833" lon="-4.774183">
        <ele>1895.0</ele>
        <time>2018-09-16T13:51:44Z</time>
      </trkpt>
      <trkpt lat="40.251767" lon="-4.774133">
        <ele>1894.0</ele>
        <time>2018-09-16T13:51:45Z</time>
      </trkpt>
      <trkpt lat="40.251700" lon="-4.774083">
        <ele>1892.0</ele>
        <time>2018-09-16T13:51:46Z</time>
      </trkpt>
      <trkpt lat="40.251633" lon="-4.774017">
        <ele>1890.0</ele>
        <time>2018-09-16T13:51:47Z</time>
      </trkpt>
      <trkpt lat="40.251567" lon="-4.773933">
        <ele>1886.0</ele>
        <time>2018-09-16T13:51:48Z</time>
      </trkpt>
      <trkpt lat="40.251500" lon="-4.773867">
        <ele>1882.0</ele>
        <time>2018-09-16T13:51:49Z</time>
      </trkpt>
      <trkpt lat="40.251433" lon="-4.773800">
        <ele>1878.0</ele>
        <time>2018-09-16T13:51:50Z</time>
      </trkpt>
      <trkpt lat="40.251383" lon="-4.773750">
        <ele>1875.0</ele>
        <time>2018-09-16T13:51:51Z</time>
      </trkpt>
      <trkpt lat="40.251333" lon="-4.773700">
        <ele>1872.0</ele>
        <time>2018-09-16T13:51:52Z</time>
      </trkpt>
      <trkpt lat="40.251283" lon="-4.773633">
        <ele>1868.0</ele>
        <time>2018-09-16T13:51:53Z</time>
      </trkpt>
      <trkpt lat="40.251217" lon="-4.773567">
        <ele>1863.0</ele>
        <time>2018-09-16T13:51:54Z</time>
      </trkpt>
      <trkpt lat="40.251150" lon="-4.773500">
        <ele>1858.0</ele>
        <time>2018-09-16T13:51:55Z</time>
      </trkpt>
      <trkpt lat="40.251083" lon="-4.773417">
        <ele>1855.0</ele>
        <time>2018-09-16T13:51:56Z</time>
      </trkpt>
      <trkpt lat="40.251017" lon="-4.773350">
        <ele>1852.0</ele>
        <time>2018-09-16T13:51:57Z</time>
      </trkpt>
      <trkpt lat="40.250950" lon="-4.773267">
        <ele>1849.0</ele>
        <time>2018-09-16T13:51:58Z</time>
      </trkpt>
      <trkpt lat="40.250883" lon="-4.773200">
        <ele>1847.0</ele>
        <time>2018-09-16T13:51:59Z</time>
      </trkpt>
      <trkpt lat="40.250833" lon="-4.773117">
        <ele>1845.0</ele>
        <time>2018-09-16T13:52:00Z</time>
      </trkpt>
      <trkpt lat="40.250767" lon="-4.773050">
        <ele>1843.0</ele>
        <time>2018-09-16T13:52:01Z</time>
      </trkpt>
      <trkpt lat="40.250700" lon="-4.772983">
        <ele>1841.0</ele>
        <time>2018-09-16T13:52:02Z</time>
      </trkpt>
      <trkpt lat="40.250633" lon="-4.772917">
        <ele>1840.0</ele>
        <time>2018-09-16T13:52:03Z</time>
      </trkpt>
      <trkpt lat="40.250567" lon="-4.772850">
        <ele>1838.0</ele>
        <time>2018-09-16T13:52:04Z</time>
      </trkpt>
      <trkpt lat="40.250517" lon="-4.772783">
        <ele>1837.0</ele>
        <time>2018-09-16T13:52:05Z</time>
      </trkpt>
      <trkpt lat="40.250450" lon="-4.772717">
        <ele>1835.0</ele>
        <time>2018-09-16T13:52:06Z</time>
      </trkpt>
      <trkpt lat="40.250383" lon="-4.772650">
        <ele>1833.0</ele>
        <time>2018-09-16T13:52:07Z</time>
      </trkpt>
      <trkpt lat="40.250317" lon="-4.772583">
        <ele>1830.0</ele>
        <time>2018-09-16T13:52:08Z</time>
      </trkpt>
      <trkpt lat="40.250250" lon="-4.772517">
        <ele>1829.0</ele>
        <time>2018-09-16T13:52:09Z</time>
      </trkpt>
      <trkpt lat="40.250200" lon="-4.772450">
        <ele>1827.0</ele>
        <time>2018-09-16T13:52:10Z</time>
      </trkpt>
      <trkpt lat="40.250167" lon="-4.772383">
        <ele>1826.0</ele>
        <time>2018-09-16T13:52:11Z</time>
      </trkpt>
      <trkpt lat="40.250117" lon="-4.772317">
        <ele>1824.0</ele>
        <time>2018-09-16T13:52:12Z</time>
      </trkpt>
      <trkpt lat="40.250050" lon="-4.772267">
        <ele>1822.0</ele>
        <time>2018-09-16T13:52:13Z</time>
      </trkpt>
      <trkpt lat="40.249983" lon="-4.772200">
        <ele>1820.0</ele>
        <time>2018-09-16T13:52:14Z</time>
      </trkpt>
      <trkpt lat="40.249933" lon="-4.772133">
        <ele>1818.0</ele>
        <time>2018-09-16T13:52:15Z</time>
      </trkpt>
      <trkpt lat="40.249867" lon="-4.772067">
        <ele>1815.0</ele>
        <time>2018-09-16T13:52:16Z</time>
      </trkpt>
      <trkpt lat="40.249800" lon="-4.771983">
        <ele>1813.0</ele>
        <time>2018-09-16T13:52:17Z</time>
      </trkpt>
      <trkpt lat="40.249733" lon="-4.771917">
        <ele>1811.0</ele>
        <time>2018-09-16T13:52:18Z</time>
      </trkpt>
      <trkpt lat="40.249667" lon="-4.771833">
        <ele>1813.0</ele>
        <time>2018-09-16T13:52:19Z</time>
      </trkpt>
      <trkpt lat="40.249617" lon="-4.771783">
        <ele>1812.0</ele>
        <time>2018-09-16T13:52:20Z</time>
      </trkpt>
      <trkpt lat="40.249567" lon="-4.771717">
        <ele>1811.0</ele>
        <time>2018-09-16T13:52:21Z</time>
      </trkpt>
      <trkpt lat="40.249517" lon="-4.771650">
        <ele>1809.0</ele>
        <time>2018-09-16T13:52:22Z</time>
      </trkpt>
      <trkpt lat="40.249483" lon="-4.771583">
        <ele>1807.0</ele>
        <time>2018-09-16T13:52:23Z</time>
      </trkpt>
      <trkpt lat="40.249417" lon="-4.771517">
        <ele>1803.0</ele>
        <time>2018-09-16T13:52:24Z</time>
      </trkpt>
      <trkpt lat="40.249367" lon="-4.771450">
        <ele>1800.0</ele>
        <time>2018-09-16T13:52:25Z</time>
      </trkpt>
      <trkpt lat="40.249300" lon="-4.771383">
        <ele>1797.0</ele>
        <time>2018-09-16T13:52:26Z</time>
      </trkpt>
      <trkpt lat="40.249250" lon="-4.771333">
        <ele>1795.0</ele>
        <time>2018-09-16T13:52:27Z</time>
      </trkpt>
      <trkpt lat="40.249217" lon="-4.771283">
        <ele>1793.0</ele>
        <time>2018-09-16T13:52:28Z</time>
      </trkpt>
      <trkpt lat="40.249167" lon="-4.771217">
        <ele>1790.0</ele>
        <time>2018-09-16T13:52:29Z</time>
      </trkpt>
      <trkpt lat="40.249100" lon="-4.771150">
        <ele>1788.0</ele>
        <time>2018-09-16T13:52:30Z</time>
      </trkpt>
      <trkpt lat="40.249033" lon="-4.771083">
        <ele>1790.0</ele>
        <time>2018-09-16T13:52:31Z</time>
      </trkpt>
      <trkpt lat="40.248983" lon="-4.771017">
        <ele>1789.0</ele>
        <time>2018-09-16T13:52:32Z</time>
      </trkpt>
      <trkpt lat="40.248917" lon="-4.770950">
        <ele>1789.0</ele>
        <time>2018-09-16T13:52:33Z</time>
      </trkpt>
      <trkpt lat="40.248867" lon="-4.770917">
        <ele>1788.0</ele>
        <time>2018-09-16T13:52:34Z</time>
      </trkpt>
      <trkpt lat="40.248800" lon="-4.770867">
        <ele>1788.0</ele>
        <time>2018-09-16T13:52:35Z</time>
      </trkpt>
      <trkpt lat="40.248750" lon="-4.770817">
        <ele>1787.0</ele>
        <time>2018-09-16T13:52:36Z</time>
      </trkpt>
      <trkpt lat="40.248683" lon="-4.770767">
        <ele>1787.0</ele>
        <time>2018-09-16T13:52:37Z</time>
      </trkpt>
      <trkpt lat="40.248617" lon="-4.770700">
        <ele>1786.0</ele>
        <time>2018-09-16T13:52:38Z</time>
      </trkpt>
      <trkpt lat="40.248533" lon="-4.770650">
        <ele>1786.0</ele>
        <time>2018-09-16T13:52:39Z</time>
      </trkpt>
      <trkpt lat="40.248483" lon="-4.770583">
        <ele>1785.0</ele>
        <time>2018-09-16T13:52:40Z</time>
      </trkpt>
      <trkpt lat="40.248433" lon="-4.770533">
        <ele>1784.0</ele>
        <time>2018-09-16T13:52:41Z</time>
      </trkpt>
      <trkpt lat="40.248383" lon="-4.770467">
        <ele>1783.0</ele>
        <time>2018-09-16T13:52:42Z</time>
      </trkpt>
      <trkpt lat="40.248333" lon="-4.770417">
        <ele>1782.0</ele>
        <time>2018-09-16T13:52:43Z</time>
      </trkpt>
      <trkpt lat="40.248283" lon="-4.770350">
        <ele>1781.0</ele>
        <time>2018-09-16T13:52:44Z</time>
      </trkpt>
      <trkpt lat="40.248233" lon="-4.770283">
        <ele>1780.0</ele>
        <time>2018-09-16T13:52:45Z</time>
      </trkpt>
      <trkpt lat="40.248183" lon="-4.770217">
        <ele>1779.0</ele>
        <time>2018-09-16T13:52:46Z</time>
      </trkpt>
      <trkpt lat="40.248133" lon="-4.770150">
        <ele>1778.0</ele>
        <time>2018-09-16T13:52:47Z</time>
      </trkpt>
      <trkpt lat="40.248083" lon="-4.770083">
        <ele>1777.0</ele>
        <time>2018-09-16T13:52:48Z</time>
      </trkpt>
      <trkpt lat="40.248017" lon="-4.770033">
        <ele>1776.0</ele>
        <time>2018-09-16T13:52:49Z</time>
      </trkpt>
      <trkpt lat="40.247950" lon="-4.769967">
        <ele>1776.0</ele>
        <time>2018-09-16T13:52:50Z</time>
      </trkpt>
      <trkpt lat="40.247883" lon="-4.769917">
        <ele>1775.0</ele>
        <time>2018-09-16T13:52:51Z</time>
      </trkpt>
      <trkpt lat="40.247817" lon="-4.769900">
        <ele>1774.0</ele>
        <time>2018-09-16T13:52:52Z</time>
      </trkpt>
      <trkpt lat="40.247750" lon="-4.769867">
        <ele>1773.0</ele>
        <time>2018-09-16T13:52:53Z</time>
      </trkpt>
      <trkpt lat="40.247700" lon="-4.769817">
        <ele>1772.0</ele>
        <time>2018-09-16T13:52:54Z</time>
      </trkpt>
      <trkpt lat="40.247667" lon="-4.769750">
        <ele>1769.0</ele>
        <time>2018-09-16T13:52:55Z</time>
      </trkpt>
      <trkpt lat="40.247633" lon="-4.769667">
        <ele>1765.0</ele>
        <time>2018-09-16T13:52:56Z</time>
      </trkpt>
      <trkpt lat="40.247600" lon="-4.769600">
        <ele>1760.0</ele>
        <time>2018-09-16T13:52:57Z</time>
      </trkpt>
      <trkpt lat="40.247567" lon="-4.769517">
        <ele>1753.0</ele>
        <time>2018-09-16T13:52:58Z</time>
      </trkpt>
      <trkpt lat="40.247533" lon="-4.769467">
        <ele>1745.0</ele>
        <time>2018-09-16T13:52:59Z</time>
      </trkpt>
      <trkpt lat="40.247517" lon="-4.769400">
        <ele>1737.0</ele>
        <time>2018-09-16T13:53:00Z</time>
      </trkpt>
      <trkpt lat="40.247483" lon="-4.769333">
        <ele>1729.0</ele>
        <time>2018-09-16T13:53:01Z</time>
      </trkpt>
      <trkpt lat="40.247450" lon="-4.769267">
        <ele>1723.0</ele>
        <time>2018-09-16T13:53:02Z</time>
      </trkpt>
      <trkpt lat="40.247417" lon="-4.769200">
        <ele>1718.0</ele>
        <time>2018-09-16T13:53:03Z</time>
      </trkpt>
      <trkpt lat="40.247383" lon="-4.769150">
        <ele>1712.0</ele>
        <time>2018-09-16T13:53:04Z</time>
      </trkpt>
      <trkpt lat="40.247350" lon="-4.769083">
        <ele>1705.0</ele>
        <time>2018-09-16T13:53:05Z</time>
      </trkpt>
      <trkpt lat="40.247317" lon="-4.769017">
        <ele>1699.0</ele>
        <time>2018-09-16T13:53:06Z</time>
      </trkpt>
      <trkpt lat="40.247283" lon="-4.768950">
        <ele>1694.0</ele>
        <time>2018-09-16T13:53:07Z</time>
      </trkpt>
      <trkpt lat="40.247250" lon="-4.768867">
        <ele>1688.0</ele>
        <time>2018-09-16T13:53:08Z</time>
      </trkpt>
      <trkpt lat="40.247217" lon="-4.768783">
        <ele>1683.0</ele>
        <time>2018-09-16T13:53:09Z</time>
      </trkpt>
      <trkpt lat="40.247183" lon="-4.768717">
        <ele>1678.0</ele>
        <time>2018-09-16T13:53:10Z</time>
      </trkpt>
      <trkpt lat="40.247150" lon="-4.768633">
        <ele>1673.0</ele>
        <time>2018-09-16T13:53:11Z</time>
      </trkpt>
      <trkpt lat="40.247117" lon="-4.768567">
        <ele>1669.0</ele>
        <time>2018-09-16T13:53:12Z</time>
      </trkpt>
      <trkpt lat="40.247083" lon="-4.768483">
        <ele>1664.0</ele>
        <time>2018-09-16T13:53:13Z</time>
      </trkpt>
      <trkpt lat="40.247050" lon="-4.768417">
        <ele>1659.0</ele>
        <time>2018-09-16T13:53:14Z</time>
      </trkpt>
      <trkpt lat="40.247017" lon="-4.768333">
        <ele>1655.0</ele>
        <time>2018-09-16T13:53:15Z</time>
      </trkpt>
      <trkpt lat="40.246967" lon="-4.768267">
        <ele>1650.0</ele>
        <time>2018-09-16T13:53:16Z</time>
      </trkpt>
      <trkpt lat="40.246933" lon="-4.768183">
        <ele>1646.0</ele>
        <time>2018-09-16T13:53:17Z</time>
      </trkpt>
      <trkpt lat="40.246867" lon="-4.768100">
        <ele>1641.0</ele>
        <time>2018-09-16T13:53:18Z</time>
      </trkpt>
      <trkpt lat="40.246817" lon="-4.768050">
        <ele>1645.0</ele>
        <time>2018-09-16T13:53:19Z</time>
      </trkpt>
      <trkpt lat="40.246767" lon="-4.767967">
        <ele>1645.0</ele>
        <time>2018-09-16T13:53:20Z</time>
      </trkpt>
      <trkpt lat="40.246717" lon="-4.767900">
        <ele>1644.0</ele>
        <time>2018-09-16T13:53:21Z</time>
      </trkpt>
      <trkpt lat="40.246667" lon="-4.767833">
        <ele>1643.0</ele>
        <time>2018-09-16T13:53:22Z</time>
      </trkpt>
      <trkpt lat="40.246600" lon="-4.767750">
        <ele>1642.0</ele>
        <time>2018-09-16T13:53:23Z</time>
      </trkpt>
      <trkpt lat="40.246550" lon="-4.767700">
        <ele>1641.0</ele>
        <time>2018-09-16T13:53:24Z</time>
      </trkpt>
      <trkpt lat="40.246500" lon="-4.767633">
        <ele>1640.0</ele>
        <time>2018-09-16T13:53:25Z</time>
      </trkpt>
      <trkpt lat="40.246450" lon="-4.767567">
        <ele>1639.0</ele>
        <time>2018-09-16T13:53:26Z</time>
      </trkpt>
      <trkpt lat="40.246400" lon="-4.767483">
        <ele>1638.0</ele>
        <time>2018-09-16T13:53:27Z</time>
      </trkpt>
      <trkpt lat="40.246333" lon="-4.767417">
        <ele>1633.0</ele>
        <time>2018-09-16T13:53:28Z</time>
      </trkpt>
      <trkpt lat="40.246300" lon="-4.767350">
        <ele>1628.0</ele>
        <time>2018-09-16T13:53:29Z</time>
      </trkpt>
      <trkpt lat="40.246250" lon="-4.767283">
        <ele>1623.0</ele>
        <time>2018-09-16T13:53:30Z</time>
      </trkpt>
      <trkpt lat="40.246217" lon="-4.767217">
        <ele>1620.0</ele>
        <time>2018-09-16T13:53:31Z</time>
      </trkpt>
      <trkpt lat="40.246167" lon="-4.767133">
        <ele>1620.0</ele>
        <time>2018-09-16T13:53:32Z</time>
      </trkpt>
      <trkpt lat="40.246117" lon="-4.767067">
        <ele>1618.0</ele>
        <time>2018-09-16T13:53:33Z</time>
      </trkpt>
      <trkpt lat="40.246083" lon="-4.766983">
        <ele>1616.0</ele>
        <time>2018-09-16T13:53:34Z</time>
      </trkpt>
      <trkpt lat="40.246067" lon="-4.766900">
        <ele>1614.0</ele>
        <time>2018-09-16T13:53:35Z</time>
      </trkpt>
      <trkpt lat="40.246050" lon="-4.766817">
        <ele>1611.0</ele>
        <time>2018-09-16T13:53:36Z</time>
      </trkpt>
      <trkpt lat="40.246033" lon="-4.766733">
        <ele>1608.0</ele>
        <time>2018-09-16T13:53:37Z</time>
      </trkpt>
      <trkpt lat="40.246017" lon="-4.766650">
        <ele>1604.0</ele>
        <time>2018-09-16T13:53:38Z</time>
      </trkpt>
      <trkpt lat="40.246000" lon="-4.766567">
        <ele>1599.0</ele>
        <time>2018-09-16T13:53:39Z</time>
      </trkpt>
      <trkpt lat="40.245967" lon="-4.766483">
        <ele>1592.0</ele>
        <time>2018-09-16T13:53:40Z</time>
      </trkpt>
      <trkpt lat="40.245933" lon="-4.766400">
        <ele>1587.0</ele>
        <time>2018-09-16T13:53:41Z</time>
      </trkpt>
      <trkpt lat="40.245900" lon="-4.766317">
        <ele>1581.0</ele>
        <time>2018-09-16T13:53:42Z</time>
      </trkpt>
      <trkpt lat="40.245867" lon="-4.766233">
        <ele>1576.0</ele>
        <time>2018-09-16T13:53:43Z</time>
      </trkpt>
      <trkpt lat="40.245833" lon="-4.766133">
        <ele>1576.0</ele>
        <time>2018-09-16T13:53:44Z</time>
      </trkpt>
      <trkpt lat="40.245800" lon="-4.766033">
        <ele>1575.0</ele>
        <time>2018-09-16T13:53:45Z</time>
      </trkpt>
      <trkpt lat="40.245767" lon="-4.765933">
        <ele>1575.0</ele>
        <time>2018-09-16T13:53:46Z</time>
      </trkpt>
      <trkpt lat="40.245733" lon="-4.765833">
        <ele>1573.0</ele>
        <time>2018-09-16T13:53:47Z</time>
      </trkpt>
      <trkpt lat="40.245717" lon="-4.765750">
        <ele>1571.0</ele>
        <time>2018-09-16T13:53:48Z</time>
      </trkpt>
      <trkpt lat="40.245683" lon="-4.765650">
        <ele>1568.0</ele>
        <time>2018-09-16T13:53:49Z</time>
      </trkpt>
      <trkpt lat="40.245667" lon="-4.765567">
        <ele>1566.0</ele>
        <time>2018-09-16T13:53:50Z</time>
      </trkpt>
      <trkpt lat="40.245633" lon="-4.765483">
        <ele>1563.0</ele>
        <time>2018-09-16T13:53:51Z</time>
      </trkpt>
      <trkpt lat="40.245600" lon="-4.765400">
        <ele>1560.0</ele>
        <time>2018-09-16T13:53:52Z</time>
      </trkpt>
      <trkpt lat="40.245567" lon="-4.765317">
        <ele>1558.0</ele>
        <time>2018-09-16T13:53:53Z</time>
      </trkpt>
      <trkpt lat="40.245533" lon="-4.765250">
        <ele>1554.0</ele>
        <time>2018-09-16T13:53:54Z</time>
      </trkpt>
      <trkpt lat="40.245500" lon="-4.765183">
        <ele>1551.0</ele>
        <time>2018-09-16T13:53:55Z</time>
      </trkpt>
      <trkpt lat="40.245467" lon="-4.765117">
        <ele>1547.0</ele>
        <time>2018-09-16T13:53:56Z</time>
      </trkpt>
      <trkpt lat="40.245433" lon="-4.765067">
        <ele>1544.0</ele>
        <time>2018-09-16T13:53:57Z</time>
      </trkpt>
      <trkpt lat="40.245417" lon="-4.765000">
        <ele>1540.0</ele>
        <time>2018-09-16T13:53:58Z</time>
      </trkpt>
      <trkpt lat="40.245383" lon="-4.764933">
        <ele>1534.0</ele>
        <time>2018-09-16T13:53:59Z</time>
      </trkpt>
      <trkpt lat="40.245333" lon="-4.764833">
        <ele>1528.0</ele>
        <time>2018-09-16T13:54:00Z</time>
      </trkpt>
      <trkpt lat="40.245300" lon="-4.764750">
        <ele>1529.0</ele>
        <time>2018-09-16T13:54:01Z</time>
      </trkpt>
      <trkpt lat="40.245267" lon="-4.764650">
        <ele>1526.0</ele>
        <time>2018-09-16T13:54:02Z</time>
      </trkpt>
      <trkpt lat="40.245233" lon="-4.764567">
        <ele>1522.0</ele>
        <time>2018-09-16T13:54:03Z</time>
      </trkpt>
      <trkpt lat="40.245217" lon="-4.764483">
        <ele>1518.0</ele>
        <time>2018-09-16T13:54:04Z</time>
      </trkpt>
      <trkpt lat="40.245183" lon="-4.764400">
        <ele>1515.0</ele>
        <time>2018-09-16T13:54:05Z</time>
      </trkpt>
      <trkpt lat="40.245150" lon="-4.764317">
        <ele>1511.0</ele>
        <time>2018-09-16T13:54:06Z</time>
      </trkpt>
      <trkpt lat="40.245100" lon="-4.764233">
        <ele>1505.0</ele>
        <time>2018-09-16T13:54:07Z</time>
      </trkpt>
      <trkpt lat="40.245067" lon="-4.764133">
        <ele>1501.0</ele>
        <time>2018-09-16T13:54:08Z</time>
      </trkpt>
      <trkpt lat="40.245017" lon="-4.764033">
        <ele>1497.0</ele>
        <time>2018-09-16T13:54:09Z</time>
      </trkpt>
      <trkpt lat="40.244983" lon="-4.763933">
        <ele>1494.0</ele>
        <time>2018-09-16T13:54:10Z</time>
      </trkpt>
      <trkpt lat="40.244933" lon="-4.763867">
        <ele>1491.0</ele>
        <time>2018-09-16T13:54:11Z</time>
      </trkpt>
      <trkpt lat="40.244900" lon="-4.763783">
        <ele>1489.0</ele>
        <time>2018-09-16T13:54:12Z</time>
      </trkpt>
      <trkpt lat="40.244867" lon="-4.763717">
        <ele>1487.0</ele>
        <time>2018-09-16T13:54:13Z</time>
      </trkpt>
      <trkpt lat="40.244817" lon="-4.763633">
        <ele>1484.0</ele>
        <time>2018-09-16T13:54:14Z</time>
      </trkpt>
      <trkpt lat="40.244783" lon="-4.763533">
        <ele>1481.0</ele>
        <time>2018-09-16T13:54:15Z</time>
      </trkpt>
      <trkpt lat="40.244733" lon="-4.763433">
        <ele>1478.0</ele>
        <time>2018-09-16T13:54:16Z</time>
      </trkpt>
      <trkpt lat="40.244700" lon="-4.763317">
        <ele>1475.0</ele>
        <time>2018-09-16T13:54:17Z</time>
      </trkpt>
      <trkpt lat="40.244667" lon="-4.763200">
        <ele>1474.0</ele>
        <time>2018-09-16T13:54:18Z</time>
      </trkpt>
      <trkpt lat="40.244633" lon="-4.763117">
        <ele>1472.0</ele>
        <time>2018-09-16T13:54:19Z</time>
      </trkpt>
      <trkpt lat="40.244617" lon="-4.763033">
        <ele>1471.0</ele>
        <time>2018-09-16T13:54:20Z</time>
      </trkpt>
      <trkpt lat="40.244583" lon="-4.762950">
        <ele>1468.0</ele>
        <time>2018-09-16T13:54:21Z</time>
      </trkpt>
      <trkpt lat="40.244550" lon="-4.762883">
        <ele>1465.0</ele>
        <time>2018-09-16T13:54:22Z</time>
      </trkpt>
      <trkpt lat="40.244517" lon="-4.762783">
        <ele>1462.0</ele>
        <time>2018-09-16T13:54:23Z</time>
      </trkpt>
      <trkpt lat="40.244483" lon="-4.762683">
        <ele>1458.0</ele>
        <time>2018-09-16T13:54:24Z</time>
      </trkpt>
      <trkpt lat="40.244450" lon="-4.762583">
        <ele>1453.0</ele>
        <time>2018-09-16T13:54:25Z</time>
      </trkpt>
      <trkpt lat="40.244417" lon="-4.762467">
        <ele>1450.0</ele>
        <time>2018-09-16T13:54:26Z</time>
      </trkpt>
      <trkpt lat="40.244383" lon="-4.762400">
        <ele>1452.0</ele>
        <time>2018-09-16T13:54:27Z</time>
      </trkpt>
      <trkpt lat="40.244350" lon="-4.762350">
        <ele>1451.0</ele>
        <time>2018-09-16T13:54:28Z</time>
      </trkpt>
      <trkpt lat="40.244317" lon="-4.762267">
        <ele>1450.0</ele>
        <time>2018-09-16T13:54:29Z</time>
      </trkpt>
      <trkpt lat="40.244283" lon="-4.762200">
        <ele>1449.0</ele>
        <time>2018-09-16T13:54:30Z</time>
      </trkpt>
      <trkpt lat="40.244250" lon="-4.762117">
        <ele>1447.0</ele>
        <time>2018-09-16T13:54:31Z</time>
      </trkpt>
      <trkpt lat="40.244233" lon="-4.762033">
        <ele>1444.0</ele>
        <time>2018-09-16T13:54:32Z</time>
      </trkpt>
      <trkpt lat="40.244183" lon="-4.761967">
        <ele>1441.0</ele>
        <time>2018-09-16T13:54:33Z</time>
      </trkpt>
      <trkpt lat="40.244150" lon="-4.761917">
        <ele>1439.0</ele>
        <time>2018-09-16T13:54:34Z</time>
      </trkpt>
      <trkpt lat="40.244117" lon="-4.761850">
        <ele>1436.0</ele>
        <time>2018-09-16T13:54:35Z</time>
      </trkpt>
      <trkpt lat="40.244083" lon="-4.761800">
        <ele>1434.0</ele>
        <time>2018-09-16T13:54:36Z</time>
      </trkpt>
      <trkpt lat="40.244050" lon="-4.761733">
        <ele>1432.0</ele>
        <time>2018-09-16T13:54:37Z</time>
      </trkpt>
      <trkpt lat="40.244033" lon="-4.761650">
        <ele>1429.0</ele>
        <time>2018-09-16T13:54:38Z</time>
      </trkpt>
      <trkpt lat="40.244000" lon="-4.761583">
        <ele>1426.0</ele>
        <time>2018-09-16T13:54:39Z</time>
      </trkpt>
      <trkpt lat="40.243967" lon="-4.761517">
        <ele>1422.0</ele>
        <time>2018-09-16T13:54:40Z</time>
      </trkpt>
      <trkpt lat="40.243933" lon="-4.761433">
        <ele>1419.0</ele>
        <time>2018-09-16T13:54:41Z</time>
      </trkpt>
      <trkpt lat="40.243900" lon="-4.761350">
        <ele>1416.0</ele>
        <time>2018-09-16T13:54:42Z</time>
      </trkpt>
      <trkpt lat="40.243883" lon="-4.761267">
        <ele>1414.0</ele>
        <time>2018-09-16T13:54:43Z</time>
      </trkpt>
      <trkpt lat="40.243867" lon="-4.761200">
        <ele>1412.0</ele>
        <time>2018-09-16T13:54:44Z</time>
      </trkpt>
      <trkpt lat="40.243850" lon="-4.761117">
        <ele>1409.0</ele>
        <time>2018-09-16T13:54:45Z</time>
      </trkpt>
      <trkpt lat="40.243817" lon="-4.761033">
        <ele>1407.0</ele>
        <time>2018-09-16T13:54:46Z</time>
      </trkpt>
      <trkpt lat="40.243800" lon="-4.760950">
        <ele>1404.0</ele>
        <time>2018-09-16T13:54:47Z</time>
      </trkpt>
      <trkpt lat="40.243767" lon="-4.760850">
        <ele>1401.0</ele>
        <time>2018-09-16T13:54:48Z</time>
      </trkpt>
      <trkpt lat="40.243733" lon="-4.760767">
        <ele>1399.0</ele>
        <time>2018-09-16T13:54:49Z</time>
      </trkpt>
      <trkpt lat="40.243717" lon="-4.760667">
        <ele>1397.0</ele>
        <time>2018-09-16T13:54:50Z</time>
      </trkpt>
      <trkpt lat="40.243683" lon="-4.760583">
        <ele>1396.0</ele>
        <time>2018-09-16T13:54:51Z</time>
      </trkpt>
      <trkpt lat="40.243667" lon="-4.760500">
        <ele>1395.0</ele>
        <time>2018-09-16T13:54:52Z</time>
      </trkpt>
      <trkpt lat="40.243633" lon="-4.760400">
        <ele>1395.0</ele>
        <time>2018-09-16T13:54:53Z</time>
      </trkpt>
      <trkpt lat="40.243600" lon="-4.760317">
        <ele>1396.0</ele>
        <time>2018-09-16T13:54:54Z</time>
      </trkpt>
      <trkpt lat="40.243567" lon="-4.760217">
        <ele>1395.0</ele>
        <time>2018-09-16T13:54:55Z</time>
      </trkpt>
      <trkpt lat="40.243550" lon="-4.760133">
        <ele>1395.0</ele>
        <time>2018-09-16T13:54:56Z</time>
      </trkpt>
      <trkpt lat="40.243517" lon="-4.760050">
        <ele>1394.0</ele>
        <time>2018-09-16T13:54:57Z</time>
      </trkpt>
      <trkpt lat="40.243500" lon="-4.759967">
        <ele>1393.0</ele>
        <time>2018-09-16T13:54:58Z</time>
      </trkpt>
      <trkpt lat="40.243483" lon="-4.759883">
        <ele>1391.0</ele>
        <time>2018-09-16T13:54:59Z</time>
      </trkpt>
      <trkpt lat="40.243450" lon="-4.759800">
        <ele>1388.0</ele>
        <time>2018-09-16T13:55:00Z</time>
      </trkpt>
      <trkpt lat="40.243417" lon="-4.759717">
        <ele>1385.0</ele>
        <time>2018-09-16T13:55:01Z</time>
      </trkpt>
      <trkpt lat="40.243383" lon="-4.759633">
        <ele>1382.0</ele>
        <time>2018-09-16T13:55:02Z</time>
      </trkpt>
      <trkpt lat="40.243350" lon="-4.759533">
        <ele>1379.0</ele>
        <time>2018-09-16T13:55:03Z</time>
      </trkpt>
      <trkpt lat="40.243317" lon="-4.759450">
        <ele>1376.0</ele>
        <time>2018-09-16T13:55:04Z</time>
      </trkpt>
      <trkpt lat="40.243283" lon="-4.759350">
        <ele>1377.0</ele>
        <time>2018-09-16T13:55:05Z</time>
      </trkpt>
      <trkpt lat="40.243233" lon="-4.759250">
        <ele>1376.0</ele>
        <time>2018-09-16T13:55:06Z</time>
      </trkpt>
      <trkpt lat="40.243200" lon="-4.759150">
        <ele>1375.0</ele>
        <time>2018-09-16T13:55:07Z</time>
      </trkpt>
      <trkpt lat="40.243167" lon="-4.759050">
        <ele>1374.0</ele>
        <time>2018-09-16T13:55:08Z</time>
      </trkpt>
      <trkpt lat="40.243133" lon="-4.758967">
        <ele>1373.0</ele>
        <time>2018-09-16T13:55:09Z</time>
      </trkpt>
      <trkpt lat="40.243117" lon="-4.758867">
        <ele>1372.0</ele>
        <time>2018-09-16T13:55:10Z</time>
      </trkpt>
      <trkpt lat="40.243083" lon="-4.758800">
        <ele>1372.0</ele>
        <time>2018-09-16T13:55:11Z</time>
      </trkpt>
      <trkpt lat="40.243050" lon="-4.758717">
        <ele>1371.0</ele>
        <time>2018-09-16T13:55:12Z</time>
      </trkpt>
      <trkpt lat="40.243000" lon="-4.758617">
        <ele>1370.0</ele>
        <time>2018-09-16T13:55:13Z</time>
      </trkpt>
      <trkpt lat="40.242967" lon="-4.758517">
        <ele>1370.0</ele>
        <time>2018-09-16T13:55:14Z</time>
      </trkpt>
      <trkpt lat="40.242917" lon="-4.758400">
        <ele>1369.0</ele>
        <time>2018-09-16T13:55:15Z</time>
      </trkpt>
      <trkpt lat="40.242883" lon="-4.758300">
        <ele>1367.0</ele>
        <time>2018-09-16T13:55:16Z</time>
      </trkpt>
      <trkpt lat="40.242850" lon="-4.758200">
        <ele>1365.0</ele>
        <time>2018-09-16T13:55:17Z</time>
      </trkpt>
      <trkpt lat="40.242817" lon="-4.758100">
        <ele>1364.0</ele>
        <time>2018-09-16T13:55:18Z</time>
      </trkpt>
      <trkpt lat="40.242783" lon="-4.758017">
        <ele>1361.0</ele>
        <time>2018-09-16T13:55:19Z</time>
      </trkpt>
      <trkpt lat="40.242750" lon="-4.757917">
        <ele>1359.0</ele>
        <time>2018-09-16T13:55:20Z</time>
      </trkpt>
      <trkpt lat="40.242700" lon="-4.757833">
        <ele>1357.0</ele>
        <time>2018-09-16T13:55:21Z</time>
      </trkpt>
      <trkpt lat="40.242667" lon="-4.757750">
        <ele>1354.0</ele>
        <time>2018-09-16T13:55:22Z</time>
      </trkpt>
      <trkpt lat="40.242617" lon="-4.757683">
        <ele>1352.0</ele>
        <time>2018-09-16T13:55:23Z</time>
      </trkpt>
      <trkpt lat="40.242583" lon="-4.757600">
        <ele>1350.0</ele>
        <time>2018-09-16T13:55:24Z</time>
      </trkpt>
      <trkpt lat="40.242533" lon="-4.757517">
        <ele>1347.0</ele>
        <time>2018-09-16T13:55:25Z</time>
      </trkpt>
      <trkpt lat="40.242500" lon="-4.757433">
        <ele>1345.0</ele>
        <time>2018-09-16T13:55:26Z</time>
      </trkpt>
      <trkpt lat="40.242450" lon="-4.757350">
        <ele>1342.0</ele>
        <time>2018-09-16T13:55:27Z</time>
      </trkpt>
      <trkpt lat="40.242400" lon="-4.757267">
        <ele>1340.0</ele>
        <time>2018-09-16T13:55:28Z</time>
      </trkpt>
      <trkpt lat="40.242367" lon="-4.757183">
        <ele>1341.0</ele>
        <time>2018-09-16T13:55:29Z</time>
      </trkpt>
      <trkpt lat="40.242317" lon="-4.757117">
        <ele>1340.0</ele>
        <time>2018-09-16T13:55:30Z</time>
      </trkpt>
      <trkpt lat="40.242267" lon="-4.757017">
        <ele>1340.0</ele>
        <time>2018-09-16T13:55:31Z</time>
      </trkpt>
      <trkpt lat="40.242233" lon="-4.756917">
        <ele>1338.0</ele>
        <time>2018-09-16T13:55:32Z</time>
      </trkpt>
      <trkpt lat="40.242183" lon="-4.756833">
        <ele>1337.0</ele>
        <time>2018-09-16T13:55:33Z</time>
      </trkpt>
      <trkpt lat="40.242150" lon="-4.756750">
        <ele>1335.0</ele>
        <time>2018-09-16T13:55:34Z</time>
      </trkpt>
      <trkpt lat="40.242100" lon="-4.756667">
        <ele>1334.0</ele>
        <time>2018-09-16T13:55:35Z</time>
      </trkpt>
      <trkpt lat="40.242067" lon="-4.756600">
        <ele>1332.0</ele>
        <time>2018-09-16T13:55:36Z</time>
      </trkpt>
      <trkpt lat="40.242017" lon="-4.756500">
        <ele>1330.0</ele>
        <time>2018-09-16T13:55:37Z</time>
      </trkpt>
      <trkpt lat="40.241983" lon="-4.756417">
        <ele>1330.0</ele>
        <time>2018-09-16T13:55:38Z</time>
      </trkpt>
      <trkpt lat="40.241950" lon="-4.756350">
        <ele>1330.0</ele>
        <time>2018-09-16T13:55:39Z</time>
      </trkpt>
      <trkpt lat="40.241883" lon="-4.756283">
        <ele>1329.0</ele>
        <time>2018-09-16T13:55:40Z</time>
      </trkpt>
      <trkpt lat="40.241850" lon="-4.756200">
        <ele>1328.0</ele>
        <time>2018-09-16T13:55:41Z</time>
      </trkpt>
      <trkpt lat="40.241800" lon="-4.756117">
        <ele>1327.0</ele>
        <time>2018-09-16T13:55:42Z</time>
      </trkpt>
      <trkpt lat="40.241750" lon="-4.756033">
        <ele>1326.0</ele>
        <time>2018-09-16T13:55:43Z</time>
      </trkpt>
      <trkpt lat="40.241717" lon="-4.755933">
        <ele>1324.0</ele>
        <time>2018-09-16T13:55:44Z</time>
      </trkpt>
      <trkpt lat="40.241667" lon="-4.755850">
        <ele>1322.0</ele>
        <time>2018-09-16T13:55:45Z</time>
      </trkpt>
      <trkpt lat="40.241617" lon="-4.755767">
        <ele>1320.0</ele>
        <time>2018-09-16T13:55:46Z</time>
      </trkpt>
      <trkpt lat="40.241567" lon="-4.755683">
        <ele>1319.0</ele>
        <time>2018-09-16T13:55:47Z</time>
      </trkpt>
      <trkpt lat="40.241517" lon="-4.755583">
        <ele>1317.0</ele>
        <time>2018-09-16T13:55:48Z</time>
      </trkpt>
      <trkpt lat="40.241483" lon="-4.755500">
        <ele>1316.0</ele>
        <time>2018-09-16T13:55:49Z</time>
      </trkpt>
      <trkpt lat="40.241433" lon="-4.755417">
        <ele>1315.0</ele>
        <time>2018-09-16T13:55:50Z</time>
      </trkpt>
      <trkpt lat="40.241383" lon="-4.755350">
        <ele>1313.0</ele>
        <time>2018-09-16T13:55:51Z</time>
      </trkpt>
      <trkpt lat="40.241333" lon="-4.755267">
        <ele>1311.0</ele>
        <time>2018-09-16T13:55:52Z</time>
      </trkpt>
      <trkpt lat="40.241283" lon="-4.755183">
        <ele>1310.0</ele>
        <time>2018-09-16T13:55:53Z</time>
      </trkpt>
      <trkpt lat="40.241250" lon="-4.755083">
        <ele>1310.0</ele>
        <time>2018-09-16T13:55:54Z</time>
      </trkpt>
      <trkpt lat="40.241217" lon="-4.755000">
        <ele>1309.0</ele>
        <time>2018-09-16T13:55:55Z</time>
      </trkpt>
      <trkpt lat="40.241167" lon="-4.754900">
        <ele>1307.0</ele>
        <time>2018-09-16T13:55:56Z</time>
      </trkpt>
      <trkpt lat="40.241100" lon="-4.754800">
        <ele>1305.0</ele>
        <time>2018-09-16T13:55:57Z</time>
      </trkpt>
      <trkpt lat="40.241050" lon="-4.754717">
        <ele>1304.0</ele>
        <time>2018-09-16T13:55:58Z</time>
      </trkpt>
      <trkpt lat="40.241000" lon="-4.754633">
        <ele>1304.0</ele>
        <time>2018-09-16T13:55:59Z</time>
      </trkpt>
      <trkpt lat="40.240950" lon="-4.754567">
        <ele>1304.0</ele>
        <time>2018-09-16T13:56:00Z</time>
      </trkpt>
      <trkpt lat="40.240917" lon="-4.754517">
        <ele>1304.0</ele>
        <time>2018-09-16T13:56:01Z</time>
      </trkpt>
      <trkpt lat="40.240883" lon="-4.754450">
        <ele>1303.0</ele>
        <time>2018-09-16T13:56:02Z</time>
      </trkpt>
      <trkpt lat="40.240833" lon="-4.754383">
        <ele>1301.0</ele>
        <time>2018-09-16T13:56:03Z</time>
      </trkpt>
      <trkpt lat="40.240783" lon="-4.754300">
        <ele>1299.0</ele>
        <time>2018-09-16T13:56:04Z</time>
      </trkpt>
      <trkpt lat="40.240717" lon="-4.754217">
        <ele>1298.0</ele>
        <time>2018-09-16T13:56:05Z</time>
      </trkpt>
      <trkpt lat="40.240683" lon="-4.754133">
        <ele>1297.0</ele>
        <time>2018-09-16T13:56:06Z</time>
      </trkpt>
      <trkpt lat="40.240633" lon="-4.754050">
        <ele>1297.0</ele>
        <time>2018-09-16T13:56:07Z</time>
      </trkpt>
      <trkpt lat="40.240583" lon="-4.753967">
        <ele>1297.0</ele>
        <time>2018-09-16T13:56:08Z</time>
      </trkpt>
      <trkpt lat="40.240533" lon="-4.753883">
        <ele>1296.0</ele>
        <time>2018-09-16T13:56:09Z</time>
      </trkpt>
      <trkpt lat="40.240483" lon="-4.753817">
        <ele>1295.0</ele>
        <time>2018-09-16T13:56:10Z</time>
      </trkpt>
      <trkpt lat="40.240417" lon="-4.753750">
        <ele>1294.0</ele>
        <time>2018-09-16T13:56:11Z</time>
      </trkpt>
      <trkpt lat="40.240367" lon="-4.753667">
        <ele>1293.0</ele>
        <time>2018-09-16T13:56:12Z</time>
      </trkpt>
      <trkpt lat="40.240317" lon="-4.753583">
        <ele>1293.0</ele>
        <time>2018-09-16T13:56:13Z</time>
      </trkpt>
      <trkpt lat="40.240267" lon="-4.753517">
        <ele>1292.0</ele>
        <time>2018-09-16T13:56:14Z</time>
      </trkpt>
      <trkpt lat="40.240217" lon="-4.753433">
        <ele>1292.0</ele>
        <time>2018-09-16T13:56:15Z</time>
      </trkpt>
      <trkpt lat="40.240150" lon="-4.753367">
        <ele>1291.0</ele>
        <time>2018-09-16T13:56:16Z</time>
      </trkpt>
      <trkpt lat="40.240100" lon="-4.753300">
        <ele>1291.0</ele>
        <time>2018-09-16T13:56:17Z</time>
      </trkpt>
      <trkpt lat="40.240067" lon="-4.753217">
        <ele>1290.0</ele>
        <time>2018-09-16T13:56:18Z</time>
      </trkpt>
      <trkpt lat="40.240017" lon="-4.753150">
        <ele>1289.0</ele>
        <time>2018-09-16T13:56:19Z</time>
      </trkpt>
      <trkpt lat="40.239967" lon="-4.753083">
        <ele>1289.0</ele>
        <time>2018-09-16T13:56:20Z</time>
      </trkpt>
      <trkpt lat="40.239917" lon="-4.753017">
        <ele>1288.0</ele>
        <time>2018-09-16T13:56:21Z</time>
      </trkpt>
      <trkpt lat="40.239867" lon="-4.752933">
        <ele>1287.0</ele>
        <time>2018-09-16T13:56:22Z</time>
      </trkpt>
      <trkpt lat="40.239817" lon="-4.752867">
        <ele>1286.0</ele>
        <time>2018-09-16T13:56:23Z</time>
      </trkpt>
      <trkpt lat="40.239767" lon="-4.752817">
        <ele>1286.0</ele>
        <time>2018-09-16T13:56:24Z</time>
      </trkpt>
      <trkpt lat="40.239717" lon="-4.752767">
        <ele>1286.0</ele>
        <time>2018-09-16T13:56:25Z</time>
      </trkpt>
      <trkpt lat="40.239683" lon="-4.752717">
        <ele>1286.0</ele>
        <time>2018-09-16T13:56:26Z</time>
      </trkpt>
      <trkpt lat="40.239617" lon="-4.752667">
        <ele>1285.0</ele>
        <time>2018-09-16T13:56:27Z</time>
      </trkpt>
      <trkpt lat="40.239550" lon="-4.752617">
        <ele>1284.0</ele>
        <time>2018-09-16T13:56:28Z</time>
      </trkpt>
      <trkpt lat="40.239483" lon="-4.752583">
        <ele>1282.0</ele>
        <time>2018-09-16T13:56:29Z</time>
      </trkpt>
      <trkpt lat="40.239417" lon="-4.752550">
        <ele>1283.0</ele>
        <time>2018-09-16T13:56:30Z</time>
      </trkpt>
      <trkpt lat="40.239367" lon="-4.752500">
        <ele>1285.0</ele>
        <time>2018-09-16T13:56:31Z</time>
      </trkpt>
      <trkpt lat="40.239317" lon="-4.752467">
        <ele>1286.0</ele>
        <time>2018-09-16T13:56:32Z</time>
      </trkpt>
      <trkpt lat="40.239283" lon="-4.752417">
        <ele>1287.0</ele>
        <time>2018-09-16T13:56:33Z</time>
      </trkpt>
      <trkpt lat="40.239233" lon="-4.752383">
        <ele>1287.0</ele>
        <time>2018-09-16T13:56:34Z</time>
      </trkpt>
      <trkpt lat="40.239200" lon="-4.752350">
        <ele>1287.0</ele>
        <time>2018-09-16T13:56:35Z</time>
      </trkpt>
      <trkpt lat="40.239150" lon="-4.752333">
        <ele>1287.0</ele>
        <time>2018-09-16T13:56:36Z</time>
      </trkpt>
      <trkpt lat="40.239083" lon="-4.752333">
        <ele>1287.0</ele>
        <time>2018-09-16T13:56:37Z</time>
      </trkpt>
      <trkpt lat="40.239050" lon="-4.752383">
        <ele>1287.0</ele>
        <time>2018-09-16T13:56:38Z</time>
      </trkpt>
      <trkpt lat="40.239017" lon="-4.752450">
        <ele>1287.0</ele>
        <time>2018-09-16T13:56:39Z</time>
      </trkpt>
      <trkpt lat="40.239017" lon="-4.752550">
        <ele>1286.0</ele>
        <time>2018-09-16T13:56:40Z</time>
      </trkpt>
      <trkpt lat="40.239050" lon="-4.752617">
        <ele>1286.0</ele>
        <time>2018-09-16T13:56:41Z</time>
      </trkpt>
      <trkpt lat="40.239067" lon="-4.752683">
        <ele>1286.0</ele>
        <time>2018-09-16T13:56:42Z</time>
      </trkpt>
      <trkpt lat="40.239100" lon="-4.752750">
        <ele>1286.0</ele>
        <time>2018-09-16T13:56:43Z</time>
      </trkpt>
      <trkpt lat="40.239150" lon="-4.752800">
        <ele>1286.0</ele>
        <time>2018-09-16T13:56:44Z</time>
      </trkpt>
      <trkpt lat="40.239217" lon="-4.752833">
        <ele>1285.0</ele>
        <time>2018-09-16T13:56:45Z</time>
      </trkpt>
      <trkpt lat="40.239317" lon="-4.752850">
        <ele>1285.0</ele>
        <time>2018-09-16T13:56:46Z</time>
      </trkpt>
      <trkpt lat="40.239433" lon="-4.752817">
        <ele>1285.0</ele>
        <time>2018-09-16T13:56:47Z</time>
      </trkpt>
      <trkpt lat="40.239650" lon="-4.752733">
        <ele>1284.0</ele>
        <time>2018-09-16T13:56:49Z</time>
      </trkpt>
      <trkpt lat="40.239750" lon="-4.752683">
        <ele>1283.0</ele>
        <time>2018-09-16T13:56:50Z</time>
      </trkpt>
      <trkpt lat="40.239833" lon="-4.752617">
        <ele>1282.0</ele>
        <time>2018-09-16T13:56:51Z</time>
      </trkpt>
      <trkpt lat="40.239917" lon="-4.752500">
        <ele>1280.0</ele>
        <time>2018-09-16T13:56:52Z</time>
      </trkpt>
      <trkpt lat="40.239950" lon="-4.752367">
        <ele>1278.0</ele>
        <time>2018-09-16T13:56:53Z</time>
      </trkpt>
      <trkpt lat="40.239967" lon="-4.752217">
        <ele>1275.0</ele>
        <time>2018-09-16T13:56:54Z</time>
      </trkpt>
      <trkpt lat="40.239933" lon="-4.752083">
        <ele>1271.0</ele>
        <time>2018-09-16T13:56:55Z</time>
      </trkpt>
      <trkpt lat="40.239883" lon="-4.751983">
        <ele>1268.0</ele>
        <time>2018-09-16T13:56:56Z</time>
      </trkpt>
      <trkpt lat="40.239817" lon="-4.751900">
        <ele>1266.0</ele>
        <time>2018-09-16T13:56:57Z</time>
      </trkpt>
      <trkpt lat="40.239750" lon="-4.751833">
        <ele>1264.0</ele>
        <time>2018-09-16T13:56:58Z</time>
      </trkpt>
      <trkpt lat="40.239700" lon="-4.751783">
        <ele>1266.0</ele>
        <time>2018-09-16T13:56:59Z</time>
      </trkpt>
      <trkpt lat="40.239650" lon="-4.751733">
        <ele>1265.0</ele>
        <time>2018-09-16T13:57:00Z</time>
      </trkpt>
      <trkpt lat="40.239600" lon="-4.751683">
        <ele>1265.0</ele>
        <time>2018-09-16T13:57:01Z</time>
      </trkpt>
      <trkpt lat="40.239550" lon="-4.751667">
        <ele>1264.0</ele>
        <time>2018-09-16T13:57:02Z</time>
      </trkpt>
      <trkpt lat="40.239483" lon="-4.751650">
        <ele>1263.0</ele>
        <time>2018-09-16T13:57:03Z</time>
      </trkpt>
      <trkpt lat="40.239417" lon="-4.751633">
        <ele>1263.0</ele>
        <time>2018-09-16T13:57:04Z</time>
      </trkpt>
      <trkpt lat="40.239350" lon="-4.751617">
        <ele>1262.0</ele>
        <time>2018-09-16T13:57:05Z</time>
      </trkpt>
      <trkpt lat="40.239283" lon="-4.751567">
        <ele>1261.0</ele>
        <time>2018-09-16T13:57:06Z</time>
      </trkpt>
      <trkpt lat="40.239217" lon="-4.751517">
        <ele>1261.0</ele>
        <time>2018-09-16T13:57:07Z</time>
      </trkpt>
      <trkpt lat="40.239150" lon="-4.751467">
        <ele>1259.0</ele>
        <time>2018-09-16T13:57:08Z</time>
      </trkpt>
      <trkpt lat="40.239083" lon="-4.751400">
        <ele>1258.0</ele>
        <time>2018-09-16T13:57:09Z</time>
      </trkpt>
      <trkpt lat="40.239033" lon="-4.751333">
        <ele>1257.0</ele>
        <time>2018-09-16T13:57:10Z</time>
      </trkpt>
      <trkpt lat="40.238967" lon="-4.751267">
        <ele>1257.0</ele>
        <time>2018-09-16T13:57:11Z</time>
      </trkpt>
      <trkpt lat="40.238900" lon="-4.751183">
        <ele>1256.0</ele>
        <time>2018-09-16T13:57:12Z</time>
      </trkpt>
      <trkpt lat="40.238833" lon="-4.751117">
        <ele>1255.0</ele>
        <time>2018-09-16T13:57:13Z</time>
      </trkpt>
      <trkpt lat="40.238767" lon="-4.751050">
        <ele>1255.0</ele>
        <time>2018-09-16T13:57:14Z</time>
      </trkpt>
      <trkpt lat="40.238700" lon="-4.750967">
        <ele>1255.0</ele>
        <time>2018-09-16T13:57:15Z</time>
      </trkpt>
      <trkpt lat="40.238633" lon="-4.750900">
        <ele>1254.0</ele>
        <time>2018-09-16T13:57:16Z</time>
      </trkpt>
      <trkpt lat="40.238550" lon="-4.750850">
        <ele>1253.0</ele>
        <time>2018-09-16T13:57:17Z</time>
      </trkpt>
      <trkpt lat="40.238467" lon="-4.750800">
        <ele>1253.0</ele>
        <time>2018-09-16T13:57:18Z</time>
      </trkpt>
      <trkpt lat="40.238383" lon="-4.750767">
        <ele>1254.0</ele>
        <time>2018-09-16T13:57:19Z</time>
      </trkpt>
      <trkpt lat="40.238317" lon="-4.750717">
        <ele>1255.0</ele>
        <time>2018-09-16T13:57:20Z</time>
      </trkpt>
      <trkpt lat="40.238250" lon="-4.750667">
        <ele>1255.0</ele>
        <time>2018-09-16T13:57:21Z</time>
      </trkpt>
      <trkpt lat="40.238183" lon="-4.750633">
        <ele>1255.0</ele>
        <time>2018-09-16T13:57:22Z</time>
      </trkpt>
      <trkpt lat="40.238100" lon="-4.750600">
        <ele>1255.0</ele>
        <time>2018-09-16T13:57:23Z</time>
      </trkpt>
      <trkpt lat="40.238017" lon="-4.750567">
        <ele>1255.0</ele>
        <time>2018-09-16T13:57:24Z</time>
      </trkpt>
      <trkpt lat="40.237950" lon="-4.750533">
        <ele>1255.0</ele>
        <time>2018-09-16T13:57:25Z</time>
      </trkpt>
      <trkpt lat="40.237867" lon="-4.750500">
        <ele>1255.0</ele>
        <time>2018-09-16T13:57:26Z</time>
      </trkpt>
      <trkpt lat="40.237800" lon="-4.750467">
        <ele>1255.0</ele>
        <time>2018-09-16T13:57:27Z</time>
      </trkpt>
      <trkpt lat="40.237717" lon="-4.750417">
        <ele>1254.0</ele>
        <time>2018-09-16T13:57:28Z</time>
      </trkpt>
      <trkpt lat="40.237617" lon="-4.750383">
        <ele>1253.0</ele>
        <time>2018-09-16T13:57:29Z</time>
      </trkpt>
      <trkpt lat="40.237517" lon="-4.750333">
        <ele>1253.0</ele>
        <time>2018-09-16T13:57:30Z</time>
      </trkpt>
      <trkpt lat="40.237433" lon="-4.750300">
        <ele>1255.0</ele>
        <time>2018-09-16T13:57:31Z</time>
      </trkpt>
      <trkpt lat="40.237367" lon="-4.750233">
        <ele>1257.0</ele>
        <time>2018-09-16T13:57:32Z</time>
      </trkpt>
      <trkpt lat="40.237283" lon="-4.750167">
        <ele>1258.0</ele>
        <time>2018-09-16T13:57:33Z</time>
      </trkpt>
      <trkpt lat="40.237200" lon="-4.750100">
        <ele>1259.0</ele>
        <time>2018-09-16T13:57:34Z</time>
      </trkpt>
      <trkpt lat="40.237117" lon="-4.750033">
        <ele>1261.0</ele>
        <time>2018-09-16T13:57:35Z</time>
      </trkpt>
      <trkpt lat="40.237050" lon="-4.750000">
        <ele>1264.0</ele>
        <time>2018-09-16T13:57:36Z</time>
      </trkpt>
      <trkpt lat="40.236917" lon="-4.749917">
        <ele>1269.0</ele>
        <time>2018-09-16T13:57:38Z</time>
      </trkpt>
      <trkpt lat="40.236833" lon="-4.749867">
        <ele>1267.0</ele>
        <time>2018-09-16T13:57:39Z</time>
      </trkpt>
      <trkpt lat="40.236767" lon="-4.749850">
        <ele>1268.0</ele>
        <time>2018-09-16T13:57:40Z</time>
      </trkpt>
      <trkpt lat="40.236700" lon="-4.749867">
        <ele>1270.0</ele>
        <time>2018-09-16T13:57:41Z</time>
      </trkpt>
      <trkpt lat="40.236633" lon="-4.749917">
        <ele>1271.0</ele>
        <time>2018-09-16T13:57:42Z</time>
      </trkpt>
      <trkpt lat="40.236617" lon="-4.750000">
        <ele>1272.0</ele>
        <time>2018-09-16T13:57:43Z</time>
      </trkpt>
      <trkpt lat="40.236633" lon="-4.750083">
        <ele>1273.0</ele>
        <time>2018-09-16T13:57:44Z</time>
      </trkpt>
      <trkpt lat="40.236683" lon="-4.750150">
        <ele>1272.0</ele>
        <time>2018-09-16T13:57:45Z</time>
      </trkpt>
      <trkpt lat="40.236750" lon="-4.750183">
        <ele>1271.0</ele>
        <time>2018-09-16T13:57:46Z</time>
      </trkpt>
      <trkpt lat="40.236817" lon="-4.750167">
        <ele>1272.0</ele>
        <time>2018-09-16T13:57:47Z</time>
      </trkpt>
      <trkpt lat="40.236883" lon="-4.750100">
        <ele>1273.0</ele>
        <time>2018-09-16T13:57:48Z</time>
      </trkpt>
      <trkpt lat="40.236950" lon="-4.750017">
        <ele>1274.0</ele>
        <time>2018-09-16T13:57:49Z</time>
      </trkpt>
      <trkpt lat="40.236967" lon="-4.749900">
        <ele>1276.0</ele>
        <time>2018-09-16T13:57:50Z</time>
      </trkpt>
      <trkpt lat="40.236967" lon="-4.749767">
        <ele>1277.0</ele>
        <time>2018-09-16T13:57:51Z</time>
      </trkpt>
      <trkpt lat="40.236933" lon="-4.749633">
        <ele>1279.0</ele>
        <time>2018-09-16T13:57:52Z</time>
      </trkpt>
      <trkpt lat="40.236867" lon="-4.749517">
        <ele>1280.0</ele>
        <time>2018-09-16T13:57:53Z</time>
      </trkpt>
      <trkpt lat="40.236783" lon="-4.749483">
        <ele>1282.0</ele>
        <time>2018-09-16T13:57:54Z</time>
      </trkpt>
      <trkpt lat="40.236717" lon="-4.749483">
        <ele>1283.0</ele>
        <time>2018-09-16T13:57:55Z</time>
      </trkpt>
      <trkpt lat="40.236667" lon="-4.749533">
        <ele>1282.0</ele>
        <time>2018-09-16T13:57:56Z</time>
      </trkpt>
      <trkpt lat="40.236650" lon="-4.749617">
        <ele>1282.0</ele>
        <time>2018-09-16T13:57:57Z</time>
      </trkpt>
      <trkpt lat="40.236650" lon="-4.749700">
        <ele>1283.0</ele>
        <time>2018-09-16T13:57:58Z</time>
      </trkpt>
      <trkpt lat="40.236667" lon="-4.749750">
        <ele>1284.0</ele>
        <time>2018-09-16T13:57:59Z</time>
      </trkpt>
      <trkpt lat="40.236717" lon="-4.749800">
        <ele>1285.0</ele>
        <time>2018-09-16T13:58:00Z</time>
      </trkpt>
      <trkpt lat="40.236767" lon="-4.749817">
        <ele>1286.0</ele>
        <time>2018-09-16T13:58:01Z</time>
      </trkpt>
      <trkpt lat="40.236833" lon="-4.749783">
        <ele>1288.0</ele>
        <time>2018-09-16T13:58:02Z</time>
      </trkpt>
      <trkpt lat="40.236900" lon="-4.749700">
        <ele>1289.0</ele>
        <time>2018-09-16T13:58:03Z</time>
      </trkpt>
      <trkpt lat="40.236933" lon="-4.749567">
        <ele>1290.0</ele>
        <time>2018-09-16T13:58:04Z</time>
      </trkpt>
      <trkpt lat="40.236967" lon="-4.749417">
        <ele>1291.0</ele>
        <time>2018-09-16T13:58:05Z</time>
      </trkpt>
      <trkpt lat="40.236950" lon="-4.749267">
        <ele>1293.0</ele>
        <time>2018-09-16T13:58:06Z</time>
      </trkpt>
      <trkpt lat="40.236883" lon="-4.749133">
        <ele>1294.0</ele>
        <time>2018-09-16T13:58:07Z</time>
      </trkpt>
      <trkpt lat="40.236800" lon="-4.749033">
        <ele>1296.0</ele>
        <time>2018-09-16T13:58:08Z</time>
      </trkpt>
      <trkpt lat="40.236717" lon="-4.748950">
        <ele>1298.0</ele>
        <time>2018-09-16T13:58:09Z</time>
      </trkpt>
      <trkpt lat="40.236633" lon="-4.748883">
        <ele>1301.0</ele>
        <time>2018-09-16T13:58:10Z</time>
      </trkpt>
      <trkpt lat="40.236550" lon="-4.748817">
        <ele>1305.0</ele>
        <time>2018-09-16T13:58:11Z</time>
      </trkpt>
      <trkpt lat="40.236467" lon="-4.748767">
        <ele>1309.0</ele>
        <time>2018-09-16T13:58:12Z</time>
      </trkpt>
      <trkpt lat="40.236383" lon="-4.748733">
        <ele>1312.0</ele>
        <time>2018-09-16T13:58:13Z</time>
      </trkpt>
      <trkpt lat="40.236300" lon="-4.748733">
        <ele>1316.0</ele>
        <time>2018-09-16T13:58:14Z</time>
      </trkpt>
      <trkpt lat="40.236233" lon="-4.748767">
        <ele>1318.0</ele>
        <time>2018-09-16T13:58:15Z</time>
      </trkpt>
      <trkpt lat="40.236200" lon="-4.748850">
        <ele>1321.0</ele>
        <time>2018-09-16T13:58:16Z</time>
      </trkpt>
      <trkpt lat="40.236200" lon="-4.748917">
        <ele>1322.0</ele>
        <time>2018-09-16T13:58:17Z</time>
      </trkpt>
      <trkpt lat="40.236250" lon="-4.748967">
        <ele>1324.0</ele>
        <time>2018-09-16T13:58:18Z</time>
      </trkpt>
      <trkpt lat="40.236317" lon="-4.748983">
        <ele>1326.0</ele>
        <time>2018-09-16T13:58:19Z</time>
      </trkpt>
      <trkpt lat="40.236400" lon="-4.748967">
        <ele>1328.0</ele>
        <time>2018-09-16T13:58:20Z</time>
      </trkpt>
      <trkpt lat="40.236467" lon="-4.748900">
        <ele>1332.0</ele>
        <time>2018-09-16T13:58:21Z</time>
      </trkpt>
    </trkseg>
  </trk>
</gpx>
